<?xml version='1.0' encoding='UTF-8'?><gpx creator="YAMAP - https://yamap.com" xsi:schemaLocation="http://www.topografix.com/GPX/1/1 http://www.topografix.com/GPX/1/1/gpx.xsd" version="1.1" xmlns="http://www.topografix.com/GPX/1/1" xmlns:xsi="http://www.w3.org/2001/XMLSchema-instance">
<metadata><bounds maxlat="34.872165" maxlon="134.165358" minlat="34.79537828021385" minlon="134.0769487"/></metadata>
<trk>
<name>WAT2027 LONG</name>
<number>1</number>
<trkseg>
<trkpt lat="34.811578" lon="134.142768"><ele>23.645919674961526</ele><time>2026-08-10T21:55:09Z</time></trkpt>
<trkpt lat="34.81201830872376" lon="134.14265688639017"><ele>23.720260324115582</ele><time>2026-08-10T21:55:28Z</time></trkpt>
<trkpt lat="34.81205061900799" lon="134.14264873276494"><ele>23.739551095013415</ele><time>2026-08-10T21:55:30Z</time></trkpt>
<trkpt lat="34.81205061900799" lon="134.14264873276494"><ele>23.739551095013415</ele><time>2026-08-10T21:55:31Z</time></trkpt>
<trkpt lat="34.81249795630944" lon="134.14259313569423"><ele>24.07506863247734</ele><time>2026-08-10T21:55:52Z</time></trkpt>
<trkpt lat="34.81260189637324" lon="134.14258021756052"><ele>23.808810704316667</ele><time>2026-08-10T21:55:56Z</time></trkpt>
<trkpt lat="34.81260189637324" lon="134.14258021756052"><ele>23.808810704316667</ele><time>2026-08-10T21:55:57Z</time></trkpt>
<trkpt lat="34.81275377826445" lon="134.14305982399156"><ele>24.955741655314498</ele><time>2026-08-10T21:56:19Z</time></trkpt>
<trkpt lat="34.81275377826445" lon="134.14305982399156"><ele>24.955741655314498</ele><time>2026-08-10T21:56:20Z</time></trkpt>
<trkpt lat="34.81283815697198" lon="134.1434092515338"><ele>25.898887414021004</ele><time>2026-08-10T21:56:36Z</time></trkpt>
<trkpt lat="34.81283815697198" lon="134.1434092515338"><ele>25.898887414021004</ele><time>2026-08-10T21:56:40Z</time></trkpt>
<trkpt lat="34.81293963592529" lon="134.1439428065052"><ele>26.686352075078354</ele><time>2026-08-10T21:57:00Z</time></trkpt>
<trkpt lat="34.81295139483849" lon="134.14400463239514"><ele>26.95250935368251</ele><time>2026-08-10T21:57:03Z</time></trkpt>
<trkpt lat="34.81252733398399" lon="134.14418678916522"><ele>27.327212414591</ele><time>2026-08-10T21:57:27Z</time></trkpt>
<trkpt lat="34.81237327826618" lon="134.1442529643183"><ele>27.8068438256162</ele><time>2026-08-10T21:57:36Z</time></trkpt>
<trkpt lat="34.81237327826618" lon="134.1442529643183"><ele>27.8068438256162</ele><time>2026-08-10T21:57:40Z</time></trkpt>
<trkpt lat="34.81237327826618" lon="134.1442529643183"><ele>27.8068438256162</ele><time>2026-08-10T21:57:50Z</time></trkpt>
<trkpt lat="34.81193640096183" lon="134.14438262349051"><ele>31.704614275834317</ele><time>2026-08-10T21:58:00Z</time></trkpt>
<trkpt lat="34.81149952365747" lon="134.1445122826627"><ele>34.483388562920354</ele><time>2026-08-10T21:58:23Z</time></trkpt>
<trkpt lat="34.81133301144273" lon="134.14456170119672"><ele>34.96263466189339</ele><time>2026-08-10T21:58:31Z</time></trkpt>
<trkpt lat="34.81133301144273" lon="134.14456170119672"><ele>34.96263466189339</ele><time>2026-08-10T21:58:32Z</time></trkpt>
<trkpt lat="34.810897073334836" lon="134.14442743607447"><ele>31.21079352524716</ele><time>2026-08-10T21:58:53Z</time></trkpt>
<trkpt lat="34.810461135226944" lon="134.1442931709522"><ele>31.689862100594404</ele><time>2026-08-10T21:59:14Z</time></trkpt>
<trkpt lat="34.81031270992254" lon="134.14424745725734"><ele>31.045770081389506</ele><time>2026-08-10T21:59:21Z</time></trkpt>
<trkpt lat="34.81031270992254" lon="134.14424745725734"><ele>31.045770081389506</ele><time>2026-08-10T21:59:30Z</time></trkpt>
<trkpt lat="34.809970714349994" lon="134.14389187861764"><ele>25.440916426140927</ele><time>2026-08-10T21:59:40Z</time></trkpt>
<trkpt lat="34.80983187379141" lon="134.1437475237168"><ele>23.750772639926595</ele><time>2026-08-10T21:59:48Z</time></trkpt>
<trkpt lat="34.80983187379141" lon="134.1437475237168"><ele>23.750772639926595</ele><time>2026-08-10T21:59:50Z</time></trkpt>
<trkpt lat="34.809632501890306" lon="134.1433904283307"><ele>22.347680635865505</ele><time>2026-08-10T22:00:03Z</time></trkpt>
<trkpt lat="34.80920397677368" lon="134.14355635705758"><ele>24.0897237413075</ele><time>2026-08-10T22:00:23Z</time></trkpt>
<trkpt lat="34.80888405766173" lon="134.14368023257592"><ele>23.704207163374683</ele><time>2026-08-10T22:00:37Z</time></trkpt>
<trkpt lat="34.80888405766173" lon="134.14368023257592"><ele>23.88763625840774</ele><time>2026-08-10T22:00:38Z</time></trkpt>
<trkpt lat="34.808856" lon="134.143694"><ele>23.98</ele><time>2026-08-10T22:00:39Z</time></trkpt>
<trkpt lat="34.808669" lon="134.143761"><ele>23.46</ele><time>2026-08-10T22:00:40Z</time></trkpt>
<trkpt lat="34.808617" lon="134.143769"><ele>23.49</ele><time>2026-08-10T22:00:42Z</time></trkpt>
<trkpt lat="34.808421" lon="134.143813"><ele>23.57</ele><time>2026-08-10T22:00:44Z</time></trkpt>
<trkpt lat="34.8083729227101" lon="134.1438278971884"><ele>23.40748522287568</ele><time>2026-08-10T22:00:44Z</time></trkpt>
<trkpt lat="34.808279" lon="134.143857"><ele>23.09</ele><time>2026-08-10T22:00:45Z</time></trkpt>
<trkpt lat="34.808256" lon="134.143864"><ele>23.16</ele><time>2026-08-10T22:00:47Z</time></trkpt>
<trkpt lat="34.808054" lon="134.143891"><ele>22.81</ele><time>2026-08-10T22:00:52Z</time></trkpt>
<trkpt lat="34.807855" lon="134.143895"><ele>22.74</ele><time>2026-08-10T22:00:53Z</time></trkpt>
<trkpt lat="34.807831" lon="134.143899"><ele>22.88</ele><time>2026-08-10T22:00:54Z</time></trkpt>
<trkpt lat="34.807636" lon="134.143921"><ele>21.85</ele><time>2026-08-10T22:00:55Z</time></trkpt>
<trkpt lat="34.807558" lon="134.143926"><ele>22.23</ele><time>2026-08-10T22:00:56Z</time></trkpt>
<trkpt lat="34.807376" lon="134.143952"><ele>22.33</ele><time>2026-08-10T22:00:58Z</time></trkpt>
<trkpt lat="34.8072731127648" lon="134.14396052951173"><ele>22.244704882946138</ele><time>2026-08-10T22:00:59Z</time></trkpt>
<trkpt lat="34.807183" lon="134.143968"><ele>22.17</ele><time>2026-08-10T22:01:00Z</time></trkpt>
<trkpt lat="34.807003" lon="134.143989"><ele>21.97</ele><time>2026-08-10T22:01:01Z</time></trkpt>
<trkpt lat="34.8069" lon="134.143996"><ele>22.18</ele><time>2026-08-10T22:01:03Z</time></trkpt>
<trkpt lat="34.806704" lon="134.144031"><ele>22.17</ele><time>2026-08-10T22:01:06Z</time></trkpt>
<trkpt lat="34.806681" lon="134.144037"><ele>21.98</ele><time>2026-08-10T22:01:09Z</time></trkpt>
<trkpt lat="34.806481" lon="134.144067"><ele>21.8</ele><time>2026-08-10T22:01:10Z</time></trkpt>
<trkpt lat="34.806382" lon="134.144087"><ele>21.87</ele><time>2026-08-10T22:01:12Z</time></trkpt>
<trkpt lat="34.80631" lon="134.144093"><ele>21.84</ele><time>2026-08-10T22:01:14Z</time></trkpt>
<trkpt lat="34.806107" lon="134.144113"><ele>21.53</ele><time>2026-08-10T22:01:15Z</time></trkpt>
<trkpt lat="34.80601" lon="134.144129"><ele>21.5</ele><time>2026-08-10T22:01:17Z</time></trkpt>
<trkpt lat="34.80598821743731" lon="134.1441310590482"><ele>21.49241403294241</ele><time>2026-08-10T22:01:17Z</time></trkpt>
<trkpt lat="34.805809" lon="134.144148"><ele>21.43</ele><time>2026-08-10T22:01:19Z</time></trkpt>
<trkpt lat="34.805785" lon="134.144155"><ele>21.41</ele><time>2026-08-10T22:01:20Z</time></trkpt>
<trkpt lat="34.805583" lon="134.144181"><ele>21.27</ele><time>2026-08-10T22:01:23Z</time></trkpt>
<trkpt lat="34.805508" lon="134.144189"><ele>21.31</ele><time>2026-08-10T22:01:26Z</time></trkpt>
<trkpt lat="34.805348" lon="134.144218"><ele>21.25</ele><time>2026-08-10T22:01:28Z</time></trkpt>
<trkpt lat="34.805295" lon="134.144226"><ele>21.4</ele><time>2026-08-10T22:01:31Z</time></trkpt>
<trkpt lat="34.805111" lon="134.144242"><ele>21.28</ele><time>2026-08-10T22:01:34Z</time></trkpt>
<trkpt lat="34.805076556227476" lon="134.1442446789601"><ele>21.237902055859752</ele><time>2026-08-10T22:01:34Z</time></trkpt>
<trkpt lat="34.805021" lon="134.144249"><ele>21.17</ele><time>2026-08-10T22:01:36Z</time></trkpt>
<trkpt lat="34.804835" lon="134.144256"><ele>20.98</ele><time>2026-08-10T22:01:37Z</time></trkpt>
<trkpt lat="34.804664" lon="134.14427"><ele>20.84</ele><time>2026-08-10T22:01:39Z</time></trkpt>
<trkpt lat="34.804639" lon="134.144268"><ele>20.94</ele><time>2026-08-10T22:01:41Z</time></trkpt>
<trkpt lat="34.804455" lon="134.144274"><ele>20.83</ele><time>2026-08-10T22:01:44Z</time></trkpt>
<trkpt lat="34.804427" lon="134.14427"><ele>20.86</ele><time>2026-08-10T22:01:47Z</time></trkpt>
<trkpt lat="34.804243" lon="134.144283"><ele>20.7</ele><time>2026-08-10T22:01:49Z</time></trkpt>
<trkpt lat="34.804215" lon="134.144283"><ele>20.61</ele><time>2026-08-10T22:01:50Z</time></trkpt>
<trkpt lat="34.80413494611865" lon="134.1442974778296"><ele>20.665356406534208</ele><time>2026-08-10T22:01:50Z</time></trkpt>
<trkpt lat="34.804027" lon="134.144317"><ele>20.74</ele><time>2026-08-10T22:01:51Z</time></trkpt>
<trkpt lat="34.803894" lon="134.144328"><ele>20.72</ele><time>2026-08-10T22:01:53Z</time></trkpt>
<trkpt lat="34.803768" lon="134.144344"><ele>20.73</ele><time>2026-08-10T22:01:55Z</time></trkpt>
<trkpt lat="34.803696" lon="134.144365"><ele>20.84</ele><time>2026-08-10T22:01:56Z</time></trkpt>
<trkpt lat="34.803515" lon="134.144404"><ele>20.93</ele><time>2026-08-10T22:02:02Z</time></trkpt>
<trkpt lat="34.803488" lon="134.144408"><ele>20.94</ele><time>2026-08-10T22:02:04Z</time></trkpt>
<trkpt lat="34.803302" lon="134.14443"><ele>20.83</ele><time>2026-08-10T22:02:05Z</time></trkpt>
<trkpt lat="34.803278" lon="134.144435"><ele>20.83</ele><time>2026-08-10T22:02:13Z</time></trkpt>
<trkpt lat="34.803084" lon="134.144471"><ele>20.62</ele><time>2026-08-10T22:02:14Z</time></trkpt>
<trkpt lat="34.802999" lon="134.144477"><ele>20.78</ele><time>2026-08-10T22:02:22Z</time></trkpt>
<trkpt lat="34.802819" lon="134.144504"><ele>20.73</ele><time>2026-08-10T22:02:23Z</time></trkpt>
<trkpt lat="34.802765" lon="134.144512"><ele>20.78</ele><time>2026-08-10T22:02:26Z</time></trkpt>
<trkpt lat="34.802575" lon="134.144539"><ele>20.84</ele><time>2026-08-10T22:02:32Z</time></trkpt>
<trkpt lat="34.802495" lon="134.144556"><ele>20.72</ele><time>2026-08-10T22:02:36Z</time></trkpt>
<trkpt lat="34.802348" lon="134.144578"><ele>20.63</ele><time>2026-08-10T22:02:41Z</time></trkpt>
<trkpt lat="34.802151" lon="134.14457"><ele>20.47</ele><time>2026-08-10T22:02:44Z</time></trkpt>
<trkpt lat="34.802078" lon="134.144572"><ele>20.49</ele><time>2026-08-10T22:02:49Z</time></trkpt>
<trkpt lat="34.802031" lon="134.144553"><ele>20.84</ele><time>2026-08-10T22:02:50Z</time></trkpt>
<trkpt lat="34.801986" lon="134.144546"><ele>20.81</ele><time>2026-08-10T22:02:54Z</time></trkpt>
<trkpt lat="34.801805" lon="134.144561"><ele>20.6</ele><time>2026-08-10T22:02:59Z</time></trkpt>
<trkpt lat="34.801755" lon="134.144561"><ele>20.73</ele><time>2026-08-10T22:03:00Z</time></trkpt>
<trkpt lat="34.801563" lon="134.144547"><ele>20.33</ele><time>2026-08-10T22:03:08Z</time></trkpt>
<trkpt lat="34.801487" lon="134.144537"><ele>20.3</ele><time>2026-08-10T22:03:10Z</time></trkpt>
<trkpt lat="34.801303" lon="134.144549"><ele>20.3</ele><time>2026-08-10T22:03:18Z</time></trkpt>
<trkpt lat="34.801251" lon="134.144556"><ele>20.3</ele><time>2026-08-10T22:03:21Z</time></trkpt>
<trkpt lat="34.801116" lon="134.14458"><ele>20.5</ele><time>2026-08-10T22:03:29Z</time></trkpt>
<trkpt lat="34.801037" lon="134.144592"><ele>20.5</ele><time>2026-08-10T22:03:31Z</time></trkpt>
<trkpt lat="34.800883" lon="134.144618"><ele>20.63</ele><time>2026-08-10T22:03:39Z</time></trkpt>
<trkpt lat="34.800857" lon="134.144623"><ele>20.58</ele><time>2026-08-10T22:03:46Z</time></trkpt>
<trkpt lat="34.800676" lon="134.144652"><ele>20.46</ele><time>2026-08-10T22:03:49Z</time></trkpt>
<trkpt lat="34.800494" lon="134.144691"><ele>20.4</ele><time>2026-08-10T22:03:50Z</time></trkpt>
<trkpt lat="34.800369" lon="134.144691"><ele>20.4</ele><time>2026-08-10T22:03:51Z</time></trkpt>
<trkpt lat="34.800341" lon="134.144683"><ele>20.25</ele><time>2026-08-10T22:03:56Z</time></trkpt>
<trkpt lat="34.800162" lon="134.144712"><ele>19.98</ele><time>2026-08-10T22:04:03Z</time></trkpt>
<trkpt lat="34.800085" lon="134.144716"><ele>19.97</ele><time>2026-08-10T22:04:04Z</time></trkpt>
<trkpt lat="34.799902" lon="134.144738"><ele>20.12</ele><time>2026-08-10T22:04:11Z</time></trkpt>
<trkpt lat="34.799869" lon="134.14474"><ele>20.46</ele><time>2026-08-10T22:04:14Z</time></trkpt>
<trkpt lat="34.799676" lon="134.144774"><ele>20.77</ele><time>2026-08-10T22:04:21Z</time></trkpt>
<trkpt lat="34.799524" lon="134.144803"><ele>21.01</ele><time>2026-08-10T22:04:22Z</time></trkpt>
<trkpt lat="34.79941337633312" lon="134.14480447769168"><ele>21.07</ele><time>2026-08-10T22:04:27Z</time></trkpt>
<trkpt lat="34.799312060834595" lon="134.14481520652774"><ele>20.94</ele><time>2026-08-10T22:04:41Z</time></trkpt>
<trkpt lat="34.79914907477137" lon="134.14483666419986"><ele>21.06</ele><time>2026-08-10T22:04:42Z</time></trkpt>
<trkpt lat="34.79892882282261" lon="134.14487421512607"><ele>20.95</ele><time>2026-08-11T00:33:19Z</time></trkpt>
<trkpt lat="34.79863808934927" lon="134.14492249488833"><ele>20.96</ele><time>2026-08-11T00:33:26Z</time></trkpt>
<trkpt lat="34.798391405598174" lon="134.14494931697848"><ele>20.99</ele><time>2026-08-11T00:33:27Z</time></trkpt>
<trkpt lat="34.79813150584759" lon="134.14497613906863"><ele>20.59</ele><time>2026-08-11T00:33:34Z</time></trkpt>
<trkpt lat="34.797831959356024" lon="134.14501368999484"><ele>20.72</ele><time>2026-08-11T00:33:38Z</time></trkpt>
<trkpt lat="34.7976117038885" lon="134.1450619697571"><ele>21.33</ele><time>2026-08-11T00:33:40Z</time></trkpt>
<trkpt lat="34.79740906833865" lon="134.14508342742923"><ele>21.62</ele><time>2026-08-11T00:33:43Z</time></trkpt>
<trkpt lat="34.79719762201653" lon="134.14512634277347"><ele>22.32</ele><time>2026-08-11T00:33:51Z</time></trkpt>
<trkpt lat="34.79696414940587" lon="134.14515316486361"><ele>22.49</ele><time>2026-08-11T00:33:58Z</time></trkpt>
<trkpt lat="34.796739486458236" lon="134.14519071578982"><ele>23.22</ele><time>2026-08-11T00:34:05Z</time></trkpt>
<trkpt lat="34.79635623648759" lon="134.14532482624057"><ele>20.04</ele><time>2026-08-11T00:34:06Z</time></trkpt>
<trkpt lat="34.7961051407133" lon="134.1454589366913"><ele>25.37</ele><time>2026-08-11T00:34:07Z</time></trkpt>
<trkpt lat="34.79599060554476" lon="134.14516389369967"><ele>24.28</ele><time>2026-08-11T00:34:15Z</time></trkpt>
<trkpt lat="34.79590250146068" lon="134.14490640163424"><ele>24.17</ele><time>2026-08-11T00:34:17Z</time></trkpt>
<trkpt lat="34.795805586859466" lon="134.14460062980655"><ele>25.71</ele><time>2026-08-11T00:34:23Z</time></trkpt>
<trkpt lat="34.79574831908702" lon="134.14440751075747"><ele>26.7</ele><time>2026-08-11T00:34:24Z</time></trkpt>
<trkpt lat="34.79564699908447" lon="134.14409637451175"><ele>24.84</ele><time>2026-08-11T00:34:32Z</time></trkpt>
<trkpt lat="34.79555889463323" lon="134.1438335180283"><ele>24.78</ele><time>2026-08-11T00:34:40Z</time></trkpt>
<trkpt lat="34.795461979628136" lon="134.14353311061862"><ele>24.68</ele><time>2026-08-11T00:34:48Z</time></trkpt>
<trkpt lat="34.79537828021385" lon="134.14321124553683"><ele>24.7</ele><time>2026-08-11T00:34:54Z</time></trkpt>
<trkpt lat="34.79545757439792" lon="134.14300203323367"><ele>24.98</ele><time>2026-08-11T00:35:00Z</time></trkpt>
<trkpt lat="34.79566021474404" lon="134.14293229579928"><ele>24.57</ele><time>2026-08-11T00:35:02Z</time></trkpt>
<trkpt lat="34.79603465755148" lon="134.14321124553683"><ele>24.6</ele><time>2026-08-11T00:35:05Z</time></trkpt>
<trkpt lat="34.79631218465267" lon="134.14335608482364"><ele>24.38</ele><time>2026-08-11T00:35:07Z</time></trkpt>
<trkpt lat="34.79660292632818" lon="134.14349019527438"><ele>24.52</ele><time>2026-08-11T00:35:10Z</time></trkpt>
<trkpt lat="34.79699498544896" lon="134.14362967014316"><ele>24.77</ele><time>2026-08-11T00:35:18Z</time></trkpt>
<trkpt lat="34.79723726824324" lon="134.14368867874148"><ele>24.57</ele><time>2026-08-11T00:35:21Z</time></trkpt>
<trkpt lat="34.7975236015367" lon="134.1437262296677"><ele>24.32</ele><time>2026-08-11T00:35:24Z</time></trkpt>
<trkpt lat="34.79778350320366" lon="134.1437637805939"><ele>24.69</ele><time>2026-08-11T00:35:28Z</time></trkpt>
<trkpt lat="34.79819317704899" lon="134.1437637805939"><ele>24.78</ele><time>2026-08-11T00:35:29Z</time></trkpt>
<trkpt lat="34.79856320328855" lon="134.14372086524966"><ele>24.59</ele><time>2026-08-11T00:35:31Z</time></trkpt>
<trkpt lat="34.798867152171525" lon="134.1436564922333"><ele>24.64</ele><time>2026-08-11T00:35:35Z</time></trkpt>
<trkpt lat="34.79922396029989" lon="134.1435492038727"><ele>24.61</ele><time>2026-08-11T00:35:38Z</time></trkpt>
<trkpt lat="34.799642437001246" lon="134.14342582225802"><ele>25.02</ele><time>2026-08-11T00:35:42Z</time></trkpt>
<trkpt lat="34.799946381905194" lon="134.1433131694794"><ele>24.01</ele><time>2026-08-11T00:35:46Z</time></trkpt>
<trkpt lat="34.80015341619814" lon="134.14328098297122"><ele>25.09</ele><time>2026-08-11T00:35:50Z</time></trkpt>
<trkpt lat="34.80032521021671" lon="134.14323806762698"><ele>25.18</ele><time>2026-08-11T00:35:51Z</time></trkpt>
<trkpt lat="34.80050581379894" lon="134.14318442344668"><ele>24.04</ele><time>2026-08-11T00:35:54Z</time></trkpt>
<trkpt lat="34.800739276379865" lon="134.14312541484836"><ele>24.5</ele><time>2026-08-11T00:35:57Z</time></trkpt>
<trkpt lat="34.80113131583029" lon="134.143061041832"><ele>24.78</ele><time>2026-08-11T00:36:01Z</time></trkpt>
<trkpt lat="34.801435255244776" lon="134.14299666881564"><ele>24.17</ele><time>2026-08-11T00:36:07Z</time></trkpt>
<trkpt lat="34.80152775832241" lon="134.14295911788943"><ele>23.82</ele><time>2026-08-11T00:36:11Z</time></trkpt>
<trkpt lat="34.801588" lon="134.142863"><ele>18.58</ele><time>2026-08-11T00:36:17Z</time></trkpt>
<trkpt lat="34.801619" lon="134.142695"><ele>19.9</ele><time>2026-08-11T00:36:23Z</time></trkpt>
<trkpt lat="34.801632" lon="134.142613"><ele>19.9</ele><time>2026-08-11T00:36:26Z</time></trkpt>
<trkpt lat="34.801634" lon="134.142411"><ele>19.9</ele><time>2026-08-11T00:36:33Z</time></trkpt>
<trkpt lat="34.801633" lon="134.142297"><ele>19.9</ele><time>2026-08-11T00:36:37Z</time></trkpt>
<trkpt lat="34.801628" lon="134.142071"><ele>19.9</ele><time>2026-08-11T00:36:45Z</time></trkpt>
<trkpt lat="34.801626" lon="134.142048"><ele>19.9</ele><time>2026-08-11T00:36:46Z</time></trkpt>
<trkpt lat="34.801624" lon="134.14181"><ele>19.9</ele><time>2026-08-11T00:36:54Z</time></trkpt>
<trkpt lat="34.801622" lon="134.14178"><ele>19.9</ele><time>2026-08-11T00:36:55Z</time></trkpt>
<trkpt lat="34.801611" lon="134.141666"><ele>19.9</ele><time>2026-08-11T00:36:59Z</time></trkpt>
<trkpt lat="34.801607" lon="134.141582"><ele>19.9</ele><time>2026-08-11T00:37:02Z</time></trkpt>
<trkpt lat="34.8016" lon="134.141493"><ele>19.9</ele><time>2026-08-11T00:37:05Z</time></trkpt>
<trkpt lat="34.801593" lon="134.141315"><ele>15.59</ele><time>2026-08-11T00:37:11Z</time></trkpt>
<trkpt lat="34.801582" lon="134.1411"><ele>15.57</ele><time>2026-08-11T00:37:18Z</time></trkpt>
<trkpt lat="34.801571" lon="134.140915"><ele>16.4</ele><time>2026-08-11T00:37:24Z</time></trkpt>
<trkpt lat="34.80157" lon="134.140882"><ele>16.4</ele><time>2026-08-11T00:37:25Z</time></trkpt>
<trkpt lat="34.801564" lon="134.140796"><ele>16.0</ele><time>2026-08-11T00:37:28Z</time></trkpt>
<trkpt lat="34.801561" lon="134.140681"><ele>19.9</ele><time>2026-08-11T00:37:32Z</time></trkpt>
<trkpt lat="34.801559" lon="134.140598"><ele>16.78</ele><time>2026-08-11T00:37:35Z</time></trkpt>
<trkpt lat="34.801559" lon="134.140537"><ele>17.4</ele><time>2026-08-11T00:37:37Z</time></trkpt>
<trkpt lat="34.801562" lon="134.140507"><ele>18.01</ele><time>2026-08-11T00:37:38Z</time></trkpt>
<trkpt lat="34.801557" lon="134.140287"><ele>18.95</ele><time>2026-08-11T00:37:45Z</time></trkpt>
<trkpt lat="34.801556" lon="134.140256"><ele>18.99</ele><time>2026-08-11T00:37:46Z</time></trkpt>
<trkpt lat="34.80155" lon="134.140108"><ele>19.16</ele><time>2026-08-11T00:37:51Z</time></trkpt>
<trkpt lat="34.801549" lon="134.140048"><ele>19.2</ele><time>2026-08-11T00:37:53Z</time></trkpt>
<trkpt lat="34.801544" lon="134.139983"><ele>19.25</ele><time>2026-08-11T00:37:55Z</time></trkpt>
<trkpt lat="34.801524" lon="134.139796"><ele>24.13</ele><time>2026-08-11T00:38:02Z</time></trkpt>
<trkpt lat="34.801508" lon="134.139785"><ele>24.13</ele><time>2026-08-11T00:38:03Z</time></trkpt>
<trkpt lat="34.801429" lon="134.139791"><ele>24.57</ele><time>2026-08-11T00:38:07Z</time></trkpt>
<trkpt lat="34.801416" lon="134.1398"><ele>24.57</ele><time>2026-08-11T00:38:09Z</time></trkpt>
<trkpt lat="34.801414" lon="134.139822"><ele>22.72</ele><time>2026-08-11T00:38:12Z</time></trkpt>
<trkpt lat="34.801416" lon="134.139833"><ele>22.72</ele><time>2026-08-11T00:38:13Z</time></trkpt>
<trkpt lat="34.801417" lon="134.139861"><ele>20.88</ele><time>2026-08-11T00:38:15Z</time></trkpt>
<trkpt lat="34.801418" lon="134.139875"><ele>20.88</ele><time>2026-08-11T00:38:16Z</time></trkpt>
<trkpt lat="34.80142" lon="134.139884"><ele>20.88</ele><time>2026-08-11T00:38:17Z</time></trkpt>
<trkpt lat="34.801431" lon="134.139916"><ele>19.72</ele><time>2026-08-11T00:38:19Z</time></trkpt>
<trkpt lat="34.801454" lon="134.139939"><ele>19.44</ele><time>2026-08-11T00:38:21Z</time></trkpt>
<trkpt lat="34.801493" lon="134.139954"><ele>19.43</ele><time>2026-08-11T00:38:23Z</time></trkpt>
<trkpt lat="34.801532" lon="134.139943"><ele>19.37</ele><time>2026-08-11T00:38:25Z</time></trkpt>
<trkpt lat="34.801575" lon="134.139926"><ele>19.57</ele><time>2026-08-11T00:38:27Z</time></trkpt>
<trkpt lat="34.801754" lon="134.139888"><ele>19.77</ele><time>2026-08-11T00:38:34Z</time></trkpt>
<trkpt lat="34.801799" lon="134.139876"><ele>19.83</ele><time>2026-08-11T00:38:36Z</time></trkpt>
<trkpt lat="34.80191" lon="134.139823"><ele>20.87</ele><time>2026-08-11T00:38:43Z</time></trkpt>
<trkpt lat="34.80191" lon="134.139773"><ele>22.67</ele><time>2026-08-11T00:38:51Z</time></trkpt>
<trkpt lat="34.80191" lon="134.139759"><ele>24.47</ele><time>2026-08-11T00:38:53Z</time></trkpt>
<trkpt lat="34.801912" lon="134.13974"><ele>24.47</ele><time>2026-08-11T00:38:55Z</time></trkpt>
<trkpt lat="34.801919" lon="134.139711"><ele>25.43</ele><time>2026-08-11T00:38:58Z</time></trkpt>
<trkpt lat="34.801936" lon="134.139686"><ele>25.43</ele><time>2026-08-11T00:39:01Z</time></trkpt>
<trkpt lat="34.801947" lon="134.139677"><ele>25.43</ele><time>2026-08-11T00:39:02Z</time></trkpt>
<trkpt lat="34.801955" lon="134.139667"><ele>25.5</ele><time>2026-08-11T00:39:03Z</time></trkpt>
<trkpt lat="34.801996" lon="134.139634"><ele>25.49</ele><time>2026-08-11T00:39:06Z</time></trkpt>
<trkpt lat="34.80204" lon="134.139607"><ele>25.37</ele><time>2026-08-11T00:39:09Z</time></trkpt>
<trkpt lat="34.80212" lon="134.13953"><ele>25.23</ele><time>2026-08-11T00:39:16Z</time></trkpt>
<trkpt lat="34.802134" lon="134.139473"><ele>25.26</ele><time>2026-08-11T00:39:20Z</time></trkpt>
<trkpt lat="34.80213" lon="134.139449"><ele>25.21</ele><time>2026-08-11T00:40:24Z</time></trkpt>
<trkpt lat="34.802122" lon="134.139448"><ele>25.21</ele><time>2026-08-11T00:40:25Z</time></trkpt>
<trkpt lat="34.802021" lon="134.139449"><ele>25.21</ele><time>2026-08-11T00:40:31Z</time></trkpt>
<trkpt lat="34.801947" lon="134.139429"><ele>25.13</ele><time>2026-08-11T00:40:36Z</time></trkpt>
<trkpt lat="34.801944" lon="134.139408"><ele>25.0</ele><time>2026-08-11T00:40:38Z</time></trkpt>
<trkpt lat="34.802" lon="134.139316"><ele>24.28</ele><time>2026-08-11T00:40:44Z</time></trkpt>
<trkpt lat="34.802067" lon="134.139235"><ele>22.68</ele><time>2026-08-11T00:40:48Z</time></trkpt>
<trkpt lat="34.802132" lon="134.139162"><ele>22.52</ele><time>2026-08-11T00:40:51Z</time></trkpt>
<trkpt lat="34.802188" lon="134.139076"><ele>22.6</ele><time>2026-08-11T00:40:54Z</time></trkpt>
<trkpt lat="34.802236" lon="134.138993"><ele>22.27</ele><time>2026-08-11T00:40:57Z</time></trkpt>
<trkpt lat="34.802255" lon="134.13895"><ele>22.32</ele><time>2026-08-11T00:40:59Z</time></trkpt>
<trkpt lat="34.802273" lon="134.138845"><ele>20.74</ele><time>2026-08-11T00:41:03Z</time></trkpt>
<trkpt lat="34.802264" lon="134.138835"><ele>20.74</ele><time>2026-08-11T00:41:04Z</time></trkpt>
<trkpt lat="34.802247" lon="134.138825"><ele>20.74</ele><time>2026-08-11T00:41:05Z</time></trkpt>
<trkpt lat="34.802147" lon="134.138818"><ele>20.09</ele><time>2026-08-11T00:41:09Z</time></trkpt>
<trkpt lat="34.802125" lon="134.138819"><ele>20.09</ele><time>2026-08-11T00:41:10Z</time></trkpt>
<trkpt lat="34.802054" lon="134.138813"><ele>22.48</ele><time>2026-08-11T00:41:13Z</time></trkpt>
<trkpt lat="34.802045" lon="134.138788"><ele>22.48</ele><time>2026-08-11T00:41:14Z</time></trkpt>
<trkpt lat="34.802044" lon="134.138759"><ele>22.68</ele><time>2026-08-11T00:41:15Z</time></trkpt>
<trkpt lat="34.802052" lon="134.13873"><ele>22.59</ele><time>2026-08-11T00:41:16Z</time></trkpt>
<trkpt lat="34.802106" lon="134.138632"><ele>22.41</ele><time>2026-08-11T00:41:20Z</time></trkpt>
<trkpt lat="34.802215" lon="134.138444"><ele>22.43</ele><time>2026-08-11T00:41:27Z</time></trkpt>
<trkpt lat="34.802228" lon="134.138419"><ele>22.49</ele><time>2026-08-11T00:41:28Z</time></trkpt>
<trkpt lat="34.802246" lon="134.138376"><ele>22.43</ele><time>2026-08-11T00:41:30Z</time></trkpt>
<trkpt lat="34.802232" lon="134.138344"><ele>22.14</ele><time>2026-08-11T00:41:32Z</time></trkpt>
<trkpt lat="34.802174" lon="134.138332"><ele>21.95</ele><time>2026-08-11T00:41:35Z</time></trkpt>
<trkpt lat="34.802155" lon="134.138343"><ele>21.95</ele><time>2026-08-11T00:41:36Z</time></trkpt>
<trkpt lat="34.80198" lon="134.138418"><ele>22.03</ele><time>2026-08-11T00:41:44Z</time></trkpt>
<trkpt lat="34.801843" lon="134.138435"><ele>21.83</ele><time>2026-08-11T00:41:50Z</time></trkpt>
<trkpt lat="34.801769" lon="134.138472"><ele>21.86</ele><time>2026-08-11T00:41:54Z</time></trkpt>
<trkpt lat="34.801747" lon="134.138481"><ele>21.79</ele><time>2026-08-11T00:41:55Z</time></trkpt>
<trkpt lat="34.801682" lon="134.138515"><ele>21.86</ele><time>2026-08-11T00:41:58Z</time></trkpt>
<trkpt lat="34.801621" lon="134.138571"><ele>21.58</ele><time>2026-08-11T00:42:01Z</time></trkpt>
<trkpt lat="34.801584" lon="134.138602"><ele>21.52</ele><time>2026-08-11T00:42:03Z</time></trkpt>
<trkpt lat="34.801438" lon="134.138697"><ele>21.57</ele><time>2026-08-11T00:42:10Z</time></trkpt>
<trkpt lat="34.801289" lon="134.138772"><ele>21.91</ele><time>2026-08-11T00:42:17Z</time></trkpt>
<trkpt lat="34.801207" lon="134.138788"><ele>22.37</ele><time>2026-08-11T00:42:21Z</time></trkpt>
<trkpt lat="34.801189" lon="134.138767"><ele>21.84</ele><time>2026-08-11T00:42:22Z</time></trkpt>
<trkpt lat="34.801133" lon="134.13876"><ele>20.0</ele><time>2026-08-11T00:42:25Z</time></trkpt>
<trkpt lat="34.801111" lon="134.138767"><ele>20.72</ele><time>2026-08-11T00:42:26Z</time></trkpt>
<trkpt lat="34.801018" lon="134.138809"><ele>20.03</ele><time>2026-08-11T00:42:30Z</time></trkpt>
<trkpt lat="34.80091" lon="134.138828"><ele>21.12</ele><time>2026-08-11T00:42:35Z</time></trkpt>
<trkpt lat="34.800753" lon="134.138858"><ele>20.45</ele><time>2026-08-11T00:42:42Z</time></trkpt>
<trkpt lat="34.80061" lon="134.138886"><ele>20.34</ele><time>2026-08-11T00:42:48Z</time></trkpt>
<trkpt lat="34.800461" lon="134.138898"><ele>20.46</ele><time>2026-08-11T00:42:54Z</time></trkpt>
<trkpt lat="34.800389" lon="134.138911"><ele>21.1</ele><time>2026-08-11T00:42:57Z</time></trkpt>
<trkpt lat="34.800271" lon="134.138897"><ele>20.79</ele><time>2026-08-11T00:43:02Z</time></trkpt>
<trkpt lat="34.800247" lon="134.13891"><ele>20.53</ele><time>2026-08-11T00:43:03Z</time></trkpt>
<trkpt lat="34.800179" lon="134.138928"><ele>19.98</ele><time>2026-08-11T00:43:06Z</time></trkpt>
<trkpt lat="34.800116" lon="134.138924"><ele>19.99</ele><time>2026-08-11T00:43:09Z</time></trkpt>
<trkpt lat="34.800073" lon="134.138916"><ele>19.98</ele><time>2026-08-11T00:43:11Z</time></trkpt>
<trkpt lat="34.799961" lon="134.138905"><ele>19.91</ele><time>2026-08-11T00:43:16Z</time></trkpt>
<trkpt lat="34.799894" lon="134.138907"><ele>20.74</ele><time>2026-08-11T00:43:19Z</time></trkpt>
<trkpt lat="34.799717" lon="134.138883"><ele>20.49</ele><time>2026-08-11T00:43:27Z</time></trkpt>
<trkpt lat="34.799602" lon="134.138849"><ele>20.22</ele><time>2026-08-11T00:43:32Z</time></trkpt>
<trkpt lat="34.799518" lon="134.138818"><ele>20.86</ele><time>2026-08-11T00:43:36Z</time></trkpt>
<trkpt lat="34.799404" lon="134.138799"><ele>20.17</ele><time>2026-08-11T00:43:41Z</time></trkpt>
<trkpt lat="34.799316" lon="134.138764"><ele>21.08</ele><time>2026-08-11T00:43:45Z</time></trkpt>
<trkpt lat="34.799203" lon="134.138729"><ele>21.61</ele><time>2026-08-11T00:43:50Z</time></trkpt>
<trkpt lat="34.799069" lon="134.138696"><ele>20.98</ele><time>2026-08-11T00:43:56Z</time></trkpt>
<trkpt lat="34.798934" lon="134.138666"><ele>21.0</ele><time>2026-08-11T00:44:02Z</time></trkpt>
<trkpt lat="34.798913" lon="134.138665"><ele>20.83</ele><time>2026-08-11T00:44:03Z</time></trkpt>
<trkpt lat="34.798772" lon="134.13862"><ele>20.92</ele><time>2026-08-11T00:44:09Z</time></trkpt>
<trkpt lat="34.798609" lon="134.13856"><ele>21.08</ele><time>2026-08-11T00:44:16Z</time></trkpt>
<trkpt lat="34.798442" lon="134.138475"><ele>20.97</ele><time>2026-08-11T00:44:24Z</time></trkpt>
<trkpt lat="34.798421" lon="134.138457"><ele>21.04</ele><time>2026-08-11T00:44:25Z</time></trkpt>
<trkpt lat="34.798295" lon="134.138348"><ele>21.08</ele><time>2026-08-11T00:44:31Z</time></trkpt>
<trkpt lat="34.798235" lon="134.138289"><ele>21.25</ele><time>2026-08-11T00:44:34Z</time></trkpt>
<trkpt lat="34.798142" lon="134.13812"><ele>21.78</ele><time>2026-08-11T00:44:41Z</time></trkpt>
<trkpt lat="34.798137" lon="134.138091"><ele>21.78</ele><time>2026-08-11T00:44:42Z</time></trkpt>
<trkpt lat="34.798142" lon="134.137886"><ele>21.81</ele><time>2026-08-11T00:44:49Z</time></trkpt>
<trkpt lat="34.798152" lon="134.137827"><ele>21.88</ele><time>2026-08-11T00:44:51Z</time></trkpt>
<trkpt lat="34.79818" lon="134.13772"><ele>22.7</ele><time>2026-08-11T00:44:55Z</time></trkpt>
<trkpt lat="34.798219" lon="134.137633"><ele>23.55</ele><time>2026-08-11T00:44:59Z</time></trkpt>
<trkpt lat="34.79825" lon="134.137597"><ele>24.01</ele><time>2026-08-11T00:45:01Z</time></trkpt>
<trkpt lat="34.7983" lon="134.137553"><ele>25.27</ele><time>2026-08-11T00:45:04Z</time></trkpt>
<trkpt lat="34.798351" lon="134.1375"><ele>25.53</ele><time>2026-08-11T00:45:07Z</time></trkpt>
<trkpt lat="34.798464" lon="134.137371"><ele>26.21</ele><time>2026-08-11T00:45:14Z</time></trkpt>
<trkpt lat="34.798496" lon="134.137335"><ele>26.8</ele><time>2026-08-11T00:45:16Z</time></trkpt>
<trkpt lat="34.798548" lon="134.137269"><ele>27.23</ele><time>2026-08-11T00:45:20Z</time></trkpt>
<trkpt lat="34.798584" lon="134.137226"><ele>27.42</ele><time>2026-08-11T00:45:24Z</time></trkpt>
<trkpt lat="34.798639" lon="134.137206"><ele>27.88</ele><time>2026-08-11T00:45:28Z</time></trkpt>
<trkpt lat="34.798658" lon="134.137213"><ele>28.51</ele><time>2026-08-11T00:45:30Z</time></trkpt>
<trkpt lat="34.798665" lon="134.137227"><ele>28.51</ele><time>2026-08-11T00:45:31Z</time></trkpt>
<trkpt lat="34.798681" lon="134.137258"><ele>28.83</ele><time>2026-08-11T00:45:33Z</time></trkpt>
<trkpt lat="34.79868" lon="134.137279"><ele>29.92</ele><time>2026-08-11T00:45:35Z</time></trkpt>
<trkpt lat="34.798685" lon="134.137311"><ele>29.92</ele><time>2026-08-11T00:45:37Z</time></trkpt>
<trkpt lat="34.798706" lon="134.137358"><ele>31.15</ele><time>2026-08-11T00:45:42Z</time></trkpt>
<trkpt lat="34.798677" lon="134.137385"><ele>32.55</ele><time>2026-08-11T00:45:47Z</time></trkpt>
<trkpt lat="34.798666" lon="134.137405"><ele>33.83</ele><time>2026-08-11T00:45:50Z</time></trkpt>
<trkpt lat="34.798667" lon="134.137431"><ele>33.83</ele><time>2026-08-11T00:45:52Z</time></trkpt>
<trkpt lat="34.798652" lon="134.137468"><ele>35.01</ele><time>2026-08-11T00:45:57Z</time></trkpt>
<trkpt lat="34.798649" lon="134.137477"><ele>33.95</ele><time>2026-08-11T00:45:58Z</time></trkpt>
<trkpt lat="34.798659" lon="134.137495"><ele>36.28</ele><time>2026-08-11T00:46:03Z</time></trkpt>
<trkpt lat="34.79866" lon="134.137494"><ele>36.28</ele><time>2026-08-11T00:46:04Z</time></trkpt>
<trkpt lat="34.798672" lon="134.1375"><ele>36.28</ele><time>2026-08-11T00:46:09Z</time></trkpt>
<trkpt lat="34.798674" lon="134.137506"><ele>36.28</ele><time>2026-08-11T00:46:10Z</time></trkpt>
<trkpt lat="34.798689" lon="134.13752"><ele>37.31</ele><time>2026-08-11T00:46:14Z</time></trkpt>
<trkpt lat="34.798692" lon="134.137528"><ele>37.31</ele><time>2026-08-11T00:46:15Z</time></trkpt>
<trkpt lat="34.798697" lon="134.137543"><ele>38.79</ele><time>2026-08-11T00:46:18Z</time></trkpt>
<trkpt lat="34.798707" lon="134.137554"><ele>38.79</ele><time>2026-08-11T00:46:22Z</time></trkpt>
<trkpt lat="34.798711" lon="134.137552"><ele>38.79</ele><time>2026-08-11T00:46:23Z</time></trkpt>
<trkpt lat="34.798722" lon="134.137556"><ele>39.66</ele><time>2026-08-11T00:46:28Z</time></trkpt>
<trkpt lat="34.798727" lon="134.137552"><ele>39.66</ele><time>2026-08-11T00:46:29Z</time></trkpt>
<trkpt lat="34.798741" lon="134.13757"><ele>39.66</ele><time>2026-08-11T00:46:32Z</time></trkpt>
<trkpt lat="34.798742" lon="134.137611"><ele>41.44</ele><time>2026-08-11T00:46:36Z</time></trkpt>
<trkpt lat="34.798753" lon="134.137635"><ele>43.2</ele><time>2026-08-11T00:46:41Z</time></trkpt>
<trkpt lat="34.798752" lon="134.13764"><ele>43.2</ele><time>2026-08-11T00:46:42Z</time></trkpt>
<trkpt lat="34.798771" lon="134.137674"><ele>45.58</ele><time>2026-08-11T00:46:46Z</time></trkpt>
<trkpt lat="34.798784" lon="134.137681"><ele>45.58</ele><time>2026-08-11T00:46:49Z</time></trkpt>
<trkpt lat="34.798787" lon="134.13768"><ele>45.58</ele><time>2026-08-11T00:46:51Z</time></trkpt>
<trkpt lat="34.798795" lon="134.137694"><ele>45.96</ele><time>2026-08-11T00:46:54Z</time></trkpt>
<trkpt lat="34.798802" lon="134.137702"><ele>47.77</ele><time>2026-08-11T00:46:56Z</time></trkpt>
<trkpt lat="34.798842" lon="134.13776"><ele>49.18</ele><time>2026-08-11T00:47:02Z</time></trkpt>
<trkpt lat="34.798849" lon="134.137793"><ele>50.83</ele><time>2026-08-11T00:47:05Z</time></trkpt>
<trkpt lat="34.798873" lon="134.137838"><ele>51.9</ele><time>2026-08-11T00:47:10Z</time></trkpt>
<trkpt lat="34.798876" lon="134.137846"><ele>51.9</ele><time>2026-08-11T00:47:11Z</time></trkpt>
<trkpt lat="34.798884" lon="134.137852"><ele>51.9</ele><time>2026-08-11T00:47:12Z</time></trkpt>
<trkpt lat="34.798916" lon="134.137869"><ele>51.81</ele><time>2026-08-11T00:47:15Z</time></trkpt>
<trkpt lat="34.798934" lon="134.137891"><ele>53.94</ele><time>2026-08-11T00:47:18Z</time></trkpt>
<trkpt lat="34.798937" lon="134.137906"><ele>53.94</ele><time>2026-08-11T00:47:21Z</time></trkpt>
<trkpt lat="34.798948" lon="134.137922"><ele>55.55</ele><time>2026-08-11T00:47:24Z</time></trkpt>
<trkpt lat="34.798959" lon="134.137929"><ele>55.55</ele><time>2026-08-11T00:47:26Z</time></trkpt>
<trkpt lat="34.798984" lon="134.13796"><ele>56.68</ele><time>2026-08-11T00:47:30Z</time></trkpt>
<trkpt lat="34.798991" lon="134.137973"><ele>56.68</ele><time>2026-08-11T00:47:32Z</time></trkpt>
<trkpt lat="34.799029" lon="134.137972"><ele>57.12</ele><time>2026-08-11T00:47:37Z</time></trkpt>
<trkpt lat="34.799038" lon="134.137976"><ele>57.12</ele><time>2026-08-11T00:47:40Z</time></trkpt>
<trkpt lat="34.799059" lon="134.138002"><ele>58.11</ele><time>2026-08-11T00:47:48Z</time></trkpt>
<trkpt lat="34.799055" lon="134.138001"><ele>58.11</ele><time>2026-08-11T00:47:51Z</time></trkpt>
<trkpt lat="34.799053" lon="134.137999"><ele>58.11</ele><time>2026-08-11T00:47:53Z</time></trkpt>
<trkpt lat="34.799053" lon="134.137999"><ele>58.11</ele><time>2026-08-11T00:47:55Z</time></trkpt>
<trkpt lat="34.799053" lon="134.137999"><ele>58.11</ele><time>2026-08-11T00:47:57Z</time></trkpt>
<trkpt lat="34.799053" lon="134.138001"><ele>58.11</ele><time>2026-08-11T00:48:08Z</time></trkpt>
<trkpt lat="34.79905" lon="134.138009"><ele>58.17</ele><time>2026-08-11T00:48:20Z</time></trkpt>
<trkpt lat="34.799086" lon="134.137992"><ele>59.23</ele><time>2026-08-11T00:48:24Z</time></trkpt>
<trkpt lat="34.79911" lon="134.137988"><ele>60.35</ele><time>2026-08-11T00:48:26Z</time></trkpt>
<trkpt lat="34.799132" lon="134.137985"><ele>60.35</ele><time>2026-08-11T00:48:28Z</time></trkpt>
<trkpt lat="34.799171" lon="134.137987"><ele>61.96</ele><time>2026-08-11T00:48:33Z</time></trkpt>
<trkpt lat="34.799186" lon="134.137982"><ele>63.79</ele><time>2026-08-11T00:48:37Z</time></trkpt>
<trkpt lat="34.79919" lon="134.137983"><ele>63.79</ele><time>2026-08-11T00:48:39Z</time></trkpt>
<trkpt lat="34.799192" lon="134.137984"><ele>63.79</ele><time>2026-08-11T00:48:40Z</time></trkpt>
<trkpt lat="34.799228" lon="134.137975"><ele>65.31</ele><time>2026-08-11T00:48:44Z</time></trkpt>
<trkpt lat="34.799268" lon="134.137964"><ele>66.77</ele><time>2026-08-11T00:48:49Z</time></trkpt>
<trkpt lat="34.799304" lon="134.137964"><ele>68.18</ele><time>2026-08-11T00:48:53Z</time></trkpt>
<trkpt lat="34.799336" lon="134.137971"><ele>69.14</ele><time>2026-08-11T00:48:57Z</time></trkpt>
<trkpt lat="34.799358" lon="134.137987"><ele>69.96</ele><time>2026-08-11T00:49:00Z</time></trkpt>
<trkpt lat="34.799366" lon="134.137986"><ele>69.96</ele><time>2026-08-11T00:49:02Z</time></trkpt>
<trkpt lat="34.799406" lon="134.137984"><ele>70.56</ele><time>2026-08-11T00:49:06Z</time></trkpt>
<trkpt lat="34.799416" lon="134.137983"><ele>70.56</ele><time>2026-08-11T00:49:07Z</time></trkpt>
<trkpt lat="34.799466" lon="134.137993"><ele>71.86</ele><time>2026-08-11T00:49:12Z</time></trkpt>
<trkpt lat="34.799477" lon="134.137994"><ele>71.86</ele><time>2026-08-11T00:49:13Z</time></trkpt>
<trkpt lat="34.799521" lon="134.137997"><ele>72.69</ele><time>2026-08-11T00:49:17Z</time></trkpt>
<trkpt lat="34.799544" lon="134.138001"><ele>73.49</ele><time>2026-08-11T00:49:20Z</time></trkpt>
<trkpt lat="34.799576" lon="134.138019"><ele>74.27</ele><time>2026-08-11T00:49:23Z</time></trkpt>
<trkpt lat="34.799616" lon="134.138033"><ele>75.08</ele><time>2026-08-11T00:49:27Z</time></trkpt>
<trkpt lat="34.79963" lon="134.138031"><ele>75.08</ele><time>2026-08-11T00:49:29Z</time></trkpt>
<trkpt lat="34.799648" lon="134.138025"><ele>76.02</ele><time>2026-08-11T00:49:32Z</time></trkpt>
<trkpt lat="34.799676" lon="134.13802"><ele>77.12</ele><time>2026-08-11T00:49:34Z</time></trkpt>
<trkpt lat="34.799706" lon="134.138014"><ele>77.12</ele><time>2026-08-11T00:49:37Z</time></trkpt>
<trkpt lat="34.799719" lon="134.138013"><ele>77.97</ele><time>2026-08-11T00:49:39Z</time></trkpt>
<trkpt lat="34.799746" lon="134.138013"><ele>78.81</ele><time>2026-08-11T00:49:42Z</time></trkpt>
<trkpt lat="34.799779" lon="134.138011"><ele>79.68</ele><time>2026-08-11T00:49:46Z</time></trkpt>
<trkpt lat="34.799813" lon="134.138018"><ele>79.68</ele><time>2026-08-11T00:49:50Z</time></trkpt>
<trkpt lat="34.799843" lon="134.138017"><ele>80.27</ele><time>2026-08-11T00:49:53Z</time></trkpt>
<trkpt lat="34.799865" lon="134.138017"><ele>80.85</ele><time>2026-08-11T00:49:56Z</time></trkpt>
<trkpt lat="34.799904" lon="134.138002"><ele>81.61</ele><time>2026-08-11T00:49:59Z</time></trkpt>
<trkpt lat="34.79994" lon="134.13799"><ele>82.36</ele><time>2026-08-11T00:50:03Z</time></trkpt>
<trkpt lat="34.799951" lon="134.13799"><ele>82.36</ele><time>2026-08-11T00:50:04Z</time></trkpt>
<trkpt lat="34.800033" lon="134.137986"><ele>84.06</ele><time>2026-08-11T00:50:11Z</time></trkpt>
<trkpt lat="34.800047" lon="134.13799"><ele>84.06</ele><time>2026-08-11T00:50:12Z</time></trkpt>
<trkpt lat="34.800105" lon="134.137975"><ele>85.15</ele><time>2026-08-11T00:50:17Z</time></trkpt>
<trkpt lat="34.800144" lon="134.13796"><ele>85.71</ele><time>2026-08-11T00:50:21Z</time></trkpt>
<trkpt lat="34.800171" lon="134.137963"><ele>86.23</ele><time>2026-08-11T00:50:24Z</time></trkpt>
<trkpt lat="34.800222" lon="134.13796"><ele>86.87</ele><time>2026-08-11T00:50:29Z</time></trkpt>
<trkpt lat="34.800282" lon="134.137955"><ele>87.66</ele><time>2026-08-11T00:50:35Z</time></trkpt>
<trkpt lat="34.800304" lon="134.137952"><ele>87.66</ele><time>2026-08-11T00:50:37Z</time></trkpt>
<trkpt lat="34.800336" lon="134.137964"><ele>88.82</ele><time>2026-08-11T00:50:41Z</time></trkpt>
<trkpt lat="34.800419" lon="134.137959"><ele>89.23</ele><time>2026-08-11T00:50:47Z</time></trkpt>
<trkpt lat="34.800433" lon="134.137953"><ele>89.23</ele><time>2026-08-11T00:50:48Z</time></trkpt>
<trkpt lat="34.800532" lon="134.137907"><ele>89.51</ele><time>2026-08-11T00:50:56Z</time></trkpt>
<trkpt lat="34.800594" lon="134.13792"><ele>90.64</ele><time>2026-08-11T00:51:02Z</time></trkpt>
<trkpt lat="34.800602" lon="134.137918"><ele>90.64</ele><time>2026-08-11T00:51:03Z</time></trkpt>
<trkpt lat="34.800615" lon="134.137918"><ele>90.64</ele><time>2026-08-11T00:51:04Z</time></trkpt>
<trkpt lat="34.800686" lon="134.137918"><ele>91.57</ele><time>2026-08-11T00:51:10Z</time></trkpt>
<trkpt lat="34.800706" lon="134.137906"><ele>91.98</ele><time>2026-08-11T00:51:12Z</time></trkpt>
<trkpt lat="34.800746" lon="134.137894"><ele>92.47</ele><time>2026-08-11T00:51:17Z</time></trkpt>
<trkpt lat="34.800768" lon="134.137896"><ele>93.08</ele><time>2026-08-11T00:51:19Z</time></trkpt>
<trkpt lat="34.800783" lon="134.137897"><ele>93.08</ele><time>2026-08-11T00:51:20Z</time></trkpt>
<trkpt lat="34.800819" lon="134.137895"><ele>93.61</ele><time>2026-08-11T00:51:23Z</time></trkpt>
<trkpt lat="34.80087" lon="134.137891"><ele>94.0</ele><time>2026-08-11T00:51:27Z</time></trkpt>
<trkpt lat="34.80092" lon="134.137828"><ele>93.54</ele><time>2026-08-11T00:51:34Z</time></trkpt>
<trkpt lat="34.800936" lon="134.137821"><ele>93.54</ele><time>2026-08-11T00:51:35Z</time></trkpt>
<trkpt lat="34.801002" lon="134.137779"><ele>94.75</ele><time>2026-08-11T00:51:41Z</time></trkpt>
<trkpt lat="34.801017" lon="134.137771"><ele>95.19</ele><time>2026-08-11T00:51:43Z</time></trkpt>
<trkpt lat="34.801032" lon="134.137738"><ele>96.08</ele><time>2026-08-11T00:51:47Z</time></trkpt>
<trkpt lat="34.801028" lon="134.137715"><ele>96.08</ele><time>2026-08-11T00:51:50Z</time></trkpt>
<trkpt lat="34.801043" lon="134.137704"><ele>96.08</ele><time>2026-08-11T00:51:52Z</time></trkpt>
<trkpt lat="34.801063" lon="134.1377"><ele>97.93</ele><time>2026-08-11T00:51:55Z</time></trkpt>
<trkpt lat="34.801067" lon="134.137696"><ele>97.93</ele><time>2026-08-11T00:51:56Z</time></trkpt>
<trkpt lat="34.801093" lon="134.137663"><ele>99.19</ele><time>2026-08-11T00:52:00Z</time></trkpt>
<trkpt lat="34.801106" lon="134.137653"><ele>100.54</ele><time>2026-08-11T00:52:03Z</time></trkpt>
<trkpt lat="34.801112" lon="134.137653"><ele>100.54</ele><time>2026-08-11T00:52:04Z</time></trkpt>
<trkpt lat="34.801129" lon="134.137647"><ele>102.05</ele><time>2026-08-11T00:52:07Z</time></trkpt>
<trkpt lat="34.801162" lon="134.137635"><ele>103.76</ele><time>2026-08-11T00:52:12Z</time></trkpt>
<trkpt lat="34.801184" lon="134.137626"><ele>103.76</ele><time>2026-08-11T00:52:15Z</time></trkpt>
<trkpt lat="34.801188" lon="134.13763"><ele>103.76</ele><time>2026-08-11T00:52:16Z</time></trkpt>
<trkpt lat="34.801206" lon="134.137645"><ele>105.32</ele><time>2026-08-11T00:52:21Z</time></trkpt>
<trkpt lat="34.801219" lon="134.137608"><ele>106.81</ele><time>2026-08-11T00:52:26Z</time></trkpt>
<trkpt lat="34.801222" lon="134.137599"><ele>106.81</ele><time>2026-08-11T00:52:27Z</time></trkpt>
<trkpt lat="34.80123" lon="134.137586"><ele>108.27</ele><time>2026-08-11T00:52:30Z</time></trkpt>
<trkpt lat="34.801233" lon="134.137566"><ele>109.92</ele><time>2026-08-11T00:52:35Z</time></trkpt>
<trkpt lat="34.80124" lon="134.137556"><ele>109.92</ele><time>2026-08-11T00:52:36Z</time></trkpt>
<trkpt lat="34.80125" lon="134.137547"><ele>109.92</ele><time>2026-08-11T00:52:38Z</time></trkpt>
<trkpt lat="34.801252" lon="134.137548"><ele>109.92</ele><time>2026-08-11T00:52:41Z</time></trkpt>
<trkpt lat="34.801262" lon="134.137533"><ele>110.23</ele><time>2026-08-11T00:52:43Z</time></trkpt>
<trkpt lat="34.801256" lon="134.137511"><ele>111.47</ele><time>2026-08-11T00:52:49Z</time></trkpt>
<trkpt lat="34.801254" lon="134.137505"><ele>111.47</ele><time>2026-08-11T00:52:50Z</time></trkpt>
<trkpt lat="34.801251" lon="134.137463"><ele>112.93</ele><time>2026-08-11T00:52:55Z</time></trkpt>
<trkpt lat="34.801254" lon="134.137453"><ele>112.93</ele><time>2026-08-11T00:52:58Z</time></trkpt>
<trkpt lat="34.801255" lon="134.137435"><ele>114.41</ele><time>2026-08-11T00:53:00Z</time></trkpt>
<trkpt lat="34.801265" lon="134.137427"><ele>116.31</ele><time>2026-08-11T00:53:04Z</time></trkpt>
<trkpt lat="34.801269" lon="134.137409"><ele>116.31</ele><time>2026-08-11T00:53:09Z</time></trkpt>
<trkpt lat="34.801271" lon="134.137407"><ele>116.31</ele><time>2026-08-11T00:53:10Z</time></trkpt>
<trkpt lat="34.801281" lon="134.137396"><ele>118.08</ele><time>2026-08-11T00:53:14Z</time></trkpt>
<trkpt lat="34.801293" lon="134.13738"><ele>118.08</ele><time>2026-08-11T00:53:19Z</time></trkpt>
<trkpt lat="34.801301" lon="134.137374"><ele>119.91</ele><time>2026-08-11T00:53:21Z</time></trkpt>
<trkpt lat="34.801309" lon="134.137356"><ele>121.75</ele><time>2026-08-11T00:53:25Z</time></trkpt>
<trkpt lat="34.801309" lon="134.137355"><ele>121.75</ele><time>2026-08-11T00:53:27Z</time></trkpt>
<trkpt lat="34.801316" lon="134.137345"><ele>121.75</ele><time>2026-08-11T00:53:30Z</time></trkpt>
<trkpt lat="34.801317" lon="134.137346"><ele>121.75</ele><time>2026-08-11T00:53:31Z</time></trkpt>
<trkpt lat="34.801317" lon="134.137347"><ele>121.75</ele><time>2026-08-11T00:53:32Z</time></trkpt>
<trkpt lat="34.801315" lon="134.137348"><ele>121.75</ele><time>2026-08-11T00:53:35Z</time></trkpt>
<trkpt lat="34.801317" lon="134.137342"><ele>121.75</ele><time>2026-08-11T00:53:39Z</time></trkpt>
<trkpt lat="34.801318" lon="134.137341"><ele>121.75</ele><time>2026-08-11T00:53:40Z</time></trkpt>
<trkpt lat="34.801348" lon="134.137305"><ele>125.66</ele><time>2026-08-11T00:53:46Z</time></trkpt>
<trkpt lat="34.801353" lon="134.137297"><ele>125.66</ele><time>2026-08-11T00:53:47Z</time></trkpt>
<trkpt lat="34.80135" lon="134.13728"><ele>125.66</ele><time>2026-08-11T00:53:52Z</time></trkpt>
<trkpt lat="34.801352" lon="134.137276"><ele>125.66</ele><time>2026-08-11T00:53:53Z</time></trkpt>
<trkpt lat="34.801367" lon="134.137257"><ele>129.83</ele><time>2026-08-11T00:53:58Z</time></trkpt>
<trkpt lat="34.801371" lon="134.13726"><ele>129.83</ele><time>2026-08-11T00:54:00Z</time></trkpt>
<trkpt lat="34.80138" lon="134.137268"><ele>129.83</ele><time>2026-08-11T00:54:05Z</time></trkpt>
<trkpt lat="34.801384" lon="134.137263"><ele>129.83</ele><time>2026-08-11T00:54:06Z</time></trkpt>
<trkpt lat="34.801389" lon="134.137248"><ele>129.83</ele><time>2026-08-11T00:54:10Z</time></trkpt>
<trkpt lat="34.801387" lon="134.137239"><ele>129.83</ele><time>2026-08-11T00:54:11Z</time></trkpt>
<trkpt lat="34.801408" lon="134.137221"><ele>134.08</ele><time>2026-08-11T00:54:16Z</time></trkpt>
<trkpt lat="34.801414" lon="134.137219"><ele>134.08</ele><time>2026-08-11T00:54:17Z</time></trkpt>
<trkpt lat="34.801422" lon="134.137213"><ele>134.08</ele><time>2026-08-11T00:54:19Z</time></trkpt>
<trkpt lat="34.801427" lon="134.13721"><ele>134.08</ele><time>2026-08-11T00:54:20Z</time></trkpt>
<trkpt lat="34.801431" lon="134.137183"><ele>136.08</ele><time>2026-08-11T00:54:24Z</time></trkpt>
<trkpt lat="34.801431" lon="134.137177"><ele>136.08</ele><time>2026-08-11T00:54:25Z</time></trkpt>
<trkpt lat="34.801433" lon="134.137171"><ele>136.08</ele><time>2026-08-11T00:54:27Z</time></trkpt>
<trkpt lat="34.801439" lon="134.137159"><ele>136.8</ele><time>2026-08-11T00:54:30Z</time></trkpt>
<trkpt lat="34.801449" lon="134.137145"><ele>136.8</ele><time>2026-08-11T00:54:33Z</time></trkpt>
<trkpt lat="34.80145" lon="134.137147"><ele>136.8</ele><time>2026-08-11T00:54:35Z</time></trkpt>
<trkpt lat="34.801449" lon="134.137143"><ele>138.74</ele><time>2026-08-11T00:54:37Z</time></trkpt>
<trkpt lat="34.80144" lon="134.137127"><ele>138.74</ele><time>2026-08-11T00:54:41Z</time></trkpt>
<trkpt lat="34.801448" lon="134.137112"><ele>138.74</ele><time>2026-08-11T00:54:43Z</time></trkpt>
<trkpt lat="34.801454" lon="134.137103"><ele>138.74</ele><time>2026-08-11T00:54:46Z</time></trkpt>
<trkpt lat="34.801455" lon="134.137095"><ele>140.82</ele><time>2026-08-11T00:54:47Z</time></trkpt>
<trkpt lat="34.801452" lon="134.137091"><ele>140.82</ele><time>2026-08-11T00:54:50Z</time></trkpt>
<trkpt lat="34.801457" lon="134.137067"><ele>140.82</ele><time>2026-08-11T00:54:54Z</time></trkpt>
<trkpt lat="34.801464" lon="134.137059"><ele>140.82</ele><time>2026-08-11T00:54:55Z</time></trkpt>
<trkpt lat="34.801496" lon="134.137027"><ele>143.72</ele><time>2026-08-11T00:55:01Z</time></trkpt>
<trkpt lat="34.801507" lon="134.137012"><ele>145.91</ele><time>2026-08-11T00:55:05Z</time></trkpt>
<trkpt lat="34.801503" lon="134.137007"><ele>145.64</ele><time>2026-08-11T00:55:07Z</time></trkpt>
<trkpt lat="34.8015" lon="134.136997"><ele>145.64</ele><time>2026-08-11T00:55:09Z</time></trkpt>
<trkpt lat="34.801502" lon="134.136982"><ele>145.64</ele><time>2026-08-11T00:55:11Z</time></trkpt>
<trkpt lat="34.801494" lon="134.136974"><ele>145.64</ele><time>2026-08-11T00:55:13Z</time></trkpt>
<trkpt lat="34.80149" lon="134.136953"><ele>147.23</ele><time>2026-08-11T00:55:16Z</time></trkpt>
<trkpt lat="34.80149" lon="134.136939"><ele>147.23</ele><time>2026-08-11T00:55:19Z</time></trkpt>
<trkpt lat="34.801505" lon="134.136916"><ele>148.33</ele><time>2026-08-11T00:55:23Z</time></trkpt>
<trkpt lat="34.801514" lon="134.136902"><ele>150.92</ele><time>2026-08-11T00:55:27Z</time></trkpt>
<trkpt lat="34.801517" lon="134.136896"><ele>150.92</ele><time>2026-08-11T00:55:29Z</time></trkpt>
<trkpt lat="34.801523" lon="134.136875"><ele>152.09</ele><time>2026-08-11T00:55:33Z</time></trkpt>
<trkpt lat="34.801528" lon="134.136866"><ele>152.09</ele><time>2026-08-11T00:55:36Z</time></trkpt>
<trkpt lat="34.801544" lon="134.136866"><ele>153.28</ele><time>2026-08-11T00:55:41Z</time></trkpt>
<trkpt lat="34.801548" lon="134.136866"><ele>153.28</ele><time>2026-08-11T00:55:43Z</time></trkpt>
<trkpt lat="34.801556" lon="134.136863"><ele>153.28</ele><time>2026-08-11T00:55:46Z</time></trkpt>
<trkpt lat="34.801558" lon="134.136844"><ele>153.28</ele><time>2026-08-11T00:55:49Z</time></trkpt>
<trkpt lat="34.801565" lon="134.136835"><ele>154.44</ele><time>2026-08-11T00:55:51Z</time></trkpt>
<trkpt lat="34.80158" lon="134.136816"><ele>155.53</ele><time>2026-08-11T00:55:56Z</time></trkpt>
<trkpt lat="34.801596" lon="134.136787"><ele>156.84</ele><time>2026-08-11T00:56:01Z</time></trkpt>
<trkpt lat="34.801602" lon="134.136781"><ele>156.84</ele><time>2026-08-11T00:56:02Z</time></trkpt>
<trkpt lat="34.801649" lon="134.136737"><ele>158.62</ele><time>2026-08-11T00:56:08Z</time></trkpt>
<trkpt lat="34.801659" lon="134.136735"><ele>158.62</ele><time>2026-08-11T00:56:09Z</time></trkpt>
<trkpt lat="34.801693" lon="134.136701"><ele>159.64</ele><time>2026-08-11T00:56:14Z</time></trkpt>
<trkpt lat="34.80171" lon="134.13668"><ele>159.64</ele><time>2026-08-11T00:56:17Z</time></trkpt>
<trkpt lat="34.801774" lon="134.136632"><ele>158.6</ele><time>2026-08-11T00:56:23Z</time></trkpt>
<trkpt lat="34.801799" lon="134.136611"><ele>157.5</ele><time>2026-08-11T00:56:25Z</time></trkpt>
<trkpt lat="34.801831" lon="134.136591"><ele>155.75</ele><time>2026-08-11T00:56:29Z</time></trkpt>
<trkpt lat="34.801845" lon="134.13657"><ele>155.68</ele><time>2026-08-11T00:56:31Z</time></trkpt>
<trkpt lat="34.801873" lon="134.136551"><ele>154.91</ele><time>2026-08-11T00:56:33Z</time></trkpt>
<trkpt lat="34.801937" lon="134.136521"><ele>154.28</ele><time>2026-08-11T00:56:37Z</time></trkpt>
<trkpt lat="34.80195" lon="134.136511"><ele>154.28</ele><time>2026-08-11T00:56:38Z</time></trkpt>
<trkpt lat="34.80205" lon="134.136453"><ele>154.23</ele><time>2026-08-11T00:56:44Z</time></trkpt>
<trkpt lat="34.802063" lon="134.136441"><ele>154.23</ele><time>2026-08-11T00:56:45Z</time></trkpt>
<trkpt lat="34.802127" lon="134.136399"><ele>155.38</ele><time>2026-08-11T00:56:50Z</time></trkpt>
<trkpt lat="34.802137" lon="134.136392"><ele>155.38</ele><time>2026-08-11T00:56:51Z</time></trkpt>
<trkpt lat="34.802202" lon="134.136317"><ele>155.84</ele><time>2026-08-11T00:56:58Z</time></trkpt>
<trkpt lat="34.802235" lon="134.136292"><ele>156.23</ele><time>2026-08-11T00:57:02Z</time></trkpt>
<trkpt lat="34.802259" lon="134.136277"><ele>156.17</ele><time>2026-08-11T00:57:04Z</time></trkpt>
<trkpt lat="34.80237" lon="134.136198"><ele>156.09</ele><time>2026-08-11T00:57:12Z</time></trkpt>
<trkpt lat="34.802452" lon="134.136155"><ele>156.12</ele><time>2026-08-11T00:57:17Z</time></trkpt>
<trkpt lat="34.802493" lon="134.136125"><ele>155.8</ele><time>2026-08-11T00:57:20Z</time></trkpt>
<trkpt lat="34.802516" lon="134.136096"><ele>156.83</ele><time>2026-08-11T00:57:23Z</time></trkpt>
<trkpt lat="34.802521" lon="134.136082"><ele>156.83</ele><time>2026-08-11T00:57:24Z</time></trkpt>
<trkpt lat="34.802531" lon="134.136072"><ele>157.05</ele><time>2026-08-11T00:57:25Z</time></trkpt>
<trkpt lat="34.80255" lon="134.13606"><ele>157.41</ele><time>2026-08-11T00:57:27Z</time></trkpt>
<trkpt lat="34.802574" lon="134.13604"><ele>158.23</ele><time>2026-08-11T00:57:31Z</time></trkpt>
<trkpt lat="34.802593" lon="134.136022"><ele>158.32</ele><time>2026-08-11T00:57:34Z</time></trkpt>
<trkpt lat="34.802598" lon="134.136016"><ele>158.32</ele><time>2026-08-11T00:57:35Z</time></trkpt>
<trkpt lat="34.802603" lon="134.136011"><ele>159.55</ele><time>2026-08-11T00:57:36Z</time></trkpt>
<trkpt lat="34.802634" lon="134.135968"><ele>161.09</ele><time>2026-08-11T00:57:41Z</time></trkpt>
<trkpt lat="34.802671" lon="134.13593"><ele>162.64</ele><time>2026-08-11T00:57:45Z</time></trkpt>
<trkpt lat="34.802674" lon="134.13593"><ele>162.64</ele><time>2026-08-11T00:57:46Z</time></trkpt>
<trkpt lat="34.802696" lon="134.135916"><ele>162.64</ele><time>2026-08-11T00:57:50Z</time></trkpt>
<trkpt lat="34.802704" lon="134.13591"><ele>164.48</ele><time>2026-08-11T00:57:52Z</time></trkpt>
<trkpt lat="34.802724" lon="134.135908"><ele>164.48</ele><time>2026-08-11T00:57:56Z</time></trkpt>
<trkpt lat="34.802731" lon="134.13591"><ele>164.48</ele><time>2026-08-11T00:57:58Z</time></trkpt>
<trkpt lat="34.802735" lon="134.135912"><ele>164.48</ele><time>2026-08-11T00:57:59Z</time></trkpt>
<trkpt lat="34.802756" lon="134.135938"><ele>166.3</ele><time>2026-08-11T00:58:04Z</time></trkpt>
<trkpt lat="34.802788" lon="134.135948"><ele>166.69</ele><time>2026-08-11T00:58:09Z</time></trkpt>
<trkpt lat="34.802814" lon="134.135944"><ele>168.09</ele><time>2026-08-11T00:58:14Z</time></trkpt>
<trkpt lat="34.80282" lon="134.135942"><ele>170.38</ele><time>2026-08-11T00:58:16Z</time></trkpt>
<trkpt lat="34.802824" lon="134.135938"><ele>170.38</ele><time>2026-08-11T00:58:18Z</time></trkpt>
<trkpt lat="34.802834" lon="134.13593"><ele>170.38</ele><time>2026-08-11T00:58:21Z</time></trkpt>
<trkpt lat="34.802839" lon="134.13592"><ele>170.38</ele><time>2026-08-11T00:58:23Z</time></trkpt>
<trkpt lat="34.802844" lon="134.135913"><ele>170.38</ele><time>2026-08-11T00:58:25Z</time></trkpt>
<trkpt lat="34.802863" lon="134.135902"><ele>172.15</ele><time>2026-08-11T00:58:29Z</time></trkpt>
<trkpt lat="34.802871" lon="134.13589"><ele>172.87</ele><time>2026-08-11T00:58:33Z</time></trkpt>
<trkpt lat="34.802875" lon="134.13588"><ele>172.87</ele><time>2026-08-11T00:58:34Z</time></trkpt>
<trkpt lat="34.8029" lon="134.135834"><ele>174.5</ele><time>2026-08-11T00:58:39Z</time></trkpt>
<trkpt lat="34.802902" lon="134.135812"><ele>174.11</ele><time>2026-08-11T00:58:41Z</time></trkpt>
<trkpt lat="34.802908" lon="134.135714"><ele>173.53</ele><time>2026-08-11T00:58:48Z</time></trkpt>
<trkpt lat="34.802918" lon="134.13564"><ele>175.04</ele><time>2026-08-11T00:58:55Z</time></trkpt>
<trkpt lat="34.802921" lon="134.135589"><ele>176.09</ele><time>2026-08-11T00:59:00Z</time></trkpt>
<trkpt lat="34.802929" lon="134.135535"><ele>177.05</ele><time>2026-08-11T00:59:05Z</time></trkpt>
<trkpt lat="34.80293" lon="134.135526"><ele>177.05</ele><time>2026-08-11T00:59:06Z</time></trkpt>
<trkpt lat="34.802927" lon="134.135449"><ele>178.58</ele><time>2026-08-11T00:59:11Z</time></trkpt>
<trkpt lat="34.802916" lon="134.135388"><ele>178.94</ele><time>2026-08-11T00:59:14Z</time></trkpt>
<trkpt lat="34.802996" lon="134.135233"><ele>178.56</ele><time>2026-08-11T00:59:22Z</time></trkpt>
<trkpt lat="34.803051" lon="134.135096"><ele>178.3</ele><time>2026-08-11T00:59:30Z</time></trkpt>
<trkpt lat="34.803073" lon="134.135055"><ele>179.02</ele><time>2026-08-11T00:59:35Z</time></trkpt>
<trkpt lat="34.803086" lon="134.135048"><ele>179.02</ele><time>2026-08-11T00:59:36Z</time></trkpt>
<trkpt lat="34.80311" lon="134.135029"><ele>180.33</ele><time>2026-08-11T00:59:41Z</time></trkpt>
<trkpt lat="34.803129" lon="134.134995"><ele>182.15</ele><time>2026-08-11T00:59:46Z</time></trkpt>
<trkpt lat="34.80314" lon="134.134987"><ele>182.15</ele><time>2026-08-11T00:59:47Z</time></trkpt>
<trkpt lat="34.803155" lon="134.134974"><ele>182.15</ele><time>2026-08-11T00:59:49Z</time></trkpt>
<trkpt lat="34.803168" lon="134.134966"><ele>182.85</ele><time>2026-08-11T00:59:52Z</time></trkpt>
<trkpt lat="34.803188" lon="134.134949"><ele>183.99</ele><time>2026-08-11T00:59:55Z</time></trkpt>
<trkpt lat="34.803203" lon="134.134923"><ele>184.04</ele><time>2026-08-11T00:59:58Z</time></trkpt>
<trkpt lat="34.803244" lon="134.134899"><ele>185.59</ele><time>2026-08-11T01:00:01Z</time></trkpt>
<trkpt lat="34.803252" lon="134.13489"><ele>185.59</ele><time>2026-08-11T01:00:02Z</time></trkpt>
<trkpt lat="34.803272" lon="134.134847"><ele>186.35</ele><time>2026-08-11T01:00:06Z</time></trkpt>
<trkpt lat="34.803299" lon="134.134825"><ele>188.04</ele><time>2026-08-11T01:00:09Z</time></trkpt>
<trkpt lat="34.80332" lon="134.134804"><ele>187.27</ele><time>2026-08-11T01:00:11Z</time></trkpt>
<trkpt lat="34.803398" lon="134.134754"><ele>186.97</ele><time>2026-08-11T01:00:19Z</time></trkpt>
<trkpt lat="34.803403" lon="134.134743"><ele>186.97</ele><time>2026-08-11T01:00:22Z</time></trkpt>
<trkpt lat="34.803388" lon="134.134738"><ele>187.51</ele><time>2026-08-11T01:00:26Z</time></trkpt>
<trkpt lat="34.803346" lon="134.134747"><ele>187.64</ele><time>2026-08-11T01:00:32Z</time></trkpt>
<trkpt lat="34.803322" lon="134.134745"><ele>188.43</ele><time>2026-08-11T01:00:34Z</time></trkpt>
<trkpt lat="34.803256" lon="134.134707"><ele>189.12</ele><time>2026-08-11T01:00:41Z</time></trkpt>
<trkpt lat="34.803184" lon="134.134652"><ele>188.67</ele><time>2026-08-11T01:00:48Z</time></trkpt>
<trkpt lat="34.803175" lon="134.134641"><ele>188.67</ele><time>2026-08-11T01:00:49Z</time></trkpt>
<trkpt lat="34.803119" lon="134.134562"><ele>188.05</ele><time>2026-08-11T01:00:56Z</time></trkpt>
<trkpt lat="34.803107" lon="134.134548"><ele>188.05</ele><time>2026-08-11T01:00:57Z</time></trkpt>
<trkpt lat="34.80303" lon="134.134467"><ele>188.01</ele><time>2026-08-11T01:01:06Z</time></trkpt>
<trkpt lat="34.803" lon="134.13439"><ele>187.97</ele><time>2026-08-11T01:01:11Z</time></trkpt>
<trkpt lat="34.80298" lon="134.134369"><ele>188.58</ele><time>2026-08-11T01:01:13Z</time></trkpt>
<trkpt lat="34.802961" lon="134.134341"><ele>188.43</ele><time>2026-08-11T01:01:16Z</time></trkpt>
<trkpt lat="34.802931" lon="134.134306"><ele>188.88</ele><time>2026-08-11T01:01:20Z</time></trkpt>
<trkpt lat="34.802924" lon="134.134293"><ele>188.88</ele><time>2026-08-11T01:01:22Z</time></trkpt>
<trkpt lat="34.802907" lon="134.134282"><ele>189.29</ele><time>2026-08-11T01:01:25Z</time></trkpt>
<trkpt lat="34.802876" lon="134.134249"><ele>190.47</ele><time>2026-08-11T01:01:29Z</time></trkpt>
<trkpt lat="34.802877" lon="134.134244"><ele>190.47</ele><time>2026-08-11T01:01:30Z</time></trkpt>
<trkpt lat="34.802863" lon="134.134229"><ele>190.47</ele><time>2026-08-11T01:01:34Z</time></trkpt>
<trkpt lat="34.802863" lon="134.134225"><ele>191.15</ele><time>2026-08-11T01:01:35Z</time></trkpt>
<trkpt lat="34.802854" lon="134.134199"><ele>191.15</ele><time>2026-08-11T01:01:40Z</time></trkpt>
<trkpt lat="34.802836" lon="134.13416"><ele>192.28</ele><time>2026-08-11T01:01:45Z</time></trkpt>
<trkpt lat="34.802817" lon="134.134133"><ele>192.89</ele><time>2026-08-11T01:01:48Z</time></trkpt>
<trkpt lat="34.802808" lon="134.134116"><ele>193.93</ele><time>2026-08-11T01:01:50Z</time></trkpt>
<trkpt lat="34.80278" lon="134.134079"><ele>194.7</ele><time>2026-08-11T01:01:55Z</time></trkpt>
<trkpt lat="34.802776" lon="134.134072"><ele>194.7</ele><time>2026-08-11T01:01:56Z</time></trkpt>
<trkpt lat="34.802751" lon="134.134042"><ele>196.82</ele><time>2026-08-11T01:02:00Z</time></trkpt>
<trkpt lat="34.802716" lon="134.13402"><ele>197.43</ele><time>2026-08-11T01:02:04Z</time></trkpt>
<trkpt lat="34.802699" lon="134.134014"><ele>197.79</ele><time>2026-08-11T01:02:06Z</time></trkpt>
<trkpt lat="34.80269" lon="134.134006"><ele>198.41</ele><time>2026-08-11T01:02:07Z</time></trkpt>
<trkpt lat="34.802676" lon="134.133993"><ele>198.41</ele><time>2026-08-11T01:02:09Z</time></trkpt>
<trkpt lat="34.802604" lon="134.133922"><ele>199.34</ele><time>2026-08-11T01:02:17Z</time></trkpt>
<trkpt lat="34.802562" lon="134.133927"><ele>199.09</ele><time>2026-08-11T01:02:21Z</time></trkpt>
<trkpt lat="34.802511" lon="134.133916"><ele>199.09</ele><time>2026-08-11T01:02:25Z</time></trkpt>
<trkpt lat="34.802412" lon="134.133875"><ele>199.08</ele><time>2026-08-11T01:02:33Z</time></trkpt>
<trkpt lat="34.802399" lon="134.133863"><ele>199.08</ele><time>2026-08-11T01:02:34Z</time></trkpt>
<trkpt lat="34.802291" lon="134.133744"><ele>200.16</ele><time>2026-08-11T01:02:42Z</time></trkpt>
<trkpt lat="34.802274" lon="134.133728"><ele>200.33</ele><time>2026-08-11T01:02:43Z</time></trkpt>
<trkpt lat="34.802232" lon="134.133663"><ele>201.05</ele><time>2026-08-11T01:02:48Z</time></trkpt>
<trkpt lat="34.802182" lon="134.133616"><ele>201.49</ele><time>2026-08-11T01:02:52Z</time></trkpt>
<trkpt lat="34.802161" lon="134.133587"><ele>201.21</ele><time>2026-08-11T01:02:54Z</time></trkpt>
<trkpt lat="34.802137" lon="134.133557"><ele>201.14</ele><time>2026-08-11T01:02:56Z</time></trkpt>
<trkpt lat="34.802076" lon="134.133488"><ele>200.53</ele><time>2026-08-11T01:03:01Z</time></trkpt>
<trkpt lat="34.802059" lon="134.133468"><ele>199.88</ele><time>2026-08-11T01:03:03Z</time></trkpt>
<trkpt lat="34.802027" lon="134.133419"><ele>198.61</ele><time>2026-08-11T01:03:06Z</time></trkpt>
<trkpt lat="34.802012" lon="134.133388"><ele>197.59</ele><time>2026-08-11T01:03:08Z</time></trkpt>
<trkpt lat="34.802004" lon="134.133372"><ele>197.59</ele><time>2026-08-11T01:03:09Z</time></trkpt>
<trkpt lat="34.801996" lon="134.133359"><ele>195.45</ele><time>2026-08-11T01:03:10Z</time></trkpt>
<trkpt lat="34.801975" lon="134.133336"><ele>195.45</ele><time>2026-08-11T01:03:12Z</time></trkpt>
<trkpt lat="34.801958" lon="134.133329"><ele>194.43</ele><time>2026-08-11T01:03:13Z</time></trkpt>
<trkpt lat="34.801941" lon="134.133324"><ele>192.95</ele><time>2026-08-11T01:03:14Z</time></trkpt>
<trkpt lat="34.801922" lon="134.133305"><ele>192.05</ele><time>2026-08-11T01:03:16Z</time></trkpt>
<trkpt lat="34.801897" lon="134.133284"><ele>192.05</ele><time>2026-08-11T01:03:18Z</time></trkpt>
<trkpt lat="34.801868" lon="134.133262"><ele>189.58</ele><time>2026-08-11T01:03:20Z</time></trkpt>
<trkpt lat="34.801836" lon="134.133241"><ele>188.65</ele><time>2026-08-11T01:03:22Z</time></trkpt>
<trkpt lat="34.801815" lon="134.133214"><ele>186.83</ele><time>2026-08-11T01:03:24Z</time></trkpt>
<trkpt lat="34.801794" lon="134.1332"><ele>186.83</ele><time>2026-08-11T01:03:25Z</time></trkpt>
<trkpt lat="34.801773" lon="134.133185"><ele>185.37</ele><time>2026-08-11T01:03:26Z</time></trkpt>
<trkpt lat="34.801731" lon="134.133152"><ele>184.26</ele><time>2026-08-11T01:03:28Z</time></trkpt>
<trkpt lat="34.801693" lon="134.133119"><ele>183.91</ele><time>2026-08-11T01:03:30Z</time></trkpt>
<trkpt lat="34.801638" lon="134.133076"><ele>183.37</ele><time>2026-08-11T01:03:34Z</time></trkpt>
<trkpt lat="34.801578" lon="134.132989"><ele>185.17</ele><time>2026-08-11T01:03:40Z</time></trkpt>
<trkpt lat="34.801543" lon="134.132957"><ele>186.46</ele><time>2026-08-11T01:03:45Z</time></trkpt>
<trkpt lat="34.801529" lon="134.132944"><ele>186.99</ele><time>2026-08-11T01:03:47Z</time></trkpt>
<trkpt lat="34.801513" lon="134.132914"><ele>188.0</ele><time>2026-08-11T01:03:51Z</time></trkpt>
<trkpt lat="34.801497" lon="134.132889"><ele>189.43</ele><time>2026-08-11T01:03:54Z</time></trkpt>
<trkpt lat="34.801491" lon="134.132882"><ele>189.43</ele><time>2026-08-11T01:03:55Z</time></trkpt>
<trkpt lat="34.80148" lon="134.132841"><ele>190.37</ele><time>2026-08-11T01:04:00Z</time></trkpt>
<trkpt lat="34.801449" lon="134.132822"><ele>190.81</ele><time>2026-08-11T01:04:04Z</time></trkpt>
<trkpt lat="34.801418" lon="134.132793"><ele>192.39</ele><time>2026-08-11T01:04:09Z</time></trkpt>
<trkpt lat="34.801416" lon="134.132765"><ele>193.52</ele><time>2026-08-11T01:04:12Z</time></trkpt>
<trkpt lat="34.801404" lon="134.132759"><ele>193.52</ele><time>2026-08-11T01:04:14Z</time></trkpt>
<trkpt lat="34.801382" lon="134.13274"><ele>193.01</ele><time>2026-08-11T01:04:17Z</time></trkpt>
<trkpt lat="34.801361" lon="134.132689"><ele>193.99</ele><time>2026-08-11T01:04:23Z</time></trkpt>
<trkpt lat="34.801349" lon="134.132653"><ele>195.52</ele><time>2026-08-11T01:04:27Z</time></trkpt>
<trkpt lat="34.801335" lon="134.132617"><ele>196.95</ele><time>2026-08-11T01:04:31Z</time></trkpt>
<trkpt lat="34.801305" lon="134.132579"><ele>197.78</ele><time>2026-08-11T01:04:36Z</time></trkpt>
<trkpt lat="34.801302" lon="134.132575"><ele>197.78</ele><time>2026-08-11T01:04:37Z</time></trkpt>
<trkpt lat="34.801304" lon="134.132571"><ele>197.78</ele><time>2026-08-11T01:04:46Z</time></trkpt>
<trkpt lat="34.801304" lon="134.132572"><ele>197.78</ele><time>2026-08-11T01:04:53Z</time></trkpt>
<trkpt lat="34.801304" lon="134.13255"><ele>198.88</ele><time>2026-08-11T01:04:59Z</time></trkpt>
<trkpt lat="34.801311" lon="134.132513"><ele>198.88</ele><time>2026-08-11T01:05:02Z</time></trkpt>
<trkpt lat="34.801317" lon="134.132488"><ele>199.52</ele><time>2026-08-11T01:05:04Z</time></trkpt>
<trkpt lat="34.801336" lon="134.132457"><ele>200.48</ele><time>2026-08-11T01:05:07Z</time></trkpt>
<trkpt lat="34.801347" lon="134.132455"><ele>200.48</ele><time>2026-08-11T01:05:08Z</time></trkpt>
<trkpt lat="34.801362" lon="134.132451"><ele>200.48</ele><time>2026-08-11T01:05:10Z</time></trkpt>
<trkpt lat="34.801387" lon="134.132405"><ele>200.94</ele><time>2026-08-11T01:05:15Z</time></trkpt>
<trkpt lat="34.801391" lon="134.132392"><ele>200.94</ele><time>2026-08-11T01:05:16Z</time></trkpt>
<trkpt lat="34.80142" lon="134.132332"><ele>200.88</ele><time>2026-08-11T01:05:20Z</time></trkpt>
<trkpt lat="34.80144" lon="134.132276"><ele>199.58</ele><time>2026-08-11T01:05:23Z</time></trkpt>
<trkpt lat="34.801462" lon="134.132242"><ele>198.51</ele><time>2026-08-11T01:05:25Z</time></trkpt>
<trkpt lat="34.801489" lon="134.132233"><ele>197.56</ele><time>2026-08-11T01:05:27Z</time></trkpt>
<trkpt lat="34.801511" lon="134.132207"><ele>195.02</ele><time>2026-08-11T01:05:29Z</time></trkpt>
<trkpt lat="34.801531" lon="134.132179"><ele>195.02</ele><time>2026-08-11T01:05:31Z</time></trkpt>
<trkpt lat="34.801537" lon="134.132153"><ele>193.45</ele><time>2026-08-11T01:05:34Z</time></trkpt>
<trkpt lat="34.801535" lon="134.13214"><ele>193.45</ele><time>2026-08-11T01:05:35Z</time></trkpt>
<trkpt lat="34.801538" lon="134.132126"><ele>193.45</ele><time>2026-08-11T01:05:36Z</time></trkpt>
<trkpt lat="34.80154" lon="134.132092"><ele>191.41</ele><time>2026-08-11T01:05:38Z</time></trkpt>
<trkpt lat="34.801545" lon="134.132047"><ele>188.39</ele><time>2026-08-11T01:05:40Z</time></trkpt>
<trkpt lat="34.801542" lon="134.132007"><ele>186.6</ele><time>2026-08-11T01:05:42Z</time></trkpt>
<trkpt lat="34.801548" lon="134.131982"><ele>184.85</ele><time>2026-08-11T01:05:44Z</time></trkpt>
<trkpt lat="34.801548" lon="134.131951"><ele>183.05</ele><time>2026-08-11T01:05:46Z</time></trkpt>
<trkpt lat="34.80155" lon="134.131936"><ele>183.05</ele><time>2026-08-11T01:05:47Z</time></trkpt>
<trkpt lat="34.801549" lon="134.131904"><ele>181.29</ele><time>2026-08-11T01:05:49Z</time></trkpt>
<trkpt lat="34.801544" lon="134.131868"><ele>181.29</ele><time>2026-08-11T01:05:51Z</time></trkpt>
<trkpt lat="34.801545" lon="134.131826"><ele>179.53</ele><time>2026-08-11T01:05:53Z</time></trkpt>
<trkpt lat="34.801555" lon="134.131807"><ele>177.74</ele><time>2026-08-11T01:05:54Z</time></trkpt>
<trkpt lat="34.801563" lon="134.131794"><ele>177.74</ele><time>2026-08-11T01:05:55Z</time></trkpt>
<trkpt lat="34.801584" lon="134.131762"><ele>175.55</ele><time>2026-08-11T01:05:57Z</time></trkpt>
<trkpt lat="34.801584" lon="134.131755"><ele>175.55</ele><time>2026-08-11T01:05:58Z</time></trkpt>
<trkpt lat="34.801584" lon="134.13174"><ele>175.55</ele><time>2026-08-11T01:05:59Z</time></trkpt>
<trkpt lat="34.801587" lon="134.131718"><ele>174.06</ele><time>2026-08-11T01:06:00Z</time></trkpt>
<trkpt lat="34.801607" lon="134.131644"><ele>172.05</ele><time>2026-08-11T01:06:02Z</time></trkpt>
<trkpt lat="34.801638" lon="134.131581"><ele>171.94</ele><time>2026-08-11T01:06:04Z</time></trkpt>
<trkpt lat="34.801654" lon="134.13156"><ele>171.65</ele><time>2026-08-11T01:06:05Z</time></trkpt>
<trkpt lat="34.801691" lon="134.131523"><ele>171.57</ele><time>2026-08-11T01:06:07Z</time></trkpt>
<trkpt lat="34.801728" lon="134.13151"><ele>170.82</ele><time>2026-08-11T01:06:09Z</time></trkpt>
<trkpt lat="34.801744" lon="134.131505"><ele>170.82</ele><time>2026-08-11T01:06:10Z</time></trkpt>
<trkpt lat="34.801766" lon="134.131498"><ele>169.7</ele><time>2026-08-11T01:06:11Z</time></trkpt>
<trkpt lat="34.801793" lon="134.131482"><ele>168.3</ele><time>2026-08-11T01:06:13Z</time></trkpt>
<trkpt lat="34.801834" lon="134.131456"><ele>167.89</ele><time>2026-08-11T01:06:16Z</time></trkpt>
<trkpt lat="34.801855" lon="134.131443"><ele>167.89</ele><time>2026-08-11T01:06:17Z</time></trkpt>
<trkpt lat="34.801889" lon="134.131424"><ele>167.63</ele><time>2026-08-11T01:06:19Z</time></trkpt>
<trkpt lat="34.801975" lon="134.131357"><ele>166.07</ele><time>2026-08-11T01:06:24Z</time></trkpt>
<trkpt lat="34.802028" lon="134.13129"><ele>165.38</ele><time>2026-08-11T01:06:27Z</time></trkpt>
<trkpt lat="34.802063" lon="134.131256"><ele>164.7</ele><time>2026-08-11T01:06:29Z</time></trkpt>
<trkpt lat="34.802106" lon="134.131183"><ele>164.11</ele><time>2026-08-11T01:06:33Z</time></trkpt>
<trkpt lat="34.802108" lon="134.131168"><ele>163.0</ele><time>2026-08-11T01:06:34Z</time></trkpt>
<trkpt lat="34.802105" lon="134.131157"><ele>163.0</ele><time>2026-08-11T01:06:35Z</time></trkpt>
<trkpt lat="34.802102" lon="134.131146"><ele>162.58</ele><time>2026-08-11T01:06:38Z</time></trkpt>
<trkpt lat="34.802109" lon="134.131147"><ele>163.0</ele><time>2026-08-11T01:06:41Z</time></trkpt>
<trkpt lat="34.802114" lon="134.131145"><ele>163.0</ele><time>2026-08-11T01:06:44Z</time></trkpt>
<trkpt lat="34.802115" lon="134.131154"><ele>163.0</ele><time>2026-08-11T01:06:52Z</time></trkpt>
<trkpt lat="34.802115" lon="134.131154"><ele>163.0</ele><time>2026-08-11T01:06:54Z</time></trkpt>
<trkpt lat="34.802115" lon="134.131154"><ele>163.0</ele><time>2026-08-11T01:06:57Z</time></trkpt>
<trkpt lat="34.802115" lon="134.131154"><ele>163.0</ele><time>2026-08-11T01:07:02Z</time></trkpt>
<trkpt lat="34.802115" lon="134.131152"><ele>163.0</ele><time>2026-08-11T01:07:06Z</time></trkpt>
<trkpt lat="34.802115" lon="134.131148"><ele>163.0</ele><time>2026-08-11T01:07:09Z</time></trkpt>
<trkpt lat="34.802115" lon="134.131145"><ele>163.0</ele><time>2026-08-11T01:07:15Z</time></trkpt>
<trkpt lat="34.802131" lon="134.131135"><ele>161.64</ele><time>2026-08-11T01:07:31Z</time></trkpt>
<trkpt lat="34.802133" lon="134.131136"><ele>163.0</ele><time>2026-08-11T01:07:41Z</time></trkpt>
<trkpt lat="34.802132" lon="134.13114"><ele>163.0</ele><time>2026-08-11T01:07:51Z</time></trkpt>
<trkpt lat="34.802127" lon="134.131156"><ele>163.0</ele><time>2026-08-11T01:07:55Z</time></trkpt>
<trkpt lat="34.802123" lon="134.131161"><ele>163.0</ele><time>2026-08-11T01:08:02Z</time></trkpt>
<trkpt lat="34.802132" lon="134.131137"><ele>163.0</ele><time>2026-08-11T01:08:07Z</time></trkpt>
<trkpt lat="34.802147" lon="134.131112"><ele>161.65</ele><time>2026-08-11T01:08:09Z</time></trkpt>
<trkpt lat="34.80216" lon="134.131094"><ele>161.65</ele><time>2026-08-11T01:08:11Z</time></trkpt>
<trkpt lat="34.802186" lon="134.131069"><ele>160.02</ele><time>2026-08-11T01:08:13Z</time></trkpt>
<trkpt lat="34.802222" lon="134.131039"><ele>157.71</ele><time>2026-08-11T01:08:16Z</time></trkpt>
<trkpt lat="34.802254" lon="134.131024"><ele>156.11</ele><time>2026-08-11T01:08:18Z</time></trkpt>
<trkpt lat="34.802291" lon="134.131002"><ele>154.23</ele><time>2026-08-11T01:08:20Z</time></trkpt>
<trkpt lat="34.802303" lon="134.130992"><ele>154.23</ele><time>2026-08-11T01:08:21Z</time></trkpt>
<trkpt lat="34.802318" lon="134.130982"><ele>152.81</ele><time>2026-08-11T01:08:22Z</time></trkpt>
<trkpt lat="34.802365" lon="134.130959"><ele>151.4</ele><time>2026-08-11T01:08:25Z</time></trkpt>
<trkpt lat="34.80239" lon="134.130948"><ele>150.44</ele><time>2026-08-11T01:08:27Z</time></trkpt>
<trkpt lat="34.802432" lon="134.130911"><ele>149.64</ele><time>2026-08-11T01:08:31Z</time></trkpt>
<trkpt lat="34.802451" lon="134.130906"><ele>149.64</ele><time>2026-08-11T01:08:32Z</time></trkpt>
<trkpt lat="34.802509" lon="134.130878"><ele>148.8</ele><time>2026-08-11T01:08:36Z</time></trkpt>
<trkpt lat="34.802564" lon="134.130847"><ele>147.71</ele><time>2026-08-11T01:08:39Z</time></trkpt>
<trkpt lat="34.802582" lon="134.130836"><ele>147.71</ele><time>2026-08-11T01:08:41Z</time></trkpt>
<trkpt lat="34.80259" lon="134.130826"><ele>147.52</ele><time>2026-08-11T01:08:42Z</time></trkpt>
<trkpt lat="34.802605" lon="134.130817"><ele>147.24</ele><time>2026-08-11T01:08:44Z</time></trkpt>
<trkpt lat="34.802607" lon="134.130817"><ele>147.24</ele><time>2026-08-11T01:08:46Z</time></trkpt>
<trkpt lat="34.802608" lon="134.130823"><ele>147.24</ele><time>2026-08-11T01:08:48Z</time></trkpt>
<trkpt lat="34.802607" lon="134.130825"><ele>147.24</ele><time>2026-08-11T01:08:49Z</time></trkpt>
<trkpt lat="34.80261" lon="134.130817"><ele>147.24</ele><time>2026-08-11T01:08:53Z</time></trkpt>
<trkpt lat="34.802612" lon="134.130816"><ele>147.24</ele><time>2026-08-11T01:08:58Z</time></trkpt>
<trkpt lat="34.802612" lon="134.130816"><ele>147.24</ele><time>2026-08-11T01:09:04Z</time></trkpt>
<trkpt lat="34.802612" lon="134.130816"><ele>147.24</ele><time>2026-08-11T01:09:11Z</time></trkpt>
<trkpt lat="34.802651" lon="134.13079"><ele>146.8</ele><time>2026-08-11T01:09:46Z</time></trkpt>
<trkpt lat="34.802675" lon="134.130765"><ele>146.47</ele><time>2026-08-11T01:09:48Z</time></trkpt>
<trkpt lat="34.802684" lon="134.130749"><ele>146.33</ele><time>2026-08-11T01:09:49Z</time></trkpt>
<trkpt lat="34.802738" lon="134.130694"><ele>145.44</ele><time>2026-08-11T01:09:54Z</time></trkpt>
<trkpt lat="34.802751" lon="134.130695"><ele>145.33</ele><time>2026-08-11T01:09:55Z</time></trkpt>
<trkpt lat="34.80283" lon="134.130692"><ele>143.26</ele><time>2026-08-11T01:10:01Z</time></trkpt>
<trkpt lat="34.802872" lon="134.130703"><ele>141.82</ele><time>2026-08-11T01:10:04Z</time></trkpt>
<trkpt lat="34.802885" lon="134.130706"><ele>140.36</ele><time>2026-08-11T01:10:05Z</time></trkpt>
<trkpt lat="34.802902" lon="134.130703"><ele>140.36</ele><time>2026-08-11T01:10:06Z</time></trkpt>
<trkpt lat="34.802926" lon="134.130683"><ele>138.76</ele><time>2026-08-11T01:10:08Z</time></trkpt>
<trkpt lat="34.802931" lon="134.130658"><ele>138.3</ele><time>2026-08-11T01:10:10Z</time></trkpt>
<trkpt lat="34.802936" lon="134.130634"><ele>138.3</ele><time>2026-08-11T01:10:12Z</time></trkpt>
<trkpt lat="34.802948" lon="134.130621"><ele>138.3</ele><time>2026-08-11T01:10:13Z</time></trkpt>
<trkpt lat="34.802961" lon="134.13061"><ele>135.16</ele><time>2026-08-11T01:10:14Z</time></trkpt>
<trkpt lat="34.802988" lon="134.130584"><ele>133.19</ele><time>2026-08-11T01:10:16Z</time></trkpt>
<trkpt lat="34.803003" lon="134.130564"><ele>131.74</ele><time>2026-08-11T01:10:17Z</time></trkpt>
<trkpt lat="34.803021" lon="134.130542"><ele>131.74</ele><time>2026-08-11T01:10:19Z</time></trkpt>
<trkpt lat="34.803023" lon="134.130525"><ele>128.28</ele><time>2026-08-11T01:10:20Z</time></trkpt>
<trkpt lat="34.803022" lon="134.130507"><ele>128.28</ele><time>2026-08-11T01:10:21Z</time></trkpt>
<trkpt lat="34.80302" lon="134.130487"><ele>127.99</ele><time>2026-08-11T01:10:22Z</time></trkpt>
<trkpt lat="34.803023" lon="134.130464"><ele>126.69</ele><time>2026-08-11T01:10:23Z</time></trkpt>
<trkpt lat="34.803027" lon="134.130444"><ele>124.38</ele><time>2026-08-11T01:10:24Z</time></trkpt>
<trkpt lat="34.803025" lon="134.13043"><ele>124.38</ele><time>2026-08-11T01:10:25Z</time></trkpt>
<trkpt lat="34.80302" lon="134.130417"><ele>125.43</ele><time>2026-08-11T01:10:26Z</time></trkpt>
<trkpt lat="34.803024" lon="134.130407"><ele>124.38</ele><time>2026-08-11T01:10:27Z</time></trkpt>
<trkpt lat="34.803032" lon="134.130402"><ele>121.9</ele><time>2026-08-11T01:10:28Z</time></trkpt>
<trkpt lat="34.803046" lon="134.130386"><ele>121.9</ele><time>2026-08-11T01:10:30Z</time></trkpt>
<trkpt lat="34.803053" lon="134.130366"><ele>121.9</ele><time>2026-08-11T01:10:32Z</time></trkpt>
<trkpt lat="34.803052" lon="134.130356"><ele>119.46</ele><time>2026-08-11T01:10:33Z</time></trkpt>
<trkpt lat="34.803051" lon="134.130343"><ele>119.46</ele><time>2026-08-11T01:10:34Z</time></trkpt>
<trkpt lat="34.803075" lon="134.130318"><ele>116.82</ele><time>2026-08-11T01:10:36Z</time></trkpt>
<trkpt lat="34.803089" lon="134.130313"><ele>116.82</ele><time>2026-08-11T01:10:37Z</time></trkpt>
<trkpt lat="34.803112" lon="134.130295"><ele>115.52</ele><time>2026-08-11T01:10:39Z</time></trkpt>
<trkpt lat="34.803125" lon="134.130248"><ele>113.92</ele><time>2026-08-11T01:10:41Z</time></trkpt>
<trkpt lat="34.803129" lon="134.130226"><ele>111.77</ele><time>2026-08-11T01:10:42Z</time></trkpt>
<trkpt lat="34.803131" lon="134.130208"><ele>111.77</ele><time>2026-08-11T01:10:43Z</time></trkpt>
<trkpt lat="34.803139" lon="134.130167"><ele>110.73</ele><time>2026-08-11T01:10:45Z</time></trkpt>
<trkpt lat="34.803154" lon="134.130108"><ele>109.63</ele><time>2026-08-11T01:10:47Z</time></trkpt>
<trkpt lat="34.803162" lon="134.13008"><ele>108.28</ele><time>2026-08-11T01:10:48Z</time></trkpt>
<trkpt lat="34.803173" lon="134.130052"><ele>107.15</ele><time>2026-08-11T01:10:49Z</time></trkpt>
<trkpt lat="34.803192" lon="134.130007"><ele>106.22</ele><time>2026-08-11T01:10:51Z</time></trkpt>
<trkpt lat="34.803197" lon="134.129985"><ele>106.22</ele><time>2026-08-11T01:10:53Z</time></trkpt>
<trkpt lat="34.803198" lon="134.129979"><ele>105.8</ele><time>2026-08-11T01:10:54Z</time></trkpt>
<trkpt lat="34.803198" lon="134.129977"><ele>105.2</ele><time>2026-08-11T01:10:56Z</time></trkpt>
<trkpt lat="34.803198" lon="134.129978"><ele>105.8</ele><time>2026-08-11T01:10:58Z</time></trkpt>
<trkpt lat="34.803195" lon="134.129976"><ele>105.27</ele><time>2026-08-11T01:11:00Z</time></trkpt>
<trkpt lat="34.803197" lon="134.129974"><ele>105.27</ele><time>2026-08-11T01:11:02Z</time></trkpt>
<trkpt lat="34.803192" lon="134.129969"><ele>105.27</ele><time>2026-08-11T01:11:08Z</time></trkpt>
<trkpt lat="34.803192" lon="134.129969"><ele>105.27</ele><time>2026-08-11T01:11:16Z</time></trkpt>
<trkpt lat="34.803189" lon="134.129964"><ele>105.27</ele><time>2026-08-11T01:11:28Z</time></trkpt>
<trkpt lat="34.803207" lon="134.129872"><ele>103.16</ele><time>2026-08-11T01:11:37Z</time></trkpt>
<trkpt lat="34.803227" lon="134.129831"><ele>101.25</ele><time>2026-08-11T01:11:39Z</time></trkpt>
<trkpt lat="34.803234" lon="134.129796"><ele>100.12</ele><time>2026-08-11T01:11:41Z</time></trkpt>
<trkpt lat="34.803239" lon="134.129775"><ele>100.12</ele><time>2026-08-11T01:11:43Z</time></trkpt>
<trkpt lat="34.80324" lon="134.129771"><ele>100.12</ele><time>2026-08-11T01:11:44Z</time></trkpt>
<trkpt lat="34.803241" lon="134.129769"><ele>100.12</ele><time>2026-08-11T01:11:45Z</time></trkpt>
<trkpt lat="34.803242" lon="134.129769"><ele>100.12</ele><time>2026-08-11T01:11:47Z</time></trkpt>
<trkpt lat="34.803244" lon="134.129766"><ele>100.12</ele><time>2026-08-11T01:11:51Z</time></trkpt>
<trkpt lat="34.803243" lon="134.12977"><ele>100.12</ele><time>2026-08-11T01:11:54Z</time></trkpt>
<trkpt lat="34.803236" lon="134.129761"><ele>98.58</ele><time>2026-08-11T01:11:59Z</time></trkpt>
<trkpt lat="34.803232" lon="134.12976"><ele>97.18</ele><time>2026-08-11T01:12:00Z</time></trkpt>
<trkpt lat="34.803246" lon="134.129751"><ele>98.58</ele><time>2026-08-11T01:12:06Z</time></trkpt>
<trkpt lat="34.803256" lon="134.129747"><ele>98.58</ele><time>2026-08-11T01:12:13Z</time></trkpt>
<trkpt lat="34.803256" lon="134.129754"><ele>98.58</ele><time>2026-08-11T01:12:41Z</time></trkpt>
<trkpt lat="34.803256" lon="134.129759"><ele>98.58</ele><time>2026-08-11T01:12:42Z</time></trkpt>
<trkpt lat="34.803266" lon="134.129747"><ele>98.58</ele><time>2026-08-11T01:19:32Z</time></trkpt>
<trkpt lat="34.803301" lon="134.129682"><ele>97.64</ele><time>2026-08-11T01:19:40Z</time></trkpt>
<trkpt lat="34.803302" lon="134.129659"><ele>96.58</ele><time>2026-08-11T01:19:41Z</time></trkpt>
<trkpt lat="34.803303" lon="134.12963"><ele>96.08</ele><time>2026-08-11T01:19:42Z</time></trkpt>
<trkpt lat="34.803312" lon="134.129578"><ele>95.48</ele><time>2026-08-11T01:19:44Z</time></trkpt>
<trkpt lat="34.803313" lon="134.129563"><ele>95.48</ele><time>2026-08-11T01:19:45Z</time></trkpt>
<trkpt lat="34.803316" lon="134.129498"><ele>93.85</ele><time>2026-08-11T01:19:48Z</time></trkpt>
<trkpt lat="34.803321" lon="134.129482"><ele>93.85</ele><time>2026-08-11T01:19:49Z</time></trkpt>
<trkpt lat="34.803334" lon="134.129454"><ele>93.16</ele><time>2026-08-11T01:19:51Z</time></trkpt>
<trkpt lat="34.803362" lon="134.129392"><ele>92.3</ele><time>2026-08-11T01:19:54Z</time></trkpt>
<trkpt lat="34.803402" lon="134.129336"><ele>91.98</ele><time>2026-08-11T01:19:58Z</time></trkpt>
<trkpt lat="34.803404" lon="134.129323"><ele>91.57</ele><time>2026-08-11T01:19:59Z</time></trkpt>
<trkpt lat="34.803407" lon="134.129285"><ele>90.67</ele><time>2026-08-11T01:20:01Z</time></trkpt>
<trkpt lat="34.803427" lon="134.12926"><ele>90.42</ele><time>2026-08-11T01:20:03Z</time></trkpt>
<trkpt lat="34.803449" lon="134.12923"><ele>88.8</ele><time>2026-08-11T01:20:05Z</time></trkpt>
<trkpt lat="34.803469" lon="134.129201"><ele>88.51</ele><time>2026-08-11T01:20:07Z</time></trkpt>
<trkpt lat="34.803491" lon="134.129124"><ele>87.16</ele><time>2026-08-11T01:20:11Z</time></trkpt>
<trkpt lat="34.803487" lon="134.129094"><ele>86.99</ele><time>2026-08-11T01:20:13Z</time></trkpt>
<trkpt lat="34.803493" lon="134.129073"><ele>86.51</ele><time>2026-08-11T01:20:16Z</time></trkpt>
<trkpt lat="34.803495" lon="134.129072"><ele>86.51</ele><time>2026-08-11T01:20:18Z</time></trkpt>
<trkpt lat="34.803495" lon="134.129032"><ele>85.74</ele><time>2026-08-11T01:20:22Z</time></trkpt>
<trkpt lat="34.803516" lon="134.12899"><ele>84.88</ele><time>2026-08-11T01:20:25Z</time></trkpt>
<trkpt lat="34.803519" lon="134.12898"><ele>84.88</ele><time>2026-08-11T01:20:27Z</time></trkpt>
<trkpt lat="34.803518" lon="134.128979"><ele>84.88</ele><time>2026-08-11T01:20:29Z</time></trkpt>
<trkpt lat="34.803526" lon="134.128975"><ele>84.88</ele><time>2026-08-11T01:20:30Z</time></trkpt>
<trkpt lat="34.803581" lon="134.128941"><ele>83.48</ele><time>2026-08-11T01:20:34Z</time></trkpt>
<trkpt lat="34.803594" lon="134.12894"><ele>82.61</ele><time>2026-08-11T01:20:35Z</time></trkpt>
<trkpt lat="34.803614" lon="134.128921"><ele>82.61</ele><time>2026-08-11T01:20:37Z</time></trkpt>
<trkpt lat="34.80363" lon="134.128871"><ele>80.93</ele><time>2026-08-11T01:20:40Z</time></trkpt>
<trkpt lat="34.803636" lon="134.128851"><ele>80.46</ele><time>2026-08-11T01:20:41Z</time></trkpt>
<trkpt lat="34.803656" lon="134.128814"><ele>78.64</ele><time>2026-08-11T01:20:43Z</time></trkpt>
<trkpt lat="34.803672" lon="134.1288"><ele>78.64</ele><time>2026-08-11T01:20:44Z</time></trkpt>
<trkpt lat="34.803681" lon="134.128788"><ele>78.64</ele><time>2026-08-11T01:20:45Z</time></trkpt>
<trkpt lat="34.803703" lon="134.128754"><ele>76.72</ele><time>2026-08-11T01:20:47Z</time></trkpt>
<trkpt lat="34.803713" lon="134.128735"><ele>76.72</ele><time>2026-08-11T01:20:48Z</time></trkpt>
<trkpt lat="34.803726" lon="134.128716"><ele>74.55</ele><time>2026-08-11T01:20:49Z</time></trkpt>
<trkpt lat="34.803752" lon="134.128686"><ele>73.48</ele><time>2026-08-11T01:20:51Z</time></trkpt>
<trkpt lat="34.803762" lon="134.128665"><ele>72.3</ele><time>2026-08-11T01:20:53Z</time></trkpt>
<trkpt lat="34.803768" lon="134.128665"><ele>72.3</ele><time>2026-08-11T01:20:54Z</time></trkpt>
<trkpt lat="34.803775" lon="134.128655"><ele>72.3</ele><time>2026-08-11T01:20:55Z</time></trkpt>
<trkpt lat="34.803784" lon="134.128627"><ele>71.09</ele><time>2026-08-11T01:20:57Z</time></trkpt>
<trkpt lat="34.803804" lon="134.128604"><ele>69.95</ele><time>2026-08-11T01:20:59Z</time></trkpt>
<trkpt lat="34.80381" lon="134.128591"><ele>68.65</ele><time>2026-08-11T01:21:00Z</time></trkpt>
<trkpt lat="34.803809" lon="134.128575"><ele>68.65</ele><time>2026-08-11T01:21:01Z</time></trkpt>
<trkpt lat="34.803813" lon="134.128551"><ele>66.81</ele><time>2026-08-11T01:21:03Z</time></trkpt>
<trkpt lat="34.803819" lon="134.128543"><ele>66.81</ele><time>2026-08-11T01:21:04Z</time></trkpt>
<trkpt lat="34.803823" lon="134.128537"><ele>66.81</ele><time>2026-08-11T01:21:05Z</time></trkpt>
<trkpt lat="34.803828" lon="134.128531"><ele>66.81</ele><time>2026-08-11T01:21:06Z</time></trkpt>
<trkpt lat="34.803854" lon="134.128521"><ele>65.75</ele><time>2026-08-11T01:21:08Z</time></trkpt>
<trkpt lat="34.803889" lon="134.128518"><ele>62.95</ele><time>2026-08-11T01:21:10Z</time></trkpt>
<trkpt lat="34.803943" lon="134.128485"><ele>60.66</ele><time>2026-08-11T01:21:14Z</time></trkpt>
<trkpt lat="34.80397" lon="134.128478"><ele>60.66</ele><time>2026-08-11T01:21:16Z</time></trkpt>
<trkpt lat="34.803979" lon="134.128472"><ele>57.99</ele><time>2026-08-11T01:21:17Z</time></trkpt>
<trkpt lat="34.803987" lon="134.128463"><ele>57.99</ele><time>2026-08-11T01:21:18Z</time></trkpt>
<trkpt lat="34.804001" lon="134.128443"><ele>57.99</ele><time>2026-08-11T01:21:20Z</time></trkpt>
<trkpt lat="34.804002" lon="134.128436"><ele>57.99</ele><time>2026-08-11T01:21:22Z</time></trkpt>
<trkpt lat="34.804004" lon="134.128427"><ele>56.58</ele><time>2026-08-11T01:21:23Z</time></trkpt>
<trkpt lat="34.804006" lon="134.128387"><ele>55.14</ele><time>2026-08-11T01:21:25Z</time></trkpt>
<trkpt lat="34.804003" lon="134.128374"><ele>55.14</ele><time>2026-08-11T01:21:26Z</time></trkpt>
<trkpt lat="34.803995" lon="134.12836"><ele>55.14</ele><time>2026-08-11T01:21:27Z</time></trkpt>
<trkpt lat="34.803984" lon="134.128345"><ele>53.41</ele><time>2026-08-11T01:21:28Z</time></trkpt>
<trkpt lat="34.80398" lon="134.12832"><ele>53.41</ele><time>2026-08-11T01:21:29Z</time></trkpt>
<trkpt lat="34.803972" lon="134.128286"><ele>52.33</ele><time>2026-08-11T01:21:31Z</time></trkpt>
<trkpt lat="34.803954" lon="134.128251"><ele>50.31</ele><time>2026-08-11T01:21:33Z</time></trkpt>
<trkpt lat="34.803943" lon="134.128238"><ele>50.31</ele><time>2026-08-11T01:21:34Z</time></trkpt>
<trkpt lat="34.803926" lon="134.12822"><ele>50.89</ele><time>2026-08-11T01:21:36Z</time></trkpt>
<trkpt lat="34.803918" lon="134.12822"><ele>50.89</ele><time>2026-08-11T01:21:37Z</time></trkpt>
<trkpt lat="34.803906" lon="134.128223"><ele>50.89</ele><time>2026-08-11T01:21:39Z</time></trkpt>
<trkpt lat="34.803899" lon="134.128216"><ele>49.71</ele><time>2026-08-11T01:21:40Z</time></trkpt>
<trkpt lat="34.803842" lon="134.128198"><ele>50.44</ele><time>2026-08-11T01:21:45Z</time></trkpt>
<trkpt lat="34.803804" lon="134.128169"><ele>50.53</ele><time>2026-08-11T01:21:48Z</time></trkpt>
<trkpt lat="34.80377" lon="134.128081"><ele>50.51</ele><time>2026-08-11T01:21:54Z</time></trkpt>
<trkpt lat="34.803749" lon="134.128001"><ele>50.92</ele><time>2026-08-11T01:22:01Z</time></trkpt>
<trkpt lat="34.803741" lon="134.12797"><ele>50.92</ele><time>2026-08-11T01:22:03Z</time></trkpt>
<trkpt lat="34.803695" lon="134.127842"><ele>50.64</ele><time>2026-08-11T01:22:12Z</time></trkpt>
<trkpt lat="34.803672" lon="134.127767"><ele>49.73</ele><time>2026-08-11T01:22:17Z</time></trkpt>
<trkpt lat="34.803654" lon="134.127718"><ele>48.93</ele><time>2026-08-11T01:22:20Z</time></trkpt>
<trkpt lat="34.80363" lon="134.127672"><ele>48.05</ele><time>2026-08-11T01:22:23Z</time></trkpt>
<trkpt lat="34.803598" lon="134.127623"><ele>47.24</ele><time>2026-08-11T01:22:26Z</time></trkpt>
<trkpt lat="34.803579" lon="134.127598"><ele>46.5</ele><time>2026-08-11T01:22:27Z</time></trkpt>
<trkpt lat="34.803515" lon="134.12747"><ele>45.15</ele><time>2026-08-11T01:22:31Z</time></trkpt>
<trkpt lat="34.803487" lon="134.127373"><ele>43.84</ele><time>2026-08-11T01:22:35Z</time></trkpt>
<trkpt lat="34.803479" lon="134.127349"><ele>43.33</ele><time>2026-08-11T01:22:36Z</time></trkpt>
<trkpt lat="34.803477" lon="134.127332"><ele>43.33</ele><time>2026-08-11T01:22:37Z</time></trkpt>
<trkpt lat="34.80347" lon="134.127316"><ele>42.93</ele><time>2026-08-11T01:22:38Z</time></trkpt>
<trkpt lat="34.803451" lon="134.12728"><ele>42.93</ele><time>2026-08-11T01:22:40Z</time></trkpt>
<trkpt lat="34.80342" lon="134.127244"><ele>42.49</ele><time>2026-08-11T01:22:42Z</time></trkpt>
<trkpt lat="34.803404" lon="134.127204"><ele>41.82</ele><time>2026-08-11T01:22:44Z</time></trkpt>
<trkpt lat="34.803392" lon="134.127182"><ele>41.48</ele><time>2026-08-11T01:22:45Z</time></trkpt>
<trkpt lat="34.803352" lon="134.12712"><ele>40.89</ele><time>2026-08-11T01:22:48Z</time></trkpt>
<trkpt lat="34.803354" lon="134.127101"><ele>40.75</ele><time>2026-08-11T01:22:49Z</time></trkpt>
<trkpt lat="34.803367" lon="134.127078"><ele>40.75</ele><time>2026-08-11T01:22:50Z</time></trkpt>
<trkpt lat="34.803377" lon="134.127032"><ele>41.07</ele><time>2026-08-11T01:22:52Z</time></trkpt>
<trkpt lat="34.803401" lon="134.126973"><ele>41.16</ele><time>2026-08-11T01:22:56Z</time></trkpt>
<trkpt lat="34.803398" lon="134.126959"><ele>41.16</ele><time>2026-08-11T01:22:58Z</time></trkpt>
<trkpt lat="34.803399" lon="134.12695"><ele>41.16</ele><time>2026-08-11T01:23:45Z</time></trkpt>
<trkpt lat="34.803399" lon="134.12695"><ele>41.16</ele><time>2026-08-11T01:23:46Z</time></trkpt>
<trkpt lat="34.803398" lon="134.126925"><ele>41.14</ele><time>2026-08-11T01:23:50Z</time></trkpt>
<trkpt lat="34.803412" lon="134.126815"><ele>41.06</ele><time>2026-08-11T01:23:56Z</time></trkpt>
<trkpt lat="34.803428" lon="134.126748"><ele>40.41</ele><time>2026-08-11T01:23:59Z</time></trkpt>
<trkpt lat="34.803431" lon="134.126712"><ele>39.86</ele><time>2026-08-11T01:24:01Z</time></trkpt>
<trkpt lat="34.803421" lon="134.126698"><ele>39.86</ele><time>2026-08-11T01:24:02Z</time></trkpt>
<trkpt lat="34.80341" lon="134.126682"><ele>39.86</ele><time>2026-08-11T01:24:03Z</time></trkpt>
<trkpt lat="34.803399" lon="134.126669"><ele>39.1</ele><time>2026-08-11T01:24:04Z</time></trkpt>
<trkpt lat="34.803349" lon="134.126579"><ele>37.83</ele><time>2026-08-11T01:24:08Z</time></trkpt>
<trkpt lat="34.803347" lon="134.126518"><ele>37.16</ele><time>2026-08-11T01:24:10Z</time></trkpt>
<trkpt lat="34.803347" lon="134.126491"><ele>36.15</ele><time>2026-08-11T01:24:11Z</time></trkpt>
<trkpt lat="34.803335" lon="134.126416"><ele>35.93</ele><time>2026-08-11T01:24:14Z</time></trkpt>
<trkpt lat="34.803318" lon="134.126338"><ele>34.51</ele><time>2026-08-11T01:24:17Z</time></trkpt>
<trkpt lat="34.803304" lon="134.126325"><ele>33.73</ele><time>2026-08-11T01:24:18Z</time></trkpt>
<trkpt lat="34.80324" lon="134.126316"><ele>32.42</ele><time>2026-08-11T01:24:21Z</time></trkpt>
<trkpt lat="34.803206" lon="134.126304"><ele>32.26</ele><time>2026-08-11T01:24:22Z</time></trkpt>
<trkpt lat="34.80315" lon="134.12626"><ele>31.96</ele><time>2026-08-11T01:24:24Z</time></trkpt>
<trkpt lat="34.803134" lon="134.126226"><ele>30.78</ele><time>2026-08-11T01:24:25Z</time></trkpt>
<trkpt lat="34.803119" lon="134.126162"><ele>28.99</ele><time>2026-08-11T01:24:27Z</time></trkpt>
<trkpt lat="34.803104" lon="134.126084"><ele>28.39</ele><time>2026-08-11T01:24:30Z</time></trkpt>
<trkpt lat="34.803081" lon="134.126032"><ele>27.68</ele><time>2026-08-11T01:24:32Z</time></trkpt>
<trkpt lat="34.803033" lon="134.125983"><ele>27.29</ele><time>2026-08-11T01:24:36Z</time></trkpt>
<trkpt lat="34.802963" lon="134.125954"><ele>26.65</ele><time>2026-08-11T01:24:40Z</time></trkpt>
<trkpt lat="34.802947" lon="134.125946"><ele>26.41</ele><time>2026-08-11T01:24:41Z</time></trkpt>
<trkpt lat="34.802805" lon="134.125886"><ele>26.53</ele><time>2026-08-11T01:24:47Z</time></trkpt>
<trkpt lat="34.802638" lon="134.125798"><ele>26.74</ele><time>2026-08-11T01:24:55Z</time></trkpt>
<trkpt lat="34.80259" lon="134.125775"><ele>26.68</ele><time>2026-08-11T01:24:57Z</time></trkpt>
<trkpt lat="34.802525" lon="134.125746"><ele>27.08</ele><time>2026-08-11T01:25:00Z</time></trkpt>
<trkpt lat="34.802426" lon="134.125696"><ele>26.73</ele><time>2026-08-11T01:25:04Z</time></trkpt>
<trkpt lat="34.802402" lon="134.125686"><ele>26.66</ele><time>2026-08-11T01:25:05Z</time></trkpt>
<trkpt lat="34.802379" lon="134.125676"><ele>26.59</ele><time>2026-08-11T01:25:06Z</time></trkpt>
<trkpt lat="34.80221" lon="134.125579"><ele>26.97</ele><time>2026-08-11T01:25:14Z</time></trkpt>
<trkpt lat="34.802149" lon="134.125546"><ele>26.9</ele><time>2026-08-11T01:25:17Z</time></trkpt>
<trkpt lat="34.802062" lon="134.125497"><ele>26.93</ele><time>2026-08-11T01:25:21Z</time></trkpt>
<trkpt lat="34.802023" lon="134.125458"><ele>26.56</ele><time>2026-08-11T01:25:23Z</time></trkpt>
<trkpt lat="34.801995" lon="134.1253"><ele>26.96</ele><time>2026-08-11T01:25:28Z</time></trkpt>
<trkpt lat="34.801992" lon="134.125269"><ele>27.35</ele><time>2026-08-11T01:25:29Z</time></trkpt>
<trkpt lat="34.80196" lon="134.125037"><ele>27.57</ele><time>2026-08-11T01:25:37Z</time></trkpt>
<trkpt lat="34.801943" lon="134.124852"><ele>25.64</ele><time>2026-08-11T01:25:44Z</time></trkpt>
<trkpt lat="34.801978" lon="134.124816"><ele>24.62</ele><time>2026-08-11T01:25:46Z</time></trkpt>
<trkpt lat="34.802021" lon="134.124784"><ele>23.9</ele><time>2026-08-11T01:25:48Z</time></trkpt>
<trkpt lat="34.802042" lon="134.124766"><ele>23.45</ele><time>2026-08-11T01:25:49Z</time></trkpt>
<trkpt lat="34.802093" lon="134.124714"><ele>22.69</ele><time>2026-08-11T01:25:51Z</time></trkpt>
<trkpt lat="34.802164" lon="134.124665"><ele>21.82</ele><time>2026-08-11T01:25:54Z</time></trkpt>
<trkpt lat="34.802231" lon="134.124644"><ele>21.18</ele><time>2026-08-11T01:25:57Z</time></trkpt>
<trkpt lat="34.802235" lon="134.124604"><ele>20.86</ele><time>2026-08-11T01:25:59Z</time></trkpt>
<trkpt lat="34.802205" lon="134.124562"><ele>20.71</ele><time>2026-08-11T01:26:01Z</time></trkpt>
<trkpt lat="34.802151" lon="134.124503"><ele>20.91</ele><time>2026-08-11T01:26:04Z</time></trkpt>
<trkpt lat="34.802081" lon="134.124412"><ele>20.47</ele><time>2026-08-11T01:26:08Z</time></trkpt>
<trkpt lat="34.802063" lon="134.12439"><ele>20.26</ele><time>2026-08-11T01:26:09Z</time></trkpt>
<trkpt lat="34.802025" lon="134.124348"><ele>20.08</ele><time>2026-08-11T01:26:11Z</time></trkpt>
<trkpt lat="34.801911" lon="134.124223"><ele>19.79</ele><time>2026-08-11T01:26:17Z</time></trkpt>
<trkpt lat="34.80185" lon="134.124166"><ele>19.48</ele><time>2026-08-11T01:26:20Z</time></trkpt>
<trkpt lat="34.801751" lon="134.124076"><ele>19.19</ele><time>2026-08-11T01:26:25Z</time></trkpt>
<trkpt lat="34.801707" lon="134.124042"><ele>19.4</ele><time>2026-08-11T01:26:27Z</time></trkpt>
<trkpt lat="34.80157" lon="134.123949"><ele>19.26</ele><time>2026-08-11T01:26:33Z</time></trkpt>
<trkpt lat="34.801506" lon="134.123894"><ele>18.58</ele><time>2026-08-11T01:26:36Z</time></trkpt>
<trkpt lat="34.801477" lon="134.123741"><ele>19.71</ele><time>2026-08-11T01:26:41Z</time></trkpt>
<trkpt lat="34.801503" lon="134.12365"><ele>18.7</ele><time>2026-08-11T01:26:44Z</time></trkpt>
<trkpt lat="34.801532" lon="134.123561"><ele>18.78</ele><time>2026-08-11T01:26:47Z</time></trkpt>
<trkpt lat="34.80161" lon="134.123357"><ele>18.39</ele><time>2026-08-11T01:26:54Z</time></trkpt>
<trkpt lat="34.801651" lon="134.123278"><ele>19.11</ele><time>2026-08-11T01:26:57Z</time></trkpt>
<trkpt lat="34.801735" lon="134.123121"><ele>19.25</ele><time>2026-08-11T01:27:03Z</time></trkpt>
<trkpt lat="34.801748" lon="134.123096"><ele>18.96</ele><time>2026-08-11T01:27:04Z</time></trkpt>
<trkpt lat="34.801842" lon="134.122875"><ele>19.13</ele><time>2026-08-11T01:27:12Z</time></trkpt>
<trkpt lat="34.801851" lon="134.122846"><ele>18.78</ele><time>2026-08-11T01:27:13Z</time></trkpt>
<trkpt lat="34.801927" lon="134.122669"><ele>19.4</ele><time>2026-08-11T01:27:21Z</time></trkpt>
<trkpt lat="34.801907" lon="134.122574"><ele>19.45</ele><time>2026-08-11T01:27:26Z</time></trkpt>
<trkpt lat="34.801889" lon="134.122555"><ele>19.49</ele><time>2026-08-11T01:27:27Z</time></trkpt>
<trkpt lat="34.801763" lon="134.122472"><ele>19.28</ele><time>2026-08-11T01:27:33Z</time></trkpt>
<trkpt lat="34.801746" lon="134.122452"><ele>19.3</ele><time>2026-08-11T01:27:34Z</time></trkpt>
<trkpt lat="34.801736" lon="134.122426"><ele>19.3</ele><time>2026-08-11T01:27:35Z</time></trkpt>
<trkpt lat="34.801728" lon="134.122371"><ele>19.47</ele><time>2026-08-11T01:27:38Z</time></trkpt>
<trkpt lat="34.801731" lon="134.122358"><ele>19.47</ele><time>2026-08-11T01:27:39Z</time></trkpt>
<trkpt lat="34.801734" lon="134.122304"><ele>19.49</ele><time>2026-08-11T01:27:45Z</time></trkpt>
<trkpt lat="34.801744" lon="134.122197"><ele>19.91</ele><time>2026-08-11T01:27:50Z</time></trkpt>
<trkpt lat="34.801745" lon="134.122172"><ele>19.91</ele><time>2026-08-11T01:27:51Z</time></trkpt>
<trkpt lat="34.801758" lon="134.122019"><ele>20.44</ele><time>2026-08-11T01:27:57Z</time></trkpt>
<trkpt lat="34.80176" lon="134.121995"><ele>20.44</ele><time>2026-08-11T01:27:58Z</time></trkpt>
<trkpt lat="34.80176" lon="134.121843"><ele>21.6</ele><time>2026-08-11T01:28:04Z</time></trkpt>
<trkpt lat="34.801759" lon="134.121817"><ele>21.79</ele><time>2026-08-11T01:28:05Z</time></trkpt>
<trkpt lat="34.801759" lon="134.121768"><ele>21.84</ele><time>2026-08-11T01:28:07Z</time></trkpt>
<trkpt lat="34.801766" lon="134.121692"><ele>22.67</ele><time>2026-08-11T01:28:10Z</time></trkpt>
<trkpt lat="34.801769" lon="134.121665"><ele>22.67</ele><time>2026-08-11T01:28:11Z</time></trkpt>
<trkpt lat="34.801767" lon="134.121641"><ele>22.78</ele><time>2026-08-11T01:28:12Z</time></trkpt>
<trkpt lat="34.801772" lon="134.121569"><ele>22.84</ele><time>2026-08-11T01:28:15Z</time></trkpt>
<trkpt lat="34.801778" lon="134.121357"><ele>23.39</ele><time>2026-08-11T01:28:23Z</time></trkpt>
<trkpt lat="34.801747" lon="134.121203"><ele>24.19</ele><time>2026-08-11T01:28:29Z</time></trkpt>
<trkpt lat="34.801744" lon="134.121173"><ele>24.3</ele><time>2026-08-11T01:28:30Z</time></trkpt>
<trkpt lat="34.801714" lon="134.120972"><ele>24.62</ele><time>2026-08-11T01:28:37Z</time></trkpt>
<trkpt lat="34.801709" lon="134.120942"><ele>24.69</ele><time>2026-08-11T01:28:38Z</time></trkpt>
<trkpt lat="34.801662" lon="134.120728"><ele>25.18</ele><time>2026-08-11T01:28:46Z</time></trkpt>
<trkpt lat="34.801654" lon="134.120679"><ele>25.27</ele><time>2026-08-11T01:28:48Z</time></trkpt>
<trkpt lat="34.801649" lon="134.120623"><ele>25.33</ele><time>2026-08-11T01:28:51Z</time></trkpt>
<trkpt lat="34.801643" lon="134.120605"><ele>25.19</ele><time>2026-08-11T01:28:53Z</time></trkpt>
<trkpt lat="34.801632" lon="134.12057"><ele>25.13</ele><time>2026-08-11T01:28:57Z</time></trkpt>
<trkpt lat="34.801634" lon="134.120564"><ele>25.13</ele><time>2026-08-11T01:28:59Z</time></trkpt>
<trkpt lat="34.801635" lon="134.120563"><ele>25.13</ele><time>2026-08-11T01:29:03Z</time></trkpt>
<trkpt lat="34.801655" lon="134.12054"><ele>25.3</ele><time>2026-08-11T01:29:08Z</time></trkpt>
<trkpt lat="34.80165" lon="134.120543"><ele>25.3</ele><time>2026-08-11T01:29:10Z</time></trkpt>
<trkpt lat="34.801637" lon="134.120563"><ele>25.13</ele><time>2026-08-11T01:29:13Z</time></trkpt>
<trkpt lat="34.801647" lon="134.120566"><ele>25.3</ele><time>2026-08-11T01:29:16Z</time></trkpt>
<trkpt lat="34.801647" lon="134.120565"><ele>25.3</ele><time>2026-08-11T01:29:24Z</time></trkpt>
<trkpt lat="34.801647" lon="134.120564"><ele>25.3</ele><time>2026-08-11T01:29:31Z</time></trkpt>
<trkpt lat="34.801674" lon="134.120522"><ele>25.61</ele><time>2026-08-11T01:29:36Z</time></trkpt>
<trkpt lat="34.80169" lon="134.120497"><ele>26.03</ele><time>2026-08-11T01:29:38Z</time></trkpt>
<trkpt lat="34.801701" lon="134.120483"><ele>26.27</ele><time>2026-08-11T01:29:39Z</time></trkpt>
<trkpt lat="34.801722" lon="134.120464"><ele>26.78</ele><time>2026-08-11T01:29:41Z</time></trkpt>
<trkpt lat="34.80175" lon="134.120437"><ele>26.91</ele><time>2026-08-11T01:29:44Z</time></trkpt>
<trkpt lat="34.80175" lon="134.120435"><ele>26.91</ele><time>2026-08-11T01:29:45Z</time></trkpt>
<trkpt lat="34.801751" lon="134.120432"><ele>26.91</ele><time>2026-08-11T01:29:46Z</time></trkpt>
<trkpt lat="34.801761" lon="134.12042"><ele>27.51</ele><time>2026-08-11T01:29:48Z</time></trkpt>
<trkpt lat="34.801778" lon="134.120383"><ele>28.47</ele><time>2026-08-11T01:29:50Z</time></trkpt>
<trkpt lat="34.80178" lon="134.120374"><ele>28.47</ele><time>2026-08-11T01:29:52Z</time></trkpt>
<trkpt lat="34.801785" lon="134.120371"><ele>28.47</ele><time>2026-08-11T01:29:54Z</time></trkpt>
<trkpt lat="34.801789" lon="134.120362"><ele>30.42</ele><time>2026-08-11T01:29:55Z</time></trkpt>
<trkpt lat="34.801859" lon="134.120314"><ele>32.68</ele><time>2026-08-11T01:30:03Z</time></trkpt>
<trkpt lat="34.80186" lon="134.12031"><ele>32.68</ele><time>2026-08-11T01:30:04Z</time></trkpt>
<trkpt lat="34.801865" lon="134.120294"><ele>32.68</ele><time>2026-08-11T01:30:07Z</time></trkpt>
<trkpt lat="34.801872" lon="134.120277"><ele>34.17</ele><time>2026-08-11T01:30:10Z</time></trkpt>
<trkpt lat="34.801872" lon="134.120265"><ele>34.17</ele><time>2026-08-11T01:30:11Z</time></trkpt>
<trkpt lat="34.80186" lon="134.120223"><ele>35.29</ele><time>2026-08-11T01:30:16Z</time></trkpt>
<trkpt lat="34.80186" lon="134.12022"><ele>35.29</ele><time>2026-08-11T01:30:17Z</time></trkpt>
<trkpt lat="34.801858" lon="134.120202"><ele>34.65</ele><time>2026-08-11T01:30:21Z</time></trkpt>
<trkpt lat="34.801871" lon="134.120181"><ele>36.49</ele><time>2026-08-11T01:30:24Z</time></trkpt>
<trkpt lat="34.80187" lon="134.12017"><ele>36.49</ele><time>2026-08-11T01:30:26Z</time></trkpt>
<trkpt lat="34.801867" lon="134.120128"><ele>37.76</ele><time>2026-08-11T01:30:31Z</time></trkpt>
<trkpt lat="34.801869" lon="134.120118"><ele>37.76</ele><time>2026-08-11T01:30:33Z</time></trkpt>
<trkpt lat="34.801871" lon="134.120096"><ele>38.85</ele><time>2026-08-11T01:30:37Z</time></trkpt>
<trkpt lat="34.801878" lon="134.120067"><ele>38.85</ele><time>2026-08-11T01:30:41Z</time></trkpt>
<trkpt lat="34.801877" lon="134.120044"><ele>40.5</ele><time>2026-08-11T01:30:46Z</time></trkpt>
<trkpt lat="34.801878" lon="134.120038"><ele>40.5</ele><time>2026-08-11T01:30:48Z</time></trkpt>
<trkpt lat="34.801886" lon="134.120034"><ele>40.5</ele><time>2026-08-11T01:30:49Z</time></trkpt>
<trkpt lat="34.801895" lon="134.120032"><ele>41.21</ele><time>2026-08-11T01:30:50Z</time></trkpt>
<trkpt lat="34.801918" lon="134.120027"><ele>41.21</ele><time>2026-08-11T01:30:54Z</time></trkpt>
<trkpt lat="34.801922" lon="134.12001"><ele>42.58</ele><time>2026-08-11T01:30:56Z</time></trkpt>
<trkpt lat="34.801949" lon="134.119986"><ele>43.33</ele><time>2026-08-11T01:31:01Z</time></trkpt>
<trkpt lat="34.801976" lon="134.119955"><ele>45.77</ele><time>2026-08-11T01:31:05Z</time></trkpt>
<trkpt lat="34.801992" lon="134.119942"><ele>45.77</ele><time>2026-08-11T01:31:09Z</time></trkpt>
<trkpt lat="34.801995" lon="134.119911"><ele>47.88</ele><time>2026-08-11T01:31:12Z</time></trkpt>
<trkpt lat="34.801985" lon="134.119903"><ele>47.88</ele><time>2026-08-11T01:31:14Z</time></trkpt>
<trkpt lat="34.801974" lon="134.119872"><ele>49.0</ele><time>2026-08-11T01:31:18Z</time></trkpt>
<trkpt lat="34.801975" lon="134.119861"><ele>49.0</ele><time>2026-08-11T01:31:19Z</time></trkpt>
<trkpt lat="34.802004" lon="134.119824"><ele>50.76</ele><time>2026-08-11T01:31:24Z</time></trkpt>
<trkpt lat="34.802013" lon="134.119818"><ele>50.76</ele><time>2026-08-11T01:31:25Z</time></trkpt>
<trkpt lat="34.802027" lon="134.119795"><ele>52.4</ele><time>2026-08-11T01:31:29Z</time></trkpt>
<trkpt lat="34.802041" lon="134.11976"><ele>54.32</ele><time>2026-08-11T01:31:34Z</time></trkpt>
<trkpt lat="34.802071" lon="134.11973"><ele>54.35</ele><time>2026-08-11T01:31:39Z</time></trkpt>
<trkpt lat="34.802082" lon="134.119715"><ele>56.06</ele><time>2026-08-11T01:31:43Z</time></trkpt>
<trkpt lat="34.80208" lon="134.119705"><ele>56.06</ele><time>2026-08-11T01:31:45Z</time></trkpt>
<trkpt lat="34.802083" lon="134.119679"><ele>56.06</ele><time>2026-08-11T01:31:50Z</time></trkpt>
<trkpt lat="34.802085" lon="134.119677"><ele>57.98</ele><time>2026-08-11T01:31:51Z</time></trkpt>
<trkpt lat="34.802082" lon="134.119662"><ele>57.98</ele><time>2026-08-11T01:31:54Z</time></trkpt>
<trkpt lat="34.802083" lon="134.119656"><ele>57.98</ele><time>2026-08-11T01:31:55Z</time></trkpt>
<trkpt lat="34.802073" lon="134.119637"><ele>57.98</ele><time>2026-08-11T01:31:58Z</time></trkpt>
<trkpt lat="34.802067" lon="134.119625"><ele>59.7</ele><time>2026-08-11T01:32:00Z</time></trkpt>
<trkpt lat="34.802057" lon="134.119607"><ele>59.7</ele><time>2026-08-11T01:32:04Z</time></trkpt>
<trkpt lat="34.80205" lon="134.119583"><ele>61.62</ele><time>2026-08-11T01:32:07Z</time></trkpt>
<trkpt lat="34.802056" lon="134.119566"><ele>61.62</ele><time>2026-08-11T01:32:09Z</time></trkpt>
<trkpt lat="34.802066" lon="134.119545"><ele>63.23</ele><time>2026-08-11T01:32:13Z</time></trkpt>
<trkpt lat="34.802074" lon="134.119527"><ele>63.49</ele><time>2026-08-11T01:32:15Z</time></trkpt>
<trkpt lat="34.802075" lon="134.119502"><ele>64.94</ele><time>2026-08-11T01:32:19Z</time></trkpt>
<trkpt lat="34.802066" lon="134.119472"><ele>64.79</ele><time>2026-08-11T01:32:24Z</time></trkpt>
<trkpt lat="34.802067" lon="134.119467"><ele>64.79</ele><time>2026-08-11T01:32:25Z</time></trkpt>
<trkpt lat="34.802075" lon="134.119447"><ele>66.5</ele><time>2026-08-11T01:32:29Z</time></trkpt>
<trkpt lat="34.80207" lon="134.119432"><ele>66.5</ele><time>2026-08-11T01:32:32Z</time></trkpt>
<trkpt lat="34.802068" lon="134.119426"><ele>66.52</ele><time>2026-08-11T01:32:33Z</time></trkpt>
<trkpt lat="34.80207" lon="134.119413"><ele>68.14</ele><time>2026-08-11T01:32:36Z</time></trkpt>
<trkpt lat="34.802072" lon="134.119394"><ele>68.14</ele><time>2026-08-11T01:32:40Z</time></trkpt>
<trkpt lat="34.802072" lon="134.11939"><ele>68.14</ele><time>2026-08-11T01:32:41Z</time></trkpt>
<trkpt lat="34.802061" lon="134.119361"><ele>69.97</ele><time>2026-08-11T01:32:46Z</time></trkpt>
<trkpt lat="34.802059" lon="134.119337"><ele>69.97</ele><time>2026-08-11T01:32:50Z</time></trkpt>
<trkpt lat="34.802059" lon="134.119333"><ele>71.68</ele><time>2026-08-11T01:32:51Z</time></trkpt>
<trkpt lat="34.802074" lon="134.119303"><ele>71.44</ele><time>2026-08-11T01:32:55Z</time></trkpt>
<trkpt lat="34.802082" lon="134.119291"><ele>73.18</ele><time>2026-08-11T01:32:57Z</time></trkpt>
<trkpt lat="34.802098" lon="134.119284"><ele>73.18</ele><time>2026-08-11T01:32:59Z</time></trkpt>
<trkpt lat="34.802105" lon="134.119277"><ele>72.23</ele><time>2026-08-11T01:33:00Z</time></trkpt>
<trkpt lat="34.80211" lon="134.119249"><ele>72.23</ele><time>2026-08-11T01:33:03Z</time></trkpt>
<trkpt lat="34.802112" lon="134.119241"><ele>73.78</ele><time>2026-08-11T01:33:04Z</time></trkpt>
<trkpt lat="34.802118" lon="134.119206"><ele>73.78</ele><time>2026-08-11T01:33:09Z</time></trkpt>
<trkpt lat="34.802109" lon="134.1192"><ele>75.29</ele><time>2026-08-11T01:33:12Z</time></trkpt>
<trkpt lat="34.802083" lon="134.119187"><ele>76.38</ele><time>2026-08-11T01:33:17Z</time></trkpt>
<trkpt lat="34.802079" lon="134.119182"><ele>76.38</ele><time>2026-08-11T01:33:19Z</time></trkpt>
<trkpt lat="34.80207" lon="134.119179"><ele>76.38</ele><time>2026-08-11T01:33:21Z</time></trkpt>
<trkpt lat="34.802038" lon="134.119161"><ele>78.89</ele><time>2026-08-11T01:33:25Z</time></trkpt>
<trkpt lat="34.802021" lon="134.119158"><ele>79.42</ele><time>2026-08-11T01:33:27Z</time></trkpt>
<trkpt lat="34.802006" lon="134.119122"><ele>79.42</ele><time>2026-08-11T01:33:31Z</time></trkpt>
<trkpt lat="34.802006" lon="134.119102"><ele>81.46</ele><time>2026-08-11T01:33:33Z</time></trkpt>
<trkpt lat="34.802007" lon="134.119092"><ele>81.46</ele><time>2026-08-11T01:33:35Z</time></trkpt>
<trkpt lat="34.801995" lon="134.119074"><ele>83.46</ele><time>2026-08-11T01:33:39Z</time></trkpt>
<trkpt lat="34.801996" lon="134.119057"><ele>83.46</ele><time>2026-08-11T01:33:43Z</time></trkpt>
<trkpt lat="34.801978" lon="134.119044"><ele>83.46</ele><time>2026-08-11T01:33:47Z</time></trkpt>
<trkpt lat="34.801965" lon="134.119008"><ele>85.58</ele><time>2026-08-11T01:33:52Z</time></trkpt>
<trkpt lat="34.801967" lon="134.119002"><ele>85.58</ele><time>2026-08-11T01:33:53Z</time></trkpt>
<trkpt lat="34.801963" lon="134.118968"><ele>87.65</ele><time>2026-08-11T01:33:57Z</time></trkpt>
<trkpt lat="34.80196" lon="134.118955"><ele>87.65</ele><time>2026-08-11T01:34:00Z</time></trkpt>
<trkpt lat="34.801958" lon="134.118948"><ele>87.65</ele><time>2026-08-11T01:34:01Z</time></trkpt>
<trkpt lat="34.80195" lon="134.118936"><ele>90.11</ele><time>2026-08-11T01:34:05Z</time></trkpt>
<trkpt lat="34.801943" lon="134.118927"><ele>90.11</ele><time>2026-08-11T01:34:08Z</time></trkpt>
<trkpt lat="34.801936" lon="134.118919"><ele>90.11</ele><time>2026-08-11T01:34:11Z</time></trkpt>
<trkpt lat="34.801932" lon="134.118903"><ele>92.58</ele><time>2026-08-11T01:34:15Z</time></trkpt>
<trkpt lat="34.80193" lon="134.118898"><ele>92.58</ele><time>2026-08-11T01:34:16Z</time></trkpt>
<trkpt lat="34.801931" lon="134.118889"><ele>92.58</ele><time>2026-08-11T01:34:18Z</time></trkpt>
<trkpt lat="34.801925" lon="134.118875"><ele>93.09</ele><time>2026-08-11T01:34:20Z</time></trkpt>
<trkpt lat="34.801924" lon="134.118861"><ele>95.49</ele><time>2026-08-11T01:34:22Z</time></trkpt>
<trkpt lat="34.801928" lon="134.118853"><ele>95.49</ele><time>2026-08-11T01:34:23Z</time></trkpt>
<trkpt lat="34.80193" lon="134.118845"><ele>94.76</ele><time>2026-08-11T01:34:24Z</time></trkpt>
<trkpt lat="34.801931" lon="134.118837"><ele>94.76</ele><time>2026-08-11T01:34:25Z</time></trkpt>
<trkpt lat="34.801928" lon="134.118831"><ele>95.49</ele><time>2026-08-11T01:34:29Z</time></trkpt>
<trkpt lat="34.801925" lon="134.118824"><ele>95.49</ele><time>2026-08-11T01:34:31Z</time></trkpt>
<trkpt lat="34.801924" lon="134.118818"><ele>97.62</ele><time>2026-08-11T01:34:33Z</time></trkpt>
<trkpt lat="34.801909" lon="134.118802"><ele>97.62</ele><time>2026-08-11T01:34:37Z</time></trkpt>
<trkpt lat="34.801909" lon="134.11878"><ele>97.62</ele><time>2026-08-11T01:34:39Z</time></trkpt>
<trkpt lat="34.801907" lon="134.118768"><ele>99.48</ele><time>2026-08-11T01:34:42Z</time></trkpt>
<trkpt lat="34.801901" lon="134.11875"><ele>99.48</ele><time>2026-08-11T01:34:44Z</time></trkpt>
<trkpt lat="34.801904" lon="134.118724"><ele>101.11</ele><time>2026-08-11T01:34:48Z</time></trkpt>
<trkpt lat="34.801899" lon="134.118715"><ele>101.11</ele><time>2026-08-11T01:34:50Z</time></trkpt>
<trkpt lat="34.801895" lon="134.118709"><ele>101.11</ele><time>2026-08-11T01:34:51Z</time></trkpt>
<trkpt lat="34.80187" lon="134.118673"><ele>102.83</ele><time>2026-08-11T01:34:57Z</time></trkpt>
<trkpt lat="34.80186" lon="134.118639"><ele>103.89</ele><time>2026-08-11T01:35:01Z</time></trkpt>
<trkpt lat="34.80186" lon="134.118605"><ele>103.89</ele><time>2026-08-11T01:35:04Z</time></trkpt>
<trkpt lat="34.801891" lon="134.118577"><ele>104.68</ele><time>2026-08-11T01:35:08Z</time></trkpt>
<trkpt lat="34.801898" lon="134.118554"><ele>105.65</ele><time>2026-08-11T01:35:11Z</time></trkpt>
<trkpt lat="34.801916" lon="134.118524"><ele>105.65</ele><time>2026-08-11T01:35:15Z</time></trkpt>
<trkpt lat="34.80193" lon="134.118492"><ele>105.8</ele><time>2026-08-11T01:35:18Z</time></trkpt>
<trkpt lat="34.801938" lon="134.118442"><ele>106.78</ele><time>2026-08-11T01:35:24Z</time></trkpt>
<trkpt lat="34.801941" lon="134.118418"><ele>107.86</ele><time>2026-08-11T01:35:26Z</time></trkpt>
<trkpt lat="34.801952" lon="134.118392"><ele>107.86</ele><time>2026-08-11T01:35:30Z</time></trkpt>
<trkpt lat="34.801971" lon="134.118357"><ele>109.51</ele><time>2026-08-11T01:35:34Z</time></trkpt>
<trkpt lat="34.80198" lon="134.118332"><ele>110.55</ele><time>2026-08-11T01:35:38Z</time></trkpt>
<trkpt lat="34.801979" lon="134.118284"><ele>111.89</ele><time>2026-08-11T01:35:43Z</time></trkpt>
<trkpt lat="34.801997" lon="134.118266"><ele>111.89</ele><time>2026-08-11T01:35:48Z</time></trkpt>
<trkpt lat="34.802014" lon="134.118266"><ele>112.22</ele><time>2026-08-11T01:35:52Z</time></trkpt>
<trkpt lat="34.802034" lon="134.118254"><ele>113.82</ele><time>2026-08-11T01:35:56Z</time></trkpt>
<trkpt lat="34.802037" lon="134.118247"><ele>113.77</ele><time>2026-08-11T01:35:57Z</time></trkpt>
<trkpt lat="34.802039" lon="134.118239"><ele>113.77</ele><time>2026-08-11T01:35:59Z</time></trkpt>
<trkpt lat="34.802038" lon="134.118211"><ele>115.84</ele><time>2026-08-11T01:36:02Z</time></trkpt>
<trkpt lat="34.802057" lon="134.118198"><ele>115.84</ele><time>2026-08-11T01:36:04Z</time></trkpt>
<trkpt lat="34.802069" lon="134.118177"><ele>115.84</ele><time>2026-08-11T01:36:07Z</time></trkpt>
<trkpt lat="34.802071" lon="134.118153"><ele>117.38</ele><time>2026-08-11T01:36:11Z</time></trkpt>
<trkpt lat="34.80207" lon="134.118137"><ele>117.38</ele><time>2026-08-11T01:36:13Z</time></trkpt>
<trkpt lat="34.80207" lon="134.118124"><ele>119.43</ele><time>2026-08-11T01:36:15Z</time></trkpt>
<trkpt lat="34.802083" lon="134.118105"><ele>119.43</ele><time>2026-08-11T01:36:19Z</time></trkpt>
<trkpt lat="34.802078" lon="134.118085"><ele>121.58</ele><time>2026-08-11T01:36:22Z</time></trkpt>
<trkpt lat="34.802077" lon="134.118062"><ele>121.58</ele><time>2026-08-11T01:36:26Z</time></trkpt>
<trkpt lat="34.802083" lon="134.118033"><ele>123.54</ele><time>2026-08-11T01:36:30Z</time></trkpt>
<trkpt lat="34.802097" lon="134.118026"><ele>123.54</ele><time>2026-08-11T01:36:32Z</time></trkpt>
<trkpt lat="34.802115" lon="134.118008"><ele>123.86</ele><time>2026-08-11T01:36:35Z</time></trkpt>
<trkpt lat="34.802145" lon="134.117975"><ele>125.82</ele><time>2026-08-11T01:36:41Z</time></trkpt>
<trkpt lat="34.802169" lon="134.117968"><ele>125.82</ele><time>2026-08-11T01:36:45Z</time></trkpt>
<trkpt lat="34.802183" lon="134.117944"><ele>127.83</ele><time>2026-08-11T01:36:50Z</time></trkpt>
<trkpt lat="34.802183" lon="134.117939"><ele>127.83</ele><time>2026-08-11T01:36:51Z</time></trkpt>
<trkpt lat="34.802183" lon="134.117931"><ele>127.83</ele><time>2026-08-11T01:36:54Z</time></trkpt>
<trkpt lat="34.802186" lon="134.117908"><ele>130.3</ele><time>2026-08-11T01:36:57Z</time></trkpt>
<trkpt lat="34.802188" lon="134.117898"><ele>130.3</ele><time>2026-08-11T01:36:59Z</time></trkpt>
<trkpt lat="34.802198" lon="134.117882"><ele>130.3</ele><time>2026-08-11T01:37:02Z</time></trkpt>
<trkpt lat="34.802207" lon="134.11785"><ele>132.92</ele><time>2026-08-11T01:37:06Z</time></trkpt>
<trkpt lat="34.802207" lon="134.117847"><ele>132.92</ele><time>2026-08-11T01:37:07Z</time></trkpt>
<trkpt lat="34.802215" lon="134.117834"><ele>132.44</ele><time>2026-08-11T01:37:10Z</time></trkpt>
<trkpt lat="34.802222" lon="134.117822"><ele>134.73</ele><time>2026-08-11T01:37:13Z</time></trkpt>
<trkpt lat="34.802233" lon="134.117814"><ele>134.73</ele><time>2026-08-11T01:37:15Z</time></trkpt>
<trkpt lat="34.802245" lon="134.117803"><ele>134.73</ele><time>2026-08-11T01:37:19Z</time></trkpt>
<trkpt lat="34.80226" lon="134.11778"><ele>137.09</ele><time>2026-08-11T01:37:23Z</time></trkpt>
<trkpt lat="34.802265" lon="134.117767"><ele>137.09</ele><time>2026-08-11T01:37:25Z</time></trkpt>
<trkpt lat="34.802264" lon="134.117763"><ele>137.09</ele><time>2026-08-11T01:37:26Z</time></trkpt>
<trkpt lat="34.802284" lon="134.117752"><ele>136.75</ele><time>2026-08-11T01:37:32Z</time></trkpt>
<trkpt lat="34.802286" lon="134.117749"><ele>136.75</ele><time>2026-08-11T01:37:33Z</time></trkpt>
<trkpt lat="34.802279" lon="134.117741"><ele>140.62</ele><time>2026-08-11T01:37:37Z</time></trkpt>
<trkpt lat="34.802285" lon="134.117726"><ele>139.63</ele><time>2026-08-11T01:37:40Z</time></trkpt>
<trkpt lat="34.802284" lon="134.117724"><ele>139.63</ele><time>2026-08-11T01:37:41Z</time></trkpt>
<trkpt lat="34.802282" lon="134.117717"><ele>139.63</ele><time>2026-08-11T01:37:46Z</time></trkpt>
<trkpt lat="34.802263" lon="134.117715"><ele>140.62</ele><time>2026-08-11T01:37:52Z</time></trkpt>
<trkpt lat="34.802257" lon="134.117713"><ele>140.62</ele><time>2026-08-11T01:37:55Z</time></trkpt>
<trkpt lat="34.802251" lon="134.117709"><ele>140.62</ele><time>2026-08-11T01:37:56Z</time></trkpt>
<trkpt lat="34.802229" lon="134.117699"><ele>144.55</ele><time>2026-08-11T01:38:01Z</time></trkpt>
<trkpt lat="34.80222" lon="134.117689"><ele>144.55</ele><time>2026-08-11T01:38:03Z</time></trkpt>
<trkpt lat="34.802208" lon="134.117675"><ele>144.71</ele><time>2026-08-11T01:38:05Z</time></trkpt>
<trkpt lat="34.802196" lon="134.117662"><ele>144.71</ele><time>2026-08-11T01:38:09Z</time></trkpt>
<trkpt lat="34.80219" lon="134.117654"><ele>146.86</ele><time>2026-08-11T01:38:11Z</time></trkpt>
<trkpt lat="34.8022" lon="134.117609"><ele>148.15</ele><time>2026-08-11T01:38:17Z</time></trkpt>
<trkpt lat="34.802218" lon="134.117574"><ele>150.21</ele><time>2026-08-11T01:38:22Z</time></trkpt>
<trkpt lat="34.802238" lon="134.117548"><ele>150.21</ele><time>2026-08-11T01:38:26Z</time></trkpt>
<trkpt lat="34.802242" lon="134.117546"><ele>150.21</ele><time>2026-08-11T01:38:27Z</time></trkpt>
<trkpt lat="34.802248" lon="134.11754"><ele>150.97</ele><time>2026-08-11T01:38:28Z</time></trkpt>
<trkpt lat="34.802266" lon="134.117526"><ele>152.45</ele><time>2026-08-11T01:38:30Z</time></trkpt>
<trkpt lat="34.802304" lon="134.117492"><ele>153.42</ele><time>2026-08-11T01:38:37Z</time></trkpt>
<trkpt lat="34.802302" lon="134.117488"><ele>154.47</ele><time>2026-08-11T01:38:38Z</time></trkpt>
<trkpt lat="34.802301" lon="134.117472"><ele>154.47</ele><time>2026-08-11T01:38:41Z</time></trkpt>
<trkpt lat="34.802318" lon="134.11745"><ele>155.34</ele><time>2026-08-11T01:38:46Z</time></trkpt>
<trkpt lat="34.802332" lon="134.117434"><ele>156.92</ele><time>2026-08-11T01:38:50Z</time></trkpt>
<trkpt lat="34.802349" lon="134.117404"><ele>156.92</ele><time>2026-08-11T01:38:56Z</time></trkpt>
<trkpt lat="34.802344" lon="134.117395"><ele>158.54</ele><time>2026-08-11T01:38:57Z</time></trkpt>
<trkpt lat="34.802323" lon="134.117359"><ele>160.1</ele><time>2026-08-11T01:39:03Z</time></trkpt>
<trkpt lat="34.802317" lon="134.117324"><ele>160.1</ele><time>2026-08-11T01:39:07Z</time></trkpt>
<trkpt lat="34.802316" lon="134.117318"><ele>159.22</ele><time>2026-08-11T01:39:08Z</time></trkpt>
<trkpt lat="34.802304" lon="134.11726"><ele>161.62</ele><time>2026-08-11T01:39:14Z</time></trkpt>
<trkpt lat="34.802307" lon="134.117253"><ele>161.62</ele><time>2026-08-11T01:39:15Z</time></trkpt>
<trkpt lat="34.802338" lon="134.117241"><ele>162.83</ele><time>2026-08-11T01:39:20Z</time></trkpt>
<trkpt lat="34.802357" lon="134.117233"><ele>163.89</ele><time>2026-08-11T01:39:23Z</time></trkpt>
<trkpt lat="34.80236" lon="134.117227"><ele>164.7</ele><time>2026-08-11T01:39:25Z</time></trkpt>
<trkpt lat="34.802361" lon="134.117194"><ele>164.7</ele><time>2026-08-11T01:39:29Z</time></trkpt>
<trkpt lat="34.802362" lon="134.117181"><ele>165.61</ele><time>2026-08-11T01:39:30Z</time></trkpt>
<trkpt lat="34.802371" lon="134.117156"><ele>165.61</ele><time>2026-08-11T01:39:33Z</time></trkpt>
<trkpt lat="34.802371" lon="134.117127"><ele>166.71</ele><time>2026-08-11T01:39:37Z</time></trkpt>
<trkpt lat="34.80237" lon="134.117112"><ele>166.71</ele><time>2026-08-11T01:39:39Z</time></trkpt>
<trkpt lat="34.802375" lon="134.117086"><ele>167.97</ele><time>2026-08-11T01:39:43Z</time></trkpt>
<trkpt lat="34.802376" lon="134.117077"><ele>167.97</ele><time>2026-08-11T01:39:44Z</time></trkpt>
<trkpt lat="34.802403" lon="134.117066"><ele>168.87</ele><time>2026-08-11T01:39:48Z</time></trkpt>
<trkpt lat="34.802408" lon="134.117064"><ele>168.87</ele><time>2026-08-11T01:39:49Z</time></trkpt>
<trkpt lat="34.802427" lon="134.117058"><ele>170.79</ele><time>2026-08-11T01:39:53Z</time></trkpt>
<trkpt lat="34.802445" lon="134.117048"><ele>170.79</ele><time>2026-08-11T01:39:56Z</time></trkpt>
<trkpt lat="34.802447" lon="134.117027"><ele>170.79</ele><time>2026-08-11T01:39:59Z</time></trkpt>
<trkpt lat="34.80244" lon="134.117006"><ele>172.46</ele><time>2026-08-11T01:40:03Z</time></trkpt>
<trkpt lat="34.802439" lon="134.117"><ele>172.46</ele><time>2026-08-11T01:40:04Z</time></trkpt>
<trkpt lat="34.802423" lon="134.11698"><ele>172.46</ele><time>2026-08-11T01:40:08Z</time></trkpt>
<trkpt lat="34.802413" lon="134.116968"><ele>173.37</ele><time>2026-08-11T01:40:10Z</time></trkpt>
<trkpt lat="34.8024" lon="134.116946"><ele>173.37</ele><time>2026-08-11T01:40:13Z</time></trkpt>
<trkpt lat="34.802406" lon="134.116914"><ele>174.79</ele><time>2026-08-11T01:40:16Z</time></trkpt>
<trkpt lat="34.802419" lon="134.116896"><ele>174.79</ele><time>2026-08-11T01:40:18Z</time></trkpt>
<trkpt lat="34.80243" lon="134.116868"><ele>177.76</ele><time>2026-08-11T01:40:23Z</time></trkpt>
<trkpt lat="34.802437" lon="134.116855"><ele>177.76</ele><time>2026-08-11T01:40:25Z</time></trkpt>
<trkpt lat="34.802448" lon="134.116843"><ele>179.47</ele><time>2026-08-11T01:40:28Z</time></trkpt>
<trkpt lat="34.802458" lon="134.116835"><ele>179.72</ele><time>2026-08-11T01:40:31Z</time></trkpt>
<trkpt lat="34.802462" lon="134.116838"><ele>179.72</ele><time>2026-08-11T01:40:32Z</time></trkpt>
<trkpt lat="34.802476" lon="134.116816"><ele>179.72</ele><time>2026-08-11T01:40:36Z</time></trkpt>
<trkpt lat="34.802474" lon="134.116799"><ele>181.45</ele><time>2026-08-11T01:40:39Z</time></trkpt>
<trkpt lat="34.802473" lon="134.11679"><ele>181.45</ele><time>2026-08-11T01:40:41Z</time></trkpt>
<trkpt lat="34.802469" lon="134.116775"><ele>181.45</ele><time>2026-08-11T01:40:45Z</time></trkpt>
<trkpt lat="34.802463" lon="134.116772"><ele>181.45</ele><time>2026-08-11T01:40:46Z</time></trkpt>
<trkpt lat="34.802458" lon="134.11677"><ele>181.45</ele><time>2026-08-11T01:40:47Z</time></trkpt>
<trkpt lat="34.802449" lon="134.116762"><ele>181.4</ele><time>2026-08-11T01:40:49Z</time></trkpt>
<trkpt lat="34.802436" lon="134.116737"><ele>183.56</ele><time>2026-08-11T01:40:53Z</time></trkpt>
<trkpt lat="34.802435" lon="134.116718"><ele>183.56</ele><time>2026-08-11T01:40:55Z</time></trkpt>
<trkpt lat="34.80246" lon="134.116699"><ele>186.31</ele><time>2026-08-11T01:40:59Z</time></trkpt>
<trkpt lat="34.802465" lon="134.116691"><ele>186.31</ele><time>2026-08-11T01:41:04Z</time></trkpt>
<trkpt lat="34.802463" lon="134.116679"><ele>186.31</ele><time>2026-08-11T01:41:06Z</time></trkpt>
<trkpt lat="34.802466" lon="134.116667"><ele>188.03</ele><time>2026-08-11T01:41:08Z</time></trkpt>
<trkpt lat="34.802492" lon="134.116643"><ele>188.03</ele><time>2026-08-11T01:41:13Z</time></trkpt>
<trkpt lat="34.802498" lon="134.116624"><ele>188.81</ele><time>2026-08-11T01:41:19Z</time></trkpt>
<trkpt lat="34.802495" lon="134.11662"><ele>188.81</ele><time>2026-08-11T01:41:20Z</time></trkpt>
<trkpt lat="34.802482" lon="134.116614"><ele>189.61</ele><time>2026-08-11T01:41:23Z</time></trkpt>
<trkpt lat="34.802457" lon="134.116601"><ele>189.96</ele><time>2026-08-11T01:41:27Z</time></trkpt>
<trkpt lat="34.802453" lon="134.116601"><ele>189.96</ele><time>2026-08-11T01:41:28Z</time></trkpt>
<trkpt lat="34.802431" lon="134.116554"><ele>192.09</ele><time>2026-08-11T01:41:34Z</time></trkpt>
<trkpt lat="34.802432" lon="134.116548"><ele>192.09</ele><time>2026-08-11T01:41:35Z</time></trkpt>
<trkpt lat="34.802437" lon="134.116537"><ele>194.2</ele><time>2026-08-11T01:41:38Z</time></trkpt>
<trkpt lat="34.802439" lon="134.11653"><ele>194.2</ele><time>2026-08-11T01:41:41Z</time></trkpt>
<trkpt lat="34.802448" lon="134.116525"><ele>194.2</ele><time>2026-08-11T01:41:43Z</time></trkpt>
<trkpt lat="34.802456" lon="134.116506"><ele>194.2</ele><time>2026-08-11T01:41:47Z</time></trkpt>
<trkpt lat="34.80245" lon="134.1165"><ele>196.36</ele><time>2026-08-11T01:41:48Z</time></trkpt>
<trkpt lat="34.802437" lon="134.116493"><ele>196.36</ele><time>2026-08-11T01:41:51Z</time></trkpt>
<trkpt lat="34.802426" lon="134.116491"><ele>196.36</ele><time>2026-08-11T01:41:53Z</time></trkpt>
<trkpt lat="34.80242" lon="134.116485"><ele>196.08</ele><time>2026-08-11T01:41:54Z</time></trkpt>
<trkpt lat="34.802418" lon="134.116454"><ele>198.79</ele><time>2026-08-11T01:41:58Z</time></trkpt>
<trkpt lat="34.802415" lon="134.116445"><ele>198.79</ele><time>2026-08-11T01:42:01Z</time></trkpt>
<trkpt lat="34.802415" lon="134.116437"><ele>198.79</ele><time>2026-08-11T01:42:02Z</time></trkpt>
<trkpt lat="34.802416" lon="134.116423"><ele>198.79</ele><time>2026-08-11T01:42:05Z</time></trkpt>
<trkpt lat="34.802415" lon="134.116412"><ele>201.41</ele><time>2026-08-11T01:42:09Z</time></trkpt>
<trkpt lat="34.802413" lon="134.116379"><ele>201.41</ele><time>2026-08-11T01:42:15Z</time></trkpt>
<trkpt lat="34.802411" lon="134.116365"><ele>203.72</ele><time>2026-08-11T01:42:17Z</time></trkpt>
<trkpt lat="34.802412" lon="134.116349"><ele>203.72</ele><time>2026-08-11T01:42:20Z</time></trkpt>
<trkpt lat="34.802429" lon="134.11634"><ele>203.69</ele><time>2026-08-11T01:42:25Z</time></trkpt>
<trkpt lat="34.802451" lon="134.116321"><ele>205.94</ele><time>2026-08-11T01:42:30Z</time></trkpt>
<trkpt lat="34.802453" lon="134.116314"><ele>205.94</ele><time>2026-08-11T01:42:32Z</time></trkpt>
<trkpt lat="34.802457" lon="134.116304"><ele>205.94</ele><time>2026-08-11T01:42:34Z</time></trkpt>
<trkpt lat="34.802424" lon="134.116283"><ele>208.32</ele><time>2026-08-11T01:42:40Z</time></trkpt>
<trkpt lat="34.802425" lon="134.116256"><ele>208.32</ele><time>2026-08-11T01:42:46Z</time></trkpt>
<trkpt lat="34.802402" lon="134.116218"><ele>210.6</ele><time>2026-08-11T01:42:52Z</time></trkpt>
<trkpt lat="34.802404" lon="134.116212"><ele>210.6</ele><time>2026-08-11T01:42:53Z</time></trkpt>
<trkpt lat="34.802403" lon="134.116196"><ele>212.99</ele><time>2026-08-11T01:42:56Z</time></trkpt>
<trkpt lat="34.802389" lon="134.116174"><ele>212.99</ele><time>2026-08-11T01:43:00Z</time></trkpt>
<trkpt lat="34.802397" lon="134.116161"><ele>212.99</ele><time>2026-08-11T01:43:05Z</time></trkpt>
<trkpt lat="34.802395" lon="134.116153"><ele>215.3</ele><time>2026-08-11T01:43:06Z</time></trkpt>
<trkpt lat="34.802388" lon="134.116124"><ele>215.3</ele><time>2026-08-11T01:43:10Z</time></trkpt>
<trkpt lat="34.802397" lon="134.116093"><ele>217.22</ele><time>2026-08-11T01:43:15Z</time></trkpt>
<trkpt lat="34.802397" lon="134.116088"><ele>217.22</ele><time>2026-08-11T01:43:17Z</time></trkpt>
<trkpt lat="34.802411" lon="134.116072"><ele>219.35</ele><time>2026-08-11T01:43:21Z</time></trkpt>
<trkpt lat="34.802409" lon="134.116063"><ele>219.35</ele><time>2026-08-11T01:43:24Z</time></trkpt>
<trkpt lat="34.802406" lon="134.116061"><ele>219.35</ele><time>2026-08-11T01:43:25Z</time></trkpt>
<trkpt lat="34.802387" lon="134.116036"><ele>219.35</ele><time>2026-08-11T01:43:32Z</time></trkpt>
<trkpt lat="34.802386" lon="134.116027"><ele>219.79</ele><time>2026-08-11T01:43:33Z</time></trkpt>
<trkpt lat="34.802388" lon="134.116004"><ele>220.97</ele><time>2026-08-11T01:43:37Z</time></trkpt>
<trkpt lat="34.802392" lon="134.11596"><ele>221.88</ele><time>2026-08-11T01:43:42Z</time></trkpt>
<trkpt lat="34.802396" lon="134.115948"><ele>221.88</ele><time>2026-08-11T01:43:43Z</time></trkpt>
<trkpt lat="34.802409" lon="134.115914"><ele>222.75</ele><time>2026-08-11T01:43:49Z</time></trkpt>
<trkpt lat="34.802413" lon="134.115906"><ele>222.75</ele><time>2026-08-11T01:43:51Z</time></trkpt>
<trkpt lat="34.802418" lon="134.115885"><ele>223.74</ele><time>2026-08-11T01:43:54Z</time></trkpt>
<trkpt lat="34.802427" lon="134.115858"><ele>225.47</ele><time>2026-08-11T01:43:57Z</time></trkpt>
<trkpt lat="34.802437" lon="134.115824"><ele>225.47</ele><time>2026-08-11T01:44:02Z</time></trkpt>
<trkpt lat="34.802443" lon="134.115791"><ele>226.42</ele><time>2026-08-11T01:44:07Z</time></trkpt>
<trkpt lat="34.802459" lon="134.115747"><ele>228.42</ele><time>2026-08-11T01:44:13Z</time></trkpt>
<trkpt lat="34.802467" lon="134.11573"><ele>228.42</ele><time>2026-08-11T01:44:16Z</time></trkpt>
<trkpt lat="34.802476" lon="134.115718"><ele>229.54</ele><time>2026-08-11T01:44:18Z</time></trkpt>
<trkpt lat="34.802478" lon="134.115699"><ele>229.54</ele><time>2026-08-11T01:44:22Z</time></trkpt>
<trkpt lat="34.802478" lon="134.115689"><ele>229.54</ele><time>2026-08-11T01:44:24Z</time></trkpt>
<trkpt lat="34.802479" lon="134.115675"><ele>230.53</ele><time>2026-08-11T01:44:27Z</time></trkpt>
<trkpt lat="34.802495" lon="134.115646"><ele>231.84</ele><time>2026-08-11T01:44:31Z</time></trkpt>
<trkpt lat="34.802502" lon="134.115627"><ele>232.69</ele><time>2026-08-11T01:44:33Z</time></trkpt>
<trkpt lat="34.80252" lon="134.115613"><ele>232.69</ele><time>2026-08-11T01:44:36Z</time></trkpt>
<trkpt lat="34.802555" lon="134.115583"><ele>234.41</ele><time>2026-08-11T01:44:41Z</time></trkpt>
<trkpt lat="34.80259" lon="134.115551"><ele>235.58</ele><time>2026-08-11T01:44:46Z</time></trkpt>
<trkpt lat="34.802607" lon="134.115526"><ele>236.9</ele><time>2026-08-11T01:44:50Z</time></trkpt>
<trkpt lat="34.802613" lon="134.115523"><ele>236.9</ele><time>2026-08-11T01:44:51Z</time></trkpt>
<trkpt lat="34.802635" lon="134.115518"><ele>237.45</ele><time>2026-08-11T01:44:55Z</time></trkpt>
<trkpt lat="34.802648" lon="134.115495"><ele>237.76</ele><time>2026-08-11T01:44:58Z</time></trkpt>
<trkpt lat="34.802711" lon="134.115478"><ele>237.54</ele><time>2026-08-11T01:45:05Z</time></trkpt>
<trkpt lat="34.802759" lon="134.11546"><ele>239.41</ele><time>2026-08-11T01:45:11Z</time></trkpt>
<trkpt lat="34.802785" lon="134.115432"><ele>237.68</ele><time>2026-08-11T01:45:17Z</time></trkpt>
<trkpt lat="34.802802" lon="134.115421"><ele>240.84</ele><time>2026-08-11T01:45:21Z</time></trkpt>
<trkpt lat="34.802826" lon="134.115403"><ele>239.73</ele><time>2026-08-11T01:45:26Z</time></trkpt>
<trkpt lat="34.802858" lon="134.115388"><ele>238.72</ele><time>2026-08-11T01:45:30Z</time></trkpt>
<trkpt lat="34.802891" lon="134.115374"><ele>240.55</ele><time>2026-08-11T01:45:34Z</time></trkpt>
<trkpt lat="34.802898" lon="134.115352"><ele>240.55</ele><time>2026-08-11T01:45:36Z</time></trkpt>
<trkpt lat="34.802909" lon="134.115342"><ele>241.65</ele><time>2026-08-11T01:45:39Z</time></trkpt>
<trkpt lat="34.802909" lon="134.115337"><ele>241.65</ele><time>2026-08-11T01:45:40Z</time></trkpt>
<trkpt lat="34.802904" lon="134.115319"><ele>241.65</ele><time>2026-08-11T01:45:47Z</time></trkpt>
<trkpt lat="34.802905" lon="134.11532"><ele>241.65</ele><time>2026-08-11T01:45:54Z</time></trkpt>
<trkpt lat="34.802905" lon="134.11532"><ele>241.65</ele><time>2026-08-11T01:45:56Z</time></trkpt>
<trkpt lat="34.802905" lon="134.11532"><ele>241.65</ele><time>2026-08-11T01:46:03Z</time></trkpt>
<trkpt lat="34.802905" lon="134.11532"><ele>241.65</ele><time>2026-08-11T01:46:09Z</time></trkpt>
<trkpt lat="34.8029" lon="134.115319"><ele>241.65</ele><time>2026-08-11T01:46:20Z</time></trkpt>
<trkpt lat="34.802911" lon="134.115296"><ele>241.4</ele><time>2026-08-11T01:46:31Z</time></trkpt>
<trkpt lat="34.802945" lon="134.115269"><ele>242.45</ele><time>2026-08-11T01:46:34Z</time></trkpt>
<trkpt lat="34.802988" lon="134.115235"><ele>244.69</ele><time>2026-08-11T01:46:39Z</time></trkpt>
<trkpt lat="34.803001" lon="134.115232"><ele>244.69</ele><time>2026-08-11T01:46:40Z</time></trkpt>
<trkpt lat="34.803024" lon="134.115226"><ele>245.08</ele><time>2026-08-11T01:46:42Z</time></trkpt>
<trkpt lat="34.803039" lon="134.115193"><ele>246.12</ele><time>2026-08-11T01:46:46Z</time></trkpt>
<trkpt lat="34.803045" lon="134.115179"><ele>246.12</ele><time>2026-08-11T01:46:47Z</time></trkpt>
<trkpt lat="34.803054" lon="134.115168"><ele>246.08</ele><time>2026-08-11T01:46:48Z</time></trkpt>
<trkpt lat="34.803096" lon="134.115106"><ele>246.68</ele><time>2026-08-11T01:46:53Z</time></trkpt>
<trkpt lat="34.803103" lon="134.115094"><ele>246.68</ele><time>2026-08-11T01:46:54Z</time></trkpt>
<trkpt lat="34.803113" lon="134.11509"><ele>246.68</ele><time>2026-08-11T01:46:55Z</time></trkpt>
<trkpt lat="34.803158" lon="134.115064"><ele>246.4</ele><time>2026-08-11T01:46:58Z</time></trkpt>
<trkpt lat="34.803191" lon="134.115041"><ele>245.96</ele><time>2026-08-11T01:47:00Z</time></trkpt>
<trkpt lat="34.803315" lon="134.114973"><ele>244.65</ele><time>2026-08-11T01:47:07Z</time></trkpt>
<trkpt lat="34.803373" lon="134.114969"><ele>244.64</ele><time>2026-08-11T01:47:10Z</time></trkpt>
<trkpt lat="34.803413" lon="134.114967"><ele>245.4</ele><time>2026-08-11T01:47:13Z</time></trkpt>
<trkpt lat="34.803455" lon="134.114959"><ele>246.15</ele><time>2026-08-11T01:47:18Z</time></trkpt>
<trkpt lat="34.803499" lon="134.114967"><ele>246.97</ele><time>2026-08-11T01:47:22Z</time></trkpt>
<trkpt lat="34.803526" lon="134.114977"><ele>247.8</ele><time>2026-08-11T01:47:25Z</time></trkpt>
<trkpt lat="34.803569" lon="134.114978"><ele>248.48</ele><time>2026-08-11T01:47:27Z</time></trkpt>
<trkpt lat="34.803605" lon="134.115011"><ele>249.03</ele><time>2026-08-11T01:47:32Z</time></trkpt>
<trkpt lat="34.803616" lon="134.115021"><ele>249.03</ele><time>2026-08-11T01:47:33Z</time></trkpt>
<trkpt lat="34.803652" lon="134.115078"><ele>249.17</ele><time>2026-08-11T01:47:38Z</time></trkpt>
<trkpt lat="34.803669" lon="134.115091"><ele>249.08</ele><time>2026-08-11T01:47:40Z</time></trkpt>
<trkpt lat="34.803707" lon="134.115112"><ele>250.72</ele><time>2026-08-11T01:47:44Z</time></trkpt>
<trkpt lat="34.803721" lon="134.115131"><ele>249.72</ele><time>2026-08-11T01:47:46Z</time></trkpt>
<trkpt lat="34.803732" lon="134.115151"><ele>251.72</ele><time>2026-08-11T01:47:48Z</time></trkpt>
<trkpt lat="34.803757" lon="134.115164"><ele>251.72</ele><time>2026-08-11T01:47:52Z</time></trkpt>
<trkpt lat="34.803775" lon="134.115165"><ele>253.28</ele><time>2026-08-11T01:47:54Z</time></trkpt>
<trkpt lat="34.80379" lon="134.115163"><ele>253.28</ele><time>2026-08-11T01:47:57Z</time></trkpt>
<trkpt lat="34.803817" lon="134.115183"><ele>254.3</ele><time>2026-08-11T01:48:01Z</time></trkpt>
<trkpt lat="34.803863" lon="134.11522"><ele>254.6</ele><time>2026-08-11T01:48:07Z</time></trkpt>
<trkpt lat="34.803874" lon="134.11523"><ele>255.66</ele><time>2026-08-11T01:48:09Z</time></trkpt>
<trkpt lat="34.803893" lon="134.115221"><ele>255.66</ele><time>2026-08-11T01:48:12Z</time></trkpt>
<trkpt lat="34.803917" lon="134.115214"><ele>257.11</ele><time>2026-08-11T01:48:15Z</time></trkpt>
<trkpt lat="34.80402" lon="134.115189"><ele>256.36</ele><time>2026-08-11T01:48:23Z</time></trkpt>
<trkpt lat="34.804047" lon="134.115187"><ele>255.2</ele><time>2026-08-11T01:48:25Z</time></trkpt>
<trkpt lat="34.804088" lon="134.115205"><ele>253.96</ele><time>2026-08-11T01:48:28Z</time></trkpt>
<trkpt lat="34.804103" lon="134.115202"><ele>253.96</ele><time>2026-08-11T01:48:29Z</time></trkpt>
<trkpt lat="34.804131" lon="134.115195"><ele>252.62</ele><time>2026-08-11T01:48:31Z</time></trkpt>
<trkpt lat="34.804155" lon="134.115181"><ele>251.08</ele><time>2026-08-11T01:48:33Z</time></trkpt>
<trkpt lat="34.804175" lon="134.11517"><ele>251.43</ele><time>2026-08-11T01:48:35Z</time></trkpt>
<trkpt lat="34.804188" lon="134.115163"><ele>249.65</ele><time>2026-08-11T01:48:36Z</time></trkpt>
<trkpt lat="34.804202" lon="134.115157"><ele>249.65</ele><time>2026-08-11T01:48:37Z</time></trkpt>
<trkpt lat="34.804217" lon="134.115151"><ele>249.65</ele><time>2026-08-11T01:48:38Z</time></trkpt>
<trkpt lat="34.804233" lon="134.115148"><ele>247.71</ele><time>2026-08-11T01:48:39Z</time></trkpt>
<trkpt lat="34.804258" lon="134.115143"><ele>245.84</ele><time>2026-08-11T01:48:41Z</time></trkpt>
<trkpt lat="34.804285" lon="134.115135"><ele>245.84</ele><time>2026-08-11T01:48:43Z</time></trkpt>
<trkpt lat="34.804314" lon="134.115112"><ele>244.23</ele><time>2026-08-11T01:48:45Z</time></trkpt>
<trkpt lat="34.804328" lon="134.115103"><ele>242.48</ele><time>2026-08-11T01:48:46Z</time></trkpt>
<trkpt lat="34.804347" lon="134.115098"><ele>242.48</ele><time>2026-08-11T01:48:47Z</time></trkpt>
<trkpt lat="34.804386" lon="134.115105"><ele>240.94</ele><time>2026-08-11T01:48:49Z</time></trkpt>
<trkpt lat="34.804449" lon="134.115117"><ele>239.04</ele><time>2026-08-11T01:48:52Z</time></trkpt>
<trkpt lat="34.804508" lon="134.115154"><ele>238.74</ele><time>2026-08-11T01:48:56Z</time></trkpt>
<trkpt lat="34.804514" lon="134.115156"><ele>238.74</ele><time>2026-08-11T01:48:57Z</time></trkpt>
<trkpt lat="34.804532" lon="134.115156"><ele>238.74</ele><time>2026-08-11T01:49:02Z</time></trkpt>
<trkpt lat="34.804535" lon="134.115158"><ele>238.74</ele><time>2026-08-11T01:49:03Z</time></trkpt>
<trkpt lat="34.804555" lon="134.115163"><ele>239.75</ele><time>2026-08-11T01:49:05Z</time></trkpt>
<trkpt lat="34.804581" lon="134.115166"><ele>240.83</ele><time>2026-08-11T01:49:08Z</time></trkpt>
<trkpt lat="34.804595" lon="134.115168"><ele>240.83</ele><time>2026-08-11T01:49:09Z</time></trkpt>
<trkpt lat="34.804635" lon="134.115178"><ele>241.64</ele><time>2026-08-11T01:49:13Z</time></trkpt>
<trkpt lat="34.804656" lon="134.115182"><ele>242.87</ele><time>2026-08-11T01:49:15Z</time></trkpt>
<trkpt lat="34.80468" lon="134.115191"><ele>243.99</ele><time>2026-08-11T01:49:17Z</time></trkpt>
<trkpt lat="34.804693" lon="134.115191"><ele>243.99</ele><time>2026-08-11T01:49:18Z</time></trkpt>
<trkpt lat="34.804721" lon="134.115201"><ele>244.75</ele><time>2026-08-11T01:49:21Z</time></trkpt>
<trkpt lat="34.804729" lon="134.115203"><ele>244.75</ele><time>2026-08-11T01:49:22Z</time></trkpt>
<trkpt lat="34.804768" lon="134.115223"><ele>245.98</ele><time>2026-08-11T01:49:26Z</time></trkpt>
<trkpt lat="34.804792" lon="134.115229"><ele>246.94</ele><time>2026-08-11T01:49:30Z</time></trkpt>
<trkpt lat="34.804831" lon="134.115249"><ele>247.7</ele><time>2026-08-11T01:49:34Z</time></trkpt>
<trkpt lat="34.804868" lon="134.115273"><ele>249.16</ele><time>2026-08-11T01:49:38Z</time></trkpt>
<trkpt lat="34.804885" lon="134.115276"><ele>249.16</ele><time>2026-08-11T01:49:40Z</time></trkpt>
<trkpt lat="34.804909" lon="134.115286"><ele>250.01</ele><time>2026-08-11T01:49:44Z</time></trkpt>
<trkpt lat="34.804927" lon="134.11529"><ele>250.98</ele><time>2026-08-11T01:49:46Z</time></trkpt>
<trkpt lat="34.804949" lon="134.115304"><ele>251.57</ele><time>2026-08-11T01:49:49Z</time></trkpt>
<trkpt lat="34.804987" lon="134.115323"><ele>252.62</ele><time>2026-08-11T01:49:54Z</time></trkpt>
<trkpt lat="34.805011" lon="134.115332"><ele>253.45</ele><time>2026-08-11T01:49:56Z</time></trkpt>
<trkpt lat="34.80503" lon="134.115334"><ele>254.24</ele><time>2026-08-11T01:49:59Z</time></trkpt>
<trkpt lat="34.805039" lon="134.115333"><ele>254.24</ele><time>2026-08-11T01:50:02Z</time></trkpt>
<trkpt lat="34.805051" lon="134.115334"><ele>254.24</ele><time>2026-08-11T01:50:05Z</time></trkpt>
<trkpt lat="34.805087" lon="134.115329"><ele>255.02</ele><time>2026-08-11T01:50:10Z</time></trkpt>
<trkpt lat="34.805097" lon="134.115325"><ele>255.02</ele><time>2026-08-11T01:50:11Z</time></trkpt>
<trkpt lat="34.805147" lon="134.115328"><ele>256.37</ele><time>2026-08-11T01:50:16Z</time></trkpt>
<trkpt lat="34.805163" lon="134.11534"><ele>256.37</ele><time>2026-08-11T01:50:18Z</time></trkpt>
<trkpt lat="34.80519" lon="134.115363"><ele>257.37</ele><time>2026-08-11T01:50:21Z</time></trkpt>
<trkpt lat="34.805202" lon="134.115364"><ele>257.37</ele><time>2026-08-11T01:50:22Z</time></trkpt>
<trkpt lat="34.805223" lon="134.115369"><ele>257.75</ele><time>2026-08-11T01:50:24Z</time></trkpt>
<trkpt lat="34.805305" lon="134.115373"><ele>258.4</ele><time>2026-08-11T01:50:31Z</time></trkpt>
<trkpt lat="34.805317" lon="134.115369"><ele>258.46</ele><time>2026-08-11T01:50:32Z</time></trkpt>
<trkpt lat="34.805394" lon="134.115342"><ele>257.82</ele><time>2026-08-11T01:50:40Z</time></trkpt>
<trkpt lat="34.805444" lon="134.115329"><ele>257.88</ele><time>2026-08-11T01:50:46Z</time></trkpt>
<trkpt lat="34.805468" lon="134.115326"><ele>258.0</ele><time>2026-08-11T01:50:48Z</time></trkpt>
<trkpt lat="34.805482" lon="134.115333"><ele>258.0</ele><time>2026-08-11T01:50:53Z</time></trkpt>
<trkpt lat="34.805525" lon="134.115331"><ele>257.94</ele><time>2026-08-11T01:50:56Z</time></trkpt>
<trkpt lat="34.805619" lon="134.115322"><ele>258.01</ele><time>2026-08-11T01:51:01Z</time></trkpt>
<trkpt lat="34.805704" lon="134.115319"><ele>257.18</ele><time>2026-08-11T01:51:06Z</time></trkpt>
<trkpt lat="34.805719" lon="134.115313"><ele>257.18</ele><time>2026-08-11T01:51:07Z</time></trkpt>
<trkpt lat="34.805781" lon="134.11527"><ele>256.04</ele><time>2026-08-11T01:51:10Z</time></trkpt>
<trkpt lat="34.805866" lon="134.115219"><ele>254.52</ele><time>2026-08-11T01:51:15Z</time></trkpt>
<trkpt lat="34.805872" lon="134.115208"><ele>254.0</ele><time>2026-08-11T01:51:16Z</time></trkpt>
<trkpt lat="34.805891" lon="134.115197"><ele>253.06</ele><time>2026-08-11T01:51:18Z</time></trkpt>
<trkpt lat="34.805911" lon="134.115174"><ele>251.92</ele><time>2026-08-11T01:51:22Z</time></trkpt>
<trkpt lat="34.805916" lon="134.115162"><ele>250.1</ele><time>2026-08-11T01:51:23Z</time></trkpt>
<trkpt lat="34.805915" lon="134.11515"><ele>250.1</ele><time>2026-08-11T01:51:24Z</time></trkpt>
<trkpt lat="34.805914" lon="134.115138"><ele>250.1</ele><time>2026-08-11T01:51:25Z</time></trkpt>
<trkpt lat="34.805911" lon="134.115128"><ele>247.99</ele><time>2026-08-11T01:51:26Z</time></trkpt>
<trkpt lat="34.805917" lon="134.115111"><ele>247.99</ele><time>2026-08-11T01:51:28Z</time></trkpt>
<trkpt lat="34.805935" lon="134.115088"><ele>247.99</ele><time>2026-08-11T01:51:30Z</time></trkpt>
<trkpt lat="34.805956" lon="134.115088"><ele>246.92</ele><time>2026-08-11T01:51:32Z</time></trkpt>
<trkpt lat="34.80596" lon="134.115091"><ele>246.92</ele><time>2026-08-11T01:51:33Z</time></trkpt>
<trkpt lat="34.805962" lon="134.115083"><ele>244.5</ele><time>2026-08-11T01:51:38Z</time></trkpt>
<trkpt lat="34.805954" lon="134.11506"><ele>244.5</ele><time>2026-08-11T01:51:41Z</time></trkpt>
<trkpt lat="34.805951" lon="134.11503"><ele>241.72</ele><time>2026-08-11T01:51:44Z</time></trkpt>
<trkpt lat="34.805975" lon="134.115023"><ele>241.72</ele><time>2026-08-11T01:51:46Z</time></trkpt>
<trkpt lat="34.805983" lon="134.115022"><ele>240.55</ele><time>2026-08-11T01:51:47Z</time></trkpt>
<trkpt lat="34.805983" lon="134.115019"><ele>240.55</ele><time>2026-08-11T01:51:48Z</time></trkpt>
<trkpt lat="34.805977" lon="134.115009"><ele>241.72</ele><time>2026-08-11T01:51:49Z</time></trkpt>
<trkpt lat="34.805967" lon="134.114996"><ele>239.07</ele><time>2026-08-11T01:51:50Z</time></trkpt>
<trkpt lat="34.805958" lon="134.114985"><ele>239.07</ele><time>2026-08-11T01:51:51Z</time></trkpt>
<trkpt lat="34.805963" lon="134.114958"><ele>239.07</ele><time>2026-08-11T01:51:54Z</time></trkpt>
<trkpt lat="34.805976" lon="134.114948"><ele>236.02</ele><time>2026-08-11T01:51:55Z</time></trkpt>
<trkpt lat="34.805982" lon="134.114941"><ele>235.17</ele><time>2026-08-11T01:51:56Z</time></trkpt>
<trkpt lat="34.806004" lon="134.114927"><ele>235.17</ele><time>2026-08-11T01:51:58Z</time></trkpt>
<trkpt lat="34.806022" lon="134.114918"><ele>234.06</ele><time>2026-08-11T01:51:59Z</time></trkpt>
<trkpt lat="34.806041" lon="134.114918"><ele>234.06</ele><time>2026-08-11T01:52:00Z</time></trkpt>
<trkpt lat="34.806063" lon="134.114922"><ele>232.79</ele><time>2026-08-11T01:52:01Z</time></trkpt>
<trkpt lat="34.806091" lon="134.114932"><ele>230.74</ele><time>2026-08-11T01:52:04Z</time></trkpt>
<trkpt lat="34.806099" lon="134.114923"><ele>230.74</ele><time>2026-08-11T01:52:05Z</time></trkpt>
<trkpt lat="34.806098" lon="134.114915"><ele>230.74</ele><time>2026-08-11T01:52:06Z</time></trkpt>
<trkpt lat="34.806085" lon="134.114888"><ele>230.17</ele><time>2026-08-11T01:52:08Z</time></trkpt>
<trkpt lat="34.806071" lon="134.114862"><ele>227.4</ele><time>2026-08-11T01:52:10Z</time></trkpt>
<trkpt lat="34.80608" lon="134.114856"><ele>227.4</ele><time>2026-08-11T01:52:11Z</time></trkpt>
<trkpt lat="34.806111" lon="134.114862"><ele>226.07</ele><time>2026-08-11T01:52:13Z</time></trkpt>
<trkpt lat="34.80614" lon="134.114861"><ele>224.5</ele><time>2026-08-11T01:52:16Z</time></trkpt>
<trkpt lat="34.806138" lon="134.114849"><ele>224.5</ele><time>2026-08-11T01:52:17Z</time></trkpt>
<trkpt lat="34.806134" lon="134.114839"><ele>224.5</ele><time>2026-08-11T01:52:18Z</time></trkpt>
<trkpt lat="34.806126" lon="134.114827"><ele>222.42</ele><time>2026-08-11T01:52:19Z</time></trkpt>
<trkpt lat="34.806116" lon="134.114796"><ele>223.89</ele><time>2026-08-11T01:52:21Z</time></trkpt>
<trkpt lat="34.806121" lon="134.114784"><ele>221.06</ele><time>2026-08-11T01:52:22Z</time></trkpt>
<trkpt lat="34.806129" lon="134.114778"><ele>220.11</ele><time>2026-08-11T01:52:23Z</time></trkpt>
<trkpt lat="34.806143" lon="134.114777"><ele>220.11</ele><time>2026-08-11T01:52:25Z</time></trkpt>
<trkpt lat="34.806153" lon="134.114774"><ele>220.11</ele><time>2026-08-11T01:52:26Z</time></trkpt>
<trkpt lat="34.806155" lon="134.11476"><ele>220.11</ele><time>2026-08-11T01:52:28Z</time></trkpt>
<trkpt lat="34.806152" lon="134.114743"><ele>220.11</ele><time>2026-08-11T01:52:30Z</time></trkpt>
<trkpt lat="34.806161" lon="134.114734"><ele>216.07</ele><time>2026-08-11T01:52:31Z</time></trkpt>
<trkpt lat="34.806173" lon="134.114727"><ele>216.07</ele><time>2026-08-11T01:52:32Z</time></trkpt>
<trkpt lat="34.806181" lon="134.114726"><ele>216.07</ele><time>2026-08-11T01:52:33Z</time></trkpt>
<trkpt lat="34.806188" lon="134.114722"><ele>216.07</ele><time>2026-08-11T01:52:35Z</time></trkpt>
<trkpt lat="34.806184" lon="134.114711"><ele>216.07</ele><time>2026-08-11T01:52:36Z</time></trkpt>
<trkpt lat="34.806184" lon="134.114688"><ele>213.51</ele><time>2026-08-11T01:52:37Z</time></trkpt>
<trkpt lat="34.806193" lon="134.114663"><ele>212.33</ele><time>2026-08-11T01:52:39Z</time></trkpt>
<trkpt lat="34.806203" lon="134.114661"><ele>212.33</ele><time>2026-08-11T01:52:40Z</time></trkpt>
<trkpt lat="34.806209" lon="134.11466"><ele>212.33</ele><time>2026-08-11T01:52:41Z</time></trkpt>
<trkpt lat="34.806222" lon="134.114661"><ele>212.33</ele><time>2026-08-11T01:52:43Z</time></trkpt>
<trkpt lat="34.806229" lon="134.114647"><ele>208.96</ele><time>2026-08-11T01:52:45Z</time></trkpt>
<trkpt lat="34.806231" lon="134.114639"><ele>208.96</ele><time>2026-08-11T01:52:46Z</time></trkpt>
<trkpt lat="34.806235" lon="134.114629"><ele>208.96</ele><time>2026-08-11T01:52:47Z</time></trkpt>
<trkpt lat="34.806251" lon="134.114618"><ele>208.96</ele><time>2026-08-11T01:52:49Z</time></trkpt>
<trkpt lat="34.806266" lon="134.114612"><ele>205.13</ele><time>2026-08-11T01:52:51Z</time></trkpt>
<trkpt lat="34.806272" lon="134.114586"><ele>205.13</ele><time>2026-08-11T01:52:53Z</time></trkpt>
<trkpt lat="34.806265" lon="134.114559"><ele>202.87</ele><time>2026-08-11T01:52:55Z</time></trkpt>
<trkpt lat="34.806274" lon="134.114539"><ele>202.87</ele><time>2026-08-11T01:52:57Z</time></trkpt>
<trkpt lat="34.806288" lon="134.11453"><ele>202.87</ele><time>2026-08-11T01:52:59Z</time></trkpt>
<trkpt lat="34.806304" lon="134.114505"><ele>199.08</ele><time>2026-08-11T01:53:01Z</time></trkpt>
<trkpt lat="34.806303" lon="134.114494"><ele>199.08</ele><time>2026-08-11T01:53:02Z</time></trkpt>
<trkpt lat="34.806297" lon="134.11448"><ele>198.77</ele><time>2026-08-11T01:53:03Z</time></trkpt>
<trkpt lat="34.806292" lon="134.114446"><ele>198.77</ele><time>2026-08-11T01:53:05Z</time></trkpt>
<trkpt lat="34.806287" lon="134.114433"><ele>196.84</ele><time>2026-08-11T01:53:06Z</time></trkpt>
<trkpt lat="34.806282" lon="134.114418"><ele>196.84</ele><time>2026-08-11T01:53:07Z</time></trkpt>
<trkpt lat="34.806286" lon="134.114407"><ele>196.84</ele><time>2026-08-11T01:53:08Z</time></trkpt>
<trkpt lat="34.806292" lon="134.114403"><ele>196.84</ele><time>2026-08-11T01:53:09Z</time></trkpt>
<trkpt lat="34.806306" lon="134.114391"><ele>193.6</ele><time>2026-08-11T01:53:11Z</time></trkpt>
<trkpt lat="34.806314" lon="134.114382"><ele>193.6</ele><time>2026-08-11T01:53:12Z</time></trkpt>
<trkpt lat="34.806313" lon="134.114369"><ele>193.6</ele><time>2026-08-11T01:53:13Z</time></trkpt>
<trkpt lat="34.8063" lon="134.114353"><ele>191.54</ele><time>2026-08-11T01:53:15Z</time></trkpt>
<trkpt lat="34.806301" lon="134.114334"><ele>191.54</ele><time>2026-08-11T01:53:16Z</time></trkpt>
<trkpt lat="34.806304" lon="134.114311"><ele>189.55</ele><time>2026-08-11T01:53:17Z</time></trkpt>
<trkpt lat="34.806308" lon="134.114298"><ele>189.55</ele><time>2026-08-11T01:53:19Z</time></trkpt>
<trkpt lat="34.806309" lon="134.11427"><ele>187.71</ele><time>2026-08-11T01:53:21Z</time></trkpt>
<trkpt lat="34.806309" lon="134.114263"><ele>187.71</ele><time>2026-08-11T01:53:22Z</time></trkpt>
<trkpt lat="34.806305" lon="134.114253"><ele>187.71</ele><time>2026-08-11T01:53:23Z</time></trkpt>
<trkpt lat="34.806309" lon="134.114243"><ele>187.71</ele><time>2026-08-11T01:53:24Z</time></trkpt>
<trkpt lat="34.806326" lon="134.11423"><ele>187.71</ele><time>2026-08-11T01:53:26Z</time></trkpt>
<trkpt lat="34.806341" lon="134.114194"><ele>184.2</ele><time>2026-08-11T01:53:29Z</time></trkpt>
<trkpt lat="34.806348" lon="134.11418"><ele>182.15</ele><time>2026-08-11T01:53:30Z</time></trkpt>
<trkpt lat="34.806358" lon="134.114169"><ele>182.15</ele><time>2026-08-11T01:53:31Z</time></trkpt>
<trkpt lat="34.806368" lon="134.114153"><ele>182.15</ele><time>2026-08-11T01:53:32Z</time></trkpt>
<trkpt lat="34.806378" lon="134.114138"><ele>179.44</ele><time>2026-08-11T01:53:33Z</time></trkpt>
<trkpt lat="34.806384" lon="134.114123"><ele>179.44</ele><time>2026-08-11T01:53:34Z</time></trkpt>
<trkpt lat="34.806383" lon="134.114109"><ele>179.44</ele><time>2026-08-11T01:53:35Z</time></trkpt>
<trkpt lat="34.806381" lon="134.114093"><ele>177.79</ele><time>2026-08-11T01:53:36Z</time></trkpt>
<trkpt lat="34.806386" lon="134.114078"><ele>177.79</ele><time>2026-08-11T01:53:37Z</time></trkpt>
<trkpt lat="34.806395" lon="134.114067"><ele>177.79</ele><time>2026-08-11T01:53:38Z</time></trkpt>
<trkpt lat="34.806404" lon="134.114056"><ele>177.48</ele><time>2026-08-11T01:53:39Z</time></trkpt>
<trkpt lat="34.806403" lon="134.11404"><ele>176.01</ele><time>2026-08-11T01:53:40Z</time></trkpt>
<trkpt lat="34.80641" lon="134.113991"><ele>173.86</ele><time>2026-08-11T01:53:42Z</time></trkpt>
<trkpt lat="34.806424" lon="134.113951"><ele>172.84</ele><time>2026-08-11T01:53:44Z</time></trkpt>
<trkpt lat="34.806435" lon="134.113852"><ele>170.67</ele><time>2026-08-11T01:53:47Z</time></trkpt>
<trkpt lat="34.80645" lon="134.113822"><ele>169.06</ele><time>2026-08-11T01:53:48Z</time></trkpt>
<trkpt lat="34.806465" lon="134.113795"><ele>168.29</ele><time>2026-08-11T01:53:49Z</time></trkpt>
<trkpt lat="34.806481" lon="134.113767"><ele>168.49</ele><time>2026-08-11T01:53:50Z</time></trkpt>
<trkpt lat="34.806495" lon="134.113752"><ele>168.69</ele><time>2026-08-11T01:53:51Z</time></trkpt>
<trkpt lat="34.80652" lon="134.113736"><ele>169.59</ele><time>2026-08-11T01:53:53Z</time></trkpt>
<trkpt lat="34.806526" lon="134.113733"><ele>169.59</ele><time>2026-08-11T01:53:54Z</time></trkpt>
<trkpt lat="34.806533" lon="134.113719"><ele>169.59</ele><time>2026-08-11T01:53:57Z</time></trkpt>
<trkpt lat="34.806532" lon="134.113697"><ele>170.14</ele><time>2026-08-11T01:54:01Z</time></trkpt>
<trkpt lat="34.806543" lon="134.113686"><ele>170.14</ele><time>2026-08-11T01:54:05Z</time></trkpt>
<trkpt lat="34.806554" lon="134.113684"><ele>171.07</ele><time>2026-08-11T01:54:08Z</time></trkpt>
<trkpt lat="34.806556" lon="134.113683"><ele>171.07</ele><time>2026-08-11T01:54:09Z</time></trkpt>
<trkpt lat="34.806557" lon="134.113682"><ele>171.07</ele><time>2026-08-11T01:54:10Z</time></trkpt>
<trkpt lat="34.806561" lon="134.113678"><ele>171.07</ele><time>2026-08-11T01:54:12Z</time></trkpt>
<trkpt lat="34.806569" lon="134.113647"><ele>172.25</ele><time>2026-08-11T01:54:18Z</time></trkpt>
<trkpt lat="34.806574" lon="134.113628"><ele>172.25</ele><time>2026-08-11T01:54:23Z</time></trkpt>
<trkpt lat="34.806596" lon="134.11362"><ele>174.99</ele><time>2026-08-11T01:54:26Z</time></trkpt>
<trkpt lat="34.806619" lon="134.113603"><ele>176.5</ele><time>2026-08-11T01:54:30Z</time></trkpt>
<trkpt lat="34.806631" lon="134.113591"><ele>176.5</ele><time>2026-08-11T01:54:33Z</time></trkpt>
<trkpt lat="34.806631" lon="134.113587"><ele>176.5</ele><time>2026-08-11T01:54:34Z</time></trkpt>
<trkpt lat="34.806651" lon="134.113592"><ele>177.74</ele><time>2026-08-11T01:54:39Z</time></trkpt>
<trkpt lat="34.806659" lon="134.113591"><ele>177.74</ele><time>2026-08-11T01:54:41Z</time></trkpt>
<trkpt lat="34.806661" lon="134.113592"><ele>177.74</ele><time>2026-08-11T01:54:42Z</time></trkpt>
<trkpt lat="34.806664" lon="134.113582"><ele>179.45</ele><time>2026-08-11T01:54:45Z</time></trkpt>
<trkpt lat="34.806664" lon="134.113569"><ele>179.45</ele><time>2026-08-11T01:54:47Z</time></trkpt>
<trkpt lat="34.806663" lon="134.113556"><ele>179.45</ele><time>2026-08-11T01:54:51Z</time></trkpt>
<trkpt lat="34.806666" lon="134.113553"><ele>179.45</ele><time>2026-08-11T01:54:52Z</time></trkpt>
<trkpt lat="34.806682" lon="134.113541"><ele>179.45</ele><time>2026-08-11T01:54:55Z</time></trkpt>
<trkpt lat="34.806721" lon="134.11353"><ele>183.46</ele><time>2026-08-11T01:55:00Z</time></trkpt>
<trkpt lat="34.806731" lon="134.11353"><ele>183.46</ele><time>2026-08-11T01:55:01Z</time></trkpt>
<trkpt lat="34.806746" lon="134.113517"><ele>183.46</ele><time>2026-08-11T01:55:05Z</time></trkpt>
<trkpt lat="34.806755" lon="134.113519"><ele>183.46</ele><time>2026-08-11T01:55:07Z</time></trkpt>
<trkpt lat="34.806766" lon="134.113496"><ele>186.43</ele><time>2026-08-11T01:55:12Z</time></trkpt>
<trkpt lat="34.806764" lon="134.113484"><ele>186.43</ele><time>2026-08-11T01:55:14Z</time></trkpt>
<trkpt lat="34.806778" lon="134.113449"><ele>187.99</ele><time>2026-08-11T01:55:19Z</time></trkpt>
<trkpt lat="34.806779" lon="134.113444"><ele>187.99</ele><time>2026-08-11T01:55:20Z</time></trkpt>
<trkpt lat="34.806783" lon="134.113436"><ele>187.99</ele><time>2026-08-11T01:55:22Z</time></trkpt>
<trkpt lat="34.806786" lon="134.11343"><ele>187.99</ele><time>2026-08-11T01:55:24Z</time></trkpt>
<trkpt lat="34.806789" lon="134.113427"><ele>187.99</ele><time>2026-08-11T01:55:25Z</time></trkpt>
<trkpt lat="34.806791" lon="134.113424"><ele>187.99</ele><time>2026-08-11T01:55:26Z</time></trkpt>
<trkpt lat="34.806795" lon="134.113419"><ele>189.01</ele><time>2026-08-11T01:55:27Z</time></trkpt>
<trkpt lat="34.806797" lon="134.113416"><ele>189.01</ele><time>2026-08-11T01:55:28Z</time></trkpt>
<trkpt lat="34.806794" lon="134.11341"><ele>190.7</ele><time>2026-08-11T01:55:29Z</time></trkpt>
<trkpt lat="34.806795" lon="134.113394"><ele>190.7</ele><time>2026-08-11T01:55:32Z</time></trkpt>
<trkpt lat="34.806796" lon="134.113391"><ele>190.7</ele><time>2026-08-11T01:55:34Z</time></trkpt>
<trkpt lat="34.806811" lon="134.113371"><ele>190.7</ele><time>2026-08-11T01:55:37Z</time></trkpt>
<trkpt lat="34.806812" lon="134.113365"><ele>192.32</ele><time>2026-08-11T01:55:38Z</time></trkpt>
<trkpt lat="34.806814" lon="134.113356"><ele>192.32</ele><time>2026-08-11T01:55:40Z</time></trkpt>
<trkpt lat="34.806816" lon="134.113355"><ele>192.32</ele><time>2026-08-11T01:55:41Z</time></trkpt>
<trkpt lat="34.806822" lon="134.113352"><ele>192.32</ele><time>2026-08-11T01:55:42Z</time></trkpt>
<trkpt lat="34.806831" lon="134.113347"><ele>193.67</ele><time>2026-08-11T01:55:43Z</time></trkpt>
<trkpt lat="34.806847" lon="134.113334"><ele>193.67</ele><time>2026-08-11T01:55:47Z</time></trkpt>
<trkpt lat="34.806848" lon="134.113329"><ele>193.67</ele><time>2026-08-11T01:55:49Z</time></trkpt>
<trkpt lat="34.806841" lon="134.113318"><ele>194.85</ele><time>2026-08-11T01:55:53Z</time></trkpt>
<trkpt lat="34.80681" lon="134.11329"><ele>193.84</ele><time>2026-08-11T01:55:57Z</time></trkpt>
<trkpt lat="34.806784" lon="134.113243"><ele>194.48</ele><time>2026-08-11T01:56:03Z</time></trkpt>
<trkpt lat="34.806784" lon="134.113221"><ele>196.14</ele><time>2026-08-11T01:56:05Z</time></trkpt>
<trkpt lat="34.806787" lon="134.113206"><ele>196.14</ele><time>2026-08-11T01:56:09Z</time></trkpt>
<trkpt lat="34.80679" lon="134.113203"><ele>196.14</ele><time>2026-08-11T01:56:11Z</time></trkpt>
<trkpt lat="34.8068" lon="134.113191"><ele>199.19</ele><time>2026-08-11T01:56:14Z</time></trkpt>
<trkpt lat="34.806829" lon="134.113186"><ele>200.1</ele><time>2026-08-11T01:56:20Z</time></trkpt>
<trkpt lat="34.806831" lon="134.113182"><ele>200.1</ele><time>2026-08-11T01:56:21Z</time></trkpt>
<trkpt lat="34.806837" lon="134.113152"><ele>201.71</ele><time>2026-08-11T01:56:25Z</time></trkpt>
<trkpt lat="34.806839" lon="134.113147"><ele>201.71</ele><time>2026-08-11T01:56:26Z</time></trkpt>
<trkpt lat="34.806841" lon="134.113136"><ele>201.71</ele><time>2026-08-11T01:56:28Z</time></trkpt>
<trkpt lat="34.806852" lon="134.113129"><ele>201.71</ele><time>2026-08-11T01:56:31Z</time></trkpt>
<trkpt lat="34.806877" lon="134.113112"><ele>202.84</ele><time>2026-08-11T01:56:37Z</time></trkpt>
<trkpt lat="34.806879" lon="134.113108"><ele>204.39</ele><time>2026-08-11T01:56:38Z</time></trkpt>
<trkpt lat="34.806889" lon="134.113096"><ele>204.39</ele><time>2026-08-11T01:56:41Z</time></trkpt>
<trkpt lat="34.806888" lon="134.113095"><ele>204.39</ele><time>2026-08-11T01:56:42Z</time></trkpt>
<trkpt lat="34.806893" lon="134.113081"><ele>204.39</ele><time>2026-08-11T01:56:46Z</time></trkpt>
<trkpt lat="34.806895" lon="134.113079"><ele>204.39</ele><time>2026-08-11T01:56:47Z</time></trkpt>
<trkpt lat="34.806899" lon="134.11306"><ele>207.27</ele><time>2026-08-11T01:56:52Z</time></trkpt>
<trkpt lat="34.806902" lon="134.113039"><ele>207.27</ele><time>2026-08-11T01:56:54Z</time></trkpt>
<trkpt lat="34.806905" lon="134.113016"><ele>208.45</ele><time>2026-08-11T01:56:58Z</time></trkpt>
<trkpt lat="34.806907" lon="134.113006"><ele>208.45</ele><time>2026-08-11T01:57:01Z</time></trkpt>
<trkpt lat="34.80691" lon="134.112991"><ele>208.45</ele><time>2026-08-11T01:57:04Z</time></trkpt>
<trkpt lat="34.806911" lon="134.112974"><ele>209.65</ele><time>2026-08-11T01:57:07Z</time></trkpt>
<trkpt lat="34.806921" lon="134.112971"><ele>209.65</ele><time>2026-08-11T01:57:09Z</time></trkpt>
<trkpt lat="34.806932" lon="134.112977"><ele>209.65</ele><time>2026-08-11T01:57:13Z</time></trkpt>
<trkpt lat="34.806936" lon="134.112974"><ele>211.21</ele><time>2026-08-11T01:57:16Z</time></trkpt>
<trkpt lat="34.80695" lon="134.112958"><ele>211.21</ele><time>2026-08-11T01:57:20Z</time></trkpt>
<trkpt lat="34.806954" lon="134.112955"><ele>211.21</ele><time>2026-08-11T01:57:23Z</time></trkpt>
<trkpt lat="34.806954" lon="134.112955"><ele>211.21</ele><time>2026-08-11T01:57:26Z</time></trkpt>
<trkpt lat="34.806954" lon="134.112955"><ele>211.21</ele><time>2026-08-11T01:57:31Z</time></trkpt>
<trkpt lat="34.806954" lon="134.112955"><ele>211.21</ele><time>2026-08-11T01:57:36Z</time></trkpt>
<trkpt lat="34.806954" lon="134.11294"><ele>211.21</ele><time>2026-08-11T01:57:41Z</time></trkpt>
<trkpt lat="34.806987" lon="134.112896"><ele>214.83</ele><time>2026-08-11T01:57:48Z</time></trkpt>
<trkpt lat="34.807021" lon="134.112855"><ele>216.23</ele><time>2026-08-11T01:57:55Z</time></trkpt>
<trkpt lat="34.807084" lon="134.112789"><ele>219.48</ele><time>2026-08-11T01:58:00Z</time></trkpt>
<trkpt lat="34.80714" lon="134.112728"><ele>220.62</ele><time>2026-08-11T01:58:03Z</time></trkpt>
<trkpt lat="34.80724" lon="134.112651"><ele>221.87</ele><time>2026-08-11T01:58:09Z</time></trkpt>
<trkpt lat="34.807356" lon="134.112513"><ele>220.0</ele><time>2026-08-11T01:58:17Z</time></trkpt>
<trkpt lat="34.807397" lon="134.112464"><ele>219.69</ele><time>2026-08-11T01:58:20Z</time></trkpt>
<trkpt lat="34.807475" lon="134.112384"><ele>219.37</ele><time>2026-08-11T01:58:26Z</time></trkpt>
<trkpt lat="34.807486" lon="134.11237"><ele>219.69</ele><time>2026-08-11T01:58:27Z</time></trkpt>
<trkpt lat="34.807559" lon="134.112264"><ele>220.03</ele><time>2026-08-11T01:58:33Z</time></trkpt>
<trkpt lat="34.807662" lon="134.1122"><ele>219.59</ele><time>2026-08-11T01:58:40Z</time></trkpt>
<trkpt lat="34.807676" lon="134.11219"><ele>219.09</ele><time>2026-08-11T01:58:41Z</time></trkpt>
<trkpt lat="34.807702" lon="134.112224"><ele>218.67</ele><time>2026-08-11T01:58:44Z</time></trkpt>
<trkpt lat="34.807734" lon="134.112237"><ele>217.49</ele><time>2026-08-11T01:58:48Z</time></trkpt>
<trkpt lat="34.807757" lon="134.112235"><ele>216.27</ele><time>2026-08-11T01:58:50Z</time></trkpt>
<trkpt lat="34.807784" lon="134.112234"><ele>215.17</ele><time>2026-08-11T01:58:52Z</time></trkpt>
<trkpt lat="34.807797" lon="134.112226"><ele>215.17</ele><time>2026-08-11T01:58:53Z</time></trkpt>
<trkpt lat="34.807824" lon="134.112217"><ele>214.03</ele><time>2026-08-11T01:58:55Z</time></trkpt>
<trkpt lat="34.80784" lon="134.112212"><ele>214.03</ele><time>2026-08-11T01:58:56Z</time></trkpt>
<trkpt lat="34.807894" lon="134.112196"><ele>213.4</ele><time>2026-08-11T01:59:00Z</time></trkpt>
<trkpt lat="34.807898" lon="134.112196"><ele>213.4</ele><time>2026-08-11T01:59:01Z</time></trkpt>
<trkpt lat="34.807901" lon="134.112189"><ele>213.4</ele><time>2026-08-11T01:59:03Z</time></trkpt>
<trkpt lat="34.807908" lon="134.112181"><ele>213.4</ele><time>2026-08-11T01:59:07Z</time></trkpt>
<trkpt lat="34.807911" lon="134.112182"><ele>213.4</ele><time>2026-08-11T01:59:09Z</time></trkpt>
<trkpt lat="34.807937" lon="134.112158"><ele>212.13</ele><time>2026-08-11T01:59:12Z</time></trkpt>
<trkpt lat="34.807937" lon="134.112143"><ele>212.13</ele><time>2026-08-11T01:59:16Z</time></trkpt>
<trkpt lat="34.807945" lon="134.112142"><ele>212.13</ele><time>2026-08-11T01:59:17Z</time></trkpt>
<trkpt lat="34.807982" lon="134.11213"><ele>210.98</ele><time>2026-08-11T01:59:21Z</time></trkpt>
<trkpt lat="34.808008" lon="134.112119"><ele>208.43</ele><time>2026-08-11T01:59:24Z</time></trkpt>
<trkpt lat="34.808033" lon="134.112106"><ele>207.18</ele><time>2026-08-11T01:59:26Z</time></trkpt>
<trkpt lat="34.808071" lon="134.112075"><ele>206.43</ele><time>2026-08-11T01:59:29Z</time></trkpt>
<trkpt lat="34.808143" lon="134.112045"><ele>205.56</ele><time>2026-08-11T01:59:33Z</time></trkpt>
<trkpt lat="34.808185" lon="134.112037"><ele>204.85</ele><time>2026-08-11T01:59:35Z</time></trkpt>
<trkpt lat="34.808222" lon="134.112043"><ele>204.2</ele><time>2026-08-11T01:59:37Z</time></trkpt>
<trkpt lat="34.808278" lon="134.11203"><ele>202.59</ele><time>2026-08-11T01:59:41Z</time></trkpt>
<trkpt lat="34.808289" lon="134.112025"><ele>202.59</ele><time>2026-08-11T01:59:42Z</time></trkpt>
<trkpt lat="34.808298" lon="134.11202"><ele>202.59</ele><time>2026-08-11T01:59:43Z</time></trkpt>
<trkpt lat="34.808331" lon="134.112014"><ele>200.8</ele><time>2026-08-11T01:59:46Z</time></trkpt>
<trkpt lat="34.808346" lon="134.112015"><ele>198.88</ele><time>2026-08-11T01:59:48Z</time></trkpt>
<trkpt lat="34.808353" lon="134.112011"><ele>198.88</ele><time>2026-08-11T01:59:49Z</time></trkpt>
<trkpt lat="34.808355" lon="134.112004"><ele>198.88</ele><time>2026-08-11T01:59:51Z</time></trkpt>
<trkpt lat="34.808354" lon="134.111992"><ele>197.65</ele><time>2026-08-11T01:59:52Z</time></trkpt>
<trkpt lat="34.808359" lon="134.111978"><ele>197.65</ele><time>2026-08-11T01:59:53Z</time></trkpt>
<trkpt lat="34.808369" lon="134.111963"><ele>197.65</ele><time>2026-08-11T01:59:54Z</time></trkpt>
<trkpt lat="34.80838" lon="134.111949"><ele>194.7</ele><time>2026-08-11T01:59:55Z</time></trkpt>
<trkpt lat="34.808393" lon="134.111931"><ele>194.7</ele><time>2026-08-11T01:59:56Z</time></trkpt>
<trkpt lat="34.808417" lon="134.111905"><ele>191.94</ele><time>2026-08-11T01:59:58Z</time></trkpt>
<trkpt lat="34.808439" lon="134.111885"><ele>191.94</ele><time>2026-08-11T02:00:00Z</time></trkpt>
<trkpt lat="34.808442" lon="134.111876"><ele>191.94</ele><time>2026-08-11T02:00:01Z</time></trkpt>
<trkpt lat="34.80845" lon="134.111846"><ele>190.68</ele><time>2026-08-11T02:00:03Z</time></trkpt>
<trkpt lat="34.808457" lon="134.111836"><ele>190.68</ele><time>2026-08-11T02:00:04Z</time></trkpt>
<trkpt lat="34.808483" lon="134.111807"><ele>188.21</ele><time>2026-08-11T02:00:06Z</time></trkpt>
<trkpt lat="34.808497" lon="134.111766"><ele>187.1</ele><time>2026-08-11T02:00:08Z</time></trkpt>
<trkpt lat="34.808517" lon="134.111746"><ele>187.1</ele><time>2026-08-11T02:00:10Z</time></trkpt>
<trkpt lat="34.808527" lon="134.111738"><ele>185.59</ele><time>2026-08-11T02:00:11Z</time></trkpt>
<trkpt lat="34.808545" lon="134.111714"><ele>185.59</ele><time>2026-08-11T02:00:13Z</time></trkpt>
<trkpt lat="34.808564" lon="134.111694"><ele>183.71</ele><time>2026-08-11T02:00:15Z</time></trkpt>
<trkpt lat="34.808582" lon="134.111682"><ele>183.71</ele><time>2026-08-11T02:00:17Z</time></trkpt>
<trkpt lat="34.808597" lon="134.11167"><ele>182.48</ele><time>2026-08-11T02:00:18Z</time></trkpt>
<trkpt lat="34.808628" lon="134.111642"><ele>181.19</ele><time>2026-08-11T02:00:20Z</time></trkpt>
<trkpt lat="34.808666" lon="134.111602"><ele>179.31</ele><time>2026-08-11T02:00:23Z</time></trkpt>
<trkpt lat="34.808678" lon="134.11158"><ele>179.31</ele><time>2026-08-11T02:00:25Z</time></trkpt>
<trkpt lat="34.808679" lon="134.11156"><ele>178.07</ele><time>2026-08-11T02:00:26Z</time></trkpt>
<trkpt lat="34.808678" lon="134.111542"><ele>178.07</ele><time>2026-08-11T02:00:27Z</time></trkpt>
<trkpt lat="34.808683" lon="134.111526"><ele>178.07</ele><time>2026-08-11T02:00:28Z</time></trkpt>
<trkpt lat="34.808693" lon="134.111511"><ele>176.35</ele><time>2026-08-11T02:00:29Z</time></trkpt>
<trkpt lat="34.808701" lon="134.111503"><ele>175.73</ele><time>2026-08-11T02:00:30Z</time></trkpt>
<trkpt lat="34.808709" lon="134.111489"><ele>175.73</ele><time>2026-08-11T02:00:32Z</time></trkpt>
<trkpt lat="34.808713" lon="134.111475"><ele>174.05</ele><time>2026-08-11T02:00:33Z</time></trkpt>
<trkpt lat="34.808718" lon="134.111459"><ele>174.05</ele><time>2026-08-11T02:00:34Z</time></trkpt>
<trkpt lat="34.808727" lon="134.111423"><ele>172.16</ele><time>2026-08-11T02:00:36Z</time></trkpt>
<trkpt lat="34.80873" lon="134.111408"><ele>171.91</ele><time>2026-08-11T02:00:37Z</time></trkpt>
<trkpt lat="34.808727" lon="134.111398"><ele>172.16</ele><time>2026-08-11T02:00:38Z</time></trkpt>
<trkpt lat="34.808731" lon="134.111356"><ele>170.33</ele><time>2026-08-11T02:00:40Z</time></trkpt>
<trkpt lat="34.808748" lon="134.111334"><ele>168.64</ele><time>2026-08-11T02:00:42Z</time></trkpt>
<trkpt lat="34.808755" lon="134.111322"><ele>168.64</ele><time>2026-08-11T02:00:43Z</time></trkpt>
<trkpt lat="34.808772" lon="134.111312"><ele>167.89</ele><time>2026-08-11T02:00:44Z</time></trkpt>
<trkpt lat="34.808785" lon="134.111294"><ele>166.1</ele><time>2026-08-11T02:00:46Z</time></trkpt>
<trkpt lat="34.808791" lon="134.111279"><ele>166.1</ele><time>2026-08-11T02:00:47Z</time></trkpt>
<trkpt lat="34.808795" lon="134.111261"><ele>163.76</ele><time>2026-08-11T02:00:48Z</time></trkpt>
<trkpt lat="34.808808" lon="134.111249"><ele>162.99</ele><time>2026-08-11T02:00:49Z</time></trkpt>
<trkpt lat="34.808824" lon="134.111238"><ele>162.99</ele><time>2026-08-11T02:00:51Z</time></trkpt>
<trkpt lat="34.808823" lon="134.111231"><ele>162.99</ele><time>2026-08-11T02:00:52Z</time></trkpt>
<trkpt lat="34.808825" lon="134.111218"><ele>160.87</ele><time>2026-08-11T02:00:53Z</time></trkpt>
<trkpt lat="34.80883" lon="134.111206"><ele>160.87</ele><time>2026-08-11T02:00:54Z</time></trkpt>
<trkpt lat="34.808836" lon="134.111191"><ele>160.48</ele><time>2026-08-11T02:00:55Z</time></trkpt>
<trkpt lat="34.808852" lon="134.111167"><ele>159.12</ele><time>2026-08-11T02:00:57Z</time></trkpt>
<trkpt lat="34.808867" lon="134.111158"><ele>159.12</ele><time>2026-08-11T02:00:58Z</time></trkpt>
<trkpt lat="34.808882" lon="134.111149"><ele>158.34</ele><time>2026-08-11T02:00:59Z</time></trkpt>
<trkpt lat="34.808911" lon="134.111124"><ele>156.61</ele><time>2026-08-11T02:01:01Z</time></trkpt>
<trkpt lat="34.808965" lon="134.111073"><ele>155.06</ele><time>2026-08-11T02:01:04Z</time></trkpt>
<trkpt lat="34.809005" lon="134.111048"><ele>153.53</ele><time>2026-08-11T02:01:06Z</time></trkpt>
<trkpt lat="34.809044" lon="134.111022"><ele>153.87</ele><time>2026-08-11T02:01:08Z</time></trkpt>
<trkpt lat="34.809063" lon="134.111013"><ele>153.25</ele><time>2026-08-11T02:01:09Z</time></trkpt>
<trkpt lat="34.809076" lon="134.111006"><ele>151.79</ele><time>2026-08-11T02:01:10Z</time></trkpt>
<trkpt lat="34.809081" lon="134.110993"><ele>151.79</ele><time>2026-08-11T02:01:11Z</time></trkpt>
<trkpt lat="34.80909" lon="134.110978"><ele>151.81</ele><time>2026-08-11T02:01:12Z</time></trkpt>
<trkpt lat="34.809112" lon="134.110945"><ele>150.05</ele><time>2026-08-11T02:01:15Z</time></trkpt>
<trkpt lat="34.809116" lon="134.110927"><ele>150.05</ele><time>2026-08-11T02:01:17Z</time></trkpt>
<trkpt lat="34.809127" lon="134.110913"><ele>148.9</ele><time>2026-08-11T02:01:19Z</time></trkpt>
<trkpt lat="34.809139" lon="134.110904"><ele>148.9</ele><time>2026-08-11T02:01:20Z</time></trkpt>
<trkpt lat="34.809152" lon="134.110893"><ele>148.9</ele><time>2026-08-11T02:01:22Z</time></trkpt>
<trkpt lat="34.809162" lon="134.110881"><ele>147.8</ele><time>2026-08-11T02:01:24Z</time></trkpt>
<trkpt lat="34.809166" lon="134.110857"><ele>145.75</ele><time>2026-08-11T02:01:26Z</time></trkpt>
<trkpt lat="34.809169" lon="134.110843"><ele>145.75</ele><time>2026-08-11T02:01:27Z</time></trkpt>
<trkpt lat="34.809176" lon="134.110827"><ele>143.65</ele><time>2026-08-11T02:01:28Z</time></trkpt>
<trkpt lat="34.809184" lon="134.110797"><ele>143.65</ele><time>2026-08-11T02:01:31Z</time></trkpt>
<trkpt lat="34.809171" lon="134.110791"><ele>140.69</ele><time>2026-08-11T02:01:32Z</time></trkpt>
<trkpt lat="34.80916" lon="134.110786"><ele>140.69</ele><time>2026-08-11T02:01:33Z</time></trkpt>
<trkpt lat="34.809117" lon="134.110782"><ele>138.44</ele><time>2026-08-11T02:01:36Z</time></trkpt>
<trkpt lat="34.80908" lon="134.110782"><ele>137.47</ele><time>2026-08-11T02:01:38Z</time></trkpt>
<trkpt lat="34.809059" lon="134.110787"><ele>137.47</ele><time>2026-08-11T02:01:40Z</time></trkpt>
<trkpt lat="34.809045" lon="134.110789"><ele>136.81</ele><time>2026-08-11T02:01:41Z</time></trkpt>
<trkpt lat="34.809016" lon="134.110799"><ele>139.53</ele><time>2026-08-11T02:01:46Z</time></trkpt>
<trkpt lat="34.809011" lon="134.110793"><ele>135.85</ele><time>2026-08-11T02:01:47Z</time></trkpt>
<trkpt lat="34.808978" lon="134.110789"><ele>135.85</ele><time>2026-08-11T02:01:50Z</time></trkpt>
<trkpt lat="34.808938" lon="134.11079"><ele>134.27</ele><time>2026-08-11T02:01:52Z</time></trkpt>
<trkpt lat="34.808919" lon="134.110784"><ele>134.27</ele><time>2026-08-11T02:01:53Z</time></trkpt>
<trkpt lat="34.808905" lon="134.110773"><ele>134.4</ele><time>2026-08-11T02:01:54Z</time></trkpt>
<trkpt lat="34.80888" lon="134.110752"><ele>134.4</ele><time>2026-08-11T02:01:56Z</time></trkpt>
<trkpt lat="34.808833" lon="134.110709"><ele>132.52</ele><time>2026-08-11T02:01:59Z</time></trkpt>
<trkpt lat="34.808825" lon="134.110704"><ele>130.59</ele><time>2026-08-11T02:02:01Z</time></trkpt>
<trkpt lat="34.808825" lon="134.110707"><ele>130.59</ele><time>2026-08-11T02:02:02Z</time></trkpt>
<trkpt lat="34.808814" lon="134.110704"><ele>130.59</ele><time>2026-08-11T02:02:04Z</time></trkpt>
<trkpt lat="34.808808" lon="134.110696"><ele>130.59</ele><time>2026-08-11T02:02:07Z</time></trkpt>
<trkpt lat="34.808818" lon="134.110688"><ele>130.59</ele><time>2026-08-11T02:02:09Z</time></trkpt>
<trkpt lat="34.80882" lon="134.110689"><ele>130.59</ele><time>2026-08-11T02:02:10Z</time></trkpt>
<trkpt lat="34.808816" lon="134.110685"><ele>130.59</ele><time>2026-08-11T02:02:16Z</time></trkpt>
<trkpt lat="34.808852" lon="134.110658"><ele>129.15</ele><time>2026-08-11T02:02:21Z</time></trkpt>
<trkpt lat="34.808853" lon="134.110656"><ele>129.15</ele><time>2026-08-11T02:02:22Z</time></trkpt>
<trkpt lat="34.808863" lon="134.110627"><ele>129.15</ele><time>2026-08-11T02:02:27Z</time></trkpt>
<trkpt lat="34.8089" lon="134.110608"><ele>128.15</ele><time>2026-08-11T02:02:31Z</time></trkpt>
<trkpt lat="34.80892" lon="134.110607"><ele>127.2</ele><time>2026-08-11T02:02:34Z</time></trkpt>
<trkpt lat="34.80892" lon="134.110608"><ele>127.2</ele><time>2026-08-11T02:02:35Z</time></trkpt>
<trkpt lat="34.80892" lon="134.1106"><ele>127.2</ele><time>2026-08-11T02:02:41Z</time></trkpt>
<trkpt lat="34.808919" lon="134.110603"><ele>127.2</ele><time>2026-08-11T02:02:45Z</time></trkpt>
<trkpt lat="34.808919" lon="134.11061"><ele>127.2</ele><time>2026-08-11T02:02:49Z</time></trkpt>
<trkpt lat="34.808893" lon="134.110608"><ele>128.15</ele><time>2026-08-11T02:02:58Z</time></trkpt>
<trkpt lat="34.808915" lon="134.110572"><ele>126.82</ele><time>2026-08-11T02:03:05Z</time></trkpt>
<trkpt lat="34.808918" lon="134.110564"><ele>126.82</ele><time>2026-08-11T02:03:06Z</time></trkpt>
<trkpt lat="34.808907" lon="134.110558"><ele>126.82</ele><time>2026-08-11T02:03:10Z</time></trkpt>
<trkpt lat="34.80894" lon="134.110543"><ele>126.82</ele><time>2026-08-11T02:03:14Z</time></trkpt>
<trkpt lat="34.808958" lon="134.110522"><ele>125.18</ele><time>2026-08-11T02:03:17Z</time></trkpt>
<trkpt lat="34.808969" lon="134.110517"><ele>125.18</ele><time>2026-08-11T02:03:18Z</time></trkpt>
<trkpt lat="34.808987" lon="134.110488"><ele>123.73</ele><time>2026-08-11T02:03:21Z</time></trkpt>
<trkpt lat="34.808993" lon="134.110471"><ele>123.73</ele><time>2026-08-11T02:03:22Z</time></trkpt>
<trkpt lat="34.809004" lon="134.110458"><ele>123.73</ele><time>2026-08-11T02:03:23Z</time></trkpt>
<trkpt lat="34.809039" lon="134.110415"><ele>121.74</ele><time>2026-08-11T02:03:26Z</time></trkpt>
<trkpt lat="34.809054" lon="134.110401"><ele>121.09</ele><time>2026-08-11T02:03:27Z</time></trkpt>
<trkpt lat="34.809087" lon="134.11037"><ele>119.59</ele><time>2026-08-11T02:03:29Z</time></trkpt>
<trkpt lat="34.809103" lon="134.110362"><ele>120.36</ele><time>2026-08-11T02:03:30Z</time></trkpt>
<trkpt lat="34.809116" lon="134.110357"><ele>120.36</ele><time>2026-08-11T02:03:31Z</time></trkpt>
<trkpt lat="34.809124" lon="134.110351"><ele>118.51</ele><time>2026-08-11T02:03:32Z</time></trkpt>
<trkpt lat="34.809137" lon="134.110335"><ele>118.51</ele><time>2026-08-11T02:03:33Z</time></trkpt>
<trkpt lat="34.809179" lon="134.110297"><ele>117.44</ele><time>2026-08-11T02:03:36Z</time></trkpt>
<trkpt lat="34.809203" lon="134.110269"><ele>117.2</ele><time>2026-08-11T02:03:37Z</time></trkpt>
<trkpt lat="34.809233" lon="134.110243"><ele>116.76</ele><time>2026-08-11T02:03:39Z</time></trkpt>
<trkpt lat="34.809346" lon="134.110224"><ele>117.0</ele><time>2026-08-11T02:03:45Z</time></trkpt>
<trkpt lat="34.809423" lon="134.110211"><ele>115.44</ele><time>2026-08-11T02:03:49Z</time></trkpt>
<trkpt lat="34.80945" lon="134.110211"><ele>114.95</ele><time>2026-08-11T02:03:51Z</time></trkpt>
<trkpt lat="34.809506" lon="134.110203"><ele>114.19</ele><time>2026-08-11T02:03:54Z</time></trkpt>
<trkpt lat="34.809532" lon="134.1102"><ele>114.19</ele><time>2026-08-11T02:03:55Z</time></trkpt>
<trkpt lat="34.809575" lon="134.110202"><ele>113.73</ele><time>2026-08-11T02:03:57Z</time></trkpt>
<trkpt lat="34.809629" lon="134.110198"><ele>113.07</ele><time>2026-08-11T02:04:00Z</time></trkpt>
<trkpt lat="34.809642" lon="134.110183"><ele>113.63</ele><time>2026-08-11T02:04:02Z</time></trkpt>
<trkpt lat="34.809675" lon="134.110173"><ele>114.0</ele><time>2026-08-11T02:04:08Z</time></trkpt>
<trkpt lat="34.809697" lon="134.110166"><ele>114.68</ele><time>2026-08-11T02:04:11Z</time></trkpt>
<trkpt lat="34.80972" lon="134.110163"><ele>115.97</ele><time>2026-08-11T02:04:15Z</time></trkpt>
<trkpt lat="34.80973" lon="134.110163"><ele>115.97</ele><time>2026-08-11T02:04:16Z</time></trkpt>
<trkpt lat="34.809727" lon="134.110145"><ele>117.09</ele><time>2026-08-11T02:04:20Z</time></trkpt>
<trkpt lat="34.809732" lon="134.110134"><ele>117.09</ele><time>2026-08-11T02:04:22Z</time></trkpt>
<trkpt lat="34.809715" lon="134.110103"><ele>116.7</ele><time>2026-08-11T02:04:25Z</time></trkpt>
<trkpt lat="34.809691" lon="134.110062"><ele>117.34</ele><time>2026-08-11T02:04:32Z</time></trkpt>
<trkpt lat="34.809688" lon="134.110001"><ele>117.68</ele><time>2026-08-11T02:04:37Z</time></trkpt>
<trkpt lat="34.809687" lon="134.10996"><ele>118.02</ele><time>2026-08-11T02:04:39Z</time></trkpt>
<trkpt lat="34.809687" lon="134.109952"><ele>118.02</ele><time>2026-08-11T02:04:40Z</time></trkpt>
<trkpt lat="34.809696" lon="134.109875"><ele>119.49</ele><time>2026-08-11T02:04:47Z</time></trkpt>
<trkpt lat="34.809731" lon="134.109826"><ele>121.96</ele><time>2026-08-11T02:04:54Z</time></trkpt>
<trkpt lat="34.809731" lon="134.109814"><ele>121.96</ele><time>2026-08-11T02:04:55Z</time></trkpt>
<trkpt lat="34.809727" lon="134.109773"><ele>122.66</ele><time>2026-08-11T02:05:01Z</time></trkpt>
<trkpt lat="34.809727" lon="134.10977"><ele>122.66</ele><time>2026-08-11T02:05:02Z</time></trkpt>
<trkpt lat="34.809727" lon="134.109768"><ele>122.66</ele><time>2026-08-11T02:05:06Z</time></trkpt>
<trkpt lat="34.809739" lon="134.109711"><ele>123.71</ele><time>2026-08-11T02:05:11Z</time></trkpt>
<trkpt lat="34.809744" lon="134.109624"><ele>125.27</ele><time>2026-08-11T02:05:17Z</time></trkpt>
<trkpt lat="34.809725" lon="134.10956"><ele>126.18</ele><time>2026-08-11T02:05:23Z</time></trkpt>
<trkpt lat="34.809715" lon="134.109534"><ele>126.83</ele><time>2026-08-11T02:05:25Z</time></trkpt>
<trkpt lat="34.809704" lon="134.10949"><ele>128.2</ele><time>2026-08-11T02:05:29Z</time></trkpt>
<trkpt lat="34.809689" lon="134.109471"><ele>128.2</ele><time>2026-08-11T02:05:32Z</time></trkpt>
<trkpt lat="34.809688" lon="134.109454"><ele>129.38</ele><time>2026-08-11T02:05:34Z</time></trkpt>
<trkpt lat="34.809693" lon="134.109441"><ele>129.38</ele><time>2026-08-11T02:05:38Z</time></trkpt>
<trkpt lat="34.809678" lon="134.109407"><ele>130.31</ele><time>2026-08-11T02:05:41Z</time></trkpt>
<trkpt lat="34.809658" lon="134.109352"><ele>131.63</ele><time>2026-08-11T02:05:46Z</time></trkpt>
<trkpt lat="34.809661" lon="134.109348"><ele>131.63</ele><time>2026-08-11T02:05:47Z</time></trkpt>
<trkpt lat="34.809661" lon="134.109315"><ele>132.77</ele><time>2026-08-11T02:05:51Z</time></trkpt>
<trkpt lat="34.809668" lon="134.109303"><ele>132.77</ele><time>2026-08-11T02:05:53Z</time></trkpt>
<trkpt lat="34.809688" lon="134.10927"><ele>133.64</ele><time>2026-08-11T02:05:57Z</time></trkpt>
<trkpt lat="34.809707" lon="134.109253"><ele>133.64</ele><time>2026-08-11T02:06:00Z</time></trkpt>
<trkpt lat="34.809718" lon="134.109247"><ele>135.06</ele><time>2026-08-11T02:06:02Z</time></trkpt>
<trkpt lat="34.809723" lon="134.109212"><ele>135.06</ele><time>2026-08-11T02:06:07Z</time></trkpt>
<trkpt lat="34.809723" lon="134.109204"><ele>135.95</ele><time>2026-08-11T02:06:09Z</time></trkpt>
<trkpt lat="34.809731" lon="134.109165"><ele>135.95</ele><time>2026-08-11T02:06:13Z</time></trkpt>
<trkpt lat="34.809722" lon="134.109142"><ele>136.86</ele><time>2026-08-11T02:06:16Z</time></trkpt>
<trkpt lat="34.80971" lon="134.109097"><ele>138.64</ele><time>2026-08-11T02:06:20Z</time></trkpt>
<trkpt lat="34.809703" lon="134.109069"><ele>140.05</ele><time>2026-08-11T02:06:22Z</time></trkpt>
<trkpt lat="34.809689" lon="134.109041"><ele>140.05</ele><time>2026-08-11T02:06:26Z</time></trkpt>
<trkpt lat="34.809693" lon="134.109039"><ele>140.05</ele><time>2026-08-11T02:06:28Z</time></trkpt>
<trkpt lat="34.8097" lon="134.109016"><ele>141.2</ele><time>2026-08-11T02:06:31Z</time></trkpt>
<trkpt lat="34.809698" lon="134.108997"><ele>141.2</ele><time>2026-08-11T02:06:33Z</time></trkpt>
<trkpt lat="34.809698" lon="134.108986"><ele>142.0</ele><time>2026-08-11T02:06:34Z</time></trkpt>
<trkpt lat="34.809694" lon="134.108966"><ele>142.0</ele><time>2026-08-11T02:06:37Z</time></trkpt>
<trkpt lat="34.809673" lon="134.108907"><ele>143.69</ele><time>2026-08-11T02:06:42Z</time></trkpt>
<trkpt lat="34.809672" lon="134.108894"><ele>143.86</ele><time>2026-08-11T02:06:43Z</time></trkpt>
<trkpt lat="34.809697" lon="134.108845"><ele>143.71</ele><time>2026-08-11T02:06:48Z</time></trkpt>
<trkpt lat="34.809703" lon="134.108841"><ele>143.71</ele><time>2026-08-11T02:06:50Z</time></trkpt>
<trkpt lat="34.809716" lon="134.10884"><ele>143.71</ele><time>2026-08-11T02:06:53Z</time></trkpt>
<trkpt lat="34.809728" lon="134.108837"><ele>144.64</ele><time>2026-08-11T02:06:57Z</time></trkpt>
<trkpt lat="34.809736" lon="134.108838"><ele>144.64</ele><time>2026-08-11T02:06:58Z</time></trkpt>
<trkpt lat="34.809768" lon="134.10886"><ele>145.92</ele><time>2026-08-11T02:07:03Z</time></trkpt>
<trkpt lat="34.809771" lon="134.10886"><ele>145.92</ele><time>2026-08-11T02:07:04Z</time></trkpt>
<trkpt lat="34.809784" lon="134.108858"><ele>145.92</ele><time>2026-08-11T02:07:09Z</time></trkpt>
<trkpt lat="34.809781" lon="134.108852"><ele>145.92</ele><time>2026-08-11T02:07:11Z</time></trkpt>
<trkpt lat="34.809776" lon="134.10883"><ele>145.92</ele><time>2026-08-11T02:07:15Z</time></trkpt>
<trkpt lat="34.809789" lon="134.108789"><ele>148.04</ele><time>2026-08-11T02:07:21Z</time></trkpt>
<trkpt lat="34.809788" lon="134.108781"><ele>148.04</ele><time>2026-08-11T02:07:22Z</time></trkpt>
<trkpt lat="34.809786" lon="134.108763"><ele>146.56</ele><time>2026-08-11T02:07:25Z</time></trkpt>
<trkpt lat="34.809786" lon="134.10875"><ele>146.56</ele><time>2026-08-11T02:07:30Z</time></trkpt>
<trkpt lat="34.809836" lon="134.108753"><ele>151.06</ele><time>2026-08-11T02:07:35Z</time></trkpt>
<trkpt lat="34.809847" lon="134.108751"><ele>151.06</ele><time>2026-08-11T02:07:37Z</time></trkpt>
<trkpt lat="34.809857" lon="134.108747"><ele>151.06</ele><time>2026-08-11T02:07:39Z</time></trkpt>
<trkpt lat="34.809875" lon="134.108746"><ele>153.25</ele><time>2026-08-11T02:07:43Z</time></trkpt>
<trkpt lat="34.809889" lon="134.108744"><ele>153.25</ele><time>2026-08-11T02:07:46Z</time></trkpt>
<trkpt lat="34.809895" lon="134.108741"><ele>155.19</ele><time>2026-08-11T02:07:47Z</time></trkpt>
<trkpt lat="34.809916" lon="134.108726"><ele>156.19</ele><time>2026-08-11T02:07:52Z</time></trkpt>
<trkpt lat="34.809914" lon="134.108718"><ele>156.19</ele><time>2026-08-11T02:07:54Z</time></trkpt>
<trkpt lat="34.809913" lon="134.108705"><ele>156.19</ele><time>2026-08-11T02:07:57Z</time></trkpt>
<trkpt lat="34.80992" lon="134.108708"><ele>156.19</ele><time>2026-08-11T02:08:00Z</time></trkpt>
<trkpt lat="34.809921" lon="134.108715"><ele>156.19</ele><time>2026-08-11T02:08:01Z</time></trkpt>
<trkpt lat="34.809959" lon="134.10874"><ele>157.1</ele><time>2026-08-11T02:08:07Z</time></trkpt>
<trkpt lat="34.809963" lon="134.108735"><ele>158.92</ele><time>2026-08-11T02:08:10Z</time></trkpt>
<trkpt lat="34.80996" lon="134.108729"><ele>158.29</ele><time>2026-08-11T02:08:11Z</time></trkpt>
<trkpt lat="34.809957" lon="134.108669"><ele>159.21</ele><time>2026-08-11T02:08:16Z</time></trkpt>
<trkpt lat="34.809961" lon="134.108661"><ele>159.21</ele><time>2026-08-11T02:08:18Z</time></trkpt>
<trkpt lat="34.809976" lon="134.108663"><ele>161.37</ele><time>2026-08-11T02:08:21Z</time></trkpt>
<trkpt lat="34.809989" lon="134.108676"><ele>161.37</ele><time>2026-08-11T02:08:23Z</time></trkpt>
<trkpt lat="34.809999" lon="134.108681"><ele>163.46</ele><time>2026-08-11T02:08:27Z</time></trkpt>
<trkpt lat="34.810028" lon="134.108657"><ele>163.46</ele><time>2026-08-11T02:08:31Z</time></trkpt>
<trkpt lat="34.810044" lon="134.108637"><ele>166.39</ele><time>2026-08-11T02:08:35Z</time></trkpt>
<trkpt lat="34.810047" lon="134.108636"><ele>166.39</ele><time>2026-08-11T02:08:36Z</time></trkpt>
<trkpt lat="34.810054" lon="134.10865"><ele>165.56</ele><time>2026-08-11T02:08:39Z</time></trkpt>
<trkpt lat="34.810059" lon="134.108657"><ele>165.56</ele><time>2026-08-11T02:08:40Z</time></trkpt>
<trkpt lat="34.810074" lon="134.108672"><ele>167.69</ele><time>2026-08-11T02:08:42Z</time></trkpt>
<trkpt lat="34.810098" lon="134.108665"><ele>167.69</ele><time>2026-08-11T02:08:47Z</time></trkpt>
<trkpt lat="34.810098" lon="134.108662"><ele>167.69</ele><time>2026-08-11T02:08:48Z</time></trkpt>
<trkpt lat="34.810093" lon="134.108647"><ele>168.7</ele><time>2026-08-11T02:08:51Z</time></trkpt>
<trkpt lat="34.810104" lon="134.108641"><ele>171.15</ele><time>2026-08-11T02:08:55Z</time></trkpt>
<trkpt lat="34.810117" lon="134.108646"><ele>171.15</ele><time>2026-08-11T02:08:58Z</time></trkpt>
<trkpt lat="34.810123" lon="134.108652"><ele>170.07</ele><time>2026-08-11T02:08:59Z</time></trkpt>
<trkpt lat="34.810124" lon="134.108643"><ele>171.15</ele><time>2026-08-11T02:09:02Z</time></trkpt>
<trkpt lat="34.810135" lon="134.108625"><ele>171.15</ele><time>2026-08-11T02:09:05Z</time></trkpt>
<trkpt lat="34.810148" lon="134.108603"><ele>174.75</ele><time>2026-08-11T02:09:08Z</time></trkpt>
<trkpt lat="34.810159" lon="134.108598"><ele>174.75</ele><time>2026-08-11T02:09:10Z</time></trkpt>
<trkpt lat="34.81018" lon="134.1086"><ele>177.49</ele><time>2026-08-11T02:09:13Z</time></trkpt>
<trkpt lat="34.810187" lon="134.108603"><ele>177.49</ele><time>2026-08-11T02:09:14Z</time></trkpt>
<trkpt lat="34.810191" lon="134.108607"><ele>177.22</ele><time>2026-08-11T02:09:15Z</time></trkpt>
<trkpt lat="34.8102" lon="134.108611"><ele>177.22</ele><time>2026-08-11T02:09:17Z</time></trkpt>
<trkpt lat="34.810211" lon="134.108618"><ele>180.18</ele><time>2026-08-11T02:09:20Z</time></trkpt>
<trkpt lat="34.810213" lon="134.108598"><ele>180.51</ele><time>2026-08-11T02:09:23Z</time></trkpt>
<trkpt lat="34.810211" lon="134.108575"><ele>180.51</ele><time>2026-08-11T02:09:27Z</time></trkpt>
<trkpt lat="34.810211" lon="134.108571"><ele>180.51</ele><time>2026-08-11T02:09:28Z</time></trkpt>
<trkpt lat="34.810213" lon="134.108555"><ele>181.66</ele><time>2026-08-11T02:09:32Z</time></trkpt>
<trkpt lat="34.810217" lon="134.108537"><ele>181.66</ele><time>2026-08-11T02:09:36Z</time></trkpt>
<trkpt lat="34.810218" lon="134.108531"><ele>181.66</ele><time>2026-08-11T02:09:37Z</time></trkpt>
<trkpt lat="34.810223" lon="134.108522"><ele>181.66</ele><time>2026-08-11T02:09:42Z</time></trkpt>
<trkpt lat="34.810234" lon="134.108524"><ele>181.66</ele><time>2026-08-11T02:09:44Z</time></trkpt>
<trkpt lat="34.810248" lon="134.108519"><ele>184.86</ele><time>2026-08-11T02:09:47Z</time></trkpt>
<trkpt lat="34.810255" lon="134.108525"><ele>184.49</ele><time>2026-08-11T02:09:49Z</time></trkpt>
<trkpt lat="34.810263" lon="134.108541"><ele>184.49</ele><time>2026-08-11T02:09:52Z</time></trkpt>
<trkpt lat="34.81027" lon="134.108558"><ele>184.49</ele><time>2026-08-11T02:09:58Z</time></trkpt>
<trkpt lat="34.810273" lon="134.108554"><ele>184.49</ele><time>2026-08-11T02:09:59Z</time></trkpt>
<trkpt lat="34.810278" lon="134.108484"><ele>184.86</ele><time>2026-08-11T02:10:05Z</time></trkpt>
<trkpt lat="34.810293" lon="134.108469"><ele>187.19</ele><time>2026-08-11T02:10:09Z</time></trkpt>
<trkpt lat="34.810298" lon="134.108473"><ele>187.19</ele><time>2026-08-11T02:10:10Z</time></trkpt>
<trkpt lat="34.810302" lon="134.108498"><ele>187.72</ele><time>2026-08-11T02:10:13Z</time></trkpt>
<trkpt lat="34.810302" lon="134.108511"><ele>187.72</ele><time>2026-08-11T02:10:14Z</time></trkpt>
<trkpt lat="34.810312" lon="134.108537"><ele>187.83</ele><time>2026-08-11T02:10:17Z</time></trkpt>
<trkpt lat="34.810314" lon="134.10855"><ele>187.83</ele><time>2026-08-11T02:10:19Z</time></trkpt>
<trkpt lat="34.810327" lon="134.108543"><ele>190.78</ele><time>2026-08-11T02:10:23Z</time></trkpt>
<trkpt lat="34.81033" lon="134.10854"><ele>190.78</ele><time>2026-08-11T02:10:24Z</time></trkpt>
<trkpt lat="34.810335" lon="134.108504"><ele>190.63</ele><time>2026-08-11T02:10:28Z</time></trkpt>
<trkpt lat="34.810347" lon="134.108482"><ele>190.63</ele><time>2026-08-11T02:10:30Z</time></trkpt>
<trkpt lat="34.810367" lon="134.108459"><ele>192.91</ele><time>2026-08-11T02:10:34Z</time></trkpt>
<trkpt lat="34.810389" lon="134.108457"><ele>195.34</ele><time>2026-08-11T02:10:37Z</time></trkpt>
<trkpt lat="34.810407" lon="134.10846"><ele>195.34</ele><time>2026-08-11T02:10:41Z</time></trkpt>
<trkpt lat="34.810413" lon="134.108479"><ele>196.22</ele><time>2026-08-11T02:10:44Z</time></trkpt>
<trkpt lat="34.810418" lon="134.108487"><ele>196.22</ele><time>2026-08-11T02:10:45Z</time></trkpt>
<trkpt lat="34.810412" lon="134.108515"><ele>196.22</ele><time>2026-08-11T02:10:48Z</time></trkpt>
<trkpt lat="34.810406" lon="134.108533"><ele>196.68</ele><time>2026-08-11T02:10:51Z</time></trkpt>
<trkpt lat="34.810404" lon="134.108554"><ele>196.68</ele><time>2026-08-11T02:10:54Z</time></trkpt>
<trkpt lat="34.810418" lon="134.108567"><ele>196.52</ele><time>2026-08-11T02:10:58Z</time></trkpt>
<trkpt lat="34.810421" lon="134.108564"><ele>199.37</ele><time>2026-08-11T02:10:59Z</time></trkpt>
<trkpt lat="34.810439" lon="134.108537"><ele>199.35</ele><time>2026-08-11T02:11:04Z</time></trkpt>
<trkpt lat="34.810437" lon="134.108533"><ele>199.35</ele><time>2026-08-11T02:11:05Z</time></trkpt>
<trkpt lat="34.810454" lon="134.108503"><ele>198.87</ele><time>2026-08-11T02:11:09Z</time></trkpt>
<trkpt lat="34.81047" lon="134.108492"><ele>201.52</ele><time>2026-08-11T02:11:12Z</time></trkpt>
<trkpt lat="34.810475" lon="134.108491"><ele>201.52</ele><time>2026-08-11T02:11:13Z</time></trkpt>
<trkpt lat="34.810481" lon="134.108505"><ele>201.52</ele><time>2026-08-11T02:11:17Z</time></trkpt>
<trkpt lat="34.810491" lon="134.108522"><ele>201.82</ele><time>2026-08-11T02:11:20Z</time></trkpt>
<trkpt lat="34.810501" lon="134.10853"><ele>205.08</ele><time>2026-08-11T02:11:25Z</time></trkpt>
<trkpt lat="34.810501" lon="134.108536"><ele>205.08</ele><time>2026-08-11T02:11:26Z</time></trkpt>
<trkpt lat="34.810512" lon="134.108556"><ele>205.08</ele><time>2026-08-11T02:11:30Z</time></trkpt>
<trkpt lat="34.810516" lon="134.108554"><ele>205.08</ele><time>2026-08-11T02:11:31Z</time></trkpt>
<trkpt lat="34.81053" lon="134.108536"><ele>208.08</ele><time>2026-08-11T02:11:34Z</time></trkpt>
<trkpt lat="34.810535" lon="134.108526"><ele>208.08</ele><time>2026-08-11T02:11:37Z</time></trkpt>
<trkpt lat="34.810539" lon="134.108521"><ele>208.08</ele><time>2026-08-11T02:11:39Z</time></trkpt>
<trkpt lat="34.810542" lon="134.10851"><ele>207.94</ele><time>2026-08-11T02:11:41Z</time></trkpt>
<trkpt lat="34.810551" lon="134.108471"><ele>207.4</ele><time>2026-08-11T02:11:46Z</time></trkpt>
<trkpt lat="34.810557" lon="134.108463"><ele>207.4</ele><time>2026-08-11T02:11:49Z</time></trkpt>
<trkpt lat="34.810565" lon="134.108479"><ele>210.77</ele><time>2026-08-11T02:11:53Z</time></trkpt>
<trkpt lat="34.810579" lon="134.108488"><ele>210.77</ele><time>2026-08-11T02:11:55Z</time></trkpt>
<trkpt lat="34.810589" lon="134.108509"><ele>210.77</ele><time>2026-08-11T02:11:59Z</time></trkpt>
<trkpt lat="34.8106" lon="134.108528"><ele>213.13</ele><time>2026-08-11T02:12:02Z</time></trkpt>
<trkpt lat="34.810601" lon="134.108522"><ele>213.13</ele><time>2026-08-11T02:12:06Z</time></trkpt>
<trkpt lat="34.810599" lon="134.108519"><ele>213.23</ele><time>2026-08-11T02:12:07Z</time></trkpt>
<trkpt lat="34.810614" lon="134.108509"><ele>213.23</ele><time>2026-08-11T02:12:12Z</time></trkpt>
<trkpt lat="34.810623" lon="134.108494"><ele>213.23</ele><time>2026-08-11T02:12:15Z</time></trkpt>
<trkpt lat="34.810635" lon="134.108464"><ele>215.33</ele><time>2026-08-11T02:12:19Z</time></trkpt>
<trkpt lat="34.810636" lon="134.108461"><ele>215.33</ele><time>2026-08-11T02:12:22Z</time></trkpt>
<trkpt lat="34.81064" lon="134.108474"><ele>215.33</ele><time>2026-08-11T02:12:24Z</time></trkpt>
<trkpt lat="34.810666" lon="134.108474"><ele>215.33</ele><time>2026-08-11T02:12:28Z</time></trkpt>
<trkpt lat="34.810678" lon="134.108474"><ele>217.72</ele><time>2026-08-11T02:12:29Z</time></trkpt>
<trkpt lat="34.81071" lon="134.108485"><ele>219.9</ele><time>2026-08-11T02:12:33Z</time></trkpt>
<trkpt lat="34.810712" lon="134.108488"><ele>219.9</ele><time>2026-08-11T02:12:34Z</time></trkpt>
<trkpt lat="34.810736" lon="134.108516"><ele>219.9</ele><time>2026-08-11T02:12:37Z</time></trkpt>
<trkpt lat="34.810747" lon="134.108549"><ele>221.34</ele><time>2026-08-11T02:12:40Z</time></trkpt>
<trkpt lat="34.810761" lon="134.108556"><ele>221.34</ele><time>2026-08-11T02:12:43Z</time></trkpt>
<trkpt lat="34.810778" lon="134.108565"><ele>221.88</ele><time>2026-08-11T02:12:46Z</time></trkpt>
<trkpt lat="34.810784" lon="134.108561"><ele>223.08</ele><time>2026-08-11T02:12:47Z</time></trkpt>
<trkpt lat="34.810816" lon="134.108543"><ele>224.56</ele><time>2026-08-11T02:12:52Z</time></trkpt>
<trkpt lat="34.810819" lon="134.108537"><ele>224.56</ele><time>2026-08-11T02:12:55Z</time></trkpt>
<trkpt lat="34.810829" lon="134.108531"><ele>224.56</ele><time>2026-08-11T02:12:57Z</time></trkpt>
<trkpt lat="34.810848" lon="134.10852"><ele>225.85</ele><time>2026-08-11T02:13:01Z</time></trkpt>
<trkpt lat="34.810856" lon="134.108512"><ele>226.73</ele><time>2026-08-11T02:13:02Z</time></trkpt>
<trkpt lat="34.810874" lon="134.108496"><ele>226.73</ele><time>2026-08-11T02:13:05Z</time></trkpt>
<trkpt lat="34.810904" lon="134.108471"><ele>228.31</ele><time>2026-08-11T02:13:10Z</time></trkpt>
<trkpt lat="34.810931" lon="134.108442"><ele>229.34</ele><time>2026-08-11T02:13:15Z</time></trkpt>
<trkpt lat="34.81094" lon="134.108422"><ele>229.74</ele><time>2026-08-11T02:13:19Z</time></trkpt>
<trkpt lat="34.810943" lon="134.108422"><ele>229.74</ele><time>2026-08-11T02:13:20Z</time></trkpt>
<trkpt lat="34.810973" lon="134.108408"><ele>230.86</ele><time>2026-08-11T02:13:25Z</time></trkpt>
<trkpt lat="34.811018" lon="134.108388"><ele>232.29</ele><time>2026-08-11T02:13:32Z</time></trkpt>
<trkpt lat="34.811045" lon="134.108354"><ele>233.34</ele><time>2026-08-11T02:13:37Z</time></trkpt>
<trkpt lat="34.811059" lon="134.108332"><ele>234.94</ele><time>2026-08-11T02:13:40Z</time></trkpt>
<trkpt lat="34.811071" lon="134.108317"><ele>234.94</ele><time>2026-08-11T02:13:42Z</time></trkpt>
<trkpt lat="34.811109" lon="134.108299"><ele>236.65</ele><time>2026-08-11T02:13:48Z</time></trkpt>
<trkpt lat="34.811114" lon="134.10829"><ele>236.65</ele><time>2026-08-11T02:13:49Z</time></trkpt>
<trkpt lat="34.811124" lon="134.10827"><ele>236.65</ele><time>2026-08-11T02:13:53Z</time></trkpt>
<trkpt lat="34.811148" lon="134.108247"><ele>238.47</ele><time>2026-08-11T02:13:57Z</time></trkpt>
<trkpt lat="34.811166" lon="134.108232"><ele>239.64</ele><time>2026-08-11T02:14:02Z</time></trkpt>
<trkpt lat="34.811168" lon="134.108231"><ele>239.64</ele><time>2026-08-11T02:14:03Z</time></trkpt>
<trkpt lat="34.811185" lon="134.108215"><ele>240.23</ele><time>2026-08-11T02:14:07Z</time></trkpt>
<trkpt lat="34.811193" lon="134.108212"><ele>240.23</ele><time>2026-08-11T02:14:10Z</time></trkpt>
<trkpt lat="34.811201" lon="134.108206"><ele>241.48</ele><time>2026-08-11T02:14:12Z</time></trkpt>
<trkpt lat="34.811227" lon="134.108179"><ele>241.48</ele><time>2026-08-11T02:14:18Z</time></trkpt>
<trkpt lat="34.811237" lon="134.108166"><ele>243.49</ele><time>2026-08-11T02:14:20Z</time></trkpt>
<trkpt lat="34.811251" lon="134.108157"><ele>243.49</ele><time>2026-08-11T02:14:23Z</time></trkpt>
<trkpt lat="34.811264" lon="134.108146"><ele>243.49</ele><time>2026-08-11T02:14:26Z</time></trkpt>
<trkpt lat="34.811282" lon="134.108143"><ele>244.08</ele><time>2026-08-11T02:14:28Z</time></trkpt>
<trkpt lat="34.811306" lon="134.10812"><ele>245.69</ele><time>2026-08-11T02:14:33Z</time></trkpt>
<trkpt lat="34.811311" lon="134.108107"><ele>245.69</ele><time>2026-08-11T02:14:34Z</time></trkpt>
<trkpt lat="34.811337" lon="134.108082"><ele>247.09</ele><time>2026-08-11T02:14:39Z</time></trkpt>
<trkpt lat="34.811342" lon="134.108075"><ele>247.09</ele><time>2026-08-11T02:14:40Z</time></trkpt>
<trkpt lat="34.81137" lon="134.10805"><ele>247.09</ele><time>2026-08-11T02:14:46Z</time></trkpt>
<trkpt lat="34.811376" lon="134.108042"><ele>248.34</ele><time>2026-08-11T02:14:47Z</time></trkpt>
<trkpt lat="34.811398" lon="134.108024"><ele>248.34</ele><time>2026-08-11T02:14:51Z</time></trkpt>
<trkpt lat="34.81145" lon="134.107981"><ele>250.2</ele><time>2026-08-11T02:14:56Z</time></trkpt>
<trkpt lat="34.811459" lon="134.107971"><ele>250.2</ele><time>2026-08-11T02:14:57Z</time></trkpt>
<trkpt lat="34.811505" lon="134.107942"><ele>251.01</ele><time>2026-08-11T02:15:04Z</time></trkpt>
<trkpt lat="34.811509" lon="134.107942"><ele>251.01</ele><time>2026-08-11T02:15:05Z</time></trkpt>
<trkpt lat="34.81155" lon="134.107895"><ele>251.95</ele><time>2026-08-11T02:15:12Z</time></trkpt>
<trkpt lat="34.811583" lon="134.107805"><ele>252.51</ele><time>2026-08-11T02:15:18Z</time></trkpt>
<trkpt lat="34.811604" lon="134.107747"><ele>252.93</ele><time>2026-08-11T02:15:21Z</time></trkpt>
<trkpt lat="34.811669" lon="134.10769"><ele>253.37</ele><time>2026-08-11T02:15:26Z</time></trkpt>
<trkpt lat="34.811685" lon="134.107647"><ele>253.61</ele><time>2026-08-11T02:15:29Z</time></trkpt>
<trkpt lat="34.811712" lon="134.1076"><ele>253.96</ele><time>2026-08-11T02:15:32Z</time></trkpt>
<trkpt lat="34.811721" lon="134.107561"><ele>254.2</ele><time>2026-08-11T02:15:34Z</time></trkpt>
<trkpt lat="34.811757" lon="134.107491"><ele>254.58</ele><time>2026-08-11T02:15:38Z</time></trkpt>
<trkpt lat="34.811812" lon="134.107459"><ele>255.11</ele><time>2026-08-11T02:15:42Z</time></trkpt>
<trkpt lat="34.811842" lon="134.107455"><ele>255.05</ele><time>2026-08-11T02:15:44Z</time></trkpt>
<trkpt lat="34.811892" lon="134.107465"><ele>254.82</ele><time>2026-08-11T02:15:48Z</time></trkpt>
<trkpt lat="34.811904" lon="134.107472"><ele>254.49</ele><time>2026-08-11T02:15:49Z</time></trkpt>
<trkpt lat="34.812006" lon="134.107503"><ele>253.28</ele><time>2026-08-11T02:15:55Z</time></trkpt>
<trkpt lat="34.812022" lon="134.107507"><ele>252.9</ele><time>2026-08-11T02:15:56Z</time></trkpt>
<trkpt lat="34.812124" lon="134.107531"><ele>252.36</ele><time>2026-08-11T02:16:01Z</time></trkpt>
<trkpt lat="34.812187" lon="134.107547"><ele>252.45</ele><time>2026-08-11T02:16:04Z</time></trkpt>
<trkpt lat="34.812205" lon="134.107548"><ele>252.45</ele><time>2026-08-11T02:16:05Z</time></trkpt>
<trkpt lat="34.812275" lon="134.107577"><ele>253.08</ele><time>2026-08-11T02:16:10Z</time></trkpt>
<trkpt lat="34.8123" lon="134.107591"><ele>253.56</ele><time>2026-08-11T02:16:12Z</time></trkpt>
<trkpt lat="34.81235" lon="134.107589"><ele>254.06</ele><time>2026-08-11T02:16:17Z</time></trkpt>
<trkpt lat="34.812445" lon="134.107566"><ele>255.73</ele><time>2026-08-11T02:16:25Z</time></trkpt>
<trkpt lat="34.812455" lon="134.107563"><ele>255.73</ele><time>2026-08-11T02:16:26Z</time></trkpt>
<trkpt lat="34.812467" lon="134.107559"><ele>256.29</ele><time>2026-08-11T02:16:27Z</time></trkpt>
<trkpt lat="34.812517" lon="134.107566"><ele>256.8</ele><time>2026-08-11T02:16:31Z</time></trkpt>
<trkpt lat="34.812533" lon="134.107573"><ele>256.8</ele><time>2026-08-11T02:16:33Z</time></trkpt>
<trkpt lat="34.812582" lon="134.107555"><ele>257.87</ele><time>2026-08-11T02:16:38Z</time></trkpt>
<trkpt lat="34.812637" lon="134.107565"><ele>258.37</ele><time>2026-08-11T02:16:44Z</time></trkpt>
<trkpt lat="34.812664" lon="134.10756"><ele>258.78</ele><time>2026-08-11T02:16:46Z</time></trkpt>
<trkpt lat="34.812743" lon="134.107535"><ele>259.39</ele><time>2026-08-11T02:16:54Z</time></trkpt>
<trkpt lat="34.812759" lon="134.107534"><ele>259.64</ele><time>2026-08-11T02:16:55Z</time></trkpt>
<trkpt lat="34.812816" lon="134.107497"><ele>260.2</ele><time>2026-08-11T02:17:01Z</time></trkpt>
<trkpt lat="34.812862" lon="134.107475"><ele>260.96</ele><time>2026-08-11T02:17:05Z</time></trkpt>
<trkpt lat="34.812912" lon="134.107461"><ele>261.15</ele><time>2026-08-11T02:17:10Z</time></trkpt>
<trkpt lat="34.812944" lon="134.107445"><ele>261.84</ele><time>2026-08-11T02:17:13Z</time></trkpt>
<trkpt lat="34.813028" lon="134.107407"><ele>262.66</ele><time>2026-08-11T02:17:21Z</time></trkpt>
<trkpt lat="34.813077" lon="134.107381"><ele>264.12</ele><time>2026-08-11T02:17:26Z</time></trkpt>
<trkpt lat="34.813091" lon="134.107366"><ele>264.12</ele><time>2026-08-11T02:17:28Z</time></trkpt>
<trkpt lat="34.813122" lon="134.107359"><ele>265.05</ele><time>2026-08-11T02:17:32Z</time></trkpt>
<trkpt lat="34.813152" lon="134.107349"><ele>265.9</ele><time>2026-08-11T02:17:36Z</time></trkpt>
<trkpt lat="34.813159" lon="134.107349"><ele>265.9</ele><time>2026-08-11T02:17:37Z</time></trkpt>
<trkpt lat="34.813193" lon="134.107342"><ele>266.78</ele><time>2026-08-11T02:17:41Z</time></trkpt>
<trkpt lat="34.813218" lon="134.10733"><ele>267.73</ele><time>2026-08-11T02:17:45Z</time></trkpt>
<trkpt lat="34.813224" lon="134.107328"><ele>267.73</ele><time>2026-08-11T02:17:46Z</time></trkpt>
<trkpt lat="34.813259" lon="134.10731"><ele>268.76</ele><time>2026-08-11T02:17:51Z</time></trkpt>
<trkpt lat="34.813275" lon="134.107305"><ele>269.71</ele><time>2026-08-11T02:17:53Z</time></trkpt>
<trkpt lat="34.813304" lon="134.107294"><ele>269.71</ele><time>2026-08-11T02:17:56Z</time></trkpt>
<trkpt lat="34.813322" lon="134.107273"><ele>271.01</ele><time>2026-08-11T02:18:00Z</time></trkpt>
<trkpt lat="34.813333" lon="134.107263"><ele>271.01</ele><time>2026-08-11T02:18:02Z</time></trkpt>
<trkpt lat="34.813354" lon="134.107245"><ele>272.0</ele><time>2026-08-11T02:18:06Z</time></trkpt>
<trkpt lat="34.813369" lon="134.107236"><ele>272.0</ele><time>2026-08-11T02:18:08Z</time></trkpt>
<trkpt lat="34.813394" lon="134.107212"><ele>273.34</ele><time>2026-08-11T02:18:12Z</time></trkpt>
<trkpt lat="34.813432" lon="134.107187"><ele>274.62</ele><time>2026-08-11T02:18:18Z</time></trkpt>
<trkpt lat="34.813491" lon="134.107164"><ele>276.01</ele><time>2026-08-11T02:18:24Z</time></trkpt>
<trkpt lat="34.813495" lon="134.107166"><ele>276.01</ele><time>2026-08-11T02:18:25Z</time></trkpt>
<trkpt lat="34.813531" lon="134.107145"><ele>277.23</ele><time>2026-08-11T02:18:30Z</time></trkpt>
<trkpt lat="34.81354" lon="134.107143"><ele>277.23</ele><time>2026-08-11T02:18:31Z</time></trkpt>
<trkpt lat="34.813571" lon="134.107156"><ele>277.57</ele><time>2026-08-11T02:18:36Z</time></trkpt>
<trkpt lat="34.813573" lon="134.107158"><ele>277.57</ele><time>2026-08-11T02:18:38Z</time></trkpt>
<trkpt lat="34.813591" lon="134.107148"><ele>277.57</ele><time>2026-08-11T02:18:44Z</time></trkpt>
<trkpt lat="34.813598" lon="134.107134"><ele>278.62</ele><time>2026-08-11T02:18:48Z</time></trkpt>
<trkpt lat="34.813632" lon="134.10711"><ele>279.07</ele><time>2026-08-11T02:18:53Z</time></trkpt>
<trkpt lat="34.813653" lon="134.107102"><ele>279.59</ele><time>2026-08-11T02:18:55Z</time></trkpt>
<trkpt lat="34.813663" lon="134.1071"><ele>280.1</ele><time>2026-08-11T02:18:56Z</time></trkpt>
<trkpt lat="34.813699" lon="134.107088"><ele>280.46</ele><time>2026-08-11T02:19:00Z</time></trkpt>
<trkpt lat="34.813719" lon="134.107082"><ele>280.46</ele><time>2026-08-11T02:19:02Z</time></trkpt>
<trkpt lat="34.813745" lon="134.107078"><ele>280.72</ele><time>2026-08-11T02:19:04Z</time></trkpt>
<trkpt lat="34.813826" lon="134.107024"><ele>281.09</ele><time>2026-08-11T02:19:11Z</time></trkpt>
<trkpt lat="34.813845" lon="134.107035"><ele>281.06</ele><time>2026-08-11T02:19:12Z</time></trkpt>
<trkpt lat="34.813874" lon="134.107075"><ele>280.84</ele><time>2026-08-11T02:19:14Z</time></trkpt>
<trkpt lat="34.813923" lon="134.107125"><ele>280.49</ele><time>2026-08-11T02:19:17Z</time></trkpt>
<trkpt lat="34.814011" lon="134.107207"><ele>279.11</ele><time>2026-08-11T02:19:23Z</time></trkpt>
<trkpt lat="34.814021" lon="134.107219"><ele>278.48</ele><time>2026-08-11T02:19:24Z</time></trkpt>
<trkpt lat="34.814073" lon="134.107253"><ele>277.22</ele><time>2026-08-11T02:19:27Z</time></trkpt>
<trkpt lat="34.814113" lon="134.107282"><ele>275.91</ele><time>2026-08-11T02:19:29Z</time></trkpt>
<trkpt lat="34.814153" lon="134.107302"><ele>275.02</ele><time>2026-08-11T02:19:31Z</time></trkpt>
<trkpt lat="34.814164" lon="134.107307"><ele>274.27</ele><time>2026-08-11T02:19:32Z</time></trkpt>
<trkpt lat="34.81418" lon="134.107312"><ele>274.27</ele><time>2026-08-11T02:19:33Z</time></trkpt>
<trkpt lat="34.814216" lon="134.107339"><ele>273.37</ele><time>2026-08-11T02:19:35Z</time></trkpt>
<trkpt lat="34.814269" lon="134.107388"><ele>272.05</ele><time>2026-08-11T02:19:38Z</time></trkpt>
<trkpt lat="34.814285" lon="134.107401"><ele>272.05</ele><time>2026-08-11T02:19:39Z</time></trkpt>
<trkpt lat="34.814337" lon="134.107429"><ele>271.77</ele><time>2026-08-11T02:19:42Z</time></trkpt>
<trkpt lat="34.814366" lon="134.107439"><ele>271.77</ele><time>2026-08-11T02:19:44Z</time></trkpt>
<trkpt lat="34.814387" lon="134.107436"><ele>271.67</ele><time>2026-08-11T02:19:45Z</time></trkpt>
<trkpt lat="34.814498" lon="134.107415"><ele>272.18</ele><time>2026-08-11T02:19:50Z</time></trkpt>
<trkpt lat="34.814584" lon="134.107429"><ele>272.95</ele><time>2026-08-11T02:19:54Z</time></trkpt>
<trkpt lat="34.81463" lon="134.107432"><ele>273.14</ele><time>2026-08-11T02:19:56Z</time></trkpt>
<trkpt lat="34.81472" lon="134.107441"><ele>271.36</ele><time>2026-08-11T02:20:01Z</time></trkpt>
<trkpt lat="34.814754" lon="134.107449"><ele>272.93</ele><time>2026-08-11T02:20:02Z</time></trkpt>
<trkpt lat="34.814821" lon="134.107473"><ele>270.81</ele><time>2026-08-11T02:20:06Z</time></trkpt>
<trkpt lat="34.814858" lon="134.107467"><ele>270.86</ele><time>2026-08-11T02:20:08Z</time></trkpt>
<trkpt lat="34.815005" lon="134.107446"><ele>271.78</ele><time>2026-08-11T02:20:16Z</time></trkpt>
<trkpt lat="34.815175" lon="134.107378"><ele>272.2</ele><time>2026-08-11T02:20:25Z</time></trkpt>
<trkpt lat="34.815199" lon="134.107373"><ele>272.69</ele><time>2026-08-11T02:20:26Z</time></trkpt>
<trkpt lat="34.815233" lon="134.107378"><ele>273.0</ele><time>2026-08-11T02:20:28Z</time></trkpt>
<trkpt lat="34.815303" lon="134.107346"><ele>272.63</ele><time>2026-08-11T02:20:32Z</time></trkpt>
<trkpt lat="34.815426" lon="134.107299"><ele>273.02</ele><time>2026-08-11T02:20:39Z</time></trkpt>
<trkpt lat="34.8155" lon="134.107241"><ele>273.43</ele><time>2026-08-11T02:20:44Z</time></trkpt>
<trkpt lat="34.815501" lon="134.107238"><ele>273.43</ele><time>2026-08-11T02:20:45Z</time></trkpt>
<trkpt lat="34.815516" lon="134.107205"><ele>274.15</ele><time>2026-08-11T02:20:49Z</time></trkpt>
<trkpt lat="34.815551" lon="134.107172"><ele>275.67</ele><time>2026-08-11T02:20:53Z</time></trkpt>
<trkpt lat="34.815562" lon="134.107154"><ele>275.67</ele><time>2026-08-11T02:20:54Z</time></trkpt>
<trkpt lat="34.815589" lon="134.107135"><ele>276.88</ele><time>2026-08-11T02:20:59Z</time></trkpt>
<trkpt lat="34.815597" lon="134.107131"><ele>276.88</ele><time>2026-08-11T02:21:00Z</time></trkpt>
<trkpt lat="34.815646" lon="134.107086"><ele>278.69</ele><time>2026-08-11T02:21:06Z</time></trkpt>
<trkpt lat="34.815665" lon="134.10708"><ele>278.69</ele><time>2026-08-11T02:21:08Z</time></trkpt>
<trkpt lat="34.815683" lon="134.107052"><ele>279.7</ele><time>2026-08-11T02:21:11Z</time></trkpt>
<trkpt lat="34.815723" lon="134.107017"><ele>280.46</ele><time>2026-08-11T02:21:16Z</time></trkpt>
<trkpt lat="34.815736" lon="134.10701"><ele>280.46</ele><time>2026-08-11T02:21:17Z</time></trkpt>
<trkpt lat="34.815751" lon="134.107"><ele>280.9</ele><time>2026-08-11T02:21:18Z</time></trkpt>
<trkpt lat="34.815799" lon="134.106974"><ele>281.12</ele><time>2026-08-11T02:21:22Z</time></trkpt>
<trkpt lat="34.815916" lon="134.106961"><ele>281.32</ele><time>2026-08-11T02:21:30Z</time></trkpt>
<trkpt lat="34.815933" lon="134.106967"><ele>281.37</ele><time>2026-08-11T02:21:31Z</time></trkpt>
<trkpt lat="34.816021" lon="134.10698"><ele>281.62</ele><time>2026-08-11T02:21:38Z</time></trkpt>
<trkpt lat="34.816029" lon="134.106959"><ele>281.8</ele><time>2026-08-11T02:21:40Z</time></trkpt>
<trkpt lat="34.816034" lon="134.106945"><ele>281.8</ele><time>2026-08-11T02:21:43Z</time></trkpt>
<trkpt lat="34.816049" lon="134.10692"><ele>281.52</ele><time>2026-08-11T02:21:45Z</time></trkpt>
<trkpt lat="34.816105" lon="134.106872"><ele>281.77</ele><time>2026-08-11T02:21:49Z</time></trkpt>
<trkpt lat="34.816133" lon="134.10684"><ele>281.8</ele><time>2026-08-11T02:21:51Z</time></trkpt>
<trkpt lat="34.816206" lon="134.106771"><ele>282.68</ele><time>2026-08-11T02:21:56Z</time></trkpt>
<trkpt lat="34.816236" lon="134.106737"><ele>282.78</ele><time>2026-08-11T02:21:58Z</time></trkpt>
<trkpt lat="34.816267" lon="134.10671"><ele>281.78</ele><time>2026-08-11T02:22:00Z</time></trkpt>
<trkpt lat="34.816301" lon="134.10669"><ele>282.67</ele><time>2026-08-11T02:22:02Z</time></trkpt>
<trkpt lat="34.816326" lon="134.106662"><ele>282.4</ele><time>2026-08-11T02:22:04Z</time></trkpt>
<trkpt lat="34.816373" lon="134.106609"><ele>282.35</ele><time>2026-08-11T02:22:07Z</time></trkpt>
<trkpt lat="34.816389" lon="134.106596"><ele>282.83</ele><time>2026-08-11T02:22:08Z</time></trkpt>
<trkpt lat="34.816421" lon="134.106579"><ele>282.6</ele><time>2026-08-11T02:22:10Z</time></trkpt>
<trkpt lat="34.81655" lon="134.106419"><ele>283.35</ele><time>2026-08-11T02:22:18Z</time></trkpt>
<trkpt lat="34.816558" lon="134.106399"><ele>283.94</ele><time>2026-08-11T02:22:19Z</time></trkpt>
<trkpt lat="34.816571" lon="134.106363"><ele>284.25</ele><time>2026-08-11T02:22:21Z</time></trkpt>
<trkpt lat="34.816607" lon="134.106301"><ele>285.03</ele><time>2026-08-11T02:22:26Z</time></trkpt>
<trkpt lat="34.816616" lon="134.106283"><ele>285.43</ele><time>2026-08-11T02:22:27Z</time></trkpt>
<trkpt lat="34.816658" lon="134.106226"><ele>286.69</ele><time>2026-08-11T02:22:31Z</time></trkpt>
<trkpt lat="34.816704" lon="134.106201"><ele>287.21</ele><time>2026-08-11T02:22:35Z</time></trkpt>
<trkpt lat="34.816745" lon="134.106161"><ele>287.29</ele><time>2026-08-11T02:22:38Z</time></trkpt>
<trkpt lat="34.816793" lon="134.106104"><ele>286.98</ele><time>2026-08-11T02:22:43Z</time></trkpt>
<trkpt lat="34.816943" lon="134.105996"><ele>285.47</ele><time>2026-08-11T02:22:52Z</time></trkpt>
<trkpt lat="34.817048" lon="134.105884"><ele>285.05</ele><time>2026-08-11T02:22:59Z</time></trkpt>
<trkpt lat="34.817133" lon="134.105772"><ele>285.43</ele><time>2026-08-11T02:23:06Z</time></trkpt>
<trkpt lat="34.817197" lon="134.105711"><ele>285.87</ele><time>2026-08-11T02:23:11Z</time></trkpt>
<trkpt lat="34.817248" lon="134.105639"><ele>286.41</ele><time>2026-08-11T02:23:16Z</time></trkpt>
<trkpt lat="34.817277" lon="134.105607"><ele>286.53</ele><time>2026-08-11T02:23:18Z</time></trkpt>
<trkpt lat="34.817304" lon="134.105573"><ele>286.91</ele><time>2026-08-11T02:23:20Z</time></trkpt>
<trkpt lat="34.817355" lon="134.105468"><ele>286.28</ele><time>2026-08-11T02:23:25Z</time></trkpt>
<trkpt lat="34.817455" lon="134.105328"><ele>286.95</ele><time>2026-08-11T02:23:33Z</time></trkpt>
<trkpt lat="34.817458" lon="134.10528"><ele>286.81</ele><time>2026-08-11T02:23:35Z</time></trkpt>
<trkpt lat="34.817457" lon="134.105257"><ele>286.58</ele><time>2026-08-11T02:23:36Z</time></trkpt>
<trkpt lat="34.817469" lon="134.105219"><ele>286.64</ele><time>2026-08-11T02:23:38Z</time></trkpt>
<trkpt lat="34.817502" lon="134.105072"><ele>285.93</ele><time>2026-08-11T02:23:44Z</time></trkpt>
<trkpt lat="34.817511" lon="134.105023"><ele>285.25</ele><time>2026-08-11T02:23:46Z</time></trkpt>
<trkpt lat="34.817523" lon="134.104942"><ele>285.01</ele><time>2026-08-11T02:23:49Z</time></trkpt>
<trkpt lat="34.817565" lon="134.104823"><ele>284.09</ele><time>2026-08-11T02:23:54Z</time></trkpt>
<trkpt lat="34.817632" lon="134.104664"><ele>282.89</ele><time>2026-08-11T02:24:01Z</time></trkpt>
<trkpt lat="34.817706" lon="134.104602"><ele>281.9</ele><time>2026-08-11T02:24:06Z</time></trkpt>
<trkpt lat="34.817719" lon="134.104585"><ele>280.79</ele><time>2026-08-11T02:24:07Z</time></trkpt>
<trkpt lat="34.817743" lon="134.104569"><ele>281.27</ele><time>2026-08-11T02:24:09Z</time></trkpt>
<trkpt lat="34.817773" lon="134.104564"><ele>280.24</ele><time>2026-08-11T02:24:11Z</time></trkpt>
<trkpt lat="34.817787" lon="134.104561"><ele>279.07</ele><time>2026-08-11T02:24:12Z</time></trkpt>
<trkpt lat="34.817809" lon="134.104551"><ele>279.07</ele><time>2026-08-11T02:24:14Z</time></trkpt>
<trkpt lat="34.817836" lon="134.10454"><ele>277.25</ele><time>2026-08-11T02:24:16Z</time></trkpt>
<trkpt lat="34.817863" lon="134.104535"><ele>275.39</ele><time>2026-08-11T02:24:18Z</time></trkpt>
<trkpt lat="34.817881" lon="134.104517"><ele>276.1</ele><time>2026-08-11T02:24:20Z</time></trkpt>
<trkpt lat="34.817887" lon="134.104504"><ele>276.1</ele><time>2026-08-11T02:24:21Z</time></trkpt>
<trkpt lat="34.817903" lon="134.104476"><ele>275.14</ele><time>2026-08-11T02:24:23Z</time></trkpt>
<trkpt lat="34.81791" lon="134.104467"><ele>275.14</ele><time>2026-08-11T02:24:24Z</time></trkpt>
<trkpt lat="34.817921" lon="134.10446"><ele>275.14</ele><time>2026-08-11T02:24:25Z</time></trkpt>
<trkpt lat="34.817958" lon="134.10444"><ele>272.29</ele><time>2026-08-11T02:24:28Z</time></trkpt>
<trkpt lat="34.817986" lon="134.104434"><ele>271.24</ele><time>2026-08-11T02:24:30Z</time></trkpt>
<trkpt lat="34.817998" lon="134.104436"><ele>270.23</ele><time>2026-08-11T02:24:31Z</time></trkpt>
<trkpt lat="34.81802" lon="134.104433"><ele>270.23</ele><time>2026-08-11T02:24:33Z</time></trkpt>
<trkpt lat="34.818027" lon="134.104429"><ele>270.23</ele><time>2026-08-11T02:24:34Z</time></trkpt>
<trkpt lat="34.818037" lon="134.104423"><ele>268.58</ele><time>2026-08-11T02:24:35Z</time></trkpt>
<trkpt lat="34.818045" lon="134.104422"><ele>268.58</ele><time>2026-08-11T02:24:37Z</time></trkpt>
<trkpt lat="34.818052" lon="134.104424"><ele>268.58</ele><time>2026-08-11T02:24:38Z</time></trkpt>
<trkpt lat="34.81807" lon="134.104422"><ele>266.52</ele><time>2026-08-11T02:24:40Z</time></trkpt>
<trkpt lat="34.818076" lon="134.104425"><ele>266.52</ele><time>2026-08-11T02:24:41Z</time></trkpt>
<trkpt lat="34.818089" lon="134.104423"><ele>266.52</ele><time>2026-08-11T02:24:43Z</time></trkpt>
<trkpt lat="34.818096" lon="134.10442"><ele>266.52</ele><time>2026-08-11T02:24:44Z</time></trkpt>
<trkpt lat="34.818107" lon="134.104416"><ele>264.7</ele><time>2026-08-11T02:24:45Z</time></trkpt>
<trkpt lat="34.818122" lon="134.104394"><ele>263.6</ele><time>2026-08-11T02:24:47Z</time></trkpt>
<trkpt lat="34.818126" lon="134.104365"><ele>263.6</ele><time>2026-08-11T02:24:49Z</time></trkpt>
<trkpt lat="34.818125" lon="134.104351"><ele>261.93</ele><time>2026-08-11T02:24:50Z</time></trkpt>
<trkpt lat="34.818129" lon="134.104336"><ele>261.93</ele><time>2026-08-11T02:24:51Z</time></trkpt>
<trkpt lat="34.818131" lon="134.104319"><ele>261.93</ele><time>2026-08-11T02:24:52Z</time></trkpt>
<trkpt lat="34.818138" lon="134.104305"><ele>258.65</ele><time>2026-08-11T02:24:53Z</time></trkpt>
<trkpt lat="34.818144" lon="134.104299"><ele>258.65</ele><time>2026-08-11T02:24:54Z</time></trkpt>
<trkpt lat="34.818151" lon="134.104292"><ele>258.65</ele><time>2026-08-11T02:24:55Z</time></trkpt>
<trkpt lat="34.818174" lon="134.104275"><ele>257.12</ele><time>2026-08-11T02:24:58Z</time></trkpt>
<trkpt lat="34.81819" lon="134.104257"><ele>255.82</ele><time>2026-08-11T02:25:01Z</time></trkpt>
<trkpt lat="34.818184" lon="134.104243"><ele>255.82</ele><time>2026-08-11T02:25:03Z</time></trkpt>
<trkpt lat="34.818184" lon="134.104234"><ele>255.82</ele><time>2026-08-11T02:25:04Z</time></trkpt>
<trkpt lat="34.818213" lon="134.104224"><ele>252.26</ele><time>2026-08-11T02:25:08Z</time></trkpt>
<trkpt lat="34.81822" lon="134.104223"><ele>252.26</ele><time>2026-08-11T02:25:09Z</time></trkpt>
<trkpt lat="34.818226" lon="134.104222"><ele>252.26</ele><time>2026-08-11T02:25:10Z</time></trkpt>
<trkpt lat="34.818236" lon="134.104206"><ele>252.26</ele><time>2026-08-11T02:25:13Z</time></trkpt>
<trkpt lat="34.818254" lon="134.104196"><ele>251.05</ele><time>2026-08-11T02:25:16Z</time></trkpt>
<trkpt lat="34.818262" lon="134.104184"><ele>248.79</ele><time>2026-08-11T02:25:19Z</time></trkpt>
<trkpt lat="34.818265" lon="134.104163"><ele>248.79</ele><time>2026-08-11T02:25:23Z</time></trkpt>
<trkpt lat="34.818262" lon="134.104155"><ele>248.79</ele><time>2026-08-11T02:25:24Z</time></trkpt>
<trkpt lat="34.818277" lon="134.104139"><ele>246.06</ele><time>2026-08-11T02:25:26Z</time></trkpt>
<trkpt lat="34.818288" lon="134.104133"><ele>245.59</ele><time>2026-08-11T02:25:27Z</time></trkpt>
<trkpt lat="34.818298" lon="134.104138"><ele>245.59</ele><time>2026-08-11T02:25:28Z</time></trkpt>
<trkpt lat="34.818308" lon="134.104137"><ele>245.59</ele><time>2026-08-11T02:25:29Z</time></trkpt>
<trkpt lat="34.818321" lon="134.104137"><ele>244.67</ele><time>2026-08-11T02:25:30Z</time></trkpt>
<trkpt lat="34.818339" lon="134.104139"><ele>244.67</ele><time>2026-08-11T02:25:32Z</time></trkpt>
<trkpt lat="34.818344" lon="134.104124"><ele>244.67</ele><time>2026-08-11T02:25:35Z</time></trkpt>
<trkpt lat="34.818344" lon="134.104115"><ele>244.67</ele><time>2026-08-11T02:25:36Z</time></trkpt>
<trkpt lat="34.818344" lon="134.104106"><ele>244.67</ele><time>2026-08-11T02:25:38Z</time></trkpt>
<trkpt lat="34.81835" lon="134.104097"><ele>241.62</ele><time>2026-08-11T02:25:42Z</time></trkpt>
<trkpt lat="34.818354" lon="134.104085"><ele>241.62</ele><time>2026-08-11T02:25:45Z</time></trkpt>
<trkpt lat="34.818361" lon="134.104062"><ele>241.62</ele><time>2026-08-11T02:25:48Z</time></trkpt>
<trkpt lat="34.818368" lon="134.104052"><ele>238.95</ele><time>2026-08-11T02:25:50Z</time></trkpt>
<trkpt lat="34.818377" lon="134.104043"><ele>238.95</ele><time>2026-08-11T02:25:52Z</time></trkpt>
<trkpt lat="34.81843" lon="134.104027"><ele>237.03</ele><time>2026-08-11T02:25:57Z</time></trkpt>
<trkpt lat="34.818442" lon="134.104012"><ele>235.09</ele><time>2026-08-11T02:25:59Z</time></trkpt>
<trkpt lat="34.818452" lon="134.104001"><ele>235.09</ele><time>2026-08-11T02:26:01Z</time></trkpt>
<trkpt lat="34.818461" lon="134.103998"><ele>233.9</ele><time>2026-08-11T02:26:02Z</time></trkpt>
<trkpt lat="34.818466" lon="134.103995"><ele>233.9</ele><time>2026-08-11T02:26:03Z</time></trkpt>
<trkpt lat="34.818474" lon="134.103976"><ele>233.9</ele><time>2026-08-11T02:26:05Z</time></trkpt>
<trkpt lat="34.81847" lon="134.103974"><ele>233.9</ele><time>2026-08-11T02:26:06Z</time></trkpt>
<trkpt lat="34.81847" lon="134.103963"><ele>232.2</ele><time>2026-08-11T02:26:07Z</time></trkpt>
<trkpt lat="34.81848" lon="134.103924"><ele>230.41</ele><time>2026-08-11T02:26:10Z</time></trkpt>
<trkpt lat="34.818498" lon="134.103903"><ele>229.68</ele><time>2026-08-11T02:26:12Z</time></trkpt>
<trkpt lat="34.818532" lon="134.103875"><ele>227.49</ele><time>2026-08-11T02:26:15Z</time></trkpt>
<trkpt lat="34.818562" lon="134.10385"><ele>226.79</ele><time>2026-08-11T02:26:17Z</time></trkpt>
<trkpt lat="34.818578" lon="134.103834"><ele>225.62</ele><time>2026-08-11T02:26:18Z</time></trkpt>
<trkpt lat="34.818607" lon="134.103827"><ele>225.34</ele><time>2026-08-11T02:26:20Z</time></trkpt>
<trkpt lat="34.818636" lon="134.103788"><ele>224.46</ele><time>2026-08-11T02:26:22Z</time></trkpt>
<trkpt lat="34.818653" lon="134.103765"><ele>224.46</ele><time>2026-08-11T02:26:23Z</time></trkpt>
<trkpt lat="34.818676" lon="134.103754"><ele>223.36</ele><time>2026-08-11T02:26:24Z</time></trkpt>
<trkpt lat="34.818771" lon="134.10371"><ele>223.84</ele><time>2026-08-11T02:26:29Z</time></trkpt>
<trkpt lat="34.818801" lon="134.103684"><ele>223.96</ele><time>2026-08-11T02:26:31Z</time></trkpt>
<trkpt lat="34.818831" lon="134.103646"><ele>224.04</ele><time>2026-08-11T02:26:33Z</time></trkpt>
<trkpt lat="34.818843" lon="134.103625"><ele>223.7</ele><time>2026-08-11T02:26:34Z</time></trkpt>
<trkpt lat="34.818856" lon="134.103605"><ele>223.7</ele><time>2026-08-11T02:26:35Z</time></trkpt>
<trkpt lat="34.818868" lon="134.103591"><ele>223.7</ele><time>2026-08-11T02:26:36Z</time></trkpt>
<trkpt lat="34.818886" lon="134.103552"><ele>223.07</ele><time>2026-08-11T02:26:38Z</time></trkpt>
<trkpt lat="34.818897" lon="134.10349"><ele>222.77</ele><time>2026-08-11T02:26:41Z</time></trkpt>
<trkpt lat="34.818902" lon="134.103471"><ele>222.77</ele><time>2026-08-11T02:26:42Z</time></trkpt>
<trkpt lat="34.818917" lon="134.103414"><ele>222.11</ele><time>2026-08-11T02:26:45Z</time></trkpt>
<trkpt lat="34.818941" lon="134.103373"><ele>221.64</ele><time>2026-08-11T02:26:47Z</time></trkpt>
<trkpt lat="34.81896" lon="134.103358"><ele>221.8</ele><time>2026-08-11T02:26:48Z</time></trkpt>
<trkpt lat="34.819019" lon="134.103297"><ele>221.23</ele><time>2026-08-11T02:26:52Z</time></trkpt>
<trkpt lat="34.819033" lon="134.103259"><ele>220.98</ele><time>2026-08-11T02:26:54Z</time></trkpt>
<trkpt lat="34.81903" lon="134.103237"><ele>220.35</ele><time>2026-08-11T02:26:55Z</time></trkpt>
<trkpt lat="34.819016" lon="134.103187"><ele>219.14</ele><time>2026-08-11T02:26:57Z</time></trkpt>
<trkpt lat="34.819018" lon="134.103155"><ele>217.9</ele><time>2026-08-11T02:26:59Z</time></trkpt>
<trkpt lat="34.819013" lon="134.103135"><ele>217.66</ele><time>2026-08-11T02:27:00Z</time></trkpt>
<trkpt lat="34.818998" lon="134.103109"><ele>216.07</ele><time>2026-08-11T02:27:02Z</time></trkpt>
<trkpt lat="34.818987" lon="134.103073"><ele>216.07</ele><time>2026-08-11T02:27:04Z</time></trkpt>
<trkpt lat="34.818985" lon="134.103041"><ele>214.01</ele><time>2026-08-11T02:27:06Z</time></trkpt>
<trkpt lat="34.818975" lon="134.103013"><ele>211.86</ele><time>2026-08-11T02:27:08Z</time></trkpt>
<trkpt lat="34.818971" lon="134.102985"><ele>211.86</ele><time>2026-08-11T02:27:10Z</time></trkpt>
<trkpt lat="34.818961" lon="134.102966"><ele>209.97</ele><time>2026-08-11T02:27:12Z</time></trkpt>
<trkpt lat="34.818946" lon="134.102957"><ele>209.29</ele><time>2026-08-11T02:27:14Z</time></trkpt>
<trkpt lat="34.818929" lon="134.102937"><ele>207.23</ele><time>2026-08-11T02:27:16Z</time></trkpt>
<trkpt lat="34.818918" lon="134.102919"><ele>207.23</ele><time>2026-08-11T02:27:18Z</time></trkpt>
<trkpt lat="34.818893" lon="134.102897"><ele>204.86</ele><time>2026-08-11T02:27:21Z</time></trkpt>
<trkpt lat="34.81889" lon="134.102887"><ele>204.86</ele><time>2026-08-11T02:27:22Z</time></trkpt>
<trkpt lat="34.818886" lon="134.102877"><ele>204.86</ele><time>2026-08-11T02:27:23Z</time></trkpt>
<trkpt lat="34.81888" lon="134.102866"><ele>204.86</ele><time>2026-08-11T02:27:24Z</time></trkpt>
<trkpt lat="34.81888" lon="134.102861"><ele>204.86</ele><time>2026-08-11T02:27:25Z</time></trkpt>
<trkpt lat="34.818884" lon="134.102831"><ele>203.13</ele><time>2026-08-11T02:27:27Z</time></trkpt>
<trkpt lat="34.818885" lon="134.102812"><ele>203.13</ele><time>2026-08-11T02:27:28Z</time></trkpt>
<trkpt lat="34.818888" lon="134.102799"><ele>201.25</ele><time>2026-08-11T02:27:29Z</time></trkpt>
<trkpt lat="34.818891" lon="134.10277"><ele>201.25</ele><time>2026-08-11T02:27:31Z</time></trkpt>
<trkpt lat="34.818884" lon="134.102747"><ele>199.16</ele><time>2026-08-11T02:27:33Z</time></trkpt>
<trkpt lat="34.818874" lon="134.102724"><ele>196.72</ele><time>2026-08-11T02:27:35Z</time></trkpt>
<trkpt lat="34.818871" lon="134.102712"><ele>196.72</ele><time>2026-08-11T02:27:36Z</time></trkpt>
<trkpt lat="34.818869" lon="134.102692"><ele>196.72</ele><time>2026-08-11T02:27:37Z</time></trkpt>
<trkpt lat="34.818866" lon="134.102666"><ele>194.52</ele><time>2026-08-11T02:27:39Z</time></trkpt>
<trkpt lat="34.818863" lon="134.102647"><ele>194.52</ele><time>2026-08-11T02:27:41Z</time></trkpt>
<trkpt lat="34.818883" lon="134.102616"><ele>192.52</ele><time>2026-08-11T02:27:43Z</time></trkpt>
<trkpt lat="34.818884" lon="134.102599"><ele>192.52</ele><time>2026-08-11T02:27:44Z</time></trkpt>
<trkpt lat="34.818879" lon="134.102564"><ele>190.68</ele><time>2026-08-11T02:27:46Z</time></trkpt>
<trkpt lat="34.818868" lon="134.10254"><ele>188.95</ele><time>2026-08-11T02:27:47Z</time></trkpt>
<trkpt lat="34.818868" lon="134.102517"><ele>188.95</ele><time>2026-08-11T02:27:48Z</time></trkpt>
<trkpt lat="34.818867" lon="134.102491"><ele>187.65</ele><time>2026-08-11T02:27:49Z</time></trkpt>
<trkpt lat="34.818868" lon="134.102467"><ele>186.33</ele><time>2026-08-11T02:27:50Z</time></trkpt>
<trkpt lat="34.818875" lon="134.102425"><ele>184.85</ele><time>2026-08-11T02:27:52Z</time></trkpt>
<trkpt lat="34.818883" lon="134.102383"><ele>184.68</ele><time>2026-08-11T02:27:54Z</time></trkpt>
<trkpt lat="34.818895" lon="134.102357"><ele>183.26</ele><time>2026-08-11T02:27:56Z</time></trkpt>
<trkpt lat="34.818887" lon="134.102321"><ele>181.89</ele><time>2026-08-11T02:27:58Z</time></trkpt>
<trkpt lat="34.818882" lon="134.102264"><ele>181.07</ele><time>2026-08-11T02:28:00Z</time></trkpt>
<trkpt lat="34.818885" lon="134.102234"><ele>180.45</ele><time>2026-08-11T02:28:01Z</time></trkpt>
<trkpt lat="34.818867" lon="134.102149"><ele>179.52</ele><time>2026-08-11T02:28:03Z</time></trkpt>
<trkpt lat="34.81885" lon="134.102097"><ele>178.99</ele><time>2026-08-11T02:28:05Z</time></trkpt>
<trkpt lat="34.818847" lon="134.102058"><ele>178.78</ele><time>2026-08-11T02:28:06Z</time></trkpt>
<trkpt lat="34.818852" lon="134.102035"><ele>178.87</ele><time>2026-08-11T02:28:07Z</time></trkpt>
<trkpt lat="34.818865" lon="134.10195"><ele>179.52</ele><time>2026-08-11T02:28:10Z</time></trkpt>
<trkpt lat="34.818859" lon="134.10192"><ele>179.52</ele><time>2026-08-11T02:28:11Z</time></trkpt>
<trkpt lat="34.818861" lon="134.101901"><ele>180.01</ele><time>2026-08-11T02:28:12Z</time></trkpt>
<trkpt lat="34.818894" lon="134.101853"><ele>181.4</ele><time>2026-08-11T02:28:16Z</time></trkpt>
<trkpt lat="34.818923" lon="134.101824"><ele>182.88</ele><time>2026-08-11T02:28:19Z</time></trkpt>
<trkpt lat="34.818926" lon="134.101805"><ele>182.88</ele><time>2026-08-11T02:28:23Z</time></trkpt>
<trkpt lat="34.818926" lon="134.101789"><ele>182.88</ele><time>2026-08-11T02:28:26Z</time></trkpt>
<trkpt lat="34.818932" lon="134.101763"><ele>183.92</ele><time>2026-08-11T02:28:28Z</time></trkpt>
<trkpt lat="34.818967" lon="134.101691"><ele>185.55</ele><time>2026-08-11T02:28:34Z</time></trkpt>
<trkpt lat="34.818972" lon="134.101664"><ele>185.55</ele><time>2026-08-11T02:28:37Z</time></trkpt>
<trkpt lat="34.818958" lon="134.10161"><ele>185.64</ele><time>2026-08-11T02:28:41Z</time></trkpt>
<trkpt lat="34.818943" lon="134.101584"><ele>185.7</ele><time>2026-08-11T02:28:43Z</time></trkpt>
<trkpt lat="34.818926" lon="134.101463"><ele>185.09</ele><time>2026-08-11T02:28:49Z</time></trkpt>
<trkpt lat="34.81893" lon="134.101426"><ele>185.19</ele><time>2026-08-11T02:28:51Z</time></trkpt>
<trkpt lat="34.818911" lon="134.101336"><ele>186.54</ele><time>2026-08-11T02:28:59Z</time></trkpt>
<trkpt lat="34.818908" lon="134.101304"><ele>186.92</ele><time>2026-08-11T02:29:03Z</time></trkpt>
<trkpt lat="34.818901" lon="134.101251"><ele>186.6</ele><time>2026-08-11T02:29:07Z</time></trkpt>
<trkpt lat="34.818899" lon="134.101181"><ele>185.29</ele><time>2026-08-11T02:29:11Z</time></trkpt>
<trkpt lat="34.818913" lon="134.101165"><ele>184.6</ele><time>2026-08-11T02:29:13Z</time></trkpt>
<trkpt lat="34.818928" lon="134.10114"><ele>184.6</ele><time>2026-08-11T02:29:15Z</time></trkpt>
<trkpt lat="34.818953" lon="134.10111"><ele>183.05</ele><time>2026-08-11T02:29:17Z</time></trkpt>
<trkpt lat="34.819003" lon="134.101074"><ele>182.3</ele><time>2026-08-11T02:29:20Z</time></trkpt>
<trkpt lat="34.819041" lon="134.101081"><ele>181.76</ele><time>2026-08-11T02:29:22Z</time></trkpt>
<trkpt lat="34.819055" lon="134.101087"><ele>181.2</ele><time>2026-08-11T02:29:23Z</time></trkpt>
<trkpt lat="34.819124" lon="134.101085"><ele>179.49</ele><time>2026-08-11T02:29:27Z</time></trkpt>
<trkpt lat="34.819131" lon="134.101089"><ele>179.49</ele><time>2026-08-11T02:29:28Z</time></trkpt>
<trkpt lat="34.819142" lon="134.101097"><ele>178.98</ele><time>2026-08-11T02:29:30Z</time></trkpt>
<trkpt lat="34.819165" lon="134.101114"><ele>177.67</ele><time>2026-08-11T02:29:33Z</time></trkpt>
<trkpt lat="34.819173" lon="134.101119"><ele>177.67</ele><time>2026-08-11T02:29:34Z</time></trkpt>
<trkpt lat="34.819174" lon="134.101122"><ele>177.67</ele><time>2026-08-11T02:29:35Z</time></trkpt>
<trkpt lat="34.819174" lon="134.101124"><ele>177.67</ele><time>2026-08-11T02:29:36Z</time></trkpt>
<trkpt lat="34.819174" lon="134.101115"><ele>177.67</ele><time>2026-08-11T02:29:42Z</time></trkpt>
<trkpt lat="34.819177" lon="134.101114"><ele>177.67</ele><time>2026-08-11T02:29:43Z</time></trkpt>
<trkpt lat="34.819206" lon="134.10111"><ele>176.34</ele><time>2026-08-11T02:29:47Z</time></trkpt>
<trkpt lat="34.819232" lon="134.1011"><ele>174.97</ele><time>2026-08-11T02:29:49Z</time></trkpt>
<trkpt lat="34.819248" lon="134.101093"><ele>174.81</ele><time>2026-08-11T02:29:50Z</time></trkpt>
<trkpt lat="34.81926" lon="134.101094"><ele>174.81</ele><time>2026-08-11T02:29:51Z</time></trkpt>
<trkpt lat="34.819291" lon="134.101092"><ele>173.2</ele><time>2026-08-11T02:29:54Z</time></trkpt>
<trkpt lat="34.819303" lon="134.101091"><ele>171.65</ele><time>2026-08-11T02:29:56Z</time></trkpt>
<trkpt lat="34.819311" lon="134.101082"><ele>171.65</ele><time>2026-08-11T02:29:57Z</time></trkpt>
<trkpt lat="34.819338" lon="134.101076"><ele>170.21</ele><time>2026-08-11T02:29:59Z</time></trkpt>
<trkpt lat="34.819372" lon="134.101068"><ele>168.9</ele><time>2026-08-11T02:30:01Z</time></trkpt>
<trkpt lat="34.819391" lon="134.101066"><ele>168.9</ele><time>2026-08-11T02:30:02Z</time></trkpt>
<trkpt lat="34.819411" lon="134.101059"><ele>167.65</ele><time>2026-08-11T02:30:03Z</time></trkpt>
<trkpt lat="34.819455" lon="134.101051"><ele>164.71</ele><time>2026-08-11T02:30:06Z</time></trkpt>
<trkpt lat="34.819484" lon="134.101041"><ele>163.53</ele><time>2026-08-11T02:30:08Z</time></trkpt>
<trkpt lat="34.819528" lon="134.101031"><ele>162.22</ele><time>2026-08-11T02:30:10Z</time></trkpt>
<trkpt lat="34.819562" lon="134.101033"><ele>161.51</ele><time>2026-08-11T02:30:12Z</time></trkpt>
<trkpt lat="34.819594" lon="134.10102"><ele>160.71</ele><time>2026-08-11T02:30:14Z</time></trkpt>
<trkpt lat="34.81961" lon="134.101019"><ele>160.71</ele><time>2026-08-11T02:30:15Z</time></trkpt>
<trkpt lat="34.819647" lon="134.101012"><ele>159.79</ele><time>2026-08-11T02:30:17Z</time></trkpt>
<trkpt lat="34.819671" lon="134.100999"><ele>157.45</ele><time>2026-08-11T02:30:19Z</time></trkpt>
<trkpt lat="34.819708" lon="134.100983"><ele>156.79</ele><time>2026-08-11T02:30:21Z</time></trkpt>
<trkpt lat="34.819748" lon="134.100957"><ele>154.4</ele><time>2026-08-11T02:30:23Z</time></trkpt>
<trkpt lat="34.819784" lon="134.100934"><ele>153.78</ele><time>2026-08-11T02:30:25Z</time></trkpt>
<trkpt lat="34.819832" lon="134.100917"><ele>151.33</ele><time>2026-08-11T02:30:28Z</time></trkpt>
<trkpt lat="34.819845" lon="134.100912"><ele>151.33</ele><time>2026-08-11T02:30:29Z</time></trkpt>
<trkpt lat="34.819857" lon="134.100905"><ele>151.33</ele><time>2026-08-11T02:30:30Z</time></trkpt>
<trkpt lat="34.819885" lon="134.1009"><ele>150.14</ele><time>2026-08-11T02:30:32Z</time></trkpt>
<trkpt lat="34.819905" lon="134.100896"><ele>148.75</ele><time>2026-08-11T02:30:34Z</time></trkpt>
<trkpt lat="34.819943" lon="134.100899"><ele>147.14</ele><time>2026-08-11T02:30:36Z</time></trkpt>
<trkpt lat="34.819965" lon="134.100897"><ele>147.14</ele><time>2026-08-11T02:30:37Z</time></trkpt>
<trkpt lat="34.820001" lon="134.100888"><ele>145.52</ele><time>2026-08-11T02:30:39Z</time></trkpt>
<trkpt lat="34.82004" lon="134.100881"><ele>142.52</ele><time>2026-08-11T02:30:41Z</time></trkpt>
<trkpt lat="34.820064" lon="134.100878"><ele>141.66</ele><time>2026-08-11T02:30:43Z</time></trkpt>
<trkpt lat="34.82009" lon="134.100873"><ele>140.43</ele><time>2026-08-11T02:30:45Z</time></trkpt>
<trkpt lat="34.820104" lon="134.100872"><ele>140.43</ele><time>2026-08-11T02:30:46Z</time></trkpt>
<trkpt lat="34.820123" lon="134.100871"><ele>139.67</ele><time>2026-08-11T02:30:47Z</time></trkpt>
<trkpt lat="34.820153" lon="134.100845"><ele>139.01</ele><time>2026-08-11T02:30:49Z</time></trkpt>
<trkpt lat="34.820168" lon="134.100828"><ele>137.7</ele><time>2026-08-11T02:30:50Z</time></trkpt>
<trkpt lat="34.820202" lon="134.100803"><ele>137.4</ele><time>2026-08-11T02:30:52Z</time></trkpt>
<trkpt lat="34.820234" lon="134.100782"><ele>135.3</ele><time>2026-08-11T02:30:54Z</time></trkpt>
<trkpt lat="34.820265" lon="134.100769"><ele>135.13</ele><time>2026-08-11T02:30:56Z</time></trkpt>
<trkpt lat="34.820321" lon="134.100753"><ele>134.95</ele><time>2026-08-11T02:30:59Z</time></trkpt>
<trkpt lat="34.820379" lon="134.100758"><ele>133.22</ele><time>2026-08-11T02:31:02Z</time></trkpt>
<trkpt lat="34.820412" lon="134.100774"><ele>131.76</ele><time>2026-08-11T02:31:05Z</time></trkpt>
<trkpt lat="34.820435" lon="134.100769"><ele>129.8</ele><time>2026-08-11T02:31:08Z</time></trkpt>
<trkpt lat="34.820443" lon="134.100765"><ele>129.8</ele><time>2026-08-11T02:31:10Z</time></trkpt>
<trkpt lat="34.820451" lon="134.100761"><ele>129.8</ele><time>2026-08-11T02:31:12Z</time></trkpt>
<trkpt lat="34.820465" lon="134.100764"><ele>127.67</ele><time>2026-08-11T02:31:14Z</time></trkpt>
<trkpt lat="34.820483" lon="134.100776"><ele>127.67</ele><time>2026-08-11T02:31:16Z</time></trkpt>
<trkpt lat="34.820521" lon="134.100791"><ele>125.46</ele><time>2026-08-11T02:31:19Z</time></trkpt>
<trkpt lat="34.820535" lon="134.100799"><ele>123.22</ele><time>2026-08-11T02:31:21Z</time></trkpt>
<trkpt lat="34.820548" lon="134.100795"><ele>123.22</ele><time>2026-08-11T02:31:23Z</time></trkpt>
<trkpt lat="34.820558" lon="134.100794"><ele>123.08</ele><time>2026-08-11T02:31:24Z</time></trkpt>
<trkpt lat="34.820589" lon="134.100795"><ele>120.94</ele><time>2026-08-11T02:31:27Z</time></trkpt>
<trkpt lat="34.820609" lon="134.100807"><ele>118.97</ele><time>2026-08-11T02:31:29Z</time></trkpt>
<trkpt lat="34.820612" lon="134.100812"><ele>118.97</ele><time>2026-08-11T02:31:30Z</time></trkpt>
<trkpt lat="34.820612" lon="134.100818"><ele>118.97</ele><time>2026-08-11T02:31:31Z</time></trkpt>
<trkpt lat="34.820625" lon="134.100832"><ele>118.97</ele><time>2026-08-11T02:31:33Z</time></trkpt>
<trkpt lat="34.82064" lon="134.100841"><ele>116.72</ele><time>2026-08-11T02:31:35Z</time></trkpt>
<trkpt lat="34.820648" lon="134.100847"><ele>116.72</ele><time>2026-08-11T02:31:36Z</time></trkpt>
<trkpt lat="34.820667" lon="134.100873"><ele>116.72</ele><time>2026-08-11T02:31:38Z</time></trkpt>
<trkpt lat="34.820682" lon="134.100896"><ele>113.39</ele><time>2026-08-11T02:31:41Z</time></trkpt>
<trkpt lat="34.820688" lon="134.100919"><ele>113.39</ele><time>2026-08-11T02:31:43Z</time></trkpt>
<trkpt lat="34.820684" lon="134.100932"><ele>112.06</ele><time>2026-08-11T02:31:44Z</time></trkpt>
<trkpt lat="34.820697" lon="134.100953"><ele>112.06</ele><time>2026-08-11T02:31:47Z</time></trkpt>
<trkpt lat="34.820703" lon="134.100956"><ele>112.06</ele><time>2026-08-11T02:31:48Z</time></trkpt>
<trkpt lat="34.820706" lon="134.100965"><ele>112.06</ele><time>2026-08-11T02:31:49Z</time></trkpt>
<trkpt lat="34.820725" lon="134.100988"><ele>108.55</ele><time>2026-08-11T02:31:51Z</time></trkpt>
<trkpt lat="34.820726" lon="134.101007"><ele>108.55</ele><time>2026-08-11T02:31:53Z</time></trkpt>
<trkpt lat="34.82073" lon="134.101025"><ele>106.42</ele><time>2026-08-11T02:31:55Z</time></trkpt>
<trkpt lat="34.820733" lon="134.101036"><ele>106.42</ele><time>2026-08-11T02:31:56Z</time></trkpt>
<trkpt lat="34.820741" lon="134.101072"><ele>104.11</ele><time>2026-08-11T02:31:58Z</time></trkpt>
<trkpt lat="34.82074" lon="134.101107"><ele>101.8</ele><time>2026-08-11T02:32:00Z</time></trkpt>
<trkpt lat="34.820739" lon="134.101124"><ele>101.8</ele><time>2026-08-11T02:32:01Z</time></trkpt>
<trkpt lat="34.820731" lon="134.101141"><ele>99.73</ele><time>2026-08-11T02:32:02Z</time></trkpt>
<trkpt lat="34.820724" lon="134.101179"><ele>99.73</ele><time>2026-08-11T02:32:04Z</time></trkpt>
<trkpt lat="34.820723" lon="134.101228"><ele>96.39</ele><time>2026-08-11T02:32:07Z</time></trkpt>
<trkpt lat="34.820735" lon="134.101264"><ele>96.39</ele><time>2026-08-11T02:32:09Z</time></trkpt>
<trkpt lat="34.820745" lon="134.101284"><ele>93.12</ele><time>2026-08-11T02:32:11Z</time></trkpt>
<trkpt lat="34.820752" lon="134.101283"><ele>93.12</ele><time>2026-08-11T02:32:12Z</time></trkpt>
<trkpt lat="34.820761" lon="134.101281"><ele>93.12</ele><time>2026-08-11T02:32:13Z</time></trkpt>
<trkpt lat="34.820777" lon="134.101274"><ele>93.12</ele><time>2026-08-11T02:32:14Z</time></trkpt>
<trkpt lat="34.820788" lon="134.101268"><ele>91.81</ele><time>2026-08-11T02:32:15Z</time></trkpt>
<trkpt lat="34.820798" lon="134.101257"><ele>92.53</ele><time>2026-08-11T02:32:17Z</time></trkpt>
<trkpt lat="34.82082" lon="134.101232"><ele>91.2</ele><time>2026-08-11T02:32:19Z</time></trkpt>
<trkpt lat="34.820838" lon="134.101225"><ele>91.2</ele><time>2026-08-11T02:32:20Z</time></trkpt>
<trkpt lat="34.820867" lon="134.10123"><ele>90.21</ele><time>2026-08-11T02:32:22Z</time></trkpt>
<trkpt lat="34.820884" lon="134.101249"><ele>90.21</ele><time>2026-08-11T02:32:23Z</time></trkpt>
<trkpt lat="34.820927" lon="134.101265"><ele>89.46</ele><time>2026-08-11T02:32:26Z</time></trkpt>
<trkpt lat="34.820933" lon="134.101276"><ele>89.77</ele><time>2026-08-11T02:32:27Z</time></trkpt>
<trkpt lat="34.820952" lon="134.101341"><ele>90.26</ele><time>2026-08-11T02:32:35Z</time></trkpt>
<trkpt lat="34.820993" lon="134.101308"><ele>89.24</ele><time>2026-08-11T02:32:41Z</time></trkpt>
<trkpt lat="34.821024" lon="134.101274"><ele>89.24</ele><time>2026-08-11T02:32:44Z</time></trkpt>
<trkpt lat="34.821051" lon="134.10123"><ele>88.51</ele><time>2026-08-11T02:32:46Z</time></trkpt>
<trkpt lat="34.821075" lon="134.101202"><ele>88.24</ele><time>2026-08-11T02:32:48Z</time></trkpt>
<trkpt lat="34.821156" lon="134.101118"><ele>87.57</ele><time>2026-08-11T02:32:54Z</time></trkpt>
<trkpt lat="34.821168" lon="134.101106"><ele>87.51</ele><time>2026-08-11T02:32:55Z</time></trkpt>
<trkpt lat="34.821187" lon="134.101103"><ele>87.51</ele><time>2026-08-11T02:32:56Z</time></trkpt>
<trkpt lat="34.821202" lon="134.101098"><ele>87.51</ele><time>2026-08-11T02:32:57Z</time></trkpt>
<trkpt lat="34.821216" lon="134.10109"><ele>87.28</ele><time>2026-08-11T02:32:58Z</time></trkpt>
<trkpt lat="34.821228" lon="134.101088"><ele>87.28</ele><time>2026-08-11T02:32:59Z</time></trkpt>
<trkpt lat="34.821244" lon="134.101084"><ele>87.35</ele><time>2026-08-11T02:33:00Z</time></trkpt>
<trkpt lat="34.821261" lon="134.101073"><ele>87.35</ele><time>2026-08-11T02:33:01Z</time></trkpt>
<trkpt lat="34.821285" lon="134.101055"><ele>87.23</ele><time>2026-08-11T02:33:03Z</time></trkpt>
<trkpt lat="34.821307" lon="134.101049"><ele>87.13</ele><time>2026-08-11T02:33:04Z</time></trkpt>
<trkpt lat="34.821342" lon="134.101052"><ele>87.0</ele><time>2026-08-11T02:33:06Z</time></trkpt>
<trkpt lat="34.821349" lon="134.10105"><ele>86.81</ele><time>2026-08-11T02:33:07Z</time></trkpt>
<trkpt lat="34.821353" lon="134.101045"><ele>86.81</ele><time>2026-08-11T02:33:08Z</time></trkpt>
<trkpt lat="34.821383" lon="134.101014"><ele>87.5</ele><time>2026-08-11T02:33:12Z</time></trkpt>
<trkpt lat="34.821385" lon="134.101012"><ele>87.5</ele><time>2026-08-11T02:33:13Z</time></trkpt>
<trkpt lat="34.821392" lon="134.101006"><ele>87.48</ele><time>2026-08-11T02:33:18Z</time></trkpt>
<trkpt lat="34.821398" lon="134.101012"><ele>87.5</ele><time>2026-08-11T02:33:20Z</time></trkpt>
<trkpt lat="34.821385" lon="134.100969"><ele>87.48</ele><time>2026-08-11T02:33:27Z</time></trkpt>
<trkpt lat="34.821384" lon="134.100941"><ele>87.43</ele><time>2026-08-11T02:33:29Z</time></trkpt>
<trkpt lat="34.821382" lon="134.100918"><ele>87.39</ele><time>2026-08-11T02:33:31Z</time></trkpt>
<trkpt lat="34.821381" lon="134.10087"><ele>87.45</ele><time>2026-08-11T02:33:33Z</time></trkpt>
<trkpt lat="34.821382" lon="134.10084"><ele>87.45</ele><time>2026-08-11T02:33:34Z</time></trkpt>
<trkpt lat="34.821383" lon="134.100684"><ele>87.92</ele><time>2026-08-11T02:33:42Z</time></trkpt>
<trkpt lat="34.821383" lon="134.100674"><ele>87.92</ele><time>2026-08-11T02:33:43Z</time></trkpt>
<trkpt lat="34.821381" lon="134.10066"><ele>87.47</ele><time>2026-08-11T02:33:44Z</time></trkpt>
<trkpt lat="34.82137" lon="134.100602"><ele>86.4</ele><time>2026-08-11T02:33:48Z</time></trkpt>
<trkpt lat="34.821332" lon="134.100472"><ele>89.42</ele><time>2026-08-11T02:33:54Z</time></trkpt>
<trkpt lat="34.821325" lon="134.100424"><ele>89.42</ele><time>2026-08-11T02:33:56Z</time></trkpt>
<trkpt lat="34.821289" lon="134.100295"><ele>87.05</ele><time>2026-08-11T02:34:01Z</time></trkpt>
<trkpt lat="34.821247" lon="134.100222"><ele>88.25</ele><time>2026-08-11T02:34:04Z</time></trkpt>
<trkpt lat="34.821254" lon="134.100108"><ele>88.02</ele><time>2026-08-11T02:34:10Z</time></trkpt>
<trkpt lat="34.821269" lon="134.100091"><ele>88.02</ele><time>2026-08-11T02:34:16Z</time></trkpt>
<trkpt lat="34.821276" lon="134.100086"><ele>88.2</ele><time>2026-08-11T02:34:19Z</time></trkpt>
<trkpt lat="34.821286" lon="134.100081"><ele>88.2</ele><time>2026-08-11T02:34:20Z</time></trkpt>
<trkpt lat="34.821304" lon="134.100081"><ele>88.2</ele><time>2026-08-11T02:34:23Z</time></trkpt>
<trkpt lat="34.821334" lon="134.100069"><ele>89.2</ele><time>2026-08-11T02:34:26Z</time></trkpt>
<trkpt lat="34.821354" lon="134.100069"><ele>90.99</ele><time>2026-08-11T02:34:29Z</time></trkpt>
<trkpt lat="34.821378" lon="134.100053"><ele>89.56</ele><time>2026-08-11T02:34:32Z</time></trkpt>
<trkpt lat="34.821411" lon="134.100034"><ele>90.69</ele><time>2026-08-11T02:34:36Z</time></trkpt>
<trkpt lat="34.821441" lon="134.099997"><ele>90.58</ele><time>2026-08-11T02:34:39Z</time></trkpt>
<trkpt lat="34.821457" lon="134.099974"><ele>91.0</ele><time>2026-08-11T02:34:44Z</time></trkpt>
<trkpt lat="34.821485" lon="134.099954"><ele>92.64</ele><time>2026-08-11T02:34:50Z</time></trkpt>
<trkpt lat="34.821521" lon="134.099956"><ele>94.27</ele><time>2026-08-11T02:34:55Z</time></trkpt>
<trkpt lat="34.821529" lon="134.099947"><ele>94.27</ele><time>2026-08-11T02:34:57Z</time></trkpt>
<trkpt lat="34.821552" lon="134.099926"><ele>94.93</ele><time>2026-08-11T02:35:03Z</time></trkpt>
<trkpt lat="34.821558" lon="134.099901"><ele>96.39</ele><time>2026-08-11T02:35:08Z</time></trkpt>
<trkpt lat="34.82156" lon="134.09989"><ele>97.81</ele><time>2026-08-11T02:35:09Z</time></trkpt>
<trkpt lat="34.821576" lon="134.099862"><ele>97.81</ele><time>2026-08-11T02:35:15Z</time></trkpt>
<trkpt lat="34.821585" lon="134.099868"><ele>97.81</ele><time>2026-08-11T02:35:17Z</time></trkpt>
<trkpt lat="34.821603" lon="134.09987"><ele>99.41</ele><time>2026-08-11T02:35:19Z</time></trkpt>
<trkpt lat="34.82161" lon="134.099868"><ele>99.41</ele><time>2026-08-11T02:35:23Z</time></trkpt>
<trkpt lat="34.82161" lon="134.099865"><ele>99.41</ele><time>2026-08-11T02:35:24Z</time></trkpt>
<trkpt lat="34.821599" lon="134.099856"><ele>99.41</ele><time>2026-08-11T02:35:31Z</time></trkpt>
<trkpt lat="34.821602" lon="134.099848"><ele>100.99</ele><time>2026-08-11T02:35:32Z</time></trkpt>
<trkpt lat="34.821633" lon="134.099854"><ele>101.1</ele><time>2026-08-11T02:35:37Z</time></trkpt>
<trkpt lat="34.821639" lon="134.099875"><ele>101.1</ele><time>2026-08-11T02:35:39Z</time></trkpt>
<trkpt lat="34.82164" lon="134.09988"><ele>101.1</ele><time>2026-08-11T02:35:43Z</time></trkpt>
<trkpt lat="34.821642" lon="134.099876"><ele>101.1</ele><time>2026-08-11T02:35:44Z</time></trkpt>
<trkpt lat="34.821636" lon="134.09985"><ele>102.72</ele><time>2026-08-11T02:35:49Z</time></trkpt>
<trkpt lat="34.821629" lon="134.099844"><ele>102.72</ele><time>2026-08-11T02:35:52Z</time></trkpt>
<trkpt lat="34.821624" lon="134.099813"><ele>100.99</ele><time>2026-08-11T02:35:57Z</time></trkpt>
<trkpt lat="34.821633" lon="134.099796"><ele>104.3</ele><time>2026-08-11T02:36:01Z</time></trkpt>
<trkpt lat="34.821636" lon="134.09979"><ele>104.3</ele><time>2026-08-11T02:36:03Z</time></trkpt>
<trkpt lat="34.821649" lon="134.099794"><ele>104.3</ele><time>2026-08-11T02:36:06Z</time></trkpt>
<trkpt lat="34.821667" lon="134.099802"><ele>105.99</ele><time>2026-08-11T02:36:09Z</time></trkpt>
<trkpt lat="34.821676" lon="134.099791"><ele>105.99</ele><time>2026-08-11T02:36:12Z</time></trkpt>
<trkpt lat="34.821669" lon="134.099786"><ele>105.99</ele><time>2026-08-11T02:36:14Z</time></trkpt>
<trkpt lat="34.821672" lon="134.09975"><ele>107.51</ele><time>2026-08-11T02:36:18Z</time></trkpt>
<trkpt lat="34.821674" lon="134.099745"><ele>107.51</ele><time>2026-08-11T02:36:20Z</time></trkpt>
<trkpt lat="34.821672" lon="134.099727"><ele>107.51</ele><time>2026-08-11T02:36:24Z</time></trkpt>
<trkpt lat="34.821675" lon="134.099727"><ele>107.51</ele><time>2026-08-11T02:36:26Z</time></trkpt>
<trkpt lat="34.821697" lon="134.099701"><ele>110.51</ele><time>2026-08-11T02:36:30Z</time></trkpt>
<trkpt lat="34.821713" lon="134.099696"><ele>110.51</ele><time>2026-08-11T02:36:32Z</time></trkpt>
<trkpt lat="34.821714" lon="134.099694"><ele>110.51</ele><time>2026-08-11T02:36:33Z</time></trkpt>
<trkpt lat="34.821721" lon="134.099686"><ele>110.51</ele><time>2026-08-11T02:36:36Z</time></trkpt>
<trkpt lat="34.821734" lon="134.099674"><ele>112.87</ele><time>2026-08-11T02:36:40Z</time></trkpt>
<trkpt lat="34.821753" lon="134.09965"><ele>112.87</ele><time>2026-08-11T02:36:46Z</time></trkpt>
<trkpt lat="34.821764" lon="134.099649"><ele>112.87</ele><time>2026-08-11T02:36:53Z</time></trkpt>
<trkpt lat="34.82178" lon="134.099637"><ele>114.45</ele><time>2026-08-11T02:36:55Z</time></trkpt>
<trkpt lat="34.821824" lon="134.099612"><ele>116.22</ele><time>2026-08-11T02:37:00Z</time></trkpt>
<trkpt lat="34.821829" lon="134.099605"><ele>116.22</ele><time>2026-08-11T02:37:01Z</time></trkpt>
<trkpt lat="34.821872" lon="134.099596"><ele>118.39</ele><time>2026-08-11T02:37:06Z</time></trkpt>
<trkpt lat="34.821912" lon="134.099596"><ele>119.23</ele><time>2026-08-11T02:37:09Z</time></trkpt>
<trkpt lat="34.821934" lon="134.099596"><ele>119.23</ele><time>2026-08-11T02:37:13Z</time></trkpt>
<trkpt lat="34.82194" lon="134.099586"><ele>119.11</ele><time>2026-08-11T02:37:15Z</time></trkpt>
<trkpt lat="34.821948" lon="134.099543"><ele>119.57</ele><time>2026-08-11T02:37:19Z</time></trkpt>
<trkpt lat="34.821959" lon="134.099529"><ele>119.57</ele><time>2026-08-11T02:37:21Z</time></trkpt>
<trkpt lat="34.82197" lon="134.099527"><ele>119.57</ele><time>2026-08-11T02:37:23Z</time></trkpt>
<trkpt lat="34.822007" lon="134.099523"><ele>121.12</ele><time>2026-08-11T02:37:27Z</time></trkpt>
<trkpt lat="34.822032" lon="134.099525"><ele>122.99</ele><time>2026-08-11T02:37:29Z</time></trkpt>
<trkpt lat="34.822038" lon="134.099519"><ele>122.99</ele><time>2026-08-11T02:37:32Z</time></trkpt>
<trkpt lat="34.82205" lon="134.099504"><ele>124.6</ele><time>2026-08-11T02:37:37Z</time></trkpt>
<trkpt lat="34.822064" lon="134.099506"><ele>124.6</ele><time>2026-08-11T02:37:41Z</time></trkpt>
<trkpt lat="34.822067" lon="134.099499"><ele>124.6</ele><time>2026-08-11T02:37:42Z</time></trkpt>
<trkpt lat="34.822068" lon="134.099488"><ele>124.6</ele><time>2026-08-11T02:37:43Z</time></trkpt>
<trkpt lat="34.822094" lon="134.099465"><ele>126.13</ele><time>2026-08-11T02:37:48Z</time></trkpt>
<trkpt lat="34.822098" lon="134.099462"><ele>125.85</ele><time>2026-08-11T02:37:49Z</time></trkpt>
<trkpt lat="34.822155" lon="134.099441"><ele>129.02</ele><time>2026-08-11T02:37:55Z</time></trkpt>
<trkpt lat="34.82217" lon="134.09943"><ele>129.02</ele><time>2026-08-11T02:37:59Z</time></trkpt>
<trkpt lat="34.822187" lon="134.099423"><ele>129.02</ele><time>2026-08-11T02:38:01Z</time></trkpt>
<trkpt lat="34.82221" lon="134.099428"><ele>130.51</ele><time>2026-08-11T02:38:07Z</time></trkpt>
<trkpt lat="34.822221" lon="134.099429"><ele>130.51</ele><time>2026-08-11T02:38:09Z</time></trkpt>
<trkpt lat="34.822244" lon="134.099425"><ele>132.07</ele><time>2026-08-11T02:38:13Z</time></trkpt>
<trkpt lat="34.82227" lon="134.099459"><ele>132.97</ele><time>2026-08-11T02:38:18Z</time></trkpt>
<trkpt lat="34.822303" lon="134.099503"><ele>133.8</ele><time>2026-08-11T02:38:24Z</time></trkpt>
<trkpt lat="34.822311" lon="134.099513"><ele>134.03</ele><time>2026-08-11T02:38:25Z</time></trkpt>
<trkpt lat="34.822367" lon="134.099566"><ele>135.28</ele><time>2026-08-11T02:38:33Z</time></trkpt>
<trkpt lat="34.82242" lon="134.099621"><ele>135.59</ele><time>2026-08-11T02:38:42Z</time></trkpt>
<trkpt lat="34.822425" lon="134.099621"><ele>135.59</ele><time>2026-08-11T02:38:43Z</time></trkpt>
<trkpt lat="34.822439" lon="134.099668"><ele>135.43</ele><time>2026-08-11T02:38:47Z</time></trkpt>
<trkpt lat="34.822455" lon="134.099709"><ele>136.33</ele><time>2026-08-11T02:38:50Z</time></trkpt>
<trkpt lat="34.822461" lon="134.099716"><ele>136.33</ele><time>2026-08-11T02:38:51Z</time></trkpt>
<trkpt lat="34.822476" lon="134.099784"><ele>138.39</ele><time>2026-08-11T02:38:58Z</time></trkpt>
<trkpt lat="34.822485" lon="134.099787"><ele>138.39</ele><time>2026-08-11T02:39:00Z</time></trkpt>
<trkpt lat="34.822501" lon="134.099808"><ele>139.54</ele><time>2026-08-11T02:39:04Z</time></trkpt>
<trkpt lat="34.822498" lon="134.099812"><ele>139.54</ele><time>2026-08-11T02:39:05Z</time></trkpt>
<trkpt lat="34.822508" lon="134.099833"><ele>140.02</ele><time>2026-08-11T02:39:08Z</time></trkpt>
<trkpt lat="34.82251" lon="134.099848"><ele>140.02</ele><time>2026-08-11T02:39:10Z</time></trkpt>
<trkpt lat="34.822506" lon="134.099874"><ele>141.17</ele><time>2026-08-11T02:39:14Z</time></trkpt>
<trkpt lat="34.822508" lon="134.099877"><ele>141.17</ele><time>2026-08-11T02:39:16Z</time></trkpt>
<trkpt lat="34.82253" lon="134.099894"><ele>142.06</ele><time>2026-08-11T02:39:19Z</time></trkpt>
<trkpt lat="34.822553" lon="134.099916"><ele>142.76</ele><time>2026-08-11T02:39:24Z</time></trkpt>
<trkpt lat="34.822566" lon="134.09993"><ele>142.76</ele><time>2026-08-11T02:39:29Z</time></trkpt>
<trkpt lat="34.822568" lon="134.099934"><ele>142.76</ele><time>2026-08-11T02:39:30Z</time></trkpt>
<trkpt lat="34.822587" lon="134.099952"><ele>144.91</ele><time>2026-08-11T02:39:33Z</time></trkpt>
<trkpt lat="34.822591" lon="134.09996"><ele>144.91</ele><time>2026-08-11T02:39:34Z</time></trkpt>
<trkpt lat="34.822597" lon="134.09999"><ele>146.17</ele><time>2026-08-11T02:39:38Z</time></trkpt>
<trkpt lat="34.822598" lon="134.099995"><ele>146.17</ele><time>2026-08-11T02:39:39Z</time></trkpt>
<trkpt lat="34.822622" lon="134.100022"><ele>147.19</ele><time>2026-08-11T02:39:43Z</time></trkpt>
<trkpt lat="34.822633" lon="134.100038"><ele>148.56</ele><time>2026-08-11T02:39:46Z</time></trkpt>
<trkpt lat="34.82264" lon="134.100041"><ele>148.56</ele><time>2026-08-11T02:39:47Z</time></trkpt>
<trkpt lat="34.822665" lon="134.100065"><ele>149.6</ele><time>2026-08-11T02:39:51Z</time></trkpt>
<trkpt lat="34.822686" lon="134.100089"><ele>152.22</ele><time>2026-08-11T02:39:55Z</time></trkpt>
<trkpt lat="34.822689" lon="134.100093"><ele>152.22</ele><time>2026-08-11T02:39:56Z</time></trkpt>
<trkpt lat="34.822707" lon="134.100112"><ele>153.59</ele><time>2026-08-11T02:40:01Z</time></trkpt>
<trkpt lat="34.822703" lon="134.100141"><ele>153.59</ele><time>2026-08-11T02:40:05Z</time></trkpt>
<trkpt lat="34.82271" lon="134.100161"><ele>154.52</ele><time>2026-08-11T02:40:10Z</time></trkpt>
<trkpt lat="34.822711" lon="134.100169"><ele>154.52</ele><time>2026-08-11T02:40:12Z</time></trkpt>
<trkpt lat="34.822715" lon="134.100175"><ele>154.52</ele><time>2026-08-11T02:40:15Z</time></trkpt>
<trkpt lat="34.822725" lon="134.100202"><ele>157.12</ele><time>2026-08-11T02:40:19Z</time></trkpt>
<trkpt lat="34.822728" lon="134.100227"><ele>157.12</ele><time>2026-08-11T02:40:23Z</time></trkpt>
<trkpt lat="34.822735" lon="134.100252"><ele>158.1</ele><time>2026-08-11T02:40:28Z</time></trkpt>
<trkpt lat="34.822738" lon="134.10026"><ele>158.1</ele><time>2026-08-11T02:40:30Z</time></trkpt>
<trkpt lat="34.822741" lon="134.100289"><ele>159.24</ele><time>2026-08-11T02:40:33Z</time></trkpt>
<trkpt lat="34.822749" lon="134.100358"><ele>160.47</ele><time>2026-08-11T02:40:40Z</time></trkpt>
<trkpt lat="34.822774" lon="134.100378"><ele>163.26</ele><time>2026-08-11T02:40:44Z</time></trkpt>
<trkpt lat="34.822781" lon="134.100395"><ele>163.26</ele><time>2026-08-11T02:40:47Z</time></trkpt>
<trkpt lat="34.822769" lon="134.100432"><ele>164.19</ele><time>2026-08-11T02:40:50Z</time></trkpt>
<trkpt lat="34.822766" lon="134.100443"><ele>164.19</ele><time>2026-08-11T02:40:51Z</time></trkpt>
<trkpt lat="34.822771" lon="134.100484"><ele>164.67</ele><time>2026-08-11T02:40:55Z</time></trkpt>
<trkpt lat="34.822793" lon="134.100518"><ele>167.12</ele><time>2026-08-11T02:41:00Z</time></trkpt>
<trkpt lat="34.822798" lon="134.100526"><ele>167.12</ele><time>2026-08-11T02:41:01Z</time></trkpt>
<trkpt lat="34.822812" lon="134.100546"><ele>167.83</ele><time>2026-08-11T02:41:06Z</time></trkpt>
<trkpt lat="34.822822" lon="134.100589"><ele>168.64</ele><time>2026-08-11T02:41:12Z</time></trkpt>
<trkpt lat="34.822825" lon="134.100593"><ele>169.56</ele><time>2026-08-11T02:41:13Z</time></trkpt>
<trkpt lat="34.822837" lon="134.100592"><ele>169.56</ele><time>2026-08-11T02:41:17Z</time></trkpt>
<trkpt lat="34.82284" lon="134.100603"><ele>169.56</ele><time>2026-08-11T02:41:19Z</time></trkpt>
<trkpt lat="34.822848" lon="134.100617"><ele>169.56</ele><time>2026-08-11T02:41:23Z</time></trkpt>
<trkpt lat="34.822843" lon="134.100641"><ele>170.95</ele><time>2026-08-11T02:41:27Z</time></trkpt>
<trkpt lat="34.822843" lon="134.100644"><ele>170.95</ele><time>2026-08-11T02:41:28Z</time></trkpt>
<trkpt lat="34.82284" lon="134.100673"><ele>172.17</ele><time>2026-08-11T02:41:34Z</time></trkpt>
<trkpt lat="34.82284" lon="134.100674"><ele>172.17</ele><time>2026-08-11T02:41:35Z</time></trkpt>
<trkpt lat="34.822859" lon="134.100698"><ele>172.99</ele><time>2026-08-11T02:41:40Z</time></trkpt>
<trkpt lat="34.822864" lon="134.100703"><ele>172.99</ele><time>2026-08-11T02:41:41Z</time></trkpt>
<trkpt lat="34.822862" lon="134.100729"><ele>174.29</ele><time>2026-08-11T02:41:46Z</time></trkpt>
<trkpt lat="34.822866" lon="134.100757"><ele>175.74</ele><time>2026-08-11T02:41:51Z</time></trkpt>
<trkpt lat="34.822868" lon="134.100785"><ele>175.74</ele><time>2026-08-11T02:41:57Z</time></trkpt>
<trkpt lat="34.822871" lon="134.100786"><ele>175.74</ele><time>2026-08-11T02:41:58Z</time></trkpt>
<trkpt lat="34.822882" lon="134.100789"><ele>175.74</ele><time>2026-08-11T02:42:01Z</time></trkpt>
<trkpt lat="34.822885" lon="134.100806"><ele>177.24</ele><time>2026-08-11T02:42:04Z</time></trkpt>
<trkpt lat="34.822888" lon="134.100813"><ele>177.24</ele><time>2026-08-11T02:42:06Z</time></trkpt>
<trkpt lat="34.822891" lon="134.100852"><ele>178.46</ele><time>2026-08-11T02:42:13Z</time></trkpt>
<trkpt lat="34.822887" lon="134.100859"><ele>178.46</ele><time>2026-08-11T02:42:14Z</time></trkpt>
<trkpt lat="34.82288" lon="134.100871"><ele>178.46</ele><time>2026-08-11T02:42:17Z</time></trkpt>
<trkpt lat="34.822883" lon="134.100877"><ele>178.46</ele><time>2026-08-11T02:42:18Z</time></trkpt>
<trkpt lat="34.822889" lon="134.100904"><ele>180.1</ele><time>2026-08-11T02:42:23Z</time></trkpt>
<trkpt lat="34.822891" lon="134.10091"><ele>180.1</ele><time>2026-08-11T02:42:25Z</time></trkpt>
<trkpt lat="34.822899" lon="134.100944"><ele>182.46</ele><time>2026-08-11T02:42:30Z</time></trkpt>
<trkpt lat="34.822897" lon="134.100996"><ele>184.12</ele><time>2026-08-11T02:42:36Z</time></trkpt>
<trkpt lat="34.8229" lon="134.101014"><ele>185.59</ele><time>2026-08-11T02:42:39Z</time></trkpt>
<trkpt lat="34.82291" lon="134.101027"><ele>185.59</ele><time>2026-08-11T02:42:42Z</time></trkpt>
<trkpt lat="34.822916" lon="134.101041"><ele>185.59</ele><time>2026-08-11T02:42:45Z</time></trkpt>
<trkpt lat="34.82292" lon="134.101047"><ele>185.59</ele><time>2026-08-11T02:42:47Z</time></trkpt>
<trkpt lat="34.822942" lon="134.101065"><ele>187.9</ele><time>2026-08-11T02:42:53Z</time></trkpt>
<trkpt lat="34.82295" lon="134.101068"><ele>187.9</ele><time>2026-08-11T02:42:54Z</time></trkpt>
<trkpt lat="34.822965" lon="134.10107"><ele>188.39</ele><time>2026-08-11T02:42:57Z</time></trkpt>
<trkpt lat="34.822968" lon="134.10107"><ele>188.39</ele><time>2026-08-11T02:42:59Z</time></trkpt>
<trkpt lat="34.822975" lon="134.101084"><ele>188.39</ele><time>2026-08-11T02:43:03Z</time></trkpt>
<trkpt lat="34.822976" lon="134.101088"><ele>188.39</ele><time>2026-08-11T02:43:04Z</time></trkpt>
<trkpt lat="34.822981" lon="134.101113"><ele>190.23</ele><time>2026-08-11T02:43:10Z</time></trkpt>
<trkpt lat="34.822974" lon="134.101137"><ele>190.23</ele><time>2026-08-11T02:43:15Z</time></trkpt>
<trkpt lat="34.822974" lon="134.101147"><ele>192.01</ele><time>2026-08-11T02:43:16Z</time></trkpt>
<trkpt lat="34.822973" lon="134.101171"><ele>192.01</ele><time>2026-08-11T02:43:22Z</time></trkpt>
<trkpt lat="34.822962" lon="134.101184"><ele>193.03</ele><time>2026-08-11T02:43:24Z</time></trkpt>
<trkpt lat="34.822953" lon="134.101208"><ele>193.03</ele><time>2026-08-11T02:43:29Z</time></trkpt>
<trkpt lat="34.822957" lon="134.101219"><ele>193.03</ele><time>2026-08-11T02:43:31Z</time></trkpt>
<trkpt lat="34.822957" lon="134.10123"><ele>194.61</ele><time>2026-08-11T02:43:34Z</time></trkpt>
<trkpt lat="34.822955" lon="134.101235"><ele>194.61</ele><time>2026-08-11T02:43:37Z</time></trkpt>
<trkpt lat="34.82296" lon="134.10125"><ele>194.61</ele><time>2026-08-11T02:43:41Z</time></trkpt>
<trkpt lat="34.822963" lon="134.101272"><ele>196.41</ele><time>2026-08-11T02:43:46Z</time></trkpt>
<trkpt lat="34.822959" lon="134.101275"><ele>196.41</ele><time>2026-08-11T02:43:47Z</time></trkpt>
<trkpt lat="34.822957" lon="134.101275"><ele>196.41</ele><time>2026-08-11T02:43:48Z</time></trkpt>
<trkpt lat="34.822961" lon="134.101289"><ele>196.41</ele><time>2026-08-11T02:43:53Z</time></trkpt>
<trkpt lat="34.82297" lon="134.101299"><ele>197.13</ele><time>2026-08-11T02:43:57Z</time></trkpt>
<trkpt lat="34.822971" lon="134.101303"><ele>197.13</ele><time>2026-08-11T02:43:58Z</time></trkpt>
<trkpt lat="34.822991" lon="134.10133"><ele>198.71</ele><time>2026-08-11T02:44:04Z</time></trkpt>
<trkpt lat="34.822992" lon="134.101337"><ele>198.71</ele><time>2026-08-11T02:44:05Z</time></trkpt>
<trkpt lat="34.823009" lon="134.101381"><ele>200.53</ele><time>2026-08-11T02:44:12Z</time></trkpt>
<trkpt lat="34.823019" lon="134.101409"><ele>201.81</ele><time>2026-08-11T02:44:17Z</time></trkpt>
<trkpt lat="34.823011" lon="134.101415"><ele>201.81</ele><time>2026-08-11T02:44:18Z</time></trkpt>
<trkpt lat="34.823005" lon="134.101437"><ele>201.81</ele><time>2026-08-11T02:44:23Z</time></trkpt>
<trkpt lat="34.823018" lon="134.101466"><ele>203.08</ele><time>2026-08-11T02:44:27Z</time></trkpt>
<trkpt lat="34.823019" lon="134.101487"><ele>204.27</ele><time>2026-08-11T02:44:31Z</time></trkpt>
<trkpt lat="34.82302" lon="134.101495"><ele>204.27</ele><time>2026-08-11T02:44:32Z</time></trkpt>
<trkpt lat="34.823042" lon="134.101537"><ele>205.41</ele><time>2026-08-11T02:44:38Z</time></trkpt>
<trkpt lat="34.823045" lon="134.101547"><ele>205.41</ele><time>2026-08-11T02:44:39Z</time></trkpt>
<trkpt lat="34.823054" lon="134.101582"><ele>206.48</ele><time>2026-08-11T02:44:45Z</time></trkpt>
<trkpt lat="34.823055" lon="134.101585"><ele>206.48</ele><time>2026-08-11T02:44:46Z</time></trkpt>
<trkpt lat="34.823073" lon="134.101634"><ele>207.58</ele><time>2026-08-11T02:44:53Z</time></trkpt>
<trkpt lat="34.823102" lon="134.101704"><ele>208.34</ele><time>2026-08-11T02:45:02Z</time></trkpt>
<trkpt lat="34.823141" lon="134.10178"><ele>209.27</ele><time>2026-08-11T02:45:10Z</time></trkpt>
<trkpt lat="34.823155" lon="134.101795"><ele>209.68</ele><time>2026-08-11T02:45:12Z</time></trkpt>
<trkpt lat="34.823195" lon="134.101867"><ele>209.96</ele><time>2026-08-11T02:45:19Z</time></trkpt>
<trkpt lat="34.823202" lon="134.101881"><ele>210.08</ele><time>2026-08-11T02:45:20Z</time></trkpt>
<trkpt lat="34.823271" lon="134.101936"><ele>210.43</ele><time>2026-08-11T02:45:26Z</time></trkpt>
<trkpt lat="34.823342" lon="134.101933"><ele>210.19</ele><time>2026-08-11T02:45:32Z</time></trkpt>
<trkpt lat="34.823357" lon="134.10193"><ele>210.04</ele><time>2026-08-11T02:45:33Z</time></trkpt>
<trkpt lat="34.823447" lon="134.101899"><ele>209.19</ele><time>2026-08-11T02:45:41Z</time></trkpt>
<trkpt lat="34.823517" lon="134.101892"><ele>209.49</ele><time>2026-08-11T02:45:47Z</time></trkpt>
<trkpt lat="34.823533" lon="134.101882"><ele>209.76</ele><time>2026-08-11T02:45:49Z</time></trkpt>
<trkpt lat="34.823611" lon="134.101913"><ele>210.33</ele><time>2026-08-11T02:45:57Z</time></trkpt>
<trkpt lat="34.823684" lon="134.101901"><ele>209.9</ele><time>2026-08-11T02:46:03Z</time></trkpt>
<trkpt lat="34.823711" lon="134.101897"><ele>209.81</ele><time>2026-08-11T02:46:06Z</time></trkpt>
<trkpt lat="34.823781" lon="134.101884"><ele>209.18</ele><time>2026-08-11T02:46:12Z</time></trkpt>
<trkpt lat="34.823822" lon="134.101869"><ele>208.55</ele><time>2026-08-11T02:46:15Z</time></trkpt>
<trkpt lat="34.823834" lon="134.101857"><ele>207.99</ele><time>2026-08-11T02:46:16Z</time></trkpt>
<trkpt lat="34.823842" lon="134.101848"><ele>207.99</ele><time>2026-08-11T02:46:17Z</time></trkpt>
<trkpt lat="34.823882" lon="134.101829"><ele>206.1</ele><time>2026-08-11T02:46:21Z</time></trkpt>
<trkpt lat="34.823888" lon="134.101828"><ele>206.1</ele><time>2026-08-11T02:46:22Z</time></trkpt>
<trkpt lat="34.823896" lon="134.101821"><ele>205.09</ele><time>2026-08-11T02:46:24Z</time></trkpt>
<trkpt lat="34.823904" lon="134.101817"><ele>205.09</ele><time>2026-08-11T02:46:25Z</time></trkpt>
<trkpt lat="34.823927" lon="134.101789"><ele>203.72</ele><time>2026-08-11T02:46:27Z</time></trkpt>
<trkpt lat="34.823946" lon="134.101759"><ele>202.61</ele><time>2026-08-11T02:46:30Z</time></trkpt>
<trkpt lat="34.823961" lon="134.101744"><ele>201.25</ele><time>2026-08-11T02:46:32Z</time></trkpt>
<trkpt lat="34.823971" lon="134.101731"><ele>200.89</ele><time>2026-08-11T02:46:33Z</time></trkpt>
<trkpt lat="34.823985" lon="134.101716"><ele>200.89</ele><time>2026-08-11T02:46:35Z</time></trkpt>
<trkpt lat="34.823989" lon="134.10171"><ele>199.38</ele><time>2026-08-11T02:46:38Z</time></trkpt>
<trkpt lat="34.824004" lon="134.101716"><ele>199.38</ele><time>2026-08-11T02:46:44Z</time></trkpt>
<trkpt lat="34.824014" lon="134.101713"><ele>199.38</ele><time>2026-08-11T02:46:46Z</time></trkpt>
<trkpt lat="34.824015" lon="134.101714"><ele>199.38</ele><time>2026-08-11T02:46:54Z</time></trkpt>
<trkpt lat="34.824015" lon="134.101714"><ele>199.38</ele><time>2026-08-11T02:46:56Z</time></trkpt>
<trkpt lat="34.824015" lon="134.101714"><ele>199.38</ele><time>2026-08-11T02:46:58Z</time></trkpt>
<trkpt lat="34.824015" lon="134.101714"><ele>199.38</ele><time>2026-08-11T02:46:59Z</time></trkpt>
<trkpt lat="34.824015" lon="134.101714"><ele>199.38</ele><time>2026-08-11T02:47:01Z</time></trkpt>
<trkpt lat="34.82402" lon="134.10171"><ele>199.38</ele><time>2026-08-11T02:47:03Z</time></trkpt>
<trkpt lat="34.824034" lon="134.101698"><ele>197.9</ele><time>2026-08-11T02:47:04Z</time></trkpt>
<trkpt lat="34.824065" lon="134.101676"><ele>195.7</ele><time>2026-08-11T02:47:06Z</time></trkpt>
<trkpt lat="34.824077" lon="134.101669"><ele>195.7</ele><time>2026-08-11T02:47:07Z</time></trkpt>
<trkpt lat="34.824129" lon="134.101636"><ele>192.29</ele><time>2026-08-11T02:47:11Z</time></trkpt>
<trkpt lat="34.824131" lon="134.101622"><ele>192.29</ele><time>2026-08-11T02:47:12Z</time></trkpt>
<trkpt lat="34.824136" lon="134.101617"><ele>192.29</ele><time>2026-08-11T02:47:13Z</time></trkpt>
<trkpt lat="34.824163" lon="134.101597"><ele>190.84</ele><time>2026-08-11T02:47:15Z</time></trkpt>
<trkpt lat="34.824199" lon="134.101592"><ele>189.8</ele><time>2026-08-11T02:47:18Z</time></trkpt>
<trkpt lat="34.824212" lon="134.101594"><ele>189.8</ele><time>2026-08-11T02:47:19Z</time></trkpt>
<trkpt lat="34.824237" lon="134.101603"><ele>188.59</ele><time>2026-08-11T02:47:21Z</time></trkpt>
<trkpt lat="34.824249" lon="134.101607"><ele>188.59</ele><time>2026-08-11T02:47:22Z</time></trkpt>
<trkpt lat="34.824262" lon="134.101609"><ele>188.59</ele><time>2026-08-11T02:47:23Z</time></trkpt>
<trkpt lat="34.824271" lon="134.101613"><ele>186.71</ele><time>2026-08-11T02:47:24Z</time></trkpt>
<trkpt lat="34.824287" lon="134.101617"><ele>186.71</ele><time>2026-08-11T02:47:25Z</time></trkpt>
<trkpt lat="34.82431" lon="134.101622"><ele>185.35</ele><time>2026-08-11T02:47:26Z</time></trkpt>
<trkpt lat="34.824373" lon="134.101651"><ele>183.2</ele><time>2026-08-11T02:47:29Z</time></trkpt>
<trkpt lat="34.824387" lon="134.101682"><ele>183.26</ele><time>2026-08-11T02:47:31Z</time></trkpt>
<trkpt lat="34.824392" lon="134.101701"><ele>183.41</ele><time>2026-08-11T02:47:32Z</time></trkpt>
<trkpt lat="34.824437" lon="134.101734"><ele>182.37</ele><time>2026-08-11T02:47:35Z</time></trkpt>
<trkpt lat="34.824454" lon="134.101748"><ele>181.52</ele><time>2026-08-11T02:47:36Z</time></trkpt>
<trkpt lat="34.824474" lon="134.101771"><ele>181.52</ele><time>2026-08-11T02:47:38Z</time></trkpt>
<trkpt lat="34.824485" lon="134.101782"><ele>180.42</ele><time>2026-08-11T02:47:39Z</time></trkpt>
<trkpt lat="34.824501" lon="134.101789"><ele>180.42</ele><time>2026-08-11T02:47:40Z</time></trkpt>
<trkpt lat="34.824537" lon="134.101803"><ele>179.45</ele><time>2026-08-11T02:47:42Z</time></trkpt>
<trkpt lat="34.824556" lon="134.101807"><ele>178.85</ele><time>2026-08-11T02:47:43Z</time></trkpt>
<trkpt lat="34.824575" lon="134.101817"><ele>178.85</ele><time>2026-08-11T02:47:45Z</time></trkpt>
<trkpt lat="34.824685" lon="134.101803"><ele>177.54</ele><time>2026-08-11T02:47:52Z</time></trkpt>
<trkpt lat="34.824704" lon="134.1018"><ele>177.49</ele><time>2026-08-11T02:47:53Z</time></trkpt>
<trkpt lat="34.824803" lon="134.101731"><ele>176.93</ele><time>2026-08-11T02:47:59Z</time></trkpt>
<trkpt lat="34.824817" lon="134.10172"><ele>176.93</ele><time>2026-08-11T02:48:00Z</time></trkpt>
<trkpt lat="34.824839" lon="134.101706"><ele>177.88</ele><time>2026-08-11T02:48:01Z</time></trkpt>
<trkpt lat="34.824871" lon="134.101681"><ele>177.63</ele><time>2026-08-11T02:48:03Z</time></trkpt>
<trkpt lat="34.824913" lon="134.101655"><ele>178.53</ele><time>2026-08-11T02:48:07Z</time></trkpt>
<trkpt lat="34.824917" lon="134.101654"><ele>178.53</ele><time>2026-08-11T02:48:08Z</time></trkpt>
<trkpt lat="34.824952" lon="134.101621"><ele>178.16</ele><time>2026-08-11T02:48:14Z</time></trkpt>
<trkpt lat="34.824953" lon="134.101618"><ele>178.16</ele><time>2026-08-11T02:48:21Z</time></trkpt>
<trkpt lat="34.824955" lon="134.101623"><ele>178.16</ele><time>2026-08-11T02:48:24Z</time></trkpt>
<trkpt lat="34.824954" lon="134.101624"><ele>178.16</ele><time>2026-08-11T02:48:27Z</time></trkpt>
<trkpt lat="34.824954" lon="134.101624"><ele>178.16</ele><time>2026-08-11T02:48:30Z</time></trkpt>
<trkpt lat="34.824954" lon="134.101624"><ele>178.16</ele><time>2026-08-11T02:48:34Z</time></trkpt>
<trkpt lat="34.824955" lon="134.101619"><ele>178.16</ele><time>2026-08-11T02:48:42Z</time></trkpt>
<trkpt lat="34.824975" lon="134.101602"><ele>177.83</ele><time>2026-08-11T02:49:04Z</time></trkpt>
<trkpt lat="34.825024" lon="134.101571"><ele>177.92</ele><time>2026-08-11T02:49:07Z</time></trkpt>
<trkpt lat="34.825052" lon="134.101548"><ele>177.07</ele><time>2026-08-11T02:49:09Z</time></trkpt>
<trkpt lat="34.825081" lon="134.10152"><ele>175.97</ele><time>2026-08-11T02:49:11Z</time></trkpt>
<trkpt lat="34.825097" lon="134.101508"><ele>175.97</ele><time>2026-08-11T02:49:12Z</time></trkpt>
<trkpt lat="34.825101" lon="134.101501"><ele>175.97</ele><time>2026-08-11T02:49:13Z</time></trkpt>
<trkpt lat="34.825111" lon="134.101481"><ele>174.67</ele><time>2026-08-11T02:49:16Z</time></trkpt>
<trkpt lat="34.825111" lon="134.101478"><ele>174.67</ele><time>2026-08-11T02:49:17Z</time></trkpt>
<trkpt lat="34.825111" lon="134.101477"><ele>174.67</ele><time>2026-08-11T02:49:18Z</time></trkpt>
<trkpt lat="34.825112" lon="134.101477"><ele>174.67</ele><time>2026-08-11T02:49:20Z</time></trkpt>
<trkpt lat="34.825112" lon="134.101477"><ele>174.67</ele><time>2026-08-11T02:49:21Z</time></trkpt>
<trkpt lat="34.825139" lon="134.101447"><ele>174.96</ele><time>2026-08-11T02:49:27Z</time></trkpt>
<trkpt lat="34.825139" lon="134.101447"><ele>174.96</ele><time>2026-08-11T02:49:34Z</time></trkpt>
<trkpt lat="34.825139" lon="134.101447"><ele>174.96</ele><time>2026-08-11T02:49:35Z</time></trkpt>
<trkpt lat="34.825157" lon="134.101432"><ele>173.56</ele><time>2026-08-11T02:49:40Z</time></trkpt>
<trkpt lat="34.825198" lon="134.101387"><ele>172.25</ele><time>2026-08-11T02:49:43Z</time></trkpt>
<trkpt lat="34.825259" lon="134.10133"><ele>171.44</ele><time>2026-08-11T02:49:47Z</time></trkpt>
<trkpt lat="34.825292" lon="134.101303"><ele>170.12</ele><time>2026-08-11T02:49:50Z</time></trkpt>
<trkpt lat="34.825305" lon="134.101296"><ele>170.12</ele><time>2026-08-11T02:49:51Z</time></trkpt>
<trkpt lat="34.825316" lon="134.101291"><ele>170.12</ele><time>2026-08-11T02:49:52Z</time></trkpt>
<trkpt lat="34.825327" lon="134.101294"><ele>170.04</ele><time>2026-08-11T02:49:53Z</time></trkpt>
<trkpt lat="34.825379" lon="134.101296"><ele>169.94</ele><time>2026-08-11T02:49:56Z</time></trkpt>
<trkpt lat="34.82539" lon="134.101292"><ele>169.94</ele><time>2026-08-11T02:49:57Z</time></trkpt>
<trkpt lat="34.825447" lon="134.101275"><ele>169.0</ele><time>2026-08-11T02:50:02Z</time></trkpt>
<trkpt lat="34.825454" lon="134.101272"><ele>169.0</ele><time>2026-08-11T02:50:03Z</time></trkpt>
<trkpt lat="34.825485" lon="134.101256"><ele>166.97</ele><time>2026-08-11T02:50:06Z</time></trkpt>
<trkpt lat="34.825533" lon="134.101232"><ele>165.88</ele><time>2026-08-11T02:50:09Z</time></trkpt>
<trkpt lat="34.825556" lon="134.101204"><ele>164.88</ele><time>2026-08-11T02:50:11Z</time></trkpt>
<trkpt lat="34.825568" lon="134.10118"><ele>164.07</ele><time>2026-08-11T02:50:12Z</time></trkpt>
<trkpt lat="34.825627" lon="134.101107"><ele>162.52</ele><time>2026-08-11T02:50:16Z</time></trkpt>
<trkpt lat="34.825646" lon="134.101096"><ele>162.21</ele><time>2026-08-11T02:50:17Z</time></trkpt>
<trkpt lat="34.825691" lon="134.10105"><ele>160.85</ele><time>2026-08-11T02:50:20Z</time></trkpt>
<trkpt lat="34.825714" lon="134.101005"><ele>160.84</ele><time>2026-08-11T02:50:22Z</time></trkpt>
<trkpt lat="34.825746" lon="134.100977"><ele>160.84</ele><time>2026-08-11T02:50:24Z</time></trkpt>
<trkpt lat="34.82577" lon="134.100952"><ele>161.04</ele><time>2026-08-11T02:50:26Z</time></trkpt>
<trkpt lat="34.825808" lon="134.100911"><ele>161.51</ele><time>2026-08-11T02:50:30Z</time></trkpt>
<trkpt lat="34.825812" lon="134.100902"><ele>161.51</ele><time>2026-08-11T02:50:31Z</time></trkpt>
<trkpt lat="34.825817" lon="134.100893"><ele>161.51</ele><time>2026-08-11T02:50:32Z</time></trkpt>
<trkpt lat="34.825823" lon="134.100883"><ele>162.73</ele><time>2026-08-11T02:50:33Z</time></trkpt>
<trkpt lat="34.825829" lon="134.100882"><ele>162.73</ele><time>2026-08-11T02:50:34Z</time></trkpt>
<trkpt lat="34.825864" lon="134.100855"><ele>163.72</ele><time>2026-08-11T02:50:38Z</time></trkpt>
<trkpt lat="34.825869" lon="134.100842"><ele>163.72</ele><time>2026-08-11T02:50:40Z</time></trkpt>
<trkpt lat="34.825911" lon="134.100794"><ele>165.14</ele><time>2026-08-11T02:50:46Z</time></trkpt>
<trkpt lat="34.825936" lon="134.100752"><ele>166.56</ele><time>2026-08-11T02:50:52Z</time></trkpt>
<trkpt lat="34.825937" lon="134.100748"><ele>166.91</ele><time>2026-08-11T02:50:53Z</time></trkpt>
<trkpt lat="34.825938" lon="134.100746"><ele>166.91</ele><time>2026-08-11T02:50:54Z</time></trkpt>
<trkpt lat="34.825943" lon="134.100731"><ele>166.91</ele><time>2026-08-11T02:50:56Z</time></trkpt>
<trkpt lat="34.825948" lon="134.100727"><ele>166.91</ele><time>2026-08-11T02:50:58Z</time></trkpt>
<trkpt lat="34.825953" lon="134.100714"><ele>166.91</ele><time>2026-08-11T02:51:01Z</time></trkpt>
<trkpt lat="34.825956" lon="134.100708"><ele>167.04</ele><time>2026-08-11T02:51:03Z</time></trkpt>
<trkpt lat="34.825974" lon="134.100673"><ele>168.54</ele><time>2026-08-11T02:51:09Z</time></trkpt>
<trkpt lat="34.825979" lon="134.100667"><ele>168.54</ele><time>2026-08-11T02:51:10Z</time></trkpt>
<trkpt lat="34.825982" lon="134.100639"><ele>169.21</ele><time>2026-08-11T02:51:14Z</time></trkpt>
<trkpt lat="34.825989" lon="134.100632"><ele>169.21</ele><time>2026-08-11T02:51:16Z</time></trkpt>
<trkpt lat="34.825999" lon="134.100592"><ele>171.67</ele><time>2026-08-11T02:51:22Z</time></trkpt>
<trkpt lat="34.826" lon="134.10057"><ele>172.45</ele><time>2026-08-11T02:51:25Z</time></trkpt>
<trkpt lat="34.826002" lon="134.100561"><ele>172.45</ele><time>2026-08-11T02:51:27Z</time></trkpt>
<trkpt lat="34.826008" lon="134.100536"><ele>173.55</ele><time>2026-08-11T02:51:31Z</time></trkpt>
<trkpt lat="34.826009" lon="134.100531"><ele>173.55</ele><time>2026-08-11T02:51:33Z</time></trkpt>
<trkpt lat="34.826011" lon="134.100502"><ele>173.55</ele><time>2026-08-11T02:51:39Z</time></trkpt>
<trkpt lat="34.826011" lon="134.100494"><ele>174.74</ele><time>2026-08-11T02:51:40Z</time></trkpt>
<trkpt lat="34.826024" lon="134.100465"><ele>174.74</ele><time>2026-08-11T02:51:46Z</time></trkpt>
<trkpt lat="34.826036" lon="134.100455"><ele>176.01</ele><time>2026-08-11T02:51:49Z</time></trkpt>
<trkpt lat="34.826037" lon="134.100451"><ele>177.12</ele><time>2026-08-11T02:51:50Z</time></trkpt>
<trkpt lat="34.826023" lon="134.100401"><ele>177.24</ele><time>2026-08-11T02:51:56Z</time></trkpt>
<trkpt lat="34.826013" lon="134.100365"><ele>178.0</ele><time>2026-08-11T02:52:01Z</time></trkpt>
<trkpt lat="34.825998" lon="134.100333"><ele>178.0</ele><time>2026-08-11T02:52:04Z</time></trkpt>
<trkpt lat="34.825965" lon="134.100296"><ele>178.15</ele><time>2026-08-11T02:52:09Z</time></trkpt>
<trkpt lat="34.825934" lon="134.100241"><ele>178.79</ele><time>2026-08-11T02:52:14Z</time></trkpt>
<trkpt lat="34.825892" lon="134.10017"><ele>180.17</ele><time>2026-08-11T02:52:20Z</time></trkpt>
<trkpt lat="34.825887" lon="134.100157"><ele>179.47</ele><time>2026-08-11T02:52:21Z</time></trkpt>
<trkpt lat="34.82588" lon="134.100142"><ele>180.46</ele><time>2026-08-11T02:52:22Z</time></trkpt>
<trkpt lat="34.825815" lon="134.100074"><ele>179.93</ele><time>2026-08-11T02:52:29Z</time></trkpt>
<trkpt lat="34.82581" lon="134.10005"><ele>180.58</ele><time>2026-08-11T02:52:31Z</time></trkpt>
<trkpt lat="34.825812" lon="134.100015"><ele>180.97</ele><time>2026-08-11T02:52:33Z</time></trkpt>
<trkpt lat="34.825803" lon="134.09997"><ele>181.17</ele><time>2026-08-11T02:52:36Z</time></trkpt>
<trkpt lat="34.825788" lon="134.099892"><ele>181.02</ele><time>2026-08-11T02:52:41Z</time></trkpt>
<trkpt lat="34.825782" lon="134.099879"><ele>180.76</ele><time>2026-08-11T02:52:42Z</time></trkpt>
<trkpt lat="34.825774" lon="134.099775"><ele>180.38</ele><time>2026-08-11T02:52:49Z</time></trkpt>
<trkpt lat="34.825777" lon="134.09976"><ele>180.22</ele><time>2026-08-11T02:52:50Z</time></trkpt>
<trkpt lat="34.825769" lon="134.09969"><ele>180.05</ele><time>2026-08-11T02:52:54Z</time></trkpt>
<trkpt lat="34.825759" lon="134.099614"><ele>179.86</ele><time>2026-08-11T02:52:59Z</time></trkpt>
<trkpt lat="34.825715" lon="134.099531"><ele>180.16</ele><time>2026-08-11T02:53:07Z</time></trkpt>
<trkpt lat="34.825696" lon="134.099448"><ele>181.16</ele><time>2026-08-11T02:53:12Z</time></trkpt>
<trkpt lat="34.825701" lon="134.099436"><ele>181.16</ele><time>2026-08-11T02:53:13Z</time></trkpt>
<trkpt lat="34.825699" lon="134.09941"><ele>181.76</ele><time>2026-08-11T02:53:15Z</time></trkpt>
<trkpt lat="34.825674" lon="134.099392"><ele>181.34</ele><time>2026-08-11T02:53:19Z</time></trkpt>
<trkpt lat="34.825662" lon="134.099336"><ele>182.08</ele><time>2026-08-11T02:53:23Z</time></trkpt>
<trkpt lat="34.825652" lon="134.099317"><ele>182.8</ele><time>2026-08-11T02:53:25Z</time></trkpt>
<trkpt lat="34.825643" lon="134.099288"><ele>183.56</ele><time>2026-08-11T02:53:30Z</time></trkpt>
<trkpt lat="34.825645" lon="134.099278"><ele>183.56</ele><time>2026-08-11T02:53:31Z</time></trkpt>
<trkpt lat="34.825651" lon="134.099252"><ele>183.56</ele><time>2026-08-11T02:53:33Z</time></trkpt>
<trkpt lat="34.825661" lon="134.099211"><ele>184.32</ele><time>2026-08-11T02:53:37Z</time></trkpt>
<trkpt lat="34.825642" lon="134.099182"><ele>185.07</ele><time>2026-08-11T02:53:41Z</time></trkpt>
<trkpt lat="34.825647" lon="134.099139"><ele>185.85</ele><time>2026-08-11T02:53:44Z</time></trkpt>
<trkpt lat="34.825659" lon="134.09906"><ele>187.33</ele><time>2026-08-11T02:53:51Z</time></trkpt>
<trkpt lat="34.825651" lon="134.099043"><ele>187.33</ele><time>2026-08-11T02:53:52Z</time></trkpt>
<trkpt lat="34.825646" lon="134.099006"><ele>188.18</ele><time>2026-08-11T02:53:58Z</time></trkpt>
<trkpt lat="34.825647" lon="134.098995"><ele>188.18</ele><time>2026-08-11T02:53:59Z</time></trkpt>
<trkpt lat="34.825658" lon="134.098961"><ele>189.18</ele><time>2026-08-11T02:54:04Z</time></trkpt>
<trkpt lat="34.825655" lon="134.098946"><ele>190.05</ele><time>2026-08-11T02:54:07Z</time></trkpt>
<trkpt lat="34.825652" lon="134.098933"><ele>190.05</ele><time>2026-08-11T02:54:10Z</time></trkpt>
<trkpt lat="34.825652" lon="134.098916"><ele>190.05</ele><time>2026-08-11T02:54:13Z</time></trkpt>
<trkpt lat="34.825651" lon="134.09891"><ele>190.05</ele><time>2026-08-11T02:54:14Z</time></trkpt>
<trkpt lat="34.82565" lon="134.09888"><ele>191.2</ele><time>2026-08-11T02:54:18Z</time></trkpt>
<trkpt lat="34.825652" lon="134.098869"><ele>191.2</ele><time>2026-08-11T02:54:21Z</time></trkpt>
<trkpt lat="34.825645" lon="134.098854"><ele>192.51</ele><time>2026-08-11T02:54:24Z</time></trkpt>
<trkpt lat="34.825634" lon="134.098853"><ele>191.9</ele><time>2026-08-11T02:54:26Z</time></trkpt>
<trkpt lat="34.825633" lon="134.09885"><ele>191.9</ele><time>2026-08-11T02:54:27Z</time></trkpt>
<trkpt lat="34.825634" lon="134.098849"><ele>191.9</ele><time>2026-08-11T02:54:28Z</time></trkpt>
<trkpt lat="34.825635" lon="134.098832"><ele>191.9</ele><time>2026-08-11T02:54:30Z</time></trkpt>
<trkpt lat="34.825632" lon="134.098787"><ele>193.39</ele><time>2026-08-11T02:54:35Z</time></trkpt>
<trkpt lat="34.825631" lon="134.098784"><ele>193.39</ele><time>2026-08-11T02:54:36Z</time></trkpt>
<trkpt lat="34.825633" lon="134.098766"><ele>194.92</ele><time>2026-08-11T02:54:39Z</time></trkpt>
<trkpt lat="34.82563" lon="134.098751"><ele>194.92</ele><time>2026-08-11T02:54:42Z</time></trkpt>
<trkpt lat="34.825623" lon="134.098732"><ele>196.68</ele><time>2026-08-11T02:54:44Z</time></trkpt>
<trkpt lat="34.825619" lon="134.098728"><ele>196.68</ele><time>2026-08-11T02:54:47Z</time></trkpt>
<trkpt lat="34.825619" lon="134.098717"><ele>196.68</ele><time>2026-08-11T02:54:48Z</time></trkpt>
<trkpt lat="34.825596" lon="134.098684"><ele>198.08</ele><time>2026-08-11T02:54:54Z</time></trkpt>
<trkpt lat="34.825587" lon="134.098679"><ele>198.08</ele><time>2026-08-11T02:54:55Z</time></trkpt>
<trkpt lat="34.825562" lon="134.098651"><ele>197.55</ele><time>2026-08-11T02:55:01Z</time></trkpt>
<trkpt lat="34.825565" lon="134.098634"><ele>199.72</ele><time>2026-08-11T02:55:02Z</time></trkpt>
<trkpt lat="34.825578" lon="134.098624"><ele>200.11</ele><time>2026-08-11T02:55:06Z</time></trkpt>
<trkpt lat="34.825589" lon="134.098608"><ele>200.11</ele><time>2026-08-11T02:55:07Z</time></trkpt>
<trkpt lat="34.825615" lon="134.098576"><ele>202.52</ele><time>2026-08-11T02:55:13Z</time></trkpt>
<trkpt lat="34.825646" lon="134.098554"><ele>204.25</ele><time>2026-08-11T02:55:17Z</time></trkpt>
<trkpt lat="34.825659" lon="134.098538"><ele>204.25</ele><time>2026-08-11T02:55:21Z</time></trkpt>
<trkpt lat="34.825658" lon="134.09852"><ele>205.98</ele><time>2026-08-11T02:55:24Z</time></trkpt>
<trkpt lat="34.825658" lon="134.09851"><ele>205.98</ele><time>2026-08-11T02:55:27Z</time></trkpt>
<trkpt lat="34.825661" lon="134.0985"><ele>205.98</ele><time>2026-08-11T02:55:30Z</time></trkpt>
<trkpt lat="34.825662" lon="134.0985"><ele>205.98</ele><time>2026-08-11T02:55:32Z</time></trkpt>
<trkpt lat="34.825653" lon="134.098507"><ele>205.98</ele><time>2026-08-11T02:55:35Z</time></trkpt>
<trkpt lat="34.825646" lon="134.098508"><ele>205.98</ele><time>2026-08-11T02:55:36Z</time></trkpt>
<trkpt lat="34.825614" lon="134.098489"><ele>206.17</ele><time>2026-08-11T02:55:40Z</time></trkpt>
<trkpt lat="34.82561" lon="134.098491"><ele>206.17</ele><time>2026-08-11T02:55:41Z</time></trkpt>
<trkpt lat="34.825594" lon="134.098461"><ele>207.93</ele><time>2026-08-11T02:55:46Z</time></trkpt>
<trkpt lat="34.825591" lon="134.098454"><ele>207.93</ele><time>2026-08-11T02:55:47Z</time></trkpt>
<trkpt lat="34.825565" lon="134.098431"><ele>209.69</ele><time>2026-08-11T02:55:54Z</time></trkpt>
<trkpt lat="34.825516" lon="134.09841"><ele>209.47</ele><time>2026-08-11T02:56:02Z</time></trkpt>
<trkpt lat="34.825512" lon="134.098407"><ele>209.47</ele><time>2026-08-11T02:56:03Z</time></trkpt>
<trkpt lat="34.825516" lon="134.098393"><ele>209.47</ele><time>2026-08-11T02:56:06Z</time></trkpt>
<trkpt lat="34.825524" lon="134.098382"><ele>211.32</ele><time>2026-08-11T02:56:09Z</time></trkpt>
<trkpt lat="34.825539" lon="134.098378"><ele>211.51</ele><time>2026-08-11T02:56:11Z</time></trkpt>
<trkpt lat="34.825561" lon="134.09836"><ele>211.51</ele><time>2026-08-11T02:56:16Z</time></trkpt>
<trkpt lat="34.825566" lon="134.098338"><ele>213.24</ele><time>2026-08-11T02:56:20Z</time></trkpt>
<trkpt lat="34.825566" lon="134.098319"><ele>213.24</ele><time>2026-08-11T02:56:23Z</time></trkpt>
<trkpt lat="34.825567" lon="134.098305"><ele>214.79</ele><time>2026-08-11T02:56:24Z</time></trkpt>
<trkpt lat="34.825568" lon="134.098252"><ele>216.25</ele><time>2026-08-11T02:56:29Z</time></trkpt>
<trkpt lat="34.825556" lon="134.098223"><ele>216.25</ele><time>2026-08-11T02:56:33Z</time></trkpt>
<trkpt lat="34.825552" lon="134.098174"><ele>219.57</ele><time>2026-08-11T02:56:38Z</time></trkpt>
<trkpt lat="34.825538" lon="134.09816"><ele>219.57</ele><time>2026-08-11T02:56:43Z</time></trkpt>
<trkpt lat="34.825537" lon="134.098151"><ele>219.57</ele><time>2026-08-11T02:56:44Z</time></trkpt>
<trkpt lat="34.825545" lon="134.098136"><ele>219.57</ele><time>2026-08-11T02:56:49Z</time></trkpt>
<trkpt lat="34.825576" lon="134.098114"><ele>220.92</ele><time>2026-08-11T02:56:54Z</time></trkpt>
<trkpt lat="34.825619" lon="134.09808"><ele>221.05</ele><time>2026-08-11T02:57:00Z</time></trkpt>
<trkpt lat="34.825627" lon="134.098068"><ele>221.05</ele><time>2026-08-11T02:57:01Z</time></trkpt>
<trkpt lat="34.825661" lon="134.098054"><ele>220.44</ele><time>2026-08-11T02:57:05Z</time></trkpt>
<trkpt lat="34.825673" lon="134.098055"><ele>220.44</ele><time>2026-08-11T02:57:07Z</time></trkpt>
<trkpt lat="34.825723" lon="134.098049"><ele>218.72</ele><time>2026-08-11T02:57:13Z</time></trkpt>
<trkpt lat="34.825735" lon="134.098042"><ele>219.18</ele><time>2026-08-11T02:57:14Z</time></trkpt>
<trkpt lat="34.82574" lon="134.098033"><ele>219.18</ele><time>2026-08-11T02:57:15Z</time></trkpt>
<trkpt lat="34.825753" lon="134.098024"><ele>218.31</ele><time>2026-08-11T02:57:16Z</time></trkpt>
<trkpt lat="34.825767" lon="134.09802"><ele>218.31</ele><time>2026-08-11T02:57:17Z</time></trkpt>
<trkpt lat="34.825797" lon="134.098002"><ele>217.2</ele><time>2026-08-11T02:57:21Z</time></trkpt>
<trkpt lat="34.825859" lon="134.097968"><ele>215.24</ele><time>2026-08-11T02:57:26Z</time></trkpt>
<trkpt lat="34.825876" lon="134.097971"><ele>215.24</ele><time>2026-08-11T02:57:27Z</time></trkpt>
<trkpt lat="34.825922" lon="134.097968"><ele>214.21</ele><time>2026-08-11T02:57:29Z</time></trkpt>
<trkpt lat="34.825966" lon="134.09795"><ele>212.08</ele><time>2026-08-11T02:57:32Z</time></trkpt>
<trkpt lat="34.826028" lon="134.09794"><ele>211.0</ele><time>2026-08-11T02:57:35Z</time></trkpt>
<trkpt lat="34.82608" lon="134.09793"><ele>208.69</ele><time>2026-08-11T02:57:38Z</time></trkpt>
<trkpt lat="34.826112" lon="134.097918"><ele>207.28</ele><time>2026-08-11T02:57:40Z</time></trkpt>
<trkpt lat="34.826151" lon="134.097917"><ele>206.08</ele><time>2026-08-11T02:57:42Z</time></trkpt>
<trkpt lat="34.826187" lon="134.097911"><ele>204.86</ele><time>2026-08-11T02:57:44Z</time></trkpt>
<trkpt lat="34.826203" lon="134.09791"><ele>204.86</ele><time>2026-08-11T02:57:45Z</time></trkpt>
<trkpt lat="34.826238" lon="134.0979"><ele>203.7</ele><time>2026-08-11T02:57:47Z</time></trkpt>
<trkpt lat="34.826293" lon="134.097885"><ele>201.62</ele><time>2026-08-11T02:57:49Z</time></trkpt>
<trkpt lat="34.826327" lon="134.097895"><ele>200.73</ele><time>2026-08-11T02:57:51Z</time></trkpt>
<trkpt lat="34.826359" lon="134.097901"><ele>199.9</ele><time>2026-08-11T02:57:53Z</time></trkpt>
<trkpt lat="34.826395" lon="134.097896"><ele>199.31</ele><time>2026-08-11T02:57:55Z</time></trkpt>
<trkpt lat="34.826436" lon="134.097889"><ele>198.91</ele><time>2026-08-11T02:57:57Z</time></trkpt>
<trkpt lat="34.826477" lon="134.097883"><ele>198.72</ele><time>2026-08-11T02:57:59Z</time></trkpt>
<trkpt lat="34.826569" lon="134.097885"><ele>198.88</ele><time>2026-08-11T02:58:05Z</time></trkpt>
<trkpt lat="34.826744" lon="134.097888"><ele>199.13</ele><time>2026-08-11T02:58:14Z</time></trkpt>
<trkpt lat="34.826876" lon="134.097894"><ele>198.45</ele><time>2026-08-11T02:58:21Z</time></trkpt>
<trkpt lat="34.826965" lon="134.09789"><ele>197.74</ele><time>2026-08-11T02:58:26Z</time></trkpt>
<trkpt lat="34.826986" lon="134.097888"><ele>197.33</ele><time>2026-08-11T02:58:27Z</time></trkpt>
<trkpt lat="34.827057" lon="134.097887"><ele>196.56</ele><time>2026-08-11T02:58:30Z</time></trkpt>
<trkpt lat="34.827103" lon="134.097901"><ele>196.21</ele><time>2026-08-11T02:58:33Z</time></trkpt>
<trkpt lat="34.827116" lon="134.097908"><ele>196.21</ele><time>2026-08-11T02:58:34Z</time></trkpt>
<trkpt lat="34.827151" lon="134.097919"><ele>195.87</ele><time>2026-08-11T02:58:36Z</time></trkpt>
<trkpt lat="34.827184" lon="134.097923"><ele>195.83</ele><time>2026-08-11T02:58:38Z</time></trkpt>
<trkpt lat="34.827284" lon="134.097924"><ele>195.54</ele><time>2026-08-11T02:58:43Z</time></trkpt>
<trkpt lat="34.827358" lon="134.09797"><ele>195.57</ele><time>2026-08-11T02:58:47Z</time></trkpt>
<trkpt lat="34.827404" lon="134.097989"><ele>195.33</ele><time>2026-08-11T02:58:50Z</time></trkpt>
<trkpt lat="34.827438" lon="134.097948"><ele>194.73</ele><time>2026-08-11T02:58:52Z</time></trkpt>
<trkpt lat="34.827453" lon="134.09792"><ele>194.73</ele><time>2026-08-11T02:58:54Z</time></trkpt>
<trkpt lat="34.827452" lon="134.097905"><ele>194.18</ele><time>2026-08-11T02:58:55Z</time></trkpt>
<trkpt lat="34.827466" lon="134.097853"><ele>193.52</ele><time>2026-08-11T02:58:57Z</time></trkpt>
<trkpt lat="34.827469" lon="134.097829"><ele>192.54</ele><time>2026-08-11T02:58:58Z</time></trkpt>
<trkpt lat="34.827474" lon="134.097778"><ele>190.96</ele><time>2026-08-11T02:59:01Z</time></trkpt>
<trkpt lat="34.827461" lon="134.097768"><ele>191.3</ele><time>2026-08-11T02:59:02Z</time></trkpt>
<trkpt lat="34.827442" lon="134.097741"><ele>189.88</ele><time>2026-08-11T02:59:04Z</time></trkpt>
<trkpt lat="34.827438" lon="134.09773"><ele>189.88</ele><time>2026-08-11T02:59:05Z</time></trkpt>
<trkpt lat="34.827438" lon="134.097712"><ele>189.88</ele><time>2026-08-11T02:59:07Z</time></trkpt>
<trkpt lat="34.827443" lon="134.097682"><ele>188.41</ele><time>2026-08-11T02:59:09Z</time></trkpt>
<trkpt lat="34.827439" lon="134.097668"><ele>188.41</ele><time>2026-08-11T02:59:10Z</time></trkpt>
<trkpt lat="34.827433" lon="134.097648"><ele>187.42</ele><time>2026-08-11T02:59:11Z</time></trkpt>
<trkpt lat="34.827424" lon="134.097624"><ele>187.42</ele><time>2026-08-11T02:59:13Z</time></trkpt>
<trkpt lat="34.82743" lon="134.097607"><ele>185.66</ele><time>2026-08-11T02:59:15Z</time></trkpt>
<trkpt lat="34.827433" lon="134.097585"><ele>185.66</ele><time>2026-08-11T02:59:17Z</time></trkpt>
<trkpt lat="34.827448" lon="134.09756"><ele>183.43</ele><time>2026-08-11T02:59:19Z</time></trkpt>
<trkpt lat="34.827461" lon="134.097546"><ele>183.43</ele><time>2026-08-11T02:59:20Z</time></trkpt>
<trkpt lat="34.827477" lon="134.09754"><ele>183.05</ele><time>2026-08-11T02:59:21Z</time></trkpt>
<trkpt lat="34.827479" lon="134.09754"><ele>183.05</ele><time>2026-08-11T02:59:22Z</time></trkpt>
<trkpt lat="34.827517" lon="134.09751"><ele>180.65</ele><time>2026-08-11T02:59:25Z</time></trkpt>
<trkpt lat="34.827521" lon="134.097493"><ele>180.65</ele><time>2026-08-11T02:59:27Z</time></trkpt>
<trkpt lat="34.827531" lon="134.097479"><ele>178.55</ele><time>2026-08-11T02:59:29Z</time></trkpt>
<trkpt lat="34.827535" lon="134.09747"><ele>178.55</ele><time>2026-08-11T02:59:30Z</time></trkpt>
<trkpt lat="34.827542" lon="134.097463"><ele>178.55</ele><time>2026-08-11T02:59:31Z</time></trkpt>
<trkpt lat="34.827564" lon="134.097441"><ele>175.67</ele><time>2026-08-11T02:59:33Z</time></trkpt>
<trkpt lat="34.827572" lon="134.097437"><ele>175.67</ele><time>2026-08-11T02:59:35Z</time></trkpt>
<trkpt lat="34.827602" lon="134.097427"><ele>174.99</ele><time>2026-08-11T02:59:37Z</time></trkpt>
<trkpt lat="34.827625" lon="134.097417"><ele>174.28</ele><time>2026-08-11T02:59:39Z</time></trkpt>
<trkpt lat="34.827629" lon="134.097387"><ele>172.15</ele><time>2026-08-11T02:59:42Z</time></trkpt>
<trkpt lat="34.827633" lon="134.09737"><ele>172.15</ele><time>2026-08-11T02:59:43Z</time></trkpt>
<trkpt lat="34.827643" lon="134.097358"><ele>170.17</ele><time>2026-08-11T02:59:44Z</time></trkpt>
<trkpt lat="34.827664" lon="134.097303"><ele>168.1</ele><time>2026-08-11T02:59:46Z</time></trkpt>
<trkpt lat="34.827712" lon="134.097234"><ele>166.73</ele><time>2026-08-11T02:59:49Z</time></trkpt>
<trkpt lat="34.827755" lon="134.097213"><ele>165.25</ele><time>2026-08-11T02:59:51Z</time></trkpt>
<trkpt lat="34.827785" lon="134.09721"><ele>165.25</ele><time>2026-08-11T02:59:52Z</time></trkpt>
<trkpt lat="34.827835" lon="134.097199"><ele>164.0</ele><time>2026-08-11T02:59:54Z</time></trkpt>
<trkpt lat="34.827851" lon="134.097196"><ele>164.0</ele><time>2026-08-11T02:59:55Z</time></trkpt>
<trkpt lat="34.827899" lon="134.097186"><ele>162.43</ele><time>2026-08-11T02:59:58Z</time></trkpt>
<trkpt lat="34.827935" lon="134.097183"><ele>161.57</ele><time>2026-08-11T03:00:00Z</time></trkpt>
<trkpt lat="34.827954" lon="134.097187"><ele>161.57</ele><time>2026-08-11T03:00:01Z</time></trkpt>
<trkpt lat="34.827968" lon="134.097186"><ele>160.77</ele><time>2026-08-11T03:00:02Z</time></trkpt>
<trkpt lat="34.828027" lon="134.097189"><ele>160.07</ele><time>2026-08-11T03:00:05Z</time></trkpt>
<trkpt lat="34.828067" lon="134.097181"><ele>159.42</ele><time>2026-08-11T03:00:07Z</time></trkpt>
<trkpt lat="34.828095" lon="134.097179"><ele>158.83</ele><time>2026-08-11T03:00:08Z</time></trkpt>
<trkpt lat="34.828151" lon="134.097183"><ele>157.96</ele><time>2026-08-11T03:00:10Z</time></trkpt>
<trkpt lat="34.828195" lon="134.097181"><ele>157.49</ele><time>2026-08-11T03:00:12Z</time></trkpt>
<trkpt lat="34.828246" lon="134.097179"><ele>157.07</ele><time>2026-08-11T03:00:15Z</time></trkpt>
<trkpt lat="34.828301" lon="134.09717"><ele>156.01</ele><time>2026-08-11T03:00:18Z</time></trkpt>
<trkpt lat="34.828336" lon="134.097178"><ele>155.36</ele><time>2026-08-11T03:00:20Z</time></trkpt>
<trkpt lat="34.828373" lon="134.097178"><ele>154.72</ele><time>2026-08-11T03:00:22Z</time></trkpt>
<trkpt lat="34.82839" lon="134.097178"><ele>154.11</ele><time>2026-08-11T03:00:23Z</time></trkpt>
<trkpt lat="34.828412" lon="134.097179"><ele>154.11</ele><time>2026-08-11T03:00:24Z</time></trkpt>
<trkpt lat="34.82845" lon="134.097172"><ele>153.47</ele><time>2026-08-11T03:00:26Z</time></trkpt>
<trkpt lat="34.828518" lon="134.097128"><ele>152.39</ele><time>2026-08-11T03:00:29Z</time></trkpt>
<trkpt lat="34.828531" lon="134.097121"><ele>151.82</ele><time>2026-08-11T03:00:30Z</time></trkpt>
<trkpt lat="34.828595" lon="134.097102"><ele>151.23</ele><time>2026-08-11T03:00:33Z</time></trkpt>
<trkpt lat="34.828627" lon="134.097084"><ele>150.58</ele><time>2026-08-11T03:00:35Z</time></trkpt>
<trkpt lat="34.828637" lon="134.097065"><ele>150.05</ele><time>2026-08-11T03:00:36Z</time></trkpt>
<trkpt lat="34.82866" lon="134.097036"><ele>150.02</ele><time>2026-08-11T03:00:38Z</time></trkpt>
<trkpt lat="34.828678" lon="134.097005"><ele>149.48</ele><time>2026-08-11T03:00:40Z</time></trkpt>
<trkpt lat="34.828713" lon="134.096959"><ele>149.0</ele><time>2026-08-11T03:00:43Z</time></trkpt>
<trkpt lat="34.828753" lon="134.096904"><ele>148.25</ele><time>2026-08-11T03:00:46Z</time></trkpt>
<trkpt lat="34.82879" lon="134.09686"><ele>147.58</ele><time>2026-08-11T03:00:49Z</time></trkpt>
<trkpt lat="34.828821" lon="134.09682"><ele>147.06</ele><time>2026-08-11T03:00:52Z</time></trkpt>
<trkpt lat="34.828881" lon="134.096767"><ele>146.48</ele><time>2026-08-11T03:00:56Z</time></trkpt>
<trkpt lat="34.82891" lon="134.096741"><ele>146.07</ele><time>2026-08-11T03:00:58Z</time></trkpt>
<trkpt lat="34.828922" lon="134.096717"><ele>145.89</ele><time>2026-08-11T03:00:59Z</time></trkpt>
<trkpt lat="34.82894" lon="134.096699"><ele>145.89</ele><time>2026-08-11T03:01:00Z</time></trkpt>
<trkpt lat="34.828959" lon="134.096681"><ele>144.44</ele><time>2026-08-11T03:01:01Z</time></trkpt>
<trkpt lat="34.829016" lon="134.09665"><ele>144.6</ele><time>2026-08-11T03:01:05Z</time></trkpt>
<trkpt lat="34.829029" lon="134.096654"><ele>143.74</ele><time>2026-08-11T03:01:09Z</time></trkpt>
<trkpt lat="34.829066" lon="134.096606"><ele>143.78</ele><time>2026-08-11T03:01:16Z</time></trkpt>
<trkpt lat="34.829099" lon="134.096569"><ele>143.52</ele><time>2026-08-11T03:01:21Z</time></trkpt>
<trkpt lat="34.829115" lon="134.096555"><ele>143.52</ele><time>2026-08-11T03:01:22Z</time></trkpt>
<trkpt lat="34.829206" lon="134.09646"><ele>139.63</ele><time>2026-08-11T03:01:28Z</time></trkpt>
<trkpt lat="34.829239" lon="134.096402"><ele>138.13</ele><time>2026-08-11T03:01:31Z</time></trkpt>
<trkpt lat="34.829272" lon="134.096349"><ele>136.7</ele><time>2026-08-11T03:01:33Z</time></trkpt>
<trkpt lat="34.829306" lon="134.096305"><ele>134.91</ele><time>2026-08-11T03:01:36Z</time></trkpt>
<trkpt lat="34.829325" lon="134.096276"><ele>132.28</ele><time>2026-08-11T03:01:38Z</time></trkpt>
<trkpt lat="34.829356" lon="134.096226"><ele>130.25</ele><time>2026-08-11T03:01:41Z</time></trkpt>
<trkpt lat="34.829376" lon="134.096209"><ele>130.95</ele><time>2026-08-11T03:01:43Z</time></trkpt>
<trkpt lat="34.829393" lon="134.0962"><ele>128.37</ele><time>2026-08-11T03:01:44Z</time></trkpt>
<trkpt lat="34.829418" lon="134.096172"><ele>129.16</ele><time>2026-08-11T03:01:46Z</time></trkpt>
<trkpt lat="34.829432" lon="134.09616"><ele>129.16</ele><time>2026-08-11T03:01:47Z</time></trkpt>
<trkpt lat="34.829468" lon="134.096141"><ele>127.47</ele><time>2026-08-11T03:01:49Z</time></trkpt>
<trkpt lat="34.829493" lon="134.096124"><ele>128.05</ele><time>2026-08-11T03:01:51Z</time></trkpt>
<trkpt lat="34.8295" lon="134.096114"><ele>125.54</ele><time>2026-08-11T03:01:52Z</time></trkpt>
<trkpt lat="34.829523" lon="134.09608"><ele>126.17</ele><time>2026-08-11T03:01:54Z</time></trkpt>
<trkpt lat="34.829542" lon="134.09603"><ele>120.55</ele><time>2026-08-11T03:01:56Z</time></trkpt>
<trkpt lat="34.829564" lon="134.096004"><ele>121.41</ele><time>2026-08-11T03:01:58Z</time></trkpt>
<trkpt lat="34.829577" lon="134.095993"><ele>121.41</ele><time>2026-08-11T03:01:59Z</time></trkpt>
<trkpt lat="34.829591" lon="134.095983"><ele>119.66</ele><time>2026-08-11T03:02:00Z</time></trkpt>
<trkpt lat="34.829612" lon="134.095971"><ele>119.66</ele><time>2026-08-11T03:02:02Z</time></trkpt>
<trkpt lat="34.829627" lon="134.095963"><ele>120.69</ele><time>2026-08-11T03:02:03Z</time></trkpt>
<trkpt lat="34.829653" lon="134.095943"><ele>118.14</ele><time>2026-08-11T03:02:05Z</time></trkpt>
<trkpt lat="34.829685" lon="134.095925"><ele>119.06</ele><time>2026-08-11T03:02:07Z</time></trkpt>
<trkpt lat="34.829742" lon="134.095928"><ele>120.05</ele><time>2026-08-11T03:02:10Z</time></trkpt>
<trkpt lat="34.829761" lon="134.09591"><ele>120.05</ele><time>2026-08-11T03:02:12Z</time></trkpt>
<trkpt lat="34.829762" lon="134.095902"><ele>117.89</ele><time>2026-08-11T03:02:13Z</time></trkpt>
<trkpt lat="34.829757" lon="134.095891"><ele>117.89</ele><time>2026-08-11T03:02:14Z</time></trkpt>
<trkpt lat="34.829759" lon="134.09584"><ele>115.65</ele><time>2026-08-11T03:02:16Z</time></trkpt>
<trkpt lat="34.829761" lon="134.095815"><ele>113.48</ele><time>2026-08-11T03:02:17Z</time></trkpt>
<trkpt lat="34.829764" lon="134.095802"><ele>113.93</ele><time>2026-08-11T03:02:18Z</time></trkpt>
<trkpt lat="34.829771" lon="134.09579"><ele>113.93</ele><time>2026-08-11T03:02:19Z</time></trkpt>
<trkpt lat="34.829787" lon="134.095761"><ele>112.08</ele><time>2026-08-11T03:02:21Z</time></trkpt>
<trkpt lat="34.829804" lon="134.095731"><ele>112.36</ele><time>2026-08-11T03:02:23Z</time></trkpt>
<trkpt lat="34.829818" lon="134.09571"><ele>110.53</ele><time>2026-08-11T03:02:25Z</time></trkpt>
<trkpt lat="34.829828" lon="134.095698"><ele>110.53</ele><time>2026-08-11T03:02:26Z</time></trkpt>
<trkpt lat="34.829853" lon="134.095676"><ele>108.46</ele><time>2026-08-11T03:02:28Z</time></trkpt>
<trkpt lat="34.829888" lon="134.095672"><ele>108.03</ele><time>2026-08-11T03:02:30Z</time></trkpt>
<trkpt lat="34.829919" lon="134.095669"><ele>107.37</ele><time>2026-08-11T03:02:32Z</time></trkpt>
<trkpt lat="34.829967" lon="134.095678"><ele>106.11</ele><time>2026-08-11T03:02:35Z</time></trkpt>
<trkpt lat="34.83" lon="134.09569"><ele>105.69</ele><time>2026-08-11T03:02:37Z</time></trkpt>
<trkpt lat="34.830013" lon="134.095705"><ele>103.64</ele><time>2026-08-11T03:02:38Z</time></trkpt>
<trkpt lat="34.830029" lon="134.095714"><ele>103.64</ele><time>2026-08-11T03:02:39Z</time></trkpt>
<trkpt lat="34.830045" lon="134.095723"><ele>101.23</ele><time>2026-08-11T03:02:40Z</time></trkpt>
<trkpt lat="34.830068" lon="134.095749"><ele>101.78</ele><time>2026-08-11T03:02:42Z</time></trkpt>
<trkpt lat="34.830086" lon="134.095776"><ele>99.9</ele><time>2026-08-11T03:02:44Z</time></trkpt>
<trkpt lat="34.830093" lon="134.095809"><ele>99.9</ele><time>2026-08-11T03:02:46Z</time></trkpt>
<trkpt lat="34.830108" lon="134.095816"><ele>99.9</ele><time>2026-08-11T03:02:47Z</time></trkpt>
<trkpt lat="34.830113" lon="134.095824"><ele>100.56</ele><time>2026-08-11T03:02:48Z</time></trkpt>
<trkpt lat="34.830125" lon="134.09583"><ele>98.15</ele><time>2026-08-11T03:02:49Z</time></trkpt>
<trkpt lat="34.830148" lon="134.095841"><ele>98.15</ele><time>2026-08-11T03:02:52Z</time></trkpt>
<trkpt lat="34.830172" lon="134.095802"><ele>95.29</ele><time>2026-08-11T03:02:56Z</time></trkpt>
<trkpt lat="34.830177" lon="134.095789"><ele>95.29</ele><time>2026-08-11T03:02:57Z</time></trkpt>
<trkpt lat="34.830187" lon="134.095775"><ele>93.51</ele><time>2026-08-11T03:02:58Z</time></trkpt>
<trkpt lat="34.83019" lon="134.095766"><ele>92.47</ele><time>2026-08-11T03:02:59Z</time></trkpt>
<trkpt lat="34.830202" lon="134.095747"><ele>92.47</ele><time>2026-08-11T03:03:02Z</time></trkpt>
<trkpt lat="34.830198" lon="134.095727"><ele>91.74</ele><time>2026-08-11T03:03:04Z</time></trkpt>
<trkpt lat="34.830211" lon="134.095709"><ele>91.74</ele><time>2026-08-11T03:03:06Z</time></trkpt>
<trkpt lat="34.830211" lon="134.095686"><ele>91.02</ele><time>2026-08-11T03:03:09Z</time></trkpt>
<trkpt lat="34.83022" lon="134.095669"><ele>91.02</ele><time>2026-08-11T03:03:12Z</time></trkpt>
<trkpt lat="34.830234" lon="134.095641"><ele>88.45</ele><time>2026-08-11T03:03:14Z</time></trkpt>
<trkpt lat="34.830248" lon="134.09561"><ele>88.45</ele><time>2026-08-11T03:03:16Z</time></trkpt>
<trkpt lat="34.830256" lon="134.095604"><ele>87.29</ele><time>2026-08-11T03:03:17Z</time></trkpt>
<trkpt lat="34.830275" lon="134.095563"><ele>86.31</ele><time>2026-08-11T03:03:21Z</time></trkpt>
<trkpt lat="34.830278" lon="134.095542"><ele>85.29</ele><time>2026-08-11T03:03:23Z</time></trkpt>
<trkpt lat="34.830284" lon="134.095521"><ele>85.29</ele><time>2026-08-11T03:03:25Z</time></trkpt>
<trkpt lat="34.830281" lon="134.095496"><ele>84.26</ele><time>2026-08-11T03:03:28Z</time></trkpt>
<trkpt lat="34.830278" lon="134.095464"><ele>83.21</ele><time>2026-08-11T03:03:30Z</time></trkpt>
<trkpt lat="34.830289" lon="134.095443"><ele>83.21</ele><time>2026-08-11T03:03:32Z</time></trkpt>
<trkpt lat="34.830297" lon="134.095437"><ele>81.89</ele><time>2026-08-11T03:03:33Z</time></trkpt>
<trkpt lat="34.830313" lon="134.095392"><ele>80.99</ele><time>2026-08-11T03:03:37Z</time></trkpt>
<trkpt lat="34.830319" lon="134.09539"><ele>80.99</ele><time>2026-08-11T03:03:38Z</time></trkpt>
<trkpt lat="34.830349" lon="134.095373"><ele>80.33</ele><time>2026-08-11T03:03:42Z</time></trkpt>
<trkpt lat="34.830367" lon="134.095366"><ele>80.1</ele><time>2026-08-11T03:03:43Z</time></trkpt>
<trkpt lat="34.830426" lon="134.095364"><ele>79.85</ele><time>2026-08-11T03:03:47Z</time></trkpt>
<trkpt lat="34.830485" lon="134.095358"><ele>79.55</ele><time>2026-08-11T03:03:50Z</time></trkpt>
<trkpt lat="34.830554" lon="134.095361"><ele>79.1</ele><time>2026-08-11T03:03:53Z</time></trkpt>
<trkpt lat="34.830653" lon="134.095376"><ele>78.58</ele><time>2026-08-11T03:03:58Z</time></trkpt>
<trkpt lat="34.8307" lon="134.095378"><ele>78.39</ele><time>2026-08-11T03:04:00Z</time></trkpt>
<trkpt lat="34.830729" lon="134.095381"><ele>78.15</ele><time>2026-08-11T03:04:01Z</time></trkpt>
<trkpt lat="34.8308" lon="134.095383"><ele>77.74</ele><time>2026-08-11T03:04:04Z</time></trkpt>
<trkpt lat="34.830877" lon="134.095393"><ele>77.37</ele><time>2026-08-11T03:04:07Z</time></trkpt>
<trkpt lat="34.830904" lon="134.095394"><ele>77.13</ele><time>2026-08-11T03:04:08Z</time></trkpt>
<trkpt lat="34.830981" lon="134.095413"><ele>76.62</ele><time>2026-08-11T03:04:11Z</time></trkpt>
<trkpt lat="34.831026" lon="134.095436"><ele>76.66</ele><time>2026-08-11T03:04:13Z</time></trkpt>
<trkpt lat="34.83105" lon="134.095452"><ele>76.43</ele><time>2026-08-11T03:04:14Z</time></trkpt>
<trkpt lat="34.831132" lon="134.095522"><ele>75.82</ele><time>2026-08-11T03:04:18Z</time></trkpt>
<trkpt lat="34.831202" lon="134.095623"><ele>74.72</ele><time>2026-08-11T03:04:22Z</time></trkpt>
<trkpt lat="34.831207" lon="134.095648"><ele>74.83</ele><time>2026-08-11T03:04:23Z</time></trkpt>
<trkpt lat="34.831224" lon="134.095677"><ele>73.11</ele><time>2026-08-11T03:04:24Z</time></trkpt>
<trkpt lat="34.831301" lon="134.095783"><ele>73.0</ele><time>2026-08-11T03:04:29Z</time></trkpt>
<trkpt lat="34.831332" lon="134.095818"><ele>72.63</ele><time>2026-08-11T03:04:31Z</time></trkpt>
<trkpt lat="34.831348" lon="134.095836"><ele>71.79</ele><time>2026-08-11T03:04:32Z</time></trkpt>
<trkpt lat="34.831433" lon="134.095888"><ele>71.62</ele><time>2026-08-11T03:04:36Z</time></trkpt>
<trkpt lat="34.831474" lon="134.095903"><ele>71.83</ele><time>2026-08-11T03:04:38Z</time></trkpt>
<trkpt lat="34.831596" lon="134.095913"><ele>70.77</ele><time>2026-08-11T03:04:43Z</time></trkpt>
<trkpt lat="34.831622" lon="134.095904"><ele>70.77</ele><time>2026-08-11T03:04:44Z</time></trkpt>
<trkpt lat="34.831663" lon="134.095887"><ele>70.32</ele><time>2026-08-11T03:04:46Z</time></trkpt>
<trkpt lat="34.831715" lon="134.095851"><ele>69.69</ele><time>2026-08-11T03:04:48Z</time></trkpt>
<trkpt lat="34.831809" lon="134.095777"><ele>69.49</ele><time>2026-08-11T03:04:53Z</time></trkpt>
<trkpt lat="34.831826" lon="134.095763"><ele>69.31</ele><time>2026-08-11T03:04:54Z</time></trkpt>
<trkpt lat="34.831888" lon="134.095715"><ele>69.4</ele><time>2026-08-11T03:04:57Z</time></trkpt>
<trkpt lat="34.832007" lon="134.095608"><ele>69.97</ele><time>2026-08-11T03:05:04Z</time></trkpt>
<trkpt lat="34.832148" lon="134.095477"><ele>69.18</ele><time>2026-08-11T03:05:12Z</time></trkpt>
<trkpt lat="34.832193" lon="134.095438"><ele>69.18</ele><time>2026-08-11T03:05:14Z</time></trkpt>
<trkpt lat="34.832213" lon="134.095426"><ele>68.87</ele><time>2026-08-11T03:05:15Z</time></trkpt>
<trkpt lat="34.832358" lon="134.095304"><ele>68.8</ele><time>2026-08-11T03:05:22Z</time></trkpt>
<trkpt lat="34.832503" lon="134.095185"><ele>68.65</ele><time>2026-08-11T03:05:30Z</time></trkpt>
<trkpt lat="34.832527" lon="134.095165"><ele>67.99</ele><time>2026-08-11T03:05:31Z</time></trkpt>
<trkpt lat="34.832636" lon="134.095068"><ele>68.03</ele><time>2026-08-11T03:05:37Z</time></trkpt>
<trkpt lat="34.832709" lon="134.095018"><ele>68.4</ele><time>2026-08-11T03:05:41Z</time></trkpt>
<trkpt lat="34.832728" lon="134.095002"><ele>68.4</ele><time>2026-08-11T03:05:42Z</time></trkpt>
<trkpt lat="34.832835" lon="134.094897"><ele>67.93</ele><time>2026-08-11T03:05:48Z</time></trkpt>
<trkpt lat="34.832919" lon="134.094781"><ele>67.92</ele><time>2026-08-11T03:05:54Z</time></trkpt>
<trkpt lat="34.832934" lon="134.094758"><ele>67.92</ele><time>2026-08-11T03:05:55Z</time></trkpt>
<trkpt lat="34.832999" lon="134.09467"><ele>67.71</ele><time>2026-08-11T03:05:59Z</time></trkpt>
<trkpt lat="34.833029" lon="134.094625"><ele>66.87</ele><time>2026-08-11T03:06:01Z</time></trkpt>
<trkpt lat="34.833087" lon="134.094545"><ele>66.46</ele><time>2026-08-11T03:06:05Z</time></trkpt>
<trkpt lat="34.83312" lon="134.09451"><ele>66.75</ele><time>2026-08-11T03:06:07Z</time></trkpt>
<trkpt lat="34.833205" lon="134.094408"><ele>66.09</ele><time>2026-08-11T03:06:12Z</time></trkpt>
<trkpt lat="34.833285" lon="134.094301"><ele>64.6</ele><time>2026-08-11T03:06:17Z</time></trkpt>
<trkpt lat="34.83337" lon="134.094191"><ele>64.05</ele><time>2026-08-11T03:06:22Z</time></trkpt>
<trkpt lat="34.833404" lon="134.094159"><ele>64.63</ele><time>2026-08-11T03:06:24Z</time></trkpt>
<trkpt lat="34.833519" lon="134.094042"><ele>63.58</ele><time>2026-08-11T03:06:30Z</time></trkpt>
<trkpt lat="34.833573" lon="134.093984"><ele>64.16</ele><time>2026-08-11T03:06:33Z</time></trkpt>
<trkpt lat="34.83361" lon="134.093947"><ele>63.68</ele><time>2026-08-11T03:06:35Z</time></trkpt>
<trkpt lat="34.833725" lon="134.093829"><ele>63.22</ele><time>2026-08-11T03:06:41Z</time></trkpt>
<trkpt lat="34.833778" lon="134.093772"><ele>63.2</ele><time>2026-08-11T03:06:44Z</time></trkpt>
<trkpt lat="34.833826" lon="134.09371"><ele>63.28</ele><time>2026-08-11T03:06:47Z</time></trkpt>
<trkpt lat="34.833923" lon="134.093626"><ele>63.6</ele><time>2026-08-11T03:06:52Z</time></trkpt>
<trkpt lat="34.833941" lon="134.093607"><ele>63.6</ele><time>2026-08-11T03:06:53Z</time></trkpt>
<trkpt lat="34.834067" lon="134.093528"><ele>64.56</ele><time>2026-08-11T03:06:59Z</time></trkpt>
<trkpt lat="34.834089" lon="134.093513"><ele>64.56</ele><time>2026-08-11T03:07:00Z</time></trkpt>
<trkpt lat="34.834235" lon="134.09342"><ele>62.2</ele><time>2026-08-11T03:07:07Z</time></trkpt>
<trkpt lat="34.834403" lon="134.093307"><ele>59.0</ele><time>2026-08-11T03:07:15Z</time></trkpt>
<trkpt lat="34.834489" lon="134.093259"><ele>58.22</ele><time>2026-08-11T03:07:19Z</time></trkpt>
<trkpt lat="34.834511" lon="134.093245"><ele>58.22</ele><time>2026-08-11T03:07:20Z</time></trkpt>
<trkpt lat="34.834533" lon="134.093231"><ele>57.95</ele><time>2026-08-11T03:07:21Z</time></trkpt>
<trkpt lat="34.834571" lon="134.093204"><ele>57.95</ele><time>2026-08-11T03:07:23Z</time></trkpt>
<trkpt lat="34.834734" lon="134.093115"><ele>56.45</ele><time>2026-08-11T03:07:30Z</time></trkpt>
<trkpt lat="34.834847" lon="134.093055"><ele>55.5</ele><time>2026-08-11T03:07:35Z</time></trkpt>
<trkpt lat="34.834906" lon="134.093011"><ele>54.65</ele><time>2026-08-11T03:07:38Z</time></trkpt>
<trkpt lat="34.834994" lon="134.092956"><ele>54.23</ele><time>2026-08-11T03:07:42Z</time></trkpt>
<trkpt lat="34.835061" lon="134.092919"><ele>53.4</ele><time>2026-08-11T03:07:45Z</time></trkpt>
<trkpt lat="34.835097" lon="134.092899"><ele>53.04</ele><time>2026-08-11T03:07:47Z</time></trkpt>
<trkpt lat="34.835285" lon="134.092825"><ele>51.89</ele><time>2026-08-11T03:07:55Z</time></trkpt>
<trkpt lat="34.835305" lon="134.092815"><ele>51.44</ele><time>2026-08-11T03:07:56Z</time></trkpt>
<trkpt lat="34.835326" lon="134.092807"><ele>51.44</ele><time>2026-08-11T03:07:57Z</time></trkpt>
<trkpt lat="34.835401" lon="134.092784"><ele>50.97</ele><time>2026-08-11T03:08:00Z</time></trkpt>
<trkpt lat="34.835498" lon="134.092759"><ele>50.36</ele><time>2026-08-11T03:08:04Z</time></trkpt>
<trkpt lat="34.835571" lon="134.092737"><ele>50.04</ele><time>2026-08-11T03:08:07Z</time></trkpt>
<trkpt lat="34.835738" lon="134.09266"><ele>49.36</ele><time>2026-08-11T03:08:14Z</time></trkpt>
<trkpt lat="34.835898" lon="134.092581"><ele>48.82</ele><time>2026-08-11T03:08:21Z</time></trkpt>
<trkpt lat="34.83594" lon="134.092563"><ele>48.78</ele><time>2026-08-11T03:08:23Z</time></trkpt>
<trkpt lat="34.836086" lon="134.092497"><ele>48.69</ele><time>2026-08-11T03:08:29Z</time></trkpt>
<trkpt lat="34.836267" lon="134.092433"><ele>48.55</ele><time>2026-08-11T03:08:37Z</time></trkpt>
<trkpt lat="34.836463" lon="134.092427"><ele>47.91</ele><time>2026-08-11T03:08:45Z</time></trkpt>
<trkpt lat="34.836602" lon="134.092444"><ele>47.2</ele><time>2026-08-11T03:08:51Z</time></trkpt>
<trkpt lat="34.836625" lon="134.092445"><ele>47.2</ele><time>2026-08-11T03:08:52Z</time></trkpt>
<trkpt lat="34.836645" lon="134.092445"><ele>46.86</ele><time>2026-08-11T03:08:53Z</time></trkpt>
<trkpt lat="34.836718" lon="134.092455"><ele>46.55</ele><time>2026-08-11T03:08:56Z</time></trkpt>
<trkpt lat="34.836748" lon="134.09246"><ele>46.55</ele><time>2026-08-11T03:08:57Z</time></trkpt>
<trkpt lat="34.836873" lon="134.092476"><ele>45.92</ele><time>2026-08-11T03:09:02Z</time></trkpt>
<trkpt lat="34.836966" lon="134.092479"><ele>45.61</ele><time>2026-08-11T03:09:06Z</time></trkpt>
<trkpt lat="34.837084" lon="134.092471"><ele>44.88</ele><time>2026-08-11T03:09:11Z</time></trkpt>
<trkpt lat="34.837171" lon="134.092457"><ele>44.63</ele><time>2026-08-11T03:09:15Z</time></trkpt>
<trkpt lat="34.837261" lon="134.092436"><ele>44.45</ele><time>2026-08-11T03:09:19Z</time></trkpt>
<trkpt lat="34.83744" lon="134.092383"><ele>43.99</ele><time>2026-08-11T03:09:27Z</time></trkpt>
<trkpt lat="34.837462" lon="134.092375"><ele>43.99</ele><time>2026-08-11T03:09:28Z</time></trkpt>
<trkpt lat="34.837647" lon="134.092307"><ele>43.72</ele><time>2026-08-11T03:09:36Z</time></trkpt>
<trkpt lat="34.837671" lon="134.092303"><ele>43.72</ele><time>2026-08-11T03:09:37Z</time></trkpt>
<trkpt lat="34.837856" lon="134.092231"><ele>43.35</ele><time>2026-08-11T03:09:45Z</time></trkpt>
<trkpt lat="34.837877" lon="134.09222"><ele>43.35</ele><time>2026-08-11T03:09:46Z</time></trkpt>
<trkpt lat="34.838057" lon="134.092121"><ele>43.0</ele><time>2026-08-11T03:09:54Z</time></trkpt>
<trkpt lat="34.838121" lon="134.092078"><ele>42.75</ele><time>2026-08-11T03:09:57Z</time></trkpt>
<trkpt lat="34.83828" lon="134.092007"><ele>42.88</ele><time>2026-08-11T03:10:04Z</time></trkpt>
<trkpt lat="34.83835" lon="134.091985"><ele>42.69</ele><time>2026-08-11T03:10:07Z</time></trkpt>
<trkpt lat="34.838477" lon="134.091928"><ele>42.69</ele><time>2026-08-11T03:10:13Z</time></trkpt>
<trkpt lat="34.838568" lon="134.091883"><ele>41.67</ele><time>2026-08-11T03:10:17Z</time></trkpt>
<trkpt lat="34.83859" lon="134.091871"><ele>41.67</ele><time>2026-08-11T03:10:18Z</time></trkpt>
<trkpt lat="34.838751" lon="134.091731"><ele>40.12</ele><time>2026-08-11T03:10:26Z</time></trkpt>
<trkpt lat="34.838925" lon="134.091599"><ele>39.67</ele><time>2026-08-11T03:10:34Z</time></trkpt>
<trkpt lat="34.83895" lon="134.091586"><ele>39.67</ele><time>2026-08-11T03:10:35Z</time></trkpt>
<trkpt lat="34.839131" lon="134.0915"><ele>39.37</ele><time>2026-08-11T03:10:43Z</time></trkpt>
<trkpt lat="34.839291" lon="134.091392"><ele>39.17</ele><time>2026-08-11T03:10:51Z</time></trkpt>
<trkpt lat="34.839308" lon="134.091371"><ele>39.17</ele><time>2026-08-11T03:10:52Z</time></trkpt>
<trkpt lat="34.839365" lon="134.091208"><ele>38.96</ele><time>2026-08-11T03:10:58Z</time></trkpt>
<trkpt lat="34.839371" lon="134.09115"><ele>38.96</ele><time>2026-08-11T03:11:00Z</time></trkpt>
<trkpt lat="34.839375" lon="134.091122"><ele>38.88</ele><time>2026-08-11T03:11:01Z</time></trkpt>
<trkpt lat="34.839401" lon="134.090981"><ele>38.73</ele><time>2026-08-11T03:11:06Z</time></trkpt>
<trkpt lat="34.839411" lon="134.090952"><ele>38.66</ele><time>2026-08-11T03:11:07Z</time></trkpt>
<trkpt lat="34.839463" lon="134.090851"><ele>38.52</ele><time>2026-08-11T03:11:11Z</time></trkpt>
<trkpt lat="34.839515" lon="134.090751"><ele>38.44</ele><time>2026-08-11T03:11:15Z</time></trkpt>
<trkpt lat="34.839615" lon="134.09059"><ele>38.18</ele><time>2026-08-11T03:11:22Z</time></trkpt>
<trkpt lat="34.839628" lon="134.090568"><ele>38.18</ele><time>2026-08-11T03:11:23Z</time></trkpt>
<trkpt lat="34.839682" lon="134.090481"><ele>38.17</ele><time>2026-08-11T03:11:27Z</time></trkpt>
<trkpt lat="34.839729" lon="134.090416"><ele>38.11</ele><time>2026-08-11T03:11:30Z</time></trkpt>
<trkpt lat="34.839745" lon="134.090397"><ele>38.27</ele><time>2026-08-11T03:11:31Z</time></trkpt>
<trkpt lat="34.839861" lon="134.090351"><ele>38.46</ele><time>2026-08-11T03:11:37Z</time></trkpt>
<trkpt lat="34.839963" lon="134.090342"><ele>38.92</ele><time>2026-08-11T03:11:42Z</time></trkpt>
<trkpt lat="34.840055" lon="134.090337"><ele>39.17</ele><time>2026-08-11T03:11:46Z</time></trkpt>
<trkpt lat="34.84022" lon="134.090336"><ele>39.51</ele><time>2026-08-11T03:11:53Z</time></trkpt>
<trkpt lat="34.840277" lon="134.090336"><ele>39.55</ele><time>2026-08-11T03:11:56Z</time></trkpt>
<trkpt lat="34.840341" lon="134.090341"><ele>39.53</ele><time>2026-08-11T03:11:59Z</time></trkpt>
<trkpt lat="34.840459" lon="134.090358"><ele>39.55</ele><time>2026-08-11T03:12:04Z</time></trkpt>
<trkpt lat="34.840639" lon="134.090398"><ele>39.58</ele><time>2026-08-11T03:12:12Z</time></trkpt>
<trkpt lat="34.840804" lon="134.090444"><ele>39.6</ele><time>2026-08-11T03:12:19Z</time></trkpt>
<trkpt lat="34.840929" lon="134.090509"><ele>34.66</ele><time>2026-08-11T03:12:25Z</time></trkpt>
<trkpt lat="34.841076" lon="134.090635"><ele>34.71</ele><time>2026-08-11T03:12:33Z</time></trkpt>
<trkpt lat="34.841124" lon="134.090674"><ele>34.58</ele><time>2026-08-11T03:12:35Z</time></trkpt>
<trkpt lat="34.841253" lon="134.090843"><ele>34.7</ele><time>2026-08-11T03:12:44Z</time></trkpt>
<trkpt lat="34.841353" lon="134.091026"><ele>34.36</ele><time>2026-08-11T03:12:52Z</time></trkpt>
<trkpt lat="34.841451" lon="134.091216"><ele>33.78</ele><time>2026-08-11T03:13:00Z</time></trkpt>
<trkpt lat="34.841491" lon="134.091283"><ele>33.7</ele><time>2026-08-11T03:13:03Z</time></trkpt>
<trkpt lat="34.841588" lon="134.091423"><ele>33.66</ele><time>2026-08-11T03:13:10Z</time></trkpt>
<trkpt lat="34.841635" lon="134.091484"><ele>33.98</ele><time>2026-08-11T03:13:13Z</time></trkpt>
<trkpt lat="34.841691" lon="134.091555"><ele>34.16</ele><time>2026-08-11T03:13:17Z</time></trkpt>
<trkpt lat="34.841806" lon="134.091676"><ele>34.68</ele><time>2026-08-11T03:13:24Z</time></trkpt>
<trkpt lat="34.841852" lon="134.091734"><ele>35.14</ele><time>2026-08-11T03:13:27Z</time></trkpt>
<trkpt lat="34.841955" lon="134.091843"><ele>35.15</ele><time>2026-08-11T03:13:33Z</time></trkpt>
<trkpt lat="34.842035" lon="134.091946"><ele>35.22</ele><time>2026-08-11T03:13:38Z</time></trkpt>
<trkpt lat="34.842094" lon="134.092089"><ele>34.69</ele><time>2026-08-11T03:13:44Z</time></trkpt>
<trkpt lat="34.84209" lon="134.09225"><ele>34.98</ele><time>2026-08-11T03:13:50Z</time></trkpt>
<trkpt lat="34.842039" lon="134.09247"><ele>34.85</ele><time>2026-08-11T03:13:58Z</time></trkpt>
<trkpt lat="34.84203" lon="134.092493"><ele>34.85</ele><time>2026-08-11T03:13:59Z</time></trkpt>
<trkpt lat="34.842019" lon="134.092567"><ele>34.85</ele><time>2026-08-11T03:14:02Z</time></trkpt>
<trkpt lat="34.842008" lon="134.092618"><ele>34.87</ele><time>2026-08-11T03:14:04Z</time></trkpt>
<trkpt lat="34.841977" lon="134.092857"><ele>35.04</ele><time>2026-08-11T03:14:13Z</time></trkpt>
<trkpt lat="34.841969" lon="134.092886"><ele>35.04</ele><time>2026-08-11T03:14:14Z</time></trkpt>
<trkpt lat="34.841935" lon="134.093098"><ele>34.95</ele><time>2026-08-11T03:14:22Z</time></trkpt>
<trkpt lat="34.841931" lon="134.093205"><ele>34.79</ele><time>2026-08-11T03:14:26Z</time></trkpt>
<trkpt lat="34.841932" lon="134.093304"><ele>34.78</ele><time>2026-08-11T03:14:30Z</time></trkpt>
<trkpt lat="34.841919" lon="134.093384"><ele>34.9</ele><time>2026-08-11T03:14:33Z</time></trkpt>
<trkpt lat="34.841904" lon="134.093442"><ele>35.17</ele><time>2026-08-11T03:14:35Z</time></trkpt>
<trkpt lat="34.841923" lon="134.093616"><ele>35.88</ele><time>2026-08-11T03:14:43Z</time></trkpt>
<trkpt lat="34.84193" lon="134.093688"><ele>36.28</ele><time>2026-08-11T03:14:46Z</time></trkpt>
<trkpt lat="34.841928" lon="134.09372"><ele>35.76</ele><time>2026-08-11T03:14:48Z</time></trkpt>
<trkpt lat="34.841928" lon="134.093732"><ele>35.76</ele><time>2026-08-11T03:14:49Z</time></trkpt>
<trkpt lat="34.841905" lon="134.093835"><ele>36.67</ele><time>2026-08-11T03:14:56Z</time></trkpt>
<trkpt lat="34.841899" lon="134.093867"><ele>34.63</ele><time>2026-08-11T03:14:58Z</time></trkpt>
<trkpt lat="34.841888" lon="134.093898"><ele>32.88</ele><time>2026-08-11T03:15:00Z</time></trkpt>
<trkpt lat="34.841877" lon="134.093918"><ele>35.22</ele><time>2026-08-11T03:15:02Z</time></trkpt>
<trkpt lat="34.841877" lon="134.093926"><ele>35.22</ele><time>2026-08-11T03:15:07Z</time></trkpt>
<trkpt lat="34.841879" lon="134.093919"><ele>35.22</ele><time>2026-08-11T03:15:12Z</time></trkpt>
<trkpt lat="34.841887" lon="134.093914"><ele>32.88</ele><time>2026-08-11T03:15:15Z</time></trkpt>
<trkpt lat="34.8419" lon="134.093921"><ele>32.88</ele><time>2026-08-11T03:15:20Z</time></trkpt>
<trkpt lat="34.84191" lon="134.093932"><ele>31.16</ele><time>2026-08-11T03:15:22Z</time></trkpt>
<trkpt lat="34.841916" lon="134.093956"><ele>29.75</ele><time>2026-08-11T03:15:25Z</time></trkpt>
<trkpt lat="34.841933" lon="134.093978"><ele>28.83</ele><time>2026-08-11T03:15:29Z</time></trkpt>
<trkpt lat="34.841954" lon="134.094016"><ele>28.19</ele><time>2026-08-11T03:15:32Z</time></trkpt>
<trkpt lat="34.841985" lon="134.094084"><ele>28.33</ele><time>2026-08-11T03:15:38Z</time></trkpt>
<trkpt lat="34.842005" lon="134.094136"><ele>30.68</ele><time>2026-08-11T03:15:43Z</time></trkpt>
<trkpt lat="34.842033" lon="134.094168"><ele>33.46</ele><time>2026-08-11T03:15:46Z</time></trkpt>
<trkpt lat="34.842097" lon="134.094205"><ele>35.65</ele><time>2026-08-11T03:15:52Z</time></trkpt>
<trkpt lat="34.842163" lon="134.09421"><ele>35.9</ele><time>2026-08-11T03:15:57Z</time></trkpt>
<trkpt lat="34.842205" lon="134.094231"><ele>35.37</ele><time>2026-08-11T03:16:00Z</time></trkpt>
<trkpt lat="34.842238" lon="134.094249"><ele>35.86</ele><time>2026-08-11T03:16:02Z</time></trkpt>
<trkpt lat="34.842261" lon="134.094262"><ele>35.86</ele><time>2026-08-11T03:16:04Z</time></trkpt>
<trkpt lat="34.842322" lon="134.094297"><ele>35.51</ele><time>2026-08-11T03:16:08Z</time></trkpt>
<trkpt lat="34.842339" lon="134.094304"><ele>35.37</ele><time>2026-08-11T03:16:09Z</time></trkpt>
<trkpt lat="34.842354" lon="134.094309"><ele>35.37</ele><time>2026-08-11T03:16:10Z</time></trkpt>
<trkpt lat="34.842363" lon="134.094311"><ele>35.37</ele><time>2026-08-11T03:16:11Z</time></trkpt>
<trkpt lat="34.84244" lon="134.094325"><ele>34.92</ele><time>2026-08-11T03:16:17Z</time></trkpt>
<trkpt lat="34.842572" lon="134.094316"><ele>33.66</ele><time>2026-08-11T03:16:27Z</time></trkpt>
<trkpt lat="34.842653" lon="134.09432"><ele>33.25</ele><time>2026-08-11T03:16:33Z</time></trkpt>
<trkpt lat="34.842676" lon="134.094315"><ele>33.11</ele><time>2026-08-11T03:16:35Z</time></trkpt>
<trkpt lat="34.842757" lon="134.094309"><ele>33.28</ele><time>2026-08-11T03:16:43Z</time></trkpt>
<trkpt lat="34.842769" lon="134.09431"><ele>33.07</ele><time>2026-08-11T03:16:44Z</time></trkpt>
<trkpt lat="34.842784" lon="134.094312"><ele>33.07</ele><time>2026-08-11T03:16:45Z</time></trkpt>
<trkpt lat="34.842825" lon="134.09431"><ele>32.85</ele><time>2026-08-11T03:16:48Z</time></trkpt>
<trkpt lat="34.84285" lon="134.094306"><ele>32.61</ele><time>2026-08-11T03:16:50Z</time></trkpt>
<trkpt lat="34.84299303619985" lon="134.09428989900337"><ele>32.18</ele><time>2026-08-11T03:16:58Z</time></trkpt>
<trkpt lat="34.84311190871944" lon="134.09427702426913"><ele>32.13</ele><time>2026-08-11T03:16:59Z</time></trkpt>
<trkpt lat="34.8432237366908" lon="134.09425663954607"><ele>32.13</ele><time>2026-08-11T03:17:10Z</time></trkpt>
<trkpt lat="34.84334613102689" lon="134.09423732760845"><ele>32.03</ele><time>2026-08-11T03:17:20Z</time></trkpt>
<trkpt lat="34.84350991011483" lon="134.09417080869392"><ele>31.91</ele><time>2026-08-11T03:17:30Z</time></trkpt>
<trkpt lat="34.84370450770862" lon="134.09406137459882"><ele>31.93</ele><time>2026-08-11T03:17:38Z</time></trkpt>
<trkpt lat="34.843830423257124" lon="134.0940034389496"><ele>31.86</ele><time>2026-08-11T03:17:45Z</time></trkpt>
<trkpt lat="34.84398363508232" lon="134.09395301345288"><ele>31.93</ele><time>2026-08-11T03:17:51Z</time></trkpt>
<trkpt lat="34.84414741310322" lon="134.0939294100463"><ele>32.27</ele><time>2026-08-11T03:17:52Z</time></trkpt>
<trkpt lat="34.844374588185744" lon="134.09389400501826"><ele>32.0</ele><time>2026-08-11T03:17:55Z</time></trkpt>
<trkpt lat="34.84459119682319" lon="134.09393155578076"><ele>32.4</ele><time>2026-08-11T03:17:56Z</time></trkpt>
<trkpt lat="34.844700381333496" lon="134.0939487219839"><ele>32.2</ele><time>2026-08-11T03:18:00Z</time></trkpt>
<trkpt lat="34.84479899943736" lon="134.09397554386942"><ele>32.32</ele><time>2026-08-11T03:18:00Z</time></trkpt>
<trkpt lat="34.84491082518361" lon="134.0940206051528"><ele>32.53</ele><time>2026-08-11T03:18:01Z</time></trkpt>
<trkpt lat="34.84506403486315" lon="134.09399807444973"><ele>32.76</ele><time>2026-08-11T03:18:02Z</time></trkpt>
<trkpt lat="34.84518642666402" lon="134.0940077303776"><ele>33.18</ele><time>2026-08-11T03:18:06Z</time></trkpt>
<trkpt lat="34.84529120768427" lon="134.0940259695708"><ele>33.19</ele><time>2026-08-11T03:18:10Z</time></trkpt>
<trkpt lat="34.845403032828884" lon="134.09403884405947"><ele>32.84</ele><time>2026-08-11T03:18:18Z</time></trkpt>
<trkpt lat="34.845531587505654" lon="134.09400773025482"><ele>32.47</ele><time>2026-08-11T03:18:19Z</time></trkpt>
<trkpt lat="34.845638129212986" lon="134.0939798353384"><ele>32.35</ele><time>2026-08-11T03:18:21Z</time></trkpt>
<trkpt lat="34.845753475899265" lon="134.09393906601508"><ele>32.35</ele><time>2026-08-11T03:18:25Z</time></trkpt>
<trkpt lat="34.84590668417809" lon="134.0938940046499"><ele>32.47</ele><time>2026-08-11T03:18:26Z</time></trkpt>
<trkpt lat="34.84603083560881" lon="134.09386396408084"><ele>32.5</ele><time>2026-08-11T03:18:28Z</time></trkpt>
<trkpt lat="34.8461400181084" lon="134.09382426721552"><ele>32.36</ele><time>2026-08-11T03:18:31Z</time></trkpt>
<trkpt lat="34.846266810554475" lon="134.09378671641207"><ele>32.36</ele><time>2026-08-11T03:18:35Z</time></trkpt>
<trkpt lat="34.84640416892923" lon="134.09373843652705"><ele>32.53</ele><time>2026-08-11T03:18:38Z</time></trkpt>
<trkpt lat="34.84651599246082" lon="134.0937169791414"><ele>32.48</ele><time>2026-08-11T03:18:41Z</time></trkpt>
<trkpt lat="34.846633098954804" lon="134.09369015676478"><ele>32.58</ele><time>2026-08-11T03:18:45Z</time></trkpt>
<trkpt lat="34.84674844431373" lon="134.09369337565295"><ele>32.61</ele><time>2026-08-11T03:18:49Z</time></trkpt>
<trkpt lat="34.846866430825514" lon="134.09366869909266"><ele>32.75</ele><time>2026-08-11T03:18:49Z</time></trkpt>
<trkpt lat="34.846958882893176" lon="134.09364724142054"><ele>32.85</ele><time>2026-08-11T03:18:50Z</time></trkpt>
<trkpt lat="34.847064542271916" lon="134.0936418770025"><ele>32.89</ele><time>2026-08-11T03:18:51Z</time></trkpt>
<trkpt lat="34.84717900644577" lon="134.09362578374842"><ele>32.87</ele><time>2026-08-11T03:18:52Z</time></trkpt>
<trkpt lat="34.84732076565491" lon="134.0936139821679"><ele>32.72</ele><time>2026-08-11T03:18:53Z</time></trkpt>
<trkpt lat="34.847306677836485" lon="134.0934433935354"><ele>32.67</ele><time>2026-08-11T03:18:53Z</time></trkpt>
<trkpt lat="34.84727586062238" lon="134.0932234523962"><ele>32.66</ele><time>2026-08-11T03:18:54Z</time></trkpt>
<trkpt lat="34.84724944585825" lon="134.09290695173243"><ele>32.69</ele><time>2026-08-11T03:18:55Z</time></trkpt>
<trkpt lat="34.84721070420901" lon="134.09264087677005"><ele>32.72</ele><time>2026-08-11T03:18:57Z</time></trkpt>
<trkpt lat="34.84715699411699" lon="134.0923275945852"><ele>32.96</ele><time>2026-08-11T03:19:06Z</time></trkpt>
<trkpt lat="34.84709359863774" lon="134.09196710583277"><ele>33.54</ele><time>2026-08-11T03:19:17Z</time></trkpt>
<trkpt lat="34.846989700226004" lon="134.09170532209376"><ele>33.36</ele><time>2026-08-11T03:19:26Z</time></trkpt>
<trkpt lat="34.84687083374395" lon="134.09140491472502"><ele>32.6</ele><time>2026-08-11T03:19:37Z</time></trkpt>
<trkpt lat="34.84678454462844" lon="134.091234326379"><ele>32.78</ele><time>2026-08-11T03:19:39Z</time></trkpt>
<trkpt lat="34.84673435629656" lon="134.091010093689"><ele>32.28</ele><time>2026-08-11T03:19:42Z</time></trkpt>
<trkpt lat="34.846680645725726" lon="134.09070539448297"><ele>32.55</ele><time>2026-08-11T03:19:47Z</time></trkpt>
<trkpt lat="34.846658633398015" lon="134.0905101298631"><ele>32.54</ele><time>2026-08-11T03:34:15Z</time></trkpt>
<trkpt lat="34.84661901095147" lon="134.09031057361065"><ele>32.39</ele><time>2026-08-11T03:49:20Z</time></trkpt>
<trkpt lat="34.84656706137843" lon="134.09012818327486"><ele>32.39</ele><time>2026-08-11T03:49:20Z</time></trkpt>
<trkpt lat="34.84651863418957" lon="134.08995866808257"><ele>32.73</ele><time>2026-08-11T03:49:21Z</time></trkpt>
<trkpt lat="34.84642177881946" lon="134.08978486052095"><ele>32.72</ele><time>2026-08-11T03:49:21Z</time></trkpt>
<trkpt lat="34.84636278528276" lon="134.0896228552356"><ele>32.6</ele><time>2026-08-11T03:49:21Z</time></trkpt>
<trkpt lat="34.84630731376032" lon="134.0894479751751"><ele>32.81</ele><time>2026-08-11T03:49:21Z</time></trkpt>
<trkpt lat="34.84618140179973" lon="134.08925592891137"><ele>32.84</ele><time>2026-08-11T03:49:22Z</time></trkpt>
<trkpt lat="34.846061653154806" lon="134.08904993537365"><ele>32.76</ele><time>2026-08-11T03:49:22Z</time></trkpt>
<trkpt lat="34.845907564637706" lon="134.0888203382656"><ele>32.71</ele><time>2026-08-11T03:49:24Z</time></trkpt>
<trkpt lat="34.8458098282893" lon="134.08857250212807"><ele>32.41</ele><time>2026-08-11T03:49:24Z</time></trkpt>
<trkpt lat="34.845743790321" lon="134.08826243874958"><ele>32.55</ele><time>2026-08-11T03:49:25Z</time></trkpt>
<trkpt lat="34.84580102334635" lon="134.08796739588072"><ele>34.74</ele><time>2026-08-11T03:49:27Z</time></trkpt>
<trkpt lat="34.84598857131584" lon="134.08768522745962"><ele>34.69</ele><time>2026-08-11T03:49:27Z</time></trkpt>
<trkpt lat="34.84614001794046" lon="134.08737409121386"><ele>34.76</ele><time>2026-08-11T03:49:28Z</time></trkpt>
<trkpt lat="34.84626152845788" lon="134.08698463492328"><ele>34.67</ele><time>2026-08-11T03:49:30Z</time></trkpt>
<trkpt lat="34.84626152765175" lon="134.08670246601108"><ele>34.5</ele><time>2026-08-11T03:49:30Z</time></trkpt>
<trkpt lat="34.84621926361163" lon="134.0864932537079"><ele>34.35</ele><time>2026-08-11T03:49:30Z</time></trkpt>
<trkpt lat="34.84616555273821" lon="134.0862572193146"><ele>34.22</ele><time>2026-08-11T03:49:30Z</time></trkpt>
<trkpt lat="34.846078382156705" lon="134.08599758200583"><ele>34.13</ele><time>2026-08-11T03:49:31Z</time></trkpt>
<trkpt lat="34.84598857131584" lon="134.08585488779866"><ele>33.94</ele><time>2026-08-11T03:49:31Z</time></trkpt>
<trkpt lat="34.84589083506364" lon="134.08561027046747"><ele>33.96</ele><time>2026-08-11T03:49:31Z</time></trkpt>
<trkpt lat="34.845830080124706" lon="134.08532273779204"><ele>33.99</ele><time>2026-08-11T03:49:32Z</time></trkpt>
<trkpt lat="34.845762280914485" lon="134.08498907092508"><ele>34.05</ele><time>2026-08-11T03:49:32Z</time></trkpt>
<trkpt lat="34.84567951315668" lon="134.08460390561234"><ele>34.18</ele><time>2026-08-11T03:49:32Z</time></trkpt>
<trkpt lat="34.84560378928753" lon="134.08430349836638"><ele>34.27</ele><time>2026-08-11T03:49:33Z</time></trkpt>
<trkpt lat="34.84556064434554" lon="134.0840932132778"><ele>34.39</ele><time>2026-08-11T03:49:33Z</time></trkpt>
<trkpt lat="34.84541976256928" lon="134.08377885818484"><ele>34.43</ele><time>2026-08-11T03:49:34Z</time></trkpt>
<trkpt lat="34.845221647264154" lon="134.08328318599163"><ele>34.59</ele><time>2026-08-11T03:49:34Z</time></trkpt>
<trkpt lat="34.84502705342548" lon="134.08279824263448"><ele>35.7</ele><time>2026-08-11T03:49:34Z</time></trkpt>
<trkpt lat="34.844843025383994" lon="134.08223712447582"><ele>36.36</ele><time>2026-08-11T03:49:34Z</time></trkpt>
<trkpt lat="34.84465723585071" lon="134.08172965049746"><ele>36.13</ele><time>2026-08-11T03:49:35Z</time></trkpt>
<trkpt lat="34.84481925131997" lon="134.081658840114"><ele>37.09</ele><time>2026-08-11T03:49:35Z</time></trkpt>
<trkpt lat="34.84504466361039" lon="134.08153760423374"><ele>38.42</ele><time>2026-08-11T03:49:36Z</time></trkpt>
<trkpt lat="34.84535108262263" lon="134.08159554004672"><ele>40.77</ele><time>2026-08-11T03:49:37Z</time></trkpt>
<trkpt lat="34.84554479526524" lon="134.08164918422702"><ele>43.53</ele><time>2026-08-11T03:49:38Z</time></trkpt>
<trkpt lat="34.84569448181632" lon="134.0815579891205"><ele>45.82</ele><time>2026-08-11T03:49:39Z</time></trkpt>
<trkpt lat="34.84587498591258" lon="134.08144640929098"><ele>41.98</ele><time>2026-08-11T03:49:40Z</time></trkpt>
<trkpt lat="34.8461549866843" lon="134.0812447071403"><ele>39.55</ele><time>2026-08-11T03:49:40Z</time></trkpt>
<trkpt lat="34.846488696965814" lon="134.08107948313045"><ele>39.23</ele><time>2026-08-11T03:49:40Z</time></trkpt>
<trkpt lat="34.84674404182543" lon="134.08096575740277"><ele>39.39</ele><time>2026-08-11T03:49:41Z</time></trkpt>
<trkpt lat="34.847035485963005" lon="134.08084237578808"><ele>39.41</ele><time>2026-08-11T03:49:41Z</time></trkpt>
<trkpt lat="34.84718693086254" lon="134.08072865006037"><ele>39.5</ele><time>2026-08-11T03:49:42Z</time></trkpt>
<trkpt lat="34.84748893941638" lon="134.08036816118513"><ele>39.72</ele><time>2026-08-11T03:49:43Z</time></trkpt>
<trkpt lat="34.847591956621855" lon="134.0802973508835"><ele>39.77</ele><time>2026-08-11T03:49:43Z</time></trkpt>
<trkpt lat="34.84813257500303" lon="134.08021152019504"><ele>40.71</ele><time>2026-08-11T03:49:47Z</time></trkpt>
<trkpt lat="34.84858161981958" lon="134.08007955564247"><ele>41.86</ele><time>2026-08-11T03:49:47Z</time></trkpt>
<trkpt lat="34.848799978107" lon="134.07999587052475"><ele>42.5</ele><time>2026-08-11T03:49:48Z</time></trkpt>
<trkpt lat="34.849002487199066" lon="134.07990252968378"><ele>43.28</ele><time>2026-08-11T03:49:48Z</time></trkpt>
<trkpt lat="34.84924901941594" lon="134.07976841923303"><ele>44.45</ele><time>2026-08-11T03:49:49Z</time></trkpt>
<trkpt lat="34.8492742" lon="134.0797372"><ele>1.0</ele><time>2026-08-11T04:21:16Z</time></trkpt>
<trkpt lat="34.8492826" lon="134.0797343"><ele>1.0</ele><time>2026-08-11T04:21:17Z</time></trkpt>
<trkpt lat="34.849291" lon="134.0797314"><ele>1.0</ele><time>2026-08-11T04:21:18Z</time></trkpt>
<trkpt lat="34.8493024" lon="134.0797274"><ele>1.0</ele><time>2026-08-11T04:21:19Z</time></trkpt>
<trkpt lat="34.8493139" lon="134.0797234"><ele>1.0</ele><time>2026-08-11T04:21:20Z</time></trkpt>
<trkpt lat="34.8493291" lon="134.0797132"><ele>1.0</ele><time>2026-08-11T04:21:21Z</time></trkpt>
<trkpt lat="34.8493444" lon="134.079703"><ele>1.0</ele><time>2026-08-11T04:21:22Z</time></trkpt>
<trkpt lat="34.8493655" lon="134.079688"><ele>1.0</ele><time>2026-08-11T04:21:23Z</time></trkpt>
<trkpt lat="34.8493867" lon="134.079673"><ele>1.0</ele><time>2026-08-11T04:21:24Z</time></trkpt>
<trkpt lat="34.8494116" lon="134.0796555"><ele>1.0</ele><time>2026-08-11T04:21:25Z</time></trkpt>
<trkpt lat="34.8494365" lon="134.079638"><ele>1.0</ele><time>2026-08-11T04:21:26Z</time></trkpt>
<trkpt lat="34.8494632" lon="134.0796214"><ele>1.0</ele><time>2026-08-11T04:21:27Z</time></trkpt>
<trkpt lat="34.84949" lon="134.0796048"><ele>1.0</ele><time>2026-08-11T04:21:28Z</time></trkpt>
<trkpt lat="34.8495178" lon="134.0795918"><ele>1.0</ele><time>2026-08-11T04:21:29Z</time></trkpt>
<trkpt lat="34.8495456" lon="134.0795788"><ele>1.0</ele><time>2026-08-11T04:21:30Z</time></trkpt>
<trkpt lat="34.8495732" lon="134.0795673"><ele>1.0</ele><time>2026-08-11T04:21:31Z</time></trkpt>
<trkpt lat="34.8496009" lon="134.0795559"><ele>1.0</ele><time>2026-08-11T04:21:32Z</time></trkpt>
<trkpt lat="34.849628" lon="134.0795426"><ele>1.0</ele><time>2026-08-11T04:21:33Z</time></trkpt>
<trkpt lat="34.8496551" lon="134.0795294"><ele>1.0</ele><time>2026-08-11T04:21:34Z</time></trkpt>
<trkpt lat="34.8496807" lon="134.0795137"><ele>1.0</ele><time>2026-08-11T04:21:35Z</time></trkpt>
<trkpt lat="34.8497064" lon="134.079498"><ele>1.0</ele><time>2026-08-11T04:21:36Z</time></trkpt>
<trkpt lat="34.8497322" lon="134.0794839"><ele>2.0</ele><time>2026-08-11T04:21:37Z</time></trkpt>
<trkpt lat="34.8497581" lon="134.0794698"><ele>2.0</ele><time>2026-08-11T04:21:38Z</time></trkpt>
<trkpt lat="34.8497842" lon="134.0794561"><ele>2.0</ele><time>2026-08-11T04:21:39Z</time></trkpt>
<trkpt lat="34.8498104" lon="134.0794424"><ele>2.0</ele><time>2026-08-11T04:21:40Z</time></trkpt>
<trkpt lat="34.8498355" lon="134.0794287"><ele>2.0</ele><time>2026-08-11T04:21:41Z</time></trkpt>
<trkpt lat="34.8498606" lon="134.0794151"><ele>2.0</ele><time>2026-08-11T04:21:42Z</time></trkpt>
<trkpt lat="34.8498872" lon="134.079404"><ele>2.0</ele><time>2026-08-11T04:21:43Z</time></trkpt>
<trkpt lat="34.8499138" lon="134.079393"><ele>2.0</ele><time>2026-08-11T04:21:44Z</time></trkpt>
<trkpt lat="34.8499409" lon="134.0793828"><ele>2.0</ele><time>2026-08-11T04:21:45Z</time></trkpt>
<trkpt lat="34.8499681" lon="134.0793726"><ele>2.0</ele><time>2026-08-11T04:21:46Z</time></trkpt>
<trkpt lat="34.8499956" lon="134.0793614"><ele>3.0</ele><time>2026-08-11T04:21:47Z</time></trkpt>
<trkpt lat="34.8500231" lon="134.0793503"><ele>3.0</ele><time>2026-08-11T04:21:48Z</time></trkpt>
<trkpt lat="34.8500505" lon="134.0793383"><ele>3.0</ele><time>2026-08-11T04:21:49Z</time></trkpt>
<trkpt lat="34.8500779" lon="134.0793264"><ele>3.0</ele><time>2026-08-11T04:21:50Z</time></trkpt>
<trkpt lat="34.8501056" lon="134.0793136"><ele>3.0</ele><time>2026-08-11T04:21:51Z</time></trkpt>
<trkpt lat="34.8501333" lon="134.0793008"><ele>3.0</ele><time>2026-08-11T04:21:52Z</time></trkpt>
<trkpt lat="34.8501605" lon="134.0792885"><ele>3.0</ele><time>2026-08-11T04:21:53Z</time></trkpt>
<trkpt lat="34.8501878" lon="134.0792763"><ele>3.0</ele><time>2026-08-11T04:21:54Z</time></trkpt>
<trkpt lat="34.8502152" lon="134.0792655"><ele>3.0</ele><time>2026-08-11T04:21:55Z</time></trkpt>
<trkpt lat="34.8502426" lon="134.0792547"><ele>3.0</ele><time>2026-08-11T04:21:56Z</time></trkpt>
<trkpt lat="34.8502698" lon="134.0792456"><ele>4.0</ele><time>2026-08-11T04:21:57Z</time></trkpt>
<trkpt lat="34.8502971" lon="134.0792365"><ele>4.0</ele><time>2026-08-11T04:21:58Z</time></trkpt>
<trkpt lat="34.8503237" lon="134.0792276"><ele>4.0</ele><time>2026-08-11T04:21:59Z</time></trkpt>
<trkpt lat="34.8503503" lon="134.0792188"><ele>4.0</ele><time>2026-08-11T04:22:00Z</time></trkpt>
<trkpt lat="34.8503774" lon="134.0792102"><ele>4.0</ele><time>2026-08-11T04:22:01Z</time></trkpt>
<trkpt lat="34.8504045" lon="134.0792016"><ele>5.0</ele><time>2026-08-11T04:22:02Z</time></trkpt>
<trkpt lat="34.8504326" lon="134.079194"><ele>5.0</ele><time>2026-08-11T04:22:03Z</time></trkpt>
<trkpt lat="34.8504608" lon="134.0791864"><ele>5.0</ele><time>2026-08-11T04:22:04Z</time></trkpt>
<trkpt lat="34.8504896" lon="134.0791796"><ele>5.0</ele><time>2026-08-11T04:22:05Z</time></trkpt>
<trkpt lat="34.8505184" lon="134.0791729"><ele>5.0</ele><time>2026-08-11T04:22:06Z</time></trkpt>
<trkpt lat="34.8505465" lon="134.0791654"><ele>5.0</ele><time>2026-08-11T04:22:07Z</time></trkpt>
<trkpt lat="34.8505746" lon="134.079158"><ele>5.0</ele><time>2026-08-11T04:22:08Z</time></trkpt>
<trkpt lat="34.8506022" lon="134.0791497"><ele>5.0</ele><time>2026-08-11T04:22:09Z</time></trkpt>
<trkpt lat="34.8506298" lon="134.0791414"><ele>5.0</ele><time>2026-08-11T04:22:10Z</time></trkpt>
<trkpt lat="34.8506572" lon="134.0791325"><ele>5.0</ele><time>2026-08-11T04:22:11Z</time></trkpt>
<trkpt lat="34.8506847" lon="134.0791237"><ele>6.0</ele><time>2026-08-11T04:22:12Z</time></trkpt>
<trkpt lat="34.8507119" lon="134.079115"><ele>6.0</ele><time>2026-08-11T04:22:13Z</time></trkpt>
<trkpt lat="34.8507391" lon="134.0791064"><ele>6.0</ele><time>2026-08-11T04:22:14Z</time></trkpt>
<trkpt lat="34.8507658" lon="134.0790968"><ele>6.0</ele><time>2026-08-11T04:22:15Z</time></trkpt>
<trkpt lat="34.8507925" lon="134.0790873"><ele>6.0</ele><time>2026-08-11T04:22:16Z</time></trkpt>
<trkpt lat="34.8508185" lon="134.0790786"><ele>7.0</ele><time>2026-08-11T04:22:17Z</time></trkpt>
<trkpt lat="34.8508446" lon="134.07907"><ele>7.0</ele><time>2026-08-11T04:22:18Z</time></trkpt>
<trkpt lat="34.8508712" lon="134.0790618"><ele>7.0</ele><time>2026-08-11T04:22:19Z</time></trkpt>
<trkpt lat="34.8508979" lon="134.0790537"><ele>7.0</ele><time>2026-08-11T04:22:20Z</time></trkpt>
<trkpt lat="34.8509247" lon="134.079046"><ele>7.0</ele><time>2026-08-11T04:22:21Z</time></trkpt>
<trkpt lat="34.8509516" lon="134.0790383"><ele>8.0</ele><time>2026-08-11T04:22:22Z</time></trkpt>
<trkpt lat="34.8509782" lon="134.0790323"><ele>8.0</ele><time>2026-08-11T04:22:23Z</time></trkpt>
<trkpt lat="34.8510049" lon="134.0790264"><ele>8.0</ele><time>2026-08-11T04:22:24Z</time></trkpt>
<trkpt lat="34.851032" lon="134.0790213"><ele>8.0</ele><time>2026-08-11T04:22:25Z</time></trkpt>
<trkpt lat="34.8510592" lon="134.0790163"><ele>8.0</ele><time>2026-08-11T04:22:26Z</time></trkpt>
<trkpt lat="34.8510863" lon="134.0790112"><ele>8.0</ele><time>2026-08-11T04:22:27Z</time></trkpt>
<trkpt lat="34.8511134" lon="134.0790062"><ele>8.0</ele><time>2026-08-11T04:22:28Z</time></trkpt>
<trkpt lat="34.8511397" lon="134.0790015"><ele>8.0</ele><time>2026-08-11T04:22:29Z</time></trkpt>
<trkpt lat="34.8511661" lon="134.0789969"><ele>8.0</ele><time>2026-08-11T04:22:30Z</time></trkpt>
<trkpt lat="34.8511924" lon="134.0789907"><ele>8.0</ele><time>2026-08-11T04:22:31Z</time></trkpt>
<trkpt lat="34.8512187" lon="134.0789845"><ele>8.0</ele><time>2026-08-11T04:22:32Z</time></trkpt>
<trkpt lat="34.8512443" lon="134.0789763"><ele>8.0</ele><time>2026-08-11T04:22:33Z</time></trkpt>
<trkpt lat="34.8512699" lon="134.0789681"><ele>8.0</ele><time>2026-08-11T04:22:34Z</time></trkpt>
<trkpt lat="34.8512953" lon="134.0789564"><ele>8.0</ele><time>2026-08-11T04:22:35Z</time></trkpt>
<trkpt lat="34.8513208" lon="134.0789448"><ele>8.0</ele><time>2026-08-11T04:22:36Z</time></trkpt>
<trkpt lat="34.8513452" lon="134.0789317"><ele>9.0</ele><time>2026-08-11T04:22:37Z</time></trkpt>
<trkpt lat="34.8513697" lon="134.0789187"><ele>9.0</ele><time>2026-08-11T04:22:38Z</time></trkpt>
<trkpt lat="34.8513934" lon="134.0789066"><ele>9.0</ele><time>2026-08-11T04:22:39Z</time></trkpt>
<trkpt lat="34.8514171" lon="134.0788945"><ele>9.0</ele><time>2026-08-11T04:22:40Z</time></trkpt>
<trkpt lat="34.8514415" lon="134.0788841"><ele>9.0</ele><time>2026-08-11T04:22:41Z</time></trkpt>
<trkpt lat="34.851466" lon="134.0788737"><ele>10.0</ele><time>2026-08-11T04:22:42Z</time></trkpt>
<trkpt lat="34.8514902" lon="134.0788608"><ele>10.0</ele><time>2026-08-11T04:22:43Z</time></trkpt>
<trkpt lat="34.8515145" lon="134.0788479"><ele>10.0</ele><time>2026-08-11T04:22:44Z</time></trkpt>
<trkpt lat="34.8515387" lon="134.078834"><ele>10.0</ele><time>2026-08-11T04:22:45Z</time></trkpt>
<trkpt lat="34.851563" lon="134.0788202"><ele>10.0</ele><time>2026-08-11T04:22:46Z</time></trkpt>
<trkpt lat="34.8515877" lon="134.0788055"><ele>10.0</ele><time>2026-08-11T04:22:47Z</time></trkpt>
<trkpt lat="34.8516124" lon="134.0787909"><ele>10.0</ele><time>2026-08-11T04:22:48Z</time></trkpt>
<trkpt lat="34.8516375" lon="134.0787755"><ele>10.0</ele><time>2026-08-11T04:22:49Z</time></trkpt>
<trkpt lat="34.8516626" lon="134.0787601"><ele>10.0</ele><time>2026-08-11T04:22:50Z</time></trkpt>
<trkpt lat="34.8516879" lon="134.0787445"><ele>10.0</ele><time>2026-08-11T04:22:51Z</time></trkpt>
<trkpt lat="34.8517133" lon="134.0787289"><ele>11.0</ele><time>2026-08-11T04:22:52Z</time></trkpt>
<trkpt lat="34.8517384" lon="134.0787149"><ele>11.0</ele><time>2026-08-11T04:22:53Z</time></trkpt>
<trkpt lat="34.8517635" lon="134.078701"><ele>11.0</ele><time>2026-08-11T04:22:54Z</time></trkpt>
<trkpt lat="34.85179" lon="134.0786874"><ele>11.0</ele><time>2026-08-11T04:22:55Z</time></trkpt>
<trkpt lat="34.8518165" lon="134.0786739"><ele>11.0</ele><time>2026-08-11T04:22:56Z</time></trkpt>
<trkpt lat="34.851843" lon="134.0786591"><ele>12.0</ele><time>2026-08-11T04:22:57Z</time></trkpt>
<trkpt lat="34.8518696" lon="134.0786444"><ele>12.0</ele><time>2026-08-11T04:22:58Z</time></trkpt>
<trkpt lat="34.8518941" lon="134.0786281"><ele>12.0</ele><time>2026-08-11T04:22:59Z</time></trkpt>
<trkpt lat="34.8519187" lon="134.0786119"><ele>12.0</ele><time>2026-08-11T04:23:00Z</time></trkpt>
<trkpt lat="34.8519402" lon="134.0785935"><ele>12.0</ele><time>2026-08-11T04:23:01Z</time></trkpt>
<trkpt lat="34.8519617" lon="134.0785752"><ele>13.0</ele><time>2026-08-11T04:23:02Z</time></trkpt>
<trkpt lat="34.8519813" lon="134.078554"><ele>13.0</ele><time>2026-08-11T04:23:03Z</time></trkpt>
<trkpt lat="34.852001" lon="134.0785329"><ele>13.0</ele><time>2026-08-11T04:23:04Z</time></trkpt>
<trkpt lat="34.8520185" lon="134.0785094"><ele>13.0</ele><time>2026-08-11T04:23:05Z</time></trkpt>
<trkpt lat="34.8520361" lon="134.078486"><ele>13.0</ele><time>2026-08-11T04:23:06Z</time></trkpt>
<trkpt lat="34.8520522" lon="134.0784605"><ele>14.0</ele><time>2026-08-11T04:23:07Z</time></trkpt>
<trkpt lat="34.8520683" lon="134.078435"><ele>14.0</ele><time>2026-08-11T04:23:08Z</time></trkpt>
<trkpt lat="34.8520847" lon="134.0784086"><ele>14.0</ele><time>2026-08-11T04:23:09Z</time></trkpt>
<trkpt lat="34.8521012" lon="134.0783822"><ele>14.0</ele><time>2026-08-11T04:23:10Z</time></trkpt>
<trkpt lat="34.8521179" lon="134.0783549"><ele>14.0</ele><time>2026-08-11T04:23:11Z</time></trkpt>
<trkpt lat="34.8521347" lon="134.0783276"><ele>14.0</ele><time>2026-08-11T04:23:12Z</time></trkpt>
<trkpt lat="34.8521512" lon="134.0783001"><ele>14.0</ele><time>2026-08-11T04:23:13Z</time></trkpt>
<trkpt lat="34.8521678" lon="134.0782727"><ele>14.0</ele><time>2026-08-11T04:23:14Z</time></trkpt>
<trkpt lat="34.8521837" lon="134.0782458"><ele>14.0</ele><time>2026-08-11T04:23:15Z</time></trkpt>
<trkpt lat="34.8521997" lon="134.0782189"><ele>14.0</ele><time>2026-08-11T04:23:16Z</time></trkpt>
<trkpt lat="34.8522154" lon="134.078192"><ele>14.0</ele><time>2026-08-11T04:23:17Z</time></trkpt>
<trkpt lat="34.8522311" lon="134.0781651"><ele>14.0</ele><time>2026-08-11T04:23:18Z</time></trkpt>
<trkpt lat="34.8522467" lon="134.0781388"><ele>14.0</ele><time>2026-08-11T04:23:19Z</time></trkpt>
<trkpt lat="34.8522624" lon="134.0781126"><ele>15.0</ele><time>2026-08-11T04:23:20Z</time></trkpt>
<trkpt lat="34.8522789" lon="134.0780875"><ele>15.0</ele><time>2026-08-11T04:23:21Z</time></trkpt>
<trkpt lat="34.8522954" lon="134.0780625"><ele>16.0</ele><time>2026-08-11T04:23:22Z</time></trkpt>
<trkpt lat="34.8523124" lon="134.078038"><ele>16.0</ele><time>2026-08-11T04:23:23Z</time></trkpt>
<trkpt lat="34.8523294" lon="134.0780136"><ele>16.0</ele><time>2026-08-11T04:23:24Z</time></trkpt>
<trkpt lat="34.8523463" lon="134.07799"><ele>16.0</ele><time>2026-08-11T04:23:25Z</time></trkpt>
<trkpt lat="34.8523632" lon="134.0779665"><ele>16.0</ele><time>2026-08-11T04:23:26Z</time></trkpt>
<trkpt lat="34.8523804" lon="134.0779425"><ele>16.0</ele><time>2026-08-11T04:23:27Z</time></trkpt>
<trkpt lat="34.8523977" lon="134.0779186"><ele>16.0</ele><time>2026-08-11T04:23:28Z</time></trkpt>
<trkpt lat="34.8524156" lon="134.0778943"><ele>16.0</ele><time>2026-08-11T04:23:29Z</time></trkpt>
<trkpt lat="34.8524335" lon="134.0778701"><ele>16.0</ele><time>2026-08-11T04:23:30Z</time></trkpt>
<trkpt lat="34.8524511" lon="134.0778452"><ele>16.0</ele><time>2026-08-11T04:23:31Z</time></trkpt>
<trkpt lat="34.8524687" lon="134.0778204"><ele>16.0</ele><time>2026-08-11T04:23:32Z</time></trkpt>
<trkpt lat="34.8524856" lon="134.0777948"><ele>16.0</ele><time>2026-08-11T04:23:33Z</time></trkpt>
<trkpt lat="34.8525025" lon="134.0777693"><ele>16.0</ele><time>2026-08-11T04:23:34Z</time></trkpt>
<trkpt lat="34.8525184" lon="134.0777433"><ele>16.0</ele><time>2026-08-11T04:23:35Z</time></trkpt>
<trkpt lat="34.8525343" lon="134.0777174"><ele>16.0</ele><time>2026-08-11T04:23:36Z</time></trkpt>
<trkpt lat="34.8525497" lon="134.077691"><ele>16.0</ele><time>2026-08-11T04:23:37Z</time></trkpt>
<trkpt lat="34.8525652" lon="134.0776646"><ele>16.0</ele><time>2026-08-11T04:23:38Z</time></trkpt>
<trkpt lat="34.8525806" lon="134.0776382"><ele>16.0</ele><time>2026-08-11T04:23:39Z</time></trkpt>
<trkpt lat="34.8525961" lon="134.0776119"><ele>16.0</ele><time>2026-08-11T04:23:40Z</time></trkpt>
<trkpt lat="34.8526125" lon="134.0775866"><ele>16.0</ele><time>2026-08-11T04:23:41Z</time></trkpt>
<trkpt lat="34.8526289" lon="134.0775614"><ele>17.0</ele><time>2026-08-11T04:23:42Z</time></trkpt>
<trkpt lat="34.852646" lon="134.0775367"><ele>17.0</ele><time>2026-08-11T04:23:43Z</time></trkpt>
<trkpt lat="34.8526631" lon="134.0775121"><ele>17.0</ele><time>2026-08-11T04:23:44Z</time></trkpt>
<trkpt lat="34.8526792" lon="134.0774863"><ele>17.0</ele><time>2026-08-11T04:23:45Z</time></trkpt>
<trkpt lat="34.8526953" lon="134.0774605"><ele>17.0</ele><time>2026-08-11T04:23:46Z</time></trkpt>
<trkpt lat="34.8527092" lon="134.0774351"><ele>18.0</ele><time>2026-08-11T04:23:47Z</time></trkpt>
<trkpt lat="34.8527232" lon="134.0774097"><ele>18.0</ele><time>2026-08-11T04:23:48Z</time></trkpt>
<trkpt lat="34.8527381" lon="134.0773846"><ele>18.0</ele><time>2026-08-11T04:23:49Z</time></trkpt>
<trkpt lat="34.8527531" lon="134.0773595"><ele>18.0</ele><time>2026-08-11T04:23:50Z</time></trkpt>
<trkpt lat="34.8527702" lon="134.077336"><ele>18.0</ele><time>2026-08-11T04:23:51Z</time></trkpt>
<trkpt lat="34.8527874" lon="134.0773125"><ele>19.0</ele><time>2026-08-11T04:23:52Z</time></trkpt>
<trkpt lat="34.8528057" lon="134.0772915"><ele>19.0</ele><time>2026-08-11T04:23:53Z</time></trkpt>
<trkpt lat="34.8528241" lon="134.0772705"><ele>19.0</ele><time>2026-08-11T04:23:54Z</time></trkpt>
<trkpt lat="34.8528464" lon="134.0772538"><ele>20.0</ele><time>2026-08-11T04:23:55Z</time></trkpt>
<trkpt lat="34.8528688" lon="134.0772372"><ele>20.0</ele><time>2026-08-11T04:23:56Z</time></trkpt>
<trkpt lat="34.852894" lon="134.077224"><ele>21.0</ele><time>2026-08-11T04:23:57Z</time></trkpt>
<trkpt lat="34.8529192" lon="134.0772109"><ele>21.0</ele><time>2026-08-11T04:23:58Z</time></trkpt>
<trkpt lat="34.8529452" lon="134.0772001"><ele>21.0</ele><time>2026-08-11T04:23:59Z</time></trkpt>
<trkpt lat="34.8529713" lon="134.0771893"><ele>21.0</ele><time>2026-08-11T04:24:00Z</time></trkpt>
<trkpt lat="34.852997" lon="134.077181"><ele>21.0</ele><time>2026-08-11T04:24:01Z</time></trkpt>
<trkpt lat="34.8530227" lon="134.0771727"><ele>22.0</ele><time>2026-08-11T04:24:02Z</time></trkpt>
<trkpt lat="34.8530485" lon="134.07717"><ele>22.0</ele><time>2026-08-11T04:24:03Z</time></trkpt>
<trkpt lat="34.8530744" lon="134.0771673"><ele>22.0</ele><time>2026-08-11T04:24:04Z</time></trkpt>
<trkpt lat="34.8531012" lon="134.0771678"><ele>22.0</ele><time>2026-08-11T04:24:05Z</time></trkpt>
<trkpt lat="34.853128" lon="134.0771683"><ele>22.0</ele><time>2026-08-11T04:24:06Z</time></trkpt>
<trkpt lat="34.8531547" lon="134.077168"><ele>23.0</ele><time>2026-08-11T04:24:07Z</time></trkpt>
<trkpt lat="34.8531814" lon="134.0771678"><ele>23.0</ele><time>2026-08-11T04:24:08Z</time></trkpt>
<trkpt lat="34.853207" lon="134.0771615"><ele>23.0</ele><time>2026-08-11T04:24:09Z</time></trkpt>
<trkpt lat="34.8532327" lon="134.0771553"><ele>23.0</ele><time>2026-08-11T04:24:10Z</time></trkpt>
<trkpt lat="34.8532557" lon="134.0771413"><ele>23.0</ele><time>2026-08-11T04:24:11Z</time></trkpt>
<trkpt lat="34.8532787" lon="134.0771274"><ele>24.0</ele><time>2026-08-11T04:24:12Z</time></trkpt>
<trkpt lat="34.8532982" lon="134.0771069"><ele>24.0</ele><time>2026-08-11T04:24:13Z</time></trkpt>
<trkpt lat="34.8533178" lon="134.0770864"><ele>24.0</ele><time>2026-08-11T04:24:14Z</time></trkpt>
<trkpt lat="34.8533445" lon="134.0770538"><ele>24.0</ele><time>2026-08-11T04:24:15Z</time></trkpt>
<trkpt lat="34.8533712" lon="134.0770213"><ele>24.0</ele><time>2026-08-11T04:24:16Z</time></trkpt>
<trkpt lat="34.853398" lon="134.0769888"><ele>25.0</ele><time>2026-08-11T04:24:17Z</time></trkpt>
<trkpt lat="34.853411" lon="134.076962"><ele>27.0</ele><time>2026-08-11T04:24:33Z</time></trkpt>
<trkpt lat="34.8534131" lon="134.0769612"><ele>27.0</ele><time>2026-08-11T04:24:34Z</time></trkpt>
<trkpt lat="34.8534153" lon="134.0769604"><ele>27.0</ele><time>2026-08-11T04:24:35Z</time></trkpt>
<trkpt lat="34.8534279" lon="134.0769556"><ele>27.0</ele><time>2026-08-11T04:24:36Z</time></trkpt>
<trkpt lat="34.8534406" lon="134.0769508"><ele>27.0</ele><time>2026-08-11T04:24:37Z</time></trkpt>
<trkpt lat="34.8534622" lon="134.0769497"><ele>27.0</ele><time>2026-08-11T04:24:38Z</time></trkpt>
<trkpt lat="34.8534839" lon="134.0769487"><ele>27.0</ele><time>2026-08-11T04:24:39Z</time></trkpt>
<trkpt lat="34.8535062" lon="134.0769623"><ele>27.0</ele><time>2026-08-11T04:24:40Z</time></trkpt>
<trkpt lat="34.8535285" lon="134.076976"><ele>27.0</ele><time>2026-08-11T04:24:41Z</time></trkpt>
<trkpt lat="34.8535466" lon="134.0770004"><ele>27.0</ele><time>2026-08-11T04:24:42Z</time></trkpt>
<trkpt lat="34.8535648" lon="134.0770249"><ele>27.0</ele><time>2026-08-11T04:24:43Z</time></trkpt>
<trkpt lat="34.8535793" lon="134.0770544"><ele>27.0</ele><time>2026-08-11T04:24:44Z</time></trkpt>
<trkpt lat="34.8535938" lon="134.0770839"><ele>28.0</ele><time>2026-08-11T04:24:45Z</time></trkpt>
<trkpt lat="34.8536064" lon="134.0771085"><ele>28.0</ele><time>2026-08-11T04:24:46Z</time></trkpt>
<trkpt lat="34.8536191" lon="134.0771331"><ele>29.0</ele><time>2026-08-11T04:24:47Z</time></trkpt>
<trkpt lat="34.8536288" lon="134.0771545"><ele>29.0</ele><time>2026-08-11T04:24:48Z</time></trkpt>
<trkpt lat="34.8536385" lon="134.0771759"><ele>29.0</ele><time>2026-08-11T04:24:49Z</time></trkpt>
<trkpt lat="34.8536461" lon="134.0771988"><ele>29.0</ele><time>2026-08-11T04:24:50Z</time></trkpt>
<trkpt lat="34.8536537" lon="134.0772217"><ele>29.0</ele><time>2026-08-11T04:24:51Z</time></trkpt>
<trkpt lat="34.8536612" lon="134.0772451"><ele>30.0</ele><time>2026-08-11T04:24:52Z</time></trkpt>
<trkpt lat="34.8536687" lon="134.0772686"><ele>30.0</ele><time>2026-08-11T04:24:53Z</time></trkpt>
<trkpt lat="34.8536799" lon="134.0772895"><ele>30.0</ele><time>2026-08-11T04:24:54Z</time></trkpt>
<trkpt lat="34.8536912" lon="134.0773105"><ele>30.0</ele><time>2026-08-11T04:24:55Z</time></trkpt>
<trkpt lat="34.8537044" lon="134.0773308"><ele>30.0</ele><time>2026-08-11T04:24:56Z</time></trkpt>
<trkpt lat="34.8537177" lon="134.0773512"><ele>31.0</ele><time>2026-08-11T04:24:57Z</time></trkpt>
<trkpt lat="34.8537302" lon="134.0773755"><ele>31.0</ele><time>2026-08-11T04:24:58Z</time></trkpt>
<trkpt lat="34.8537427" lon="134.0773999"><ele>31.0</ele><time>2026-08-11T04:24:59Z</time></trkpt>
<trkpt lat="34.8537551" lon="134.0774273"><ele>32.0</ele><time>2026-08-11T04:25:00Z</time></trkpt>
<trkpt lat="34.8537675" lon="134.0774547"><ele>32.0</ele><time>2026-08-11T04:25:01Z</time></trkpt>
<trkpt lat="34.8537806" lon="134.0774863"><ele>33.0</ele><time>2026-08-11T04:25:02Z</time></trkpt>
<trkpt lat="34.8537938" lon="134.0775179"><ele>33.0</ele><time>2026-08-11T04:25:03Z</time></trkpt>
<trkpt lat="34.8538072" lon="134.0775501"><ele>33.0</ele><time>2026-08-11T04:25:04Z</time></trkpt>
<trkpt lat="34.8538206" lon="134.0775823"><ele>33.0</ele><time>2026-08-11T04:25:05Z</time></trkpt>
<trkpt lat="34.8538324" lon="134.077615"><ele>33.0</ele><time>2026-08-11T04:25:06Z</time></trkpt>
<trkpt lat="34.8538443" lon="134.0776477"><ele>33.0</ele><time>2026-08-11T04:25:07Z</time></trkpt>
<trkpt lat="34.8538544" lon="134.0776792"><ele>33.0</ele><time>2026-08-11T04:25:08Z</time></trkpt>
<trkpt lat="34.8538646" lon="134.0777108"><ele>33.0</ele><time>2026-08-11T04:25:09Z</time></trkpt>
<trkpt lat="34.8538734" lon="134.0777347"><ele>33.0</ele><time>2026-08-11T04:25:10Z</time></trkpt>
<trkpt lat="34.8538823" lon="134.0777586"><ele>33.0</ele><time>2026-08-11T04:25:11Z</time></trkpt>
<trkpt lat="34.8538781" lon="134.0777688"><ele>34.0</ele><time>2026-08-11T04:25:12Z</time></trkpt>
<trkpt lat="34.8538739" lon="134.077779"><ele>34.0</ele><time>2026-08-11T04:25:13Z</time></trkpt>
<trkpt lat="34.8538697" lon="134.0777892"><ele>34.0</ele><time>2026-08-11T04:25:14Z</time></trkpt>
<trkpt lat="34.853871" lon="134.077778"><ele>35.0</ele><time>2026-08-11T04:28:31Z</time></trkpt>
<trkpt lat="34.8538721" lon="134.0777779"><ele>35.0</ele><time>2026-08-11T04:28:32Z</time></trkpt>
<trkpt lat="34.8538733" lon="134.0777778"><ele>35.0</ele><time>2026-08-11T04:28:33Z</time></trkpt>
<trkpt lat="34.8538841" lon="134.0777798"><ele>35.0</ele><time>2026-08-11T04:28:34Z</time></trkpt>
<trkpt lat="34.853895" lon="134.0777818"><ele>35.0</ele><time>2026-08-11T04:28:35Z</time></trkpt>
<trkpt lat="34.8539136" lon="134.0777879"><ele>35.0</ele><time>2026-08-11T04:28:36Z</time></trkpt>
<trkpt lat="34.8539323" lon="134.077794"><ele>35.0</ele><time>2026-08-11T04:28:37Z</time></trkpt>
<trkpt lat="34.8539568" lon="134.0778034"><ele>35.0</ele><time>2026-08-11T04:28:38Z</time></trkpt>
<trkpt lat="34.8539813" lon="134.0778129"><ele>35.0</ele><time>2026-08-11T04:28:39Z</time></trkpt>
<trkpt lat="34.8540103" lon="134.0778274"><ele>36.0</ele><time>2026-08-11T04:28:40Z</time></trkpt>
<trkpt lat="34.8540394" lon="134.0778419"><ele>36.0</ele><time>2026-08-11T04:28:41Z</time></trkpt>
<trkpt lat="34.8540679" lon="134.0778567"><ele>36.0</ele><time>2026-08-11T04:28:42Z</time></trkpt>
<trkpt lat="34.8540964" lon="134.0778715"><ele>36.0</ele><time>2026-08-11T04:28:43Z</time></trkpt>
<trkpt lat="34.8541224" lon="134.0778852"><ele>36.0</ele><time>2026-08-11T04:28:44Z</time></trkpt>
<trkpt lat="34.8541485" lon="134.077899"><ele>37.0</ele><time>2026-08-11T04:28:45Z</time></trkpt>
<trkpt lat="34.8541735" lon="134.077915"><ele>37.0</ele><time>2026-08-11T04:28:46Z</time></trkpt>
<trkpt lat="34.8541986" lon="134.0779311"><ele>37.0</ele><time>2026-08-11T04:28:47Z</time></trkpt>
<trkpt lat="34.8542249" lon="134.0779511"><ele>37.0</ele><time>2026-08-11T04:28:48Z</time></trkpt>
<trkpt lat="34.8542513" lon="134.0779711"><ele>37.0</ele><time>2026-08-11T04:28:49Z</time></trkpt>
<trkpt lat="34.8542776" lon="134.0779929"><ele>38.0</ele><time>2026-08-11T04:28:50Z</time></trkpt>
<trkpt lat="34.8543039" lon="134.0780147"><ele>38.0</ele><time>2026-08-11T04:28:51Z</time></trkpt>
<trkpt lat="34.8543292" lon="134.0780347"><ele>38.0</ele><time>2026-08-11T04:28:52Z</time></trkpt>
<trkpt lat="34.8543545" lon="134.0780547"><ele>38.0</ele><time>2026-08-11T04:28:53Z</time></trkpt>
<trkpt lat="34.8543787" lon="134.0780741"><ele>38.0</ele><time>2026-08-11T04:28:54Z</time></trkpt>
<trkpt lat="34.854403" lon="134.0780935"><ele>38.0</ele><time>2026-08-11T04:28:55Z</time></trkpt>
<trkpt lat="34.854426" lon="134.0781154"><ele>38.0</ele><time>2026-08-11T04:28:56Z</time></trkpt>
<trkpt lat="34.8544491" lon="134.0781374"><ele>38.0</ele><time>2026-08-11T04:28:57Z</time></trkpt>
<trkpt lat="34.8544738" lon="134.0781604"><ele>38.0</ele><time>2026-08-11T04:28:58Z</time></trkpt>
<trkpt lat="34.8544985" lon="134.0781835"><ele>38.0</ele><time>2026-08-11T04:28:59Z</time></trkpt>
<trkpt lat="34.8545238" lon="134.0782023"><ele>39.0</ele><time>2026-08-11T04:29:00Z</time></trkpt>
<trkpt lat="34.8545491" lon="134.0782211"><ele>39.0</ele><time>2026-08-11T04:29:01Z</time></trkpt>
<trkpt lat="34.8545742" lon="134.0782354"><ele>39.0</ele><time>2026-08-11T04:29:02Z</time></trkpt>
<trkpt lat="34.8545993" lon="134.0782498"><ele>39.0</ele><time>2026-08-11T04:29:03Z</time></trkpt>
<trkpt lat="34.854625" lon="134.0782659"><ele>39.0</ele><time>2026-08-11T04:29:04Z</time></trkpt>
<trkpt lat="34.8546507" lon="134.0782821"><ele>40.0</ele><time>2026-08-11T04:29:05Z</time></trkpt>
<trkpt lat="34.8546761" lon="134.0783017"><ele>40.0</ele><time>2026-08-11T04:29:06Z</time></trkpt>
<trkpt lat="34.8547016" lon="134.0783214"><ele>40.0</ele><time>2026-08-11T04:29:07Z</time></trkpt>
<trkpt lat="34.8547265" lon="134.0783425"><ele>40.0</ele><time>2026-08-11T04:29:08Z</time></trkpt>
<trkpt lat="34.8547514" lon="134.0783637"><ele>40.0</ele><time>2026-08-11T04:29:09Z</time></trkpt>
<trkpt lat="34.8547755" lon="134.0783835"><ele>41.0</ele><time>2026-08-11T04:29:10Z</time></trkpt>
<trkpt lat="34.8547997" lon="134.0784033"><ele>41.0</ele><time>2026-08-11T04:29:11Z</time></trkpt>
<trkpt lat="34.8548216" lon="134.0784174"><ele>41.0</ele><time>2026-08-11T04:29:12Z</time></trkpt>
<trkpt lat="34.8548435" lon="134.0784315"><ele>42.0</ele><time>2026-08-11T04:29:13Z</time></trkpt>
<trkpt lat="34.8548625" lon="134.078439"><ele>42.0</ele><time>2026-08-11T04:29:14Z</time></trkpt>
<trkpt lat="34.8548816" lon="134.0784465"><ele>43.0</ele><time>2026-08-11T04:29:15Z</time></trkpt>
<trkpt lat="34.8548997" lon="134.0784516"><ele>43.0</ele><time>2026-08-11T04:29:16Z</time></trkpt>
<trkpt lat="34.8549179" lon="134.0784567"><ele>43.0</ele><time>2026-08-11T04:29:17Z</time></trkpt>
<trkpt lat="34.8549369" lon="134.078463"><ele>44.0</ele><time>2026-08-11T04:29:18Z</time></trkpt>
<trkpt lat="34.8549559" lon="134.0784693"><ele>44.0</ele><time>2026-08-11T04:29:19Z</time></trkpt>
<trkpt lat="34.8549748" lon="134.0784765"><ele>45.0</ele><time>2026-08-11T04:29:20Z</time></trkpt>
<trkpt lat="34.8549938" lon="134.0784837"><ele>45.0</ele><time>2026-08-11T04:29:21Z</time></trkpt>
<trkpt lat="34.8550118" lon="134.0784912"><ele>45.0</ele><time>2026-08-11T04:29:22Z</time></trkpt>
<trkpt lat="34.8550299" lon="134.0784987"><ele>46.0</ele><time>2026-08-11T04:29:23Z</time></trkpt>
<trkpt lat="34.8550493" lon="134.0785065"><ele>46.0</ele><time>2026-08-11T04:29:24Z</time></trkpt>
<trkpt lat="34.8550688" lon="134.0785144"><ele>47.0</ele><time>2026-08-11T04:29:25Z</time></trkpt>
<trkpt lat="34.8550902" lon="134.0785224"><ele>47.0</ele><time>2026-08-11T04:29:26Z</time></trkpt>
<trkpt lat="34.8551116" lon="134.0785304"><ele>47.0</ele><time>2026-08-11T04:29:27Z</time></trkpt>
<trkpt lat="34.8551338" lon="134.0785372"><ele>48.0</ele><time>2026-08-11T04:29:28Z</time></trkpt>
<trkpt lat="34.855156" lon="134.0785441"><ele>48.0</ele><time>2026-08-11T04:29:29Z</time></trkpt>
<trkpt lat="34.8551797" lon="134.0785496"><ele>49.0</ele><time>2026-08-11T04:29:30Z</time></trkpt>
<trkpt lat="34.8552034" lon="134.0785552"><ele>49.0</ele><time>2026-08-11T04:29:31Z</time></trkpt>
<trkpt lat="34.8552273" lon="134.0785581"><ele>49.0</ele><time>2026-08-11T04:29:32Z</time></trkpt>
<trkpt lat="34.8552513" lon="134.0785611"><ele>50.0</ele><time>2026-08-11T04:29:33Z</time></trkpt>
<trkpt lat="34.8552734" lon="134.0785606"><ele>50.0</ele><time>2026-08-11T04:29:34Z</time></trkpt>
<trkpt lat="34.8552955" lon="134.0785602"><ele>51.0</ele><time>2026-08-11T04:29:35Z</time></trkpt>
<trkpt lat="34.8553181" lon="134.0785592"><ele>51.0</ele><time>2026-08-11T04:29:36Z</time></trkpt>
<trkpt lat="34.8553407" lon="134.0785583"><ele>51.0</ele><time>2026-08-11T04:29:37Z</time></trkpt>
<trkpt lat="34.8553656" lon="134.0785567"><ele>52.0</ele><time>2026-08-11T04:29:38Z</time></trkpt>
<trkpt lat="34.8553905" lon="134.0785552"><ele>52.0</ele><time>2026-08-11T04:29:39Z</time></trkpt>
<trkpt lat="34.8554142" lon="134.0785542"><ele>53.0</ele><time>2026-08-11T04:29:40Z</time></trkpt>
<trkpt lat="34.8554379" lon="134.0785533"><ele>53.0</ele><time>2026-08-11T04:29:41Z</time></trkpt>
<trkpt lat="34.8554567" lon="134.0785545"><ele>53.0</ele><time>2026-08-11T04:29:42Z</time></trkpt>
<trkpt lat="34.8554755" lon="134.0785558"><ele>54.0</ele><time>2026-08-11T04:29:43Z</time></trkpt>
<trkpt lat="34.8554917" lon="134.0785596"><ele>54.0</ele><time>2026-08-11T04:29:44Z</time></trkpt>
<trkpt lat="34.8555079" lon="134.0785634"><ele>55.0</ele><time>2026-08-11T04:29:45Z</time></trkpt>
<trkpt lat="34.8555244" lon="134.0785671"><ele>55.0</ele><time>2026-08-11T04:29:46Z</time></trkpt>
<trkpt lat="34.8555409" lon="134.0785709"><ele>55.0</ele><time>2026-08-11T04:29:47Z</time></trkpt>
<trkpt lat="34.8555588" lon="134.078574"><ele>56.0</ele><time>2026-08-11T04:29:48Z</time></trkpt>
<trkpt lat="34.8555768" lon="134.0785771"><ele>56.0</ele><time>2026-08-11T04:29:49Z</time></trkpt>
<trkpt lat="34.855594" lon="134.0785768"><ele>57.0</ele><time>2026-08-11T04:29:50Z</time></trkpt>
<trkpt lat="34.8556113" lon="134.0785766"><ele>57.0</ele><time>2026-08-11T04:29:51Z</time></trkpt>
<trkpt lat="34.8556258" lon="134.0785736"><ele>57.0</ele><time>2026-08-11T04:29:52Z</time></trkpt>
<trkpt lat="34.8556404" lon="134.0785706"><ele>58.0</ele><time>2026-08-11T04:29:53Z</time></trkpt>
<trkpt lat="34.8556539" lon="134.0785681"><ele>58.0</ele><time>2026-08-11T04:29:54Z</time></trkpt>
<trkpt lat="34.8556674" lon="134.0785657"><ele>59.0</ele><time>2026-08-11T04:29:55Z</time></trkpt>
<trkpt lat="34.855683" lon="134.0785662"><ele>59.0</ele><time>2026-08-11T04:29:56Z</time></trkpt>
<trkpt lat="34.8556986" lon="134.0785667"><ele>59.0</ele><time>2026-08-11T04:29:57Z</time></trkpt>
<trkpt lat="34.8557163" lon="134.0785695"><ele>60.0</ele><time>2026-08-11T04:29:58Z</time></trkpt>
<trkpt lat="34.855734" lon="134.0785723"><ele>60.0</ele><time>2026-08-11T04:29:59Z</time></trkpt>
<trkpt lat="34.8557542" lon="134.078575"><ele>61.0</ele><time>2026-08-11T04:30:00Z</time></trkpt>
<trkpt lat="34.8557745" lon="134.0785778"><ele>61.0</ele><time>2026-08-11T04:30:01Z</time></trkpt>
<trkpt lat="34.8557947" lon="134.0785784"><ele>61.0</ele><time>2026-08-11T04:30:02Z</time></trkpt>
<trkpt lat="34.8558149" lon="134.0785791"><ele>61.0</ele><time>2026-08-11T04:30:03Z</time></trkpt>
<trkpt lat="34.8558334" lon="134.0785785"><ele>61.0</ele><time>2026-08-11T04:30:04Z</time></trkpt>
<trkpt lat="34.8558519" lon="134.0785779"><ele>62.0</ele><time>2026-08-11T04:30:05Z</time></trkpt>
<trkpt lat="34.8558712" lon="134.0785767"><ele>62.0</ele><time>2026-08-11T04:30:06Z</time></trkpt>
<trkpt lat="34.8558905" lon="134.0785755"><ele>62.0</ele><time>2026-08-11T04:30:07Z</time></trkpt>
<trkpt lat="34.8559099" lon="134.0785739"><ele>63.0</ele><time>2026-08-11T04:30:08Z</time></trkpt>
<trkpt lat="34.8559294" lon="134.0785723"><ele>63.0</ele><time>2026-08-11T04:30:09Z</time></trkpt>
<trkpt lat="34.855951" lon="134.0785708"><ele>64.0</ele><time>2026-08-11T04:30:10Z</time></trkpt>
<trkpt lat="34.8559726" lon="134.0785694"><ele>64.0</ele><time>2026-08-11T04:30:11Z</time></trkpt>
<trkpt lat="34.8559941" lon="134.0785688"><ele>64.0</ele><time>2026-08-11T04:30:12Z</time></trkpt>
<trkpt lat="34.8560156" lon="134.0785683"><ele>64.0</ele><time>2026-08-11T04:30:13Z</time></trkpt>
<trkpt lat="34.8560364" lon="134.0785738"><ele>64.0</ele><time>2026-08-11T04:30:14Z</time></trkpt>
<trkpt lat="34.8560572" lon="134.0785793"><ele>65.0</ele><time>2026-08-11T04:30:15Z</time></trkpt>
<trkpt lat="34.8560771" lon="134.078589"><ele>65.0</ele><time>2026-08-11T04:30:16Z</time></trkpt>
<trkpt lat="34.856097" lon="134.0785987"><ele>65.0</ele><time>2026-08-11T04:30:17Z</time></trkpt>
<trkpt lat="34.8561162" lon="134.0786102"><ele>66.0</ele><time>2026-08-11T04:30:18Z</time></trkpt>
<trkpt lat="34.8561355" lon="134.0786217"><ele>66.0</ele><time>2026-08-11T04:30:19Z</time></trkpt>
<trkpt lat="34.8561546" lon="134.0786352"><ele>67.0</ele><time>2026-08-11T04:30:20Z</time></trkpt>
<trkpt lat="34.8561738" lon="134.0786487"><ele>67.0</ele><time>2026-08-11T04:30:21Z</time></trkpt>
<trkpt lat="34.8561914" lon="134.0786617"><ele>67.0</ele><time>2026-08-11T04:30:22Z</time></trkpt>
<trkpt lat="34.856209" lon="134.0786748"><ele>67.0</ele><time>2026-08-11T04:30:23Z</time></trkpt>
<trkpt lat="34.8562255" lon="134.0786864"><ele>67.0</ele><time>2026-08-11T04:30:24Z</time></trkpt>
<trkpt lat="34.8562421" lon="134.078698"><ele>68.0</ele><time>2026-08-11T04:30:25Z</time></trkpt>
<trkpt lat="34.8562591" lon="134.0787093"><ele>68.0</ele><time>2026-08-11T04:30:26Z</time></trkpt>
<trkpt lat="34.8562761" lon="134.0787207"><ele>68.0</ele><time>2026-08-11T04:30:27Z</time></trkpt>
<trkpt lat="34.8562922" lon="134.0787321"><ele>69.0</ele><time>2026-08-11T04:30:28Z</time></trkpt>
<trkpt lat="34.8563083" lon="134.0787435"><ele>69.0</ele><time>2026-08-11T04:30:29Z</time></trkpt>
<trkpt lat="34.856324" lon="134.0787537"><ele>70.0</ele><time>2026-08-11T04:30:30Z</time></trkpt>
<trkpt lat="34.8563398" lon="134.0787639"><ele>70.0</ele><time>2026-08-11T04:30:31Z</time></trkpt>
<trkpt lat="34.8563551" lon="134.0787707"><ele>70.0</ele><time>2026-08-11T04:30:32Z</time></trkpt>
<trkpt lat="34.8563705" lon="134.0787776"><ele>70.0</ele><time>2026-08-11T04:30:33Z</time></trkpt>
<trkpt lat="34.8563876" lon="134.0787812"><ele>70.0</ele><time>2026-08-11T04:30:34Z</time></trkpt>
<trkpt lat="34.8564048" lon="134.0787848"><ele>71.0</ele><time>2026-08-11T04:30:35Z</time></trkpt>
<trkpt lat="34.8564252" lon="134.0787849"><ele>71.0</ele><time>2026-08-11T04:30:36Z</time></trkpt>
<trkpt lat="34.8564457" lon="134.078785"><ele>71.0</ele><time>2026-08-11T04:30:37Z</time></trkpt>
<trkpt lat="34.8564657" lon="134.0787808"><ele>72.0</ele><time>2026-08-11T04:30:38Z</time></trkpt>
<trkpt lat="34.8564858" lon="134.0787766"><ele>72.0</ele><time>2026-08-11T04:30:39Z</time></trkpt>
<trkpt lat="34.8565067" lon="134.0787692"><ele>73.0</ele><time>2026-08-11T04:30:40Z</time></trkpt>
<trkpt lat="34.8565276" lon="134.0787618"><ele>73.0</ele><time>2026-08-11T04:30:41Z</time></trkpt>
<trkpt lat="34.8565514" lon="134.0787538"><ele>73.0</ele><time>2026-08-11T04:30:42Z</time></trkpt>
<trkpt lat="34.8565752" lon="134.0787459"><ele>73.0</ele><time>2026-08-11T04:30:43Z</time></trkpt>
<trkpt lat="34.8566009" lon="134.0787415"><ele>73.0</ele><time>2026-08-11T04:30:44Z</time></trkpt>
<trkpt lat="34.8566267" lon="134.0787371"><ele>74.0</ele><time>2026-08-11T04:30:45Z</time></trkpt>
<trkpt lat="34.8566517" lon="134.0787388"><ele>74.0</ele><time>2026-08-11T04:30:46Z</time></trkpt>
<trkpt lat="34.8566767" lon="134.0787405"><ele>74.0</ele><time>2026-08-11T04:30:47Z</time></trkpt>
<trkpt lat="34.8567009" lon="134.0787481"><ele>74.0</ele><time>2026-08-11T04:30:48Z</time></trkpt>
<trkpt lat="34.8567251" lon="134.0787557"><ele>74.0</ele><time>2026-08-11T04:30:49Z</time></trkpt>
<trkpt lat="34.8567486" lon="134.0787684"><ele>74.0</ele><time>2026-08-11T04:30:50Z</time></trkpt>
<trkpt lat="34.8567721" lon="134.0787812"><ele>74.0</ele><time>2026-08-11T04:30:51Z</time></trkpt>
<trkpt lat="34.8567947" lon="134.0787976"><ele>74.0</ele><time>2026-08-11T04:30:52Z</time></trkpt>
<trkpt lat="34.8568173" lon="134.078814"><ele>74.0</ele><time>2026-08-11T04:30:53Z</time></trkpt>
<trkpt lat="34.8568407" lon="134.0788315"><ele>74.0</ele><time>2026-08-11T04:30:54Z</time></trkpt>
<trkpt lat="34.8568641" lon="134.0788491"><ele>74.0</ele><time>2026-08-11T04:30:55Z</time></trkpt>
<trkpt lat="34.8568883" lon="134.0788658"><ele>74.0</ele><time>2026-08-11T04:30:56Z</time></trkpt>
<trkpt lat="34.8569125" lon="134.0788826"><ele>74.0</ele><time>2026-08-11T04:30:57Z</time></trkpt>
<trkpt lat="34.8569372" lon="134.078897"><ele>74.0</ele><time>2026-08-11T04:30:58Z</time></trkpt>
<trkpt lat="34.856962" lon="134.0789115"><ele>74.0</ele><time>2026-08-11T04:30:59Z</time></trkpt>
<trkpt lat="34.8569853" lon="134.0789235"><ele>75.0</ele><time>2026-08-11T04:31:00Z</time></trkpt>
<trkpt lat="34.8570087" lon="134.0789356"><ele>75.0</ele><time>2026-08-11T04:31:01Z</time></trkpt>
<trkpt lat="34.8570313" lon="134.0789458"><ele>75.0</ele><time>2026-08-11T04:31:02Z</time></trkpt>
<trkpt lat="34.857054" lon="134.0789561"><ele>75.0</ele><time>2026-08-11T04:31:03Z</time></trkpt>
<trkpt lat="34.8570763" lon="134.0789656"><ele>75.0</ele><time>2026-08-11T04:31:04Z</time></trkpt>
<trkpt lat="34.8570986" lon="134.0789751"><ele>76.0</ele><time>2026-08-11T04:31:05Z</time></trkpt>
<trkpt lat="34.8571212" lon="134.0789829"><ele>76.0</ele><time>2026-08-11T04:31:06Z</time></trkpt>
<trkpt lat="34.8571438" lon="134.0789907"><ele>76.0</ele><time>2026-08-11T04:31:07Z</time></trkpt>
<trkpt lat="34.857165" lon="134.0789972"><ele>76.0</ele><time>2026-08-11T04:31:08Z</time></trkpt>
<trkpt lat="34.8571863" lon="134.0790038"><ele>76.0</ele><time>2026-08-11T04:31:09Z</time></trkpt>
<trkpt lat="34.8572059" lon="134.0790103"><ele>77.0</ele><time>2026-08-11T04:31:10Z</time></trkpt>
<trkpt lat="34.8572256" lon="134.0790169"><ele>77.0</ele><time>2026-08-11T04:31:11Z</time></trkpt>
<trkpt lat="34.8572444" lon="134.0790241"><ele>77.0</ele><time>2026-08-11T04:31:12Z</time></trkpt>
<trkpt lat="34.8572632" lon="134.0790313"><ele>77.0</ele><time>2026-08-11T04:31:13Z</time></trkpt>
<trkpt lat="34.8572831" lon="134.07904"><ele>77.0</ele><time>2026-08-11T04:31:14Z</time></trkpt>
<trkpt lat="34.8573031" lon="134.0790488"><ele>78.0</ele><time>2026-08-11T04:31:15Z</time></trkpt>
<trkpt lat="34.8573233" lon="134.0790618"><ele>78.0</ele><time>2026-08-11T04:31:16Z</time></trkpt>
<trkpt lat="34.8573436" lon="134.0790749"><ele>78.0</ele><time>2026-08-11T04:31:17Z</time></trkpt>
<trkpt lat="34.8573646" lon="134.0790919"><ele>78.0</ele><time>2026-08-11T04:31:18Z</time></trkpt>
<trkpt lat="34.8573856" lon="134.079109"><ele>78.0</ele><time>2026-08-11T04:31:19Z</time></trkpt>
<trkpt lat="34.857406" lon="134.079124"><ele>79.0</ele><time>2026-08-11T04:31:20Z</time></trkpt>
<trkpt lat="34.8574265" lon="134.079139"><ele>79.0</ele><time>2026-08-11T04:31:21Z</time></trkpt>
<trkpt lat="34.857447" lon="134.0791513"><ele>79.0</ele><time>2026-08-11T04:31:22Z</time></trkpt>
<trkpt lat="34.8574675" lon="134.0791636"><ele>79.0</ele><time>2026-08-11T04:31:23Z</time></trkpt>
<trkpt lat="34.8574876" lon="134.0791761"><ele>79.0</ele><time>2026-08-11T04:31:24Z</time></trkpt>
<trkpt lat="34.8575078" lon="134.0791886"><ele>80.0</ele><time>2026-08-11T04:31:25Z</time></trkpt>
<trkpt lat="34.8575274" lon="134.079203"><ele>80.0</ele><time>2026-08-11T04:31:26Z</time></trkpt>
<trkpt lat="34.857547" lon="134.0792174"><ele>80.0</ele><time>2026-08-11T04:31:27Z</time></trkpt>
<trkpt lat="34.857569" lon="134.0792299"><ele>80.0</ele><time>2026-08-11T04:31:28Z</time></trkpt>
<trkpt lat="34.857591" lon="134.0792424"><ele>80.0</ele><time>2026-08-11T04:31:29Z</time></trkpt>
<trkpt lat="34.8576151" lon="134.0792517"><ele>81.0</ele><time>2026-08-11T04:31:30Z</time></trkpt>
<trkpt lat="34.8576393" lon="134.0792611"><ele>81.0</ele><time>2026-08-11T04:31:31Z</time></trkpt>
<trkpt lat="34.8576607" lon="134.0792659"><ele>81.0</ele><time>2026-08-11T04:31:32Z</time></trkpt>
<trkpt lat="34.8576822" lon="134.0792708"><ele>81.0</ele><time>2026-08-11T04:31:33Z</time></trkpt>
<trkpt lat="34.8577137" lon="134.0792693"><ele>81.0</ele><time>2026-08-11T04:31:34Z</time></trkpt>
<trkpt lat="34.8577452" lon="134.0792678"><ele>82.0</ele><time>2026-08-11T04:31:35Z</time></trkpt>
<trkpt lat="34.8577642" lon="134.079273"><ele>84.0</ele><time>2026-08-11T04:31:57Z</time></trkpt>
<trkpt lat="34.8577649" lon="134.0792735"><ele>84.0</ele><time>2026-08-11T04:31:58Z</time></trkpt>
<trkpt lat="34.8577656" lon="134.079274"><ele>84.0</ele><time>2026-08-11T04:31:59Z</time></trkpt>
<trkpt lat="34.8577721" lon="134.0792736"><ele>84.0</ele><time>2026-08-11T04:32:00Z</time></trkpt>
<trkpt lat="34.8577787" lon="134.0792733"><ele>84.0</ele><time>2026-08-11T04:32:01Z</time></trkpt>
<trkpt lat="34.8577931" lon="134.0792736"><ele>84.0</ele><time>2026-08-11T04:32:02Z</time></trkpt>
<trkpt lat="34.8578076" lon="134.079274"><ele>84.0</ele><time>2026-08-11T04:32:03Z</time></trkpt>
<trkpt lat="34.8578285" lon="134.0792753"><ele>84.0</ele><time>2026-08-11T04:32:04Z</time></trkpt>
<trkpt lat="34.8578494" lon="134.0792767"><ele>84.0</ele><time>2026-08-11T04:32:05Z</time></trkpt>
<trkpt lat="34.8578739" lon="134.0792784"><ele>85.0</ele><time>2026-08-11T04:32:06Z</time></trkpt>
<trkpt lat="34.8578984" lon="134.0792801"><ele>85.0</ele><time>2026-08-11T04:32:07Z</time></trkpt>
<trkpt lat="34.8579242" lon="134.079283"><ele>85.0</ele><time>2026-08-11T04:32:08Z</time></trkpt>
<trkpt lat="34.8579501" lon="134.0792859"><ele>85.0</ele><time>2026-08-11T04:32:09Z</time></trkpt>
<trkpt lat="34.8579778" lon="134.0792918"><ele>85.0</ele><time>2026-08-11T04:32:10Z</time></trkpt>
<trkpt lat="34.8580056" lon="134.0792977"><ele>86.0</ele><time>2026-08-11T04:32:11Z</time></trkpt>
<trkpt lat="34.858034" lon="134.0793058"><ele>86.0</ele><time>2026-08-11T04:32:12Z</time></trkpt>
<trkpt lat="34.8580624" lon="134.0793139"><ele>86.0</ele><time>2026-08-11T04:32:13Z</time></trkpt>
<trkpt lat="34.8580889" lon="134.079323"><ele>86.0</ele><time>2026-08-11T04:32:14Z</time></trkpt>
<trkpt lat="34.8581154" lon="134.0793322"><ele>86.0</ele><time>2026-08-11T04:32:15Z</time></trkpt>
<trkpt lat="34.8581389" lon="134.0793415"><ele>87.0</ele><time>2026-08-11T04:32:16Z</time></trkpt>
<trkpt lat="34.8581624" lon="134.0793509"><ele>87.0</ele><time>2026-08-11T04:32:17Z</time></trkpt>
<trkpt lat="34.8581953" lon="134.0793722"><ele>87.0</ele><time>2026-08-11T04:32:18Z</time></trkpt>
<trkpt lat="34.8582282" lon="134.0793935"><ele>87.0</ele><time>2026-08-11T04:32:19Z</time></trkpt>
<trkpt lat="34.8582197" lon="134.0793812"><ele>90.0</ele><time>2026-08-11T04:32:35Z</time></trkpt>
<trkpt lat="34.8582256" lon="134.0793818"><ele>90.0</ele><time>2026-08-11T04:32:36Z</time></trkpt>
<trkpt lat="34.8582371" lon="134.0793853"><ele>90.0</ele><time>2026-08-11T04:32:37Z</time></trkpt>
<trkpt lat="34.8582487" lon="134.0793888"><ele>90.0</ele><time>2026-08-11T04:32:38Z</time></trkpt>
<trkpt lat="34.8582591" lon="134.0793971"><ele>90.0</ele><time>2026-08-11T04:32:39Z</time></trkpt>
<trkpt lat="34.8582695" lon="134.0794054"><ele>90.0</ele><time>2026-08-11T04:32:40Z</time></trkpt>
<trkpt lat="34.8582797" lon="134.0794214"><ele>90.0</ele><time>2026-08-11T04:32:41Z</time></trkpt>
<trkpt lat="34.85829" lon="134.0794375"><ele>91.0</ele><time>2026-08-11T04:32:42Z</time></trkpt>
<trkpt lat="34.858302" lon="134.079456"><ele>91.0</ele><time>2026-08-11T04:32:43Z</time></trkpt>
<trkpt lat="34.8583141" lon="134.0794746"><ele>92.0</ele><time>2026-08-11T04:32:44Z</time></trkpt>
<trkpt lat="34.8583305" lon="134.0794929"><ele>92.0</ele><time>2026-08-11T04:32:45Z</time></trkpt>
<trkpt lat="34.858347" lon="134.0795113"><ele>92.0</ele><time>2026-08-11T04:32:46Z</time></trkpt>
<trkpt lat="34.8583651" lon="134.079529"><ele>93.0</ele><time>2026-08-11T04:32:47Z</time></trkpt>
<trkpt lat="34.8583832" lon="134.0795468"><ele>93.0</ele><time>2026-08-11T04:32:48Z</time></trkpt>
<trkpt lat="34.8584009" lon="134.0795621"><ele>94.0</ele><time>2026-08-11T04:32:49Z</time></trkpt>
<trkpt lat="34.8584187" lon="134.0795774"><ele>94.0</ele><time>2026-08-11T04:32:50Z</time></trkpt>
<trkpt lat="34.8584366" lon="134.0795885"><ele>94.0</ele><time>2026-08-11T04:32:51Z</time></trkpt>
<trkpt lat="34.8584546" lon="134.0795997"><ele>95.0</ele><time>2026-08-11T04:32:52Z</time></trkpt>
<trkpt lat="34.8584724" lon="134.0796074"><ele>95.0</ele><time>2026-08-11T04:32:53Z</time></trkpt>
<trkpt lat="34.8584902" lon="134.0796152"><ele>96.0</ele><time>2026-08-11T04:32:54Z</time></trkpt>
<trkpt lat="34.8585073" lon="134.0796188"><ele>96.0</ele><time>2026-08-11T04:32:55Z</time></trkpt>
<trkpt lat="34.8585244" lon="134.0796225"><ele>97.0</ele><time>2026-08-11T04:32:56Z</time></trkpt>
<trkpt lat="34.8585424" lon="134.0796228"><ele>97.0</ele><time>2026-08-11T04:32:57Z</time></trkpt>
<trkpt lat="34.8585605" lon="134.0796232"><ele>98.0</ele><time>2026-08-11T04:32:58Z</time></trkpt>
<trkpt lat="34.8585804" lon="134.0796231"><ele>99.0</ele><time>2026-08-11T04:32:59Z</time></trkpt>
<trkpt lat="34.8586004" lon="134.0796231"><ele>99.0</ele><time>2026-08-11T04:33:00Z</time></trkpt>
<trkpt lat="34.858621" lon="134.0796219"><ele>99.0</ele><time>2026-08-11T04:33:01Z</time></trkpt>
<trkpt lat="34.8586416" lon="134.0796208"><ele>100.0</ele><time>2026-08-11T04:33:02Z</time></trkpt>
<trkpt lat="34.8586621" lon="134.079623"><ele>100.0</ele><time>2026-08-11T04:33:03Z</time></trkpt>
<trkpt lat="34.8586826" lon="134.0796252"><ele>101.0</ele><time>2026-08-11T04:33:04Z</time></trkpt>
<trkpt lat="34.8587039" lon="134.0796323"><ele>101.0</ele><time>2026-08-11T04:33:05Z</time></trkpt>
<trkpt lat="34.8587253" lon="134.0796394"><ele>101.0</ele><time>2026-08-11T04:33:06Z</time></trkpt>
<trkpt lat="34.8587435" lon="134.0796479"><ele>102.0</ele><time>2026-08-11T04:33:07Z</time></trkpt>
<trkpt lat="34.8587618" lon="134.0796564"><ele>102.0</ele><time>2026-08-11T04:33:08Z</time></trkpt>
<trkpt lat="34.8587759" lon="134.0796679"><ele>103.0</ele><time>2026-08-11T04:33:09Z</time></trkpt>
<trkpt lat="34.8587901" lon="134.0796795"><ele>103.0</ele><time>2026-08-11T04:33:10Z</time></trkpt>
<trkpt lat="34.858803" lon="134.0796953"><ele>103.0</ele><time>2026-08-11T04:33:11Z</time></trkpt>
<trkpt lat="34.8588159" lon="134.0797111"><ele>104.0</ele><time>2026-08-11T04:33:12Z</time></trkpt>
<trkpt lat="34.8588302" lon="134.0797271"><ele>104.0</ele><time>2026-08-11T04:33:13Z</time></trkpt>
<trkpt lat="34.8588446" lon="134.0797432"><ele>105.0</ele><time>2026-08-11T04:33:14Z</time></trkpt>
<trkpt lat="34.8588609" lon="134.0797541"><ele>105.0</ele><time>2026-08-11T04:33:15Z</time></trkpt>
<trkpt lat="34.8588772" lon="134.0797651"><ele>106.0</ele><time>2026-08-11T04:33:16Z</time></trkpt>
<trkpt lat="34.8588919" lon="134.0797732"><ele>106.0</ele><time>2026-08-11T04:33:17Z</time></trkpt>
<trkpt lat="34.8589067" lon="134.0797813"><ele>107.0</ele><time>2026-08-11T04:33:18Z</time></trkpt>
<trkpt lat="34.8589201" lon="134.0797902"><ele>108.0</ele><time>2026-08-11T04:33:19Z</time></trkpt>
<trkpt lat="34.8589336" lon="134.0797992"><ele>108.0</ele><time>2026-08-11T04:33:20Z</time></trkpt>
<trkpt lat="34.8589463" lon="134.0798096"><ele>108.0</ele><time>2026-08-11T04:33:21Z</time></trkpt>
<trkpt lat="34.8589591" lon="134.07982"><ele>109.0</ele><time>2026-08-11T04:33:22Z</time></trkpt>
<trkpt lat="34.8589732" lon="134.0798313"><ele>109.0</ele><time>2026-08-11T04:33:23Z</time></trkpt>
<trkpt lat="34.8589873" lon="134.0798426"><ele>110.0</ele><time>2026-08-11T04:33:24Z</time></trkpt>
<trkpt lat="34.8590021" lon="134.0798526"><ele>110.0</ele><time>2026-08-11T04:33:25Z</time></trkpt>
<trkpt lat="34.8590169" lon="134.0798626"><ele>110.0</ele><time>2026-08-11T04:33:26Z</time></trkpt>
<trkpt lat="34.859032" lon="134.0798716"><ele>111.0</ele><time>2026-08-11T04:33:27Z</time></trkpt>
<trkpt lat="34.8590471" lon="134.0798806"><ele>111.0</ele><time>2026-08-11T04:33:28Z</time></trkpt>
<trkpt lat="34.8590611" lon="134.0798896"><ele>112.0</ele><time>2026-08-11T04:33:29Z</time></trkpt>
<trkpt lat="34.8590752" lon="134.0798986"><ele>112.0</ele><time>2026-08-11T04:33:30Z</time></trkpt>
<trkpt lat="34.8590881" lon="134.079908"><ele>112.0</ele><time>2026-08-11T04:33:31Z</time></trkpt>
<trkpt lat="34.859101" lon="134.0799174"><ele>113.0</ele><time>2026-08-11T04:33:32Z</time></trkpt>
<trkpt lat="34.8591138" lon="134.0799255"><ele>113.0</ele><time>2026-08-11T04:33:33Z</time></trkpt>
<trkpt lat="34.8591266" lon="134.0799336"><ele>114.0</ele><time>2026-08-11T04:33:34Z</time></trkpt>
<trkpt lat="34.8591406" lon="134.0799394"><ele>114.0</ele><time>2026-08-11T04:33:35Z</time></trkpt>
<trkpt lat="34.8591546" lon="134.0799453"><ele>114.0</ele><time>2026-08-11T04:33:36Z</time></trkpt>
<trkpt lat="34.85917" lon="134.0799511"><ele>115.0</ele><time>2026-08-11T04:33:37Z</time></trkpt>
<trkpt lat="34.8591855" lon="134.079957"><ele>115.0</ele><time>2026-08-11T04:33:38Z</time></trkpt>
<trkpt lat="34.8592006" lon="134.0799602"><ele>116.0</ele><time>2026-08-11T04:33:39Z</time></trkpt>
<trkpt lat="34.8592158" lon="134.0799634"><ele>116.0</ele><time>2026-08-11T04:33:40Z</time></trkpt>
<trkpt lat="34.859231" lon="134.0799638"><ele>116.0</ele><time>2026-08-11T04:33:41Z</time></trkpt>
<trkpt lat="34.8592463" lon="134.0799643"><ele>117.0</ele><time>2026-08-11T04:33:42Z</time></trkpt>
<trkpt lat="34.8592616" lon="134.0799642"><ele>117.0</ele><time>2026-08-11T04:33:43Z</time></trkpt>
<trkpt lat="34.859277" lon="134.0799641"><ele>118.0</ele><time>2026-08-11T04:33:44Z</time></trkpt>
<trkpt lat="34.859294" lon="134.079961"><ele>118.0</ele><time>2026-08-11T04:33:45Z</time></trkpt>
<trkpt lat="34.8593111" lon="134.079958"><ele>118.0</ele><time>2026-08-11T04:33:46Z</time></trkpt>
<trkpt lat="34.8593292" lon="134.0799556"><ele>119.0</ele><time>2026-08-11T04:33:47Z</time></trkpt>
<trkpt lat="34.8593474" lon="134.0799532"><ele>119.0</ele><time>2026-08-11T04:33:48Z</time></trkpt>
<trkpt lat="34.8593664" lon="134.0799558"><ele>120.0</ele><time>2026-08-11T04:33:49Z</time></trkpt>
<trkpt lat="34.8593854" lon="134.0799585"><ele>120.0</ele><time>2026-08-11T04:33:50Z</time></trkpt>
<trkpt lat="34.8594033" lon="134.0799662"><ele>120.0</ele><time>2026-08-11T04:33:51Z</time></trkpt>
<trkpt lat="34.8594213" lon="134.0799739"><ele>120.0</ele><time>2026-08-11T04:33:52Z</time></trkpt>
<trkpt lat="34.8594367" lon="134.0799841"><ele>120.0</ele><time>2026-08-11T04:33:53Z</time></trkpt>
<trkpt lat="34.8594521" lon="134.0799944"><ele>121.0</ele><time>2026-08-11T04:33:54Z</time></trkpt>
<trkpt lat="34.859466" lon="134.0800012"><ele>121.0</ele><time>2026-08-11T04:33:55Z</time></trkpt>
<trkpt lat="34.8594799" lon="134.0800081"><ele>121.0</ele><time>2026-08-11T04:33:56Z</time></trkpt>
<trkpt lat="34.8594945" lon="134.080012"><ele>122.0</ele><time>2026-08-11T04:33:57Z</time></trkpt>
<trkpt lat="34.8595091" lon="134.0800159"><ele>122.0</ele><time>2026-08-11T04:33:58Z</time></trkpt>
<trkpt lat="34.8595257" lon="134.0800207"><ele>123.0</ele><time>2026-08-11T04:33:59Z</time></trkpt>
<trkpt lat="34.8595423" lon="134.0800256"><ele>123.0</ele><time>2026-08-11T04:34:00Z</time></trkpt>
<trkpt lat="34.8595606" lon="134.0800317"><ele>123.0</ele><time>2026-08-11T04:34:01Z</time></trkpt>
<trkpt lat="34.8595789" lon="134.0800379"><ele>123.0</ele><time>2026-08-11T04:34:02Z</time></trkpt>
<trkpt lat="34.8595966" lon="134.0800453"><ele>123.0</ele><time>2026-08-11T04:34:03Z</time></trkpt>
<trkpt lat="34.8596144" lon="134.0800527"><ele>124.0</ele><time>2026-08-11T04:34:04Z</time></trkpt>
<trkpt lat="34.8596295" lon="134.0800596"><ele>124.0</ele><time>2026-08-11T04:34:05Z</time></trkpt>
<trkpt lat="34.8596446" lon="134.0800666"><ele>124.0</ele><time>2026-08-11T04:34:06Z</time></trkpt>
<trkpt lat="34.8596588" lon="134.0800739"><ele>125.0</ele><time>2026-08-11T04:34:07Z</time></trkpt>
<trkpt lat="34.8596731" lon="134.0800813"><ele>125.0</ele><time>2026-08-11T04:34:08Z</time></trkpt>
<trkpt lat="34.859687" lon="134.0800891"><ele>126.0</ele><time>2026-08-11T04:34:09Z</time></trkpt>
<trkpt lat="34.859701" lon="134.080097"><ele>126.0</ele><time>2026-08-11T04:34:10Z</time></trkpt>
<trkpt lat="34.859715" lon="134.0801045"><ele>126.0</ele><time>2026-08-11T04:34:11Z</time></trkpt>
<trkpt lat="34.859729" lon="134.0801121"><ele>126.0</ele><time>2026-08-11T04:34:12Z</time></trkpt>
<trkpt lat="34.859743" lon="134.0801195"><ele>126.0</ele><time>2026-08-11T04:34:13Z</time></trkpt>
<trkpt lat="34.8597571" lon="134.0801269"><ele>127.0</ele><time>2026-08-11T04:34:14Z</time></trkpt>
<trkpt lat="34.8597703" lon="134.0801356"><ele>127.0</ele><time>2026-08-11T04:34:15Z</time></trkpt>
<trkpt lat="34.8597835" lon="134.0801443"><ele>127.0</ele><time>2026-08-11T04:34:16Z</time></trkpt>
<trkpt lat="34.8597955" lon="134.0801535"><ele>127.0</ele><time>2026-08-11T04:34:17Z</time></trkpt>
<trkpt lat="34.8598076" lon="134.0801628"><ele>127.0</ele><time>2026-08-11T04:34:18Z</time></trkpt>
<trkpt lat="34.8598197" lon="134.0801747"><ele>128.0</ele><time>2026-08-11T04:34:19Z</time></trkpt>
<trkpt lat="34.8598318" lon="134.0801867"><ele>128.0</ele><time>2026-08-11T04:34:20Z</time></trkpt>
<trkpt lat="34.8598449" lon="134.0801984"><ele>128.0</ele><time>2026-08-11T04:34:21Z</time></trkpt>
<trkpt lat="34.859858" lon="134.0802102"><ele>128.0</ele><time>2026-08-11T04:34:22Z</time></trkpt>
<trkpt lat="34.8598709" lon="134.080222"><ele>128.0</ele><time>2026-08-11T04:34:23Z</time></trkpt>
<trkpt lat="34.8598839" lon="134.0802339"><ele>129.0</ele><time>2026-08-11T04:34:24Z</time></trkpt>
<trkpt lat="34.8598962" lon="134.080249"><ele>129.0</ele><time>2026-08-11T04:34:25Z</time></trkpt>
<trkpt lat="34.8599086" lon="134.0802642"><ele>129.0</ele><time>2026-08-11T04:34:26Z</time></trkpt>
<trkpt lat="34.8599194" lon="134.0802808"><ele>129.0</ele><time>2026-08-11T04:34:27Z</time></trkpt>
<trkpt lat="34.8599303" lon="134.0802974"><ele>129.0</ele><time>2026-08-11T04:34:28Z</time></trkpt>
<trkpt lat="34.85994" lon="134.0803122"><ele>130.0</ele><time>2026-08-11T04:34:29Z</time></trkpt>
<trkpt lat="34.8599498" lon="134.0803271"><ele>130.0</ele><time>2026-08-11T04:34:30Z</time></trkpt>
<trkpt lat="34.859959" lon="134.0803413"><ele>130.0</ele><time>2026-08-11T04:34:31Z</time></trkpt>
<trkpt lat="34.8599682" lon="134.0803556"><ele>130.0</ele><time>2026-08-11T04:34:32Z</time></trkpt>
<trkpt lat="34.8599785" lon="134.0803735"><ele>130.0</ele><time>2026-08-11T04:34:33Z</time></trkpt>
<trkpt lat="34.8599888" lon="134.0803915"><ele>131.0</ele><time>2026-08-11T04:34:34Z</time></trkpt>
<trkpt lat="34.8600001" lon="134.0804098"><ele>131.0</ele><time>2026-08-11T04:34:35Z</time></trkpt>
<trkpt lat="34.8600115" lon="134.0804282"><ele>131.0</ele><time>2026-08-11T04:34:36Z</time></trkpt>
<trkpt lat="34.8600242" lon="134.0804438"><ele>132.0</ele><time>2026-08-11T04:34:37Z</time></trkpt>
<trkpt lat="34.860037" lon="134.0804595"><ele>132.0</ele><time>2026-08-11T04:34:38Z</time></trkpt>
<trkpt lat="34.8600503" lon="134.0804717"><ele>133.0</ele><time>2026-08-11T04:34:39Z</time></trkpt>
<trkpt lat="34.8600636" lon="134.0804839"><ele>133.0</ele><time>2026-08-11T04:34:40Z</time></trkpt>
<trkpt lat="34.8600768" lon="134.0804941"><ele>133.0</ele><time>2026-08-11T04:34:41Z</time></trkpt>
<trkpt lat="34.86009" lon="134.0805043"><ele>133.0</ele><time>2026-08-11T04:34:42Z</time></trkpt>
<trkpt lat="34.8601026" lon="134.0805114"><ele>133.0</ele><time>2026-08-11T04:34:43Z</time></trkpt>
<trkpt lat="34.8601152" lon="134.0805186"><ele>134.0</ele><time>2026-08-11T04:34:44Z</time></trkpt>
<trkpt lat="34.8601294" lon="134.0805241"><ele>134.0</ele><time>2026-08-11T04:34:45Z</time></trkpt>
<trkpt lat="34.8601436" lon="134.0805296"><ele>134.0</ele><time>2026-08-11T04:34:46Z</time></trkpt>
<trkpt lat="34.8601606" lon="134.0805336"><ele>135.0</ele><time>2026-08-11T04:34:47Z</time></trkpt>
<trkpt lat="34.8601776" lon="134.0805376"><ele>135.0</ele><time>2026-08-11T04:34:48Z</time></trkpt>
<trkpt lat="34.8601965" lon="134.0805408"><ele>136.0</ele><time>2026-08-11T04:34:49Z</time></trkpt>
<trkpt lat="34.8602154" lon="134.080544"><ele>136.0</ele><time>2026-08-11T04:34:50Z</time></trkpt>
<trkpt lat="34.8602341" lon="134.0805479"><ele>136.0</ele><time>2026-08-11T04:34:51Z</time></trkpt>
<trkpt lat="34.8602529" lon="134.0805518"><ele>136.0</ele><time>2026-08-11T04:34:52Z</time></trkpt>
<trkpt lat="34.8602721" lon="134.0805568"><ele>136.0</ele><time>2026-08-11T04:34:53Z</time></trkpt>
<trkpt lat="34.8602914" lon="134.0805619"><ele>137.0</ele><time>2026-08-11T04:34:54Z</time></trkpt>
<trkpt lat="34.8603093" lon="134.0805725"><ele>137.0</ele><time>2026-08-11T04:34:55Z</time></trkpt>
<trkpt lat="34.8603272" lon="134.0805831"><ele>137.0</ele><time>2026-08-11T04:34:56Z</time></trkpt>
<trkpt lat="34.8603436" lon="134.0806003"><ele>137.0</ele><time>2026-08-11T04:34:57Z</time></trkpt>
<trkpt lat="34.8603601" lon="134.0806176"><ele>137.0</ele><time>2026-08-11T04:34:58Z</time></trkpt>
<trkpt lat="34.8603759" lon="134.0806354"><ele>138.0</ele><time>2026-08-11T04:34:59Z</time></trkpt>
<trkpt lat="34.8603918" lon="134.0806532"><ele>138.0</ele><time>2026-08-11T04:35:00Z</time></trkpt>
<trkpt lat="34.8604078" lon="134.0806695"><ele>138.0</ele><time>2026-08-11T04:35:01Z</time></trkpt>
<trkpt lat="34.8604239" lon="134.0806859"><ele>138.0</ele><time>2026-08-11T04:35:02Z</time></trkpt>
<trkpt lat="34.8604388" lon="134.0807042"><ele>138.0</ele><time>2026-08-11T04:35:03Z</time></trkpt>
<trkpt lat="34.8604538" lon="134.0807225"><ele>138.0</ele><time>2026-08-11T04:35:04Z</time></trkpt>
<trkpt lat="34.8604673" lon="134.0807427"><ele>138.0</ele><time>2026-08-11T04:35:05Z</time></trkpt>
<trkpt lat="34.8604808" lon="134.0807629"><ele>138.0</ele><time>2026-08-11T04:35:06Z</time></trkpt>
<trkpt lat="34.8604932" lon="134.0807832"><ele>138.0</ele><time>2026-08-11T04:35:07Z</time></trkpt>
<trkpt lat="34.8605056" lon="134.0808036"><ele>138.0</ele><time>2026-08-11T04:35:08Z</time></trkpt>
<trkpt lat="34.8605175" lon="134.0808228"><ele>139.0</ele><time>2026-08-11T04:35:09Z</time></trkpt>
<trkpt lat="34.8605294" lon="134.0808421"><ele>139.0</ele><time>2026-08-11T04:35:10Z</time></trkpt>
<trkpt lat="34.8605432" lon="134.0808622"><ele>139.0</ele><time>2026-08-11T04:35:11Z</time></trkpt>
<trkpt lat="34.860557" lon="134.0808824"><ele>139.0</ele><time>2026-08-11T04:35:12Z</time></trkpt>
<trkpt lat="34.8605746" lon="134.080899"><ele>139.0</ele><time>2026-08-11T04:35:13Z</time></trkpt>
<trkpt lat="34.8605922" lon="134.0809156"><ele>140.0</ele><time>2026-08-11T04:35:14Z</time></trkpt>
<trkpt lat="34.8606117" lon="134.0809294"><ele>140.0</ele><time>2026-08-11T04:35:15Z</time></trkpt>
<trkpt lat="34.8606313" lon="134.0809432"><ele>140.0</ele><time>2026-08-11T04:35:16Z</time></trkpt>
<trkpt lat="34.8606503" lon="134.0809553"><ele>140.0</ele><time>2026-08-11T04:35:17Z</time></trkpt>
<trkpt lat="34.8606693" lon="134.0809675"><ele>140.0</ele><time>2026-08-11T04:35:18Z</time></trkpt>
<trkpt lat="34.8606874" lon="134.0809752"><ele>141.0</ele><time>2026-08-11T04:35:19Z</time></trkpt>
<trkpt lat="34.8607055" lon="134.0809829"><ele>141.0</ele><time>2026-08-11T04:35:20Z</time></trkpt>
<trkpt lat="34.8607235" lon="134.0809873"><ele>141.0</ele><time>2026-08-11T04:35:21Z</time></trkpt>
<trkpt lat="34.8607415" lon="134.0809917"><ele>141.0</ele><time>2026-08-11T04:35:22Z</time></trkpt>
<trkpt lat="34.8607602" lon="134.0809967"><ele>141.0</ele><time>2026-08-11T04:35:23Z</time></trkpt>
<trkpt lat="34.8607789" lon="134.0810017"><ele>142.0</ele><time>2026-08-11T04:35:24Z</time></trkpt>
<trkpt lat="34.8607979" lon="134.0810099"><ele>142.0</ele><time>2026-08-11T04:35:25Z</time></trkpt>
<trkpt lat="34.860817" lon="134.0810181"><ele>142.0</ele><time>2026-08-11T04:35:26Z</time></trkpt>
<trkpt lat="34.8608344" lon="134.0810288"><ele>143.0</ele><time>2026-08-11T04:35:27Z</time></trkpt>
<trkpt lat="34.8608518" lon="134.0810396"><ele>143.0</ele><time>2026-08-11T04:35:28Z</time></trkpt>
<trkpt lat="34.8608662" lon="134.0810529"><ele>144.0</ele><time>2026-08-11T04:35:29Z</time></trkpt>
<trkpt lat="34.8608806" lon="134.0810662"><ele>144.0</ele><time>2026-08-11T04:35:30Z</time></trkpt>
<trkpt lat="34.8608946" lon="134.0810818"><ele>144.0</ele><time>2026-08-11T04:35:31Z</time></trkpt>
<trkpt lat="34.8609086" lon="134.0810975"><ele>144.0</ele><time>2026-08-11T04:35:32Z</time></trkpt>
<trkpt lat="34.8609243" lon="134.0811128"><ele>144.0</ele><time>2026-08-11T04:35:33Z</time></trkpt>
<trkpt lat="34.8609401" lon="134.0811282"><ele>145.0</ele><time>2026-08-11T04:35:34Z</time></trkpt>
<trkpt lat="34.8609559" lon="134.0811414"><ele>145.0</ele><time>2026-08-11T04:35:35Z</time></trkpt>
<trkpt lat="34.8609718" lon="134.0811546"><ele>145.0</ele><time>2026-08-11T04:35:36Z</time></trkpt>
<trkpt lat="34.8609895" lon="134.0811682"><ele>145.0</ele><time>2026-08-11T04:35:37Z</time></trkpt>
<trkpt lat="34.8610072" lon="134.0811818"><ele>145.0</ele><time>2026-08-11T04:35:38Z</time></trkpt>
<trkpt lat="34.8610251" lon="134.0811945"><ele>146.0</ele><time>2026-08-11T04:35:39Z</time></trkpt>
<trkpt lat="34.8610431" lon="134.0812073"><ele>146.0</ele><time>2026-08-11T04:35:40Z</time></trkpt>
<trkpt lat="34.8610613" lon="134.0812202"><ele>146.0</ele><time>2026-08-11T04:35:41Z</time></trkpt>
<trkpt lat="34.8610796" lon="134.0812332"><ele>147.0</ele><time>2026-08-11T04:35:42Z</time></trkpt>
<trkpt lat="34.8610973" lon="134.081246"><ele>147.0</ele><time>2026-08-11T04:35:43Z</time></trkpt>
<trkpt lat="34.861115" lon="134.0812589"><ele>148.0</ele><time>2026-08-11T04:35:44Z</time></trkpt>
<trkpt lat="34.8611315" lon="134.0812727"><ele>148.0</ele><time>2026-08-11T04:35:45Z</time></trkpt>
<trkpt lat="34.861148" lon="134.0812866"><ele>148.0</ele><time>2026-08-11T04:35:46Z</time></trkpt>
<trkpt lat="34.86118" lon="134.0813131"><ele>148.0</ele><time>2026-08-11T04:35:47Z</time></trkpt>
<trkpt lat="34.861212" lon="134.0813397"><ele>148.0</ele><time>2026-08-11T04:35:48Z</time></trkpt>
<trkpt lat="34.861244" lon="134.0813663"><ele>149.0</ele><time>2026-08-11T04:35:49Z</time></trkpt>
<trkpt lat="34.8612455" lon="134.0812688"><ele>151.0</ele><time>2026-08-11T04:36:10Z</time></trkpt>
<trkpt lat="34.8612464" lon="134.081278"><ele>151.0</ele><time>2026-08-11T04:36:11Z</time></trkpt>
<trkpt lat="34.8612473" lon="134.0812872"><ele>151.0</ele><time>2026-08-11T04:36:12Z</time></trkpt>
<trkpt lat="34.8612505" lon="134.0813002"><ele>151.0</ele><time>2026-08-11T04:36:13Z</time></trkpt>
<trkpt lat="34.8612537" lon="134.0813133"><ele>151.0</ele><time>2026-08-11T04:36:14Z</time></trkpt>
<trkpt lat="34.8612581" lon="134.0813296"><ele>151.0</ele><time>2026-08-11T04:36:15Z</time></trkpt>
<trkpt lat="34.8612626" lon="134.0813459"><ele>151.0</ele><time>2026-08-11T04:36:16Z</time></trkpt>
<trkpt lat="34.8612637" lon="134.081352"><ele>151.0</ele><time>2026-08-11T04:36:17Z</time></trkpt>
<trkpt lat="34.8612648" lon="134.0813582"><ele>151.0</ele><time>2026-08-11T04:36:18Z</time></trkpt>
<trkpt lat="34.861266" lon="134.0813644"><ele>151.0</ele><time>2026-08-11T04:36:19Z</time></trkpt>
<trkpt lat="34.8612671" lon="134.0813706"><ele>151.0</ele><time>2026-08-11T04:36:20Z</time></trkpt>
<trkpt lat="34.8612683" lon="134.0813768"><ele>151.0</ele><time>2026-08-11T04:36:21Z</time></trkpt>
<trkpt lat="34.8612663" lon="134.081386"><ele>151.0</ele><time>2026-08-11T04:36:22Z</time></trkpt>
<trkpt lat="34.8612643" lon="134.0813952"><ele>151.0</ele><time>2026-08-11T04:36:23Z</time></trkpt>
<trkpt lat="34.8612622" lon="134.0814049"><ele>152.0</ele><time>2026-08-11T04:36:24Z</time></trkpt>
<trkpt lat="34.8612602" lon="134.0814146"><ele>152.0</ele><time>2026-08-11T04:36:25Z</time></trkpt>
<trkpt lat="34.861261" lon="134.0814214"><ele>152.0</ele><time>2026-08-11T04:36:26Z</time></trkpt>
<trkpt lat="34.8612618" lon="134.0814282"><ele>152.0</ele><time>2026-08-11T04:36:27Z</time></trkpt>
<trkpt lat="34.8612626" lon="134.0814351"><ele>152.0</ele><time>2026-08-11T04:36:28Z</time></trkpt>
<trkpt lat="34.8612623" lon="134.0814376"><ele>153.0</ele><time>2026-08-11T04:36:29Z</time></trkpt>
<trkpt lat="34.8612621" lon="134.0814401"><ele>153.0</ele><time>2026-08-11T04:36:30Z</time></trkpt>
<trkpt lat="34.8612619" lon="134.0814426"><ele>153.0</ele><time>2026-08-11T04:36:31Z</time></trkpt>
<trkpt lat="34.8612617" lon="134.0814451"><ele>153.0</ele><time>2026-08-11T04:36:32Z</time></trkpt>
<trkpt lat="34.8612615" lon="134.0814477"><ele>153.0</ele><time>2026-08-11T04:36:33Z</time></trkpt>
<trkpt lat="34.8612617" lon="134.0814555"><ele>153.0</ele><time>2026-08-11T04:36:34Z</time></trkpt>
<trkpt lat="34.861262" lon="134.0814634"><ele>153.0</ele><time>2026-08-11T04:36:35Z</time></trkpt>
<trkpt lat="34.8612602" lon="134.0814735"><ele>153.0</ele><time>2026-08-11T04:36:36Z</time></trkpt>
<trkpt lat="34.8612584" lon="134.0814837"><ele>153.0</ele><time>2026-08-11T04:36:37Z</time></trkpt>
<trkpt lat="34.8612491" lon="134.0814943"><ele>153.0</ele><time>2026-08-11T04:36:38Z</time></trkpt>
<trkpt lat="34.8612399" lon="134.0815049"><ele>153.0</ele><time>2026-08-11T04:36:39Z</time></trkpt>
<trkpt lat="34.8612279" lon="134.08151"><ele>152.0</ele><time>2026-08-11T04:36:40Z</time></trkpt>
<trkpt lat="34.8612159" lon="134.0815151"><ele>152.0</ele><time>2026-08-11T04:36:41Z</time></trkpt>
<trkpt lat="34.8612128" lon="134.0815148"><ele>152.0</ele><time>2026-08-11T04:36:42Z</time></trkpt>
<trkpt lat="34.8612097" lon="134.0815146"><ele>152.0</ele><time>2026-08-11T04:36:43Z</time></trkpt>
<trkpt lat="34.8612066" lon="134.0815144"><ele>152.0</ele><time>2026-08-11T04:36:44Z</time></trkpt>
<trkpt lat="34.8612036" lon="134.0815142"><ele>152.0</ele><time>2026-08-11T04:36:45Z</time></trkpt>
<trkpt lat="34.8611988" lon="134.0815026"><ele>152.0</ele><time>2026-08-11T04:36:46Z</time></trkpt>
<trkpt lat="34.8611941" lon="134.081491"><ele>152.0</ele><time>2026-08-11T04:36:47Z</time></trkpt>
<trkpt lat="34.8611906" lon="134.0814739"><ele>152.0</ele><time>2026-08-11T04:36:48Z</time></trkpt>
<trkpt lat="34.8611872" lon="134.0814569"><ele>152.0</ele><time>2026-08-11T04:36:49Z</time></trkpt>
<trkpt lat="34.8611817" lon="134.081444"><ele>151.0</ele><time>2026-08-11T04:36:50Z</time></trkpt>
<trkpt lat="34.8611763" lon="134.0814312"><ele>151.0</ele><time>2026-08-11T04:36:51Z</time></trkpt>
<trkpt lat="34.8611708" lon="134.0814267"><ele>151.0</ele><time>2026-08-11T04:36:52Z</time></trkpt>
<trkpt lat="34.8611653" lon="134.0814223"><ele>151.0</ele><time>2026-08-11T04:36:53Z</time></trkpt>
<trkpt lat="34.8611591" lon="134.0814248"><ele>151.0</ele><time>2026-08-11T04:36:54Z</time></trkpt>
<trkpt lat="34.861153" lon="134.0814274"><ele>151.0</ele><time>2026-08-11T04:36:55Z</time></trkpt>
<trkpt lat="34.8611463" lon="134.0814306"><ele>151.0</ele><time>2026-08-11T04:36:56Z</time></trkpt>
<trkpt lat="34.8611396" lon="134.0814338"><ele>151.0</ele><time>2026-08-11T04:36:57Z</time></trkpt>
<trkpt lat="34.8611279" lon="134.0814294"><ele>152.0</ele><time>2026-08-11T04:37:06Z</time></trkpt>
<trkpt lat="34.8611233" lon="134.081426"><ele>152.0</ele><time>2026-08-11T04:37:07Z</time></trkpt>
<trkpt lat="34.8611188" lon="134.0814227"><ele>152.0</ele><time>2026-08-11T04:37:08Z</time></trkpt>
<trkpt lat="34.8611129" lon="134.0814199"><ele>153.0</ele><time>2026-08-11T04:37:09Z</time></trkpt>
<trkpt lat="34.861107" lon="134.0814172"><ele>153.0</ele><time>2026-08-11T04:37:10Z</time></trkpt>
<trkpt lat="34.8610999" lon="134.0814125"><ele>153.0</ele><time>2026-08-11T04:37:11Z</time></trkpt>
<trkpt lat="34.8610928" lon="134.0814079"><ele>153.0</ele><time>2026-08-11T04:37:12Z</time></trkpt>
<trkpt lat="34.861085" lon="134.0814026"><ele>153.0</ele><time>2026-08-11T04:37:13Z</time></trkpt>
<trkpt lat="34.8610772" lon="134.0813974"><ele>154.0</ele><time>2026-08-11T04:37:14Z</time></trkpt>
<trkpt lat="34.8610615" lon="134.0813918"><ele>158.0</ele><time>2026-08-11T04:37:23Z</time></trkpt>
<trkpt lat="34.8610511" lon="134.0813905"><ele>159.0</ele><time>2026-08-11T04:37:24Z</time></trkpt>
<trkpt lat="34.8610407" lon="134.0813893"><ele>159.0</ele><time>2026-08-11T04:37:25Z</time></trkpt>
<trkpt lat="34.8610315" lon="134.0813924"><ele>159.0</ele><time>2026-08-11T04:37:26Z</time></trkpt>
<trkpt lat="34.8610223" lon="134.0813955"><ele>160.0</ele><time>2026-08-11T04:37:27Z</time></trkpt>
<trkpt lat="34.861012" lon="134.0813988"><ele>160.0</ele><time>2026-08-11T04:37:28Z</time></trkpt>
<trkpt lat="34.8610018" lon="134.0814022"><ele>161.0</ele><time>2026-08-11T04:37:29Z</time></trkpt>
<trkpt lat="34.8609914" lon="134.0814087"><ele>161.0</ele><time>2026-08-11T04:37:30Z</time></trkpt>
<trkpt lat="34.860981" lon="134.0814152"><ele>161.0</ele><time>2026-08-11T04:37:31Z</time></trkpt>
<trkpt lat="34.860972" lon="134.0814226"><ele>162.0</ele><time>2026-08-11T04:37:32Z</time></trkpt>
<trkpt lat="34.860963" lon="134.08143"><ele>162.0</ele><time>2026-08-11T04:37:33Z</time></trkpt>
<trkpt lat="34.8609543" lon="134.0814324"><ele>163.0</ele><time>2026-08-11T04:37:34Z</time></trkpt>
<trkpt lat="34.8609457" lon="134.0814349"><ele>163.0</ele><time>2026-08-11T04:37:35Z</time></trkpt>
<trkpt lat="34.8609365" lon="134.081436"><ele>163.0</ele><time>2026-08-11T04:37:36Z</time></trkpt>
<trkpt lat="34.8609273" lon="134.0814372"><ele>164.0</ele><time>2026-08-11T04:37:37Z</time></trkpt>
<trkpt lat="34.8609059" lon="134.0814437"><ele>166.0</ele><time>2026-08-11T04:37:43Z</time></trkpt>
<trkpt lat="34.8608988" lon="134.0814468"><ele>167.0</ele><time>2026-08-11T04:37:44Z</time></trkpt>
<trkpt lat="34.8608917" lon="134.08145"><ele>167.0</ele><time>2026-08-11T04:37:45Z</time></trkpt>
<trkpt lat="34.8608864" lon="134.0814528"><ele>167.0</ele><time>2026-08-11T04:37:46Z</time></trkpt>
<trkpt lat="34.8608812" lon="134.0814556"><ele>168.0</ele><time>2026-08-11T04:37:47Z</time></trkpt>
<trkpt lat="34.860878" lon="134.0814596"><ele>168.0</ele><time>2026-08-11T04:37:48Z</time></trkpt>
<trkpt lat="34.8608749" lon="134.0814637"><ele>169.0</ele><time>2026-08-11T04:37:49Z</time></trkpt>
<trkpt lat="34.8608718" lon="134.0814678"><ele>169.0</ele><time>2026-08-11T04:37:50Z</time></trkpt>
<trkpt lat="34.8608697" lon="134.0814727"><ele>169.0</ele><time>2026-08-11T04:37:51Z</time></trkpt>
<trkpt lat="34.8608676" lon="134.0814776"><ele>169.0</ele><time>2026-08-11T04:37:52Z</time></trkpt>
<trkpt lat="34.8608666" lon="134.0814811"><ele>169.0</ele><time>2026-08-11T04:37:53Z</time></trkpt>
<trkpt lat="34.8608656" lon="134.0814847"><ele>170.0</ele><time>2026-08-11T04:37:54Z</time></trkpt>
<trkpt lat="34.8608647" lon="134.0814882"><ele>170.0</ele><time>2026-08-11T04:37:55Z</time></trkpt>
<trkpt lat="34.8608637" lon="134.0814918"><ele>170.0</ele><time>2026-08-11T04:37:56Z</time></trkpt>
<trkpt lat="34.8608628" lon="134.0814954"><ele>171.0</ele><time>2026-08-11T04:37:57Z</time></trkpt>
<trkpt lat="34.8608601" lon="134.0815055"><ele>171.0</ele><time>2026-08-11T04:37:58Z</time></trkpt>
<trkpt lat="34.8608574" lon="134.0815157"><ele>172.0</ele><time>2026-08-11T04:37:59Z</time></trkpt>
<trkpt lat="34.8608537" lon="134.0815296"><ele>172.0</ele><time>2026-08-11T04:38:00Z</time></trkpt>
<trkpt lat="34.8608501" lon="134.0815435"><ele>172.0</ele><time>2026-08-11T04:38:01Z</time></trkpt>
<trkpt lat="34.8608459" lon="134.0815567"><ele>173.0</ele><time>2026-08-11T04:38:02Z</time></trkpt>
<trkpt lat="34.8608417" lon="134.0815699"><ele>173.0</ele><time>2026-08-11T04:38:03Z</time></trkpt>
<trkpt lat="34.8608369" lon="134.081574"><ele>174.0</ele><time>2026-08-11T04:38:04Z</time></trkpt>
<trkpt lat="34.8608321" lon="134.0815781"><ele>174.0</ele><time>2026-08-11T04:38:05Z</time></trkpt>
<trkpt lat="34.8608268" lon="134.081572"><ele>174.0</ele><time>2026-08-11T04:38:06Z</time></trkpt>
<trkpt lat="34.8608216" lon="134.081566"><ele>174.0</ele><time>2026-08-11T04:38:07Z</time></trkpt>
<trkpt lat="34.8608195" lon="134.0815633"><ele>174.0</ele><time>2026-08-11T04:38:08Z</time></trkpt>
<trkpt lat="34.8608174" lon="134.0815606"><ele>175.0</ele><time>2026-08-11T04:38:09Z</time></trkpt>
<trkpt lat="34.8608153" lon="134.0815579"><ele>175.0</ele><time>2026-08-11T04:38:10Z</time></trkpt>
<trkpt lat="34.8608133" lon="134.0815553"><ele>175.0</ele><time>2026-08-11T04:38:11Z</time></trkpt>
<trkpt lat="34.8608071" lon="134.0815489"><ele>175.0</ele><time>2026-08-11T04:38:12Z</time></trkpt>
<trkpt lat="34.8608009" lon="134.0815426"><ele>175.0</ele><time>2026-08-11T04:38:13Z</time></trkpt>
<trkpt lat="34.8607954" lon="134.081541"><ele>176.0</ele><time>2026-08-11T04:38:14Z</time></trkpt>
<trkpt lat="34.86079" lon="134.0815395"><ele>176.0</ele><time>2026-08-11T04:38:15Z</time></trkpt>
<trkpt lat="34.8607842" lon="134.0815435"><ele>176.0</ele><time>2026-08-11T04:38:16Z</time></trkpt>
<trkpt lat="34.8607784" lon="134.0815475"><ele>177.0</ele><time>2026-08-11T04:38:17Z</time></trkpt>
<trkpt lat="34.860771" lon="134.0815533"><ele>177.0</ele><time>2026-08-11T04:38:18Z</time></trkpt>
<trkpt lat="34.8607637" lon="134.0815591"><ele>178.0</ele><time>2026-08-11T04:38:19Z</time></trkpt>
<trkpt lat="34.8607564" lon="134.0815636"><ele>178.0</ele><time>2026-08-11T04:38:20Z</time></trkpt>
<trkpt lat="34.8607492" lon="134.0815682"><ele>178.0</ele><time>2026-08-11T04:38:21Z</time></trkpt>
<trkpt lat="34.8607447" lon="134.0815712"><ele>178.0</ele><time>2026-08-11T04:38:22Z</time></trkpt>
<trkpt lat="34.8607402" lon="134.0815743"><ele>178.0</ele><time>2026-08-11T04:38:23Z</time></trkpt>
<trkpt lat="34.8607403" lon="134.0815781"><ele>179.0</ele><time>2026-08-11T04:38:24Z</time></trkpt>
<trkpt lat="34.8607404" lon="134.0815819"><ele>179.0</ele><time>2026-08-11T04:38:25Z</time></trkpt>
<trkpt lat="34.8607393" lon="134.081588"><ele>179.0</ele><time>2026-08-11T04:38:26Z</time></trkpt>
<trkpt lat="34.8607383" lon="134.0815942"><ele>180.0</ele><time>2026-08-11T04:38:27Z</time></trkpt>
<trkpt lat="34.8607339" lon="134.0816011"><ele>180.0</ele><time>2026-08-11T04:38:28Z</time></trkpt>
<trkpt lat="34.8607295" lon="134.081608"><ele>181.0</ele><time>2026-08-11T04:38:29Z</time></trkpt>
<trkpt lat="34.860724" lon="134.0816125"><ele>181.0</ele><time>2026-08-11T04:38:30Z</time></trkpt>
<trkpt lat="34.8607185" lon="134.081617"><ele>181.0</ele><time>2026-08-11T04:38:31Z</time></trkpt>
<trkpt lat="34.8607142" lon="134.0816155"><ele>181.0</ele><time>2026-08-11T04:38:32Z</time></trkpt>
<trkpt lat="34.86071" lon="134.0816141"><ele>181.0</ele><time>2026-08-11T04:38:33Z</time></trkpt>
<trkpt lat="34.8607091" lon="134.0816132"><ele>182.0</ele><time>2026-08-11T04:38:34Z</time></trkpt>
<trkpt lat="34.8607083" lon="134.0816124"><ele>182.0</ele><time>2026-08-11T04:38:35Z</time></trkpt>
<trkpt lat="34.8607075" lon="134.0816116"><ele>182.0</ele><time>2026-08-11T04:38:36Z</time></trkpt>
<trkpt lat="34.8607069" lon="134.0816126"><ele>183.0</ele><time>2026-08-11T04:38:37Z</time></trkpt>
<trkpt lat="34.8607063" lon="134.0816137"><ele>183.0</ele><time>2026-08-11T04:38:38Z</time></trkpt>
<trkpt lat="34.8607044" lon="134.0816213"><ele>184.0</ele><time>2026-08-11T04:38:39Z</time></trkpt>
<trkpt lat="34.8607026" lon="134.0816289"><ele>184.0</ele><time>2026-08-11T04:38:40Z</time></trkpt>
<trkpt lat="34.8606997" lon="134.0816392"><ele>184.0</ele><time>2026-08-11T04:38:41Z</time></trkpt>
<trkpt lat="34.8606968" lon="134.0816495"><ele>184.0</ele><time>2026-08-11T04:38:42Z</time></trkpt>
<trkpt lat="34.860694" lon="134.0816624"><ele>184.0</ele><time>2026-08-11T04:38:43Z</time></trkpt>
<trkpt lat="34.8606913" lon="134.0816754"><ele>185.0</ele><time>2026-08-11T04:38:44Z</time></trkpt>
<trkpt lat="34.8606876" lon="134.0816885"><ele>185.0</ele><time>2026-08-11T04:38:45Z</time></trkpt>
<trkpt lat="34.8606839" lon="134.0817016"><ele>185.0</ele><time>2026-08-11T04:38:46Z</time></trkpt>
<trkpt lat="34.8606798" lon="134.0817104"><ele>186.0</ele><time>2026-08-11T04:38:47Z</time></trkpt>
<trkpt lat="34.8606757" lon="134.0817192"><ele>186.0</ele><time>2026-08-11T04:38:48Z</time></trkpt>
<trkpt lat="34.8606716" lon="134.0817207"><ele>187.0</ele><time>2026-08-11T04:38:49Z</time></trkpt>
<trkpt lat="34.8606675" lon="134.0817222"><ele>187.0</ele><time>2026-08-11T04:38:50Z</time></trkpt>
<trkpt lat="34.8606631" lon="134.0817168"><ele>187.0</ele><time>2026-08-11T04:38:51Z</time></trkpt>
<trkpt lat="34.8606588" lon="134.0817114"><ele>187.0</ele><time>2026-08-11T04:38:52Z</time></trkpt>
<trkpt lat="34.8606544" lon="134.0817018"><ele>187.0</ele><time>2026-08-11T04:38:53Z</time></trkpt>
<trkpt lat="34.8606501" lon="134.0816922"><ele>188.0</ele><time>2026-08-11T04:38:54Z</time></trkpt>
<trkpt lat="34.8606458" lon="134.0816839"><ele>188.0</ele><time>2026-08-11T04:38:55Z</time></trkpt>
<trkpt lat="34.8606415" lon="134.0816756"><ele>188.0</ele><time>2026-08-11T04:38:56Z</time></trkpt>
<trkpt lat="34.8606363" lon="134.0816735"><ele>189.0</ele><time>2026-08-11T04:38:57Z</time></trkpt>
<trkpt lat="34.8606311" lon="134.0816715"><ele>189.0</ele><time>2026-08-11T04:38:58Z</time></trkpt>
<trkpt lat="34.8606234" lon="134.0816747"><ele>190.0</ele><time>2026-08-11T04:38:59Z</time></trkpt>
<trkpt lat="34.8606158" lon="134.0816779"><ele>190.0</ele><time>2026-08-11T04:39:00Z</time></trkpt>
<trkpt lat="34.8606114" lon="134.0816813"><ele>190.0</ele><time>2026-08-11T04:39:01Z</time></trkpt>
<trkpt lat="34.8606071" lon="134.0816848"><ele>190.0</ele><time>2026-08-11T04:39:02Z</time></trkpt>
<trkpt lat="34.8606053" lon="134.0816864"><ele>190.0</ele><time>2026-08-11T04:39:03Z</time></trkpt>
<trkpt lat="34.8606035" lon="134.081688"><ele>191.0</ele><time>2026-08-11T04:39:04Z</time></trkpt>
<trkpt lat="34.8606017" lon="134.0816896"><ele>191.0</ele><time>2026-08-11T04:39:05Z</time></trkpt>
<trkpt lat="34.8605999" lon="134.0816912"><ele>191.0</ele><time>2026-08-11T04:39:06Z</time></trkpt>
<trkpt lat="34.8605981" lon="134.0816929"><ele>191.0</ele><time>2026-08-11T04:39:07Z</time></trkpt>
<trkpt lat="34.8605936" lon="134.0817005"><ele>191.0</ele><time>2026-08-11T04:39:08Z</time></trkpt>
<trkpt lat="34.8605891" lon="134.0817081"><ele>192.0</ele><time>2026-08-11T04:39:09Z</time></trkpt>
<trkpt lat="34.8605876" lon="134.0817149"><ele>192.0</ele><time>2026-08-11T04:39:10Z</time></trkpt>
<trkpt lat="34.8605862" lon="134.0817217"><ele>192.0</ele><time>2026-08-11T04:39:11Z</time></trkpt>
<trkpt lat="34.8605848" lon="134.0817285"><ele>193.0</ele><time>2026-08-11T04:39:12Z</time></trkpt>
<trkpt lat="34.8605802" lon="134.081739"><ele>193.0</ele><time>2026-08-11T04:39:13Z</time></trkpt>
<trkpt lat="34.8605757" lon="134.0817495"><ele>194.0</ele><time>2026-08-11T04:39:14Z</time></trkpt>
<trkpt lat="34.8605688" lon="134.0817558"><ele>194.0</ele><time>2026-08-11T04:39:15Z</time></trkpt>
<trkpt lat="34.860562" lon="134.0817622"><ele>194.0</ele><time>2026-08-11T04:39:16Z</time></trkpt>
<trkpt lat="34.860553" lon="134.081767"><ele>194.0</ele><time>2026-08-11T04:39:17Z</time></trkpt>
<trkpt lat="34.8605441" lon="134.0817719"><ele>194.0</ele><time>2026-08-11T04:39:18Z</time></trkpt>
<trkpt lat="34.860534" lon="134.0817764"><ele>195.0</ele><time>2026-08-11T04:39:19Z</time></trkpt>
<trkpt lat="34.8605239" lon="134.081781"><ele>195.0</ele><time>2026-08-11T04:39:20Z</time></trkpt>
<trkpt lat="34.8605139" lon="134.081786"><ele>195.0</ele><time>2026-08-11T04:39:21Z</time></trkpt>
<trkpt lat="34.860504" lon="134.0817911"><ele>195.0</ele><time>2026-08-11T04:39:22Z</time></trkpt>
<trkpt lat="34.8604949" lon="134.0817948"><ele>195.0</ele><time>2026-08-11T04:39:23Z</time></trkpt>
<trkpt lat="34.8604858" lon="134.0817985"><ele>196.0</ele><time>2026-08-11T04:39:24Z</time></trkpt>
<trkpt lat="34.8604758" lon="134.0818008"><ele>196.0</ele><time>2026-08-11T04:39:25Z</time></trkpt>
<trkpt lat="34.8604659" lon="134.0818031"><ele>196.0</ele><time>2026-08-11T04:39:26Z</time></trkpt>
<trkpt lat="34.8604598" lon="134.0818028"><ele>196.0</ele><time>2026-08-11T04:39:27Z</time></trkpt>
<trkpt lat="34.8604537" lon="134.0818025"><ele>196.0</ele><time>2026-08-11T04:39:28Z</time></trkpt>
<trkpt lat="34.8604477" lon="134.0818023"><ele>197.0</ele><time>2026-08-11T04:39:29Z</time></trkpt>
<trkpt lat="34.8604417" lon="134.0818036"><ele>197.0</ele><time>2026-08-11T04:39:30Z</time></trkpt>
<trkpt lat="34.8604358" lon="134.0818049"><ele>197.0</ele><time>2026-08-11T04:39:31Z</time></trkpt>
<trkpt lat="34.8604285" lon="134.0818054"><ele>197.0</ele><time>2026-08-11T04:39:32Z</time></trkpt>
<trkpt lat="34.8604212" lon="134.081806"><ele>197.0</ele><time>2026-08-11T04:39:33Z</time></trkpt>
<trkpt lat="34.8604115" lon="134.0818022"><ele>198.0</ele><time>2026-08-11T04:39:34Z</time></trkpt>
<trkpt lat="34.8604019" lon="134.0817985"><ele>198.0</ele><time>2026-08-11T04:39:35Z</time></trkpt>
<trkpt lat="34.860393" lon="134.0817915"><ele>198.0</ele><time>2026-08-11T04:39:36Z</time></trkpt>
<trkpt lat="34.8603841" lon="134.0817845"><ele>199.0</ele><time>2026-08-11T04:39:37Z</time></trkpt>
<trkpt lat="34.860381" lon="134.0817829"><ele>199.0</ele><time>2026-08-11T04:39:38Z</time></trkpt>
<trkpt lat="34.8603779" lon="134.0817814"><ele>200.0</ele><time>2026-08-11T04:39:39Z</time></trkpt>
<trkpt lat="34.8603748" lon="134.0817799"><ele>200.0</ele><time>2026-08-11T04:39:40Z</time></trkpt>
<trkpt lat="34.8603672" lon="134.0817795"><ele>200.0</ele><time>2026-08-11T04:39:41Z</time></trkpt>
<trkpt lat="34.8603596" lon="134.0817792"><ele>200.0</ele><time>2026-08-11T04:39:42Z</time></trkpt>
<trkpt lat="34.8603519" lon="134.0817829"><ele>200.0</ele><time>2026-08-11T04:39:43Z</time></trkpt>
<trkpt lat="34.8603442" lon="134.0817866"><ele>201.0</ele><time>2026-08-11T04:39:44Z</time></trkpt>
<trkpt lat="34.8603344" lon="134.0817955"><ele>201.0</ele><time>2026-08-11T04:39:45Z</time></trkpt>
<trkpt lat="34.8603247" lon="134.0818044"><ele>201.0</ele><time>2026-08-11T04:39:46Z</time></trkpt>
<trkpt lat="34.8603148" lon="134.081814"><ele>201.0</ele><time>2026-08-11T04:39:47Z</time></trkpt>
<trkpt lat="34.8603049" lon="134.0818236"><ele>201.0</ele><time>2026-08-11T04:39:48Z</time></trkpt>
<trkpt lat="34.8602993" lon="134.081829"><ele>202.0</ele><time>2026-08-11T04:39:49Z</time></trkpt>
<trkpt lat="34.8602937" lon="134.0818344"><ele>202.0</ele><time>2026-08-11T04:39:50Z</time></trkpt>
<trkpt lat="34.8602881" lon="134.0818398"><ele>202.0</ele><time>2026-08-11T04:39:51Z</time></trkpt>
<trkpt lat="34.8602832" lon="134.0818467"><ele>202.0</ele><time>2026-08-11T04:39:52Z</time></trkpt>
<trkpt lat="34.8602784" lon="134.0818537"><ele>202.0</ele><time>2026-08-11T04:39:53Z</time></trkpt>
<trkpt lat="34.8602754" lon="134.0818631"><ele>203.0</ele><time>2026-08-11T04:39:54Z</time></trkpt>
<trkpt lat="34.8602725" lon="134.0818725"><ele>203.0</ele><time>2026-08-11T04:39:55Z</time></trkpt>
<trkpt lat="34.8602688" lon="134.0818811"><ele>203.0</ele><time>2026-08-11T04:39:56Z</time></trkpt>
<trkpt lat="34.8602651" lon="134.0818898"><ele>203.0</ele><time>2026-08-11T04:39:57Z</time></trkpt>
<trkpt lat="34.8602602" lon="134.0818953"><ele>203.0</ele><time>2026-08-11T04:39:58Z</time></trkpt>
<trkpt lat="34.8602554" lon="134.0819008"><ele>204.0</ele><time>2026-08-11T04:39:59Z</time></trkpt>
<trkpt lat="34.8602496" lon="134.0819054"><ele>204.0</ele><time>2026-08-11T04:40:00Z</time></trkpt>
<trkpt lat="34.8602439" lon="134.08191"><ele>204.0</ele><time>2026-08-11T04:40:01Z</time></trkpt>
<trkpt lat="34.8602367" lon="134.081913"><ele>205.0</ele><time>2026-08-11T04:40:02Z</time></trkpt>
<trkpt lat="34.8602295" lon="134.0819161"><ele>205.0</ele><time>2026-08-11T04:40:03Z</time></trkpt>
<trkpt lat="34.8602142" lon="134.0819161"><ele>209.0</ele><time>2026-08-11T04:40:22Z</time></trkpt>
<trkpt lat="34.8602071" lon="134.0819133"><ele>209.0</ele><time>2026-08-11T04:40:23Z</time></trkpt>
<trkpt lat="34.8602001" lon="134.0819106"><ele>209.0</ele><time>2026-08-11T04:40:24Z</time></trkpt>
<trkpt lat="34.8601922" lon="134.0819048"><ele>209.0</ele><time>2026-08-11T04:40:25Z</time></trkpt>
<trkpt lat="34.8601844" lon="134.0818991"><ele>209.0</ele><time>2026-08-11T04:40:26Z</time></trkpt>
<trkpt lat="34.8601761" lon="134.0818903"><ele>209.0</ele><time>2026-08-11T04:40:27Z</time></trkpt>
<trkpt lat="34.8601678" lon="134.0818816"><ele>209.0</ele><time>2026-08-11T04:40:28Z</time></trkpt>
<trkpt lat="34.8601605" lon="134.0818727"><ele>209.0</ele><time>2026-08-11T04:40:29Z</time></trkpt>
<trkpt lat="34.8601532" lon="134.0818638"><ele>209.0</ele><time>2026-08-11T04:40:30Z</time></trkpt>
<trkpt lat="34.8601486" lon="134.0818607"><ele>209.0</ele><time>2026-08-11T04:40:31Z</time></trkpt>
<trkpt lat="34.860144" lon="134.0818577"><ele>209.0</ele><time>2026-08-11T04:40:32Z</time></trkpt>
<trkpt lat="34.8601415" lon="134.0818624"><ele>209.0</ele><time>2026-08-11T04:40:33Z</time></trkpt>
<trkpt lat="34.8601391" lon="134.0818671"><ele>209.0</ele><time>2026-08-11T04:40:34Z</time></trkpt>
<trkpt lat="34.860136" lon="134.0818803"><ele>209.0</ele><time>2026-08-11T04:40:35Z</time></trkpt>
<trkpt lat="34.860133" lon="134.0818936"><ele>209.0</ele><time>2026-08-11T04:40:36Z</time></trkpt>
<trkpt lat="34.8601243" lon="134.0819156"><ele>209.0</ele><time>2026-08-11T04:40:37Z</time></trkpt>
<trkpt lat="34.8601157" lon="134.0819377"><ele>209.0</ele><time>2026-08-11T04:40:38Z</time></trkpt>
<trkpt lat="34.860101" lon="134.081962"><ele>209.0</ele><time>2026-08-11T04:40:39Z</time></trkpt>
<trkpt lat="34.8600863" lon="134.0819864"><ele>209.0</ele><time>2026-08-11T04:40:40Z</time></trkpt>
<trkpt lat="34.8600707" lon="134.0820065"><ele>209.0</ele><time>2026-08-11T04:40:41Z</time></trkpt>
<trkpt lat="34.8600552" lon="134.0820267"><ele>209.0</ele><time>2026-08-11T04:40:42Z</time></trkpt>
<trkpt lat="34.8600401" lon="134.0820455"><ele>209.0</ele><time>2026-08-11T04:40:43Z</time></trkpt>
<trkpt lat="34.860025" lon="134.0820644"><ele>210.0</ele><time>2026-08-11T04:40:44Z</time></trkpt>
<trkpt lat="34.8600097" lon="134.082085"><ele>210.0</ele><time>2026-08-11T04:40:45Z</time></trkpt>
<trkpt lat="34.8599944" lon="134.0821056"><ele>210.0</ele><time>2026-08-11T04:40:46Z</time></trkpt>
<trkpt lat="34.8599688" lon="134.0821399"><ele>211.0</ele><time>2026-08-11T04:40:53Z</time></trkpt>
<trkpt lat="34.8599613" lon="134.0821452"><ele>212.0</ele><time>2026-08-11T04:40:54Z</time></trkpt>
<trkpt lat="34.8599538" lon="134.0821506"><ele>212.0</ele><time>2026-08-11T04:40:55Z</time></trkpt>
<trkpt lat="34.859946" lon="134.082152"><ele>212.0</ele><time>2026-08-11T04:40:56Z</time></trkpt>
<trkpt lat="34.8599382" lon="134.0821535"><ele>212.0</ele><time>2026-08-11T04:40:57Z</time></trkpt>
<trkpt lat="34.8599283" lon="134.0821558"><ele>212.0</ele><time>2026-08-11T04:40:58Z</time></trkpt>
<trkpt lat="34.8599184" lon="134.0821582"><ele>212.0</ele><time>2026-08-11T04:40:59Z</time></trkpt>
<trkpt lat="34.8599059" lon="134.0821613"><ele>211.0</ele><time>2026-08-11T04:41:00Z</time></trkpt>
<trkpt lat="34.8598934" lon="134.0821644"><ele>211.0</ele><time>2026-08-11T04:41:01Z</time></trkpt>
<trkpt lat="34.8598747" lon="134.082171"><ele>211.0</ele><time>2026-08-11T04:41:02Z</time></trkpt>
<trkpt lat="34.8598561" lon="134.0821777"><ele>211.0</ele><time>2026-08-11T04:41:03Z</time></trkpt>
<trkpt lat="34.8598336" lon="134.0821846"><ele>211.0</ele><time>2026-08-11T04:41:04Z</time></trkpt>
<trkpt lat="34.8598111" lon="134.0821916"><ele>210.0</ele><time>2026-08-11T04:41:05Z</time></trkpt>
<trkpt lat="34.859784" lon="134.0821986"><ele>210.0</ele><time>2026-08-11T04:41:06Z</time></trkpt>
<trkpt lat="34.859757" lon="134.0822057"><ele>210.0</ele><time>2026-08-11T04:41:07Z</time></trkpt>
<trkpt lat="34.8597292" lon="134.0822127"><ele>210.0</ele><time>2026-08-11T04:41:08Z</time></trkpt>
<trkpt lat="34.8597015" lon="134.0822198"><ele>210.0</ele><time>2026-08-11T04:41:09Z</time></trkpt>
<trkpt lat="34.8596766" lon="134.0822228"><ele>210.0</ele><time>2026-08-11T04:41:10Z</time></trkpt>
<trkpt lat="34.8596518" lon="134.0822259"><ele>210.0</ele><time>2026-08-11T04:41:11Z</time></trkpt>
<trkpt lat="34.8596303" lon="134.0822286"><ele>210.0</ele><time>2026-08-11T04:41:12Z</time></trkpt>
<trkpt lat="34.8596089" lon="134.0822313"><ele>210.0</ele><time>2026-08-11T04:41:13Z</time></trkpt>
<trkpt lat="34.8595889" lon="134.0822349"><ele>210.0</ele><time>2026-08-11T04:41:14Z</time></trkpt>
<trkpt lat="34.8595689" lon="134.0822386"><ele>210.0</ele><time>2026-08-11T04:41:15Z</time></trkpt>
<trkpt lat="34.8595491" lon="134.0822446"><ele>210.0</ele><time>2026-08-11T04:41:16Z</time></trkpt>
<trkpt lat="34.8595294" lon="134.0822507"><ele>210.0</ele><time>2026-08-11T04:41:17Z</time></trkpt>
<trkpt lat="34.8595087" lon="134.0822618"><ele>210.0</ele><time>2026-08-11T04:41:18Z</time></trkpt>
<trkpt lat="34.8594881" lon="134.0822729"><ele>210.0</ele><time>2026-08-11T04:41:19Z</time></trkpt>
<trkpt lat="34.859466" lon="134.0822888"><ele>209.0</ele><time>2026-08-11T04:41:20Z</time></trkpt>
<trkpt lat="34.8594439" lon="134.0823048"><ele>208.0</ele><time>2026-08-11T04:41:21Z</time></trkpt>
<trkpt lat="34.8594173" lon="134.0823211"><ele>208.0</ele><time>2026-08-11T04:41:22Z</time></trkpt>
<trkpt lat="34.8593908" lon="134.0823374"><ele>207.0</ele><time>2026-08-11T04:41:23Z</time></trkpt>
<trkpt lat="34.8593602" lon="134.082347"><ele>207.0</ele><time>2026-08-11T04:41:24Z</time></trkpt>
<trkpt lat="34.8593297" lon="134.0823567"><ele>206.0</ele><time>2026-08-11T04:41:25Z</time></trkpt>
<trkpt lat="34.8593016" lon="134.0823612"><ele>206.0</ele><time>2026-08-11T04:41:26Z</time></trkpt>
<trkpt lat="34.8592735" lon="134.0823658"><ele>206.0</ele><time>2026-08-11T04:41:27Z</time></trkpt>
<trkpt lat="34.8592492" lon="134.0823687"><ele>206.0</ele><time>2026-08-11T04:41:28Z</time></trkpt>
<trkpt lat="34.8592249" lon="134.0823717"><ele>206.0</ele><time>2026-08-11T04:41:29Z</time></trkpt>
<trkpt lat="34.8592035" lon="134.0823782"><ele>205.0</ele><time>2026-08-11T04:41:30Z</time></trkpt>
<trkpt lat="34.8591821" lon="134.0823847"><ele>205.0</ele><time>2026-08-11T04:41:31Z</time></trkpt>
<trkpt lat="34.8591631" lon="134.0823968"><ele>205.0</ele><time>2026-08-11T04:41:32Z</time></trkpt>
<trkpt lat="34.8591442" lon="134.0824089"><ele>205.0</ele><time>2026-08-11T04:41:33Z</time></trkpt>
<trkpt lat="34.8591242" lon="134.0824209"><ele>205.0</ele><time>2026-08-11T04:41:34Z</time></trkpt>
<trkpt lat="34.8591043" lon="134.0824329"><ele>204.0</ele><time>2026-08-11T04:41:35Z</time></trkpt>
<trkpt lat="34.8590815" lon="134.0824433"><ele>204.0</ele><time>2026-08-11T04:41:36Z</time></trkpt>
<trkpt lat="34.8590587" lon="134.0824537"><ele>204.0</ele><time>2026-08-11T04:41:37Z</time></trkpt>
<trkpt lat="34.8590337" lon="134.082466"><ele>204.0</ele><time>2026-08-11T04:41:38Z</time></trkpt>
<trkpt lat="34.8590088" lon="134.0824784"><ele>204.0</ele><time>2026-08-11T04:41:39Z</time></trkpt>
<trkpt lat="34.8589835" lon="134.0824929"><ele>203.0</ele><time>2026-08-11T04:41:40Z</time></trkpt>
<trkpt lat="34.8589582" lon="134.0825074"><ele>203.0</ele><time>2026-08-11T04:41:41Z</time></trkpt>
<trkpt lat="34.8589371" lon="134.0825214"><ele>203.0</ele><time>2026-08-11T04:41:42Z</time></trkpt>
<trkpt lat="34.858916" lon="134.0825354"><ele>203.0</ele><time>2026-08-11T04:41:43Z</time></trkpt>
<trkpt lat="34.8589003" lon="134.0825457"><ele>203.0</ele><time>2026-08-11T04:41:44Z</time></trkpt>
<trkpt lat="34.8588846" lon="134.082556"><ele>203.0</ele><time>2026-08-11T04:41:45Z</time></trkpt>
<trkpt lat="34.8588713" lon="134.0825616"><ele>203.0</ele><time>2026-08-11T04:41:46Z</time></trkpt>
<trkpt lat="34.8588581" lon="134.0825672"><ele>204.0</ele><time>2026-08-11T04:41:47Z</time></trkpt>
<trkpt lat="34.8588453" lon="134.0825686"><ele>204.0</ele><time>2026-08-11T04:41:48Z</time></trkpt>
<trkpt lat="34.8588326" lon="134.0825701"><ele>205.0</ele><time>2026-08-11T04:41:49Z</time></trkpt>
<trkpt lat="34.8588198" lon="134.0825709"><ele>205.0</ele><time>2026-08-11T04:41:50Z</time></trkpt>
<trkpt lat="34.858807" lon="134.0825717"><ele>205.0</ele><time>2026-08-11T04:41:51Z</time></trkpt>
<trkpt lat="34.8587932" lon="134.0825771"><ele>205.0</ele><time>2026-08-11T04:41:52Z</time></trkpt>
<trkpt lat="34.8587794" lon="134.0825826"><ele>205.0</ele><time>2026-08-11T04:41:53Z</time></trkpt>
<trkpt lat="34.8587658" lon="134.0825921"><ele>206.0</ele><time>2026-08-11T04:41:54Z</time></trkpt>
<trkpt lat="34.8587522" lon="134.0826016"><ele>206.0</ele><time>2026-08-11T04:41:55Z</time></trkpt>
<trkpt lat="34.8587377" lon="134.0826162"><ele>206.0</ele><time>2026-08-11T04:41:56Z</time></trkpt>
<trkpt lat="34.8587232" lon="134.0826309"><ele>206.0</ele><time>2026-08-11T04:41:57Z</time></trkpt>
<trkpt lat="34.8587058" lon="134.0826481"><ele>206.0</ele><time>2026-08-11T04:41:58Z</time></trkpt>
<trkpt lat="34.8586884" lon="134.0826654"><ele>206.0</ele><time>2026-08-11T04:41:59Z</time></trkpt>
<trkpt lat="34.8586688" lon="134.0826822"><ele>205.0</ele><time>2026-08-11T04:42:00Z</time></trkpt>
<trkpt lat="34.8586493" lon="134.0826991"><ele>205.0</ele><time>2026-08-11T04:42:01Z</time></trkpt>
<trkpt lat="34.8586282" lon="134.0827131"><ele>205.0</ele><time>2026-08-11T04:42:02Z</time></trkpt>
<trkpt lat="34.8586072" lon="134.0827271"><ele>205.0</ele><time>2026-08-11T04:42:03Z</time></trkpt>
<trkpt lat="34.858586" lon="134.0827356"><ele>205.0</ele><time>2026-08-11T04:42:04Z</time></trkpt>
<trkpt lat="34.8585649" lon="134.0827442"><ele>205.0</ele><time>2026-08-11T04:42:05Z</time></trkpt>
<trkpt lat="34.858547" lon="134.0827481"><ele>205.0</ele><time>2026-08-11T04:42:06Z</time></trkpt>
<trkpt lat="34.8585292" lon="134.082752"><ele>205.0</ele><time>2026-08-11T04:42:07Z</time></trkpt>
<trkpt lat="34.858515" lon="134.0827503"><ele>205.0</ele><time>2026-08-11T04:42:08Z</time></trkpt>
<trkpt lat="34.8585009" lon="134.0827486"><ele>206.0</ele><time>2026-08-11T04:42:09Z</time></trkpt>
<trkpt lat="34.8584871" lon="134.0827429"><ele>206.0</ele><time>2026-08-11T04:42:10Z</time></trkpt>
<trkpt lat="34.8584733" lon="134.0827373"><ele>206.0</ele><time>2026-08-11T04:42:11Z</time></trkpt>
<trkpt lat="34.8584558" lon="134.0827316"><ele>206.0</ele><time>2026-08-11T04:42:12Z</time></trkpt>
<trkpt lat="34.8584383" lon="134.0827259"><ele>206.0</ele><time>2026-08-11T04:42:13Z</time></trkpt>
<trkpt lat="34.8584181" lon="134.0827251"><ele>207.0</ele><time>2026-08-11T04:42:14Z</time></trkpt>
<trkpt lat="34.8583979" lon="134.0827243"><ele>207.0</ele><time>2026-08-11T04:42:15Z</time></trkpt>
<trkpt lat="34.8583783" lon="134.0827348"><ele>207.0</ele><time>2026-08-11T04:42:16Z</time></trkpt>
<trkpt lat="34.8583588" lon="134.0827453"><ele>207.0</ele><time>2026-08-11T04:42:17Z</time></trkpt>
<trkpt lat="34.8583416" lon="134.0827657"><ele>207.0</ele><time>2026-08-11T04:42:18Z</time></trkpt>
<trkpt lat="34.8583245" lon="134.0827861"><ele>207.0</ele><time>2026-08-11T04:42:19Z</time></trkpt>
<trkpt lat="34.8583082" lon="134.0828153"><ele>206.0</ele><time>2026-08-11T04:42:20Z</time></trkpt>
<trkpt lat="34.858292" lon="134.0828446"><ele>206.0</ele><time>2026-08-11T04:42:21Z</time></trkpt>
<trkpt lat="34.8582781" lon="134.0828777"><ele>206.0</ele><time>2026-08-11T04:42:22Z</time></trkpt>
<trkpt lat="34.8582642" lon="134.0829108"><ele>206.0</ele><time>2026-08-11T04:42:23Z</time></trkpt>
<trkpt lat="34.8582533" lon="134.0829408"><ele>206.0</ele><time>2026-08-11T04:42:24Z</time></trkpt>
<trkpt lat="34.8582424" lon="134.0829708"><ele>206.0</ele><time>2026-08-11T04:42:25Z</time></trkpt>
<trkpt lat="34.8582329" lon="134.0829954"><ele>206.0</ele><time>2026-08-11T04:42:26Z</time></trkpt>
<trkpt lat="34.8582234" lon="134.0830201"><ele>206.0</ele><time>2026-08-11T04:42:27Z</time></trkpt>
<trkpt lat="34.8582139" lon="134.0830364"><ele>206.0</ele><time>2026-08-11T04:42:28Z</time></trkpt>
<trkpt lat="34.8582045" lon="134.0830527"><ele>206.0</ele><time>2026-08-11T04:42:29Z</time></trkpt>
<trkpt lat="34.8581904" lon="134.0830672"><ele>206.0</ele><time>2026-08-11T04:42:30Z</time></trkpt>
<trkpt lat="34.8581764" lon="134.0830817"><ele>206.0</ele><time>2026-08-11T04:42:31Z</time></trkpt>
<trkpt lat="34.8581594" lon="134.0830899"><ele>206.0</ele><time>2026-08-11T04:42:32Z</time></trkpt>
<trkpt lat="34.8581424" lon="134.0830982"><ele>206.0</ele><time>2026-08-11T04:42:33Z</time></trkpt>
<trkpt lat="34.8581238" lon="134.0830963"><ele>207.0</ele><time>2026-08-11T04:42:34Z</time></trkpt>
<trkpt lat="34.8581052" lon="134.0830944"><ele>206.0</ele><time>2026-08-11T04:42:35Z</time></trkpt>
<trkpt lat="34.858088" lon="134.0830885"><ele>206.0</ele><time>2026-08-11T04:42:36Z</time></trkpt>
<trkpt lat="34.8580708" lon="134.0830826"><ele>205.0</ele><time>2026-08-11T04:42:37Z</time></trkpt>
<trkpt lat="34.8580565" lon="134.0830773"><ele>205.0</ele><time>2026-08-11T04:42:38Z</time></trkpt>
<trkpt lat="34.8580423" lon="134.083072"><ele>205.0</ele><time>2026-08-11T04:42:39Z</time></trkpt>
<trkpt lat="34.8580274" lon="134.0830645"><ele>204.0</ele><time>2026-08-11T04:42:40Z</time></trkpt>
<trkpt lat="34.8580126" lon="134.083057"><ele>204.0</ele><time>2026-08-11T04:42:41Z</time></trkpt>
<trkpt lat="34.8579988" lon="134.0830453"><ele>203.0</ele><time>2026-08-11T04:42:42Z</time></trkpt>
<trkpt lat="34.8579851" lon="134.0830337"><ele>203.0</ele><time>2026-08-11T04:42:43Z</time></trkpt>
<trkpt lat="34.8579726" lon="134.0830202"><ele>203.0</ele><time>2026-08-11T04:42:44Z</time></trkpt>
<trkpt lat="34.8579601" lon="134.0830068"><ele>202.0</ele><time>2026-08-11T04:42:45Z</time></trkpt>
<trkpt lat="34.8579466" lon="134.0829905"><ele>202.0</ele><time>2026-08-11T04:42:46Z</time></trkpt>
<trkpt lat="34.8579331" lon="134.0829742"><ele>201.0</ele><time>2026-08-11T04:42:47Z</time></trkpt>
<trkpt lat="34.85792" lon="134.0829566"><ele>201.0</ele><time>2026-08-11T04:42:48Z</time></trkpt>
<trkpt lat="34.8579069" lon="134.0829391"><ele>201.0</ele><time>2026-08-11T04:42:49Z</time></trkpt>
<trkpt lat="34.8578956" lon="134.0829229"><ele>200.0</ele><time>2026-08-11T04:42:50Z</time></trkpt>
<trkpt lat="34.8578843" lon="134.0829067"><ele>199.0</ele><time>2026-08-11T04:42:51Z</time></trkpt>
<trkpt lat="34.8578743" lon="134.0828926"><ele>199.0</ele><time>2026-08-11T04:42:52Z</time></trkpt>
<trkpt lat="34.8578643" lon="134.0828786"><ele>198.0</ele><time>2026-08-11T04:42:53Z</time></trkpt>
<trkpt lat="34.857859" lon="134.0828666"><ele>198.0</ele><time>2026-08-11T04:42:54Z</time></trkpt>
<trkpt lat="34.8578537" lon="134.0828547"><ele>197.0</ele><time>2026-08-11T04:42:55Z</time></trkpt>
<trkpt lat="34.8578567" lon="134.0828466"><ele>197.0</ele><time>2026-08-11T04:42:56Z</time></trkpt>
<trkpt lat="34.8578597" lon="134.0828386"><ele>196.0</ele><time>2026-08-11T04:42:57Z</time></trkpt>
<trkpt lat="34.8578677" lon="134.0828309"><ele>196.0</ele><time>2026-08-11T04:42:58Z</time></trkpt>
<trkpt lat="34.8578757" lon="134.0828233"><ele>196.0</ele><time>2026-08-11T04:42:59Z</time></trkpt>
<trkpt lat="34.8578817" lon="134.0828172"><ele>195.0</ele><time>2026-08-11T04:43:00Z</time></trkpt>
<trkpt lat="34.8578878" lon="134.0828111"><ele>194.0</ele><time>2026-08-11T04:43:01Z</time></trkpt>
<trkpt lat="34.8578882" lon="134.0828049"><ele>194.0</ele><time>2026-08-11T04:43:02Z</time></trkpt>
<trkpt lat="34.8578887" lon="134.0827987"><ele>193.0</ele><time>2026-08-11T04:43:03Z</time></trkpt>
<trkpt lat="34.8578851" lon="134.0827909"><ele>193.0</ele><time>2026-08-11T04:43:04Z</time></trkpt>
<trkpt lat="34.8578816" lon="134.0827832"><ele>192.0</ele><time>2026-08-11T04:43:05Z</time></trkpt>
<trkpt lat="34.8578772" lon="134.0827718"><ele>192.0</ele><time>2026-08-11T04:43:06Z</time></trkpt>
<trkpt lat="34.8578728" lon="134.0827605"><ele>191.0</ele><time>2026-08-11T04:43:07Z</time></trkpt>
<trkpt lat="34.8578689" lon="134.0827457"><ele>191.0</ele><time>2026-08-11T04:43:08Z</time></trkpt>
<trkpt lat="34.8578651" lon="134.082731"><ele>191.0</ele><time>2026-08-11T04:43:09Z</time></trkpt>
<trkpt lat="34.8578622" lon="134.0827149"><ele>190.0</ele><time>2026-08-11T04:43:10Z</time></trkpt>
<trkpt lat="34.8578593" lon="134.0826988"><ele>189.0</ele><time>2026-08-11T04:43:11Z</time></trkpt>
<trkpt lat="34.8578526" lon="134.0826822"><ele>189.0</ele><time>2026-08-11T04:43:12Z</time></trkpt>
<trkpt lat="34.8578459" lon="134.0826656"><ele>188.0</ele><time>2026-08-11T04:43:13Z</time></trkpt>
<trkpt lat="34.8578321" lon="134.0826478"><ele>188.0</ele><time>2026-08-11T04:43:14Z</time></trkpt>
<trkpt lat="34.8578183" lon="134.08263"><ele>187.0</ele><time>2026-08-11T04:43:15Z</time></trkpt>
<trkpt lat="34.8578014" lon="134.0826158"><ele>187.0</ele><time>2026-08-11T04:43:16Z</time></trkpt>
<trkpt lat="34.8577845" lon="134.0826017"><ele>187.0</ele><time>2026-08-11T04:43:17Z</time></trkpt>
<trkpt lat="34.8577658" lon="134.0825946"><ele>187.0</ele><time>2026-08-11T04:43:18Z</time></trkpt>
<trkpt lat="34.8577471" lon="134.0825876"><ele>187.0</ele><time>2026-08-11T04:43:19Z</time></trkpt>
<trkpt lat="34.8577292" lon="134.0825899"><ele>186.0</ele><time>2026-08-11T04:43:20Z</time></trkpt>
<trkpt lat="34.8577113" lon="134.0825923"><ele>186.0</ele><time>2026-08-11T04:43:21Z</time></trkpt>
<trkpt lat="34.8576962" lon="134.082601"><ele>186.0</ele><time>2026-08-11T04:43:22Z</time></trkpt>
<trkpt lat="34.8576811" lon="134.0826097"><ele>186.0</ele><time>2026-08-11T04:43:23Z</time></trkpt>
<trkpt lat="34.8576679" lon="134.0826191"><ele>186.0</ele><time>2026-08-11T04:43:24Z</time></trkpt>
<trkpt lat="34.8576547" lon="134.0826286"><ele>185.0</ele><time>2026-08-11T04:43:25Z</time></trkpt>
<trkpt lat="34.8576412" lon="134.0826367"><ele>185.0</ele><time>2026-08-11T04:43:26Z</time></trkpt>
<trkpt lat="34.8576278" lon="134.0826449"><ele>184.0</ele><time>2026-08-11T04:43:27Z</time></trkpt>
<trkpt lat="34.8576134" lon="134.0826498"><ele>184.0</ele><time>2026-08-11T04:43:28Z</time></trkpt>
<trkpt lat="34.8575991" lon="134.0826548"><ele>184.0</ele><time>2026-08-11T04:43:29Z</time></trkpt>
<trkpt lat="34.8575834" lon="134.0826584"><ele>183.0</ele><time>2026-08-11T04:43:30Z</time></trkpt>
<trkpt lat="34.8575677" lon="134.0826621"><ele>183.0</ele><time>2026-08-11T04:43:31Z</time></trkpt>
<trkpt lat="34.8575506" lon="134.0826665"><ele>182.0</ele><time>2026-08-11T04:43:32Z</time></trkpt>
<trkpt lat="34.8575335" lon="134.0826709"><ele>182.0</ele><time>2026-08-11T04:43:33Z</time></trkpt>
<trkpt lat="34.857514" lon="134.0826784"><ele>182.0</ele><time>2026-08-11T04:43:34Z</time></trkpt>
<trkpt lat="34.8574946" lon="134.0826859"><ele>181.0</ele><time>2026-08-11T04:43:35Z</time></trkpt>
<trkpt lat="34.8574747" lon="134.0826918"><ele>180.0</ele><time>2026-08-11T04:43:36Z</time></trkpt>
<trkpt lat="34.8574548" lon="134.0826977"><ele>179.0</ele><time>2026-08-11T04:43:37Z</time></trkpt>
<trkpt lat="34.8574366" lon="134.0827029"><ele>178.0</ele><time>2026-08-11T04:43:38Z</time></trkpt>
<trkpt lat="34.8574185" lon="134.0827081"><ele>178.0</ele><time>2026-08-11T04:43:39Z</time></trkpt>
<trkpt lat="34.8574011" lon="134.0827124"><ele>177.0</ele><time>2026-08-11T04:43:40Z</time></trkpt>
<trkpt lat="34.8573837" lon="134.0827168"><ele>176.0</ele><time>2026-08-11T04:43:41Z</time></trkpt>
<trkpt lat="34.8573674" lon="134.082721"><ele>176.0</ele><time>2026-08-11T04:43:42Z</time></trkpt>
<trkpt lat="34.8573512" lon="134.0827252"><ele>175.0</ele><time>2026-08-11T04:43:43Z</time></trkpt>
<trkpt lat="34.8573372" lon="134.0827328"><ele>175.0</ele><time>2026-08-11T04:43:44Z</time></trkpt>
<trkpt lat="34.8573233" lon="134.0827404"><ele>174.0</ele><time>2026-08-11T04:43:45Z</time></trkpt>
<trkpt lat="34.8573098" lon="134.0827478"><ele>174.0</ele><time>2026-08-11T04:43:46Z</time></trkpt>
<trkpt lat="34.8572964" lon="134.0827552"><ele>173.0</ele><time>2026-08-11T04:43:47Z</time></trkpt>
<trkpt lat="34.8572834" lon="134.0827582"><ele>173.0</ele><time>2026-08-11T04:43:48Z</time></trkpt>
<trkpt lat="34.8572705" lon="134.0827613"><ele>173.0</ele><time>2026-08-11T04:43:49Z</time></trkpt>
<trkpt lat="34.8572545" lon="134.0827617"><ele>172.0</ele><time>2026-08-11T04:43:50Z</time></trkpt>
<trkpt lat="34.8572386" lon="134.0827622"><ele>172.0</ele><time>2026-08-11T04:43:51Z</time></trkpt>
<trkpt lat="34.8572206" lon="134.0827643"><ele>171.0</ele><time>2026-08-11T04:43:52Z</time></trkpt>
<trkpt lat="34.8572027" lon="134.0827664"><ele>171.0</ele><time>2026-08-11T04:43:53Z</time></trkpt>
<trkpt lat="34.8571837" lon="134.0827697"><ele>171.0</ele><time>2026-08-11T04:43:54Z</time></trkpt>
<trkpt lat="34.8571648" lon="134.082773"><ele>170.0</ele><time>2026-08-11T04:43:55Z</time></trkpt>
<trkpt lat="34.8571418" lon="134.0827791"><ele>170.0</ele><time>2026-08-11T04:43:56Z</time></trkpt>
<trkpt lat="34.8571189" lon="134.0827853"><ele>169.0</ele><time>2026-08-11T04:43:57Z</time></trkpt>
<trkpt lat="34.8570948" lon="134.0827928"><ele>169.0</ele><time>2026-08-11T04:43:58Z</time></trkpt>
<trkpt lat="34.8570707" lon="134.0828003"><ele>169.0</ele><time>2026-08-11T04:43:59Z</time></trkpt>
<trkpt lat="34.8570474" lon="134.0828092"><ele>168.0</ele><time>2026-08-11T04:44:00Z</time></trkpt>
<trkpt lat="34.8570242" lon="134.0828181"><ele>168.0</ele><time>2026-08-11T04:44:01Z</time></trkpt>
<trkpt lat="34.8570039" lon="134.0828311"><ele>167.0</ele><time>2026-08-11T04:44:02Z</time></trkpt>
<trkpt lat="34.8569836" lon="134.0828441"><ele>167.0</ele><time>2026-08-11T04:44:03Z</time></trkpt>
<trkpt lat="34.8569648" lon="134.08286"><ele>167.0</ele><time>2026-08-11T04:44:04Z</time></trkpt>
<trkpt lat="34.8569461" lon="134.082876"><ele>166.0</ele><time>2026-08-11T04:44:05Z</time></trkpt>
<trkpt lat="34.8569281" lon="134.0828894"><ele>166.0</ele><time>2026-08-11T04:44:06Z</time></trkpt>
<trkpt lat="34.8569102" lon="134.0829028"><ele>165.0</ele><time>2026-08-11T04:44:07Z</time></trkpt>
<trkpt lat="34.8568932" lon="134.0829093"><ele>165.0</ele><time>2026-08-11T04:44:08Z</time></trkpt>
<trkpt lat="34.8568763" lon="134.0829159"><ele>165.0</ele><time>2026-08-11T04:44:09Z</time></trkpt>
<trkpt lat="34.8568615" lon="134.0829194"><ele>164.0</ele><time>2026-08-11T04:44:10Z</time></trkpt>
<trkpt lat="34.8568467" lon="134.082923"><ele>164.0</ele><time>2026-08-11T04:44:11Z</time></trkpt>
<trkpt lat="34.856839" lon="134.0829238"><ele>163.0</ele><time>2026-08-11T04:44:12Z</time></trkpt>
<trkpt lat="34.8568314" lon="134.0829247"><ele>163.0</ele><time>2026-08-11T04:44:13Z</time></trkpt>
<trkpt lat="34.8568203" lon="134.0829235"><ele>161.0</ele><time>2026-08-11T04:44:20Z</time></trkpt>
<trkpt lat="34.8568126" lon="134.0829213"><ele>161.0</ele><time>2026-08-11T04:44:21Z</time></trkpt>
<trkpt lat="34.8568049" lon="134.0829191"><ele>161.0</ele><time>2026-08-11T04:44:22Z</time></trkpt>
<trkpt lat="34.8567945" lon="134.0829144"><ele>161.0</ele><time>2026-08-11T04:44:23Z</time></trkpt>
<trkpt lat="34.8567841" lon="134.0829097"><ele>161.0</ele><time>2026-08-11T04:44:24Z</time></trkpt>
<trkpt lat="34.8567675" lon="134.0829037"><ele>160.0</ele><time>2026-08-11T04:44:25Z</time></trkpt>
<trkpt lat="34.8567509" lon="134.0828978"><ele>160.0</ele><time>2026-08-11T04:44:26Z</time></trkpt>
<trkpt lat="34.8567292" lon="134.0828915"><ele>159.0</ele><time>2026-08-11T04:44:27Z</time></trkpt>
<trkpt lat="34.8567076" lon="134.0828853"><ele>159.0</ele><time>2026-08-11T04:44:28Z</time></trkpt>
<trkpt lat="34.8566848" lon="134.0828768"><ele>159.0</ele><time>2026-08-11T04:44:29Z</time></trkpt>
<trkpt lat="34.856662" lon="134.0828683"><ele>158.0</ele><time>2026-08-11T04:44:30Z</time></trkpt>
<trkpt lat="34.8566373" lon="134.0828579"><ele>157.0</ele><time>2026-08-11T04:44:31Z</time></trkpt>
<trkpt lat="34.8566127" lon="134.0828476"><ele>157.0</ele><time>2026-08-11T04:44:32Z</time></trkpt>
<trkpt lat="34.8565914" lon="134.0828315"><ele>156.0</ele><time>2026-08-11T04:44:33Z</time></trkpt>
<trkpt lat="34.8565701" lon="134.0828155"><ele>156.0</ele><time>2026-08-11T04:44:34Z</time></trkpt>
<trkpt lat="34.8565547" lon="134.0827942"><ele>155.0</ele><time>2026-08-11T04:44:35Z</time></trkpt>
<trkpt lat="34.8565394" lon="134.0827729"><ele>154.0</ele><time>2026-08-11T04:44:36Z</time></trkpt>
<trkpt lat="34.856527" lon="134.0827528"><ele>154.0</ele><time>2026-08-11T04:44:37Z</time></trkpt>
<trkpt lat="34.8565146" lon="134.0827327"><ele>153.0</ele><time>2026-08-11T04:44:38Z</time></trkpt>
<trkpt lat="34.8565012" lon="134.0827191"><ele>153.0</ele><time>2026-08-11T04:44:39Z</time></trkpt>
<trkpt lat="34.8564878" lon="134.0827055"><ele>152.0</ele><time>2026-08-11T04:44:40Z</time></trkpt>
<trkpt lat="34.8564693" lon="134.082696"><ele>152.0</ele><time>2026-08-11T04:44:41Z</time></trkpt>
<trkpt lat="34.8564509" lon="134.0826865"><ele>151.0</ele><time>2026-08-11T04:44:42Z</time></trkpt>
<trkpt lat="34.8564292" lon="134.0826795"><ele>151.0</ele><time>2026-08-11T04:44:43Z</time></trkpt>
<trkpt lat="34.8564076" lon="134.0826726"><ele>151.0</ele><time>2026-08-11T04:44:44Z</time></trkpt>
<trkpt lat="34.8563828" lon="134.082671"><ele>150.0</ele><time>2026-08-11T04:44:45Z</time></trkpt>
<trkpt lat="34.8563581" lon="134.0826694"><ele>150.0</ele><time>2026-08-11T04:44:46Z</time></trkpt>
<trkpt lat="34.8563343" lon="134.0826725"><ele>150.0</ele><time>2026-08-11T04:44:47Z</time></trkpt>
<trkpt lat="34.8563105" lon="134.0826756"><ele>150.0</ele><time>2026-08-11T04:44:48Z</time></trkpt>
<trkpt lat="34.8562891" lon="134.0826811"><ele>150.0</ele><time>2026-08-11T04:44:49Z</time></trkpt>
<trkpt lat="34.8562677" lon="134.0826866"><ele>150.0</ele><time>2026-08-11T04:44:50Z</time></trkpt>
<trkpt lat="34.8562509" lon="134.0826912"><ele>150.0</ele><time>2026-08-11T04:44:51Z</time></trkpt>
<trkpt lat="34.8562342" lon="134.0826958"><ele>150.0</ele><time>2026-08-11T04:44:52Z</time></trkpt>
<trkpt lat="34.8562211" lon="134.082697"><ele>150.0</ele><time>2026-08-11T04:44:53Z</time></trkpt>
<trkpt lat="34.8562081" lon="134.0826983"><ele>151.0</ele><time>2026-08-11T04:44:54Z</time></trkpt>
<trkpt lat="34.8561973" lon="134.082696"><ele>151.0</ele><time>2026-08-11T04:44:55Z</time></trkpt>
<trkpt lat="34.8561866" lon="134.0826937"><ele>151.0</ele><time>2026-08-11T04:44:56Z</time></trkpt>
<trkpt lat="34.8561747" lon="134.0826878"><ele>152.0</ele><time>2026-08-11T04:44:57Z</time></trkpt>
<trkpt lat="34.8561629" lon="134.082682"><ele>152.0</ele><time>2026-08-11T04:44:58Z</time></trkpt>
<trkpt lat="34.8561498" lon="134.0826737"><ele>153.0</ele><time>2026-08-11T04:44:59Z</time></trkpt>
<trkpt lat="34.8561367" lon="134.0826655"><ele>153.0</ele><time>2026-08-11T04:45:00Z</time></trkpt>
<trkpt lat="34.8561244" lon="134.0826552"><ele>153.0</ele><time>2026-08-11T04:45:01Z</time></trkpt>
<trkpt lat="34.8561122" lon="134.0826449"><ele>154.0</ele><time>2026-08-11T04:45:02Z</time></trkpt>
<trkpt lat="34.856104" lon="134.0826322"><ele>154.0</ele><time>2026-08-11T04:45:03Z</time></trkpt>
<trkpt lat="34.8560958" lon="134.0826196"><ele>155.0</ele><time>2026-08-11T04:45:04Z</time></trkpt>
<trkpt lat="34.8560882" lon="134.0826063"><ele>155.0</ele><time>2026-08-11T04:45:05Z</time></trkpt>
<trkpt lat="34.8560807" lon="134.0825931"><ele>155.0</ele><time>2026-08-11T04:45:06Z</time></trkpt>
<trkpt lat="34.8560736" lon="134.0825829"><ele>155.0</ele><time>2026-08-11T04:45:07Z</time></trkpt>
<trkpt lat="34.8560665" lon="134.0825728"><ele>155.0</ele><time>2026-08-11T04:45:08Z</time></trkpt>
<trkpt lat="34.8560598" lon="134.0825653"><ele>156.0</ele><time>2026-08-11T04:45:09Z</time></trkpt>
<trkpt lat="34.8560532" lon="134.0825578"><ele>156.0</ele><time>2026-08-11T04:45:10Z</time></trkpt>
<trkpt lat="34.8560453" lon="134.0825535"><ele>156.0</ele><time>2026-08-11T04:45:11Z</time></trkpt>
<trkpt lat="34.8560375" lon="134.0825492"><ele>157.0</ele><time>2026-08-11T04:45:12Z</time></trkpt>
<trkpt lat="34.8560292" lon="134.0825453"><ele>157.0</ele><time>2026-08-11T04:45:13Z</time></trkpt>
<trkpt lat="34.856021" lon="134.0825414"><ele>158.0</ele><time>2026-08-11T04:45:14Z</time></trkpt>
<trkpt lat="34.8560111" lon="134.0825384"><ele>158.0</ele><time>2026-08-11T04:45:15Z</time></trkpt>
<trkpt lat="34.8560013" lon="134.0825354"><ele>158.0</ele><time>2026-08-11T04:45:16Z</time></trkpt>
<trkpt lat="34.8559908" lon="134.0825338"><ele>159.0</ele><time>2026-08-11T04:45:17Z</time></trkpt>
<trkpt lat="34.8559803" lon="134.0825322"><ele>159.0</ele><time>2026-08-11T04:45:18Z</time></trkpt>
<trkpt lat="34.8559685" lon="134.0825275"><ele>160.0</ele><time>2026-08-11T04:45:19Z</time></trkpt>
<trkpt lat="34.8559567" lon="134.0825229"><ele>160.0</ele><time>2026-08-11T04:45:20Z</time></trkpt>
<trkpt lat="34.8559446" lon="134.0825183"><ele>160.0</ele><time>2026-08-11T04:45:21Z</time></trkpt>
<trkpt lat="34.8559325" lon="134.0825138"><ele>161.0</ele><time>2026-08-11T04:45:22Z</time></trkpt>
<trkpt lat="34.8559204" lon="134.0825122"><ele>161.0</ele><time>2026-08-11T04:45:23Z</time></trkpt>
<trkpt lat="34.8559084" lon="134.0825106"><ele>162.0</ele><time>2026-08-11T04:45:24Z</time></trkpt>
<trkpt lat="34.8558969" lon="134.0825111"><ele>162.0</ele><time>2026-08-11T04:45:25Z</time></trkpt>
<trkpt lat="34.8558855" lon="134.0825117"><ele>162.0</ele><time>2026-08-11T04:45:26Z</time></trkpt>
<trkpt lat="34.8558713" lon="134.0825133"><ele>162.0</ele><time>2026-08-11T04:45:27Z</time></trkpt>
<trkpt lat="34.8558572" lon="134.082515"><ele>162.0</ele><time>2026-08-11T04:45:28Z</time></trkpt>
<trkpt lat="34.8558424" lon="134.0825172"><ele>163.0</ele><time>2026-08-11T04:45:29Z</time></trkpt>
<trkpt lat="34.8558277" lon="134.0825194"><ele>163.0</ele><time>2026-08-11T04:45:30Z</time></trkpt>
<trkpt lat="34.8558159" lon="134.082523"><ele>163.0</ele><time>2026-08-11T04:45:31Z</time></trkpt>
<trkpt lat="34.8558041" lon="134.0825266"><ele>163.0</ele><time>2026-08-11T04:45:32Z</time></trkpt>
<trkpt lat="34.8557907" lon="134.0825363"><ele>163.0</ele><time>2026-08-11T04:45:33Z</time></trkpt>
<trkpt lat="34.8557773" lon="134.0825461"><ele>164.0</ele><time>2026-08-11T04:45:34Z</time></trkpt>
<trkpt lat="34.85576" lon="134.0825562"><ele>164.0</ele><time>2026-08-11T04:45:35Z</time></trkpt>
<trkpt lat="34.8557428" lon="134.0825663"><ele>164.0</ele><time>2026-08-11T04:45:36Z</time></trkpt>
<trkpt lat="34.8557219" lon="134.0825723"><ele>164.0</ele><time>2026-08-11T04:45:37Z</time></trkpt>
<trkpt lat="34.8557011" lon="134.0825783"><ele>164.0</ele><time>2026-08-11T04:45:38Z</time></trkpt>
<trkpt lat="34.8556796" lon="134.0825806"><ele>164.0</ele><time>2026-08-11T04:45:39Z</time></trkpt>
<trkpt lat="34.8556582" lon="134.0825829"><ele>164.0</ele><time>2026-08-11T04:45:40Z</time></trkpt>
<trkpt lat="34.8556399" lon="134.0825872"><ele>164.0</ele><time>2026-08-11T04:45:41Z</time></trkpt>
<trkpt lat="34.8556217" lon="134.0825915"><ele>164.0</ele><time>2026-08-11T04:45:42Z</time></trkpt>
<trkpt lat="34.8556054" lon="134.0825989"><ele>164.0</ele><time>2026-08-11T04:45:43Z</time></trkpt>
<trkpt lat="34.8555892" lon="134.0826064"><ele>164.0</ele><time>2026-08-11T04:45:44Z</time></trkpt>
<trkpt lat="34.8555723" lon="134.0826187"><ele>163.0</ele><time>2026-08-11T04:45:45Z</time></trkpt>
<trkpt lat="34.8555555" lon="134.082631"><ele>163.0</ele><time>2026-08-11T04:45:46Z</time></trkpt>
<trkpt lat="34.8555369" lon="134.0826435"><ele>163.0</ele><time>2026-08-11T04:45:47Z</time></trkpt>
<trkpt lat="34.8555184" lon="134.082656"><ele>163.0</ele><time>2026-08-11T04:45:48Z</time></trkpt>
<trkpt lat="34.8554996" lon="134.0826654"><ele>163.0</ele><time>2026-08-11T04:45:49Z</time></trkpt>
<trkpt lat="34.8554808" lon="134.0826749"><ele>162.0</ele><time>2026-08-11T04:45:50Z</time></trkpt>
<trkpt lat="34.8554628" lon="134.0826843"><ele>162.0</ele><time>2026-08-11T04:45:51Z</time></trkpt>
<trkpt lat="34.8554449" lon="134.0826938"><ele>162.0</ele><time>2026-08-11T04:45:52Z</time></trkpt>
<trkpt lat="34.8554286" lon="134.0827064"><ele>162.0</ele><time>2026-08-11T04:45:53Z</time></trkpt>
<trkpt lat="34.8554124" lon="134.082719"><ele>162.0</ele><time>2026-08-11T04:45:54Z</time></trkpt>
<trkpt lat="34.855396" lon="134.0827309"><ele>161.0</ele><time>2026-08-11T04:45:55Z</time></trkpt>
<trkpt lat="34.8553797" lon="134.0827429"><ele>161.0</ele><time>2026-08-11T04:45:56Z</time></trkpt>
<trkpt lat="34.8553611" lon="134.0827534"><ele>161.0</ele><time>2026-08-11T04:45:57Z</time></trkpt>
<trkpt lat="34.8553426" lon="134.082764"><ele>161.0</ele><time>2026-08-11T04:45:58Z</time></trkpt>
<trkpt lat="34.8553236" lon="134.0827726"><ele>161.0</ele><time>2026-08-11T04:45:59Z</time></trkpt>
<trkpt lat="34.8553047" lon="134.0827812"><ele>160.0</ele><time>2026-08-11T04:46:00Z</time></trkpt>
<trkpt lat="34.8552858" lon="134.082788"><ele>160.0</ele><time>2026-08-11T04:46:01Z</time></trkpt>
<trkpt lat="34.8552669" lon="134.0827948"><ele>159.0</ele><time>2026-08-11T04:46:02Z</time></trkpt>
<trkpt lat="34.8552473" lon="134.0828033"><ele>159.0</ele><time>2026-08-11T04:46:03Z</time></trkpt>
<trkpt lat="34.8552277" lon="134.0828119"><ele>159.0</ele><time>2026-08-11T04:46:04Z</time></trkpt>
<trkpt lat="34.8552083" lon="134.0828233"><ele>159.0</ele><time>2026-08-11T04:46:05Z</time></trkpt>
<trkpt lat="34.8551889" lon="134.0828348"><ele>159.0</ele><time>2026-08-11T04:46:06Z</time></trkpt>
<trkpt lat="34.8551711" lon="134.0828453"><ele>159.0</ele><time>2026-08-11T04:46:07Z</time></trkpt>
<trkpt lat="34.8551533" lon="134.0828558"><ele>159.0</ele><time>2026-08-11T04:46:08Z</time></trkpt>
<trkpt lat="34.8551361" lon="134.0828636"><ele>159.0</ele><time>2026-08-11T04:46:09Z</time></trkpt>
<trkpt lat="34.8551189" lon="134.0828714"><ele>158.0</ele><time>2026-08-11T04:46:10Z</time></trkpt>
<trkpt lat="34.855103" lon="134.0828776"><ele>158.0</ele><time>2026-08-11T04:46:11Z</time></trkpt>
<trkpt lat="34.8550872" lon="134.0828838"><ele>158.0</ele><time>2026-08-11T04:46:12Z</time></trkpt>
<trkpt lat="34.855071" lon="134.0828912"><ele>158.0</ele><time>2026-08-11T04:46:13Z</time></trkpt>
<trkpt lat="34.8550549" lon="134.0828986"><ele>158.0</ele><time>2026-08-11T04:46:14Z</time></trkpt>
<trkpt lat="34.8550367" lon="134.0829045"><ele>158.0</ele><time>2026-08-11T04:46:15Z</time></trkpt>
<trkpt lat="34.8550186" lon="134.0829105"><ele>158.0</ele><time>2026-08-11T04:46:16Z</time></trkpt>
<trkpt lat="34.8549986" lon="134.0829174"><ele>158.0</ele><time>2026-08-11T04:46:17Z</time></trkpt>
<trkpt lat="34.8549786" lon="134.0829244"><ele>158.0</ele><time>2026-08-11T04:46:18Z</time></trkpt>
<trkpt lat="34.8549561" lon="134.0829335"><ele>158.0</ele><time>2026-08-11T04:46:19Z</time></trkpt>
<trkpt lat="34.8549337" lon="134.0829426"><ele>157.0</ele><time>2026-08-11T04:46:20Z</time></trkpt>
<trkpt lat="34.8549107" lon="134.0829532"><ele>157.0</ele><time>2026-08-11T04:46:21Z</time></trkpt>
<trkpt lat="34.8548877" lon="134.0829639"><ele>157.0</ele><time>2026-08-11T04:46:22Z</time></trkpt>
<trkpt lat="34.8548634" lon="134.082975"><ele>157.0</ele><time>2026-08-11T04:46:23Z</time></trkpt>
<trkpt lat="34.8548392" lon="134.0829861"><ele>157.0</ele><time>2026-08-11T04:46:24Z</time></trkpt>
<trkpt lat="34.8548133" lon="134.0829974"><ele>156.0</ele><time>2026-08-11T04:46:25Z</time></trkpt>
<trkpt lat="34.8547875" lon="134.0830088"><ele>156.0</ele><time>2026-08-11T04:46:26Z</time></trkpt>
<trkpt lat="34.854761" lon="134.0830204"><ele>155.0</ele><time>2026-08-11T04:46:27Z</time></trkpt>
<trkpt lat="34.8547346" lon="134.0830321"><ele>155.0</ele><time>2026-08-11T04:46:28Z</time></trkpt>
<trkpt lat="34.8547093" lon="134.0830455"><ele>155.0</ele><time>2026-08-11T04:46:29Z</time></trkpt>
<trkpt lat="34.854684" lon="134.083059"><ele>154.0</ele><time>2026-08-11T04:46:30Z</time></trkpt>
<trkpt lat="34.8546627" lon="134.0830754"><ele>154.0</ele><time>2026-08-11T04:46:31Z</time></trkpt>
<trkpt lat="34.8546415" lon="134.0830919"><ele>154.0</ele><time>2026-08-11T04:46:32Z</time></trkpt>
<trkpt lat="34.8546193" lon="134.0831055"><ele>154.0</ele><time>2026-08-11T04:46:33Z</time></trkpt>
<trkpt lat="34.8545972" lon="134.0831191"><ele>154.0</ele><time>2026-08-11T04:46:34Z</time></trkpt>
<trkpt lat="34.8545735" lon="134.0831316"><ele>153.0</ele><time>2026-08-11T04:46:35Z</time></trkpt>
<trkpt lat="34.8545498" lon="134.0831442"><ele>153.0</ele><time>2026-08-11T04:46:36Z</time></trkpt>
<trkpt lat="34.8545279" lon="134.0831624"><ele>152.0</ele><time>2026-08-11T04:46:37Z</time></trkpt>
<trkpt lat="34.8545061" lon="134.0831806"><ele>152.0</ele><time>2026-08-11T04:46:38Z</time></trkpt>
<trkpt lat="34.8544858" lon="134.0832042"><ele>152.0</ele><time>2026-08-11T04:46:39Z</time></trkpt>
<trkpt lat="34.8544655" lon="134.0832278"><ele>151.0</ele><time>2026-08-11T04:46:40Z</time></trkpt>
<trkpt lat="34.854447" lon="134.0832513"><ele>151.0</ele><time>2026-08-11T04:46:41Z</time></trkpt>
<trkpt lat="34.8544286" lon="134.0832749"><ele>151.0</ele><time>2026-08-11T04:46:42Z</time></trkpt>
<trkpt lat="34.8544105" lon="134.0832932"><ele>151.0</ele><time>2026-08-11T04:46:43Z</time></trkpt>
<trkpt lat="34.8543924" lon="134.0833115"><ele>151.0</ele><time>2026-08-11T04:46:44Z</time></trkpt>
<trkpt lat="34.8543758" lon="134.0833213"><ele>150.0</ele><time>2026-08-11T04:46:45Z</time></trkpt>
<trkpt lat="34.8543592" lon="134.0833311"><ele>150.0</ele><time>2026-08-11T04:46:46Z</time></trkpt>
<trkpt lat="34.8543476" lon="134.083338"><ele>149.0</ele><time>2026-08-11T04:46:47Z</time></trkpt>
<trkpt lat="34.8543361" lon="134.083345"><ele>149.0</ele><time>2026-08-11T04:46:48Z</time></trkpt>
<trkpt lat="34.8543235" lon="134.0833549"><ele>149.0</ele><time>2026-08-11T04:46:49Z</time></trkpt>
<trkpt lat="34.8543109" lon="134.0833648"><ele>148.0</ele><time>2026-08-11T04:46:50Z</time></trkpt>
<trkpt lat="34.8542949" lon="134.0833772"><ele>148.0</ele><time>2026-08-11T04:46:51Z</time></trkpt>
<trkpt lat="34.854279" lon="134.0833896"><ele>147.0</ele><time>2026-08-11T04:46:52Z</time></trkpt>
<trkpt lat="34.8542611" lon="134.0834022"><ele>147.0</ele><time>2026-08-11T04:46:53Z</time></trkpt>
<trkpt lat="34.8542432" lon="134.0834148"><ele>147.0</ele><time>2026-08-11T04:46:54Z</time></trkpt>
<trkpt lat="34.8542265" lon="134.0834282"><ele>146.0</ele><time>2026-08-11T04:46:55Z</time></trkpt>
<trkpt lat="34.8542099" lon="134.0834416"><ele>146.0</ele><time>2026-08-11T04:46:56Z</time></trkpt>
<trkpt lat="34.8541961" lon="134.0834567"><ele>145.0</ele><time>2026-08-11T04:46:57Z</time></trkpt>
<trkpt lat="34.8541824" lon="134.0834719"><ele>145.0</ele><time>2026-08-11T04:46:58Z</time></trkpt>
<trkpt lat="34.8541726" lon="134.0834902"><ele>145.0</ele><time>2026-08-11T04:46:59Z</time></trkpt>
<trkpt lat="34.8541629" lon="134.0835086"><ele>144.0</ele><time>2026-08-11T04:47:00Z</time></trkpt>
<trkpt lat="34.8541568" lon="134.0835281"><ele>143.0</ele><time>2026-08-11T04:47:01Z</time></trkpt>
<trkpt lat="34.8541508" lon="134.0835476"><ele>143.0</ele><time>2026-08-11T04:47:02Z</time></trkpt>
<trkpt lat="34.8541465" lon="134.0835661"><ele>142.0</ele><time>2026-08-11T04:47:03Z</time></trkpt>
<trkpt lat="34.8541422" lon="134.0835847"><ele>142.0</ele><time>2026-08-11T04:47:04Z</time></trkpt>
<trkpt lat="34.8541357" lon="134.0836023"><ele>141.0</ele><time>2026-08-11T04:47:05Z</time></trkpt>
<trkpt lat="34.8541292" lon="134.08362"><ele>140.0</ele><time>2026-08-11T04:47:06Z</time></trkpt>
<trkpt lat="34.8541217" lon="134.0836388"><ele>140.0</ele><time>2026-08-11T04:47:07Z</time></trkpt>
<trkpt lat="34.8541143" lon="134.0836577"><ele>139.0</ele><time>2026-08-11T04:47:08Z</time></trkpt>
<trkpt lat="34.8541053" lon="134.0836772"><ele>139.0</ele><time>2026-08-11T04:47:09Z</time></trkpt>
<trkpt lat="34.8540963" lon="134.0836968"><ele>138.0</ele><time>2026-08-11T04:47:10Z</time></trkpt>
<trkpt lat="34.8540866" lon="134.0837147"><ele>137.0</ele><time>2026-08-11T04:47:11Z</time></trkpt>
<trkpt lat="34.8540769" lon="134.0837327"><ele>136.0</ele><time>2026-08-11T04:47:12Z</time></trkpt>
<trkpt lat="34.8540698" lon="134.0837523"><ele>135.0</ele><time>2026-08-11T04:47:13Z</time></trkpt>
<trkpt lat="34.8540628" lon="134.0837719"><ele>135.0</ele><time>2026-08-11T04:47:14Z</time></trkpt>
<trkpt lat="34.854055" lon="134.0837904"><ele>134.0</ele><time>2026-08-11T04:47:15Z</time></trkpt>
<trkpt lat="34.8540472" lon="134.0838089"><ele>133.0</ele><time>2026-08-11T04:47:16Z</time></trkpt>
<trkpt lat="34.8540351" lon="134.0838259"><ele>132.0</ele><time>2026-08-11T04:47:17Z</time></trkpt>
<trkpt lat="34.854023" lon="134.0838429"><ele>131.0</ele><time>2026-08-11T04:47:18Z</time></trkpt>
<trkpt lat="34.8540092" lon="134.0838627"><ele>131.0</ele><time>2026-08-11T04:47:19Z</time></trkpt>
<trkpt lat="34.8539954" lon="134.0838825"><ele>130.0</ele><time>2026-08-11T04:47:20Z</time></trkpt>
<trkpt lat="34.8539825" lon="134.0839056"><ele>129.0</ele><time>2026-08-11T04:47:21Z</time></trkpt>
<trkpt lat="34.8539697" lon="134.0839287"><ele>128.0</ele><time>2026-08-11T04:47:22Z</time></trkpt>
<trkpt lat="34.8539586" lon="134.0839504"><ele>127.0</ele><time>2026-08-11T04:47:23Z</time></trkpt>
<trkpt lat="34.8539475" lon="134.0839722"><ele>127.0</ele><time>2026-08-11T04:47:24Z</time></trkpt>
<trkpt lat="34.8539385" lon="134.0839929"><ele>126.0</ele><time>2026-08-11T04:47:25Z</time></trkpt>
<trkpt lat="34.8539296" lon="134.0840137"><ele>125.0</ele><time>2026-08-11T04:47:26Z</time></trkpt>
<trkpt lat="34.8539227" lon="134.0840336"><ele>125.0</ele><time>2026-08-11T04:47:27Z</time></trkpt>
<trkpt lat="34.8539158" lon="134.0840536"><ele>124.0</ele><time>2026-08-11T04:47:28Z</time></trkpt>
<trkpt lat="34.85391" lon="134.0840746"><ele>124.0</ele><time>2026-08-11T04:47:29Z</time></trkpt>
<trkpt lat="34.8539043" lon="134.0840957"><ele>123.0</ele><time>2026-08-11T04:47:30Z</time></trkpt>
<trkpt lat="34.8538964" lon="134.0841161"><ele>122.0</ele><time>2026-08-11T04:47:31Z</time></trkpt>
<trkpt lat="34.8538885" lon="134.0841366"><ele>121.0</ele><time>2026-08-11T04:47:32Z</time></trkpt>
<trkpt lat="34.8538772" lon="134.0841573"><ele>120.0</ele><time>2026-08-11T04:47:33Z</time></trkpt>
<trkpt lat="34.853866" lon="134.0841781"><ele>120.0</ele><time>2026-08-11T04:47:34Z</time></trkpt>
<trkpt lat="34.8538552" lon="134.0842019"><ele>119.0</ele><time>2026-08-11T04:47:35Z</time></trkpt>
<trkpt lat="34.8538444" lon="134.0842258"><ele>118.0</ele><time>2026-08-11T04:47:36Z</time></trkpt>
<trkpt lat="34.8538334" lon="134.0842511"><ele>117.0</ele><time>2026-08-11T04:47:37Z</time></trkpt>
<trkpt lat="34.8538225" lon="134.0842765"><ele>116.0</ele><time>2026-08-11T04:47:38Z</time></trkpt>
<trkpt lat="34.8538076" lon="134.084298"><ele>116.0</ele><time>2026-08-11T04:47:39Z</time></trkpt>
<trkpt lat="34.8537928" lon="134.0843195"><ele>115.0</ele><time>2026-08-11T04:47:40Z</time></trkpt>
<trkpt lat="34.8537744" lon="134.0843351"><ele>114.0</ele><time>2026-08-11T04:47:41Z</time></trkpt>
<trkpt lat="34.8537561" lon="134.0843507"><ele>114.0</ele><time>2026-08-11T04:47:42Z</time></trkpt>
<trkpt lat="34.8537392" lon="134.084364"><ele>113.0</ele><time>2026-08-11T04:47:43Z</time></trkpt>
<trkpt lat="34.8537223" lon="134.0843774"><ele>113.0</ele><time>2026-08-11T04:47:44Z</time></trkpt>
<trkpt lat="34.8537062" lon="134.0843908"><ele>112.0</ele><time>2026-08-11T04:47:45Z</time></trkpt>
<trkpt lat="34.8536902" lon="134.0844043"><ele>111.0</ele><time>2026-08-11T04:47:46Z</time></trkpt>
<trkpt lat="34.8536753" lon="134.0844129"><ele>111.0</ele><time>2026-08-11T04:47:47Z</time></trkpt>
<trkpt lat="34.8536604" lon="134.0844216"><ele>110.0</ele><time>2026-08-11T04:47:48Z</time></trkpt>
<trkpt lat="34.8536457" lon="134.0844234"><ele>110.0</ele><time>2026-08-11T04:47:49Z</time></trkpt>
<trkpt lat="34.8536311" lon="134.0844253"><ele>109.0</ele><time>2026-08-11T04:47:50Z</time></trkpt>
<trkpt lat="34.8536155" lon="134.084421"><ele>108.0</ele><time>2026-08-11T04:47:51Z</time></trkpt>
<trkpt lat="34.8536" lon="134.0844168"><ele>107.0</ele><time>2026-08-11T04:47:52Z</time></trkpt>
<trkpt lat="34.8535858" lon="134.0844064"><ele>106.0</ele><time>2026-08-11T04:47:53Z</time></trkpt>
<trkpt lat="34.8535717" lon="134.0843961"><ele>106.0</ele><time>2026-08-11T04:47:54Z</time></trkpt>
<trkpt lat="34.8535582" lon="134.0843811"><ele>105.0</ele><time>2026-08-11T04:47:55Z</time></trkpt>
<trkpt lat="34.8535448" lon="134.0843662"><ele>104.0</ele><time>2026-08-11T04:47:56Z</time></trkpt>
<trkpt lat="34.8535317" lon="134.0843447"><ele>104.0</ele><time>2026-08-11T04:47:57Z</time></trkpt>
<trkpt lat="34.8535186" lon="134.0843233"><ele>103.0</ele><time>2026-08-11T04:47:58Z</time></trkpt>
<trkpt lat="34.8535092" lon="134.0842969"><ele>103.0</ele><time>2026-08-11T04:47:59Z</time></trkpt>
<trkpt lat="34.8534998" lon="134.0842706"><ele>102.0</ele><time>2026-08-11T04:48:00Z</time></trkpt>
<trkpt lat="34.8534934" lon="134.0842431"><ele>102.0</ele><time>2026-08-11T04:48:01Z</time></trkpt>
<trkpt lat="34.853487" lon="134.0842157"><ele>101.0</ele><time>2026-08-11T04:48:02Z</time></trkpt>
<trkpt lat="34.8534804" lon="134.0841885"><ele>101.0</ele><time>2026-08-11T04:48:03Z</time></trkpt>
<trkpt lat="34.8534739" lon="134.0841614"><ele>101.0</ele><time>2026-08-11T04:48:04Z</time></trkpt>
<trkpt lat="34.8534644" lon="134.0841397"><ele>100.0</ele><time>2026-08-11T04:48:05Z</time></trkpt>
<trkpt lat="34.853455" lon="134.0841181"><ele>100.0</ele><time>2026-08-11T04:48:06Z</time></trkpt>
<trkpt lat="34.8534469" lon="134.0841057"><ele>99.0</ele><time>2026-08-11T04:48:07Z</time></trkpt>
<trkpt lat="34.8534389" lon="134.0840934"><ele>99.0</ele><time>2026-08-11T04:48:08Z</time></trkpt>
<trkpt lat="34.8534321" lon="134.0840906"><ele>99.0</ele><time>2026-08-11T04:48:09Z</time></trkpt>
<trkpt lat="34.8534254" lon="134.0840878"><ele>98.0</ele><time>2026-08-11T04:48:10Z</time></trkpt>
<trkpt lat="34.8534157" lon="134.0840941"><ele>97.0</ele><time>2026-08-11T04:48:11Z</time></trkpt>
<trkpt lat="34.853406" lon="134.0841004"><ele>97.0</ele><time>2026-08-11T04:48:12Z</time></trkpt>
<trkpt lat="34.8533938" lon="134.084111"><ele>96.0</ele><time>2026-08-11T04:48:13Z</time></trkpt>
<trkpt lat="34.8533816" lon="134.0841217"><ele>96.0</ele><time>2026-08-11T04:48:14Z</time></trkpt>
<trkpt lat="34.8533705" lon="134.0841333"><ele>95.0</ele><time>2026-08-11T04:48:15Z</time></trkpt>
<trkpt lat="34.8533595" lon="134.084145"><ele>95.0</ele><time>2026-08-11T04:48:16Z</time></trkpt>
<trkpt lat="34.8533504" lon="134.084153"><ele>94.0</ele><time>2026-08-11T04:48:17Z</time></trkpt>
<trkpt lat="34.8533413" lon="134.084161"><ele>94.0</ele><time>2026-08-11T04:48:18Z</time></trkpt>
<trkpt lat="34.8533314" lon="134.0841673"><ele>94.0</ele><time>2026-08-11T04:48:19Z</time></trkpt>
<trkpt lat="34.8533215" lon="134.0841736"><ele>93.0</ele><time>2026-08-11T04:48:20Z</time></trkpt>
<trkpt lat="34.8533078" lon="134.0841835"><ele>92.0</ele><time>2026-08-11T04:48:21Z</time></trkpt>
<trkpt lat="34.8532942" lon="134.0841934"><ele>92.0</ele><time>2026-08-11T04:48:22Z</time></trkpt>
<trkpt lat="34.8532802" lon="134.0842025"><ele>91.0</ele><time>2026-08-11T04:48:23Z</time></trkpt>
<trkpt lat="34.8532663" lon="134.0842117"><ele>91.0</ele><time>2026-08-11T04:48:24Z</time></trkpt>
<trkpt lat="34.8532531" lon="134.0842159"><ele>90.0</ele><time>2026-08-11T04:48:25Z</time></trkpt>
<trkpt lat="34.85324" lon="134.0842202"><ele>90.0</ele><time>2026-08-11T04:48:26Z</time></trkpt>
<trkpt lat="34.8532273" lon="134.0842255"><ele>89.0</ele><time>2026-08-11T04:48:27Z</time></trkpt>
<trkpt lat="34.8532146" lon="134.0842308"><ele>89.0</ele><time>2026-08-11T04:48:28Z</time></trkpt>
<trkpt lat="34.8532008" lon="134.0842386"><ele>89.0</ele><time>2026-08-11T04:48:29Z</time></trkpt>
<trkpt lat="34.853187" lon="134.0842464"><ele>88.0</ele><time>2026-08-11T04:48:30Z</time></trkpt>
<trkpt lat="34.8531712" lon="134.0842577"><ele>87.0</ele><time>2026-08-11T04:48:31Z</time></trkpt>
<trkpt lat="34.8531555" lon="134.0842691"><ele>87.0</ele><time>2026-08-11T04:48:32Z</time></trkpt>
<trkpt lat="34.8531387" lon="134.0842802"><ele>86.0</ele><time>2026-08-11T04:48:33Z</time></trkpt>
<trkpt lat="34.8531219" lon="134.0842913"><ele>86.0</ele><time>2026-08-11T04:48:34Z</time></trkpt>
<trkpt lat="34.8531051" lon="134.084302"><ele>85.0</ele><time>2026-08-11T04:48:35Z</time></trkpt>
<trkpt lat="34.8530883" lon="134.0843128"><ele>85.0</ele><time>2026-08-11T04:48:36Z</time></trkpt>
<trkpt lat="34.8530753" lon="134.0843272"><ele>84.0</ele><time>2026-08-11T04:48:37Z</time></trkpt>
<trkpt lat="34.8530624" lon="134.0843417"><ele>84.0</ele><time>2026-08-11T04:48:38Z</time></trkpt>
<trkpt lat="34.8530518" lon="134.0843589"><ele>84.0</ele><time>2026-08-11T04:48:39Z</time></trkpt>
<trkpt lat="34.8530412" lon="134.0843762"><ele>83.0</ele><time>2026-08-11T04:48:40Z</time></trkpt>
<trkpt lat="34.8530276" lon="134.0843907"><ele>82.0</ele><time>2026-08-11T04:48:41Z</time></trkpt>
<trkpt lat="34.8530141" lon="134.0844053"><ele>82.0</ele><time>2026-08-11T04:48:42Z</time></trkpt>
<trkpt lat="34.8529994" lon="134.0844145"><ele>81.0</ele><time>2026-08-11T04:48:43Z</time></trkpt>
<trkpt lat="34.8529848" lon="134.0844237"><ele>81.0</ele><time>2026-08-11T04:48:44Z</time></trkpt>
<trkpt lat="34.8529687" lon="134.084428"><ele>80.0</ele><time>2026-08-11T04:48:45Z</time></trkpt>
<trkpt lat="34.8529526" lon="134.0844324"><ele>80.0</ele><time>2026-08-11T04:48:46Z</time></trkpt>
<trkpt lat="34.8529343" lon="134.0844328"><ele>79.0</ele><time>2026-08-11T04:48:47Z</time></trkpt>
<trkpt lat="34.8529161" lon="134.0844333"><ele>79.0</ele><time>2026-08-11T04:48:48Z</time></trkpt>
<trkpt lat="34.8529025" lon="134.0844337"><ele>79.0</ele><time>2026-08-11T04:48:49Z</time></trkpt>
<trkpt lat="34.8528889" lon="134.0844342"><ele>78.0</ele><time>2026-08-11T04:48:50Z</time></trkpt>
<trkpt lat="34.8528826" lon="134.0844425"><ele>78.0</ele><time>2026-08-11T04:48:51Z</time></trkpt>
<trkpt lat="34.8528764" lon="134.0844508"><ele>77.0</ele><time>2026-08-11T04:48:52Z</time></trkpt>
<trkpt lat="34.8528688" lon="134.0844655"><ele>77.0</ele><time>2026-08-11T04:48:53Z</time></trkpt>
<trkpt lat="34.8528612" lon="134.0844802"><ele>77.0</ele><time>2026-08-11T04:48:54Z</time></trkpt>
<trkpt lat="34.8528493" lon="134.0844939"><ele>76.0</ele><time>2026-08-11T04:48:55Z</time></trkpt>
<trkpt lat="34.8528375" lon="134.0845077"><ele>76.0</ele><time>2026-08-11T04:48:56Z</time></trkpt>
<trkpt lat="34.8528235" lon="134.0845171"><ele>75.0</ele><time>2026-08-11T04:48:57Z</time></trkpt>
<trkpt lat="34.8528095" lon="134.0845265"><ele>75.0</ele><time>2026-08-11T04:48:58Z</time></trkpt>
<trkpt lat="34.8527932" lon="134.0845305"><ele>75.0</ele><time>2026-08-11T04:48:59Z</time></trkpt>
<trkpt lat="34.8527769" lon="134.0845346"><ele>74.0</ele><time>2026-08-11T04:49:00Z</time></trkpt>
<trkpt lat="34.8527594" lon="134.0845349"><ele>73.0</ele><time>2026-08-11T04:49:01Z</time></trkpt>
<trkpt lat="34.8527419" lon="134.0845352"><ele>73.0</ele><time>2026-08-11T04:49:02Z</time></trkpt>
<trkpt lat="34.8527249" lon="134.0845343"><ele>72.0</ele><time>2026-08-11T04:49:03Z</time></trkpt>
<trkpt lat="34.852708" lon="134.0845334"><ele>72.0</ele><time>2026-08-11T04:49:04Z</time></trkpt>
<trkpt lat="34.8526902" lon="134.0845372"><ele>71.0</ele><time>2026-08-11T04:49:05Z</time></trkpt>
<trkpt lat="34.8526724" lon="134.084541"><ele>71.0</ele><time>2026-08-11T04:49:06Z</time></trkpt>
<trkpt lat="34.8526525" lon="134.0845505"><ele>70.0</ele><time>2026-08-11T04:49:07Z</time></trkpt>
<trkpt lat="34.8526327" lon="134.0845601"><ele>70.0</ele><time>2026-08-11T04:49:08Z</time></trkpt>
<trkpt lat="34.8526123" lon="134.0845727"><ele>70.0</ele><time>2026-08-11T04:49:09Z</time></trkpt>
<trkpt lat="34.852592" lon="134.0845853"><ele>69.0</ele><time>2026-08-11T04:49:10Z</time></trkpt>
<trkpt lat="34.8525706" lon="134.0845975"><ele>69.0</ele><time>2026-08-11T04:49:11Z</time></trkpt>
<trkpt lat="34.8525492" lon="134.0846098"><ele>69.0</ele><time>2026-08-11T04:49:12Z</time></trkpt>
<trkpt lat="34.8525286" lon="134.0846174"><ele>69.0</ele><time>2026-08-11T04:49:13Z</time></trkpt>
<trkpt lat="34.852508" lon="134.084625"><ele>69.0</ele><time>2026-08-11T04:49:14Z</time></trkpt>
<trkpt lat="34.8524903" lon="134.0846286"><ele>68.0</ele><time>2026-08-11T04:49:15Z</time></trkpt>
<trkpt lat="34.8524726" lon="134.0846323"><ele>68.0</ele><time>2026-08-11T04:49:16Z</time></trkpt>
<trkpt lat="34.8524553" lon="134.0846351"><ele>68.0</ele><time>2026-08-11T04:49:17Z</time></trkpt>
<trkpt lat="34.852438" lon="134.0846379"><ele>68.0</ele><time>2026-08-11T04:49:18Z</time></trkpt>
<trkpt lat="34.852418" lon="134.0846416"><ele>68.0</ele><time>2026-08-11T04:49:19Z</time></trkpt>
<trkpt lat="34.8523981" lon="134.0846453"><ele>67.0</ele><time>2026-08-11T04:49:20Z</time></trkpt>
<trkpt lat="34.8523738" lon="134.0846483"><ele>67.0</ele><time>2026-08-11T04:49:21Z</time></trkpt>
<trkpt lat="34.8523495" lon="134.0846513"><ele>67.0</ele><time>2026-08-11T04:49:22Z</time></trkpt>
<trkpt lat="34.8523239" lon="134.0846525"><ele>67.0</ele><time>2026-08-11T04:49:23Z</time></trkpt>
<trkpt lat="34.8522984" lon="134.0846538"><ele>67.0</ele><time>2026-08-11T04:49:24Z</time></trkpt>
<trkpt lat="34.8522735" lon="134.0846509"><ele>66.0</ele><time>2026-08-11T04:49:25Z</time></trkpt>
<trkpt lat="34.8522486" lon="134.084648"><ele>66.0</ele><time>2026-08-11T04:49:26Z</time></trkpt>
<trkpt lat="34.8522291" lon="134.0846428"><ele>66.0</ele><time>2026-08-11T04:49:27Z</time></trkpt>
<trkpt lat="34.8522096" lon="134.0846377"><ele>66.0</ele><time>2026-08-11T04:49:28Z</time></trkpt>
<trkpt lat="34.852191" lon="134.0846305"><ele>66.0</ele><time>2026-08-11T04:49:29Z</time></trkpt>
<trkpt lat="34.8521724" lon="134.0846234"><ele>66.0</ele><time>2026-08-11T04:49:30Z</time></trkpt>
<trkpt lat="34.8521518" lon="134.0846168"><ele>66.0</ele><time>2026-08-11T04:49:31Z</time></trkpt>
<trkpt lat="34.8521312" lon="134.0846102"><ele>66.0</ele><time>2026-08-11T04:49:32Z</time></trkpt>
<trkpt lat="34.8521147" lon="134.0846064"><ele>66.0</ele><time>2026-08-11T04:49:33Z</time></trkpt>
<trkpt lat="34.8520982" lon="134.0846026"><ele>66.0</ele><time>2026-08-11T04:49:34Z</time></trkpt>
<trkpt lat="34.8520844" lon="134.0846029"><ele>65.0</ele><time>2026-08-11T04:49:35Z</time></trkpt>
<trkpt lat="34.8520707" lon="134.0846032"><ele>65.0</ele><time>2026-08-11T04:49:36Z</time></trkpt>
<trkpt lat="34.852058" lon="134.0846086"><ele>65.0</ele><time>2026-08-11T04:49:37Z</time></trkpt>
<trkpt lat="34.8520453" lon="134.0846141"><ele>65.0</ele><time>2026-08-11T04:49:38Z</time></trkpt>
<trkpt lat="34.8520345" lon="134.0846227"><ele>65.0</ele><time>2026-08-11T04:49:39Z</time></trkpt>
<trkpt lat="34.8520237" lon="134.0846313"><ele>64.0</ele><time>2026-08-11T04:49:40Z</time></trkpt>
<trkpt lat="34.852012" lon="134.0846443"><ele>63.0</ele><time>2026-08-11T04:49:41Z</time></trkpt>
<trkpt lat="34.8520004" lon="134.0846574"><ele>63.0</ele><time>2026-08-11T04:49:42Z</time></trkpt>
<trkpt lat="34.8519866" lon="134.0846739"><ele>62.0</ele><time>2026-08-11T04:49:43Z</time></trkpt>
<trkpt lat="34.8519728" lon="134.0846904"><ele>62.0</ele><time>2026-08-11T04:49:44Z</time></trkpt>
<trkpt lat="34.8519593" lon="134.0847058"><ele>61.0</ele><time>2026-08-11T04:49:45Z</time></trkpt>
<trkpt lat="34.8519459" lon="134.0847213"><ele>60.0</ele><time>2026-08-11T04:49:46Z</time></trkpt>
<trkpt lat="34.8519328" lon="134.084736"><ele>60.0</ele><time>2026-08-11T04:49:47Z</time></trkpt>
<trkpt lat="34.8519197" lon="134.0847507"><ele>59.0</ele><time>2026-08-11T04:49:48Z</time></trkpt>
<trkpt lat="34.8519091" lon="134.0847635"><ele>59.0</ele><time>2026-08-11T04:49:49Z</time></trkpt>
<trkpt lat="34.8518986" lon="134.0847764"><ele>58.0</ele><time>2026-08-11T04:49:50Z</time></trkpt>
<trkpt lat="34.8518897" lon="134.0847913"><ele>55.0</ele><time>2026-08-11T04:49:57Z</time></trkpt>
<trkpt lat="34.851886" lon="134.0847938"><ele>55.0</ele><time>2026-08-11T04:49:58Z</time></trkpt>
<trkpt lat="34.8518824" lon="134.0847964"><ele>55.0</ele><time>2026-08-11T04:49:59Z</time></trkpt>
<trkpt lat="34.8518735" lon="134.0848019"><ele>54.0</ele><time>2026-08-11T04:50:00Z</time></trkpt>
<trkpt lat="34.8518646" lon="134.0848074"><ele>54.0</ele><time>2026-08-11T04:50:01Z</time></trkpt>
<trkpt lat="34.8518493" lon="134.0848181"><ele>53.0</ele><time>2026-08-11T04:50:02Z</time></trkpt>
<trkpt lat="34.8518341" lon="134.0848288"><ele>53.0</ele><time>2026-08-11T04:50:03Z</time></trkpt>
<trkpt lat="34.8518165" lon="134.0848421"><ele>53.0</ele><time>2026-08-11T04:50:04Z</time></trkpt>
<trkpt lat="34.8517989" lon="134.0848554"><ele>52.0</ele><time>2026-08-11T04:50:05Z</time></trkpt>
<trkpt lat="34.8517805" lon="134.0848693"><ele>51.0</ele><time>2026-08-11T04:50:06Z</time></trkpt>
<trkpt lat="34.8517622" lon="134.0848832"><ele>51.0</ele><time>2026-08-11T04:50:07Z</time></trkpt>
<trkpt lat="34.8517444" lon="134.0848985"><ele>50.0</ele><time>2026-08-11T04:50:08Z</time></trkpt>
<trkpt lat="34.8517266" lon="134.0849139"><ele>50.0</ele><time>2026-08-11T04:50:09Z</time></trkpt>
<trkpt lat="34.851711" lon="134.0849297"><ele>49.0</ele><time>2026-08-11T04:50:10Z</time></trkpt>
<trkpt lat="34.8516955" lon="134.0849455"><ele>48.0</ele><time>2026-08-11T04:50:11Z</time></trkpt>
<trkpt lat="34.8516818" lon="134.0849585"><ele>47.0</ele><time>2026-08-11T04:50:12Z</time></trkpt>
<trkpt lat="34.8516681" lon="134.0849715"><ele>46.0</ele><time>2026-08-11T04:50:13Z</time></trkpt>
<trkpt lat="34.851652" lon="134.0849851"><ele>46.0</ele><time>2026-08-11T04:50:14Z</time></trkpt>
<trkpt lat="34.8516359" lon="134.0849987"><ele>45.0</ele><time>2026-08-11T04:50:15Z</time></trkpt>
<trkpt lat="34.8516185" lon="134.0850152"><ele>44.0</ele><time>2026-08-11T04:50:16Z</time></trkpt>
<trkpt lat="34.8516011" lon="134.0850318"><ele>44.0</ele><time>2026-08-11T04:50:17Z</time></trkpt>
<trkpt lat="34.851583" lon="134.0850492"><ele>43.0</ele><time>2026-08-11T04:50:18Z</time></trkpt>
<trkpt lat="34.851565" lon="134.0850666"><ele>43.0</ele><time>2026-08-11T04:50:19Z</time></trkpt>
<trkpt lat="34.8515458" lon="134.0850813"><ele>42.0</ele><time>2026-08-11T04:50:20Z</time></trkpt>
<trkpt lat="34.8515267" lon="134.0850961"><ele>41.0</ele><time>2026-08-11T04:50:21Z</time></trkpt>
<trkpt lat="34.8515086" lon="134.0851101"><ele>41.0</ele><time>2026-08-11T04:50:22Z</time></trkpt>
<trkpt lat="34.8514905" lon="134.0851241"><ele>40.0</ele><time>2026-08-11T04:50:23Z</time></trkpt>
<trkpt lat="34.8514754" lon="134.0851382"><ele>40.0</ele><time>2026-08-11T04:50:24Z</time></trkpt>
<trkpt lat="34.8514603" lon="134.0851524"><ele>39.0</ele><time>2026-08-11T04:50:25Z</time></trkpt>
<trkpt lat="34.8514458" lon="134.0851655"><ele>38.0</ele><time>2026-08-11T04:50:26Z</time></trkpt>
<trkpt lat="34.8514313" lon="134.0851786"><ele>38.0</ele><time>2026-08-11T04:50:27Z</time></trkpt>
<trkpt lat="34.8514161" lon="134.0851892"><ele>37.0</ele><time>2026-08-11T04:50:28Z</time></trkpt>
<trkpt lat="34.851401" lon="134.0851998"><ele>37.0</ele><time>2026-08-11T04:50:29Z</time></trkpt>
<trkpt lat="34.851383" lon="134.0852113"><ele>36.0</ele><time>2026-08-11T04:50:30Z</time></trkpt>
<trkpt lat="34.851365" lon="134.0852229"><ele>35.0</ele><time>2026-08-11T04:50:31Z</time></trkpt>
<trkpt lat="34.8513473" lon="134.0852356"><ele>34.0</ele><time>2026-08-11T04:50:32Z</time></trkpt>
<trkpt lat="34.8513296" lon="134.0852483"><ele>33.0</ele><time>2026-08-11T04:50:33Z</time></trkpt>
<trkpt lat="34.851312" lon="134.0852618"><ele>33.0</ele><time>2026-08-11T04:50:34Z</time></trkpt>
<trkpt lat="34.8512945" lon="134.0852754"><ele>32.0</ele><time>2026-08-11T04:50:35Z</time></trkpt>
<trkpt lat="34.8512797" lon="134.0852814"><ele>32.0</ele><time>2026-08-11T04:50:36Z</time></trkpt>
<trkpt lat="34.8512649" lon="134.0852875"><ele>31.0</ele><time>2026-08-11T04:50:37Z</time></trkpt>
<trkpt lat="34.8512525" lon="134.0852864"><ele>31.0</ele><time>2026-08-11T04:50:38Z</time></trkpt>
<trkpt lat="34.8512401" lon="134.0852854"><ele>31.0</ele><time>2026-08-11T04:50:39Z</time></trkpt>
<trkpt lat="34.8512224" lon="134.0852813"><ele>30.0</ele><time>2026-08-11T04:50:40Z</time></trkpt>
<trkpt lat="34.8512047" lon="134.0852772"><ele>29.0</ele><time>2026-08-11T04:50:41Z</time></trkpt>
<trkpt lat="34.8511815" lon="134.0852761"><ele>29.0</ele><time>2026-08-11T04:50:42Z</time></trkpt>
<trkpt lat="34.8511584" lon="134.0852751"><ele>28.0</ele><time>2026-08-11T04:50:43Z</time></trkpt>
<trkpt lat="34.851133" lon="134.0852794"><ele>28.0</ele><time>2026-08-11T04:50:44Z</time></trkpt>
<trkpt lat="34.8511077" lon="134.0852838"><ele>27.0</ele><time>2026-08-11T04:50:45Z</time></trkpt>
<trkpt lat="34.8510815" lon="134.0852891"><ele>27.0</ele><time>2026-08-11T04:50:46Z</time></trkpt>
<trkpt lat="34.8510554" lon="134.0852944"><ele>26.0</ele><time>2026-08-11T04:50:47Z</time></trkpt>
<trkpt lat="34.8510292" lon="134.0853"><ele>26.0</ele><time>2026-08-11T04:50:48Z</time></trkpt>
<trkpt lat="34.8510031" lon="134.0853056"><ele>26.0</ele><time>2026-08-11T04:50:49Z</time></trkpt>
<trkpt lat="34.8509769" lon="134.0853085"><ele>25.0</ele><time>2026-08-11T04:50:50Z</time></trkpt>
<trkpt lat="34.8509508" lon="134.0853115"><ele>24.0</ele><time>2026-08-11T04:50:51Z</time></trkpt>
<trkpt lat="34.850946" lon="134.0853117"><ele>24.0</ele><time>2026-08-11T04:50:52Z</time></trkpt>
<trkpt lat="34.8509412" lon="134.0853119"><ele>23.0</ele><time>2026-08-11T04:50:53Z</time></trkpt>
<trkpt lat="34.8509364" lon="134.0853121"><ele>23.0</ele><time>2026-08-11T04:50:54Z</time></trkpt>
<trkpt lat="34.8509316" lon="134.0853123"><ele>22.0</ele><time>2026-08-11T04:50:55Z</time></trkpt>
<trkpt lat="34.8509268" lon="134.0853125"><ele>22.0</ele><time>2026-08-11T04:50:56Z</time></trkpt>
<trkpt lat="34.8509121" lon="134.0853115"><ele>22.0</ele><time>2026-08-11T04:50:57Z</time></trkpt>
<trkpt lat="34.8508975" lon="134.0853105"><ele>22.0</ele><time>2026-08-11T04:50:58Z</time></trkpt>
<trkpt lat="34.8508875" lon="134.0853103"><ele>22.0</ele><time>2026-08-11T04:50:59Z</time></trkpt>
<trkpt lat="34.8508776" lon="134.0853101"><ele>21.0</ele><time>2026-08-11T04:51:00Z</time></trkpt>
<trkpt lat="34.8508705" lon="134.0853183"><ele>21.0</ele><time>2026-08-11T04:51:01Z</time></trkpt>
<trkpt lat="34.8508634" lon="134.0853266"><ele>21.0</ele><time>2026-08-11T04:51:02Z</time></trkpt>
<trkpt lat="34.8508586" lon="134.0853479"><ele>21.0</ele><time>2026-08-11T04:51:03Z</time></trkpt>
<trkpt lat="34.8508539" lon="134.0853692"><ele>21.0</ele><time>2026-08-11T04:51:04Z</time></trkpt>
<trkpt lat="34.8508512" lon="134.0853976"><ele>21.0</ele><time>2026-08-11T04:51:05Z</time></trkpt>
<trkpt lat="34.8508485" lon="134.0854261"><ele>21.0</ele><time>2026-08-11T04:51:06Z</time></trkpt>
<trkpt lat="34.8508443" lon="134.0854523"><ele>21.0</ele><time>2026-08-11T04:51:07Z</time></trkpt>
<trkpt lat="34.8508402" lon="134.0854785"><ele>21.0</ele><time>2026-08-11T04:51:08Z</time></trkpt>
<trkpt lat="34.850832" lon="134.085496"><ele>21.0</ele><time>2026-08-11T04:51:09Z</time></trkpt>
<trkpt lat="34.8508238" lon="134.0855136"><ele>20.0</ele><time>2026-08-11T04:51:10Z</time></trkpt>
<trkpt lat="34.8508108" lon="134.0855208"><ele>20.0</ele><time>2026-08-11T04:51:11Z</time></trkpt>
<trkpt lat="34.8507978" lon="134.085528"><ele>19.0</ele><time>2026-08-11T04:51:12Z</time></trkpt>
<trkpt lat="34.8507826" lon="134.0855318"><ele>19.0</ele><time>2026-08-11T04:51:13Z</time></trkpt>
<trkpt lat="34.8507675" lon="134.0855357"><ele>19.0</ele><time>2026-08-11T04:51:14Z</time></trkpt>
<trkpt lat="34.850753" lon="134.0855426"><ele>18.0</ele><time>2026-08-11T04:51:15Z</time></trkpt>
<trkpt lat="34.8507386" lon="134.0855496"><ele>17.0</ele><time>2026-08-11T04:51:16Z</time></trkpt>
<trkpt lat="34.8507265" lon="134.0855607"><ele>17.0</ele><time>2026-08-11T04:51:17Z</time></trkpt>
<trkpt lat="34.8507144" lon="134.0855718"><ele>16.0</ele><time>2026-08-11T04:51:18Z</time></trkpt>
<trkpt lat="34.8506992" lon="134.0855838"><ele>16.0</ele><time>2026-08-11T04:51:19Z</time></trkpt>
<trkpt lat="34.8506841" lon="134.0855959"><ele>15.0</ele><time>2026-08-11T04:51:20Z</time></trkpt>
<trkpt lat="34.850667" lon="134.0856068"><ele>14.0</ele><time>2026-08-11T04:51:21Z</time></trkpt>
<trkpt lat="34.8506499" lon="134.0856177"><ele>14.0</ele><time>2026-08-11T04:51:22Z</time></trkpt>
<trkpt lat="34.8506325" lon="134.0856243"><ele>13.0</ele><time>2026-08-11T04:51:23Z</time></trkpt>
<trkpt lat="34.8506152" lon="134.0856309"><ele>13.0</ele><time>2026-08-11T04:51:24Z</time></trkpt>
<trkpt lat="34.8506045" lon="134.0856307"><ele>10.0</ele><time>2026-08-11T04:51:30Z</time></trkpt>
<trkpt lat="34.8506001" lon="134.0856326"><ele>10.0</ele><time>2026-08-11T04:51:31Z</time></trkpt>
<trkpt lat="34.8505957" lon="134.0856345"><ele>10.0</ele><time>2026-08-11T04:51:32Z</time></trkpt>
<trkpt lat="34.8505935" lon="134.085644"><ele>10.0</ele><time>2026-08-11T04:51:33Z</time></trkpt>
<trkpt lat="34.8505913" lon="134.0856536"><ele>10.0</ele><time>2026-08-11T04:51:34Z</time></trkpt>
<trkpt lat="34.8505847" lon="134.0856954"><ele>9.0</ele><time>2026-08-11T04:51:35Z</time></trkpt>
<trkpt lat="34.8505782" lon="134.0857373"><ele>8.0</ele><time>2026-08-11T04:51:36Z</time></trkpt>
<trkpt lat="34.8505943" lon="134.0857312"><ele>6.0</ele><time>2026-08-11T04:52:16Z</time></trkpt>
<trkpt lat="34.8505862" lon="134.0857389"><ele>6.0</ele><time>2026-08-11T04:52:17Z</time></trkpt>
<trkpt lat="34.8505781" lon="134.0857466"><ele>6.0</ele><time>2026-08-11T04:52:18Z</time></trkpt>
<trkpt lat="34.85057"   lon="134.0857543"><ele>6.0</ele><time>2026-08-11T04:52:19Z</time></trkpt>
<trkpt lat="34.85051864887769" lon="134.08582377440325"><ele>50.14</ele><time>2026-08-11T13:50:03Z</time></trkpt>
<trkpt lat="34.85086114539582" lon="134.08603191375735"><ele>49.65</ele><time>2026-08-11T13:50:05Z</time></trkpt>
<trkpt lat="34.851136727486015" lon="134.08631622791293"><ele>49.67</ele><time>2026-08-11T13:50:05Z</time></trkpt>
<trkpt lat="34.851316339176016" lon="134.0866241454751"><ele>50.46</ele><time>2026-08-11T13:50:06Z</time></trkpt>
<trkpt lat="34.8514968309745" lon="134.08711552619937"><ele>52.71</ele><time>2026-08-11T13:50:08Z</time></trkpt>
<trkpt lat="34.85191416179497" lon="134.0873891115189"><ele>55.52</ele><time>2026-08-11T13:50:08Z</time></trkpt>
<trkpt lat="34.85207616297713" lon="134.0875575542941"><ele>57.18</ele><time>2026-08-11T13:50:09Z</time></trkpt>
<trkpt lat="34.85208144547297" lon="134.08802533152996"><ele>57.67</ele><time>2026-08-11T13:50:09Z</time></trkpt>
<trkpt lat="34.85211490203341" lon="134.08848237952043"><ele>59.95</ele><time>2026-08-11T13:50:11Z</time></trkpt>
<trkpt lat="34.85216684833916" lon="134.08863580223627"><ele>60.27</ele><time>2026-08-11T13:50:12Z</time></trkpt>
<trkpt lat="34.85225577261638" lon="134.08876883981978"><ele>59.81</ele><time>2026-08-11T13:50:13Z</time></trkpt>
<trkpt lat="34.85241777326026" lon="134.08893513669685"><ele>59.95</ele><time>2026-08-11T13:50:15Z</time></trkpt>
<trkpt lat="34.8525868169593" lon="134.08919262884413"><ele>59.51</ele><time>2026-08-11T13:50:16Z</time></trkpt>
<trkpt lat="34.85270391478022" lon="134.0895112753242"><ele>57.63</ele><time>2026-08-11T13:50:17Z</time></trkpt>
<trkpt lat="34.85277963198145" lon="134.08987391001574"><ele>55.14</ele><time>2026-08-11T13:50:17Z</time></trkpt>
<trkpt lat="34.85279812112831" lon="134.0900627374322"><ele>54.06</ele><time>2026-08-11T13:50:17Z</time></trkpt>
<trkpt lat="34.85279547980268" lon="134.09034705158777"><ele>52.37</ele><time>2026-08-11T13:50:18Z</time></trkpt>
<trkpt lat="34.852927544771326" lon="134.09060776233676"><ele>52.03</ele><time>2026-08-11T13:50:18Z</time></trkpt>
<trkpt lat="34.852975087871684" lon="134.09080088138583"><ele>51.96</ele><time>2026-08-11T13:50:18Z</time></trkpt>
<trkpt lat="34.85296540321058" lon="134.09106910228732"><ele>50.6</ele><time>2026-08-11T13:50:19Z</time></trkpt>
<trkpt lat="34.8527884363792" lon="134.0913888217165"><ele>49.55</ele><time>2026-08-11T13:50:20Z</time></trkpt>
<trkpt lat="34.85226985968829" lon="134.0918190478624"><ele>47.31</ele><time>2026-08-11T13:50:23Z</time></trkpt>
<trkpt lat="34.85185957417553" lon="134.0921473503113"><ele>44.75</ele><time>2026-08-11T13:50:23Z</time></trkpt>
<trkpt lat="34.851522363874906" lon="134.0924971102686"><ele>42.75</ele><time>2026-08-11T13:50:24Z</time></trkpt>
<trkpt lat="34.85147658080234" lon="134.09267735491085"><ele>41.23</ele><time>2026-08-11T13:50:24Z</time></trkpt>
<trkpt lat="34.85149859197561" lon="134.09316122531894"><ele>41.54</ele><time>2026-08-11T13:50:27Z</time></trkpt>
<trkpt lat="34.851528527108066" lon="134.09344339390375"><ele>41.26</ele><time>2026-08-11T13:50:29Z</time></trkpt>
<trkpt lat="34.85140174263483" lon="134.0935614111004"><ele>40.29</ele><time>2026-08-11T13:50:30Z</time></trkpt>
<trkpt lat="34.85125646881297" lon="134.09374272836433"><ele>39.67</ele><time>2026-08-11T13:50:31Z</time></trkpt>
<trkpt lat="34.85117810856378" lon="134.09388113061144"><ele>38.8</ele><time>2026-08-11T13:50:33Z</time></trkpt>
<trkpt lat="34.85112528159946" lon="134.0939487218202"><ele>38.34</ele><time>2026-08-11T13:50:33Z</time></trkpt>
<trkpt lat="34.85110062894626" lon="134.09410858157574"><ele>37.24</ele><time>2026-08-11T13:50:35Z</time></trkpt>
<trkpt lat="34.851125281800975" lon="134.09439396949895"><ele>36.62</ele><time>2026-08-11T13:50:37Z</time></trkpt>
<trkpt lat="34.8507731005227" lon="134.09473085423087"><ele>35.17</ele><time>2026-08-11T13:50:39Z</time></trkpt>
<trkpt lat="34.85043148344474" lon="134.094614982605"><ele>34.3</ele><time>2026-08-11T13:50:40Z</time></trkpt>
<trkpt lat="34.84987679288924" lon="134.09445405006412"><ele>36.06</ele><time>2026-08-11T13:50:44Z</time></trkpt>
<trkpt lat="34.849345871458475" lon="134.09429740899216"><ele>35.92</ele><time>2026-08-11T13:50:47Z</time></trkpt>
<trkpt lat="34.848954061309065" lon="134.09430813782822"><ele>35.81</ele><time>2026-08-11T13:50:49Z</time></trkpt>
<trkpt lat="34.84861948052719" lon="134.094333887133"><ele>35.87</ele><time>2026-08-11T13:50:52Z</time></trkpt>
<trkpt lat="34.84828313728144" lon="134.09437251084455"><ele>35.81</ele><time>2026-08-11T13:50:55Z</time></trkpt>
<trkpt lat="34.84777421773784" lon="134.094531297651"><ele>35.89</ele><time>2026-08-11T13:50:55Z</time></trkpt>
<trkpt lat="34.84724064096856" lon="134.09473729127058"><ele>35.91</ele><time>2026-08-11T13:50:57Z</time></trkpt>
<trkpt lat="34.84687787733808" lon="134.09493041031968"><ele>35.69</ele><time>2026-08-11T13:51:03Z</time></trkpt>
<trkpt lat="34.846480772515406" lon="134.09518468386526"><ele>36.04</ele><time>2026-08-11T13:51:06Z</time></trkpt>
<trkpt lat="34.846165552704626" lon="134.09540891647342"><ele>35.77</ele><time>2026-08-11T13:51:06Z</time></trkpt>
<trkpt lat="34.8458089479294" lon="134.09571146961756"><ele>34.36</ele><time>2026-08-11T13:51:07Z</time></trkpt>
<trkpt lat="34.845974" lon="134.096347"><ele>26.59</ele><time>2026-08-11T13:51:15Z</time></trkpt>
<trkpt lat="34.845986" lon="134.096396"><ele>26.57</ele><time>2026-08-11T13:51:17Z</time></trkpt>
<trkpt lat="34.846004" lon="134.096476"><ele>26.57</ele><time>2026-08-11T13:51:20Z</time></trkpt>
<trkpt lat="34.84606" lon="134.096664"><ele>26.53</ele><time>2026-08-11T13:51:27Z</time></trkpt>
<trkpt lat="34.846118" lon="134.096871"><ele>26.71</ele><time>2026-08-11T13:51:35Z</time></trkpt>
<trkpt lat="34.846131" lon="134.096919"><ele>26.82</ele><time>2026-08-11T13:51:37Z</time></trkpt>
<trkpt lat="34.846195" lon="134.097145"><ele>27.08</ele><time>2026-08-11T13:51:46Z</time></trkpt>
<trkpt lat="34.846208" lon="134.097196"><ele>27.03</ele><time>2026-08-11T13:51:48Z</time></trkpt>
<trkpt lat="34.846261" lon="134.097408"><ele>27.05</ele><time>2026-08-11T13:51:56Z</time></trkpt>
<trkpt lat="34.846273" lon="134.097432"><ele>27.05</ele><time>2026-08-11T13:51:57Z</time></trkpt>
<trkpt lat="34.846283" lon="134.097454"><ele>27.06</ele><time>2026-08-11T13:51:58Z</time></trkpt>
<trkpt lat="34.84629" lon="134.097479"><ele>27.06</ele><time>2026-08-11T13:51:59Z</time></trkpt>
<trkpt lat="34.846356" lon="134.097698"><ele>27.51</ele><time>2026-08-11T13:52:07Z</time></trkpt>
<trkpt lat="34.846363" lon="134.097725"><ele>27.34</ele><time>2026-08-11T13:52:08Z</time></trkpt>
<trkpt lat="34.846415" lon="134.09794"><ele>29.84</ele><time>2026-08-11T13:52:16Z</time></trkpt>
<trkpt lat="34.846419" lon="134.097968"><ele>30.76</ele><time>2026-08-11T13:52:17Z</time></trkpt>
<trkpt lat="34.846432" lon="134.098018"><ele>31.4</ele><time>2026-08-11T13:52:19Z</time></trkpt>
<trkpt lat="34.846494" lon="134.098237"><ele>34.3</ele><time>2026-08-11T13:52:27Z</time></trkpt>
<trkpt lat="34.846506" lon="134.098294"><ele>35.44</ele><time>2026-08-11T13:52:29Z</time></trkpt>
<trkpt lat="34.846578" lon="134.098371"><ele>39.22</ele><time>2026-08-11T13:52:34Z</time></trkpt>
<trkpt lat="34.846644" lon="134.098362"><ele>38.2</ele><time>2026-08-11T14:17:40Z</time></trkpt>
<trkpt lat="34.846709" lon="134.098277"><ele>37.64</ele><time>2026-08-11T14:17:43Z</time></trkpt>
<trkpt lat="34.84682" lon="134.09814"><ele>36.94</ele><time>2026-08-11T14:17:48Z</time></trkpt>
<trkpt lat="34.846904" lon="134.098037"><ele>36.57</ele><time>2026-08-11T14:17:52Z</time></trkpt>
<trkpt lat="34.84704" lon="134.097894"><ele>35.74</ele><time>2026-08-11T14:17:58Z</time></trkpt>
<trkpt lat="34.847062" lon="134.097872"><ele>35.71</ele><time>2026-08-11T14:17:59Z</time></trkpt>
<trkpt lat="34.847151" lon="134.097795"><ele>35.79</ele><time>2026-08-11T14:18:03Z</time></trkpt>
<trkpt lat="34.847174" lon="134.097775"><ele>35.74</ele><time>2026-08-11T14:18:04Z</time></trkpt>
<trkpt lat="34.847237" lon="134.097727"><ele>35.93</ele><time>2026-08-11T14:18:07Z</time></trkpt>
<trkpt lat="34.847407" lon="134.097607"><ele>35.73</ele><time>2026-08-11T14:18:14Z</time></trkpt>
<trkpt lat="34.847456" lon="134.097574"><ele>35.76</ele><time>2026-08-11T14:18:16Z</time></trkpt>
<trkpt lat="34.847636" lon="134.097451"><ele>36.16</ele><time>2026-08-11T14:18:23Z</time></trkpt>
<trkpt lat="34.847711" lon="134.097407"><ele>36.06</ele><time>2026-08-11T14:18:26Z</time></trkpt>
<trkpt lat="34.847888" lon="134.097311"><ele>35.73</ele><time>2026-08-11T14:18:33Z</time></trkpt>
<trkpt lat="34.847938" lon="134.097284"><ele>36.1</ele><time>2026-08-11T14:18:35Z</time></trkpt>
<trkpt lat="34.848118" lon="134.097195"><ele>36.07</ele><time>2026-08-11T14:18:42Z</time></trkpt>
<trkpt lat="34.848197" lon="134.097164"><ele>35.99</ele><time>2026-08-11T14:18:45Z</time></trkpt>
<trkpt lat="34.848249" lon="134.097143"><ele>35.58</ele><time>2026-08-11T14:18:47Z</time></trkpt>
<trkpt lat="34.848441" lon="134.097074"><ele>36.16</ele><time>2026-08-11T14:18:54Z</time></trkpt>
<trkpt lat="34.848525" lon="134.097061"><ele>35.54</ele><time>2026-08-11T14:18:57Z</time></trkpt>
<trkpt lat="34.848552" lon="134.097056"><ele>35.69</ele><time>2026-08-11T14:18:58Z</time></trkpt>
<trkpt lat="34.848715" lon="134.097026"><ele>36.1</ele><time>2026-08-11T14:19:04Z</time></trkpt>
<trkpt lat="34.848879" lon="134.097016"><ele>35.9</ele><time>2026-08-11T14:19:10Z</time></trkpt>
<trkpt lat="34.848958" lon="134.097034"><ele>35.91</ele><time>2026-08-11T14:19:13Z</time></trkpt>
<trkpt lat="34.849154" lon="134.097052"><ele>35.71</ele><time>2026-08-11T14:19:20Z</time></trkpt>
<trkpt lat="34.849182" lon="134.097057"><ele>35.76</ele><time>2026-08-11T14:19:21Z</time></trkpt>
<trkpt lat="34.849246" lon="134.09711"><ele>35.12</ele><time>2026-08-11T14:19:24Z</time></trkpt>
<trkpt lat="34.849254" lon="134.097144"><ele>35.12</ele><time>2026-08-11T14:19:25Z</time></trkpt>
<trkpt lat="34.849247" lon="134.097385"><ele>34.45</ele><time>2026-08-11T14:19:32Z</time></trkpt>
<trkpt lat="34.849229" lon="134.097495"><ele>34.12</ele><time>2026-08-11T14:19:35Z</time></trkpt>
<trkpt lat="34.849221" lon="134.097601"><ele>33.85</ele><time>2026-08-11T14:19:38Z</time></trkpt>
<trkpt lat="34.849219" lon="134.097704"><ele>33.65</ele><time>2026-08-11T14:19:41Z</time></trkpt>
<trkpt lat="34.849206" lon="134.097913"><ele>33.08</ele><time>2026-08-11T14:19:47Z</time></trkpt>
<trkpt lat="34.849204" lon="134.097948"><ele>32.88</ele><time>2026-08-11T14:19:48Z</time></trkpt>
<trkpt lat="34.849194" lon="134.098177"><ele>32.32</ele><time>2026-08-11T14:19:54Z</time></trkpt>
<trkpt lat="34.849192" lon="134.09829"><ele>32.24</ele><time>2026-08-11T14:19:57Z</time></trkpt>
<trkpt lat="34.849168" lon="134.098538"><ele>32.1</ele><time>2026-08-11T14:20:04Z</time></trkpt>
<trkpt lat="34.849162" lon="134.098605"><ele>32.07</ele><time>2026-08-11T14:20:06Z</time></trkpt>
<trkpt lat="34.849151" lon="134.0988"><ele>32.01</ele><time>2026-08-11T14:20:12Z</time></trkpt>
<trkpt lat="34.849131" lon="134.099039"><ele>32.06</ele><time>2026-08-11T14:20:19Z</time></trkpt>
<trkpt lat="34.84913" lon="134.099073"><ele>32.06</ele><time>2026-08-11T14:20:20Z</time></trkpt>
<trkpt lat="34.849127" lon="134.099105"><ele>32.06</ele><time>2026-08-11T14:20:21Z</time></trkpt>
<trkpt lat="34.849117" lon="134.099338"><ele>32.24</ele><time>2026-08-11T14:20:28Z</time></trkpt>
<trkpt lat="34.849105" lon="134.099404"><ele>32.31</ele><time>2026-08-11T14:20:30Z</time></trkpt>
<trkpt lat="34.849083" lon="134.09957"><ele>32.7</ele><time>2026-08-11T14:20:35Z</time></trkpt>
<trkpt lat="34.849069" lon="134.09967"><ele>32.71</ele><time>2026-08-11T14:20:38Z</time></trkpt>
<trkpt lat="34.849065" lon="134.099704"><ele>32.64</ele><time>2026-08-11T14:20:39Z</time></trkpt>
<trkpt lat="34.849045" lon="134.099945"><ele>32.11</ele><time>2026-08-11T14:20:46Z</time></trkpt>
<trkpt lat="34.84902" lon="134.100141"><ele>32.06</ele><time>2026-08-11T14:20:52Z</time></trkpt>
<trkpt lat="34.848997" lon="134.100274"><ele>31.65</ele><time>2026-08-11T14:20:56Z</time></trkpt>
<trkpt lat="34.848974" lon="134.10036"><ele>31.82</ele><time>2026-08-11T14:20:59Z</time></trkpt>
<trkpt lat="34.848921" lon="134.100569"><ele>33.1</ele><time>2026-08-11T14:21:05Z</time></trkpt>
<trkpt lat="34.848913" lon="134.100602"><ele>33.27</ele><time>2026-08-11T14:21:06Z</time></trkpt>
<trkpt lat="34.848907" lon="134.100635"><ele>33.39</ele><time>2026-08-11T14:21:07Z</time></trkpt>
<trkpt lat="34.848878" lon="134.100755"><ele>33.75</ele><time>2026-08-11T14:21:11Z</time></trkpt>
<trkpt lat="34.848857" lon="134.100844"><ele>33.79</ele><time>2026-08-11T14:21:14Z</time></trkpt>
<trkpt lat="34.848868" lon="134.100929"><ele>33.62</ele><time>2026-08-11T14:21:17Z</time></trkpt>
<trkpt lat="34.848884" lon="134.100951"><ele>33.62</ele><time>2026-08-11T14:21:18Z</time></trkpt>
<trkpt lat="34.849014" lon="134.101106"><ele>34.07</ele><time>2026-08-11T14:21:25Z</time></trkpt>
<trkpt lat="34.849036" lon="134.101128"><ele>34.04</ele><time>2026-08-11T14:21:26Z</time></trkpt>
<trkpt lat="34.849171" lon="134.101287"><ele>34.13</ele><time>2026-08-11T14:21:33Z</time></trkpt>
<trkpt lat="34.849308" lon="134.101441"><ele>34.35</ele><time>2026-08-11T14:21:40Z</time></trkpt>
<trkpt lat="34.84933" lon="134.101463"><ele>34.31</ele><time>2026-08-11T14:21:41Z</time></trkpt>
<trkpt lat="34.849385" lon="134.101524"><ele>34.26</ele><time>2026-08-11T14:21:44Z</time></trkpt>
<trkpt lat="34.849485" lon="134.101596"><ele>34.36</ele><time>2026-08-11T14:21:48Z</time></trkpt>
<trkpt lat="34.849499" lon="134.101616"><ele>34.12</ele><time>2026-08-11T14:21:49Z</time></trkpt>
<trkpt lat="34.849501" lon="134.101637"><ele>34.12</ele><time>2026-08-11T14:21:50Z</time></trkpt>
<trkpt lat="34.849469" lon="134.101666"><ele>33.53</ele><time>2026-08-11T14:21:52Z</time></trkpt>
<trkpt lat="34.849306" lon="134.101803"><ele>34.07</ele><time>2026-08-11T14:21:58Z</time></trkpt>
<trkpt lat="34.84929" lon="134.101817"><ele>34.07</ele><time>2026-08-11T14:21:59Z</time></trkpt>
<trkpt lat="34.849233" lon="134.101867"><ele>35.31</ele><time>2026-08-11T14:22:03Z</time></trkpt>
<trkpt lat="34.849229" lon="134.101869"><ele>36.0</ele><time>2026-08-11T14:22:04Z</time></trkpt>
<trkpt lat="34.849188" lon="134.101954"><ele>38.56</ele><time>2026-08-11T14:22:09Z</time></trkpt>
<trkpt lat="34.849142" lon="134.101988"><ele>41.09</ele><time>2026-08-11T14:22:11Z</time></trkpt>
<trkpt lat="34.849138" lon="134.101995"><ele>41.09</ele><time>2026-08-11T14:22:12Z</time></trkpt>
<trkpt lat="34.849128" lon="134.102006"><ele>44.99</ele><time>2026-08-11T14:22:14Z</time></trkpt>
<trkpt lat="34.849109" lon="134.102002"><ele>44.99</ele><time>2026-08-11T14:22:18Z</time></trkpt>
<trkpt lat="34.849105" lon="134.102003"><ele>44.99</ele><time>2026-08-11T14:22:19Z</time></trkpt>
<trkpt lat="34.849099" lon="134.101976"><ele>46.94</ele><time>2026-08-11T14:22:24Z</time></trkpt>
<trkpt lat="34.849108" lon="134.101972"><ele>43.92</ele><time>2026-08-11T14:22:25Z</time></trkpt>
<trkpt lat="34.849108" lon="134.101972"><ele>43.92</ele><time>2026-08-11T14:22:31Z</time></trkpt>
<trkpt lat="34.849108" lon="134.101972"><ele>43.92</ele><time>2026-08-11T14:22:35Z</time></trkpt>
<trkpt lat="34.849116" lon="134.101971"><ele>43.92</ele><time>2026-08-11T14:22:46Z</time></trkpt>
<trkpt lat="34.849123" lon="134.101965"><ele>43.92</ele><time>2026-08-11T14:22:50Z</time></trkpt>
<trkpt lat="34.84911" lon="134.101967"><ele>43.92</ele><time>2026-08-11T14:23:00Z</time></trkpt>
<trkpt lat="34.84911" lon="134.101967"><ele>43.92</ele><time>2026-08-11T14:23:04Z</time></trkpt>
<trkpt lat="34.849118" lon="134.101993"><ele>43.92</ele><time>2026-08-11T14:23:08Z</time></trkpt>
<trkpt lat="34.84915" lon="134.102061"><ele>42.49</ele><time>2026-08-11T14:23:11Z</time></trkpt>
<trkpt lat="34.849167" lon="134.102113"><ele>42.71</ele><time>2026-08-11T14:23:13Z</time></trkpt>
<trkpt lat="34.849182" lon="134.102163"><ele>40.51</ele><time>2026-08-11T14:23:15Z</time></trkpt>
<trkpt lat="34.849181" lon="134.102189"><ele>41.08</ele><time>2026-08-11T14:23:16Z</time></trkpt>
<trkpt lat="34.849184" lon="134.102234"><ele>42.31</ele><time>2026-08-11T14:23:18Z</time></trkpt>
<trkpt lat="34.849173" lon="134.102285"><ele>43.47</ele><time>2026-08-11T14:23:20Z</time></trkpt>
<trkpt lat="34.849168" lon="134.102317"><ele>46.17</ele><time>2026-08-11T14:23:21Z</time></trkpt>
<trkpt lat="34.849142" lon="134.102399"><ele>47.28</ele><time>2026-08-11T14:23:24Z</time></trkpt>
<trkpt lat="34.849144" lon="134.102419"><ele>47.28</ele><time>2026-08-11T14:23:25Z</time></trkpt>
<trkpt lat="34.849149" lon="134.102435"><ele>48.05</ele><time>2026-08-11T14:23:26Z</time></trkpt>
<trkpt lat="34.849138" lon="134.102494"><ele>49.07</ele><time>2026-08-11T14:23:29Z</time></trkpt>
<trkpt lat="34.849133" lon="134.102553"><ele>50.63</ele><time>2026-08-11T14:23:31Z</time></trkpt>
<trkpt lat="34.849128" lon="134.102569"><ele>51.98</ele><time>2026-08-11T14:23:32Z</time></trkpt>
<trkpt lat="34.849119" lon="134.102598"><ele>53.54</ele><time>2026-08-11T14:23:34Z</time></trkpt>
<trkpt lat="34.849113" lon="134.102624"><ele>53.54</ele><time>2026-08-11T14:23:36Z</time></trkpt>
<trkpt lat="34.849103" lon="134.102628"><ele>53.54</ele><time>2026-08-11T14:23:37Z</time></trkpt>
<trkpt lat="34.849094" lon="134.102617"><ele>53.55</ele><time>2026-08-11T14:23:38Z</time></trkpt>
<trkpt lat="34.849094" lon="134.102619"><ele>53.55</ele><time>2026-08-11T14:23:39Z</time></trkpt>
<trkpt lat="34.849086" lon="134.102647"><ele>54.86</ele><time>2026-08-11T14:23:42Z</time></trkpt>
<trkpt lat="34.849075" lon="134.102657"><ele>54.86</ele><time>2026-08-11T14:23:43Z</time></trkpt>
<trkpt lat="34.849077" lon="134.102703"><ele>56.41</ele><time>2026-08-11T14:23:46Z</time></trkpt>
<trkpt lat="34.849087" lon="134.102716"><ele>56.41</ele><time>2026-08-11T14:23:47Z</time></trkpt>
<trkpt lat="34.849104" lon="134.102723"><ele>57.41</ele><time>2026-08-11T14:23:48Z</time></trkpt>
<trkpt lat="34.849091" lon="134.102738"><ele>58.69</ele><time>2026-08-11T14:23:50Z</time></trkpt>
<trkpt lat="34.849052" lon="134.102754"><ele>58.0</ele><time>2026-08-11T14:23:52Z</time></trkpt>
<trkpt lat="34.849027" lon="134.102751"><ele>57.94</ele><time>2026-08-11T14:23:54Z</time></trkpt>
<trkpt lat="34.84901" lon="134.102751"><ele>57.94</ele><time>2026-08-11T14:23:56Z</time></trkpt>
<trkpt lat="34.849007" lon="134.102754"><ele>57.94</ele><time>2026-08-11T14:23:57Z</time></trkpt>
<trkpt lat="34.848969" lon="134.102774"><ele>60.01</ele><time>2026-08-11T14:24:01Z</time></trkpt>
<trkpt lat="34.848944" lon="134.102788"><ele>60.73</ele><time>2026-08-11T14:24:05Z</time></trkpt>
<trkpt lat="34.848929" lon="134.102805"><ele>60.73</ele><time>2026-08-11T14:24:08Z</time></trkpt>
<trkpt lat="34.848925" lon="134.102841"><ele>61.99</ele><time>2026-08-11T14:24:10Z</time></trkpt>
<trkpt lat="34.848909" lon="134.102859"><ele>63.65</ele><time>2026-08-11T14:24:12Z</time></trkpt>
<trkpt lat="34.848902" lon="134.102899"><ele>64.63</ele><time>2026-08-11T14:24:16Z</time></trkpt>
<trkpt lat="34.848863" lon="134.102955"><ele>66.17</ele><time>2026-08-11T14:24:21Z</time></trkpt>
<trkpt lat="34.848852" lon="134.103003"><ele>67.99</ele><time>2026-08-11T14:24:25Z</time></trkpt>
<trkpt lat="34.848862" lon="134.103013"><ele>67.06</ele><time>2026-08-11T14:24:26Z</time></trkpt>
<trkpt lat="34.848863" lon="134.103028"><ele>68.03</ele><time>2026-08-11T14:24:27Z</time></trkpt>
<trkpt lat="34.848858" lon="134.103077"><ele>69.03</ele><time>2026-08-11T14:24:30Z</time></trkpt>
<trkpt lat="34.848871" lon="134.103096"><ele>69.03</ele><time>2026-08-11T14:24:31Z</time></trkpt>
<trkpt lat="34.848883" lon="134.103126"><ele>69.97</ele><time>2026-08-11T14:24:33Z</time></trkpt>
<trkpt lat="34.848885" lon="134.103138"><ele>69.97</ele><time>2026-08-11T14:24:35Z</time></trkpt>
<trkpt lat="34.848877" lon="134.103147"><ele>69.97</ele><time>2026-08-11T14:24:36Z</time></trkpt>
<trkpt lat="34.848869" lon="134.103166"><ele>70.75</ele><time>2026-08-11T14:24:38Z</time></trkpt>
<trkpt lat="34.848869" lon="134.103182"><ele>70.75</ele><time>2026-08-11T14:24:39Z</time></trkpt>
<trkpt lat="34.848864" lon="134.103193"><ele>70.75</ele><time>2026-08-11T14:24:40Z</time></trkpt>
<trkpt lat="34.848861" lon="134.103229"><ele>71.48</ele><time>2026-08-11T14:24:44Z</time></trkpt>
<trkpt lat="34.848857" lon="134.103238"><ele>71.48</ele><time>2026-08-11T14:24:45Z</time></trkpt>
<trkpt lat="34.848845" lon="134.103249"><ele>72.42</ele><time>2026-08-11T14:24:47Z</time></trkpt>
<trkpt lat="34.848837" lon="134.103274"><ele>72.42</ele><time>2026-08-11T14:24:49Z</time></trkpt>
<trkpt lat="34.848835" lon="134.103289"><ele>73.04</ele><time>2026-08-11T14:24:50Z</time></trkpt>
<trkpt lat="34.848834" lon="134.103304"><ele>73.04</ele><time>2026-08-11T14:24:51Z</time></trkpt>
<trkpt lat="34.848816" lon="134.103335"><ele>74.29</ele><time>2026-08-11T14:24:53Z</time></trkpt>
<trkpt lat="34.848789" lon="134.103374"><ele>75.06</ele><time>2026-08-11T14:24:55Z</time></trkpt>
<trkpt lat="34.848796" lon="134.10344"><ele>75.94</ele><time>2026-08-11T14:24:58Z</time></trkpt>
<trkpt lat="34.848803" lon="134.103447"><ele>75.94</ele><time>2026-08-11T14:24:59Z</time></trkpt>
<trkpt lat="34.848812" lon="134.103452"><ele>75.94</ele><time>2026-08-11T14:25:00Z</time></trkpt>
<trkpt lat="34.848813" lon="134.103459"><ele>76.83</ele><time>2026-08-11T14:25:01Z</time></trkpt>
<trkpt lat="34.848816" lon="134.103478"><ele>76.83</ele><time>2026-08-11T14:25:03Z</time></trkpt>
<trkpt lat="34.84881" lon="134.10349"><ele>76.83</ele><time>2026-08-11T14:25:04Z</time></trkpt>
<trkpt lat="34.848812" lon="134.103511"><ele>77.64</ele><time>2026-08-11T14:25:06Z</time></trkpt>
<trkpt lat="34.848844" lon="134.10353"><ele>77.06</ele><time>2026-08-11T14:25:09Z</time></trkpt>
<trkpt lat="34.848861" lon="134.103527"><ele>77.03</ele><time>2026-08-11T14:25:10Z</time></trkpt>
<trkpt lat="34.848876" lon="134.103546"><ele>78.18</ele><time>2026-08-11T14:25:12Z</time></trkpt>
<trkpt lat="34.848873" lon="134.103558"><ele>78.18</ele><time>2026-08-11T14:25:13Z</time></trkpt>
<trkpt lat="34.848879" lon="134.103573"><ele>78.18</ele><time>2026-08-11T14:25:14Z</time></trkpt>
<trkpt lat="34.8489" lon="134.103619"><ele>80.06</ele><time>2026-08-11T14:25:18Z</time></trkpt>
<trkpt lat="34.848888" lon="134.103641"><ele>80.44</ele><time>2026-08-11T14:25:20Z</time></trkpt>
<trkpt lat="34.848892" lon="134.10366"><ele>80.97</ele><time>2026-08-11T14:25:21Z</time></trkpt>
<trkpt lat="34.848903" lon="134.103687"><ele>81.9</ele><time>2026-08-11T14:25:25Z</time></trkpt>
<trkpt lat="34.84891" lon="134.103713"><ele>81.9</ele><time>2026-08-11T14:25:27Z</time></trkpt>
<trkpt lat="34.848915" lon="134.103723"><ele>82.65</ele><time>2026-08-11T14:25:29Z</time></trkpt>
<trkpt lat="34.84893" lon="134.103747"><ele>82.97</ele><time>2026-08-11T14:25:31Z</time></trkpt>
<trkpt lat="34.848937" lon="134.103788"><ele>83.68</ele><time>2026-08-11T14:25:33Z</time></trkpt>
<trkpt lat="34.848959" lon="134.103826"><ele>84.82</ele><time>2026-08-11T14:25:36Z</time></trkpt>
<trkpt lat="34.848957" lon="134.103845"><ele>86.36</ele><time>2026-08-11T14:25:37Z</time></trkpt>
<trkpt lat="34.848958" lon="134.103853"><ele>86.36</ele><time>2026-08-11T14:25:38Z</time></trkpt>
<trkpt lat="34.848956" lon="134.10386"><ele>86.36</ele><time>2026-08-11T14:25:39Z</time></trkpt>
<trkpt lat="34.848969" lon="134.103863"><ele>86.69</ele><time>2026-08-11T14:25:40Z</time></trkpt>
<trkpt lat="34.848973" lon="134.103869"><ele>86.69</ele><time>2026-08-11T14:25:41Z</time></trkpt>
<trkpt lat="34.848983" lon="134.103872"><ele>86.69</ele><time>2026-08-11T14:25:43Z</time></trkpt>
<trkpt lat="34.848986" lon="134.103873"><ele>86.69</ele><time>2026-08-11T14:25:44Z</time></trkpt>
<trkpt lat="34.849015" lon="134.103875"><ele>87.46</ele><time>2026-08-11T14:25:47Z</time></trkpt>
<trkpt lat="34.849024" lon="134.103875"><ele>87.46</ele><time>2026-08-11T14:25:48Z</time></trkpt>
<trkpt lat="34.849054" lon="134.103853"><ele>88.5</ele><time>2026-08-11T14:25:51Z</time></trkpt>
<trkpt lat="34.849054" lon="134.103848"><ele>88.5</ele><time>2026-08-11T14:25:52Z</time></trkpt>
<trkpt lat="34.849032" lon="134.103835"><ele>87.84</ele><time>2026-08-11T14:25:54Z</time></trkpt>
<trkpt lat="34.849026" lon="134.10383"><ele>86.41</ele><time>2026-08-11T14:25:55Z</time></trkpt>
<trkpt lat="34.849026" lon="134.103821"><ele>86.41</ele><time>2026-08-11T14:25:56Z</time></trkpt>
<trkpt lat="34.84905" lon="134.103801"><ele>87.84</ele><time>2026-08-11T14:25:58Z</time></trkpt>
<trkpt lat="34.849064" lon="134.103795"><ele>87.43</ele><time>2026-08-11T14:25:59Z</time></trkpt>
<trkpt lat="34.849091" lon="134.103775"><ele>89.28</ele><time>2026-08-11T14:26:05Z</time></trkpt>
<trkpt lat="34.84911" lon="134.103754"><ele>91.18</ele><time>2026-08-11T14:26:08Z</time></trkpt>
<trkpt lat="34.849133" lon="134.10376"><ele>91.1</ele><time>2026-08-11T14:26:11Z</time></trkpt>
<trkpt lat="34.849148" lon="134.103765"><ele>92.87</ele><time>2026-08-11T14:26:12Z</time></trkpt>
<trkpt lat="34.849176" lon="134.103777"><ele>94.56</ele><time>2026-08-11T14:26:15Z</time></trkpt>
<trkpt lat="34.849206" lon="134.103802"><ele>96.18</ele><time>2026-08-11T14:26:20Z</time></trkpt>
<trkpt lat="34.849218" lon="134.103804"><ele>96.18</ele><time>2026-08-11T14:26:21Z</time></trkpt>
<trkpt lat="34.849229" lon="134.103808"><ele>96.18</ele><time>2026-08-11T14:26:22Z</time></trkpt>
<trkpt lat="34.849246" lon="134.103835"><ele>97.07</ele><time>2026-08-11T14:26:24Z</time></trkpt>
<trkpt lat="34.849268" lon="134.103852"><ele>97.89</ele><time>2026-08-11T14:26:26Z</time></trkpt>
<trkpt lat="34.849272" lon="134.103886"><ele>98.74</ele><time>2026-08-11T14:26:31Z</time></trkpt>
<trkpt lat="34.849268" lon="134.103893"><ele>98.74</ele><time>2026-08-11T14:26:32Z</time></trkpt>
<trkpt lat="34.849265" lon="134.103906"><ele>98.74</ele><time>2026-08-11T14:26:35Z</time></trkpt>
<trkpt lat="34.849272" lon="134.103929"><ele>99.76</ele><time>2026-08-11T14:26:38Z</time></trkpt>
<trkpt lat="34.849271" lon="134.103932"><ele>99.76</ele><time>2026-08-11T14:26:39Z</time></trkpt>
<trkpt lat="34.849283" lon="134.10398"><ele>101.68</ele><time>2026-08-11T14:26:43Z</time></trkpt>
<trkpt lat="34.849286" lon="134.104004"><ele>101.68</ele><time>2026-08-11T14:26:46Z</time></trkpt>
<trkpt lat="34.849287" lon="134.10401"><ele>101.68</ele><time>2026-08-11T14:26:47Z</time></trkpt>
<trkpt lat="34.849289" lon="134.104025"><ele>103.12</ele><time>2026-08-11T14:26:49Z</time></trkpt>
<trkpt lat="34.849291" lon="134.104042"><ele>103.12</ele><time>2026-08-11T14:26:51Z</time></trkpt>
<trkpt lat="34.849303" lon="134.104071"><ele>104.3</ele><time>2026-08-11T14:26:54Z</time></trkpt>
<trkpt lat="34.849302" lon="134.104076"><ele>104.3</ele><time>2026-08-11T14:26:55Z</time></trkpt>
<trkpt lat="34.84931" lon="134.104114"><ele>105.29</ele><time>2026-08-11T14:26:58Z</time></trkpt>
<trkpt lat="34.849326" lon="134.104127"><ele>105.97</ele><time>2026-08-11T14:27:01Z</time></trkpt>
<trkpt lat="34.84933" lon="134.104143"><ele>106.93</ele><time>2026-08-11T14:27:03Z</time></trkpt>
<trkpt lat="34.849351" lon="134.10418"><ele>107.24</ele><time>2026-08-11T14:27:07Z</time></trkpt>
<trkpt lat="34.84936" lon="134.10419"><ele>107.9</ele><time>2026-08-11T14:27:08Z</time></trkpt>
<trkpt lat="34.849367" lon="134.104223"><ele>107.9</ele><time>2026-08-11T14:27:13Z</time></trkpt>
<trkpt lat="34.849379" lon="134.104268"><ele>108.57</ele><time>2026-08-11T14:27:16Z</time></trkpt>
<trkpt lat="34.849391" lon="134.10432"><ele>107.64</ele><time>2026-08-11T14:27:19Z</time></trkpt>
<trkpt lat="34.849393" lon="134.104364"><ele>108.16</ele><time>2026-08-11T14:27:22Z</time></trkpt>
<trkpt lat="34.849401" lon="134.104399"><ele>108.16</ele><time>2026-08-11T14:27:25Z</time></trkpt>
<trkpt lat="34.849375" lon="134.104435"><ele>110.79</ele><time>2026-08-11T14:27:28Z</time></trkpt>
<trkpt lat="34.849375" lon="134.104483"><ele>111.53</ele><time>2026-08-11T14:27:31Z</time></trkpt>
<trkpt lat="34.84937" lon="134.104515"><ele>112.47</ele><time>2026-08-11T14:27:33Z</time></trkpt>
<trkpt lat="34.849392" lon="134.104546"><ele>111.81</ele><time>2026-08-11T14:27:37Z</time></trkpt>
<trkpt lat="34.849395" lon="134.104548"><ele>111.81</ele><time>2026-08-11T14:27:38Z</time></trkpt>
<trkpt lat="34.849391" lon="134.104588"><ele>113.15</ele><time>2026-08-11T14:27:42Z</time></trkpt>
<trkpt lat="34.849388" lon="134.104599"><ele>113.15</ele><time>2026-08-11T14:27:43Z</time></trkpt>
<trkpt lat="34.849398" lon="134.104634"><ele>114.38</ele><time>2026-08-11T14:27:46Z</time></trkpt>
<trkpt lat="34.849378" lon="134.104656"><ele>116.52</ele><time>2026-08-11T14:27:48Z</time></trkpt>
<trkpt lat="34.849376" lon="134.104661"><ele>117.87</ele><time>2026-08-11T14:27:50Z</time></trkpt>
<trkpt lat="34.849392" lon="134.104704"><ele>116.94</ele><time>2026-08-11T14:27:54Z</time></trkpt>
<trkpt lat="34.849399" lon="134.104718"><ele>116.94</ele><time>2026-08-11T14:27:55Z</time></trkpt>
<trkpt lat="34.849403" lon="134.104733"><ele>116.94</ele><time>2026-08-11T14:27:56Z</time></trkpt>
<trkpt lat="34.849412" lon="134.104759"><ele>118.06</ele><time>2026-08-11T14:27:57Z</time></trkpt>
<trkpt lat="34.849423" lon="134.104815"><ele>116.52</ele><time>2026-08-11T14:27:59Z</time></trkpt>
<trkpt lat="34.849428" lon="134.104832"><ele>117.72</ele><time>2026-08-11T14:28:00Z</time></trkpt>
<trkpt lat="34.849424" lon="134.104856"><ele>117.72</ele><time>2026-08-11T14:28:01Z</time></trkpt>
<trkpt lat="34.849413" lon="134.104907"><ele>120.76</ele><time>2026-08-11T14:28:04Z</time></trkpt>
<trkpt lat="34.849425" lon="134.104992"><ele>119.97</ele><time>2026-08-11T14:28:08Z</time></trkpt>
<trkpt lat="34.849431" lon="134.105015"><ele>120.51</ele><time>2026-08-11T14:28:09Z</time></trkpt>
<trkpt lat="34.849446" lon="134.105057"><ele>121.27</ele><time>2026-08-11T14:28:11Z</time></trkpt>
<trkpt lat="34.849489" lon="134.105147"><ele>124.04</ele><time>2026-08-11T14:28:16Z</time></trkpt>
<trkpt lat="34.849498" lon="134.105175"><ele>125.23</ele><time>2026-08-11T14:28:18Z</time></trkpt>
<trkpt lat="34.849506" lon="134.105193"><ele>125.23</ele><time>2026-08-11T14:28:20Z</time></trkpt>
<trkpt lat="34.849516" lon="134.105232"><ele>126.38</ele><time>2026-08-11T14:28:23Z</time></trkpt>
<trkpt lat="34.849516" lon="134.105267"><ele>127.09</ele><time>2026-08-11T14:28:26Z</time></trkpt>
<trkpt lat="34.849519" lon="134.105312"><ele>127.49</ele><time>2026-08-11T14:28:31Z</time></trkpt>
<trkpt lat="34.849527" lon="134.10535"><ele>129.59</ele><time>2026-08-11T14:28:36Z</time></trkpt>
<trkpt lat="34.849522" lon="134.10538"><ele>127.71</ele><time>2026-08-11T14:28:40Z</time></trkpt>
<trkpt lat="34.84952" lon="134.105394"><ele>127.83</ele><time>2026-08-11T14:28:41Z</time></trkpt>
<trkpt lat="34.849522" lon="134.105461"><ele>127.35</ele><time>2026-08-11T14:28:46Z</time></trkpt>
<trkpt lat="34.849529" lon="134.105515"><ele>129.17</ele><time>2026-08-11T14:28:51Z</time></trkpt>
<trkpt lat="34.849534" lon="134.105528"><ele>127.83</ele><time>2026-08-11T14:28:52Z</time></trkpt>
<trkpt lat="34.849547" lon="134.105588"><ele>126.52</ele><time>2026-08-11T14:28:57Z</time></trkpt>
<trkpt lat="34.849552" lon="134.105601"><ele>126.52</ele><time>2026-08-11T14:28:58Z</time></trkpt>
<trkpt lat="34.849558" lon="134.105608"><ele>126.23</ele><time>2026-08-11T14:28:59Z</time></trkpt>
<trkpt lat="34.849572" lon="134.105641"><ele>129.6</ele><time>2026-08-11T14:29:02Z</time></trkpt>
<trkpt lat="34.849577" lon="134.105685"><ele>129.88</ele><time>2026-08-11T14:29:04Z</time></trkpt>
<trkpt lat="34.849583" lon="134.105698"><ele>130.49</ele><time>2026-08-11T14:29:05Z</time></trkpt>
<trkpt lat="34.849582" lon="134.105732"><ele>131.09</ele><time>2026-08-11T14:29:07Z</time></trkpt>
<trkpt lat="34.849589" lon="134.10576"><ele>131.09</ele><time>2026-08-11T14:29:09Z</time></trkpt>
<trkpt lat="34.849588" lon="134.105773"><ele>131.11</ele><time>2026-08-11T14:29:11Z</time></trkpt>
<trkpt lat="34.849598" lon="134.105788"><ele>134.45</ele><time>2026-08-11T14:29:13Z</time></trkpt>
<trkpt lat="34.849608" lon="134.105798"><ele>134.45</ele><time>2026-08-11T14:29:14Z</time></trkpt>
<trkpt lat="34.849631" lon="134.10585"><ele>137.66</ele><time>2026-08-11T14:29:19Z</time></trkpt>
<trkpt lat="34.849638" lon="134.105865"><ele>137.63</ele><time>2026-08-11T14:29:20Z</time></trkpt>
<trkpt lat="34.849652" lon="134.105898"><ele>137.63</ele><time>2026-08-11T14:29:23Z</time></trkpt>
<trkpt lat="34.849658" lon="134.105954"><ele>136.99</ele><time>2026-08-11T14:29:27Z</time></trkpt>
<trkpt lat="34.849664" lon="134.105964"><ele>140.23</ele><time>2026-08-11T14:29:28Z</time></trkpt>
<trkpt lat="34.849698" lon="134.106028"><ele>139.44</ele><time>2026-08-11T14:29:33Z</time></trkpt>
<trkpt lat="34.849712" lon="134.106047"><ele>142.0</ele><time>2026-08-11T14:29:35Z</time></trkpt>
<trkpt lat="34.849724" lon="134.106089"><ele>141.51</ele><time>2026-08-11T14:29:38Z</time></trkpt>
<trkpt lat="34.849732" lon="134.10614"><ele>140.86</ele><time>2026-08-11T14:29:43Z</time></trkpt>
<trkpt lat="34.84979" lon="134.106255"><ele>142.86</ele><time>2026-08-11T14:29:51Z</time></trkpt>
<trkpt lat="34.849804" lon="134.106274"><ele>142.86</ele><time>2026-08-11T14:29:52Z</time></trkpt>
<trkpt lat="34.849869" lon="134.106344"><ele>143.87</ele><time>2026-08-11T14:29:56Z</time></trkpt>
<trkpt lat="34.8499" lon="134.106364"><ele>145.12</ele><time>2026-08-11T14:29:58Z</time></trkpt>
<trkpt lat="34.849952" lon="134.106357"><ele>147.19</ele><time>2026-08-11T14:30:02Z</time></trkpt>
<trkpt lat="34.849986" lon="134.106385"><ele>147.2</ele><time>2026-08-11T14:30:04Z</time></trkpt>
<trkpt lat="34.850023" lon="134.106437"><ele>147.9</ele><time>2026-08-11T14:30:07Z</time></trkpt>
<trkpt lat="34.850096" lon="134.10657"><ele>150.46</ele><time>2026-08-11T14:30:12Z</time></trkpt>
<trkpt lat="34.85009" lon="134.106694"><ele>152.99</ele><time>2026-08-11T14:30:18Z</time></trkpt>
<trkpt lat="34.85009" lon="134.10675"><ele>154.31</ele><time>2026-08-11T14:30:21Z</time></trkpt>
<trkpt lat="34.85009514770619" lon="134.10678791998183"><ele>155.67</ele><time>2026-08-11T14:30:23Z</time></trkpt>
<trkpt lat="34.850091" lon="134.106829"><ele>156.92</ele><time>2026-08-11T14:30:29Z</time></trkpt>
<trkpt lat="34.850091" lon="134.106872"><ele>157.89</ele><time>2026-08-11T14:30:33Z</time></trkpt>
<trkpt lat="34.850095" lon="134.106874"><ele>157.89</ele><time>2026-08-11T14:30:35Z</time></trkpt>
<trkpt lat="34.850091" lon="134.106906"><ele>158.28</ele><time>2026-08-11T14:30:40Z</time></trkpt>
<trkpt lat="34.850094" lon="134.106912"><ele>158.28</ele><time>2026-08-11T14:30:41Z</time></trkpt>
<trkpt lat="34.8501" lon="134.106947"><ele>158.31</ele><time>2026-08-11T14:30:45Z</time></trkpt>
<trkpt lat="34.850109" lon="134.106981"><ele>158.2</ele><time>2026-08-11T14:30:49Z</time></trkpt>
<trkpt lat="34.85011" lon="134.106984"><ele>158.2</ele><time>2026-08-11T14:30:50Z</time></trkpt>
<trkpt lat="34.85011" lon="134.106986"><ele>158.2</ele><time>2026-08-11T14:30:51Z</time></trkpt>
<trkpt lat="34.850122" lon="134.107037"><ele>160.43</ele><time>2026-08-11T14:30:55Z</time></trkpt>
<trkpt lat="34.850128" lon="134.107052"><ele>160.43</ele><time>2026-08-11T14:31:00Z</time></trkpt>
<trkpt lat="34.850133" lon="134.107068"><ele>159.98</ele><time>2026-08-11T14:31:01Z</time></trkpt>
<trkpt lat="34.850174" lon="134.107118"><ele>161.35</ele><time>2026-08-11T14:31:06Z</time></trkpt>
<trkpt lat="34.850184" lon="134.107157"><ele>161.07</ele><time>2026-08-11T14:31:09Z</time></trkpt>
<trkpt lat="34.850199" lon="134.107183"><ele>162.75</ele><time>2026-08-11T14:31:11Z</time></trkpt>
<trkpt lat="34.850222" lon="134.107235"><ele>162.42</ele><time>2026-08-11T14:31:16Z</time></trkpt>
<trkpt lat="34.850246" lon="134.107278"><ele>164.01</ele><time>2026-08-11T14:31:19Z</time></trkpt>
<trkpt lat="34.850277" lon="134.107338"><ele>165.59</ele><time>2026-08-11T14:31:23Z</time></trkpt>
<trkpt lat="34.850292" lon="134.107388"><ele>166.26</ele><time>2026-08-11T14:31:26Z</time></trkpt>
<trkpt lat="34.850303" lon="134.107459"><ele>169.11</ele><time>2026-08-11T14:31:31Z</time></trkpt>
<trkpt lat="34.85031" lon="134.107474"><ele>169.11</ele><time>2026-08-11T14:31:32Z</time></trkpt>
<trkpt lat="34.850329" lon="134.1075"><ele>169.64</ele><time>2026-08-11T14:31:36Z</time></trkpt>
<trkpt lat="34.850331" lon="134.107525"><ele>169.64</ele><time>2026-08-11T14:31:38Z</time></trkpt>
<trkpt lat="34.850335" lon="134.107552"><ele>171.76</ele><time>2026-08-11T14:31:41Z</time></trkpt>
<trkpt lat="34.850331" lon="134.107584"><ele>170.28</ele><time>2026-08-11T14:31:44Z</time></trkpt>
<trkpt lat="34.850331" lon="134.107597"><ele>170.28</ele><time>2026-08-11T14:31:45Z</time></trkpt>
<trkpt lat="34.850334" lon="134.107611"><ele>172.38</ele><time>2026-08-11T14:31:46Z</time></trkpt>
<trkpt lat="34.850345" lon="134.107635"><ele>172.93</ele><time>2026-08-11T14:31:49Z</time></trkpt>
<trkpt lat="34.850353" lon="134.107659"><ele>172.93</ele><time>2026-08-11T14:31:52Z</time></trkpt>
<trkpt lat="34.850354" lon="134.10768"><ele>173.15</ele><time>2026-08-11T14:31:54Z</time></trkpt>
<trkpt lat="34.85036" lon="134.107743"><ele>173.15</ele><time>2026-08-11T14:31:59Z</time></trkpt>
<trkpt lat="34.850369" lon="134.107756"><ele>175.42</ele><time>2026-08-11T14:32:00Z</time></trkpt>
<trkpt lat="34.850372" lon="134.107785"><ele>175.42</ele><time>2026-08-11T14:32:04Z</time></trkpt>
<trkpt lat="34.850376" lon="134.107791"><ele>175.52</ele><time>2026-08-11T14:32:05Z</time></trkpt>
<trkpt lat="34.850402" lon="134.107823"><ele>175.52</ele><time>2026-08-11T14:32:09Z</time></trkpt>
<trkpt lat="34.850422" lon="134.107848"><ele>177.94</ele><time>2026-08-11T14:32:12Z</time></trkpt>
<trkpt lat="34.850437" lon="134.107896"><ele>177.7</ele><time>2026-08-11T14:32:16Z</time></trkpt>
<trkpt lat="34.850449" lon="134.10792"><ele>179.4</ele><time>2026-08-11T14:32:20Z</time></trkpt>
<trkpt lat="34.85046" lon="134.107937"><ele>179.4</ele><time>2026-08-11T14:32:22Z</time></trkpt>
<trkpt lat="34.850486" lon="134.107958"><ele>181.05</ele><time>2026-08-11T14:32:25Z</time></trkpt>
<trkpt lat="34.850497" lon="134.107963"><ele>181.24</ele><time>2026-08-11T14:32:26Z</time></trkpt>
<trkpt lat="34.850514" lon="134.10798"><ele>182.91</ele><time>2026-08-11T14:32:29Z</time></trkpt>
<trkpt lat="34.850525" lon="134.107987"><ele>182.91</ele><time>2026-08-11T14:32:30Z</time></trkpt>
<trkpt lat="34.850555" lon="134.108055"><ele>184.47</ele><time>2026-08-11T14:32:35Z</time></trkpt>
<trkpt lat="34.850558" lon="134.108064"><ele>184.47</ele><time>2026-08-11T14:32:36Z</time></trkpt>
<trkpt lat="34.850563" lon="134.108093"><ele>184.3</ele><time>2026-08-11T14:32:38Z</time></trkpt>
<trkpt lat="34.850576" lon="134.108131"><ele>184.3</ele><time>2026-08-11T14:32:40Z</time></trkpt>
<trkpt lat="34.850603" lon="134.108174"><ele>185.18</ele><time>2026-08-11T14:32:43Z</time></trkpt>
<trkpt lat="34.85061" lon="134.108192"><ele>184.84</ele><time>2026-08-11T14:32:44Z</time></trkpt>
<trkpt lat="34.850629" lon="134.108226"><ele>186.15</ele><time>2026-08-11T14:32:46Z</time></trkpt>
<trkpt lat="34.85066" lon="134.108305"><ele>186.75</ele><time>2026-08-11T14:32:50Z</time></trkpt>
<trkpt lat="34.850675" lon="134.108328"><ele>186.75</ele><time>2026-08-11T14:32:52Z</time></trkpt>
<trkpt lat="34.850698" lon="134.108386"><ele>186.9</ele><time>2026-08-11T14:32:55Z</time></trkpt>
<trkpt lat="34.850718" lon="134.108502"><ele>187.96</ele><time>2026-08-11T14:33:00Z</time></trkpt>
<trkpt lat="34.850717" lon="134.108608"><ele>190.32</ele><time>2026-08-11T14:33:05Z</time></trkpt>
<trkpt lat="34.850719" lon="134.108641"><ele>190.32</ele><time>2026-08-11T14:33:08Z</time></trkpt>
<trkpt lat="34.850723" lon="134.108664"><ele>191.63</ele><time>2026-08-11T14:33:10Z</time></trkpt>
<trkpt lat="34.850729" lon="134.108722"><ele>192.44</ele><time>2026-08-11T14:33:15Z</time></trkpt>
<trkpt lat="34.850734" lon="134.108732"><ele>192.44</ele><time>2026-08-11T14:33:16Z</time></trkpt>
<trkpt lat="34.85075" lon="134.108771"><ele>193.19</ele><time>2026-08-11T14:33:20Z</time></trkpt>
<trkpt lat="34.850754" lon="134.108775"><ele>193.19</ele><time>2026-08-11T14:33:21Z</time></trkpt>
<trkpt lat="34.850754" lon="134.108798"><ele>194.08</ele><time>2026-08-11T14:33:25Z</time></trkpt>
<trkpt lat="34.850759" lon="134.108824"><ele>195.51</ele><time>2026-08-11T14:33:27Z</time></trkpt>
<trkpt lat="34.850763" lon="134.108841"><ele>195.51</ele><time>2026-08-11T14:33:30Z</time></trkpt>
<trkpt lat="34.850774" lon="134.108869"><ele>196.22</ele><time>2026-08-11T14:33:34Z</time></trkpt>
<trkpt lat="34.850798" lon="134.108911"><ele>197.39</ele><time>2026-08-11T14:33:38Z</time></trkpt>
<trkpt lat="34.850817" lon="134.108967"><ele>197.61</ele><time>2026-08-11T14:33:42Z</time></trkpt>
<trkpt lat="34.850872" lon="134.109087"><ele>197.17</ele><time>2026-08-11T14:33:48Z</time></trkpt>
<trkpt lat="34.850875" lon="134.109137"><ele>197.01</ele><time>2026-08-11T14:33:50Z</time></trkpt>
<trkpt lat="34.850882" lon="134.10923"><ele>197.29</ele><time>2026-08-11T14:33:54Z</time></trkpt>
<trkpt lat="34.850955" lon="134.109296"><ele>198.36</ele><time>2026-08-11T14:33:59Z</time></trkpt>
<trkpt lat="34.851028" lon="134.109366"><ele>199.05</ele><time>2026-08-11T14:34:04Z</time></trkpt>
<trkpt lat="34.851108" lon="134.109431"><ele>200.58</ele><time>2026-08-11T14:34:09Z</time></trkpt>
<trkpt lat="34.851155" lon="134.109471"><ele>201.9</ele><time>2026-08-11T14:34:14Z</time></trkpt>
<trkpt lat="34.851168" lon="134.109491"><ele>201.9</ele><time>2026-08-11T14:34:16Z</time></trkpt>
<trkpt lat="34.851268" lon="134.109564"><ele>203.18</ele><time>2026-08-11T14:34:22Z</time></trkpt>
<trkpt lat="34.851281" lon="134.109571"><ele>203.18</ele><time>2026-08-11T14:34:23Z</time></trkpt>
<trkpt lat="34.851321" lon="134.109607"><ele>203.49</ele><time>2026-08-11T14:34:26Z</time></trkpt>
<trkpt lat="34.851361" lon="134.109651"><ele>204.6</ele><time>2026-08-11T14:34:30Z</time></trkpt>
<trkpt lat="34.851382" lon="134.109665"><ele>204.6</ele><time>2026-08-11T14:34:33Z</time></trkpt>
<trkpt lat="34.851394" lon="134.109685"><ele>205.65</ele><time>2026-08-11T14:34:35Z</time></trkpt>
<trkpt lat="34.851399" lon="134.109703"><ele>205.65</ele><time>2026-08-11T14:34:36Z</time></trkpt>
<trkpt lat="34.851416" lon="134.10972"><ele>205.65</ele><time>2026-08-11T14:34:38Z</time></trkpt>
<trkpt lat="34.851441" lon="134.109732"><ele>205.88</ele><time>2026-08-11T14:34:40Z</time></trkpt>
<trkpt lat="34.851458" lon="134.109734"><ele>205.88</ele><time>2026-08-11T14:34:41Z</time></trkpt>
<trkpt lat="34.851515" lon="134.109741"><ele>207.47</ele><time>2026-08-11T14:34:45Z</time></trkpt>
<trkpt lat="34.851567" lon="134.109734"><ele>209.42</ele><time>2026-08-11T14:34:48Z</time></trkpt>
<trkpt lat="34.851608" lon="134.10974"><ele>210.48</ele><time>2026-08-11T14:34:51Z</time></trkpt>
<trkpt lat="34.85165" lon="134.109746"><ele>211.64</ele><time>2026-08-11T14:34:54Z</time></trkpt>
<trkpt lat="34.851675" lon="134.109745"><ele>212.93</ele><time>2026-08-11T14:34:56Z</time></trkpt>
<trkpt lat="34.85168" lon="134.109745"><ele>212.93</ele><time>2026-08-11T14:34:57Z</time></trkpt>
<trkpt lat="34.851696" lon="134.109745"><ele>212.93</ele><time>2026-08-11T14:35:01Z</time></trkpt>
<trkpt lat="34.851704" lon="134.109746"><ele>212.93</ele><time>2026-08-11T14:35:02Z</time></trkpt>
<trkpt lat="34.851718" lon="134.10975"><ele>214.19</ele><time>2026-08-11T14:35:06Z</time></trkpt>
<trkpt lat="34.851732" lon="134.109757"><ele>214.19</ele><time>2026-08-11T14:35:08Z</time></trkpt>
<trkpt lat="34.851763" lon="134.109778"><ele>216.02</ele><time>2026-08-11T14:35:14Z</time></trkpt>
<trkpt lat="34.851771" lon="134.109785"><ele>216.02</ele><time>2026-08-11T14:35:15Z</time></trkpt>
<trkpt lat="34.851776" lon="134.109787"><ele>216.02</ele><time>2026-08-11T14:35:18Z</time></trkpt>
<trkpt lat="34.851775" lon="134.109787"><ele>216.02</ele><time>2026-08-11T14:35:24Z</time></trkpt>
<trkpt lat="34.851775" lon="134.109787"><ele>216.02</ele><time>2026-08-11T14:35:28Z</time></trkpt>
<trkpt lat="34.851775" lon="134.109787"><ele>216.02</ele><time>2026-08-11T14:35:36Z</time></trkpt>
<trkpt lat="34.851775" lon="134.109787"><ele>216.02</ele><time>2026-08-11T14:35:41Z</time></trkpt>
<trkpt lat="34.851775" lon="134.109791"><ele>216.02</ele><time>2026-08-11T14:35:48Z</time></trkpt>
<trkpt lat="34.851775" lon="134.109803"><ele>216.02</ele><time>2026-08-11T14:35:52Z</time></trkpt>
<trkpt lat="34.851792" lon="134.109808"><ele>217.14</ele><time>2026-08-11T14:35:56Z</time></trkpt>
<trkpt lat="34.851888" lon="134.109813"><ele>219.71</ele><time>2026-08-11T14:36:00Z</time></trkpt>
<trkpt lat="34.851935" lon="134.109834"><ele>220.45</ele><time>2026-08-11T14:36:02Z</time></trkpt>
<trkpt lat="34.851991" lon="134.109848"><ele>220.49</ele><time>2026-08-11T14:36:04Z</time></trkpt>
<trkpt lat="34.852074" lon="134.109861"><ele>220.5</ele><time>2026-08-11T14:36:07Z</time></trkpt>
<trkpt lat="34.852156" lon="134.109887"><ele>219.73</ele><time>2026-08-11T14:36:11Z</time></trkpt>
<trkpt lat="34.852243" lon="134.109933"><ele>220.48</ele><time>2026-08-11T14:36:15Z</time></trkpt>
<trkpt lat="34.852265" lon="134.109948"><ele>220.19</ele><time>2026-08-11T14:36:16Z</time></trkpt>
<trkpt lat="34.852329" lon="134.110009"><ele>220.65</ele><time>2026-08-11T14:36:20Z</time></trkpt>
<trkpt lat="34.85237" lon="134.110069"><ele>220.97</ele><time>2026-08-11T14:36:23Z</time></trkpt>
<trkpt lat="34.852384" lon="134.11009"><ele>222.79</ele><time>2026-08-11T14:36:24Z</time></trkpt>
<trkpt lat="34.85241" lon="134.110129"><ele>222.49</ele><time>2026-08-11T14:36:26Z</time></trkpt>
<trkpt lat="34.852439" lon="134.110195"><ele>223.33</ele><time>2026-08-11T14:36:29Z</time></trkpt>
<trkpt lat="34.852479" lon="134.110252"><ele>223.66</ele><time>2026-08-11T14:36:32Z</time></trkpt>
<trkpt lat="34.852509" lon="134.11028"><ele>223.23</ele><time>2026-08-11T14:36:34Z</time></trkpt>
<trkpt lat="34.852576" lon="134.110333"><ele>224.43</ele><time>2026-08-11T14:36:39Z</time></trkpt>
<trkpt lat="34.852596" lon="134.110367"><ele>224.89</ele><time>2026-08-11T14:36:41Z</time></trkpt>
<trkpt lat="34.852653" lon="134.110477"><ele>224.83</ele><time>2026-08-11T14:36:46Z</time></trkpt>
<trkpt lat="34.852654" lon="134.1105"><ele>224.25</ele><time>2026-08-11T14:36:47Z</time></trkpt>
<trkpt lat="34.852694" lon="134.110631"><ele>224.53</ele><time>2026-08-11T14:36:53Z</time></trkpt>
<trkpt lat="34.852708" lon="134.110635"><ele>224.53</ele><time>2026-08-11T14:36:54Z</time></trkpt>
<trkpt lat="34.852782" lon="134.110683"><ele>225.53</ele><time>2026-08-11T14:36:58Z</time></trkpt>
<trkpt lat="34.852785" lon="134.110707"><ele>225.53</ele><time>2026-08-11T14:36:59Z</time></trkpt>
<trkpt lat="34.852826" lon="134.11079"><ele>225.79</ele><time>2026-08-11T14:37:03Z</time></trkpt>
<trkpt lat="34.852846" lon="134.110839"><ele>227.78</ele><time>2026-08-11T14:37:06Z</time></trkpt>
<trkpt lat="34.852848" lon="134.110854"><ele>227.78</ele><time>2026-08-11T14:37:07Z</time></trkpt>
<trkpt lat="34.852848" lon="134.110871"><ele>227.78</ele><time>2026-08-11T14:37:08Z</time></trkpt>
<trkpt lat="34.852893" lon="134.110986"><ele>227.44</ele><time>2026-08-11T14:37:15Z</time></trkpt>
<trkpt lat="34.853" lon="134.110982"><ele>225.26</ele><time>2026-08-11T14:37:20Z</time></trkpt>
<trkpt lat="34.853024" lon="134.110969"><ele>224.23</ele><time>2026-08-11T14:37:21Z</time></trkpt>
<trkpt lat="34.853076" lon="134.110965"><ele>226.45</ele><time>2026-08-11T14:37:24Z</time></trkpt>
<trkpt lat="34.853138" lon="134.110972"><ele>224.63</ele><time>2026-08-11T14:37:27Z</time></trkpt>
<trkpt lat="34.85322" lon="134.111008"><ele>225.81</ele><time>2026-08-11T14:37:33Z</time></trkpt>
<trkpt lat="34.85324" lon="134.111024"><ele>224.4</ele><time>2026-08-11T14:37:35Z</time></trkpt>
<trkpt lat="34.85327" lon="134.111051"><ele>226.08</ele><time>2026-08-11T14:37:37Z</time></trkpt>
<trkpt lat="34.853288" lon="134.111068"><ele>224.22</ele><time>2026-08-11T14:37:38Z</time></trkpt>
<trkpt lat="34.853365" lon="134.11112"><ele>228.27</ele><time>2026-08-11T14:37:42Z</time></trkpt>
<trkpt lat="34.853409" lon="134.111155"><ele>227.84</ele><time>2026-08-11T14:37:44Z</time></trkpt>
<trkpt lat="34.853473" lon="134.111212"><ele>228.21</ele><time>2026-08-11T14:37:48Z</time></trkpt>
<trkpt lat="34.85354" lon="134.111215"><ele>230.6</ele><time>2026-08-11T14:37:52Z</time></trkpt>
<trkpt lat="34.853551" lon="134.111214"><ele>230.6</ele><time>2026-08-11T14:37:53Z</time></trkpt>
<trkpt lat="34.853576" lon="134.111221"><ele>231.75</ele><time>2026-08-11T14:37:55Z</time></trkpt>
<trkpt lat="34.853595" lon="134.11123"><ele>228.47</ele><time>2026-08-11T14:37:56Z</time></trkpt>
<trkpt lat="34.853643" lon="134.111238"><ele>229.49</ele><time>2026-08-11T14:37:58Z</time></trkpt>
<trkpt lat="34.853667" lon="134.111237"><ele>230.66</ele><time>2026-08-11T14:37:59Z</time></trkpt>
<trkpt lat="34.85368" lon="134.111244"><ele>231.92</ele><time>2026-08-11T14:38:00Z</time></trkpt>
<trkpt lat="34.853694" lon="134.111242"><ele>231.92</ele><time>2026-08-11T14:38:01Z</time></trkpt>
<trkpt lat="34.853705" lon="134.111241"><ele>231.92</ele><time>2026-08-11T14:38:02Z</time></trkpt>
<trkpt lat="34.853733" lon="134.111241"><ele>233.51</ele><time>2026-08-11T14:38:07Z</time></trkpt>
<trkpt lat="34.853776" lon="134.111234"><ele>234.87</ele><time>2026-08-11T14:38:12Z</time></trkpt>
<trkpt lat="34.853793" lon="134.111232"><ele>235.96</ele><time>2026-08-11T14:38:13Z</time></trkpt>
<trkpt lat="34.853818" lon="134.111235"><ele>235.96</ele><time>2026-08-11T14:38:15Z</time></trkpt>
<trkpt lat="34.853845" lon="134.111237"><ele>237.26</ele><time>2026-08-11T14:38:20Z</time></trkpt>
<trkpt lat="34.853896" lon="134.111245"><ele>240.23</ele><time>2026-08-11T14:38:24Z</time></trkpt>
<trkpt lat="34.853911" lon="134.11125"><ele>240.23</ele><time>2026-08-11T14:38:25Z</time></trkpt>
<trkpt lat="34.853933" lon="134.111281"><ele>242.23</ele><time>2026-08-11T14:38:29Z</time></trkpt>
<trkpt lat="34.853938" lon="134.111286"><ele>242.23</ele><time>2026-08-11T14:38:31Z</time></trkpt>
<trkpt lat="34.853938" lon="134.111292"><ele>242.23</ele><time>2026-08-11T14:38:33Z</time></trkpt>
<trkpt lat="34.853974" lon="134.111347"><ele>244.88</ele><time>2026-08-11T14:38:38Z</time></trkpt>
<trkpt lat="34.853981" lon="134.111375"><ele>245.75</ele><time>2026-08-11T14:38:40Z</time></trkpt>
<trkpt lat="34.85399" lon="134.111402"><ele>246.71</ele><time>2026-08-11T14:38:42Z</time></trkpt>
<trkpt lat="34.854002" lon="134.111422"><ele>248.34</ele><time>2026-08-11T14:38:44Z</time></trkpt>
<trkpt lat="34.854006" lon="134.111445"><ele>249.74</ele><time>2026-08-11T14:38:46Z</time></trkpt>
<trkpt lat="34.854003" lon="134.111465"><ele>249.74</ele><time>2026-08-11T14:38:49Z</time></trkpt>
<trkpt lat="34.854005" lon="134.11147"><ele>249.74</ele><time>2026-08-11T14:38:50Z</time></trkpt>
<trkpt lat="34.854005" lon="134.11151"><ele>251.19</ele><time>2026-08-11T14:38:54Z</time></trkpt>
<trkpt lat="34.854004" lon="134.111516"><ele>251.19</ele><time>2026-08-11T14:38:55Z</time></trkpt>
<trkpt lat="34.853999" lon="134.111542"><ele>252.56</ele><time>2026-08-11T14:38:57Z</time></trkpt>
<trkpt lat="34.853996" lon="134.111576"><ele>253.79</ele><time>2026-08-11T14:39:01Z</time></trkpt>
<trkpt lat="34.853997" lon="134.111587"><ele>253.79</ele><time>2026-08-11T14:39:04Z</time></trkpt>
<trkpt lat="34.853998" lon="134.111592"><ele>253.79</ele><time>2026-08-11T14:39:05Z</time></trkpt>
<trkpt lat="34.853992" lon="134.111614"><ele>252.61</ele><time>2026-08-11T14:39:09Z</time></trkpt>
<trkpt lat="34.85399" lon="134.111623"><ele>252.61</ele><time>2026-08-11T14:39:10Z</time></trkpt>
<trkpt lat="34.853988" lon="134.111636"><ele>252.61</ele><time>2026-08-11T14:39:11Z</time></trkpt>
<trkpt lat="34.85398" lon="134.111666"><ele>253.83</ele><time>2026-08-11T14:39:15Z</time></trkpt>
<trkpt lat="34.853984" lon="134.111683"><ele>253.83</ele><time>2026-08-11T14:39:17Z</time></trkpt>
<trkpt lat="34.853984" lon="134.111705"><ele>255.04</ele><time>2026-08-11T14:39:21Z</time></trkpt>
<trkpt lat="34.853987" lon="134.11173"><ele>255.04</ele><time>2026-08-11T14:39:23Z</time></trkpt>
<trkpt lat="34.853987" lon="134.111743"><ele>256.16</ele><time>2026-08-11T14:39:24Z</time></trkpt>
<trkpt lat="34.853978" lon="134.111795"><ele>256.99</ele><time>2026-08-11T14:39:28Z</time></trkpt>
<trkpt lat="34.853975" lon="134.111817"><ele>256.99</ele><time>2026-08-11T14:39:30Z</time></trkpt>
<trkpt lat="34.853972" lon="134.111868"><ele>259.33</ele><time>2026-08-11T14:39:32Z</time></trkpt>
<trkpt lat="34.853982" lon="134.111919"><ele>260.77</ele><time>2026-08-11T14:39:36Z</time></trkpt>
<trkpt lat="34.85398" lon="134.11192"><ele>260.77</ele><time>2026-08-11T14:39:38Z</time></trkpt>
<trkpt lat="34.853987" lon="134.111941"><ele>260.77</ele><time>2026-08-11T14:39:41Z</time></trkpt>
<trkpt lat="34.853984" lon="134.111991"><ele>261.93</ele><time>2026-08-11T14:39:46Z</time></trkpt>
<trkpt lat="34.853989" lon="134.11201"><ele>263.34</ele><time>2026-08-11T14:39:49Z</time></trkpt>
<trkpt lat="34.853998" lon="134.112033"><ele>266.11</ele><time>2026-08-11T14:39:51Z</time></trkpt>
<trkpt lat="34.854008" lon="134.112068"><ele>267.48</ele><time>2026-08-11T14:39:55Z</time></trkpt>
<trkpt lat="34.85401" lon="134.112078"><ele>267.48</ele><time>2026-08-11T14:39:56Z</time></trkpt>
<trkpt lat="34.853999" lon="134.112101"><ele>268.61</ele><time>2026-08-11T14:39:59Z</time></trkpt>
<trkpt lat="34.853998" lon="134.112114"><ele>268.61</ele><time>2026-08-11T14:40:01Z</time></trkpt>
<trkpt lat="34.854001" lon="134.112139"><ele>269.29</ele><time>2026-08-11T14:40:03Z</time></trkpt>
<trkpt lat="34.85401" lon="134.112178"><ele>269.21</ele><time>2026-08-11T14:40:06Z</time></trkpt>
<trkpt lat="34.854011" lon="134.112193"><ele>269.21</ele><time>2026-08-11T14:40:07Z</time></trkpt>
<trkpt lat="34.854011" lon="134.112209"><ele>269.21</ele><time>2026-08-11T14:40:08Z</time></trkpt>
<trkpt lat="34.854016" lon="134.112235"><ele>268.42</ele><time>2026-08-11T14:40:10Z</time></trkpt>
<trkpt lat="34.854029" lon="134.112266"><ele>267.32</ele><time>2026-08-11T14:40:12Z</time></trkpt>
<trkpt lat="34.854041" lon="134.112323"><ele>269.1</ele><time>2026-08-11T14:40:15Z</time></trkpt>
<trkpt lat="34.854056" lon="134.112365"><ele>268.06</ele><time>2026-08-11T14:40:17Z</time></trkpt>
<trkpt lat="34.854068" lon="134.112411"><ele>270.07</ele><time>2026-08-11T14:40:21Z</time></trkpt>
<trkpt lat="34.854075" lon="134.112418"><ele>270.07</ele><time>2026-08-11T14:40:23Z</time></trkpt>
<trkpt lat="34.854064" lon="134.112432"><ele>266.97</ele><time>2026-08-11T14:40:25Z</time></trkpt>
<trkpt lat="34.85409" lon="134.112456"><ele>269.77</ele><time>2026-08-11T14:40:27Z</time></trkpt>
<trkpt lat="34.854096" lon="134.112468"><ele>269.83</ele><time>2026-08-11T14:40:28Z</time></trkpt>
<trkpt lat="34.854125" lon="134.11251"><ele>272.41</ele><time>2026-08-11T14:40:32Z</time></trkpt>
<trkpt lat="34.854129" lon="134.112507"><ele>272.41</ele><time>2026-08-11T14:40:35Z</time></trkpt>
<trkpt lat="34.854141" lon="134.11252"><ele>275.71</ele><time>2026-08-11T14:40:37Z</time></trkpt>
<trkpt lat="34.854148" lon="134.112542"><ele>275.71</ele><time>2026-08-11T14:40:41Z</time></trkpt>
<trkpt lat="34.854147" lon="134.112555"><ele>276.39</ele><time>2026-08-11T14:40:43Z</time></trkpt>
<trkpt lat="34.854141" lon="134.112577"><ele>276.39</ele><time>2026-08-11T14:40:47Z</time></trkpt>
<trkpt lat="34.854132" lon="134.112626"><ele>274.78</ele><time>2026-08-11T14:40:51Z</time></trkpt>
<trkpt lat="34.854135" lon="134.112651"><ele>276.1</ele><time>2026-08-11T14:40:53Z</time></trkpt>
<trkpt lat="34.854154" lon="134.112711"><ele>279.76</ele><time>2026-08-11T14:40:57Z</time></trkpt>
<trkpt lat="34.854151" lon="134.112758"><ele>281.56</ele><time>2026-08-11T14:41:01Z</time></trkpt>
<trkpt lat="34.85416" lon="134.112797"><ele>282.99</ele><time>2026-08-11T14:41:04Z</time></trkpt>
<trkpt lat="34.854157" lon="134.112807"><ele>282.99</ele><time>2026-08-11T14:41:05Z</time></trkpt>
<trkpt lat="34.854158" lon="134.112859"><ele>284.56</ele><time>2026-08-11T14:41:10Z</time></trkpt>
<trkpt lat="34.854149" lon="134.112897"><ele>284.88</ele><time>2026-08-11T14:41:13Z</time></trkpt>
<trkpt lat="34.854146" lon="134.11293"><ele>284.88</ele><time>2026-08-11T14:41:16Z</time></trkpt>
<trkpt lat="34.854148" lon="134.112951"><ele>284.79</ele><time>2026-08-11T14:41:19Z</time></trkpt>
<trkpt lat="34.854153" lon="134.112963"><ele>284.79</ele><time>2026-08-11T14:41:22Z</time></trkpt>
<trkpt lat="34.854186" lon="134.112999"><ele>285.83</ele><time>2026-08-11T14:41:27Z</time></trkpt>
<trkpt lat="34.854191" lon="134.113008"><ele>285.83</ele><time>2026-08-11T14:41:28Z</time></trkpt>
<trkpt lat="34.854215" lon="134.11303"><ele>285.54</ele><time>2026-08-11T14:41:34Z</time></trkpt>
<trkpt lat="34.854221" lon="134.113035"><ele>285.54</ele><time>2026-08-11T14:41:35Z</time></trkpt>
<trkpt lat="34.854264" lon="134.113048"><ele>286.54</ele><time>2026-08-11T14:41:39Z</time></trkpt>
<trkpt lat="34.854304" lon="134.113069"><ele>285.57</ele><time>2026-08-11T14:41:43Z</time></trkpt>
<trkpt lat="34.854321" lon="134.11307"><ele>286.06</ele><time>2026-08-11T14:41:46Z</time></trkpt>
<trkpt lat="34.854358" lon="134.113057"><ele>288.84</ele><time>2026-08-11T14:41:50Z</time></trkpt>
<trkpt lat="34.854377" lon="134.113051"><ele>288.84</ele><time>2026-08-11T14:41:52Z</time></trkpt>
<trkpt lat="34.854421" lon="134.113051"><ele>289.54</ele><time>2026-08-11T14:41:58Z</time></trkpt>
<trkpt lat="34.854462" lon="134.113051"><ele>289.91</ele><time>2026-08-11T14:42:04Z</time></trkpt>
<trkpt lat="34.854469" lon="134.113054"><ele>289.91</ele><time>2026-08-11T14:42:05Z</time></trkpt>
<trkpt lat="34.854523" lon="134.113026"><ele>290.4</ele><time>2026-08-11T14:42:10Z</time></trkpt>
<trkpt lat="34.854528" lon="134.113024"><ele>293.62</ele><time>2026-08-11T14:42:11Z</time></trkpt>
<trkpt lat="34.854558" lon="134.113024"><ele>293.62</ele><time>2026-08-11T14:42:16Z</time></trkpt>
<trkpt lat="34.85458" lon="134.113027"><ele>292.6</ele><time>2026-08-11T14:42:20Z</time></trkpt>
<trkpt lat="34.854621" lon="134.113047"><ele>294.36</ele><time>2026-08-11T14:42:24Z</time></trkpt>
<trkpt lat="34.854629" lon="134.113059"><ele>294.36</ele><time>2026-08-11T14:42:25Z</time></trkpt>
<trkpt lat="34.854651" lon="134.11307"><ele>294.84</ele><time>2026-08-11T14:42:29Z</time></trkpt>
<trkpt lat="34.854668" lon="134.113077"><ele>297.01</ele><time>2026-08-11T14:42:30Z</time></trkpt>
<trkpt lat="34.854702" lon="134.11309"><ele>299.16</ele><time>2026-08-11T14:42:34Z</time></trkpt>
<trkpt lat="34.854712" lon="134.113096"><ele>299.16</ele><time>2026-08-11T14:42:35Z</time></trkpt>
<trkpt lat="34.854742" lon="134.113119"><ele>300.09</ele><time>2026-08-11T14:42:39Z</time></trkpt>
<trkpt lat="34.854787" lon="134.113121"><ele>301.92</ele><time>2026-08-11T14:42:43Z</time></trkpt>
<trkpt lat="34.85481" lon="134.113129"><ele>303.53</ele><time>2026-08-11T14:42:45Z</time></trkpt>
<trkpt lat="34.854841" lon="134.113192"><ele>304.02</ele><time>2026-08-11T14:42:49Z</time></trkpt>
<trkpt lat="34.854846" lon="134.113207"><ele>303.1</ele><time>2026-08-11T14:42:50Z</time></trkpt>
<trkpt lat="34.854855" lon="134.113211"><ele>303.1</ele><time>2026-08-11T14:42:51Z</time></trkpt>
<trkpt lat="34.85486" lon="134.113215"><ele>303.1</ele><time>2026-08-11T14:42:52Z</time></trkpt>
<trkpt lat="34.854904" lon="134.11323"><ele>304.04</ele><time>2026-08-11T14:42:56Z</time></trkpt>
<trkpt lat="34.854906" lon="134.11324"><ele>304.04</ele><time>2026-08-11T14:42:58Z</time></trkpt>
<trkpt lat="34.854898" lon="134.113246"><ele>303.22</ele><time>2026-08-11T14:43:01Z</time></trkpt>
<trkpt lat="34.8549" lon="134.113246"><ele>303.22</ele><time>2026-08-11T14:43:05Z</time></trkpt>
<trkpt lat="34.85492" lon="134.113249"><ele>304.3</ele><time>2026-08-11T14:43:10Z</time></trkpt>
<trkpt lat="34.854967" lon="134.113244"><ele>305.57</ele><time>2026-08-11T14:43:16Z</time></trkpt>
<trkpt lat="34.855014" lon="134.113263"><ele>306.7</ele><time>2026-08-11T14:43:19Z</time></trkpt>
<trkpt lat="34.85506" lon="134.113291"><ele>307.66</ele><time>2026-08-11T14:43:22Z</time></trkpt>
<trkpt lat="34.855075" lon="134.113299"><ele>307.66</ele><time>2026-08-11T14:43:23Z</time></trkpt>
<trkpt lat="34.855118" lon="134.113321"><ele>308.74</ele><time>2026-08-11T14:43:26Z</time></trkpt>
<trkpt lat="34.855152" lon="134.113345"><ele>308.72</ele><time>2026-08-11T14:43:29Z</time></trkpt>
<trkpt lat="34.855186" lon="134.11336"><ele>310.01</ele><time>2026-08-11T14:43:34Z</time></trkpt>
<trkpt lat="34.855195" lon="134.113366"><ele>311.46</ele><time>2026-08-11T14:43:35Z</time></trkpt>
<trkpt lat="34.855207" lon="134.113377"><ele>310.54</ele><time>2026-08-11T14:43:37Z</time></trkpt>
<trkpt lat="34.855221" lon="134.11339"><ele>310.54</ele><time>2026-08-11T14:43:39Z</time></trkpt>
<trkpt lat="34.855228" lon="134.113397"><ele>310.54</ele><time>2026-08-11T14:43:40Z</time></trkpt>
<trkpt lat="34.855273" lon="134.113434"><ele>312.86</ele><time>2026-08-11T14:43:45Z</time></trkpt>
<trkpt lat="34.8553" lon="134.113467"><ele>313.41</ele><time>2026-08-11T14:43:48Z</time></trkpt>
<trkpt lat="34.855312" lon="134.113484"><ele>313.41</ele><time>2026-08-11T14:43:49Z</time></trkpt>
<trkpt lat="34.855394" lon="134.113528"><ele>315.0</ele><time>2026-08-11T14:43:54Z</time></trkpt>
<trkpt lat="34.855462" lon="134.113564"><ele>316.1</ele><time>2026-08-11T14:43:58Z</time></trkpt>
<trkpt lat="34.855522" lon="134.113604"><ele>316.75</ele><time>2026-08-11T14:44:02Z</time></trkpt>
<trkpt lat="34.855612" lon="134.11363"><ele>317.31</ele><time>2026-08-11T14:44:07Z</time></trkpt>
<trkpt lat="34.85565" lon="134.11365"><ele>317.93</ele><time>2026-08-11T14:44:10Z</time></trkpt>
<trkpt lat="34.855663" lon="134.11366"><ele>318.69</ele><time>2026-08-11T14:44:11Z</time></trkpt>
<trkpt lat="34.855699" lon="134.113679"><ele>318.78</ele><time>2026-08-11T14:44:13Z</time></trkpt>
<trkpt lat="34.855835" lon="134.113748"><ele>318.87</ele><time>2026-08-11T14:44:19Z</time></trkpt>
<trkpt lat="34.855872" lon="134.113776"><ele>318.72</ele><time>2026-08-11T14:44:21Z</time></trkpt>
<trkpt lat="34.855995" lon="134.113864"><ele>319.53</ele><time>2026-08-11T14:44:27Z</time></trkpt>
<trkpt lat="34.856046" lon="134.113938"><ele>320.65</ele><time>2026-08-11T14:44:31Z</time></trkpt>
<trkpt lat="34.856065" lon="134.113967"><ele>320.65</ele><time>2026-08-11T14:44:33Z</time></trkpt>
<trkpt lat="34.856076" lon="134.113995"><ele>321.29</ele><time>2026-08-11T14:44:35Z</time></trkpt>
<trkpt lat="34.85608" lon="134.114006"><ele>321.29</ele><time>2026-08-11T14:44:36Z</time></trkpt>
<trkpt lat="34.856117" lon="134.114063"><ele>321.65</ele><time>2026-08-11T14:44:41Z</time></trkpt>
<trkpt lat="34.856124" lon="134.114075"><ele>321.65</ele><time>2026-08-11T14:44:42Z</time></trkpt>
<trkpt lat="34.856131" lon="134.114106"><ele>321.12</ele><time>2026-08-11T14:44:44Z</time></trkpt>
<trkpt lat="34.856151" lon="134.11416"><ele>322.03</ele><time>2026-08-11T14:44:48Z</time></trkpt>
<trkpt lat="34.856188" lon="134.114198"><ele>323.26</ele><time>2026-08-11T14:44:51Z</time></trkpt>
<trkpt lat="34.856211" lon="134.114247"><ele>323.14</ele><time>2026-08-11T14:44:55Z</time></trkpt>
<trkpt lat="34.856218" lon="134.114281"><ele>324.32</ele><time>2026-08-11T14:44:58Z</time></trkpt>
<trkpt lat="34.856259" lon="134.114321"><ele>325.06</ele><time>2026-08-11T14:45:02Z</time></trkpt>
<trkpt lat="34.856287" lon="134.114336"><ele>325.68</ele><time>2026-08-11T14:45:06Z</time></trkpt>
<trkpt lat="34.856298" lon="134.11434"><ele>325.68</ele><time>2026-08-11T14:45:08Z</time></trkpt>
<trkpt lat="34.856347" lon="134.114382"><ele>326.29</ele><time>2026-08-11T14:45:13Z</time></trkpt>
<trkpt lat="34.85636" lon="134.114394"><ele>326.94</ele><time>2026-08-11T14:45:14Z</time></trkpt>
<trkpt lat="34.856395" lon="134.114495"><ele>327.59</ele><time>2026-08-11T14:45:20Z</time></trkpt>
<trkpt lat="34.85646" lon="134.114601"><ele>327.96</ele><time>2026-08-11T14:45:26Z</time></trkpt>
<trkpt lat="34.856479" lon="134.114627"><ele>328.24</ele><time>2026-08-11T14:45:28Z</time></trkpt>
<trkpt lat="34.856492" lon="134.114638"><ele>328.24</ele><time>2026-08-11T14:45:29Z</time></trkpt>
<trkpt lat="34.856526" lon="134.114687"><ele>328.85</ele><time>2026-08-11T14:45:32Z</time></trkpt>
<trkpt lat="34.856548" lon="134.114725"><ele>329.52</ele><time>2026-08-11T14:45:34Z</time></trkpt>
<trkpt lat="34.856568" lon="134.114761"><ele>330.3</ele><time>2026-08-11T14:45:36Z</time></trkpt>
<trkpt lat="34.856592" lon="134.114793"><ele>329.97</ele><time>2026-08-11T14:45:38Z</time></trkpt>
<trkpt lat="34.856659" lon="134.11485"><ele>330.91</ele><time>2026-08-11T14:45:43Z</time></trkpt>
<trkpt lat="34.856694" lon="134.114878"><ele>330.98</ele><time>2026-08-11T14:45:45Z</time></trkpt>
<trkpt lat="34.856758" lon="134.114947"><ele>332.6</ele><time>2026-08-11T14:45:49Z</time></trkpt>
<trkpt lat="34.856798" lon="134.114995"><ele>332.84</ele><time>2026-08-11T14:45:52Z</time></trkpt>
<trkpt lat="34.85685" lon="134.115073"><ele>333.86</ele><time>2026-08-11T14:45:57Z</time></trkpt>
<trkpt lat="34.856862" lon="134.115087"><ele>333.06</ele><time>2026-08-11T14:45:58Z</time></trkpt>
<trkpt lat="34.85688" lon="134.115116"><ele>333.06</ele><time>2026-08-11T14:46:00Z</time></trkpt>
<trkpt lat="34.856894" lon="134.115173"><ele>332.86</ele><time>2026-08-11T14:46:03Z</time></trkpt>
<trkpt lat="34.856912" lon="134.115208"><ele>332.86</ele><time>2026-08-11T14:46:05Z</time></trkpt>
<trkpt lat="34.856936" lon="134.115257"><ele>333.58</ele><time>2026-08-11T14:46:08Z</time></trkpt>
<trkpt lat="34.856942" lon="134.115276"><ele>333.0</ele><time>2026-08-11T14:46:09Z</time></trkpt>
<trkpt lat="34.856966" lon="134.115343"><ele>333.93</ele><time>2026-08-11T14:46:12Z</time></trkpt>
<trkpt lat="34.856982" lon="134.115403"><ele>333.46</ele><time>2026-08-11T14:46:15Z</time></trkpt>
<trkpt lat="34.856992" lon="134.115421"><ele>334.59</ele><time>2026-08-11T14:46:16Z</time></trkpt>
<trkpt lat="34.857021" lon="134.115468"><ele>334.3</ele><time>2026-08-11T14:46:19Z</time></trkpt>
<trkpt lat="34.857037" lon="134.115478"><ele>334.95</ele><time>2026-08-11T14:46:20Z</time></trkpt>
<trkpt lat="34.857047" lon="134.115493"><ele>334.95</ele><time>2026-08-11T14:46:21Z</time></trkpt>
<trkpt lat="34.857123" lon="134.115573"><ele>335.88</ele><time>2026-08-11T14:46:24Z</time></trkpt>
<trkpt lat="34.857133" lon="134.115586"><ele>337.53</ele><time>2026-08-11T14:46:25Z</time></trkpt>
<trkpt lat="34.857154" lon="134.115599"><ele>337.53</ele><time>2026-08-11T14:46:31Z</time></trkpt>
<trkpt lat="34.857158" lon="134.115602"><ele>336.81</ele><time>2026-08-11T14:46:32Z</time></trkpt>
<trkpt lat="34.857209" lon="134.115647"><ele>340.47</ele><time>2026-08-11T14:46:37Z</time></trkpt>
<trkpt lat="34.857214" lon="134.115687"><ele>340.39</ele><time>2026-08-11T14:46:40Z</time></trkpt>
<trkpt lat="34.857221" lon="134.1157"><ele>340.39</ele><time>2026-08-11T14:46:42Z</time></trkpt>
<trkpt lat="34.857242" lon="134.115738"><ele>342.43</ele><time>2026-08-11T14:46:46Z</time></trkpt>
<trkpt lat="34.857241" lon="134.11574"><ele>342.43</ele><time>2026-08-11T14:46:47Z</time></trkpt>
<trkpt lat="34.85726" lon="134.115758"><ele>342.43</ele><time>2026-08-11T14:46:55Z</time></trkpt>
<trkpt lat="34.857255" lon="134.115792"><ele>342.33</ele><time>2026-08-11T14:47:02Z</time></trkpt>
<trkpt lat="34.857255" lon="134.115811"><ele>342.33</ele><time>2026-08-11T14:47:04Z</time></trkpt>
<trkpt lat="34.857256" lon="134.115845"><ele>342.27</ele><time>2026-08-11T14:47:07Z</time></trkpt>
<trkpt lat="34.857276" lon="134.115883"><ele>344.36</ele><time>2026-08-11T14:47:11Z</time></trkpt>
<trkpt lat="34.857295" lon="134.11594"><ele>344.52</ele><time>2026-08-11T14:47:14Z</time></trkpt>
<trkpt lat="34.857319" lon="134.116005"><ele>346.85</ele><time>2026-08-11T14:47:17Z</time></trkpt>
<trkpt lat="34.857328" lon="134.116039"><ele>347.11</ele><time>2026-08-11T14:47:19Z</time></trkpt>
<trkpt lat="34.857342" lon="134.116083"><ele>348.37</ele><time>2026-08-11T14:47:22Z</time></trkpt>
<trkpt lat="34.857345" lon="134.116099"><ele>348.37</ele><time>2026-08-11T14:47:23Z</time></trkpt>
<trkpt lat="34.85735" lon="134.116122"><ele>348.82</ele><time>2026-08-11T14:47:25Z</time></trkpt>
<trkpt lat="34.857354" lon="134.116132"><ele>348.82</ele><time>2026-08-11T14:47:26Z</time></trkpt>
<trkpt lat="34.857353" lon="134.116148"><ele>348.82</ele><time>2026-08-11T14:47:29Z</time></trkpt>
<trkpt lat="34.857371" lon="134.116179"><ele>349.78</ele><time>2026-08-11T14:47:32Z</time></trkpt>
<trkpt lat="34.857409" lon="134.116198"><ele>350.49</ele><time>2026-08-11T14:47:35Z</time></trkpt>
<trkpt lat="34.857451" lon="134.11624"><ele>352.21</ele><time>2026-08-11T14:47:38Z</time></trkpt>
<trkpt lat="34.857466" lon="134.116268"><ele>351.95</ele><time>2026-08-11T14:47:40Z</time></trkpt>
<trkpt lat="34.857501" lon="134.116368"><ele>352.57</ele><time>2026-08-11T14:47:45Z</time></trkpt>
<trkpt lat="34.857508" lon="134.116384"><ele>352.4</ele><time>2026-08-11T14:47:46Z</time></trkpt>
<trkpt lat="34.857576" lon="134.116509"><ele>352.14</ele><time>2026-08-11T14:47:51Z</time></trkpt>
<trkpt lat="34.857608" lon="134.116726"><ele>351.35</ele><time>2026-08-11T14:47:59Z</time></trkpt>
<trkpt lat="34.857613" lon="134.116766"><ele>351.77</ele><time>2026-08-11T14:48:01Z</time></trkpt>
<trkpt lat="34.857662" lon="134.116911"><ele>353.09</ele><time>2026-08-11T14:48:08Z</time></trkpt>
<trkpt lat="34.857681" lon="134.116927"><ele>353.09</ele><time>2026-08-11T14:48:09Z</time></trkpt>
<trkpt lat="34.857758" lon="134.117018"><ele>354.26</ele><time>2026-08-11T14:48:14Z</time></trkpt>
<trkpt lat="34.857788" lon="134.117054"><ele>354.53</ele><time>2026-08-11T14:48:16Z</time></trkpt>
<trkpt lat="34.857838" lon="134.117116"><ele>355.6</ele><time>2026-08-11T14:48:20Z</time></trkpt>
<trkpt lat="34.857903" lon="134.117209"><ele>355.42</ele><time>2026-08-11T14:48:25Z</time></trkpt>
<trkpt lat="34.857918" lon="134.11723"><ele>355.52</ele><time>2026-08-11T14:48:26Z</time></trkpt>
<trkpt lat="34.857974" lon="134.117352"><ele>354.74</ele><time>2026-08-11T14:48:32Z</time></trkpt>
<trkpt lat="34.85801" lon="134.117433"><ele>353.54</ele><time>2026-08-11T14:48:36Z</time></trkpt>
<trkpt lat="34.858054" lon="134.11748"><ele>351.48</ele><time>2026-08-11T14:48:39Z</time></trkpt>
<trkpt lat="34.858067" lon="134.1175"><ele>351.21</ele><time>2026-08-11T14:48:40Z</time></trkpt>
<trkpt lat="34.858104" lon="134.11757"><ele>350.31</ele><time>2026-08-11T14:48:43Z</time></trkpt>
<trkpt lat="34.858146" lon="134.117621"><ele>350.1</ele><time>2026-08-11T14:48:46Z</time></trkpt>
<trkpt lat="34.858159" lon="134.117637"><ele>349.43</ele><time>2026-08-11T14:48:47Z</time></trkpt>
<trkpt lat="34.858255" lon="134.117737"><ele>348.63</ele><time>2026-08-11T14:48:52Z</time></trkpt>
<trkpt lat="34.858271" lon="134.117763"><ele>348.08</ele><time>2026-08-11T14:48:53Z</time></trkpt>
<trkpt lat="34.85831" lon="134.117806"><ele>348.01</ele><time>2026-08-11T14:48:55Z</time></trkpt>
<trkpt lat="34.858323" lon="134.117828"><ele>348.01</ele><time>2026-08-11T14:48:56Z</time></trkpt>
<trkpt lat="34.858379" lon="134.117976"><ele>347.68</ele><time>2026-08-11T14:49:02Z</time></trkpt>
<trkpt lat="34.858409" lon="134.118052"><ele>348.2</ele><time>2026-08-11T14:49:05Z</time></trkpt>
<trkpt lat="34.858495" lon="134.118204"><ele>348.22</ele><time>2026-08-11T14:49:12Z</time></trkpt>
<trkpt lat="34.85851" lon="134.118231"><ele>347.98</ele><time>2026-08-11T14:49:13Z</time></trkpt>
<trkpt lat="34.858648" lon="134.118363"><ele>348.05</ele><time>2026-08-11T14:49:20Z</time></trkpt>
<trkpt lat="34.858731" lon="134.118453"><ele>348.67</ele><time>2026-08-11T14:49:25Z</time></trkpt>
<trkpt lat="34.858784" lon="134.118499"><ele>349.21</ele><time>2026-08-11T14:49:28Z</time></trkpt>
<trkpt lat="34.858846" lon="134.118577"><ele>350.32</ele><time>2026-08-11T14:49:33Z</time></trkpt>
<trkpt lat="34.858871" lon="134.118604"><ele>350.86</ele><time>2026-08-11T14:49:35Z</time></trkpt>
<trkpt lat="34.858886" lon="134.118617"><ele>351.1</ele><time>2026-08-11T14:49:36Z</time></trkpt>
<trkpt lat="34.858897" lon="134.118632"><ele>352.07</ele><time>2026-08-11T14:49:37Z</time></trkpt>
<trkpt lat="34.858949" lon="134.11867"><ele>353.03</ele><time>2026-08-11T14:49:41Z</time></trkpt>
<trkpt lat="34.858992" lon="134.118706"><ele>353.94</ele><time>2026-08-11T14:49:44Z</time></trkpt>
<trkpt lat="34.859023" lon="134.118731"><ele>354.82</ele><time>2026-08-11T14:49:46Z</time></trkpt>
<trkpt lat="34.859059" lon="134.118756"><ele>355.88</ele><time>2026-08-11T14:49:48Z</time></trkpt>
<trkpt lat="34.859108" lon="134.118787"><ele>358.73</ele><time>2026-08-11T14:49:51Z</time></trkpt>
<trkpt lat="34.859121" lon="134.118798"><ele>358.73</ele><time>2026-08-11T14:49:53Z</time></trkpt>
<trkpt lat="34.859139" lon="134.118823"><ele>360.23</ele><time>2026-08-11T14:49:57Z</time></trkpt>
<trkpt lat="34.859153" lon="134.118831"><ele>360.23</ele><time>2026-08-11T14:50:00Z</time></trkpt>
<trkpt lat="34.859162" lon="134.118836"><ele>360.23</ele><time>2026-08-11T14:50:02Z</time></trkpt>
<trkpt lat="34.859185" lon="134.118846"><ele>361.46</ele><time>2026-08-11T14:50:07Z</time></trkpt>
<trkpt lat="34.859197" lon="134.11886"><ele>361.46</ele><time>2026-08-11T14:50:13Z</time></trkpt>
<trkpt lat="34.8592" lon="134.118864"><ele>361.35</ele><time>2026-08-11T14:50:14Z</time></trkpt>
<trkpt lat="34.859236" lon="134.118879"><ele>362.46</ele><time>2026-08-11T14:50:18Z</time></trkpt>
<trkpt lat="34.859244" lon="134.118889"><ele>363.66</ele><time>2026-08-11T14:50:21Z</time></trkpt>
<trkpt lat="34.859257" lon="134.11889"><ele>363.66</ele><time>2026-08-11T14:50:23Z</time></trkpt>
<trkpt lat="34.859279" lon="134.118891"><ele>365.09</ele><time>2026-08-11T14:50:28Z</time></trkpt>
<trkpt lat="34.859288" lon="134.118897"><ele>365.09</ele><time>2026-08-11T14:50:29Z</time></trkpt>
<trkpt lat="34.859303" lon="134.118912"><ele>364.98</ele><time>2026-08-11T14:50:31Z</time></trkpt>
<trkpt lat="34.859328" lon="134.118919"><ele>366.32</ele><time>2026-08-11T14:50:35Z</time></trkpt>
<trkpt lat="34.859359" lon="134.118952"><ele>367.37</ele><time>2026-08-11T14:50:39Z</time></trkpt>
<trkpt lat="34.859367" lon="134.118951"><ele>367.37</ele><time>2026-08-11T14:50:40Z</time></trkpt>
<trkpt lat="34.859387" lon="134.118959"><ele>368.67</ele><time>2026-08-11T14:50:42Z</time></trkpt>
<trkpt lat="34.859417" lon="134.118984"><ele>368.67</ele><time>2026-08-11T14:50:46Z</time></trkpt>
<trkpt lat="34.859416" lon="134.118994"><ele>368.38</ele><time>2026-08-11T14:50:47Z</time></trkpt>
<trkpt lat="34.859427" lon="134.119022"><ele>369.62</ele><time>2026-08-11T14:50:51Z</time></trkpt>
<trkpt lat="34.859442" lon="134.119026"><ele>369.62</ele><time>2026-08-11T14:50:53Z</time></trkpt>
<trkpt lat="34.859488" lon="134.119035"><ele>370.52</ele><time>2026-08-11T14:50:57Z</time></trkpt>
<trkpt lat="34.859524" lon="134.119048"><ele>371.68</ele><time>2026-08-11T14:51:01Z</time></trkpt>
<trkpt lat="34.859531" lon="134.119056"><ele>372.8</ele><time>2026-08-11T14:51:02Z</time></trkpt>
<trkpt lat="34.859554" lon="134.119078"><ele>372.62</ele><time>2026-08-11T14:51:07Z</time></trkpt>
<trkpt lat="34.85958" lon="134.11909"><ele>373.75</ele><time>2026-08-11T14:51:09Z</time></trkpt>
<trkpt lat="34.85959" lon="134.119098"><ele>373.75</ele><time>2026-08-11T14:51:10Z</time></trkpt>
<trkpt lat="34.859633" lon="134.119123"><ele>375.8</ele><time>2026-08-11T14:51:14Z</time></trkpt>
<trkpt lat="34.859663" lon="134.119134"><ele>375.8</ele><time>2026-08-11T14:51:16Z</time></trkpt>
<trkpt lat="34.85968" lon="134.119142"><ele>376.39</ele><time>2026-08-11T14:51:17Z</time></trkpt>
<trkpt lat="34.859758" lon="134.119184"><ele>377.15</ele><time>2026-08-11T14:51:22Z</time></trkpt>
<trkpt lat="34.85981" lon="134.119234"><ele>377.59</ele><time>2026-08-11T14:51:26Z</time></trkpt>
<trkpt lat="34.859876" lon="134.1193"><ele>377.89</ele><time>2026-08-11T14:51:31Z</time></trkpt>
<trkpt lat="34.85991" lon="134.119333"><ele>377.82</ele><time>2026-08-11T14:51:33Z</time></trkpt>
<trkpt lat="34.860034" lon="134.119491"><ele>378.11</ele><time>2026-08-11T14:51:42Z</time></trkpt>
<trkpt lat="34.860046" lon="134.119509"><ele>378.45</ele><time>2026-08-11T14:51:43Z</time></trkpt>
<trkpt lat="34.860168" lon="134.119601"><ele>378.73</ele><time>2026-08-11T14:51:49Z</time></trkpt>
<trkpt lat="34.860337" lon="134.119614"><ele>378.84</ele><time>2026-08-11T14:51:57Z</time></trkpt>
<trkpt lat="34.860461" lon="134.119624"><ele>379.22</ele><time>2026-08-11T14:52:03Z</time></trkpt>
<trkpt lat="34.860552" lon="134.119638"><ele>379.38</ele><time>2026-08-11T14:52:07Z</time></trkpt>
<trkpt lat="34.860751" lon="134.119641"><ele>379.88</ele><time>2026-08-11T14:52:16Z</time></trkpt>
<trkpt lat="34.860776" lon="134.11964"><ele>379.94</ele><time>2026-08-11T14:52:17Z</time></trkpt>
<trkpt lat="34.860842" lon="134.119624"><ele>380.13</ele><time>2026-08-11T14:52:20Z</time></trkpt>
<trkpt lat="34.860992" lon="134.119576"><ele>380.86</ele><time>2026-08-11T14:52:27Z</time></trkpt>
<trkpt lat="34.861034" lon="134.119559"><ele>381.15</ele><time>2026-08-11T14:52:29Z</time></trkpt>
<trkpt lat="34.861123" lon="134.119534"><ele>382.58</ele><time>2026-08-11T14:52:34Z</time></trkpt>
<trkpt lat="34.861138" lon="134.119529"><ele>382.58</ele><time>2026-08-11T14:52:35Z</time></trkpt>
<trkpt lat="34.861149" lon="134.119524"><ele>383.12</ele><time>2026-08-11T14:52:36Z</time></trkpt>
<trkpt lat="34.861202" lon="134.119508"><ele>383.64</ele><time>2026-08-11T14:52:39Z</time></trkpt>
<trkpt lat="34.861233" lon="134.119493"><ele>384.2</ele><time>2026-08-11T14:52:41Z</time></trkpt>
<trkpt lat="34.861277" lon="134.119489"><ele>384.64</ele><time>2026-08-11T14:52:43Z</time></trkpt>
<trkpt lat="34.861355" lon="134.119469"><ele>385.4</ele><time>2026-08-11T14:52:47Z</time></trkpt>
<trkpt lat="34.861394" lon="134.119479"><ele>385.75</ele><time>2026-08-11T14:52:49Z</time></trkpt>
<trkpt lat="34.861434" lon="134.119508"><ele>385.62</ele><time>2026-08-11T14:52:51Z</time></trkpt>
<trkpt lat="34.861475" lon="134.119549"><ele>385.71</ele><time>2026-08-11T14:52:53Z</time></trkpt>
<trkpt lat="34.861518" lon="134.119603"><ele>385.93</ele><time>2026-08-11T14:52:56Z</time></trkpt>
<trkpt lat="34.861597" lon="134.119682"><ele>386.49</ele><time>2026-08-11T14:53:00Z</time></trkpt>
<trkpt lat="34.861668" lon="134.119753"><ele>387.1</ele><time>2026-08-11T14:53:04Z</time></trkpt>
<trkpt lat="34.861714" lon="134.119806"><ele>388.25</ele><time>2026-08-11T14:53:08Z</time></trkpt>
<trkpt lat="34.861772" lon="134.119852"><ele>389.41</ele><time>2026-08-11T14:53:12Z</time></trkpt>
<trkpt lat="34.861824" lon="134.119913"><ele>390.37</ele><time>2026-08-11T14:53:16Z</time></trkpt>
<trkpt lat="34.861887" lon="134.119998"><ele>391.42</ele><time>2026-08-11T14:53:21Z</time></trkpt>
<trkpt lat="34.86192" lon="134.120023"><ele>391.59</ele><time>2026-08-11T14:53:23Z</time></trkpt>
<trkpt lat="34.862067" lon="134.120143"><ele>392.07</ele><time>2026-08-11T14:53:31Z</time></trkpt>
<trkpt lat="34.86218" lon="134.120278"><ele>391.14</ele><time>2026-08-11T14:53:38Z</time></trkpt>
<trkpt lat="34.862315" lon="134.120462"><ele>389.56</ele><time>2026-08-11T14:53:45Z</time></trkpt>
<trkpt lat="34.862324" lon="134.120487"><ele>389.56</ele><time>2026-08-11T14:53:46Z</time></trkpt>
<trkpt lat="34.862444" lon="134.120683"><ele>390.27</ele><time>2026-08-11T14:53:54Z</time></trkpt>
<trkpt lat="34.862457" lon="134.120706"><ele>390.17</ele><time>2026-08-11T14:53:55Z</time></trkpt>
<trkpt lat="34.862566" lon="134.120806"><ele>390.19</ele><time>2026-08-11T14:54:01Z</time></trkpt>
<trkpt lat="34.862736" lon="134.120914"><ele>389.82</ele><time>2026-08-11T14:54:09Z</time></trkpt>
<trkpt lat="34.862893" lon="134.121024"><ele>389.25</ele><time>2026-08-11T14:54:16Z</time></trkpt>
<trkpt lat="34.863006" lon="134.121102"><ele>389.11</ele><time>2026-08-11T14:54:22Z</time></trkpt>
<trkpt lat="34.863168" lon="134.121236"><ele>389.56</ele><time>2026-08-11T14:54:30Z</time></trkpt>
<trkpt lat="34.863326" lon="134.121318"><ele>390.04</ele><time>2026-08-11T14:54:37Z</time></trkpt>
<trkpt lat="34.863463" lon="134.121411"><ele>390.87</ele><time>2026-08-11T14:54:44Z</time></trkpt>
<trkpt lat="34.863486" lon="134.121422"><ele>391.4</ele><time>2026-08-11T14:54:45Z</time></trkpt>
<trkpt lat="34.863647" lon="134.121515"><ele>393.09</ele><time>2026-08-11T14:54:53Z</time></trkpt>
<trkpt lat="34.863668" lon="134.121526"><ele>392.96</ele><time>2026-08-11T14:54:54Z</time></trkpt>
<trkpt lat="34.863734" lon="134.121573"><ele>393.64</ele><time>2026-08-11T14:54:57Z</time></trkpt>
<trkpt lat="34.863854" lon="134.121642"><ele>394.12</ele><time>2026-08-11T14:55:03Z</time></trkpt>
<trkpt lat="34.863876" lon="134.121648"><ele>394.1</ele><time>2026-08-11T14:55:04Z</time></trkpt>
<trkpt lat="34.863918" lon="134.121667"><ele>394.26</ele><time>2026-08-11T14:55:06Z</time></trkpt>
<trkpt lat="34.864003" lon="134.121708"><ele>393.68</ele><time>2026-08-11T14:55:11Z</time></trkpt>
<trkpt lat="34.864059" lon="134.121748"><ele>394.33</ele><time>2026-08-11T14:55:14Z</time></trkpt>
<trkpt lat="34.864139" lon="134.121808"><ele>394.88</ele><time>2026-08-11T14:55:18Z</time></trkpt>
<trkpt lat="34.864152" lon="134.121821"><ele>394.88</ele><time>2026-08-11T14:55:19Z</time></trkpt>
<trkpt lat="34.864228" lon="134.121913"><ele>397.04</ele><time>2026-08-11T14:55:24Z</time></trkpt>
<trkpt lat="34.864224" lon="134.121936"><ele>397.04</ele><time>2026-08-11T14:55:25Z</time></trkpt>
<trkpt lat="34.864232" lon="134.121933"><ele>397.04</ele><time>2026-08-11T14:55:29Z</time></trkpt>
<trkpt lat="34.864243" lon="134.12192"><ele>397.0</ele><time>2026-08-11T14:55:30Z</time></trkpt>
<trkpt lat="34.8643" lon="134.121926"><ele>396.87</ele><time>2026-08-11T14:55:33Z</time></trkpt>
<trkpt lat="34.86443" lon="134.122055"><ele>397.64</ele><time>2026-08-11T14:55:40Z</time></trkpt>
<trkpt lat="34.864451" lon="134.122069"><ele>397.64</ele><time>2026-08-11T14:55:41Z</time></trkpt>
<trkpt lat="34.864498" lon="134.122119"><ele>398.0</ele><time>2026-08-11T14:55:44Z</time></trkpt>
<trkpt lat="34.864533" lon="134.122174"><ele>399.14</ele><time>2026-08-11T14:55:47Z</time></trkpt>
<trkpt lat="34.864613" lon="134.12221"><ele>399.32</ele><time>2026-08-11T14:55:51Z</time></trkpt>
<trkpt lat="34.864658" lon="134.122225"><ele>399.51</ele><time>2026-08-11T14:55:53Z</time></trkpt>
<trkpt lat="34.864679" lon="134.122232"><ele>399.68</ele><time>2026-08-11T14:55:54Z</time></trkpt>
<trkpt lat="34.864846" lon="134.122315"><ele>400.91</ele><time>2026-08-11T14:56:01Z</time></trkpt>
<trkpt lat="34.864886" lon="134.122343"><ele>401.37</ele><time>2026-08-11T14:56:03Z</time></trkpt>
<trkpt lat="34.864904" lon="134.122353"><ele>401.37</ele><time>2026-08-11T14:56:04Z</time></trkpt>
<trkpt lat="34.865002" lon="134.122396"><ele>402.55</ele><time>2026-08-11T14:56:09Z</time></trkpt>
<trkpt lat="34.865068" lon="134.122419"><ele>403.32</ele><time>2026-08-11T14:56:12Z</time></trkpt>
<trkpt lat="34.865134" lon="134.122452"><ele>403.92</ele><time>2026-08-11T14:56:15Z</time></trkpt>
<trkpt lat="34.865222" lon="134.1225"><ele>404.66</ele><time>2026-08-11T14:56:20Z</time></trkpt>
<trkpt lat="34.865237" lon="134.122513"><ele>404.83</ele><time>2026-08-11T14:56:21Z</time></trkpt>
<trkpt lat="34.865312" lon="134.122566"><ele>405.26</ele><time>2026-08-11T14:56:25Z</time></trkpt>
<trkpt lat="34.865393" lon="134.122675"><ele>405.56</ele><time>2026-08-11T14:56:30Z</time></trkpt>
<trkpt lat="34.865434" lon="134.122772"><ele>406.35</ele><time>2026-08-11T14:56:34Z</time></trkpt>
<trkpt lat="34.865473" lon="134.12285"><ele>406.63</ele><time>2026-08-11T14:56:38Z</time></trkpt>
<trkpt lat="34.86552" lon="134.122948"><ele>407.48</ele><time>2026-08-11T14:56:42Z</time></trkpt>
<trkpt lat="34.865584" lon="134.123065"><ele>408.06</ele><time>2026-08-11T14:56:47Z</time></trkpt>
<trkpt lat="34.865604" lon="134.123109"><ele>408.21</ele><time>2026-08-11T14:56:49Z</time></trkpt>
<trkpt lat="34.865645" lon="134.123179"><ele>408.66</ele><time>2026-08-11T14:56:52Z</time></trkpt>
<trkpt lat="34.865684" lon="134.123254"><ele>409.33</ele><time>2026-08-11T14:56:55Z</time></trkpt>
<trkpt lat="34.865746" lon="134.12337"><ele>410.38</ele><time>2026-08-11T14:57:00Z</time></trkpt>
<trkpt lat="34.865766" lon="134.123419"><ele>410.83</ele><time>2026-08-11T14:57:02Z</time></trkpt>
<trkpt lat="34.865792" lon="134.123456"><ele>410.88</ele><time>2026-08-11T14:57:04Z</time></trkpt>
<trkpt lat="34.865831" lon="134.123536"><ele>411.92</ele><time>2026-08-11T14:57:08Z</time></trkpt>
<trkpt lat="34.865838" lon="134.12356"><ele>412.38</ele><time>2026-08-11T14:57:09Z</time></trkpt>
<trkpt lat="34.865872" lon="134.123624"><ele>413.13</ele><time>2026-08-11T14:57:12Z</time></trkpt>
<trkpt lat="34.865887" lon="134.123653"><ele>413.46</ele><time>2026-08-11T14:57:14Z</time></trkpt>
<trkpt lat="34.865924" lon="134.123736"><ele>414.48</ele><time>2026-08-11T14:57:18Z</time></trkpt>
<trkpt lat="34.865929" lon="134.123759"><ele>414.99</ele><time>2026-08-11T14:57:19Z</time></trkpt>
<trkpt lat="34.865962" lon="134.12385"><ele>416.34</ele><time>2026-08-11T14:57:24Z</time></trkpt>
<trkpt lat="34.86598" lon="134.123892"><ele>416.97</ele><time>2026-08-11T14:57:26Z</time></trkpt>
<trkpt lat="34.865989" lon="134.123915"><ele>416.97</ele><time>2026-08-11T14:57:27Z</time></trkpt>
<trkpt lat="34.866001" lon="134.123972"><ele>417.81</ele><time>2026-08-11T14:57:30Z</time></trkpt>
<trkpt lat="34.866013" lon="134.123994"><ele>418.0</ele><time>2026-08-11T14:57:31Z</time></trkpt>
<trkpt lat="34.866021" lon="134.124014"><ele>418.5</ele><time>2026-08-11T14:57:32Z</time></trkpt>
<trkpt lat="34.866044" lon="134.124063"><ele>419.42</ele><time>2026-08-11T14:57:34Z</time></trkpt>
<trkpt lat="34.866099" lon="134.124137"><ele>420.02</ele><time>2026-08-11T14:57:38Z</time></trkpt>
<trkpt lat="34.866112" lon="134.124157"><ele>420.76</ele><time>2026-08-11T14:57:39Z</time></trkpt>
<trkpt lat="34.866165" lon="134.124243"><ele>421.64</ele><time>2026-08-11T14:57:43Z</time></trkpt>
<trkpt lat="34.866205" lon="134.124325"><ele>422.27</ele><time>2026-08-11T14:57:47Z</time></trkpt>
<trkpt lat="34.866218" lon="134.124343"><ele>422.61</ele><time>2026-08-11T14:57:48Z</time></trkpt>
<trkpt lat="34.866264" lon="134.124422"><ele>423.28</ele><time>2026-08-11T14:57:52Z</time></trkpt>
<trkpt lat="34.866277" lon="134.124444"><ele>423.47</ele><time>2026-08-11T14:57:53Z</time></trkpt>
<trkpt lat="34.866356" lon="134.124572"><ele>425.02</ele><time>2026-08-11T14:57:59Z</time></trkpt>
<trkpt lat="34.866366" lon="134.124593"><ele>425.02</ele><time>2026-08-11T14:58:00Z</time></trkpt>
<trkpt lat="34.866373" lon="134.124613"><ele>425.4</ele><time>2026-08-11T14:58:01Z</time></trkpt>
<trkpt lat="34.866413" lon="134.124692"><ele>425.89</ele><time>2026-08-11T14:58:05Z</time></trkpt>
<trkpt lat="34.866438" lon="134.124741"><ele>426.17</ele><time>2026-08-11T14:58:07Z</time></trkpt>
<trkpt lat="34.866489" lon="134.124841"><ele>427.38</ele><time>2026-08-11T14:58:11Z</time></trkpt>
<trkpt lat="34.866559" lon="134.124952"><ele>428.15</ele><time>2026-08-11T14:58:16Z</time></trkpt>
<trkpt lat="34.866604" lon="134.125065"><ele>429.82</ele><time>2026-08-11T14:58:22Z</time></trkpt>
<trkpt lat="34.866667" lon="134.125177"><ele>431.53</ele><time>2026-08-11T14:58:27Z</time></trkpt>
<trkpt lat="34.866677" lon="134.125199"><ele>432.1</ele><time>2026-08-11T14:58:28Z</time></trkpt>
<trkpt lat="34.866697" lon="134.125236"><ele>432.39</ele><time>2026-08-11T14:58:30Z</time></trkpt>
<trkpt lat="34.866733" lon="134.125302"><ele>433.71</ele><time>2026-08-11T14:58:34Z</time></trkpt>
<trkpt lat="34.866748" lon="134.125325"><ele>434.21</ele><time>2026-08-11T14:58:35Z</time></trkpt>
<trkpt lat="34.866787" lon="134.125386"><ele>435.71</ele><time>2026-08-11T14:58:38Z</time></trkpt>
<trkpt lat="34.866818" lon="134.125468"><ele>436.54</ele><time>2026-08-11T14:58:42Z</time></trkpt>
<trkpt lat="34.866842" lon="134.125505"><ele>436.84</ele><time>2026-08-11T14:58:44Z</time></trkpt>
<trkpt lat="34.866862" lon="134.125537"><ele>437.73</ele><time>2026-08-11T14:58:46Z</time></trkpt>
<trkpt lat="34.866883" lon="134.125598"><ele>437.97</ele><time>2026-08-11T14:58:49Z</time></trkpt>
<trkpt lat="34.866904" lon="134.125638"><ele>438.98</ele><time>2026-08-11T14:58:51Z</time></trkpt>
<trkpt lat="34.866927" lon="134.125677"><ele>439.77</ele><time>2026-08-11T14:58:53Z</time></trkpt>
<trkpt lat="34.866963" lon="134.125744"><ele>441.2</ele><time>2026-08-11T14:58:57Z</time></trkpt>
<trkpt lat="34.866988" lon="134.125781"><ele>441.58</ele><time>2026-08-11T14:59:00Z</time></trkpt>
<trkpt lat="34.866988" lon="134.125788"><ele>441.58</ele><time>2026-08-11T14:59:02Z</time></trkpt>
<trkpt lat="34.866986" lon="134.125793"><ele>441.58</ele><time>2026-08-11T14:59:21Z</time></trkpt>
<trkpt lat="34.866986" lon="134.125793"><ele>441.58</ele><time>2026-08-11T14:59:22Z</time></trkpt>
<trkpt lat="34.866986" lon="134.125793"><ele>441.58</ele><time>2026-08-11T14:59:23Z</time></trkpt>
<trkpt lat="34.867028" lon="134.125882"><ele>443.31</ele><time>2026-08-11T14:59:37Z</time></trkpt>
<trkpt lat="34.867053" lon="134.125954"><ele>444.03</ele><time>2026-08-11T14:59:41Z</time></trkpt>
<trkpt lat="34.867068" lon="134.125971"><ele>444.29</ele><time>2026-08-11T14:59:42Z</time></trkpt>
<trkpt lat="34.867089" lon="134.125982"><ele>444.29</ele><time>2026-08-11T14:59:43Z</time></trkpt>
<trkpt lat="34.8671" lon="134.126"><ele>445.02</ele><time>2026-08-11T14:59:44Z</time></trkpt>
<trkpt lat="34.86711" lon="134.12602"><ele>445.02</ele><time>2026-08-11T14:59:45Z</time></trkpt>
<trkpt lat="34.867123" lon="134.126085"><ele>445.82</ele><time>2026-08-11T14:59:48Z</time></trkpt>
<trkpt lat="34.86713" lon="134.126107"><ele>445.82</ele><time>2026-08-11T14:59:49Z</time></trkpt>
<trkpt lat="34.867174" lon="134.126189"><ele>446.79</ele><time>2026-08-11T14:59:53Z</time></trkpt>
<trkpt lat="34.867208" lon="134.126232"><ele>446.94</ele><time>2026-08-11T14:59:55Z</time></trkpt>
<trkpt lat="34.867316" lon="134.126342"><ele>446.25</ele><time>2026-08-11T15:00:00Z</time></trkpt>
<trkpt lat="34.867414" lon="134.126473"><ele>443.94</ele><time>2026-08-11T15:00:06Z</time></trkpt>
<trkpt lat="34.867445" lon="134.126511"><ele>443.83</ele><time>2026-08-11T15:00:08Z</time></trkpt>
<trkpt lat="34.867459" lon="134.126536"><ele>443.25</ele><time>2026-08-11T15:00:09Z</time></trkpt>
<trkpt lat="34.867563" lon="134.126636"><ele>442.22</ele><time>2026-08-11T15:00:14Z</time></trkpt>
<trkpt lat="34.867613" lon="134.126654"><ele>441.86</ele><time>2026-08-11T15:00:16Z</time></trkpt>
<trkpt lat="34.86767" lon="134.126648"><ele>441.5</ele><time>2026-08-11T15:00:18Z</time></trkpt>
<trkpt lat="34.86774" lon="134.126614"><ele>441.32</ele><time>2026-08-11T15:00:21Z</time></trkpt>
<trkpt lat="34.867762" lon="134.126595"><ele>441.32</ele><time>2026-08-11T15:00:22Z</time></trkpt>
<trkpt lat="34.867836" lon="134.126559"><ele>442.55</ele><time>2026-08-11T15:00:25Z</time></trkpt>
<trkpt lat="34.867863" lon="134.126533"><ele>442.17</ele><time>2026-08-11T15:00:27Z</time></trkpt>
<trkpt lat="34.867881" lon="134.126531"><ele>443.08</ele><time>2026-08-11T15:00:28Z</time></trkpt>
<trkpt lat="34.867973" lon="134.126529"><ele>444.46</ele><time>2026-08-11T15:00:32Z</time></trkpt>
<trkpt lat="34.867986" lon="134.12652"><ele>445.09</ele><time>2026-08-11T15:00:33Z</time></trkpt>
<trkpt lat="34.868024" lon="134.126513"><ele>445.74</ele><time>2026-08-11T15:00:35Z</time></trkpt>
<trkpt lat="34.868106" lon="134.126519"><ele>447.08</ele><time>2026-08-11T15:00:39Z</time></trkpt>
<trkpt lat="34.86815" lon="134.126511"><ele>447.88</ele><time>2026-08-11T15:00:41Z</time></trkpt>
<trkpt lat="34.868177" lon="134.126514"><ele>448.56</ele><time>2026-08-11T15:00:42Z</time></trkpt>
<trkpt lat="34.868229" lon="134.126497"><ele>449.03</ele><time>2026-08-11T15:00:45Z</time></trkpt>
<trkpt lat="34.868352" lon="134.126477"><ele>450.0</ele><time>2026-08-11T15:00:50Z</time></trkpt>
<trkpt lat="34.868526" lon="134.126458"><ele>450.03</ele><time>2026-08-11T15:00:59Z</time></trkpt>
<trkpt lat="34.868637" lon="134.126461"><ele>451.01</ele><time>2026-08-11T15:01:03Z</time></trkpt>
<trkpt lat="34.86868" lon="134.126441"><ele>450.05</ele><time>2026-08-11T15:01:05Z</time></trkpt>
<trkpt lat="34.868803" lon="134.126381"><ele>451.07</ele><time>2026-08-11T15:01:11Z</time></trkpt>
<trkpt lat="34.868827" lon="134.126365"><ele>451.34</ele><time>2026-08-11T15:01:12Z</time></trkpt>
<trkpt lat="34.868903" lon="134.126302"><ele>452.3</ele><time>2026-08-11T15:01:17Z</time></trkpt>
<trkpt lat="34.868936" lon="134.126287"><ele>453.29</ele><time>2026-08-11T15:01:19Z</time></trkpt>
<trkpt lat="34.868959" lon="134.126268"><ele>453.03</ele><time>2026-08-11T15:01:21Z</time></trkpt>
<trkpt lat="34.869025" lon="134.126247"><ele>454.28</ele><time>2026-08-11T15:01:24Z</time></trkpt>
<trkpt lat="34.869074" lon="134.126221"><ele>455.42</ele><time>2026-08-11T15:01:27Z</time></trkpt>
<trkpt lat="34.869111" lon="134.12621"><ele>455.99</ele><time>2026-08-11T15:01:29Z</time></trkpt>
<trkpt lat="34.869201" lon="134.126202"><ele>456.81</ele><time>2026-08-11T15:01:34Z</time></trkpt>
<trkpt lat="34.869238" lon="134.126206"><ele>457.16</ele><time>2026-08-11T15:01:36Z</time></trkpt>
<trkpt lat="34.869274" lon="134.126161"><ele>457.34</ele><time>2026-08-11T15:01:38Z</time></trkpt>
<trkpt lat="34.869344" lon="134.126138"><ele>457.83</ele><time>2026-08-11T15:01:42Z</time></trkpt>
<trkpt lat="34.869508" lon="134.12618"><ele>457.28</ele><time>2026-08-11T15:01:49Z</time></trkpt>
<trkpt lat="34.869683" lon="134.126286"><ele>455.44</ele><time>2026-08-11T15:01:56Z</time></trkpt>
<trkpt lat="34.869705" lon="134.1263"><ele>455.02</ele><time>2026-08-11T15:01:57Z</time></trkpt>
<trkpt lat="34.869726" lon="134.126319"><ele>455.02</ele><time>2026-08-11T15:01:58Z</time></trkpt>
<trkpt lat="34.869823" lon="134.126439"><ele>453.08</ele><time>2026-08-11T15:02:03Z</time></trkpt>
<trkpt lat="34.869838" lon="134.126455"><ele>453.08</ele><time>2026-08-11T15:02:04Z</time></trkpt>
<trkpt lat="34.869889" lon="134.126497"><ele>452.36</ele><time>2026-08-11T15:02:07Z</time></trkpt>
<trkpt lat="34.869958" lon="134.126548"><ele>451.19</ele><time>2026-08-11T15:02:10Z</time></trkpt>
<trkpt lat="34.870031" lon="134.126625"><ele>450.76</ele><time>2026-08-11T15:02:14Z</time></trkpt>
<trkpt lat="34.870103" lon="134.126683"><ele>449.96</ele><time>2026-08-11T15:02:17Z</time></trkpt>
<trkpt lat="34.87018" lon="134.126765"><ele>449.39</ele><time>2026-08-11T15:02:21Z</time></trkpt>
<trkpt lat="34.870223" lon="134.126837"><ele>449.11</ele><time>2026-08-11T15:02:24Z</time></trkpt>
<trkpt lat="34.870243" lon="134.126861"><ele>448.79</ele><time>2026-08-11T15:02:25Z</time></trkpt>
<trkpt lat="34.870329" lon="134.126971"><ele>448.49</ele><time>2026-08-11T15:02:30Z</time></trkpt>
<trkpt lat="34.870377" lon="134.126999"><ele>448.07</ele><time>2026-08-11T15:02:32Z</time></trkpt>
<trkpt lat="34.870469" lon="134.12711"><ele>446.95</ele><time>2026-08-11T15:02:38Z</time></trkpt>
<trkpt lat="34.870486" lon="134.127155"><ele>446.35</ele><time>2026-08-11T15:02:40Z</time></trkpt>
<trkpt lat="34.870522" lon="134.127234"><ele>445.97</ele><time>2026-08-11T15:02:43Z</time></trkpt>
<trkpt lat="34.87061" lon="134.127371"><ele>444.32</ele><time>2026-08-11T15:02:48Z</time></trkpt>
<trkpt lat="34.870685" lon="134.12749"><ele>442.04</ele><time>2026-08-11T15:02:52Z</time></trkpt>
<trkpt lat="34.870704" lon="134.127532"><ele>441.06</ele><time>2026-08-11T15:02:54Z</time></trkpt>
<trkpt lat="34.870729" lon="134.127575"><ele>440.0</ele><time>2026-08-11T15:02:56Z</time></trkpt>
<trkpt lat="34.870746" lon="134.127597"><ele>440.0</ele><time>2026-08-11T15:02:57Z</time></trkpt>
<trkpt lat="34.870766" lon="134.127655"><ele>438.54</ele><time>2026-08-11T15:02:59Z</time></trkpt>
<trkpt lat="34.870772" lon="134.127676"><ele>438.08</ele><time>2026-08-11T15:03:00Z</time></trkpt>
<trkpt lat="34.870782" lon="134.12772"><ele>437.76</ele><time>2026-08-11T15:03:02Z</time></trkpt>
<trkpt lat="34.870797" lon="134.127798"><ele>436.8</ele><time>2026-08-11T15:03:05Z</time></trkpt>
<trkpt lat="34.870799" lon="134.127829"><ele>436.8</ele><time>2026-08-11T15:03:06Z</time></trkpt>
<trkpt lat="34.87081" lon="134.127861"><ele>436.37</ele><time>2026-08-11T15:03:07Z</time></trkpt>
<trkpt lat="34.870853" lon="134.127977"><ele>435.15</ele><time>2026-08-11T15:03:10Z</time></trkpt>
<trkpt lat="34.870895" lon="134.128088"><ele>434.06</ele><time>2026-08-11T15:03:13Z</time></trkpt>
<trkpt lat="34.870924" lon="134.128199"><ele>432.6</ele><time>2026-08-11T15:03:16Z</time></trkpt>
<trkpt lat="34.870971" lon="134.128283"><ele>430.91</ele><time>2026-08-11T15:03:19Z</time></trkpt>
<trkpt lat="34.870996" lon="134.12831"><ele>430.84</ele><time>2026-08-11T15:03:20Z</time></trkpt>
<trkpt lat="34.871058" lon="134.12838"><ele>429.09</ele><time>2026-08-11T15:03:23Z</time></trkpt>
<trkpt lat="34.871096" lon="134.12846"><ele>428.99</ele><time>2026-08-11T15:03:26Z</time></trkpt>
<trkpt lat="34.871136" lon="134.128549"><ele>428.2</ele><time>2026-08-11T15:03:29Z</time></trkpt>
<trkpt lat="34.871154" lon="134.128667"><ele>427.45</ele><time>2026-08-11T15:03:33Z</time></trkpt>
<trkpt lat="34.871173" lon="134.128725"><ele>427.45</ele><time>2026-08-11T15:03:35Z</time></trkpt>
<trkpt lat="34.871301" lon="134.128916"><ele>428.12</ele><time>2026-08-11T15:03:41Z</time></trkpt>
<trkpt lat="34.871341" lon="134.129016"><ele>428.67</ele><time>2026-08-11T15:03:44Z</time></trkpt>
<trkpt lat="34.871415" lon="134.12917"><ele>430.04</ele><time>2026-08-11T15:03:50Z</time></trkpt>
<trkpt lat="34.871444" lon="134.129214"><ele>430.2</ele><time>2026-08-11T15:03:52Z</time></trkpt>
<trkpt lat="34.871489" lon="134.129296"><ele>430.88</ele><time>2026-08-11T15:03:56Z</time></trkpt>
<trkpt lat="34.871586" lon="134.129377"><ele>431.33</ele><time>2026-08-11T15:04:01Z</time></trkpt>
<trkpt lat="34.871732" lon="134.129514"><ele>431.58</ele><time>2026-08-11T15:04:08Z</time></trkpt>
<trkpt lat="34.871765" lon="134.129556"><ele>431.78</ele><time>2026-08-11T15:04:10Z</time></trkpt>
<trkpt lat="34.87179" lon="134.129581"><ele>431.95</ele><time>2026-08-11T15:04:11Z</time></trkpt>
<trkpt lat="34.871809" lon="134.129603"><ele>431.91</ele><time>2026-08-11T15:04:12Z</time></trkpt>
<trkpt lat="34.871879" lon="134.129688"><ele>432.28</ele><time>2026-08-11T15:04:16Z</time></trkpt>
<trkpt lat="34.872003" lon="134.129854"><ele>433.22</ele><time>2026-08-11T15:04:23Z</time></trkpt>
<trkpt lat="34.872025" lon="134.129882"><ele>433.61</ele><time>2026-08-11T15:04:24Z</time></trkpt>
<trkpt lat="34.8721" lon="134.130077"><ele>433.86</ele><time>2026-08-11T15:04:31Z</time></trkpt>
<trkpt lat="34.872104" lon="134.130102"><ele>433.86</ele><time>2026-08-11T15:04:32Z</time></trkpt>
<trkpt lat="34.872127" lon="134.130349"><ele>433.71</ele><time>2026-08-11T15:04:40Z</time></trkpt>
<trkpt lat="34.872132" lon="134.130411"><ele>433.93</ele><time>2026-08-11T15:04:42Z</time></trkpt>
<trkpt lat="34.872152" lon="134.130625"><ele>433.71</ele><time>2026-08-11T15:04:49Z</time></trkpt>
<trkpt lat="34.872165" lon="134.13086"><ele>433.98</ele><time>2026-08-11T15:04:57Z</time></trkpt>
<trkpt lat="34.87216" lon="134.130888"><ele>434.13</ele><time>2026-08-11T15:04:58Z</time></trkpt>
<trkpt lat="34.872127" lon="134.130992"><ele>434.31</ele><time>2026-08-11T15:05:02Z</time></trkpt>
<trkpt lat="34.872104" lon="134.131005"><ele>434.31</ele><time>2026-08-11T15:05:03Z</time></trkpt>
<trkpt lat="34.871963" lon="134.13105"><ele>434.4</ele><time>2026-08-11T15:05:09Z</time></trkpt>
<trkpt lat="34.871846" lon="134.131069"><ele>434.18</ele><time>2026-08-11T15:05:14Z</time></trkpt>
<trkpt lat="34.871841" lon="134.131063"><ele>434.18</ele><time>2026-08-11T15:05:18Z</time></trkpt>
<trkpt lat="34.871897" lon="134.131053"><ele>434.42</ele><time>2026-08-11T15:05:50Z</time></trkpt>
<trkpt lat="34.871892" lon="134.13103"><ele>434.35</ele><time>2026-08-11T15:05:52Z</time></trkpt>
<trkpt lat="34.872079" lon="134.131107"><ele>434.67</ele><time>2026-08-11T15:06:00Z</time></trkpt>
<trkpt lat="34.872121" lon="134.131197"><ele>434.8</ele><time>2026-08-11T15:06:03Z</time></trkpt>
<trkpt lat="34.872127" lon="134.131268"><ele>434.87</ele><time>2026-08-11T15:06:05Z</time></trkpt>
<trkpt lat="34.872134" lon="134.131503"><ele>434.95</ele><time>2026-08-11T15:06:12Z</time></trkpt>
<trkpt lat="34.872126" lon="134.131568"><ele>434.86</ele><time>2026-08-11T15:06:14Z</time></trkpt>
<trkpt lat="34.872094" lon="134.131807"><ele>434.87</ele><time>2026-08-11T15:06:21Z</time></trkpt>
<trkpt lat="34.872078" lon="134.131934"><ele>434.65</ele><time>2026-08-11T15:06:25Z</time></trkpt>
<trkpt lat="34.87206" lon="134.132143"><ele>434.09</ele><time>2026-08-11T15:06:31Z</time></trkpt>
<trkpt lat="34.872044" lon="134.132209"><ele>433.81</ele><time>2026-08-11T15:06:33Z</time></trkpt>
<trkpt lat="34.872023" lon="134.132338"><ele>433.45</ele><time>2026-08-11T15:06:37Z</time></trkpt>
<trkpt lat="34.872004" lon="134.132442"><ele>432.0</ele><time>2026-08-11T15:06:40Z</time></trkpt>
<trkpt lat="34.871987" lon="134.132513"><ele>430.12</ele><time>2026-08-11T15:06:42Z</time></trkpt>
<trkpt lat="34.871936" lon="134.132735"><ele>430.85</ele><time>2026-08-11T15:06:49Z</time></trkpt>
<trkpt lat="34.871894" lon="134.132909"><ele>430.07</ele><time>2026-08-11T15:06:54Z</time></trkpt>
<trkpt lat="34.871878" lon="134.13301"><ele>430.04</ele><time>2026-08-11T15:06:57Z</time></trkpt>
<trkpt lat="34.87186" lon="134.133137"><ele>429.48</ele><time>2026-08-11T15:07:01Z</time></trkpt>
<trkpt lat="34.871838" lon="134.133281"><ele>428.97</ele><time>2026-08-11T15:07:05Z</time></trkpt>
<trkpt lat="34.871826" lon="134.133338"><ele>428.87</ele><time>2026-08-11T15:07:07Z</time></trkpt>
<trkpt lat="34.871822" lon="134.133377"><ele>428.84</ele><time>2026-08-11T15:07:08Z</time></trkpt>
<trkpt lat="34.8718" lon="134.133543"><ele>428.19</ele><time>2026-08-11T15:07:13Z</time></trkpt>
<trkpt lat="34.871793" lon="134.133575"><ele>428.19</ele><time>2026-08-11T15:07:14Z</time></trkpt>
<trkpt lat="34.871767" lon="134.133671"><ele>427.58</ele><time>2026-08-11T15:07:17Z</time></trkpt>
<trkpt lat="34.871732" lon="134.133858"><ele>426.63</ele><time>2026-08-11T15:07:22Z</time></trkpt>
<trkpt lat="34.87172" lon="134.133916"><ele>426.43</ele><time>2026-08-11T15:07:24Z</time></trkpt>
<trkpt lat="34.871674" lon="134.134042"><ele>424.32</ele><time>2026-08-11T15:07:28Z</time></trkpt>
<trkpt lat="34.871654" lon="134.134065"><ele>423.75</ele><time>2026-08-11T15:07:29Z</time></trkpt>
<trkpt lat="34.871588" lon="134.134091"><ele>423.24</ele><time>2026-08-11T15:07:31Z</time></trkpt>
<trkpt lat="34.871561" lon="134.134087"><ele>423.06</ele><time>2026-08-11T15:07:32Z</time></trkpt>
<trkpt lat="34.87153" lon="134.134082"><ele>422.89</ele><time>2026-08-11T15:07:33Z</time></trkpt>
<trkpt lat="34.871494" lon="134.134072"><ele>422.71</ele><time>2026-08-11T15:07:34Z</time></trkpt>
<trkpt lat="34.871325" lon="134.133991"><ele>421.5</ele><time>2026-08-11T15:07:40Z</time></trkpt>
<trkpt lat="34.871189" lon="134.133905"><ele>419.91</ele><time>2026-08-11T15:07:45Z</time></trkpt>
<trkpt lat="34.871114" lon="134.13384"><ele>419.13</ele><time>2026-08-11T15:07:48Z</time></trkpt>
<trkpt lat="34.871086" lon="134.133817"><ele>418.55</ele><time>2026-08-11T15:07:49Z</time></trkpt>
<trkpt lat="34.871064" lon="134.133797"><ele>418.39</ele><time>2026-08-11T15:07:50Z</time></trkpt>
<trkpt lat="34.871023" lon="134.133743"><ele>417.38</ele><time>2026-08-11T15:07:52Z</time></trkpt>
<trkpt lat="34.870969" lon="134.133652"><ele>416.6</ele><time>2026-08-11T15:07:55Z</time></trkpt>
<trkpt lat="34.870917" lon="134.133551"><ele>415.52</ele><time>2026-08-11T15:07:58Z</time></trkpt>
<trkpt lat="34.870901" lon="134.13352"><ele>415.2</ele><time>2026-08-11T15:07:59Z</time></trkpt>
<trkpt lat="34.870885" lon="134.133493"><ele>414.69</ele><time>2026-08-11T15:08:00Z</time></trkpt>
<trkpt lat="34.87083" lon="134.133397"><ele>414.01</ele><time>2026-08-11T15:08:03Z</time></trkpt>
<trkpt lat="34.870778" lon="134.1333"><ele>413.22</ele><time>2026-08-11T15:08:06Z</time></trkpt>
<trkpt lat="34.870745" lon="134.133233"><ele>412.55</ele><time>2026-08-11T15:08:08Z</time></trkpt>
<trkpt lat="34.870635" lon="134.13306"><ele>411.54</ele><time>2026-08-11T15:08:14Z</time></trkpt>
<trkpt lat="34.870616" lon="134.133033"><ele>411.15</ele><time>2026-08-11T15:08:15Z</time></trkpt>
<trkpt lat="34.870503" lon="134.132914"><ele>410.81</ele><time>2026-08-11T15:08:20Z</time></trkpt>
<trkpt lat="34.870418" lon="134.132866"><ele>410.36</ele><time>2026-08-11T15:08:23Z</time></trkpt>
<trkpt lat="34.87022" lon="134.132776"><ele>409.32</ele><time>2026-08-11T15:08:30Z</time></trkpt>
<trkpt lat="34.870161" lon="134.132757"><ele>409.46</ele><time>2026-08-11T15:08:32Z</time></trkpt>
<trkpt lat="34.870133" lon="134.132748"><ele>409.32</ele><time>2026-08-11T15:08:33Z</time></trkpt>
<trkpt lat="34.870107" lon="134.132741"><ele>409.14</ele><time>2026-08-11T15:08:34Z</time></trkpt>
<trkpt lat="34.869943" lon="134.13273"><ele>408.35</ele><time>2026-08-11T15:08:40Z</time></trkpt>
<trkpt lat="34.869737" lon="134.132762"><ele>407.93</ele><time>2026-08-11T15:08:47Z</time></trkpt>
<trkpt lat="34.869684" lon="134.132782"><ele>407.03</ele><time>2026-08-11T15:08:49Z</time></trkpt>
<trkpt lat="34.869503" lon="134.132892"><ele>406.74</ele><time>2026-08-11T15:08:56Z</time></trkpt>
<trkpt lat="34.869456" lon="134.132932"><ele>406.4</ele><time>2026-08-11T15:08:58Z</time></trkpt>
<trkpt lat="34.869296" lon="134.133084"><ele>405.35</ele><time>2026-08-11T15:09:05Z</time></trkpt>
<trkpt lat="34.869276" lon="134.133109"><ele>405.28</ele><time>2026-08-11T15:09:06Z</time></trkpt>
<trkpt lat="34.869184" lon="134.133248"><ele>404.09</ele><time>2026-08-11T15:09:11Z</time></trkpt>
<trkpt lat="34.869155" lon="134.133307"><ele>403.76</ele><time>2026-08-11T15:09:13Z</time></trkpt>
<trkpt lat="34.869104" lon="134.133434"><ele>403.54</ele><time>2026-08-11T15:09:17Z</time></trkpt>
<trkpt lat="34.869075" lon="134.133536"><ele>402.15</ele><time>2026-08-11T15:09:20Z</time></trkpt>
<trkpt lat="34.869043" lon="134.133703"><ele>400.87</ele><time>2026-08-11T15:09:25Z</time></trkpt>
<trkpt lat="34.869036" lon="134.133841"><ele>399.17</ele><time>2026-08-11T15:09:29Z</time></trkpt>
<trkpt lat="34.869032" lon="134.133908"><ele>398.92</ele><time>2026-08-11T15:09:31Z</time></trkpt>
<trkpt lat="34.869042" lon="134.134015"><ele>398.25</ele><time>2026-08-11T15:09:34Z</time></trkpt>
<trkpt lat="34.869047" lon="134.13405"><ele>398.25</ele><time>2026-08-11T15:09:35Z</time></trkpt>
<trkpt lat="34.869059" lon="134.134118"><ele>397.57</ele><time>2026-08-11T15:09:37Z</time></trkpt>
<trkpt lat="34.869062" lon="134.134156"><ele>397.05</ele><time>2026-08-11T15:09:38Z</time></trkpt>
<trkpt lat="34.869079" lon="134.134265"><ele>396.01</ele><time>2026-08-11T15:09:41Z</time></trkpt>
<trkpt lat="34.869087" lon="134.134299"><ele>395.6</ele><time>2026-08-11T15:09:42Z</time></trkpt>
<trkpt lat="34.869107" lon="134.134406"><ele>394.71</ele><time>2026-08-11T15:09:45Z</time></trkpt>
<trkpt lat="34.869113" lon="134.134441"><ele>394.35</ele><time>2026-08-11T15:09:46Z</time></trkpt>
<trkpt lat="34.869142" lon="134.134622"><ele>392.78</ele><time>2026-08-11T15:09:51Z</time></trkpt>
<trkpt lat="34.869165" lon="134.134733"><ele>392.15</ele><time>2026-08-11T15:09:54Z</time></trkpt>
<trkpt lat="34.86917" lon="134.134767"><ele>391.84</ele><time>2026-08-11T15:09:55Z</time></trkpt>
<trkpt lat="34.869185" lon="134.134877"><ele>390.92</ele><time>2026-08-11T15:09:58Z</time></trkpt>
<trkpt lat="34.869193" lon="134.134987"><ele>390.16</ele><time>2026-08-11T15:10:01Z</time></trkpt>
<trkpt lat="34.869196" lon="134.135023"><ele>389.84</ele><time>2026-08-11T15:10:02Z</time></trkpt>
<trkpt lat="34.869194" lon="134.135204"><ele>388.41</ele><time>2026-08-11T15:10:07Z</time></trkpt>
<trkpt lat="34.869181" lon="134.13528"><ele>387.93</ele><time>2026-08-11T15:10:09Z</time></trkpt>
<trkpt lat="34.869178" lon="134.135319"><ele>387.66</ele><time>2026-08-11T15:10:10Z</time></trkpt>
<trkpt lat="34.86915" lon="134.135425"><ele>386.78</ele><time>2026-08-11T15:10:13Z</time></trkpt>
<trkpt lat="34.869123" lon="134.135526"><ele>385.63</ele><time>2026-08-11T15:10:16Z</time></trkpt>
<trkpt lat="34.869113" lon="134.135559"><ele>385.45</ele><time>2026-08-11T15:10:17Z</time></trkpt>
<trkpt lat="34.869053" lon="134.135732"><ele>383.9</ele><time>2026-08-11T15:10:22Z</time></trkpt>
<trkpt lat="34.86904" lon="134.135765"><ele>383.9</ele><time>2026-08-11T15:10:23Z</time></trkpt>
<trkpt lat="34.869016" lon="134.135829"><ele>383.08</ele><time>2026-08-11T15:10:25Z</time></trkpt>
<trkpt lat="34.868938" lon="134.135976"><ele>381.86</ele><time>2026-08-11T15:10:30Z</time></trkpt>
<trkpt lat="34.868896" lon="134.13607"><ele>381.04</ele><time>2026-08-11T15:10:33Z</time></trkpt>
<trkpt lat="34.868827" lon="134.136264"><ele>379.32</ele><time>2026-08-11T15:10:39Z</time></trkpt>
<trkpt lat="34.868807" lon="134.136335"><ele>378.41</ele><time>2026-08-11T15:10:41Z</time></trkpt>
<trkpt lat="34.868793" lon="134.136412"><ele>378.03</ele><time>2026-08-11T15:10:43Z</time></trkpt>
<trkpt lat="34.868775" lon="134.136524"><ele>377.12</ele><time>2026-08-11T15:10:46Z</time></trkpt>
<trkpt lat="34.868775" lon="134.13656"><ele>376.72</ele><time>2026-08-11T15:10:47Z</time></trkpt>
<trkpt lat="34.868789" lon="134.136678"><ele>375.52</ele><time>2026-08-11T15:10:50Z</time></trkpt>
<trkpt lat="34.868781" lon="134.136749"><ele>375.38</ele><time>2026-08-11T15:10:52Z</time></trkpt>
<trkpt lat="34.868794" lon="134.136862"><ele>374.29</ele><time>2026-08-11T15:10:55Z</time></trkpt>
<trkpt lat="34.868808" lon="134.136899"><ele>374.01</ele><time>2026-08-11T15:10:56Z</time></trkpt>
<trkpt lat="34.868823" lon="134.137014"><ele>373.2</ele><time>2026-08-11T15:10:59Z</time></trkpt>
<trkpt lat="34.868855" lon="134.137117"><ele>372.88</ele><time>2026-08-11T15:11:02Z</time></trkpt>
<trkpt lat="34.868868" lon="134.137151"><ele>371.85</ele><time>2026-08-11T15:11:03Z</time></trkpt>
<trkpt lat="34.86892" lon="134.137242"><ele>370.93</ele><time>2026-08-11T15:11:06Z</time></trkpt>
<trkpt lat="34.86898" lon="134.137335"><ele>370.04</ele><time>2026-08-11T15:11:09Z</time></trkpt>
<trkpt lat="34.869051" lon="134.137467"><ele>368.8</ele><time>2026-08-11T15:11:13Z</time></trkpt>
<trkpt lat="34.869102" lon="134.137587"><ele>367.69</ele><time>2026-08-11T15:11:17Z</time></trkpt>
<trkpt lat="34.869158" lon="134.137719"><ele>366.45</ele><time>2026-08-11T15:11:21Z</time></trkpt>
<trkpt lat="34.869187" lon="134.137818"><ele>365.75</ele><time>2026-08-11T15:11:24Z</time></trkpt>
<trkpt lat="34.869194" lon="134.137855"><ele>365.35</ele><time>2026-08-11T15:11:25Z</time></trkpt>
<trkpt lat="34.869213" lon="134.13797"><ele>364.51</ele><time>2026-08-11T15:11:28Z</time></trkpt>
<trkpt lat="34.869201" lon="134.138151"><ele>362.99</ele><time>2026-08-11T15:11:33Z</time></trkpt>
<trkpt lat="34.869164" lon="134.138379"><ele>361.51</ele><time>2026-08-11T15:11:39Z</time></trkpt>
<trkpt lat="34.869147" lon="134.138409"><ele>361.24</ele><time>2026-08-11T15:11:40Z</time></trkpt>
<trkpt lat="34.869087" lon="134.13854"><ele>359.77</ele><time>2026-08-11T15:11:44Z</time></trkpt>
<trkpt lat="34.869022" lon="134.138665"><ele>358.53</ele><time>2026-08-11T15:11:48Z</time></trkpt>
<trkpt lat="34.868953" lon="134.13879"><ele>357.32</ele><time>2026-08-11T15:11:52Z</time></trkpt>
<trkpt lat="34.868894" lon="134.138919"><ele>356.77</ele><time>2026-08-11T15:11:56Z</time></trkpt>
<trkpt lat="34.868877" lon="134.138949"><ele>356.43</ele><time>2026-08-11T15:11:57Z</time></trkpt>
<trkpt lat="34.868829" lon="134.139038"><ele>356.23</ele><time>2026-08-11T15:12:00Z</time></trkpt>
<trkpt lat="34.868775" lon="134.139121"><ele>354.17</ele><time>2026-08-11T15:12:03Z</time></trkpt>
<trkpt lat="34.86871" lon="134.139248"><ele>353.01</ele><time>2026-08-11T15:12:07Z</time></trkpt>
<trkpt lat="34.868642" lon="134.13937"><ele>352.44</ele><time>2026-08-11T15:12:11Z</time></trkpt>
<trkpt lat="34.868612" lon="134.139434"><ele>351.4</ele><time>2026-08-11T15:12:13Z</time></trkpt>
<trkpt lat="34.86858" lon="134.1395"><ele>351.0</ele><time>2026-08-11T15:12:15Z</time></trkpt>
<trkpt lat="34.86851" lon="134.139672"><ele>349.48</ele><time>2026-08-11T15:12:20Z</time></trkpt>
<trkpt lat="34.868494" lon="134.139706"><ele>349.01</ele><time>2026-08-11T15:12:21Z</time></trkpt>
<trkpt lat="34.868447" lon="134.139802"><ele>348.3</ele><time>2026-08-11T15:12:24Z</time></trkpt>
<trkpt lat="34.868385" lon="134.139928"><ele>347.03</ele><time>2026-08-11T15:12:28Z</time></trkpt>
<trkpt lat="34.868355" lon="134.139991"><ele>346.29</ele><time>2026-08-11T15:12:30Z</time></trkpt>
<trkpt lat="34.868296" lon="134.140071"><ele>345.73</ele><time>2026-08-11T15:12:33Z</time></trkpt>
<trkpt lat="34.86824" lon="134.140079"><ele>345.54</ele><time>2026-08-11T15:12:35Z</time></trkpt>
<trkpt lat="34.868124" lon="134.139999"><ele>346.55</ele><time>2026-08-11T15:12:40Z</time></trkpt>
<trkpt lat="34.868094" lon="134.139826"><ele>346.84</ele><time>2026-08-11T15:12:45Z</time></trkpt>
<trkpt lat="34.868124" lon="134.139761"><ele>346.29</ele><time>2026-08-11T15:12:47Z</time></trkpt>
<trkpt lat="34.868172" lon="134.13972"><ele>347.32</ele><time>2026-08-11T15:12:49Z</time></trkpt>
<trkpt lat="34.868239" lon="134.139653"><ele>344.21</ele><time>2026-08-11T15:12:52Z</time></trkpt>
<trkpt lat="34.868318" lon="134.139585"><ele>342.46</ele><time>2026-08-11T15:12:55Z</time></trkpt>
<trkpt lat="34.868334" lon="134.139554"><ele>343.06</ele><time>2026-08-11T15:12:56Z</time></trkpt>
<trkpt lat="34.868351" lon="134.139489"><ele>341.07</ele><time>2026-08-11T15:12:58Z</time></trkpt>
<trkpt lat="34.868363" lon="134.139351"><ele>340.62</ele><time>2026-08-11T15:13:02Z</time></trkpt>
<trkpt lat="34.868308" lon="134.139203"><ele>337.42</ele><time>2026-08-11T15:13:06Z</time></trkpt>
<trkpt lat="34.868289" lon="134.139132"><ele>335.33</ele><time>2026-08-11T15:13:08Z</time></trkpt>
<trkpt lat="34.868291" lon="134.139018"><ele>334.73</ele><time>2026-08-11T15:13:11Z</time></trkpt>
<trkpt lat="34.868324" lon="134.138867"><ele>338.14</ele><time>2026-08-11T15:13:15Z</time></trkpt>
<trkpt lat="34.868391" lon="134.138651"><ele>335.55</ele><time>2026-08-11T15:13:21Z</time></trkpt>
<trkpt lat="34.868401" lon="134.138612"><ele>335.44</ele><time>2026-08-11T15:13:22Z</time></trkpt>
<trkpt lat="34.868401" lon="134.138499"><ele>334.12</ele><time>2026-08-11T15:13:25Z</time></trkpt>
<trkpt lat="34.868386" lon="134.138354"><ele>333.53</ele><time>2026-08-11T15:13:29Z</time></trkpt>
<trkpt lat="34.868379" lon="134.138319"><ele>333.27</ele><time>2026-08-11T15:13:30Z</time></trkpt>
<trkpt lat="34.868357" lon="134.138186"><ele>331.23</ele><time>2026-08-11T15:13:34Z</time></trkpt>
<trkpt lat="34.868318" lon="134.138057"><ele>330.9</ele><time>2026-08-11T15:13:38Z</time></trkpt>
<trkpt lat="34.868301" lon="134.138028"><ele>330.93</ele><time>2026-08-11T15:13:39Z</time></trkpt>
<trkpt lat="34.868236" lon="134.137916"><ele>330.73</ele><time>2026-08-11T15:13:43Z</time></trkpt>
<trkpt lat="34.868213" lon="134.137894"><ele>329.6</ele><time>2026-08-11T15:13:44Z</time></trkpt>
<trkpt lat="34.868151" lon="134.137825"><ele>328.58</ele><time>2026-08-11T15:13:47Z</time></trkpt>
<trkpt lat="34.868062" lon="134.137721"><ele>327.49</ele><time>2026-08-11T15:13:51Z</time></trkpt>
<trkpt lat="34.868038" lon="134.137693"><ele>327.13</ele><time>2026-08-11T15:13:52Z</time></trkpt>
<trkpt lat="34.867963" lon="134.137608"><ele>326.33</ele><time>2026-08-11T15:13:55Z</time></trkpt>
<trkpt lat="34.867905" lon="134.137523"><ele>325.65</ele><time>2026-08-11T15:13:58Z</time></trkpt>
<trkpt lat="34.867859" lon="134.137478"><ele>324.69</ele><time>2026-08-11T15:14:00Z</time></trkpt>
<trkpt lat="34.867828" lon="134.137467"><ele>324.65</ele><time>2026-08-11T15:14:01Z</time></trkpt>
<trkpt lat="34.867708" lon="134.137472"><ele>322.65</ele><time>2026-08-11T15:14:05Z</time></trkpt>
<trkpt lat="34.867691" lon="134.137498"><ele>322.69</ele><time>2026-08-11T15:14:06Z</time></trkpt>
<trkpt lat="34.867679" lon="134.137563"><ele>322.42</ele><time>2026-08-11T15:14:08Z</time></trkpt>
<trkpt lat="34.867684" lon="134.137597"><ele>322.01</ele><time>2026-08-11T15:14:09Z</time></trkpt>
<trkpt lat="34.867727" lon="134.137702"><ele>321.14</ele><time>2026-08-11T15:14:12Z</time></trkpt>
<trkpt lat="34.867741" lon="134.137737"><ele>321.37</ele><time>2026-08-11T15:14:13Z</time></trkpt>
<trkpt lat="34.867795" lon="134.137831"><ele>320.46</ele><time>2026-08-11T15:14:16Z</time></trkpt>
<trkpt lat="34.867873" lon="134.137959"><ele>320.86</ele><time>2026-08-11T15:14:20Z</time></trkpt>
<trkpt lat="34.867941" lon="134.138082"><ele>320.37</ele><time>2026-08-11T15:14:24Z</time></trkpt>
<trkpt lat="34.867997" lon="134.138215"><ele>320.24</ele><time>2026-08-11T15:14:28Z</time></trkpt>
<trkpt lat="34.868011" lon="134.138316"><ele>319.98</ele><time>2026-08-11T15:14:31Z</time></trkpt>
<trkpt lat="34.868008" lon="134.138456"><ele>319.93</ele><time>2026-08-11T15:14:35Z</time></trkpt>
<trkpt lat="34.867971" lon="134.138695"><ele>320.98</ele><time>2026-08-11T15:14:42Z</time></trkpt>
<trkpt lat="34.867967" lon="134.138727"><ele>320.98</ele><time>2026-08-11T15:14:43Z</time></trkpt>
<trkpt lat="34.867978" lon="134.138832"><ele>319.82</ele><time>2026-08-11T15:14:46Z</time></trkpt>
<trkpt lat="34.868004" lon="134.138922"><ele>317.65</ele><time>2026-08-11T15:14:49Z</time></trkpt>
<trkpt lat="34.868011" lon="134.138951"><ele>316.81</ele><time>2026-08-11T15:14:50Z</time></trkpt>
<trkpt lat="34.868018" lon="134.139058"><ele>316.08</ele><time>2026-08-11T15:14:54Z</time></trkpt>
<trkpt lat="34.868013" lon="134.139082"><ele>315.82</ele><time>2026-08-11T15:14:55Z</time></trkpt>
<trkpt lat="34.867965" lon="134.139174"><ele>314.31</ele><time>2026-08-11T15:14:58Z</time></trkpt>
<trkpt lat="34.867868" lon="134.139266"><ele>312.19</ele><time>2026-08-11T15:15:02Z</time></trkpt>
<trkpt lat="34.867773" lon="134.139329"><ele>310.97</ele><time>2026-08-11T15:15:05Z</time></trkpt>
<trkpt lat="34.867694" lon="134.139406"><ele>312.04</ele><time>2026-08-11T15:15:08Z</time></trkpt>
<trkpt lat="34.867627" lon="134.139478"><ele>311.69</ele><time>2026-08-11T15:15:11Z</time></trkpt>
<trkpt lat="34.867589" lon="134.139528"><ele>310.9</ele><time>2026-08-11T15:15:13Z</time></trkpt>
<trkpt lat="34.867442" lon="134.139657"><ele>307.78</ele><time>2026-08-11T15:15:19Z</time></trkpt>
<trkpt lat="34.867316" lon="134.139737"><ele>308.92</ele><time>2026-08-11T15:15:24Z</time></trkpt>
<trkpt lat="34.867212" lon="134.13981"><ele>307.84</ele><time>2026-08-11T15:15:28Z</time></trkpt>
<trkpt lat="34.867131" lon="134.13992"><ele>305.82</ele><time>2026-08-11T15:15:32Z</time></trkpt>
<trkpt lat="34.867098" lon="134.139981"><ele>305.17</ele><time>2026-08-11T15:15:34Z</time></trkpt>
<trkpt lat="34.867057" lon="134.140037"><ele>304.07</ele><time>2026-08-11T15:15:36Z</time></trkpt>
<trkpt lat="34.866994" lon="134.140106"><ele>303.99</ele><time>2026-08-11T15:15:39Z</time></trkpt>
<trkpt lat="34.866907" lon="134.140149"><ele>303.41</ele><time>2026-08-11T15:15:42Z</time></trkpt>
<trkpt lat="34.866879" lon="134.140151"><ele>303.41</ele><time>2026-08-11T15:15:43Z</time></trkpt>
<trkpt lat="34.866852" lon="134.140148"><ele>302.51</ele><time>2026-08-11T15:15:44Z</time></trkpt>
<trkpt lat="34.86677" lon="134.140143"><ele>301.56</ele><time>2026-08-11T15:15:47Z</time></trkpt>
<trkpt lat="34.866688" lon="134.140133"><ele>301.08</ele><time>2026-08-11T15:15:50Z</time></trkpt>
<trkpt lat="34.866657" lon="134.140128"><ele>301.13</ele><time>2026-08-11T15:15:51Z</time></trkpt>
<trkpt lat="34.866505" lon="134.140063"><ele>299.33</ele><time>2026-08-11T15:15:56Z</time></trkpt>
<trkpt lat="34.866455" lon="134.140022"><ele>298.73</ele><time>2026-08-11T15:15:58Z</time></trkpt>
<trkpt lat="34.866427" lon="134.140003"><ele>297.47</ele><time>2026-08-11T15:15:59Z</time></trkpt>
<trkpt lat="34.866346" lon="134.139981"><ele>296.8</ele><time>2026-08-11T15:16:02Z</time></trkpt>
<trkpt lat="34.866321" lon="134.139984"><ele>296.8</ele><time>2026-08-11T15:16:03Z</time></trkpt>
<trkpt lat="34.866306" lon="134.139994"><ele>296.16</ele><time>2026-08-11T15:16:04Z</time></trkpt>
<trkpt lat="34.866232" lon="134.140033"><ele>296.07</ele><time>2026-08-11T15:16:07Z</time></trkpt>
<trkpt lat="34.866145" lon="134.140136"><ele>295.98</ele><time>2026-08-11T15:16:10Z</time></trkpt>
<trkpt lat="34.866022" lon="134.140181"><ele>293.69</ele><time>2026-08-11T15:16:13Z</time></trkpt>
<trkpt lat="34.865927" lon="134.140202"><ele>293.66</ele><time>2026-08-11T15:16:16Z</time></trkpt>
<trkpt lat="34.865832" lon="134.140187"><ele>292.13</ele><time>2026-08-11T15:16:19Z</time></trkpt>
<trkpt lat="34.86578" lon="134.140146"><ele>288.95</ele><time>2026-08-11T15:16:21Z</time></trkpt>
<trkpt lat="34.865764" lon="134.140105"><ele>288.29</ele><time>2026-08-11T15:16:22Z</time></trkpt>
<trkpt lat="34.865773" lon="134.140035"><ele>288.01</ele><time>2026-08-11T15:16:24Z</time></trkpt>
<trkpt lat="34.865819" lon="134.139981"><ele>287.56</ele><time>2026-08-11T15:16:26Z</time></trkpt>
<trkpt lat="34.865885" lon="134.139945"><ele>286.17</ele><time>2026-08-11T15:16:28Z</time></trkpt>
<trkpt lat="34.865974" lon="134.139875"><ele>283.59</ele><time>2026-08-11T15:16:31Z</time></trkpt>
<trkpt lat="34.866007" lon="134.139864"><ele>284.53</ele><time>2026-08-11T15:16:32Z</time></trkpt>
<trkpt lat="34.866089" lon="134.139797"><ele>281.59</ele><time>2026-08-11T15:16:35Z</time></trkpt>
<trkpt lat="34.866136" lon="134.139741"><ele>279.78</ele><time>2026-08-11T15:16:37Z</time></trkpt>
<trkpt lat="34.86619" lon="134.139705"><ele>279.97</ele><time>2026-08-11T15:16:39Z</time></trkpt>
<trkpt lat="34.866332" lon="134.139606"><ele>281.32</ele><time>2026-08-11T15:16:44Z</time></trkpt>
<trkpt lat="34.866504" lon="134.139588"><ele>280.57</ele><time>2026-08-11T15:16:49Z</time></trkpt>
<trkpt lat="34.866534" lon="134.139591"><ele>281.14</ele><time>2026-08-11T15:16:50Z</time></trkpt>
<trkpt lat="34.866704" lon="134.139578"><ele>278.82</ele><time>2026-08-11T15:16:56Z</time></trkpt>
<trkpt lat="34.866835" lon="134.139492"><ele>280.18</ele><time>2026-08-11T15:17:02Z</time></trkpt>
<trkpt lat="34.866873" lon="134.139437"><ele>280.88</ele><time>2026-08-11T15:17:04Z</time></trkpt>
<trkpt lat="34.866927" lon="134.139327"><ele>280.93</ele><time>2026-08-11T15:17:08Z</time></trkpt>
<trkpt lat="34.866934" lon="134.139294"><ele>280.93</ele><time>2026-08-11T15:17:09Z</time></trkpt>
<trkpt lat="34.866909" lon="134.139112"><ele>279.83</ele><time>2026-08-11T15:17:14Z</time></trkpt>
<trkpt lat="34.866872" lon="134.138961"><ele>278.59</ele><time>2026-08-11T15:17:18Z</time></trkpt>
<trkpt lat="34.866877" lon="134.13889"><ele>277.96</ele><time>2026-08-11T15:17:20Z</time></trkpt>
<trkpt lat="34.866898" lon="134.138824"><ele>277.46</ele><time>2026-08-11T15:17:22Z</time></trkpt>
<trkpt lat="34.866971" lon="134.138708"><ele>276.75</ele><time>2026-08-11T15:17:26Z</time></trkpt>
<trkpt lat="34.86699" lon="134.138679"><ele>276.84</ele><time>2026-08-11T15:17:27Z</time></trkpt>
<trkpt lat="34.867036" lon="134.138487"><ele>275.96</ele><time>2026-08-11T15:17:33Z</time></trkpt>
<trkpt lat="34.866986" lon="134.138253"><ele>275.87</ele><time>2026-08-11T15:17:40Z</time></trkpt>
<trkpt lat="34.866931" lon="134.138029"><ele>276.75</ele><time>2026-08-11T15:17:47Z</time></trkpt>
<trkpt lat="34.86692" lon="134.137996"><ele>276.88</ele><time>2026-08-11T15:17:48Z</time></trkpt>
<trkpt lat="34.866861" lon="134.137765"><ele>275.67</ele><time>2026-08-11T15:17:55Z</time></trkpt>
<trkpt lat="34.866853" lon="134.137734"><ele>275.82</ele><time>2026-08-11T15:17:56Z</time></trkpt>
<trkpt lat="34.866837" lon="134.13754"><ele>274.7</ele><time>2026-08-11T15:18:02Z</time></trkpt>
<trkpt lat="34.866837" lon="134.137508"><ele>274.66</ele><time>2026-08-11T15:18:03Z</time></trkpt>
<trkpt lat="34.866865" lon="134.137274"><ele>273.78</ele><time>2026-08-11T15:18:10Z</time></trkpt>
<trkpt lat="34.866907" lon="134.137074"><ele>272.81</ele><time>2026-08-11T15:18:16Z</time></trkpt>
<trkpt lat="34.86691" lon="134.137041"><ele>272.79</ele><time>2026-08-11T15:18:17Z</time></trkpt>
<trkpt lat="34.866904" lon="134.136976"><ele>272.68</ele><time>2026-08-11T15:18:19Z</time></trkpt>
<trkpt lat="34.866894" lon="134.136729"><ele>272.66</ele><time>2026-08-11T15:18:26Z</time></trkpt>
<trkpt lat="34.866836" lon="134.136642"><ele>271.9</ele><time>2026-08-11T15:18:29Z</time></trkpt>
<trkpt lat="34.866793" lon="134.136605"><ele>272.04</ele><time>2026-08-11T15:18:31Z</time></trkpt>
<trkpt lat="34.866712" lon="134.136596"><ele>270.95</ele><time>2026-08-11T15:18:34Z</time></trkpt>
<trkpt lat="34.866632" lon="134.136594"><ele>269.65</ele><time>2026-08-11T15:18:37Z</time></trkpt>
<trkpt lat="34.866542" lon="134.136592"><ele>268.84</ele><time>2026-08-11T15:18:40Z</time></trkpt>
<trkpt lat="34.866456" lon="134.136543"><ele>269.64</ele><time>2026-08-11T15:18:43Z</time></trkpt>
<trkpt lat="34.86634" lon="134.136478"><ele>267.64</ele><time>2026-08-11T15:18:47Z</time></trkpt>
<trkpt lat="34.866267" lon="134.136409"><ele>268.59</ele><time>2026-08-11T15:18:50Z</time></trkpt>
<trkpt lat="34.866103" lon="134.136295"><ele>266.59</ele><time>2026-08-11T15:18:56Z</time></trkpt>
<trkpt lat="34.86609" lon="134.13626"><ele>268.02</ele><time>2026-08-11T15:18:57Z</time></trkpt>
<trkpt lat="34.866059" lon="134.136113"><ele>266.17</ele><time>2026-08-11T15:19:01Z</time></trkpt>
<trkpt lat="34.866053" lon="134.136082"><ele>266.17</ele><time>2026-08-11T15:19:02Z</time></trkpt>
<trkpt lat="34.86598" lon="134.13593"><ele>263.43</ele><time>2026-08-11T15:19:07Z</time></trkpt>
<trkpt lat="34.865962" lon="134.135904"><ele>261.1</ele><time>2026-08-11T15:19:08Z</time></trkpt>
<trkpt lat="34.865848" lon="134.135767"><ele>264.53</ele><time>2026-08-11T15:19:14Z</time></trkpt>
<trkpt lat="34.865747" lon="134.135719"><ele>265.39</ele><time>2026-08-11T15:19:18Z</time></trkpt>
<trkpt lat="34.865651" lon="134.135634"><ele>265.43</ele><time>2026-08-11T15:19:22Z</time></trkpt>
<trkpt lat="34.865536" lon="134.135495"><ele>264.24</ele><time>2026-08-11T15:19:28Z</time></trkpt>
<trkpt lat="34.865514" lon="134.135478"><ele>264.24</ele><time>2026-08-11T15:19:29Z</time></trkpt>
<trkpt lat="34.865495" lon="134.135478"><ele>263.79</ele><time>2026-08-11T15:19:30Z</time></trkpt>
<trkpt lat="34.865405" lon="134.13548"><ele>262.72</ele><time>2026-08-11T15:19:33Z</time></trkpt>
<trkpt lat="34.865272" lon="134.135514"><ele>260.39</ele><time>2026-08-11T15:19:38Z</time></trkpt>
<trkpt lat="34.8651" lon="134.135561"><ele>260.05</ele><time>2026-08-11T15:19:45Z</time></trkpt>
<trkpt lat="34.865076" lon="134.135565"><ele>261.06</ele><time>2026-08-11T15:19:46Z</time></trkpt>
<trkpt lat="34.864898" lon="134.135542"><ele>262.75</ele><time>2026-08-11T15:19:52Z</time></trkpt>
<trkpt lat="34.864869" lon="134.135529"><ele>262.22</ele><time>2026-08-11T15:19:53Z</time></trkpt>
<trkpt lat="34.864811" lon="134.135504"><ele>262.79</ele><time>2026-08-11T15:19:55Z</time></trkpt>
<trkpt lat="34.864704" lon="134.135417"><ele>262.0</ele><time>2026-08-11T15:19:59Z</time></trkpt>
<trkpt lat="34.864679" lon="134.135388"><ele>261.13</ele><time>2026-08-11T15:20:00Z</time></trkpt>
<trkpt lat="34.864637" lon="134.135325"><ele>260.76</ele><time>2026-08-11T15:20:02Z</time></trkpt>
<trkpt lat="34.864517" lon="134.135206"><ele>259.18</ele><time>2026-08-11T15:20:07Z</time></trkpt>
<trkpt lat="34.864401" lon="134.135142"><ele>257.69</ele><time>2026-08-11T15:20:11Z</time></trkpt>
<trkpt lat="34.864321" lon="134.135085"><ele>256.73</ele><time>2026-08-11T15:20:14Z</time></trkpt>
<trkpt lat="34.864187" lon="134.135003"><ele>254.84</ele><time>2026-08-11T15:20:18Z</time></trkpt>
<trkpt lat="34.864136" lon="134.134915"><ele>253.05</ele><time>2026-08-11T15:20:21Z</time></trkpt>
<trkpt lat="34.864122" lon="134.13487"><ele>253.72</ele><time>2026-08-11T15:20:22Z</time></trkpt>
<trkpt lat="34.86413" lon="134.13471"><ele>254.49</ele><time>2026-08-11T15:20:26Z</time></trkpt>
<trkpt lat="34.864102" lon="134.134591"><ele>253.93</ele><time>2026-08-11T15:20:29Z</time></trkpt>
<trkpt lat="34.864071" lon="134.134536"><ele>251.9</ele><time>2026-08-11T15:20:31Z</time></trkpt>
<trkpt lat="34.864057" lon="134.134515"><ele>250.25</ele><time>2026-08-11T15:20:32Z</time></trkpt>
<trkpt lat="34.864037" lon="134.134509"><ele>250.25</ele><time>2026-08-11T15:20:33Z</time></trkpt>
<trkpt lat="34.863989" lon="134.134533"><ele>249.07</ele><time>2026-08-11T15:20:35Z</time></trkpt>
<trkpt lat="34.863958" lon="134.134589"><ele>248.36</ele><time>2026-08-11T15:20:37Z</time></trkpt>
<trkpt lat="34.863956" lon="134.13463"><ele>247.81</ele><time>2026-08-11T15:20:38Z</time></trkpt>
<trkpt lat="34.863959" lon="134.13467"><ele>246.92</ele><time>2026-08-11T15:20:39Z</time></trkpt>
<trkpt lat="34.863985" lon="134.134781"><ele>246.91</ele><time>2026-08-11T15:20:42Z</time></trkpt>
<trkpt lat="34.864004" lon="134.134857"><ele>246.11</ele><time>2026-08-11T15:20:44Z</time></trkpt>
<trkpt lat="34.864012" lon="134.134889"><ele>245.52</ele><time>2026-08-11T15:20:45Z</time></trkpt>
<trkpt lat="34.864031" lon="134.134963"><ele>244.59</ele><time>2026-08-11T15:20:47Z</time></trkpt>
<trkpt lat="34.864051" lon="134.135063"><ele>244.84</ele><time>2026-08-11T15:20:50Z</time></trkpt>
<trkpt lat="34.86408" lon="134.135152"><ele>244.22</ele><time>2026-08-11T15:20:53Z</time></trkpt>
<trkpt lat="34.864118" lon="134.135256"><ele>242.24</ele><time>2026-08-11T15:20:56Z</time></trkpt>
<trkpt lat="34.864194" lon="134.135376"><ele>241.63</ele><time>2026-08-11T15:21:00Z</time></trkpt>
<trkpt lat="34.864239" lon="134.135466"><ele>242.02</ele><time>2026-08-11T15:21:03Z</time></trkpt>
<trkpt lat="34.864321" lon="134.13564"><ele>240.51</ele><time>2026-08-11T15:21:08Z</time></trkpt>
<trkpt lat="34.864342" lon="134.135677"><ele>239.88</ele><time>2026-08-11T15:21:09Z</time></trkpt>
<trkpt lat="34.864369" lon="134.135866"><ele>238.38</ele><time>2026-08-11T15:21:14Z</time></trkpt>
<trkpt lat="34.864374" lon="134.135905"><ele>238.16</ele><time>2026-08-11T15:21:15Z</time></trkpt>
<trkpt lat="34.864452" lon="134.136048"><ele>237.13</ele><time>2026-08-11T15:21:20Z</time></trkpt>
<trkpt lat="34.864589" lon="134.136078"><ele>234.02</ele><time>2026-08-11T15:21:25Z</time></trkpt>
<trkpt lat="34.864619" lon="134.136085"><ele>234.03</ele><time>2026-08-11T15:21:26Z</time></trkpt>
<trkpt lat="34.864811" lon="134.136107"><ele>234.56</ele><time>2026-08-11T15:21:32Z</time></trkpt>
<trkpt lat="34.864908" lon="134.136124"><ele>234.15</ele><time>2026-08-11T15:21:35Z</time></trkpt>
<trkpt lat="34.865006" lon="134.136127"><ele>233.01</ele><time>2026-08-11T15:21:38Z</time></trkpt>
<trkpt lat="34.865059" lon="134.136142"><ele>233.02</ele><time>2026-08-11T15:21:40Z</time></trkpt>
<trkpt lat="34.865099" lon="134.136179"><ele>232.48</ele><time>2026-08-11T15:21:41Z</time></trkpt>
<trkpt lat="34.865175" lon="134.136292"><ele>231.45</ele><time>2026-08-11T15:21:44Z</time></trkpt>
<trkpt lat="34.865216" lon="134.136354"><ele>231.45</ele><time>2026-08-11T15:21:46Z</time></trkpt>
<trkpt lat="34.865267" lon="134.13646"><ele>232.26</ele><time>2026-08-11T15:21:49Z</time></trkpt>
<trkpt lat="34.865254" lon="134.136532"><ele>230.75</ele><time>2026-08-11T15:21:51Z</time></trkpt>
<trkpt lat="34.865224" lon="134.136642"><ele>230.64</ele><time>2026-08-11T15:21:54Z</time></trkpt>
<trkpt lat="34.865186" lon="134.136789"><ele>230.42</ele><time>2026-08-11T15:21:58Z</time></trkpt>
<trkpt lat="34.865222" lon="134.137"><ele>227.27</ele><time>2026-08-11T15:22:04Z</time></trkpt>
<trkpt lat="34.865239" lon="134.137025"><ele>227.13</ele><time>2026-08-11T15:22:05Z</time></trkpt>
<trkpt lat="34.865345" lon="134.137162"><ele>226.3</ele><time>2026-08-11T15:22:10Z</time></trkpt>
<trkpt lat="34.865364" lon="134.137195"><ele>226.27</ele><time>2026-08-11T15:22:11Z</time></trkpt>
<trkpt lat="34.865388" lon="134.137264"><ele>226.25</ele><time>2026-08-11T15:22:13Z</time></trkpt>
<trkpt lat="34.865395" lon="134.137405"><ele>225.37</ele><time>2026-08-11T15:22:17Z</time></trkpt>
<trkpt lat="34.865414" lon="134.137476"><ele>224.86</ele><time>2026-08-11T15:22:19Z</time></trkpt>
<trkpt lat="34.865434" lon="134.137583"><ele>223.48</ele><time>2026-08-11T15:22:22Z</time></trkpt>
<trkpt lat="34.865426" lon="134.137661"><ele>222.6</ele><time>2026-08-11T15:22:24Z</time></trkpt>
<trkpt lat="34.865392" lon="134.137733"><ele>222.22</ele><time>2026-08-11T15:22:26Z</time></trkpt>
<trkpt lat="34.865376" lon="134.137766"><ele>222.58</ele><time>2026-08-11T15:22:27Z</time></trkpt>
<trkpt lat="34.865353" lon="134.137793"><ele>221.59</ele><time>2026-08-11T15:22:28Z</time></trkpt>
<trkpt lat="34.865302" lon="134.137836"><ele>222.79</ele><time>2026-08-11T15:22:30Z</time></trkpt>
<trkpt lat="34.865275" lon="134.137858"><ele>221.61</ele><time>2026-08-11T15:22:31Z</time></trkpt>
<trkpt lat="34.865219" lon="134.137901"><ele>220.6</ele><time>2026-08-11T15:22:33Z</time></trkpt>
<trkpt lat="34.865135" lon="134.137954"><ele>219.54</ele><time>2026-08-11T15:22:36Z</time></trkpt>
<trkpt lat="34.865045" lon="134.137994"><ele>217.68</ele><time>2026-08-11T15:22:39Z</time></trkpt>
<trkpt lat="34.864949" lon="134.13797"><ele>216.7</ele><time>2026-08-11T15:22:42Z</time></trkpt>
<trkpt lat="34.864925" lon="134.137945"><ele>216.02</ele><time>2026-08-11T15:22:43Z</time></trkpt>
<trkpt lat="34.86489" lon="134.137832"><ele>214.89</ele><time>2026-08-11T15:22:46Z</time></trkpt>
<trkpt lat="34.864891" lon="134.137789"><ele>213.96</ele><time>2026-08-11T15:22:47Z</time></trkpt>
<trkpt lat="34.864896" lon="134.137715"><ele>213.23</ele><time>2026-08-11T15:22:49Z</time></trkpt>
<trkpt lat="34.86487" lon="134.137603"><ele>212.23</ele><time>2026-08-11T15:22:52Z</time></trkpt>
<trkpt lat="34.864855" lon="134.137569"><ele>212.17</ele><time>2026-08-11T15:22:53Z</time></trkpt>
<trkpt lat="34.864795" lon="134.137476"><ele>211.01</ele><time>2026-08-11T15:22:56Z</time></trkpt>
<trkpt lat="34.864735" lon="134.137351"><ele>210.44</ele><time>2026-08-11T15:23:00Z</time></trkpt>
<trkpt lat="34.864685" lon="134.137108"><ele>210.06</ele><time>2026-08-11T15:23:07Z</time></trkpt>
<trkpt lat="34.864676" lon="134.137072"><ele>210.04</ele><time>2026-08-11T15:23:08Z</time></trkpt>
<trkpt lat="34.86464" lon="134.136971"><ele>210.48</ele><time>2026-08-11T15:23:11Z</time></trkpt>
<trkpt lat="34.864567" lon="134.136872"><ele>210.24</ele><time>2026-08-11T15:23:15Z</time></trkpt>
<trkpt lat="34.864416" lon="134.136741"><ele>209.54</ele><time>2026-08-11T15:23:21Z</time></trkpt>
<trkpt lat="34.864342" lon="134.136698"><ele>210.06</ele><time>2026-08-11T15:23:24Z</time></trkpt>
<trkpt lat="34.864196" lon="134.136678"><ele>210.18</ele><time>2026-08-11T15:23:29Z</time></trkpt>
<trkpt lat="34.864169" lon="134.136668"><ele>209.02</ele><time>2026-08-11T15:23:30Z</time></trkpt>
<trkpt lat="34.864061" lon="134.136609"><ele>207.71</ele><time>2026-08-11T15:23:34Z</time></trkpt>
<trkpt lat="34.863964" lon="134.136521"><ele>207.0</ele><time>2026-08-11T15:23:38Z</time></trkpt>
<trkpt lat="34.863837" lon="134.13641"><ele>204.66</ele><time>2026-08-11T15:23:43Z</time></trkpt>
<trkpt lat="34.863785" lon="134.136361"><ele>203.09</ele><time>2026-08-11T15:23:45Z</time></trkpt>
<trkpt lat="34.86373" lon="134.136316"><ele>203.0</ele><time>2026-08-11T15:23:47Z</time></trkpt>
<trkpt lat="34.863642" lon="134.136273"><ele>201.33</ele><time>2026-08-11T15:23:50Z</time></trkpt>
<trkpt lat="34.863582" lon="134.136267"><ele>200.97</ele><time>2026-08-11T15:23:52Z</time></trkpt>
<trkpt lat="34.863554" lon="134.136269"><ele>200.71</ele><time>2026-08-11T15:23:53Z</time></trkpt>
<trkpt lat="34.863462" lon="134.136285"><ele>200.58</ele><time>2026-08-11T15:23:56Z</time></trkpt>
<trkpt lat="34.863369" lon="134.136297"><ele>199.36</ele><time>2026-08-11T15:23:59Z</time></trkpt>
<trkpt lat="34.86332" lon="134.136276"><ele>198.55</ele><time>2026-08-11T15:24:01Z</time></trkpt>
<trkpt lat="34.863275" lon="134.136232"><ele>198.5</ele><time>2026-08-11T15:24:03Z</time></trkpt>
<trkpt lat="34.863251" lon="134.136203"><ele>197.07</ele><time>2026-08-11T15:24:04Z</time></trkpt>
<trkpt lat="34.863203" lon="134.136146"><ele>196.86</ele><time>2026-08-11T15:24:06Z</time></trkpt>
<trkpt lat="34.863091" lon="134.136073"><ele>195.44</ele><time>2026-08-11T15:24:10Z</time></trkpt>
<trkpt lat="34.863056" lon="134.136074"><ele>195.14</ele><time>2026-08-11T15:24:11Z</time></trkpt>
<trkpt lat="34.862982" lon="134.136114"><ele>194.86</ele><time>2026-08-11T15:24:14Z</time></trkpt>
<trkpt lat="34.862969" lon="134.136146"><ele>194.33</ele><time>2026-08-11T15:24:15Z</time></trkpt>
<trkpt lat="34.862964" lon="134.136221"><ele>192.66</ele><time>2026-08-11T15:24:17Z</time></trkpt>
<trkpt lat="34.862999" lon="134.136336"><ele>191.09</ele><time>2026-08-11T15:24:20Z</time></trkpt>
<trkpt lat="34.863018" lon="134.13637"><ele>190.94</ele><time>2026-08-11T15:24:21Z</time></trkpt>
<trkpt lat="34.863093" lon="134.136461"><ele>189.5</ele><time>2026-08-11T15:24:24Z</time></trkpt>
<trkpt lat="34.863146" lon="134.136513"><ele>189.14</ele><time>2026-08-11T15:24:26Z</time></trkpt>
<trkpt lat="34.863199" lon="134.136556"><ele>188.91</ele><time>2026-08-11T15:24:28Z</time></trkpt>
<trkpt lat="34.863293" lon="134.136604"><ele>187.63</ele><time>2026-08-11T15:24:31Z</time></trkpt>
<trkpt lat="34.863326" lon="134.136613"><ele>187.63</ele><time>2026-08-11T15:24:32Z</time></trkpt>
<trkpt lat="34.863358" lon="134.136622"><ele>187.95</ele><time>2026-08-11T15:24:33Z</time></trkpt>
<trkpt lat="34.86339" lon="134.136637"><ele>187.24</ele><time>2026-08-11T15:24:34Z</time></trkpt>
<trkpt lat="34.863439" lon="134.136674"><ele>187.03</ele><time>2026-08-11T15:24:36Z</time></trkpt>
<trkpt lat="34.863482" lon="134.136724"><ele>187.67</ele><time>2026-08-11T15:24:38Z</time></trkpt>
<trkpt lat="34.86356" lon="134.136848"><ele>187.67</ele><time>2026-08-11T15:24:42Z</time></trkpt>
<trkpt lat="34.863625" lon="134.136978"><ele>187.2</ele><time>2026-08-11T15:24:46Z</time></trkpt>
<trkpt lat="34.863651" lon="134.137046"><ele>187.28</ele><time>2026-08-11T15:24:48Z</time></trkpt>
<trkpt lat="34.863698" lon="134.137255"><ele>185.71</ele><time>2026-08-11T15:24:54Z</time></trkpt>
<trkpt lat="34.863658" lon="134.137351"><ele>185.37</ele><time>2026-08-11T15:24:57Z</time></trkpt>
<trkpt lat="34.863628" lon="134.137368"><ele>184.69</ele><time>2026-08-11T15:24:58Z</time></trkpt>
<trkpt lat="34.863501" lon="134.137348"><ele>182.77</ele><time>2026-08-11T15:25:02Z</time></trkpt>
<trkpt lat="34.863478" lon="134.137324"><ele>182.77</ele><time>2026-08-11T15:25:03Z</time></trkpt>
<trkpt lat="34.863376" lon="134.137184"><ele>183.11</ele><time>2026-08-11T15:25:08Z</time></trkpt>
<trkpt lat="34.863267" lon="134.136997"><ele>181.17</ele><time>2026-08-11T15:25:14Z</time></trkpt>
<trkpt lat="34.863223" lon="134.136937"><ele>180.7</ele><time>2026-08-11T15:25:16Z</time></trkpt>
<trkpt lat="34.863143" lon="134.136881"><ele>180.51</ele><time>2026-08-11T15:25:19Z</time></trkpt>
<trkpt lat="34.863056" lon="134.136853"><ele>179.51</ele><time>2026-08-11T15:25:22Z</time></trkpt>
<trkpt lat="34.862886" lon="134.136783"><ele>179.68</ele><time>2026-08-11T15:25:28Z</time></trkpt>
<trkpt lat="34.862828" lon="134.13675"><ele>179.64</ele><time>2026-08-11T15:25:30Z</time></trkpt>
<trkpt lat="34.862743" lon="134.136703"><ele>179.36</ele><time>2026-08-11T15:25:33Z</time></trkpt>
<trkpt lat="34.862689" lon="134.136676"><ele>178.08</ele><time>2026-08-11T15:25:35Z</time></trkpt>
<trkpt lat="34.862568" lon="134.136633"><ele>177.29</ele><time>2026-08-11T15:25:39Z</time></trkpt>
<trkpt lat="34.862538" lon="134.136618"><ele>177.22</ele><time>2026-08-11T15:25:40Z</time></trkpt>
<trkpt lat="34.862481" lon="134.13659"><ele>176.37</ele><time>2026-08-11T15:25:42Z</time></trkpt>
<trkpt lat="34.862333" lon="134.136533"><ele>175.4</ele><time>2026-08-11T15:25:47Z</time></trkpt>
<trkpt lat="34.862238" lon="134.136513"><ele>174.34</ele><time>2026-08-11T15:25:50Z</time></trkpt>
<trkpt lat="34.862206" lon="134.136512"><ele>173.95</ele><time>2026-08-11T15:25:51Z</time></trkpt>
<trkpt lat="34.862093" lon="134.136547"><ele>172.36</ele><time>2026-08-11T15:25:55Z</time></trkpt>
<trkpt lat="34.862071" lon="134.136572"><ele>172.36</ele><time>2026-08-11T15:25:56Z</time></trkpt>
<trkpt lat="34.862051" lon="134.13664"><ele>171.46</ele><time>2026-08-11T15:25:58Z</time></trkpt>
<trkpt lat="34.862058" lon="134.136675"><ele>170.93</ele><time>2026-08-11T15:25:59Z</time></trkpt>
<trkpt lat="34.862091" lon="134.136738"><ele>170.29</ele><time>2026-08-11T15:26:01Z</time></trkpt>
<trkpt lat="34.862138" lon="134.136797"><ele>169.51</ele><time>2026-08-11T15:26:03Z</time></trkpt>
<trkpt lat="34.862166" lon="134.136828"><ele>168.82</ele><time>2026-08-11T15:26:04Z</time></trkpt>
<trkpt lat="34.862214" lon="134.136888"><ele>167.98</ele><time>2026-08-11T15:26:06Z</time></trkpt>
<trkpt lat="34.862281" lon="134.136974"><ele>167.38</ele><time>2026-08-11T15:26:09Z</time></trkpt>
<trkpt lat="34.862379" lon="134.137122"><ele>166.89</ele><time>2026-08-11T15:26:14Z</time></trkpt>
<trkpt lat="34.862455" lon="134.137299"><ele>165.68</ele><time>2026-08-11T15:26:19Z</time></trkpt>
<trkpt lat="34.862496" lon="134.137407"><ele>164.54</ele><time>2026-08-11T15:26:22Z</time></trkpt>
<trkpt lat="34.862509" lon="134.137443"><ele>164.54</ele><time>2026-08-11T15:26:23Z</time></trkpt>
<trkpt lat="34.86252" lon="134.137478"><ele>164.24</ele><time>2026-08-11T15:26:24Z</time></trkpt>
<trkpt lat="34.862548" lon="134.13763"><ele>162.77</ele><time>2026-08-11T15:26:28Z</time></trkpt>
<trkpt lat="34.862546" lon="134.13771"><ele>162.05</ele><time>2026-08-11T15:26:30Z</time></trkpt>
<trkpt lat="34.862539" lon="134.137752"><ele>161.69</ele><time>2026-08-11T15:26:31Z</time></trkpt>
<trkpt lat="34.862501" lon="134.137945"><ele>161.12</ele><time>2026-08-11T15:26:36Z</time></trkpt>
<trkpt lat="34.862491" lon="134.137981"><ele>161.11</ele><time>2026-08-11T15:26:37Z</time></trkpt>
<trkpt lat="34.862468" lon="134.138052"><ele>160.39</ele><time>2026-08-11T15:26:39Z</time></trkpt>
<trkpt lat="34.862443" lon="134.138121"><ele>159.14</ele><time>2026-08-11T15:26:41Z</time></trkpt>
<trkpt lat="34.862433" lon="134.138158"><ele>158.84</ele><time>2026-08-11T15:26:42Z</time></trkpt>
<trkpt lat="34.862383" lon="134.138295"><ele>158.32</ele><time>2026-08-11T15:26:46Z</time></trkpt>
<trkpt lat="34.86237" lon="134.138331"><ele>156.8</ele><time>2026-08-11T15:26:47Z</time></trkpt>
<trkpt lat="34.862341" lon="134.138442"><ele>156.32</ele><time>2026-08-11T15:26:50Z</time></trkpt>
<trkpt lat="34.862314" lon="134.13851"><ele>156.26</ele><time>2026-08-11T15:26:52Z</time></trkpt>
<trkpt lat="34.862247" lon="134.138646"><ele>154.45</ele><time>2026-08-11T15:26:56Z</time></trkpt>
<trkpt lat="34.86223" lon="134.138676"><ele>153.84</ele><time>2026-08-11T15:26:57Z</time></trkpt>
<trkpt lat="34.862177" lon="134.138777"><ele>150.83</ele><time>2026-08-11T15:27:00Z</time></trkpt>
<trkpt lat="34.86211" lon="134.138868"><ele>151.74</ele><time>2026-08-11T15:27:03Z</time></trkpt>
<trkpt lat="34.862029" lon="134.138945"><ele>150.44</ele><time>2026-08-11T15:27:06Z</time></trkpt>
<trkpt lat="34.862004" lon="134.13897"><ele>150.03</ele><time>2026-08-11T15:27:07Z</time></trkpt>
<trkpt lat="34.861937" lon="134.139051"><ele>149.18</ele><time>2026-08-11T15:27:10Z</time></trkpt>
<trkpt lat="34.861841" lon="134.139153"><ele>147.3</ele><time>2026-08-11T15:27:14Z</time></trkpt>
<trkpt lat="34.861746" lon="134.139252"><ele>147.2</ele><time>2026-08-11T15:27:18Z</time></trkpt>
<trkpt lat="34.861658" lon="134.139311"><ele>146.13</ele><time>2026-08-11T15:27:21Z</time></trkpt>
<trkpt lat="34.861597" lon="134.139349"><ele>144.28</ele><time>2026-08-11T15:27:23Z</time></trkpt>
<trkpt lat="34.861568" lon="134.139366"><ele>144.28</ele><time>2026-08-11T15:27:24Z</time></trkpt>
<trkpt lat="34.861399" lon="134.139483"><ele>143.35</ele><time>2026-08-11T15:27:30Z</time></trkpt>
<trkpt lat="34.861374" lon="134.139501"><ele>143.04</ele><time>2026-08-11T15:27:31Z</time></trkpt>
<trkpt lat="34.86121" lon="134.139636"><ele>142.92</ele><time>2026-08-11T15:27:38Z</time></trkpt>
<trkpt lat="34.86119" lon="134.139656"><ele>142.92</ele><time>2026-08-11T15:27:39Z</time></trkpt>
<trkpt lat="34.861074" lon="134.139866"><ele>142.25</ele><time>2026-08-11T15:27:46Z</time></trkpt>
<trkpt lat="34.860989" lon="134.139958"><ele>140.78</ele><time>2026-08-11T15:27:50Z</time></trkpt>
<trkpt lat="34.860934" lon="134.139987"><ele>140.9</ele><time>2026-08-11T15:27:52Z</time></trkpt>
<trkpt lat="34.860902" lon="134.139999"><ele>139.71</ele><time>2026-08-11T15:27:53Z</time></trkpt>
<trkpt lat="34.860838" lon="134.14002"><ele>140.14</ele><time>2026-08-11T15:27:55Z</time></trkpt>
<trkpt lat="34.860746" lon="134.140038"><ele>137.69</ele><time>2026-08-11T15:27:58Z</time></trkpt>
<trkpt lat="34.860657" lon="134.140065"><ele>136.29</ele><time>2026-08-11T15:28:01Z</time></trkpt>
<trkpt lat="34.860628" lon="134.14008"><ele>136.11</ele><time>2026-08-11T15:28:02Z</time></trkpt>
<trkpt lat="34.860543" lon="134.140152"><ele>135.41</ele><time>2026-08-11T15:28:05Z</time></trkpt>
<trkpt lat="34.860516" lon="134.140178"><ele>135.41</ele><time>2026-08-11T15:28:06Z</time></trkpt>
<trkpt lat="34.860494" lon="134.140206"><ele>135.69</ele><time>2026-08-11T15:28:07Z</time></trkpt>
<trkpt lat="34.860433" lon="134.140295"><ele>133.42</ele><time>2026-08-11T15:28:10Z</time></trkpt>
<trkpt lat="34.86035" lon="134.140411"><ele>132.23</ele><time>2026-08-11T15:28:14Z</time></trkpt>
<trkpt lat="34.860333" lon="134.140443"><ele>131.78</ele><time>2026-08-11T15:28:15Z</time></trkpt>
<trkpt lat="34.860292" lon="134.140503"><ele>131.71</ele><time>2026-08-11T15:28:17Z</time></trkpt>
<trkpt lat="34.860174" lon="134.140628"><ele>130.01</ele><time>2026-08-11T15:28:22Z</time></trkpt>
<trkpt lat="34.860101" lon="134.140709"><ele>130.9</ele><time>2026-08-11T15:28:25Z</time></trkpt>
<trkpt lat="34.860075" lon="134.140731"><ele>130.22</ele><time>2026-08-11T15:28:26Z</time></trkpt>
<trkpt lat="34.859991" lon="134.14077"><ele>128.97</ele><time>2026-08-11T15:28:29Z</time></trkpt>
<trkpt lat="34.859896" lon="134.140766"><ele>127.0</ele><time>2026-08-11T15:28:32Z</time></trkpt>
<trkpt lat="34.859787" lon="134.140715"><ele>128.41</ele><time>2026-08-11T15:28:36Z</time></trkpt>
<trkpt lat="34.859764" lon="134.140687"><ele>127.43</ele><time>2026-08-11T15:28:37Z</time></trkpt>
<trkpt lat="34.85969" lon="134.140545"><ele>126.81</ele><time>2026-08-11T15:28:41Z</time></trkpt>
<trkpt lat="34.859667" lon="134.140471"><ele>124.82</ele><time>2026-08-11T15:28:43Z</time></trkpt>
<trkpt lat="34.859629" lon="134.140366"><ele>125.29</ele><time>2026-08-11T15:28:46Z</time></trkpt>
<trkpt lat="34.859596" lon="134.140265"><ele>122.62</ele><time>2026-08-11T15:28:49Z</time></trkpt>
<trkpt lat="34.859585" lon="134.140229"><ele>123.57</ele><time>2026-08-11T15:28:50Z</time></trkpt>
<trkpt lat="34.859575" lon="134.140194"><ele>123.57</ele><time>2026-08-11T15:28:51Z</time></trkpt>
<trkpt lat="34.859519" lon="134.140006"><ele>121.49</ele><time>2026-08-11T15:28:56Z</time></trkpt>
<trkpt lat="34.859479" lon="134.139902"><ele>121.19</ele><time>2026-08-11T15:28:59Z</time></trkpt>
<trkpt lat="34.859471" lon="134.139869"><ele>120.87</ele><time>2026-08-11T15:29:00Z</time></trkpt>
<trkpt lat="34.859419" lon="134.139743"><ele>119.18</ele><time>2026-08-11T15:29:04Z</time></trkpt>
<trkpt lat="34.859384" lon="134.139687"><ele>118.6</ele><time>2026-08-11T15:29:06Z</time></trkpt>
<trkpt lat="34.859351" lon="134.139625"><ele>118.74</ele><time>2026-08-11T15:29:08Z</time></trkpt>
<trkpt lat="34.85924" lon="134.139438"><ele>118.29</ele><time>2026-08-11T15:29:14Z</time></trkpt>
<trkpt lat="34.859223" lon="134.139403"><ele>117.73</ele><time>2026-08-11T15:29:15Z</time></trkpt>
<trkpt lat="34.859203" lon="134.139364"><ele>117.63</ele><time>2026-08-11T15:29:16Z</time></trkpt>
<trkpt lat="34.859113" lon="134.139214"><ele>116.97</ele><time>2026-08-11T15:29:21Z</time></trkpt>
<trkpt lat="34.859051" lon="134.139132"><ele>116.4</ele><time>2026-08-11T15:29:24Z</time></trkpt>
<trkpt lat="34.858945" lon="134.138985"><ele>115.32</ele><time>2026-08-11T15:29:29Z</time></trkpt>
<trkpt lat="34.858864" lon="134.138873"><ele>115.46</ele><time>2026-08-11T15:29:33Z</time></trkpt>
<trkpt lat="34.858737" lon="134.138662"><ele>115.12</ele><time>2026-08-11T15:29:40Z</time></trkpt>
<trkpt lat="34.8586" lon="134.138495"><ele>115.17</ele><time>2026-08-11T15:29:47Z</time></trkpt>
<trkpt lat="34.85855" lon="134.138454"><ele>114.87</ele><time>2026-08-11T15:29:49Z</time></trkpt>
<trkpt lat="34.858361" lon="134.138345"><ele>115.42</ele><time>2026-08-11T15:29:56Z</time></trkpt>
<trkpt lat="34.858332" lon="134.138332"><ele>115.42</ele><time>2026-08-11T15:29:57Z</time></trkpt>
<trkpt lat="34.85825" lon="134.138288"><ele>115.3</ele><time>2026-08-11T15:30:00Z</time></trkpt>
<trkpt lat="34.858066" lon="134.138197"><ele>115.66</ele><time>2026-08-11T15:30:07Z</time></trkpt>
<trkpt lat="34.857897" lon="134.138109"><ele>115.73</ele><time>2026-08-11T15:30:14Z</time></trkpt>
<trkpt lat="34.857816" lon="134.138064"><ele>115.85</ele><time>2026-08-11T15:30:17Z</time></trkpt>
<trkpt lat="34.857795" lon="134.138041"><ele>115.42</ele><time>2026-08-11T15:30:18Z</time></trkpt>
<trkpt lat="34.857775" lon="134.138016"><ele>115.42</ele><time>2026-08-11T15:30:19Z</time></trkpt>
<trkpt lat="34.857717" lon="134.137887"><ele>114.28</ele><time>2026-08-11T15:30:23Z</time></trkpt>
<trkpt lat="34.8577" lon="134.137813"><ele>113.41</ele><time>2026-08-11T15:30:25Z</time></trkpt>
<trkpt lat="34.857663" lon="134.137663"><ele>112.51</ele><time>2026-08-11T15:30:29Z</time></trkpt>
<trkpt lat="34.857639" lon="134.137557"><ele>111.31</ele><time>2026-08-11T15:30:32Z</time></trkpt>
<trkpt lat="34.857631" lon="134.13752"><ele>110.91</ele><time>2026-08-11T15:30:33Z</time></trkpt>
<trkpt lat="34.857605" lon="134.137412"><ele>110.0</ele><time>2026-08-11T15:30:36Z</time></trkpt>
<trkpt lat="34.85761" lon="134.137256"><ele>108.87</ele><time>2026-08-11T15:30:40Z</time></trkpt>
<trkpt lat="34.857619" lon="134.137222"><ele>108.19</ele><time>2026-08-11T15:30:41Z</time></trkpt>
<trkpt lat="34.857634" lon="134.13719"><ele>108.21</ele><time>2026-08-11T15:30:42Z</time></trkpt>
<trkpt lat="34.857693" lon="134.137051"><ele>106.56</ele><time>2026-08-11T15:30:46Z</time></trkpt>
<trkpt lat="34.85772" lon="134.136979"><ele>106.41</ele><time>2026-08-11T15:30:48Z</time></trkpt>
<trkpt lat="34.85775" lon="134.136909"><ele>105.05</ele><time>2026-08-11T15:30:50Z</time></trkpt>
<trkpt lat="34.857775" lon="134.136839"><ele>104.54</ele><time>2026-08-11T15:30:52Z</time></trkpt>
<trkpt lat="34.857784" lon="134.136805"><ele>104.54</ele><time>2026-08-11T15:30:53Z</time></trkpt>
<trkpt lat="34.857819" lon="134.136702"><ele>103.39</ele><time>2026-08-11T15:30:56Z</time></trkpt>
<trkpt lat="34.857837" lon="134.136634"><ele>102.91</ele><time>2026-08-11T15:30:58Z</time></trkpt>
<trkpt lat="34.857843" lon="134.136597"><ele>102.5</ele><time>2026-08-11T15:30:59Z</time></trkpt>
<trkpt lat="34.857851" lon="134.136442"><ele>101.06</ele><time>2026-08-11T15:31:03Z</time></trkpt>
<trkpt lat="34.857848" lon="134.136291"><ele>100.0</ele><time>2026-08-11T15:31:07Z</time></trkpt>
<trkpt lat="34.857847" lon="134.136253"><ele>99.56</ele><time>2026-08-11T15:31:08Z</time></trkpt>
<trkpt lat="34.857844" lon="134.136214"><ele>99.2</ele><time>2026-08-11T15:31:09Z</time></trkpt>
<trkpt lat="34.857848" lon="134.136099"><ele>98.21</ele><time>2026-08-11T15:31:12Z</time></trkpt>
<trkpt lat="34.857873" lon="134.13594"><ele>96.25</ele><time>2026-08-11T15:31:16Z</time></trkpt>
<trkpt lat="34.857911" lon="134.135793"><ele>95.34</ele><time>2026-08-11T15:31:20Z</time></trkpt>
<trkpt lat="34.857947" lon="134.135682"><ele>94.73</ele><time>2026-08-11T15:31:23Z</time></trkpt>
<trkpt lat="34.857959" lon="134.135648"><ele>94.73</ele><time>2026-08-11T15:31:24Z</time></trkpt>
<trkpt lat="34.857983" lon="134.135578"><ele>93.42</ele><time>2026-08-11T15:31:26Z</time></trkpt>
<trkpt lat="34.858015" lon="134.135509"><ele>92.87</ele><time>2026-08-11T15:31:28Z</time></trkpt>
<trkpt lat="34.858079" lon="134.135372"><ele>92.38</ele><time>2026-08-11T15:31:32Z</time></trkpt>
<trkpt lat="34.858094" lon="134.135335"><ele>92.12</ele><time>2026-08-11T15:31:33Z</time></trkpt>
<trkpt lat="34.858152" lon="134.135203"><ele>91.49</ele><time>2026-08-11T15:31:37Z</time></trkpt>
<trkpt lat="34.858179" lon="134.13511"><ele>90.74</ele><time>2026-08-11T15:31:40Z</time></trkpt>
<trkpt lat="34.85821" lon="134.134966"><ele>90.92</ele><time>2026-08-11T15:31:44Z</time></trkpt>
<trkpt lat="34.858217" lon="134.134893"><ele>90.77</ele><time>2026-08-11T15:31:46Z</time></trkpt>
<trkpt lat="34.858211" lon="134.134755"><ele>90.77</ele><time>2026-08-11T15:31:50Z</time></trkpt>
<trkpt lat="34.858191" lon="134.134659"><ele>90.9</ele><time>2026-08-11T15:31:53Z</time></trkpt>
<trkpt lat="34.858143" lon="134.134437"><ele>90.58</ele><time>2026-08-11T15:32:00Z</time></trkpt>
<trkpt lat="34.858121" lon="134.134374"><ele>90.6</ele><time>2026-08-11T15:32:02Z</time></trkpt>
<trkpt lat="34.858093" lon="134.134248"><ele>90.83</ele><time>2026-08-11T15:32:06Z</time></trkpt>
<trkpt lat="34.858072" lon="134.13415"><ele>90.3</ele><time>2026-08-11T15:32:09Z</time></trkpt>
<trkpt lat="34.858037" lon="134.133915"><ele>90.92</ele><time>2026-08-11T15:32:16Z</time></trkpt>
<trkpt lat="34.858001" lon="134.133679"><ele>91.06</ele><time>2026-08-11T15:32:23Z</time></trkpt>
<trkpt lat="34.857975" lon="134.133552"><ele>91.42</ele><time>2026-08-11T15:32:27Z</time></trkpt>
<trkpt lat="34.857955" lon="134.13349"><ele>91.49</ele><time>2026-08-11T15:32:29Z</time></trkpt>
<trkpt lat="34.857885" lon="134.133284"><ele>91.92</ele><time>2026-08-11T15:32:36Z</time></trkpt>
<trkpt lat="34.857794" lon="134.133079"><ele>91.79</ele><time>2026-08-11T15:32:43Z</time></trkpt>
<trkpt lat="34.857724" lon="134.132977"><ele>91.97</ele><time>2026-08-11T15:32:47Z</time></trkpt>
<trkpt lat="34.857594" lon="134.132804"><ele>92.02</ele><time>2026-08-11T15:32:54Z</time></trkpt>
<trkpt lat="34.857544" lon="134.132737"><ele>91.81</ele><time>2026-08-11T15:32:57Z</time></trkpt>
<trkpt lat="34.857485" lon="134.13262"><ele>92.57</ele><time>2026-08-11T15:33:01Z</time></trkpt>
<trkpt lat="34.857439" lon="134.132536"><ele>91.55</ele><time>2026-08-11T15:33:04Z</time></trkpt>
<trkpt lat="34.857432" lon="134.132505"><ele>91.74</ele><time>2026-08-11T15:33:05Z</time></trkpt>
<trkpt lat="34.857417" lon="134.132397"><ele>91.62</ele><time>2026-08-11T15:33:08Z</time></trkpt>
<trkpt lat="34.857411" lon="134.13236"><ele>90.86</ele><time>2026-08-11T15:33:09Z</time></trkpt>
<trkpt lat="34.857398" lon="134.13218"><ele>91.45</ele><time>2026-08-11T15:33:14Z</time></trkpt>
<trkpt lat="34.857391" lon="134.132109"><ele>91.74</ele><time>2026-08-11T15:33:16Z</time></trkpt>
<trkpt lat="34.857383" lon="134.132074"><ele>91.72</ele><time>2026-08-11T15:33:17Z</time></trkpt>
<trkpt lat="34.857327" lon="134.131869"><ele>89.28</ele><time>2026-08-11T15:33:23Z</time></trkpt>
<trkpt lat="34.857259" lon="134.131666"><ele>88.25</ele><time>2026-08-11T15:33:29Z</time></trkpt>
<trkpt lat="34.857167" lon="134.131468"><ele>86.74</ele><time>2026-08-11T15:33:35Z</time></trkpt>
<trkpt lat="34.857114" lon="134.13137"><ele>85.83</ele><time>2026-08-11T15:33:38Z</time></trkpt>
<trkpt lat="34.857095" lon="134.131338"><ele>85.66</ele><time>2026-08-11T15:33:39Z</time></trkpt>
<trkpt lat="34.857053" lon="134.131244"><ele>84.52</ele><time>2026-08-11T15:33:42Z</time></trkpt>
<trkpt lat="34.857018" lon="134.131185"><ele>83.34</ele><time>2026-08-11T15:33:44Z</time></trkpt>
<trkpt lat="34.856998" lon="134.131154"><ele>83.3</ele><time>2026-08-11T15:33:45Z</time></trkpt>
<trkpt lat="34.856981" lon="134.131121"><ele>82.62</ele><time>2026-08-11T15:33:46Z</time></trkpt>
<trkpt lat="34.856966" lon="134.131092"><ele>83.61</ele><time>2026-08-11T15:33:47Z</time></trkpt>
<trkpt lat="34.856935" lon="134.13103"><ele>82.87</ele><time>2026-08-11T15:33:49Z</time></trkpt>
<trkpt lat="34.856844" lon="134.130839"><ele>81.55</ele><time>2026-08-11T15:33:55Z</time></trkpt>
<trkpt lat="34.85679" lon="134.13071"><ele>81.17</ele><time>2026-08-11T15:33:59Z</time></trkpt>
<trkpt lat="34.856725" lon="134.1305"><ele>80.03</ele><time>2026-08-11T15:34:05Z</time></trkpt>
<trkpt lat="34.85672" lon="134.130462"><ele>79.67</ele><time>2026-08-11T15:34:06Z</time></trkpt>
<trkpt lat="34.856706" lon="134.130242"><ele>78.46</ele><time>2026-08-11T15:34:12Z</time></trkpt>
<trkpt lat="34.856707" lon="134.130205"><ele>78.01</ele><time>2026-08-11T15:34:13Z</time></trkpt>
<trkpt lat="34.856709" lon="134.130169"><ele>78.5</ele><time>2026-08-11T15:34:14Z</time></trkpt>
<trkpt lat="34.856714" lon="134.130132"><ele>78.18</ele><time>2026-08-11T15:34:15Z</time></trkpt>
<trkpt lat="34.856705" lon="134.129908"><ele>77.31</ele><time>2026-08-11T15:34:21Z</time></trkpt>
<trkpt lat="34.856698" lon="134.129877"><ele>77.74</ele><time>2026-08-11T15:34:22Z</time></trkpt>
<trkpt lat="34.856687" lon="134.129767"><ele>77.6</ele><time>2026-08-11T15:34:25Z</time></trkpt>
<trkpt lat="34.85669" lon="134.129648"><ele>77.17</ele><time>2026-08-11T15:34:28Z</time></trkpt>
<trkpt lat="34.856691" lon="134.12961"><ele>77.0</ele><time>2026-08-11T15:34:29Z</time></trkpt>
<trkpt lat="34.856697" lon="134.129377"><ele>75.83</ele><time>2026-08-11T15:34:35Z</time></trkpt>
<trkpt lat="34.856699" lon="134.129306"><ele>75.41</ele><time>2026-08-11T15:34:37Z</time></trkpt>
<trkpt lat="34.856681" lon="134.129192"><ele>74.88</ele><time>2026-08-11T15:34:40Z</time></trkpt>
<trkpt lat="34.856656" lon="134.129042"><ele>74.06</ele><time>2026-08-11T15:34:44Z</time></trkpt>
<trkpt lat="34.856642" lon="134.128969"><ele>73.85</ele><time>2026-08-11T15:34:46Z</time></trkpt>
<trkpt lat="34.85659" lon="134.128742"><ele>72.78</ele><time>2026-08-11T15:34:52Z</time></trkpt>
<trkpt lat="34.856581" lon="134.128706"><ele>72.68</ele><time>2026-08-11T15:34:53Z</time></trkpt>
<trkpt lat="34.856536" lon="134.128534"><ele>71.93</ele><time>2026-08-11T15:34:58Z</time></trkpt>
<trkpt lat="34.856495" lon="134.128349"><ele>69.98</ele><time>2026-08-11T15:35:03Z</time></trkpt>
<trkpt lat="34.856488" lon="134.128311"><ele>70.16</ele><time>2026-08-11T15:35:04Z</time></trkpt>
<trkpt lat="34.856431" lon="134.128129"><ele>69.72</ele><time>2026-08-11T15:35:09Z</time></trkpt>
<trkpt lat="34.856394" lon="134.128026"><ele>69.35</ele><time>2026-08-11T15:35:12Z</time></trkpt>
<trkpt lat="34.856341" lon="134.127904"><ele>69.03</ele><time>2026-08-11T15:35:16Z</time></trkpt>
<trkpt lat="34.856305" lon="134.127814"><ele>68.98</ele><time>2026-08-11T15:35:19Z</time></trkpt>
<trkpt lat="34.856289" lon="134.12775"><ele>68.99</ele><time>2026-08-11T15:35:21Z</time></trkpt>
<trkpt lat="34.856276" lon="134.127649"><ele>69.13</ele><time>2026-08-11T15:35:24Z</time></trkpt>
<trkpt lat="34.856251" lon="134.127474"><ele>69.0</ele><time>2026-08-11T15:35:29Z</time></trkpt>
<trkpt lat="34.856182" lon="134.127243"><ele>68.15</ele><time>2026-08-11T15:35:36Z</time></trkpt>
<trkpt lat="34.856167" lon="134.127213"><ele>67.66</ele><time>2026-08-11T15:35:37Z</time></trkpt>
<trkpt lat="34.856153" lon="134.127181"><ele>68.18</ele><time>2026-08-11T15:35:38Z</time></trkpt>
<trkpt lat="34.856063" lon="134.12699"><ele>66.4</ele><time>2026-08-11T15:35:44Z</time></trkpt>
<trkpt lat="34.856034" lon="134.126924"><ele>66.61</ele><time>2026-08-11T15:35:46Z</time></trkpt>
<trkpt lat="34.856024" lon="134.126894"><ele>66.61</ele><time>2026-08-11T15:35:47Z</time></trkpt>
<trkpt lat="34.85595" lon="134.126662"><ele>65.35</ele><time>2026-08-11T15:35:54Z</time></trkpt>
<trkpt lat="34.855941" lon="134.126624"><ele>65.31</ele><time>2026-08-11T15:35:55Z</time></trkpt>
<trkpt lat="34.855935" lon="134.126588"><ele>65.31</ele><time>2026-08-11T15:35:56Z</time></trkpt>
<trkpt lat="34.855926" lon="134.126552"><ele>65.11</ele><time>2026-08-11T15:35:57Z</time></trkpt>
<trkpt lat="34.85587" lon="134.126341"><ele>64.78</ele><time>2026-08-11T15:36:03Z</time></trkpt>
<trkpt lat="34.855859" lon="134.126306"><ele>64.53</ele><time>2026-08-11T15:36:04Z</time></trkpt>
<trkpt lat="34.855846" lon="134.126088"><ele>63.76</ele><time>2026-08-11T15:36:10Z</time></trkpt>
<trkpt lat="34.85585" lon="134.126055"><ele>63.75</ele><time>2026-08-11T15:36:11Z</time></trkpt>
<trkpt lat="34.855872" lon="134.125858"><ele>63.99</ele><time>2026-08-11T15:36:17Z</time></trkpt>
<trkpt lat="34.855876" lon="134.125821"><ele>64.0</ele><time>2026-08-11T15:36:18Z</time></trkpt>
<trkpt lat="34.855859" lon="134.125574"><ele>63.54</ele><time>2026-08-11T15:36:25Z</time></trkpt>
<trkpt lat="34.855842" lon="134.125513"><ele>63.84</ele><time>2026-08-11T15:36:27Z</time></trkpt>
<trkpt lat="34.855766" lon="134.12537"><ele>64.0</ele><time>2026-08-11T15:36:32Z</time></trkpt>
<trkpt lat="34.855708" lon="134.12529"><ele>63.64</ele><time>2026-08-11T15:36:35Z</time></trkpt>
<trkpt lat="34.855577" lon="134.125121"><ele>63.49</ele><time>2026-08-11T15:36:42Z</time></trkpt>
<trkpt lat="34.855548" lon="134.125071"><ele>63.81</ele><time>2026-08-11T15:36:44Z</time></trkpt>
<trkpt lat="34.855493" lon="134.124996"><ele>63.74</ele><time>2026-08-11T15:36:47Z</time></trkpt>
<trkpt lat="34.855367" lon="134.124813"><ele>63.47</ele><time>2026-08-11T15:36:54Z</time></trkpt>
<trkpt lat="34.85526" lon="134.124625"><ele>62.84</ele><time>2026-08-11T15:37:01Z</time></trkpt>
<trkpt lat="34.855219" lon="134.12453"><ele>62.93</ele><time>2026-08-11T15:37:04Z</time></trkpt>
<trkpt lat="34.855177" lon="134.124407"><ele>63.47</ele><time>2026-08-11T15:37:08Z</time></trkpt>
<trkpt lat="34.855142" lon="134.124319"><ele>63.21</ele><time>2026-08-11T15:37:11Z</time></trkpt>
<trkpt lat="34.855078" lon="134.124107"><ele>63.52</ele><time>2026-08-11T15:37:18Z</time></trkpt>
<trkpt lat="34.855058" lon="134.124046"><ele>63.91</ele><time>2026-08-11T15:37:20Z</time></trkpt>
<trkpt lat="34.854982" lon="134.123835"><ele>64.06</ele><time>2026-08-11T15:37:27Z</time></trkpt>
<trkpt lat="34.854932" lon="134.123666"><ele>63.77</ele><time>2026-08-11T15:37:32Z</time></trkpt>
<trkpt lat="34.85484" lon="134.123445"><ele>62.01</ele><time>2026-08-11T15:37:39Z</time></trkpt>
<trkpt lat="34.854825" lon="134.123413"><ele>62.01</ele><time>2026-08-11T15:37:40Z</time></trkpt>
<trkpt lat="34.854794" lon="134.123355"><ele>61.4</ele><time>2026-08-11T15:37:42Z</time></trkpt>
<trkpt lat="34.854716" lon="134.123194"><ele>60.86</ele><time>2026-08-11T15:37:47Z</time></trkpt>
<trkpt lat="34.854697" lon="134.123126"><ele>60.42</ele><time>2026-08-11T15:37:49Z</time></trkpt>
<trkpt lat="34.854638" lon="134.122915"><ele>59.46</ele><time>2026-08-11T15:37:55Z</time></trkpt>
<trkpt lat="34.854592" lon="134.122736"><ele>57.9</ele><time>2026-08-11T15:38:00Z</time></trkpt>
<trkpt lat="34.854547" lon="134.12251"><ele>57.21</ele><time>2026-08-11T15:38:06Z</time></trkpt>
<trkpt lat="34.854519" lon="134.122359"><ele>55.64</ele><time>2026-08-11T15:38:10Z</time></trkpt>
<trkpt lat="34.854487" lon="134.122116"><ele>53.9</ele><time>2026-08-11T15:38:17Z</time></trkpt>
<trkpt lat="34.854482" lon="134.122079"><ele>53.84</ele><time>2026-08-11T15:38:18Z</time></trkpt>
<trkpt lat="34.85446" lon="134.121934"><ele>53.94</ele><time>2026-08-11T15:38:22Z</time></trkpt>
<trkpt lat="34.854417" lon="134.121836"><ele>52.75</ele><time>2026-08-11T15:38:25Z</time></trkpt>
<trkpt lat="34.8544" lon="134.121805"><ele>52.92</ele><time>2026-08-11T15:38:26Z</time></trkpt>
<trkpt lat="34.854358" lon="134.121748"><ele>52.5</ele><time>2026-08-11T15:38:28Z</time></trkpt>
<trkpt lat="34.854265" lon="134.121633"><ele>51.58</ele><time>2026-08-11T15:38:32Z</time></trkpt>
<trkpt lat="34.854241" lon="134.121607"><ele>51.36</ele><time>2026-08-11T15:38:33Z</time></trkpt>
<trkpt lat="34.854151" lon="134.121505"><ele>50.75</ele><time>2026-08-11T15:38:37Z</time></trkpt>
<trkpt lat="34.854059" lon="134.121352"><ele>49.07</ele><time>2026-08-11T15:38:42Z</time></trkpt>
<trkpt lat="34.854001" lon="134.121219"><ele>49.56</ele><time>2026-08-11T15:38:46Z</time></trkpt>
<trkpt lat="34.85395" lon="134.12108"><ele>48.35</ele><time>2026-08-11T15:38:50Z</time></trkpt>
<trkpt lat="34.853857" lon="134.120893"><ele>47.57</ele><time>2026-08-11T15:38:56Z</time></trkpt>
<trkpt lat="34.853794" lon="134.120812"><ele>46.61</ele><time>2026-08-11T15:38:59Z</time></trkpt>
<trkpt lat="34.853774" lon="134.120786"><ele>45.85</ele><time>2026-08-11T15:39:00Z</time></trkpt>
<trkpt lat="34.853751" lon="134.12076"><ele>45.85</ele><time>2026-08-11T15:39:01Z</time></trkpt>
<trkpt lat="34.853682" lon="134.120686"><ele>45.11</ele><time>2026-08-11T15:39:04Z</time></trkpt>
<trkpt lat="34.853527" lon="134.120561"><ele>43.22</ele><time>2026-08-11T15:39:10Z</time></trkpt>
<trkpt lat="34.853404" lon="134.12044"><ele>42.77</ele><time>2026-08-11T15:39:15Z</time></trkpt>
<trkpt lat="34.853272" lon="134.120279"><ele>40.18</ele><time>2026-08-11T15:39:21Z</time></trkpt>
<trkpt lat="34.853212" lon="134.120191"><ele>39.2</ele><time>2026-08-11T15:39:24Z</time></trkpt>
<trkpt lat="34.853194" lon="134.12016"><ele>39.2</ele><time>2026-08-11T15:39:25Z</time></trkpt>
<trkpt lat="34.853097" lon="134.120026"><ele>39.27</ele><time>2026-08-11T15:39:30Z</time></trkpt>
<trkpt lat="34.853078" lon="134.120001"><ele>39.63</ele><time>2026-08-11T15:39:31Z</time></trkpt>
<trkpt lat="34.853018" lon="134.119929"><ele>40.22</ele><time>2026-08-11T15:39:34Z</time></trkpt>
<trkpt lat="34.852979" lon="134.119883"><ele>40.4</ele><time>2026-08-11T15:39:36Z</time></trkpt>
<trkpt lat="34.852842" lon="134.119694"><ele>40.06</ele><time>2026-08-11T15:39:43Z</time></trkpt>
<trkpt lat="34.852825" lon="134.119666"><ele>40.01</ele><time>2026-08-11T15:39:44Z</time></trkpt>
<trkpt lat="34.852771" lon="134.119592"><ele>39.83</ele><time>2026-08-11T15:39:47Z</time></trkpt>
<trkpt lat="34.852634" lon="134.119416"><ele>40.09</ele><time>2026-08-11T15:39:54Z</time></trkpt>
<trkpt lat="34.852554" lon="134.11932"><ele>39.79</ele><time>2026-08-11T15:39:58Z</time></trkpt>
<trkpt lat="34.852456" lon="134.119195"><ele>40.74</ele><time>2026-08-11T15:40:03Z</time></trkpt>
<trkpt lat="34.852393" lon="134.119113"><ele>40.45</ele><time>2026-08-11T15:40:06Z</time></trkpt>
<trkpt lat="34.852309" lon="134.119031"><ele>40.02</ele><time>2026-08-11T15:40:10Z</time></trkpt>
<trkpt lat="34.852166" lon="134.118932"><ele>39.8</ele><time>2026-08-11T15:40:16Z</time></trkpt>
<trkpt lat="34.852142" lon="134.118916"><ele>40.59</ele><time>2026-08-11T15:40:17Z</time></trkpt>
<trkpt lat="34.851994" lon="134.118821"><ele>43.36</ele><time>2026-08-11T15:40:23Z</time></trkpt>
<trkpt lat="34.851844" lon="134.118693"><ele>42.22</ele><time>2026-08-11T15:40:29Z</time></trkpt>
<trkpt lat="34.851819" lon="134.118674"><ele>40.35</ele><time>2026-08-11T15:40:30Z</time></trkpt>
<trkpt lat="34.851795" lon="134.118651"><ele>42.52</ele><time>2026-08-11T15:40:31Z</time></trkpt>
<trkpt lat="34.851729" lon="134.118587"><ele>40.44</ele><time>2026-08-11T15:40:34Z</time></trkpt>
<trkpt lat="34.851611" lon="134.118442"><ele>38.2</ele><time>2026-08-11T15:40:40Z</time></trkpt>
<trkpt lat="34.851573" lon="134.118393"><ele>38.29</ele><time>2026-08-11T15:40:42Z</time></trkpt>
<trkpt lat="34.851435" lon="134.118226"><ele>42.72</ele><time>2026-08-11T15:40:49Z</time></trkpt>
<trkpt lat="34.851395" lon="134.118165"><ele>39.63</ele><time>2026-08-11T15:40:51Z</time></trkpt>
<trkpt lat="34.851264" lon="134.117974"><ele>40.77</ele><time>2026-08-11T15:40:58Z</time></trkpt>
<trkpt lat="34.851236" lon="134.117916"><ele>38.14</ele><time>2026-08-11T15:41:00Z</time></trkpt>
<trkpt lat="34.851103" lon="134.11773"><ele>38.58</ele><time>2026-08-11T15:41:07Z</time></trkpt>
<trkpt lat="34.850973" lon="134.117591"><ele>37.41</ele><time>2026-08-11T15:41:13Z</time></trkpt>
<trkpt lat="34.850927" lon="134.11755"><ele>39.79</ele><time>2026-08-11T15:41:15Z</time></trkpt>
<trkpt lat="34.850784" lon="134.117444"><ele>36.12</ele><time>2026-08-11T15:41:21Z</time></trkpt>
<trkpt lat="34.850736" lon="134.117405"><ele>36.75</ele><time>2026-08-11T15:41:23Z</time></trkpt>
<trkpt lat="34.85064" lon="134.117318"><ele>33.94</ele><time>2026-08-11T15:41:27Z</time></trkpt>
<trkpt lat="34.850615" lon="134.117321"><ele>33.94</ele><time>2026-08-11T15:41:28Z</time></trkpt>
<trkpt lat="34.850529" lon="134.11734"><ele>33.38</ele><time>2026-08-11T15:41:31Z</time></trkpt>
<trkpt lat="34.850407" lon="134.117477"><ele>33.55</ele><time>2026-08-12T00:41:40Z</time></trkpt>
<trkpt lat="34.850405" lon="134.117484"><ele>33.55</ele><time>2026-08-12T00:41:46Z</time></trkpt>
<trkpt lat="34.850518" lon="134.117349"><ele>33.38</ele><time>2026-08-12T00:41:50Z</time></trkpt>
<trkpt lat="34.850394" lon="134.117491"><ele>33.44</ele><time>2026-08-12T00:41:51Z</time></trkpt>
<trkpt lat="34.850383" lon="134.117487"><ele>32.92</ele><time>2026-08-12T00:41:58Z</time></trkpt>
<trkpt lat="34.850384" lon="134.117488"><ele>32.92</ele><time>2026-08-12T00:41:59Z</time></trkpt>
<trkpt lat="34.850371" lon="134.117485"><ele>32.92</ele><time>2026-08-12T00:42:05Z</time></trkpt>
<trkpt lat="34.850363" lon="134.117476"><ele>32.61</ele><time>2026-08-12T00:42:07Z</time></trkpt>
<trkpt lat="34.850361" lon="134.117459"><ele>32.61</ele><time>2026-08-12T00:42:10Z</time></trkpt>
<trkpt lat="34.850371" lon="134.117452"><ele>32.92</ele><time>2026-08-12T00:42:12Z</time></trkpt>
<trkpt lat="34.850375" lon="134.117448"><ele>32.92</ele><time>2026-08-12T00:42:14Z</time></trkpt>
<trkpt lat="34.850363" lon="134.117451"><ele>32.61</ele><time>2026-08-12T00:42:16Z</time></trkpt>
<trkpt lat="34.850337" lon="134.117476"><ele>32.61</ele><time>2026-08-12T00:42:18Z</time></trkpt>
<trkpt lat="34.850293" lon="134.11755"><ele>32.83</ele><time>2026-08-12T00:42:21Z</time></trkpt>
<trkpt lat="34.850247" lon="134.117627"><ele>33.19</ele><time>2026-08-12T00:42:24Z</time></trkpt>
<trkpt lat="34.850186" lon="134.11768"><ele>33.21</ele><time>2026-08-12T00:42:27Z</time></trkpt>
<trkpt lat="34.85018" lon="134.117709"><ele>33.35</ele><time>2026-08-12T00:42:28Z</time></trkpt>
<trkpt lat="34.850189" lon="134.117752"><ele>33.53</ele><time>2026-08-12T00:42:30Z</time></trkpt>
<trkpt lat="34.850214" lon="134.117758"><ele>33.82</ele><time>2026-08-12T00:42:32Z</time></trkpt>
<trkpt lat="34.850254" lon="134.11775"><ele>34.28</ele><time>2026-08-12T00:42:34Z</time></trkpt>
<trkpt lat="34.850277" lon="134.117778"><ele>34.6</ele><time>2026-08-12T00:42:36Z</time></trkpt>
<trkpt lat="34.850285" lon="134.11779"><ele>34.84</ele><time>2026-08-12T00:42:38Z</time></trkpt>
<trkpt lat="34.850291" lon="134.117787"><ele>34.6</ele><time>2026-08-12T00:42:39Z</time></trkpt>
<trkpt lat="34.850296" lon="134.117774"><ele>34.6</ele><time>2026-08-12T00:42:40Z</time></trkpt>
<trkpt lat="34.850338" lon="134.117725"><ele>35.49</ele><time>2026-08-12T00:42:43Z</time></trkpt>
<trkpt lat="34.850398" lon="134.117584"><ele>35.19</ele><time>2026-08-12T00:42:49Z</time></trkpt>
<trkpt lat="34.850441" lon="134.117553"><ele>38.15</ele><time>2026-08-12T00:42:53Z</time></trkpt>
<trkpt lat="34.850457" lon="134.117557"><ele>38.15</ele><time>2026-08-12T00:42:57Z</time></trkpt>
<trkpt lat="34.850475" lon="134.117542"><ele>40.56</ele><time>2026-08-12T00:43:01Z</time></trkpt>
<trkpt lat="34.850489" lon="134.117537"><ele>40.56</ele><time>2026-08-12T00:43:03Z</time></trkpt>
<trkpt lat="34.850494" lon="134.117541"><ele>40.56</ele><time>2026-08-12T00:43:05Z</time></trkpt>
<trkpt lat="34.850501" lon="134.117562"><ele>40.56</ele><time>2026-08-12T00:43:09Z</time></trkpt>
<trkpt lat="34.850506" lon="134.117569"><ele>40.56</ele><time>2026-08-12T00:43:10Z</time></trkpt>
<trkpt lat="34.850509" lon="134.117594"><ele>44.19</ele><time>2026-08-12T00:43:15Z</time></trkpt>
<trkpt lat="34.850508" lon="134.117614"><ele>41.69</ele><time>2026-08-12T00:43:18Z</time></trkpt>
<trkpt lat="34.850509" lon="134.117622"><ele>45.16</ele><time>2026-08-12T00:43:19Z</time></trkpt>
<trkpt lat="34.850517" lon="134.117638"><ele>45.16</ele><time>2026-08-12T00:43:23Z</time></trkpt>
<trkpt lat="34.850524" lon="134.117635"><ele>45.16</ele><time>2026-08-12T00:43:25Z</time></trkpt>
<trkpt lat="34.850527" lon="134.117625"><ele>45.16</ele><time>2026-08-12T00:43:27Z</time></trkpt>
<trkpt lat="34.850536" lon="134.117625"><ele>45.16</ele><time>2026-08-12T00:43:30Z</time></trkpt>
<trkpt lat="34.850561" lon="134.117622"><ele>47.37</ele><time>2026-08-12T00:43:35Z</time></trkpt>
<trkpt lat="34.850559" lon="134.117619"><ele>47.37</ele><time>2026-08-12T00:43:36Z</time></trkpt>
<trkpt lat="34.850569" lon="134.117596"><ele>45.77</ele><time>2026-08-12T00:43:41Z</time></trkpt>
<trkpt lat="34.85058" lon="134.117581"><ele>47.66</ele><time>2026-08-12T00:43:44Z</time></trkpt>
<trkpt lat="34.850589" lon="134.117585"><ele>47.66</ele><time>2026-08-12T00:43:46Z</time></trkpt>
<trkpt lat="34.850605" lon="134.117622"><ele>49.8</ele><time>2026-08-12T00:43:50Z</time></trkpt>
<trkpt lat="34.850608" lon="134.117624"><ele>49.8</ele><time>2026-08-12T00:43:51Z</time></trkpt>
<trkpt lat="34.850622" lon="134.117621"><ele>52.61</ele><time>2026-08-12T00:43:54Z</time></trkpt>
<trkpt lat="34.850622" lon="134.11762"><ele>52.61</ele><time>2026-08-12T00:43:55Z</time></trkpt>
<trkpt lat="34.850636" lon="134.117618"><ele>52.61</ele><time>2026-08-12T00:43:58Z</time></trkpt>
<trkpt lat="34.850638" lon="134.117612"><ele>50.11</ele><time>2026-08-12T00:43:59Z</time></trkpt>
<trkpt lat="34.850653" lon="134.117596"><ele>51.08</ele><time>2026-08-12T00:44:03Z</time></trkpt>
<trkpt lat="34.850661" lon="134.117593"><ele>51.08</ele><time>2026-08-12T00:44:06Z</time></trkpt>
<trkpt lat="34.850665" lon="134.117596"><ele>51.08</ele><time>2026-08-12T00:44:08Z</time></trkpt>
<trkpt lat="34.850675" lon="134.11761"><ele>51.08</ele><time>2026-08-12T00:44:13Z</time></trkpt>
<trkpt lat="34.850674" lon="134.117619"><ele>54.14</ele><time>2026-08-12T00:44:14Z</time></trkpt>
<trkpt lat="34.850682" lon="134.117627"><ele>54.14</ele><time>2026-08-12T00:44:17Z</time></trkpt>
<trkpt lat="34.850686" lon="134.117629"><ele>54.96</ele><time>2026-08-12T00:44:18Z</time></trkpt>
<trkpt lat="34.850688" lon="134.117628"><ele>54.96</ele><time>2026-08-12T00:44:19Z</time></trkpt>
<trkpt lat="34.850698" lon="134.117638"><ele>54.96</ele><time>2026-08-12T00:44:23Z</time></trkpt>
<trkpt lat="34.850708" lon="134.11764"><ele>54.96</ele><time>2026-08-12T00:44:24Z</time></trkpt>
<trkpt lat="34.85074" lon="134.117659"><ele>54.41</ele><time>2026-08-12T00:44:28Z</time></trkpt>
<trkpt lat="34.850754" lon="134.117664"><ele>58.08</ele><time>2026-08-12T00:44:31Z</time></trkpt>
<trkpt lat="34.85077" lon="134.117685"><ele>57.45</ele><time>2026-08-12T00:44:34Z</time></trkpt>
<trkpt lat="34.850796" lon="134.117709"><ele>59.61</ele><time>2026-08-12T00:44:38Z</time></trkpt>
<trkpt lat="34.850817" lon="134.117743"><ele>59.61</ele><time>2026-08-12T00:44:42Z</time></trkpt>
<trkpt lat="34.850822" lon="134.117753"><ele>62.61</ele><time>2026-08-12T00:44:45Z</time></trkpt>
<trkpt lat="34.850823" lon="134.117758"><ele>62.61</ele><time>2026-08-12T00:44:46Z</time></trkpt>
<trkpt lat="34.850828" lon="134.117778"><ele>60.76</ele><time>2026-08-12T00:44:50Z</time></trkpt>
<trkpt lat="34.850838" lon="134.117798"><ele>63.61</ele><time>2026-08-12T00:44:53Z</time></trkpt>
<trkpt lat="34.850841" lon="134.117807"><ele>63.61</ele><time>2026-08-12T00:44:54Z</time></trkpt>
<trkpt lat="34.85082" lon="134.117821"><ele>65.41</ele><time>2026-08-12T00:44:57Z</time></trkpt>
<trkpt lat="34.850814" lon="134.117823"><ele>65.41</ele><time>2026-08-12T00:44:58Z</time></trkpt>
<trkpt lat="34.850807" lon="134.11783"><ele>65.41</ele><time>2026-08-12T00:45:00Z</time></trkpt>
<trkpt lat="34.850814" lon="134.117833"><ele>68.51</ele><time>2026-08-12T00:45:04Z</time></trkpt>
<trkpt lat="34.850823" lon="134.11784"><ele>68.51</ele><time>2026-08-12T00:45:05Z</time></trkpt>
<trkpt lat="34.850826" lon="134.117867"><ele>66.19</ele><time>2026-08-12T00:45:08Z</time></trkpt>
<trkpt lat="34.850821" lon="134.117901"><ele>70.74</ele><time>2026-08-12T00:45:14Z</time></trkpt>
<trkpt lat="34.850821" lon="134.117918"><ele>70.74</ele><time>2026-08-12T00:45:15Z</time></trkpt>
<trkpt lat="34.850828" lon="134.117951"><ele>70.86</ele><time>2026-08-12T00:45:21Z</time></trkpt>
<trkpt lat="34.850826" lon="134.117961"><ele>73.46</ele><time>2026-08-12T00:45:23Z</time></trkpt>
<trkpt lat="34.850819" lon="134.117966"><ele>75.79</ele><time>2026-08-12T00:45:25Z</time></trkpt>
<trkpt lat="34.850809" lon="134.117978"><ele>75.79</ele><time>2026-08-12T00:45:28Z</time></trkpt>
<trkpt lat="34.850809" lon="134.117981"><ele>75.79</ele><time>2026-08-12T00:45:30Z</time></trkpt>
<trkpt lat="34.850807" lon="134.117984"><ele>75.79</ele><time>2026-08-12T00:45:31Z</time></trkpt>
<trkpt lat="34.850804" lon="134.117994"><ele>75.79</ele><time>2026-08-12T00:45:34Z</time></trkpt>
<trkpt lat="34.850794" lon="134.118022"><ele>78.6</ele><time>2026-08-12T00:45:39Z</time></trkpt>
<trkpt lat="34.850794" lon="134.118033"><ele>78.6</ele><time>2026-08-12T00:45:41Z</time></trkpt>
<trkpt lat="34.850796" lon="134.118046"><ele>78.6</ele><time>2026-08-12T00:45:44Z</time></trkpt>
<trkpt lat="34.8508" lon="134.118071"><ele>80.97</ele><time>2026-08-12T00:45:49Z</time></trkpt>
<trkpt lat="34.850802" lon="134.118078"><ele>80.97</ele><time>2026-08-12T00:45:51Z</time></trkpt>
<trkpt lat="34.8508" lon="134.118082"><ele>80.97</ele><time>2026-08-12T00:45:52Z</time></trkpt>
<trkpt lat="34.850784" lon="134.118109"><ele>82.6</ele><time>2026-08-12T00:45:58Z</time></trkpt>
<trkpt lat="34.850807" lon="134.118157"><ele>85.14</ele><time>2026-08-12T00:46:06Z</time></trkpt>
<trkpt lat="34.850814" lon="134.118172"><ele>85.14</ele><time>2026-08-12T00:46:09Z</time></trkpt>
<trkpt lat="34.850815" lon="134.118184"><ele>87.01</ele><time>2026-08-12T00:46:12Z</time></trkpt>
<trkpt lat="34.850818" lon="134.118189"><ele>87.01</ele><time>2026-08-12T00:46:13Z</time></trkpt>
<trkpt lat="34.850827" lon="134.118215"><ele>85.62</ele><time>2026-08-12T00:46:18Z</time></trkpt>
<trkpt lat="34.850829" lon="134.118223"><ele>87.81</ele><time>2026-08-12T00:46:19Z</time></trkpt>
<trkpt lat="34.850833" lon="134.118245"><ele>87.81</ele><time>2026-08-12T00:46:21Z</time></trkpt>
<trkpt lat="34.850838" lon="134.11826"><ele>87.81</ele><time>2026-08-12T00:46:26Z</time></trkpt>
<trkpt lat="34.850842" lon="134.118266"><ele>89.95</ele><time>2026-08-12T00:46:27Z</time></trkpt>
<trkpt lat="34.850842" lon="134.118272"><ele>89.95</ele><time>2026-08-12T00:46:29Z</time></trkpt>
<trkpt lat="34.850844" lon="134.118277"><ele>89.95</ele><time>2026-08-12T00:46:31Z</time></trkpt>
<trkpt lat="34.850845" lon="134.118284"><ele>89.95</ele><time>2026-08-12T00:46:34Z</time></trkpt>
<trkpt lat="34.850863" lon="134.118306"><ele>90.91</ele><time>2026-08-12T00:46:40Z</time></trkpt>
<trkpt lat="34.850863" lon="134.118315"><ele>90.91</ele><time>2026-08-12T00:46:41Z</time></trkpt>
<trkpt lat="34.850868" lon="134.118334"><ele>90.91</ele><time>2026-08-12T00:46:44Z</time></trkpt>
<trkpt lat="34.850867" lon="134.118347"><ele>90.91</ele><time>2026-08-12T00:46:47Z</time></trkpt>
<trkpt lat="34.850868" lon="134.118354"><ele>93.2</ele><time>2026-08-12T00:46:48Z</time></trkpt>
<trkpt lat="34.85087" lon="134.11836"><ele>93.2</ele><time>2026-08-12T00:46:49Z</time></trkpt>
<trkpt lat="34.850884" lon="134.118382"><ele>93.2</ele><time>2026-08-12T00:46:53Z</time></trkpt>
<trkpt lat="34.850885" lon="134.118403"><ele>95.4</ele><time>2026-08-12T00:46:56Z</time></trkpt>
<trkpt lat="34.850884" lon="134.118409"><ele>95.4</ele><time>2026-08-12T00:46:57Z</time></trkpt>
<trkpt lat="34.850883" lon="134.118421"><ele>95.4</ele><time>2026-08-12T00:47:00Z</time></trkpt>
<trkpt lat="34.850882" lon="134.118428"><ele>95.4</ele><time>2026-08-12T00:47:01Z</time></trkpt>
<trkpt lat="34.850882" lon="134.11843"><ele>95.4</ele><time>2026-08-12T00:47:02Z</time></trkpt>
<trkpt lat="34.850889" lon="134.118439"><ele>97.41</ele><time>2026-08-12T00:47:04Z</time></trkpt>
<trkpt lat="34.850893" lon="134.118448"><ele>97.41</ele><time>2026-08-12T00:47:05Z</time></trkpt>
<trkpt lat="34.850893" lon="134.118459"><ele>97.41</ele><time>2026-08-12T00:47:08Z</time></trkpt>
<trkpt lat="34.850891" lon="134.118463"><ele>97.41</ele><time>2026-08-12T00:47:09Z</time></trkpt>
<trkpt lat="34.850884" lon="134.118481"><ele>99.68</ele><time>2026-08-12T00:47:13Z</time></trkpt>
<trkpt lat="34.850898" lon="134.118499"><ele>98.52</ele><time>2026-08-12T00:47:17Z</time></trkpt>
<trkpt lat="34.850903" lon="134.118504"><ele>98.52</ele><time>2026-08-12T00:47:18Z</time></trkpt>
<trkpt lat="34.850911" lon="134.118531"><ele>100.69</ele><time>2026-08-12T00:47:23Z</time></trkpt>
<trkpt lat="34.850919" lon="134.118535"><ele>100.69</ele><time>2026-08-12T00:47:24Z</time></trkpt>
<trkpt lat="34.850933" lon="134.118557"><ele>98.45</ele><time>2026-08-12T00:47:27Z</time></trkpt>
<trkpt lat="34.850937" lon="134.118566"><ele>100.4</ele><time>2026-08-12T00:47:29Z</time></trkpt>
<trkpt lat="34.850941" lon="134.118572"><ele>100.4</ele><time>2026-08-12T00:47:31Z</time></trkpt>
<trkpt lat="34.850926" lon="134.118615"><ele>105.07</ele><time>2026-08-12T00:47:36Z</time></trkpt>
<trkpt lat="34.850907" lon="134.118647"><ele>105.07</ele><time>2026-08-12T00:47:41Z</time></trkpt>
<trkpt lat="34.850915" lon="134.118666"><ele>106.99</ele><time>2026-08-12T00:47:44Z</time></trkpt>
<trkpt lat="34.850915" lon="134.118674"><ele>106.99</ele><time>2026-08-12T00:47:45Z</time></trkpt>
<trkpt lat="34.850917" lon="134.118704"><ele>108.54</ele><time>2026-08-12T00:47:49Z</time></trkpt>
<trkpt lat="34.850913" lon="134.118731"><ele>108.54</ele><time>2026-08-12T00:47:53Z</time></trkpt>
<trkpt lat="34.850909" lon="134.118746"><ele>109.84</ele><time>2026-08-12T00:47:56Z</time></trkpt>
<trkpt lat="34.850909" lon="134.118754"><ele>109.84</ele><time>2026-08-12T00:47:58Z</time></trkpt>
<trkpt lat="34.850914" lon="134.118781"><ele>111.47</ele><time>2026-08-12T00:48:01Z</time></trkpt>
<trkpt lat="34.850915" lon="134.118791"><ele>111.47</ele><time>2026-08-12T00:48:02Z</time></trkpt>
<trkpt lat="34.850919" lon="134.118799"><ele>111.47</ele><time>2026-08-12T00:48:03Z</time></trkpt>
<trkpt lat="34.850907" lon="134.118808"><ele>111.47</ele><time>2026-08-12T00:48:06Z</time></trkpt>
<trkpt lat="34.850882" lon="134.118826"><ele>115.86</ele><time>2026-08-12T00:48:08Z</time></trkpt>
<trkpt lat="34.850878" lon="134.118827"><ele>115.86</ele><time>2026-08-12T00:48:09Z</time></trkpt>
<trkpt lat="34.850865" lon="134.118843"><ele>115.86</ele><time>2026-08-12T00:48:14Z</time></trkpt>
<trkpt lat="34.850864" lon="134.118842"><ele>115.86</ele><time>2026-08-12T00:48:15Z</time></trkpt>
<trkpt lat="34.850851" lon="134.118865"><ele>119.29</ele><time>2026-08-12T00:48:19Z</time></trkpt>
<trkpt lat="34.850847" lon="134.118873"><ele>119.29</ele><time>2026-08-12T00:48:21Z</time></trkpt>
<trkpt lat="34.850849" lon="134.118892"><ele>119.29</ele><time>2026-08-12T00:48:23Z</time></trkpt>
<trkpt lat="34.850849" lon="134.11893"><ele>120.69</ele><time>2026-08-12T00:48:29Z</time></trkpt>
<trkpt lat="34.850849" lon="134.118952"><ele>122.15</ele><time>2026-08-12T00:48:34Z</time></trkpt>
<trkpt lat="34.850846" lon="134.118956"><ele>122.15</ele><time>2026-08-12T00:48:35Z</time></trkpt>
<trkpt lat="34.850852" lon="134.118992"><ele>123.69</ele><time>2026-08-12T00:48:39Z</time></trkpt>
<trkpt lat="34.850853" lon="134.11901"><ele>123.69</ele><time>2026-08-12T00:48:43Z</time></trkpt>
<trkpt lat="34.850851" lon="134.119013"><ele>123.69</ele><time>2026-08-12T00:48:44Z</time></trkpt>
<trkpt lat="34.850852" lon="134.119047"><ele>125.11</ele><time>2026-08-12T00:48:48Z</time></trkpt>
<trkpt lat="34.850852" lon="134.11906"><ele>125.11</ele><time>2026-08-12T00:48:50Z</time></trkpt>
<trkpt lat="34.850859" lon="134.119084"><ele>126.82</ele><time>2026-08-12T00:48:54Z</time></trkpt>
<trkpt lat="34.850858" lon="134.119088"><ele>126.82</ele><time>2026-08-12T00:48:56Z</time></trkpt>
<trkpt lat="34.850859" lon="134.119094"><ele>126.82</ele><time>2026-08-12T00:48:58Z</time></trkpt>
<trkpt lat="34.850857" lon="134.119106"><ele>126.82</ele><time>2026-08-12T00:49:02Z</time></trkpt>
<trkpt lat="34.850858" lon="134.119105"><ele>126.82</ele><time>2026-08-12T00:49:03Z</time></trkpt>
<trkpt lat="34.850867" lon="134.119134"><ele>127.08</ele><time>2026-08-12T00:49:08Z</time></trkpt>
<trkpt lat="34.850872" lon="134.119141"><ele>127.08</ele><time>2026-08-12T00:49:11Z</time></trkpt>
<trkpt lat="34.850878" lon="134.119149"><ele>127.08</ele><time>2026-08-12T00:49:12Z</time></trkpt>
<trkpt lat="34.85088" lon="134.119193"><ele>129.79</ele><time>2026-08-12T00:49:16Z</time></trkpt>
<trkpt lat="34.850874" lon="134.119195"><ele>129.79</ele><time>2026-08-12T00:49:18Z</time></trkpt>
<trkpt lat="34.850864" lon="134.119201"><ele>129.79</ele><time>2026-08-12T00:49:20Z</time></trkpt>
<trkpt lat="34.850859" lon="134.119202"><ele>131.85</ele><time>2026-08-12T00:49:22Z</time></trkpt>
<trkpt lat="34.850856" lon="134.119201"><ele>131.85</ele><time>2026-08-12T00:49:23Z</time></trkpt>
<trkpt lat="34.850862" lon="134.119227"><ele>132.23</ele><time>2026-08-12T00:49:29Z</time></trkpt>
<trkpt lat="34.850862" lon="134.119231"><ele>132.23</ele><time>2026-08-12T00:49:30Z</time></trkpt>
<trkpt lat="34.850842" lon="134.119243"><ele>134.39</ele><time>2026-08-12T00:49:33Z</time></trkpt>
<trkpt lat="34.850842" lon="134.119257"><ele>136.93</ele><time>2026-08-12T00:49:37Z</time></trkpt>
<trkpt lat="34.850835" lon="134.119275"><ele>136.93</ele><time>2026-08-12T00:49:41Z</time></trkpt>
<trkpt lat="34.85083" lon="134.119285"><ele>136.93</ele><time>2026-08-12T00:49:44Z</time></trkpt>
<trkpt lat="34.850831" lon="134.119291"><ele>136.93</ele><time>2026-08-12T00:49:45Z</time></trkpt>
<trkpt lat="34.850841" lon="134.119306"><ele>139.49</ele><time>2026-08-12T00:49:49Z</time></trkpt>
<trkpt lat="34.850848" lon="134.119307"><ele>139.49</ele><time>2026-08-12T00:49:50Z</time></trkpt>
<trkpt lat="34.850852" lon="134.119332"><ele>139.49</ele><time>2026-08-12T00:49:53Z</time></trkpt>
<trkpt lat="34.850851" lon="134.119341"><ele>141.99</ele><time>2026-08-12T00:49:56Z</time></trkpt>
<trkpt lat="34.850854" lon="134.119343"><ele>141.99</ele><time>2026-08-12T00:49:57Z</time></trkpt>
<trkpt lat="34.850844" lon="134.119367"><ele>141.99</ele><time>2026-08-12T00:50:01Z</time></trkpt>
<trkpt lat="34.85084" lon="134.119381"><ele>144.01</ele><time>2026-08-12T00:50:03Z</time></trkpt>
<trkpt lat="34.850833" lon="134.119398"><ele>144.01</ele><time>2026-08-12T00:50:06Z</time></trkpt>
<trkpt lat="34.850833" lon="134.119415"><ele>144.01</ele><time>2026-08-12T00:50:10Z</time></trkpt>
<trkpt lat="34.850831" lon="134.119429"><ele>145.83</ele><time>2026-08-12T00:50:12Z</time></trkpt>
<trkpt lat="34.850825" lon="134.119443"><ele>148.19</ele><time>2026-08-12T00:50:15Z</time></trkpt>
<trkpt lat="34.850804" lon="134.119458"><ele>148.19</ele><time>2026-08-12T00:50:19Z</time></trkpt>
<trkpt lat="34.850795" lon="134.119466"><ele>149.57</ele><time>2026-08-12T00:50:21Z</time></trkpt>
<trkpt lat="34.850793" lon="134.119489"><ele>149.57</ele><time>2026-08-12T00:50:24Z</time></trkpt>
<trkpt lat="34.850815" lon="134.119508"><ele>150.46</ele><time>2026-08-12T00:50:28Z</time></trkpt>
<trkpt lat="34.85082" lon="134.11953"><ele>150.46</ele><time>2026-08-12T00:50:31Z</time></trkpt>
<trkpt lat="34.850835" lon="134.119583"><ele>150.32</ele><time>2026-08-12T00:50:36Z</time></trkpt>
<trkpt lat="34.85084" lon="134.119603"><ele>152.04</ele><time>2026-08-12T00:50:38Z</time></trkpt>
<trkpt lat="34.850844" lon="134.119615"><ele>152.04</ele><time>2026-08-12T00:50:39Z</time></trkpt>
<trkpt lat="34.85084" lon="134.11965"><ele>153.87</ele><time>2026-08-12T00:50:43Z</time></trkpt>
<trkpt lat="34.850846" lon="134.119671"><ele>153.87</ele><time>2026-08-12T00:50:47Z</time></trkpt>
<trkpt lat="34.850849" lon="134.119682"><ele>155.77</ele><time>2026-08-12T00:50:50Z</time></trkpt>
<trkpt lat="34.850851" lon="134.119687"><ele>155.77</ele><time>2026-08-12T00:50:52Z</time></trkpt>
<trkpt lat="34.85084" lon="134.119698"><ele>155.77</ele><time>2026-08-12T00:50:55Z</time></trkpt>
<trkpt lat="34.85082" lon="134.119711"><ele>156.63</ele><time>2026-08-12T00:50:58Z</time></trkpt>
<trkpt lat="34.850829" lon="134.119721"><ele>157.69</ele><time>2026-08-12T00:51:03Z</time></trkpt>
<trkpt lat="34.850834" lon="134.119731"><ele>157.69</ele><time>2026-08-12T00:51:05Z</time></trkpt>
<trkpt lat="34.850838" lon="134.119746"><ele>157.69</ele><time>2026-08-12T00:51:07Z</time></trkpt>
<trkpt lat="34.85083" lon="134.119773"><ele>159.7</ele><time>2026-08-12T00:51:11Z</time></trkpt>
<trkpt lat="34.850825" lon="134.119776"><ele>161.82</ele><time>2026-08-12T00:51:12Z</time></trkpt>
<trkpt lat="34.850812" lon="134.119792"><ele>161.82</ele><time>2026-08-12T00:51:15Z</time></trkpt>
<trkpt lat="34.850811" lon="134.119795"><ele>161.82</ele><time>2026-08-12T00:51:17Z</time></trkpt>
<trkpt lat="34.850806" lon="134.119804"><ele>161.82</ele><time>2026-08-12T00:51:19Z</time></trkpt>
<trkpt lat="34.850798" lon="134.119826"><ele>164.4</ele><time>2026-08-12T00:51:23Z</time></trkpt>
<trkpt lat="34.850802" lon="134.119848"><ele>164.4</ele><time>2026-08-12T00:51:28Z</time></trkpt>
<trkpt lat="34.850803" lon="134.119851"><ele>166.63</ele><time>2026-08-12T00:51:29Z</time></trkpt>
<trkpt lat="34.850814" lon="134.119878"><ele>166.63</ele><time>2026-08-12T00:51:34Z</time></trkpt>
<trkpt lat="34.85082" lon="134.1199"><ele>168.42</ele><time>2026-08-12T00:51:37Z</time></trkpt>
<trkpt lat="34.850818" lon="134.119912"><ele>168.42</ele><time>2026-08-12T00:51:38Z</time></trkpt>
<trkpt lat="34.850817" lon="134.119925"><ele>168.42</ele><time>2026-08-12T00:51:41Z</time></trkpt>
<trkpt lat="34.850812" lon="134.119938"><ele>170.7</ele><time>2026-08-12T00:51:43Z</time></trkpt>
<trkpt lat="34.850811" lon="134.119948"><ele>170.7</ele><time>2026-08-12T00:51:44Z</time></trkpt>
<trkpt lat="34.850805" lon="134.119957"><ele>170.7</ele><time>2026-08-12T00:51:45Z</time></trkpt>
<trkpt lat="34.850797" lon="134.119961"><ele>170.7</ele><time>2026-08-12T00:51:48Z</time></trkpt>
<trkpt lat="34.850795" lon="134.119961"><ele>170.7</ele><time>2026-08-12T00:51:49Z</time></trkpt>
<trkpt lat="34.850775" lon="134.119964"><ele>171.85</ele><time>2026-08-12T00:51:53Z</time></trkpt>
<trkpt lat="34.850771" lon="134.119964"><ele>171.85</ele><time>2026-08-12T00:51:55Z</time></trkpt>
<trkpt lat="34.850777" lon="134.11997"><ele>171.85</ele><time>2026-08-12T00:51:57Z</time></trkpt>
<trkpt lat="34.850782" lon="134.119986"><ele>174.38</ele><time>2026-08-12T00:51:59Z</time></trkpt>
<trkpt lat="34.850786" lon="134.119994"><ele>174.38</ele><time>2026-08-12T00:52:02Z</time></trkpt>
<trkpt lat="34.850791" lon="134.120004"><ele>173.06</ele><time>2026-08-12T00:52:05Z</time></trkpt>
<trkpt lat="34.850778" lon="134.120014"><ele>174.38</ele><time>2026-08-12T00:52:07Z</time></trkpt>
<trkpt lat="34.850767" lon="134.12003"><ele>176.65</ele><time>2026-08-12T00:52:10Z</time></trkpt>
<trkpt lat="34.850771" lon="134.120042"><ele>176.65</ele><time>2026-08-12T00:52:13Z</time></trkpt>
<trkpt lat="34.850778" lon="134.120069"><ele>178.59</ele><time>2026-08-12T00:52:17Z</time></trkpt>
<trkpt lat="34.850777" lon="134.120075"><ele>178.59</ele><time>2026-08-12T00:52:18Z</time></trkpt>
<trkpt lat="34.850799" lon="134.120096"><ele>177.69</ele><time>2026-08-12T00:52:23Z</time></trkpt>
<trkpt lat="34.850802" lon="134.120107"><ele>179.99</ele><time>2026-08-12T00:52:25Z</time></trkpt>
<trkpt lat="34.850802" lon="134.120126"><ele>179.99</ele><time>2026-08-12T00:52:27Z</time></trkpt>
<trkpt lat="34.850824" lon="134.120152"><ele>182.29</ele><time>2026-08-12T00:52:32Z</time></trkpt>
<trkpt lat="34.850826" lon="134.120159"><ele>181.33</ele><time>2026-08-12T00:52:33Z</time></trkpt>
<trkpt lat="34.850833" lon="134.120166"><ele>181.33</ele><time>2026-08-12T00:52:36Z</time></trkpt>
<trkpt lat="34.850851" lon="134.120197"><ele>183.99</ele><time>2026-08-12T00:52:40Z</time></trkpt>
<trkpt lat="34.850852" lon="134.120223"><ele>183.99</ele><time>2026-08-12T00:52:45Z</time></trkpt>
<trkpt lat="34.850853" lon="134.120238"><ele>186.23</ele><time>2026-08-12T00:52:47Z</time></trkpt>
<trkpt lat="34.85086" lon="134.120264"><ele>186.23</ele><time>2026-08-12T00:52:50Z</time></trkpt>
<trkpt lat="34.850879" lon="134.120275"><ele>185.85</ele><time>2026-08-12T00:52:54Z</time></trkpt>
<trkpt lat="34.850886" lon="134.120279"><ele>187.94</ele><time>2026-08-12T00:52:55Z</time></trkpt>
<trkpt lat="34.850901" lon="134.120309"><ele>187.32</ele><time>2026-08-12T00:52:59Z</time></trkpt>
<trkpt lat="34.850904" lon="134.120319"><ele>187.32</ele><time>2026-08-12T00:53:01Z</time></trkpt>
<trkpt lat="34.850902" lon="134.120334"><ele>189.45</ele><time>2026-08-12T00:53:03Z</time></trkpt>
<trkpt lat="34.85091" lon="134.120367"><ele>191.0</ele><time>2026-08-12T00:53:07Z</time></trkpt>
<trkpt lat="34.850912" lon="134.120376"><ele>191.0</ele><time>2026-08-12T00:53:08Z</time></trkpt>
<trkpt lat="34.850925" lon="134.120413"><ele>191.95</ele><time>2026-08-12T00:53:12Z</time></trkpt>
<trkpt lat="34.850919" lon="134.120449"><ele>191.95</ele><time>2026-08-12T00:53:16Z</time></trkpt>
<trkpt lat="34.850918" lon="134.120459"><ele>192.38</ele><time>2026-08-12T00:53:17Z</time></trkpt>
<trkpt lat="34.850906" lon="134.120514"><ele>192.31</ele><time>2026-08-12T00:53:21Z</time></trkpt>
<trkpt lat="34.850895" lon="134.120539"><ele>193.36</ele><time>2026-08-12T00:53:23Z</time></trkpt>
<trkpt lat="34.85088" lon="134.120597"><ele>193.45</ele><time>2026-08-12T00:53:28Z</time></trkpt>
<trkpt lat="34.850852" lon="134.120674"><ele>195.03</ele><time>2026-08-12T00:53:33Z</time></trkpt>
<trkpt lat="34.850842" lon="134.120685"><ele>195.03</ele><time>2026-08-12T00:53:34Z</time></trkpt>
<trkpt lat="34.85082" lon="134.120728"><ele>196.47</ele><time>2026-08-12T00:53:38Z</time></trkpt>
<trkpt lat="34.850824" lon="134.120762"><ele>197.1</ele><time>2026-08-12T00:53:41Z</time></trkpt>
<trkpt lat="34.850813" lon="134.12078"><ele>197.1</ele><time>2026-08-12T00:53:43Z</time></trkpt>
<trkpt lat="34.850797" lon="134.120797"><ele>197.53</ele><time>2026-08-12T00:53:47Z</time></trkpt>
<trkpt lat="34.850793" lon="134.120804"><ele>197.53</ele><time>2026-08-12T00:53:48Z</time></trkpt>
<trkpt lat="34.850775" lon="134.120838"><ele>199.57</ele><time>2026-08-12T00:53:53Z</time></trkpt>
<trkpt lat="34.850772" lon="134.120847"><ele>199.57</ele><time>2026-08-12T00:53:54Z</time></trkpt>
<trkpt lat="34.850756" lon="134.120863"><ele>199.57</ele><time>2026-08-12T00:53:57Z</time></trkpt>
<trkpt lat="34.850739" lon="134.12088"><ele>202.14</ele><time>2026-08-12T00:54:00Z</time></trkpt>
<trkpt lat="34.850728" lon="134.120888"><ele>202.14</ele><time>2026-08-12T00:54:02Z</time></trkpt>
<trkpt lat="34.850723" lon="134.120895"><ele>202.14</ele><time>2026-08-12T00:54:04Z</time></trkpt>
<trkpt lat="34.850722" lon="134.120927"><ele>203.38</ele><time>2026-08-12T00:54:08Z</time></trkpt>
<trkpt lat="34.850712" lon="134.120965"><ele>204.34</ele><time>2026-08-12T00:54:13Z</time></trkpt>
<trkpt lat="34.850705" lon="134.120997"><ele>205.54</ele><time>2026-08-12T00:54:16Z</time></trkpt>
<trkpt lat="34.850708" lon="134.12102"><ele>206.58</ele><time>2026-08-12T00:54:18Z</time></trkpt>
<trkpt lat="34.850709" lon="134.121064"><ele>207.74</ele><time>2026-08-12T00:54:23Z</time></trkpt>
<trkpt lat="34.850711" lon="134.121092"><ele>207.74</ele><time>2026-08-12T00:54:27Z</time></trkpt>
<trkpt lat="34.850711" lon="134.121102"><ele>209.0</ele><time>2026-08-12T00:54:28Z</time></trkpt>
<trkpt lat="34.850711" lon="134.12114"><ele>210.36</ele><time>2026-08-12T00:54:32Z</time></trkpt>
<trkpt lat="34.850696" lon="134.121175"><ele>210.36</ele><time>2026-08-12T00:54:37Z</time></trkpt>
<trkpt lat="34.850698" lon="134.121182"><ele>211.82</ele><time>2026-08-12T00:54:38Z</time></trkpt>
<trkpt lat="34.850701" lon="134.121205"><ele>211.82</ele><time>2026-08-12T00:54:41Z</time></trkpt>
<trkpt lat="34.850703" lon="134.121238"><ele>213.33</ele><time>2026-08-12T00:54:45Z</time></trkpt>
<trkpt lat="34.850703" lon="134.121241"><ele>213.33</ele><time>2026-08-12T00:54:46Z</time></trkpt>
<trkpt lat="34.850704" lon="134.121262"><ele>213.33</ele><time>2026-08-12T00:54:50Z</time></trkpt>
<trkpt lat="34.850708" lon="134.121262"><ele>213.33</ele><time>2026-08-12T00:54:51Z</time></trkpt>
<trkpt lat="34.850716" lon="134.121297"><ele>214.84</ele><time>2026-08-12T00:54:56Z</time></trkpt>
<trkpt lat="34.850723" lon="134.121302"><ele>214.18</ele><time>2026-08-12T00:54:57Z</time></trkpt>
<trkpt lat="34.850719" lon="134.121321"><ele>216.4</ele><time>2026-08-12T00:55:01Z</time></trkpt>
<trkpt lat="34.850722" lon="134.121331"><ele>215.99</ele><time>2026-08-12T00:55:02Z</time></trkpt>
<trkpt lat="34.850726" lon="134.121354"><ele>217.72</ele><time>2026-08-12T00:55:04Z</time></trkpt>
<trkpt lat="34.850726" lon="134.121384"><ele>217.72</ele><time>2026-08-12T00:55:07Z</time></trkpt>
<trkpt lat="34.850726" lon="134.121398"><ele>219.45</ele><time>2026-08-12T00:55:09Z</time></trkpt>
<trkpt lat="34.850724" lon="134.121409"><ele>219.45</ele><time>2026-08-12T00:55:11Z</time></trkpt>
<trkpt lat="34.850727" lon="134.121423"><ele>219.45</ele><time>2026-08-12T00:55:15Z</time></trkpt>
<trkpt lat="34.850748" lon="134.121455"><ele>221.33</ele><time>2026-08-12T00:55:20Z</time></trkpt>
<trkpt lat="34.850743" lon="134.121478"><ele>221.33</ele><time>2026-08-12T00:55:23Z</time></trkpt>
<trkpt lat="34.850742" lon="134.121488"><ele>223.0</ele><time>2026-08-12T00:55:24Z</time></trkpt>
<trkpt lat="34.850752" lon="134.121509"><ele>223.0</ele><time>2026-08-12T00:55:28Z</time></trkpt>
<trkpt lat="34.850756" lon="134.121528"><ele>223.13</ele><time>2026-08-12T00:55:31Z</time></trkpt>
<trkpt lat="34.85076" lon="134.121538"><ele>223.13</ele><time>2026-08-12T00:55:32Z</time></trkpt>
<trkpt lat="34.850727" lon="134.121556"><ele>224.64</ele><time>2026-08-12T00:55:36Z</time></trkpt>
<trkpt lat="34.850723" lon="134.121561"><ele>224.64</ele><time>2026-08-12T00:55:37Z</time></trkpt>
<trkpt lat="34.850718" lon="134.121565"><ele>224.53</ele><time>2026-08-12T00:55:39Z</time></trkpt>
<trkpt lat="34.850723" lon="134.12158"><ele>226.41</ele><time>2026-08-12T00:55:41Z</time></trkpt>
<trkpt lat="34.850723" lon="134.121596"><ele>226.41</ele><time>2026-08-12T00:55:44Z</time></trkpt>
<trkpt lat="34.850725" lon="134.121599"><ele>226.41</ele><time>2026-08-12T00:55:45Z</time></trkpt>
<trkpt lat="34.850732" lon="134.121611"><ele>228.53</ele><time>2026-08-12T00:55:49Z</time></trkpt>
<trkpt lat="34.850732" lon="134.12162"><ele>228.53</ele><time>2026-08-12T00:55:51Z</time></trkpt>
<trkpt lat="34.850722" lon="134.121641"><ele>228.53</ele><time>2026-08-12T00:55:55Z</time></trkpt>
<trkpt lat="34.850722" lon="134.121657"><ele>230.76</ele><time>2026-08-12T00:55:59Z</time></trkpt>
<trkpt lat="34.850724" lon="134.121663"><ele>230.76</ele><time>2026-08-12T00:56:00Z</time></trkpt>
<trkpt lat="34.850721" lon="134.12169"><ele>230.76</ele><time>2026-08-12T00:56:03Z</time></trkpt>
<trkpt lat="34.850718" lon="134.121709"><ele>233.64</ele><time>2026-08-12T00:56:07Z</time></trkpt>
<trkpt lat="34.850717" lon="134.121712"><ele>233.64</ele><time>2026-08-12T00:56:08Z</time></trkpt>
<trkpt lat="34.850711" lon="134.121735"><ele>233.64</ele><time>2026-08-12T00:56:13Z</time></trkpt>
<trkpt lat="34.850728" lon="134.121739"><ele>236.1</ele><time>2026-08-12T00:56:18Z</time></trkpt>
<trkpt lat="34.850731" lon="134.121741"><ele>236.1</ele><time>2026-08-12T00:56:19Z</time></trkpt>
<trkpt lat="34.850724" lon="134.121748"><ele>236.1</ele><time>2026-08-12T00:56:21Z</time></trkpt>
<trkpt lat="34.850725" lon="134.121761"><ele>236.1</ele><time>2026-08-12T00:56:25Z</time></trkpt>
<trkpt lat="34.850724" lon="134.121763"><ele>236.1</ele><time>2026-08-12T00:56:26Z</time></trkpt>
<trkpt lat="34.850735" lon="134.121774"><ele>236.1</ele><time>2026-08-12T00:56:31Z</time></trkpt>
<trkpt lat="34.850733" lon="134.121782"><ele>239.43</ele><time>2026-08-12T00:56:33Z</time></trkpt>
<trkpt lat="34.850725" lon="134.121794"><ele>239.43</ele><time>2026-08-12T00:56:35Z</time></trkpt>
<trkpt lat="34.85072" lon="134.121799"><ele>239.22</ele><time>2026-08-12T00:56:39Z</time></trkpt>
<trkpt lat="34.850721" lon="134.121803"><ele>239.43</ele><time>2026-08-12T00:56:40Z</time></trkpt>
<trkpt lat="34.85072" lon="134.121821"><ele>239.22</ele><time>2026-08-12T00:56:43Z</time></trkpt>
<trkpt lat="34.850729" lon="134.121825"><ele>242.08</ele><time>2026-08-12T00:56:47Z</time></trkpt>
<trkpt lat="34.850733" lon="134.121832"><ele>242.08</ele><time>2026-08-12T00:56:48Z</time></trkpt>
<trkpt lat="34.850736" lon="134.121847"><ele>242.08</ele><time>2026-08-12T00:56:53Z</time></trkpt>
<trkpt lat="34.850739" lon="134.121854"><ele>242.08</ele><time>2026-08-12T00:56:54Z</time></trkpt>
<trkpt lat="34.850755" lon="134.121876"><ele>244.85</ele><time>2026-08-12T00:56:58Z</time></trkpt>
<trkpt lat="34.850768" lon="134.121892"><ele>243.68</ele><time>2026-08-12T00:57:01Z</time></trkpt>
<trkpt lat="34.850784" lon="134.121914"><ele>246.25</ele><time>2026-08-12T00:57:04Z</time></trkpt>
<trkpt lat="34.850778" lon="134.121919"><ele>246.25</ele><time>2026-08-12T00:57:05Z</time></trkpt>
<trkpt lat="34.850778" lon="134.121933"><ele>246.25</ele><time>2026-08-12T00:57:10Z</time></trkpt>
<trkpt lat="34.850781" lon="134.121939"><ele>246.25</ele><time>2026-08-12T00:57:11Z</time></trkpt>
<trkpt lat="34.850781" lon="134.12196"><ele>248.74</ele><time>2026-08-12T00:57:16Z</time></trkpt>
<trkpt lat="34.850778" lon="134.121986"><ele>248.74</ele><time>2026-08-12T00:57:20Z</time></trkpt>
<trkpt lat="34.850776" lon="134.122017"><ele>250.88</ele><time>2026-08-12T00:57:23Z</time></trkpt>
<trkpt lat="34.850773" lon="134.122049"><ele>252.82</ele><time>2026-08-12T00:57:27Z</time></trkpt>
<trkpt lat="34.850772" lon="134.122062"><ele>252.82</ele><time>2026-08-12T00:57:29Z</time></trkpt>
<trkpt lat="34.850765" lon="134.122087"><ele>254.35</ele><time>2026-08-12T00:57:32Z</time></trkpt>
<trkpt lat="34.850758" lon="134.12211"><ele>254.35</ele><time>2026-08-12T00:57:36Z</time></trkpt>
<trkpt lat="34.85076" lon="134.122115"><ele>254.35</ele><time>2026-08-12T00:57:37Z</time></trkpt>
<trkpt lat="34.850751" lon="134.122124"><ele>257.52</ele><time>2026-08-12T00:57:41Z</time></trkpt>
<trkpt lat="34.850741" lon="134.122136"><ele>257.52</ele><time>2026-08-12T00:57:44Z</time></trkpt>
<trkpt lat="34.850743" lon="134.12215"><ele>257.52</ele><time>2026-08-12T00:57:48Z</time></trkpt>
<trkpt lat="34.850744" lon="134.12218"><ele>258.56</ele><time>2026-08-12T00:57:54Z</time></trkpt>
<trkpt lat="34.850734" lon="134.122193"><ele>258.56</ele><time>2026-08-12T00:57:57Z</time></trkpt>
<trkpt lat="34.850731" lon="134.122219"><ele>258.88</ele><time>2026-08-12T00:58:00Z</time></trkpt>
<trkpt lat="34.850709" lon="134.12227"><ele>261.16</ele><time>2026-08-12T00:58:05Z</time></trkpt>
<trkpt lat="34.850692" lon="134.122315"><ele>261.45</ele><time>2026-08-12T00:58:10Z</time></trkpt>
<trkpt lat="34.850678" lon="134.122328"><ele>262.33</ele><time>2026-08-12T00:58:12Z</time></trkpt>
<trkpt lat="34.850675" lon="134.122338"><ele>262.33</ele><time>2026-08-12T00:58:13Z</time></trkpt>
<trkpt lat="34.850669" lon="134.122347"><ele>263.25</ele><time>2026-08-12T00:58:14Z</time></trkpt>
<trkpt lat="34.850666" lon="134.122351"><ele>263.25</ele><time>2026-08-12T00:58:15Z</time></trkpt>
<trkpt lat="34.850653" lon="134.122397"><ele>263.81</ele><time>2026-08-12T00:58:20Z</time></trkpt>
<trkpt lat="34.850644" lon="134.122423"><ele>265.11</ele><time>2026-08-12T00:58:23Z</time></trkpt>
<trkpt lat="34.850625" lon="134.122447"><ele>266.15</ele><time>2026-08-12T00:58:27Z</time></trkpt>
<trkpt lat="34.850617" lon="134.122481"><ele>266.82</ele><time>2026-08-12T00:58:31Z</time></trkpt>
<trkpt lat="34.850619" lon="134.122489"><ele>266.82</ele><time>2026-08-12T00:58:33Z</time></trkpt>
<trkpt lat="34.850618" lon="134.122492"><ele>266.82</ele><time>2026-08-12T00:58:34Z</time></trkpt>
<trkpt lat="34.850599" lon="134.122521"><ele>269.46</ele><time>2026-08-12T00:58:39Z</time></trkpt>
<trkpt lat="34.850596" lon="134.122522"><ele>269.46</ele><time>2026-08-12T00:58:40Z</time></trkpt>
<trkpt lat="34.850591" lon="134.122529"><ele>269.46</ele><time>2026-08-12T00:58:45Z</time></trkpt>
<trkpt lat="34.850596" lon="134.12252"><ele>269.46</ele><time>2026-08-12T00:58:47Z</time></trkpt>
<trkpt lat="34.850587" lon="134.122522"><ele>269.46</ele><time>2026-08-12T00:58:49Z</time></trkpt>
<trkpt lat="34.850575" lon="134.122535"><ele>271.28</ele><time>2026-08-12T00:58:53Z</time></trkpt>
<trkpt lat="34.850557" lon="134.12254"><ele>271.28</ele><time>2026-08-12T00:58:55Z</time></trkpt>
<trkpt lat="34.850553" lon="134.122535"><ele>271.28</ele><time>2026-08-12T00:58:56Z</time></trkpt>
<trkpt lat="34.850544" lon="134.122553"><ele>274.92</ele><time>2026-08-12T00:58:59Z</time></trkpt>
<trkpt lat="34.850536" lon="134.122574"><ele>274.92</ele><time>2026-08-12T00:59:03Z</time></trkpt>
<trkpt lat="34.850528" lon="134.122581"><ele>274.92</ele><time>2026-08-12T00:59:06Z</time></trkpt>
<trkpt lat="34.850516" lon="134.122601"><ele>276.23</ele><time>2026-08-12T00:59:09Z</time></trkpt>
<trkpt lat="34.850511" lon="134.122603"><ele>276.23</ele><time>2026-08-12T00:59:10Z</time></trkpt>
<trkpt lat="34.850498" lon="134.122601"><ele>278.69</ele><time>2026-08-12T00:59:14Z</time></trkpt>
<trkpt lat="34.8505" lon="134.122607"><ele>278.69</ele><time>2026-08-12T00:59:16Z</time></trkpt>
<trkpt lat="34.850494" lon="134.122624"><ele>278.69</ele><time>2026-08-12T00:59:19Z</time></trkpt>
<trkpt lat="34.850494" lon="134.122625"><ele>278.69</ele><time>2026-08-12T00:59:22Z</time></trkpt>
<trkpt lat="34.850483" lon="134.122633"><ele>278.69</ele><time>2026-08-12T00:59:24Z</time></trkpt>
<trkpt lat="34.850475" lon="134.122648"><ele>280.13</ele><time>2026-08-12T00:59:27Z</time></trkpt>
<trkpt lat="34.850459" lon="134.122653"><ele>282.67</ele><time>2026-08-12T00:59:30Z</time></trkpt>
<trkpt lat="34.850452" lon="134.122655"><ele>282.67</ele><time>2026-08-12T00:59:32Z</time></trkpt>
<trkpt lat="34.850448" lon="134.122663"><ele>282.67</ele><time>2026-08-12T00:59:36Z</time></trkpt>
<trkpt lat="34.850434" lon="134.122692"><ele>286.98</ele><time>2026-08-12T00:59:38Z</time></trkpt>
<trkpt lat="34.850432" lon="134.122697"><ele>286.98</ele><time>2026-08-12T00:59:39Z</time></trkpt>
<trkpt lat="34.850437" lon="134.122711"><ele>286.98</ele><time>2026-08-12T00:59:43Z</time></trkpt>
<trkpt lat="34.850401" lon="134.122713"><ele>288.92</ele><time>2026-08-12T00:59:47Z</time></trkpt>
<trkpt lat="34.850399" lon="134.122721"><ele>288.92</ele><time>2026-08-12T00:59:52Z</time></trkpt>
<trkpt lat="34.850393" lon="134.122728"><ele>290.41</ele><time>2026-08-12T00:59:55Z</time></trkpt>
<trkpt lat="34.850395" lon="134.122728"><ele>290.41</ele><time>2026-08-12T00:59:58Z</time></trkpt>
<trkpt lat="34.850398" lon="134.122738"><ele>290.41</ele><time>2026-08-12T01:00:00Z</time></trkpt>
<trkpt lat="34.850398" lon="134.122756"><ele>290.41</ele><time>2026-08-12T01:00:04Z</time></trkpt>
<trkpt lat="34.8504" lon="134.122773"><ele>291.64</ele><time>2026-08-12T01:00:08Z</time></trkpt>
<trkpt lat="34.850391" lon="134.122803"><ele>291.64</ele><time>2026-08-12T01:00:13Z</time></trkpt>
<trkpt lat="34.850393" lon="134.122814"><ele>292.82</ele><time>2026-08-12T01:00:15Z</time></trkpt>
<trkpt lat="34.850394" lon="134.122824"><ele>292.82</ele><time>2026-08-12T01:00:17Z</time></trkpt>
<trkpt lat="34.850389" lon="134.122842"><ele>292.82</ele><time>2026-08-12T01:00:19Z</time></trkpt>
<trkpt lat="34.850382" lon="134.122884"><ele>294.02</ele><time>2026-08-12T01:00:23Z</time></trkpt>
<trkpt lat="34.850382" lon="134.12289"><ele>294.02</ele><time>2026-08-12T01:00:24Z</time></trkpt>
<trkpt lat="34.85038" lon="134.122898"><ele>295.32</ele><time>2026-08-12T01:00:26Z</time></trkpt>
<trkpt lat="34.850355" lon="134.122934"><ele>297.53</ele><time>2026-08-12T01:00:31Z</time></trkpt>
<trkpt lat="34.850338" lon="134.122958"><ele>299.26</ele><time>2026-08-12T01:00:34Z</time></trkpt>
<trkpt lat="34.850339" lon="134.122968"><ele>299.26</ele><time>2026-08-12T01:00:35Z</time></trkpt>
<trkpt lat="34.850337" lon="134.122982"><ele>299.26</ele><time>2026-08-12T01:00:38Z</time></trkpt>
<trkpt lat="34.850319" lon="134.123003"><ele>302.98</ele><time>2026-08-12T01:00:41Z</time></trkpt>
<trkpt lat="34.850315" lon="134.123002"><ele>302.98</ele><time>2026-08-12T01:00:42Z</time></trkpt>
<trkpt lat="34.850278" lon="134.123006"><ele>304.19</ele><time>2026-08-12T01:00:46Z</time></trkpt>
<trkpt lat="34.85027" lon="134.12301"><ele>304.19</ele><time>2026-08-12T01:00:48Z</time></trkpt>
<trkpt lat="34.850259" lon="134.123023"><ele>304.84</ele><time>2026-08-12T01:00:50Z</time></trkpt>
<trkpt lat="34.850235" lon="134.123079"><ele>307.13</ele><time>2026-08-12T01:00:55Z</time></trkpt>
<trkpt lat="34.850222" lon="134.123081"><ele>307.54</ele><time>2026-08-12T01:00:56Z</time></trkpt>
<trkpt lat="34.850184" lon="134.123083"><ele>308.02</ele><time>2026-08-12T01:01:01Z</time></trkpt>
<trkpt lat="34.850181" lon="134.123085"><ele>308.02</ele><time>2026-08-12T01:01:02Z</time></trkpt>
<trkpt lat="34.850155" lon="134.123107"><ele>308.57</ele><time>2026-08-12T01:01:07Z</time></trkpt>
<trkpt lat="34.850152" lon="134.123116"><ele>310.82</ele><time>2026-08-12T01:01:09Z</time></trkpt>
<trkpt lat="34.850145" lon="134.123134"><ele>310.82</ele><time>2026-08-12T01:01:11Z</time></trkpt>
<trkpt lat="34.85012" lon="134.12315"><ele>311.52</ele><time>2026-08-12T01:01:15Z</time></trkpt>
<trkpt lat="34.850088" lon="134.123161"><ele>313.01</ele><time>2026-08-12T01:01:20Z</time></trkpt>
<trkpt lat="34.850056" lon="134.123168"><ele>313.53</ele><time>2026-08-12T01:01:22Z</time></trkpt>
<trkpt lat="34.850012" lon="134.123187"><ele>313.92</ele><time>2026-08-12T01:01:28Z</time></trkpt>
<trkpt lat="34.850003" lon="134.123193"><ele>313.92</ele><time>2026-08-12T01:01:29Z</time></trkpt>
<trkpt lat="34.849982" lon="134.123231"><ele>315.86</ele><time>2026-08-12T01:01:34Z</time></trkpt>
<trkpt lat="34.849975" lon="134.123244"><ele>316.6</ele><time>2026-08-12T01:01:36Z</time></trkpt>
<trkpt lat="34.849971" lon="134.12326"><ele>316.6</ele><time>2026-08-12T01:01:38Z</time></trkpt>
<trkpt lat="34.849965" lon="134.123281"><ele>316.6</ele><time>2026-08-12T01:01:40Z</time></trkpt>
<trkpt lat="34.849963" lon="134.123302"><ele>317.33</ele><time>2026-08-12T01:01:43Z</time></trkpt>
<trkpt lat="34.849971" lon="134.123309"><ele>317.33</ele><time>2026-08-12T01:01:44Z</time></trkpt>
<trkpt lat="34.849993" lon="134.123324"><ele>318.09</ele><time>2026-08-12T01:01:46Z</time></trkpt>
<trkpt lat="34.850005" lon="134.12335"><ele>318.06</ele><time>2026-08-12T01:01:48Z</time></trkpt>
<trkpt lat="34.850018" lon="134.123451"><ele>317.91</ele><time>2026-08-12T01:01:53Z</time></trkpt>
<trkpt lat="34.850018" lon="134.123513"><ele>317.94</ele><time>2026-08-12T01:01:56Z</time></trkpt>
<trkpt lat="34.850002" lon="134.123576"><ele>318.32</ele><time>2026-08-12T01:01:59Z</time></trkpt>
<trkpt lat="34.849985" lon="134.123601"><ele>318.69</ele><time>2026-08-12T01:02:02Z</time></trkpt>
<trkpt lat="34.849981" lon="134.123608"><ele>318.69</ele><time>2026-08-12T01:02:03Z</time></trkpt>
<trkpt lat="34.849947" lon="134.123653"><ele>319.46</ele><time>2026-08-12T01:02:08Z</time></trkpt>
<trkpt lat="34.849905" lon="134.123714"><ele>320.46</ele><time>2026-08-12T01:02:16Z</time></trkpt>
<trkpt lat="34.8499" lon="134.123761"><ele>322.13</ele><time>2026-08-12T01:02:20Z</time></trkpt>
<trkpt lat="34.849884" lon="134.123799"><ele>323.62</ele><time>2026-08-12T01:02:22Z</time></trkpt>
<trkpt lat="34.849866" lon="134.123837"><ele>322.69</ele><time>2026-08-12T01:02:25Z</time></trkpt>
<trkpt lat="34.84984" lon="134.12389"><ele>324.51</ele><time>2026-08-12T01:02:28Z</time></trkpt>
<trkpt lat="34.849852" lon="134.123935"><ele>324.74</ele><time>2026-08-12T01:02:30Z</time></trkpt>
<trkpt lat="34.849866" lon="134.123973"><ele>324.77</ele><time>2026-08-12T01:02:33Z</time></trkpt>
<trkpt lat="34.849867" lon="134.12399"><ele>324.77</ele><time>2026-08-12T01:02:34Z</time></trkpt>
<trkpt lat="34.849852" lon="134.124156"><ele>324.35</ele><time>2026-08-12T01:02:41Z</time></trkpt>
<trkpt lat="34.84985" lon="134.124182"><ele>324.35</ele><time>2026-08-12T01:02:42Z</time></trkpt>
<trkpt lat="34.84979" lon="134.1243"><ele>323.46</ele><time>2026-08-12T01:02:47Z</time></trkpt>
<trkpt lat="34.849762" lon="134.124333"><ele>323.65</ele><time>2026-08-12T01:02:49Z</time></trkpt>
<trkpt lat="34.849702" lon="134.124493"><ele>321.34</ele><time>2026-08-12T01:02:56Z</time></trkpt>
<trkpt lat="34.849679" lon="134.124531"><ele>321.75</ele><time>2026-08-12T01:02:58Z</time></trkpt>
<trkpt lat="34.849651" lon="134.124672"><ele>322.69</ele><time>2026-08-12T01:03:04Z</time></trkpt>
<trkpt lat="34.849564" lon="134.124867"><ele>323.59</ele><time>2026-08-12T01:03:13Z</time></trkpt>
<trkpt lat="34.849497" lon="134.124908"><ele>323.1</ele><time>2026-08-12T01:03:17Z</time></trkpt>
<trkpt lat="34.849487" lon="134.124908"><ele>322.0</ele><time>2026-08-12T01:03:19Z</time></trkpt>
<trkpt lat="34.849455" lon="134.124933"><ele>324.55</ele><time>2026-08-12T01:03:21Z</time></trkpt>
<trkpt lat="34.849441" lon="134.124974"><ele>325.44</ele><time>2026-08-12T01:03:26Z</time></trkpt>
<trkpt lat="34.849411" lon="134.125001"><ele>325.21</ele><time>2026-08-12T01:03:30Z</time></trkpt>
<trkpt lat="34.849417" lon="134.12502"><ele>325.21</ele><time>2026-08-12T01:03:34Z</time></trkpt>
<trkpt lat="34.84944" lon="134.125022"><ele>327.36</ele><time>2026-08-12T01:03:38Z</time></trkpt>
<trkpt lat="34.84946" lon="134.125023"><ele>328.92</ele><time>2026-08-12T01:03:40Z</time></trkpt>
<trkpt lat="34.84947" lon="134.12504"><ele>328.92</ele><time>2026-08-12T01:03:42Z</time></trkpt>
<trkpt lat="34.849475" lon="134.125076"><ele>329.94</ele><time>2026-08-12T01:03:44Z</time></trkpt>
<trkpt lat="34.849478" lon="134.125098"><ele>330.61</ele><time>2026-08-12T01:03:45Z</time></trkpt>
<trkpt lat="34.849478" lon="134.125114"><ele>330.61</ele><time>2026-08-12T01:03:46Z</time></trkpt>
<trkpt lat="34.84948" lon="134.125206"><ele>331.14</ele><time>2026-08-12T01:03:50Z</time></trkpt>
<trkpt lat="34.849484" lon="134.125256"><ele>331.13</ele><time>2026-08-12T01:03:52Z</time></trkpt>
<trkpt lat="34.849478" lon="134.125292"><ele>331.44</ele><time>2026-08-12T01:03:54Z</time></trkpt>
<trkpt lat="34.849474" lon="134.12536"><ele>332.33</ele><time>2026-08-12T01:03:58Z</time></trkpt>
<trkpt lat="34.849472" lon="134.125367"><ele>332.33</ele><time>2026-08-12T01:03:59Z</time></trkpt>
<trkpt lat="34.84947" lon="134.125373"><ele>332.33</ele><time>2026-08-12T01:04:00Z</time></trkpt>
<trkpt lat="34.849475" lon="134.125423"><ele>333.5</ele><time>2026-08-12T01:04:04Z</time></trkpt>
<trkpt lat="34.849475" lon="134.125496"><ele>334.62</ele><time>2026-08-12T01:04:08Z</time></trkpt>
<trkpt lat="34.849446" lon="134.125574"><ele>332.61</ele><time>2026-08-12T01:04:13Z</time></trkpt>
<trkpt lat="34.849402" lon="134.12567"><ele>332.03</ele><time>2026-08-12T01:04:21Z</time></trkpt>
<trkpt lat="34.849407" lon="134.125694"><ele>333.25</ele><time>2026-08-12T01:04:25Z</time></trkpt>
<trkpt lat="34.849411" lon="134.125719"><ele>333.25</ele><time>2026-08-12T01:04:28Z</time></trkpt>
<trkpt lat="34.849415" lon="134.125746"><ele>335.42</ele><time>2026-08-12T01:04:30Z</time></trkpt>
<trkpt lat="34.84942" lon="134.125806"><ele>336.4</ele><time>2026-08-12T01:04:33Z</time></trkpt>
<trkpt lat="34.849409" lon="134.125858"><ele>336.6</ele><time>2026-08-12T01:04:35Z</time></trkpt>
<trkpt lat="34.849407" lon="134.125882"><ele>336.6</ele><time>2026-08-12T01:04:36Z</time></trkpt>
<trkpt lat="34.849372" lon="134.125962"><ele>336.81</ele><time>2026-08-12T01:04:39Z</time></trkpt>
<trkpt lat="34.849323" lon="134.126036"><ele>336.39</ele><time>2026-08-12T01:04:42Z</time></trkpt>
<trkpt lat="34.849256" lon="134.12607"><ele>336.14</ele><time>2026-08-12T01:04:48Z</time></trkpt>
<trkpt lat="34.849239" lon="134.12608"><ele>335.75</ele><time>2026-08-12T01:04:49Z</time></trkpt>
<trkpt lat="34.849189" lon="134.126122"><ele>336.09</ele><time>2026-08-12T01:04:52Z</time></trkpt>
<trkpt lat="34.849178" lon="134.126136"><ele>336.09</ele><time>2026-08-12T01:04:53Z</time></trkpt>
<trkpt lat="34.84913" lon="134.126185"><ele>332.23</ele><time>2026-08-12T01:04:56Z</time></trkpt>
<trkpt lat="34.849108" lon="134.126254"><ele>333.1</ele><time>2026-08-12T01:04:59Z</time></trkpt>
<trkpt lat="34.849104" lon="134.126277"><ele>333.1</ele><time>2026-08-12T01:05:00Z</time></trkpt>
<trkpt lat="34.849101" lon="134.1263"><ele>332.49</ele><time>2026-08-12T01:05:01Z</time></trkpt>
<trkpt lat="34.849095" lon="134.126324"><ele>331.46</ele><time>2026-08-12T01:05:02Z</time></trkpt>
<trkpt lat="34.849041" lon="134.126428"><ele>330.58</ele><time>2026-08-12T01:05:08Z</time></trkpt>
<trkpt lat="34.849029" lon="134.126479"><ele>329.33</ele><time>2026-08-12T01:05:10Z</time></trkpt>
<trkpt lat="34.848989" lon="134.126576"><ele>328.7</ele><time>2026-08-12T01:05:14Z</time></trkpt>
<trkpt lat="34.848979" lon="134.126599"><ele>328.41</ele><time>2026-08-12T01:05:15Z</time></trkpt>
<trkpt lat="34.848941" lon="134.126635"><ele>327.61</ele><time>2026-08-12T01:05:18Z</time></trkpt>
<trkpt lat="34.848928" lon="134.126655"><ele>327.61</ele><time>2026-08-12T01:05:20Z</time></trkpt>
<trkpt lat="34.848926" lon="134.126677"><ele>326.74</ele><time>2026-08-12T01:05:21Z</time></trkpt>
<trkpt lat="34.848853" lon="134.126815"><ele>324.78</ele><time>2026-08-12T01:05:25Z</time></trkpt>
<trkpt lat="34.848835" lon="134.126844"><ele>324.78</ele><time>2026-08-12T01:05:26Z</time></trkpt>
<trkpt lat="34.848762" lon="134.126899"><ele>324.79</ele><time>2026-08-12T01:05:30Z</time></trkpt>
<trkpt lat="34.848739" lon="134.126898"><ele>325.0</ele><time>2026-08-12T01:05:31Z</time></trkpt>
<trkpt lat="34.848686" lon="134.126896"><ele>324.98</ele><time>2026-08-12T01:05:33Z</time></trkpt>
<trkpt lat="34.848585" lon="134.126928"><ele>323.32</ele><time>2026-08-12T01:05:37Z</time></trkpt>
<trkpt lat="34.848568" lon="134.12693"><ele>322.4</ele><time>2026-08-12T01:05:38Z</time></trkpt>
<trkpt lat="34.848499" lon="134.126945"><ele>321.87</ele><time>2026-08-12T01:05:42Z</time></trkpt>
<trkpt lat="34.848477" lon="134.126957"><ele>321.87</ele><time>2026-08-12T01:05:43Z</time></trkpt>
<trkpt lat="34.848365" lon="134.126998"><ele>320.55</ele><time>2026-08-12T01:05:49Z</time></trkpt>
<trkpt lat="34.848332" lon="134.127001"><ele>319.56</ele><time>2026-08-12T01:05:51Z</time></trkpt>
<trkpt lat="34.848312" lon="134.127005"><ele>318.26</ele><time>2026-08-12T01:05:53Z</time></trkpt>
<trkpt lat="34.848287" lon="134.127006"><ele>316.14</ele><time>2026-08-12T01:05:56Z</time></trkpt>
<trkpt lat="34.848269" lon="134.127003"><ele>316.14</ele><time>2026-08-12T01:05:58Z</time></trkpt>
<trkpt lat="34.848237" lon="134.127038"><ele>315.32</ele><time>2026-08-12T01:06:02Z</time></trkpt>
<trkpt lat="34.848231" lon="134.127058"><ele>315.32</ele><time>2026-08-12T01:06:03Z</time></trkpt>
<trkpt lat="34.848228" lon="134.127077"><ele>315.42</ele><time>2026-08-12T01:06:04Z</time></trkpt>
<trkpt lat="34.848218" lon="134.127091"><ele>313.66</ele><time>2026-08-12T01:06:05Z</time></trkpt>
<trkpt lat="34.848212" lon="134.127103"><ele>312.93</ele><time>2026-08-12T01:06:06Z</time></trkpt>
<trkpt lat="34.84819" lon="134.127123"><ele>312.93</ele><time>2026-08-12T01:06:08Z</time></trkpt>
<trkpt lat="34.848177" lon="134.127125"><ele>311.72</ele><time>2026-08-12T01:06:09Z</time></trkpt>
<trkpt lat="34.848143" lon="134.127153"><ele>309.58</ele><time>2026-08-12T01:06:12Z</time></trkpt>
<trkpt lat="34.848141" lon="134.127163"><ele>309.58</ele><time>2026-08-12T01:06:13Z</time></trkpt>
<trkpt lat="34.848114" lon="134.127174"><ele>308.35</ele><time>2026-08-12T01:06:15Z</time></trkpt>
<trkpt lat="34.848102" lon="134.127171"><ele>308.35</ele><time>2026-08-12T01:06:16Z</time></trkpt>
<trkpt lat="34.848091" lon="134.12717"><ele>308.35</ele><time>2026-08-12T01:06:17Z</time></trkpt>
<trkpt lat="34.84807" lon="134.127173"><ele>306.87</ele><time>2026-08-12T01:06:19Z</time></trkpt>
<trkpt lat="34.848048" lon="134.127181"><ele>306.87</ele><time>2026-08-12T01:06:21Z</time></trkpt>
<trkpt lat="34.848034" lon="134.127185"><ele>305.25</ele><time>2026-08-12T01:06:23Z</time></trkpt>
<trkpt lat="34.848026" lon="134.127189"><ele>304.19</ele><time>2026-08-12T01:06:24Z</time></trkpt>
<trkpt lat="34.847992" lon="134.127196"><ele>302.85</ele><time>2026-08-12T01:06:26Z</time></trkpt>
<trkpt lat="34.847935" lon="134.127199"><ele>301.68</ele><time>2026-08-12T01:06:29Z</time></trkpt>
<trkpt lat="34.847875" lon="134.127198"><ele>302.85</ele><time>2026-08-12T01:06:33Z</time></trkpt>
<trkpt lat="34.84785" lon="134.127199"><ele>304.32</ele><time>2026-08-12T01:06:35Z</time></trkpt>
<trkpt lat="34.847831" lon="134.127199"><ele>306.04</ele><time>2026-08-12T01:06:37Z</time></trkpt>
<trkpt lat="34.847786" lon="134.127201"><ele>307.53</ele><time>2026-08-12T01:06:40Z</time></trkpt>
<trkpt lat="34.847769" lon="134.127208"><ele>307.53</ele><time>2026-08-12T01:06:41Z</time></trkpt>
<trkpt lat="34.847755" lon="134.127211"><ele>308.91</ele><time>2026-08-12T01:06:42Z</time></trkpt>
<trkpt lat="34.84772" lon="134.12722"><ele>310.17</ele><time>2026-08-12T01:06:45Z</time></trkpt>
<trkpt lat="34.847673" lon="134.127237"><ele>311.55</ele><time>2026-08-12T01:06:49Z</time></trkpt>
<trkpt lat="34.847618" lon="134.127277"><ele>312.99</ele><time>2026-08-12T01:06:53Z</time></trkpt>
<trkpt lat="34.847579" lon="134.127322"><ele>312.9</ele><time>2026-08-12T01:06:56Z</time></trkpt>
<trkpt lat="34.847578" lon="134.127338"><ele>312.9</ele><time>2026-08-12T01:06:57Z</time></trkpt>
<trkpt lat="34.847562" lon="134.127431"><ele>310.7</ele><time>2026-08-12T01:07:02Z</time></trkpt>
<trkpt lat="34.84754" lon="134.127492"><ele>311.94</ele><time>2026-08-12T01:07:08Z</time></trkpt>
<trkpt lat="34.847533" lon="134.127499"><ele>311.94</ele><time>2026-08-12T01:07:10Z</time></trkpt>
<trkpt lat="34.847502" lon="134.127535"><ele>314.08</ele><time>2026-08-12T01:07:16Z</time></trkpt>
<trkpt lat="34.847485" lon="134.127552"><ele>314.08</ele><time>2026-08-12T01:07:21Z</time></trkpt>
<trkpt lat="34.847477" lon="134.127563"><ele>315.32</ele><time>2026-08-12T01:07:23Z</time></trkpt>
<trkpt lat="34.847471" lon="134.127589"><ele>316.87</ele><time>2026-08-12T01:07:26Z</time></trkpt>
<trkpt lat="34.847443" lon="134.127611"><ele>317.64</ele><time>2026-08-12T01:07:32Z</time></trkpt>
<trkpt lat="34.847427" lon="134.127627"><ele>319.53</ele><time>2026-08-12T01:07:36Z</time></trkpt>
<trkpt lat="34.847426" lon="134.127639"><ele>319.53</ele><time>2026-08-12T01:07:39Z</time></trkpt>
<trkpt lat="34.84743" lon="134.127645"><ele>319.53</ele><time>2026-08-12T01:07:40Z</time></trkpt>
<trkpt lat="34.847421" lon="134.127661"><ele>321.41</ele><time>2026-08-12T01:07:43Z</time></trkpt>
<trkpt lat="34.847407" lon="134.127682"><ele>322.05</ele><time>2026-08-12T01:07:48Z</time></trkpt>
<trkpt lat="34.847401" lon="134.127688"><ele>322.05</ele><time>2026-08-12T01:07:49Z</time></trkpt>
<trkpt lat="34.847387" lon="134.127694"><ele>322.05</ele><time>2026-08-12T01:07:52Z</time></trkpt>
<trkpt lat="34.84735" lon="134.127736"><ele>324.12</ele><time>2026-08-12T01:07:58Z</time></trkpt>
<trkpt lat="34.847308" lon="134.127804"><ele>323.83</ele><time>2026-08-12T01:08:05Z</time></trkpt>
<trkpt lat="34.847304" lon="134.127822"><ele>322.95</ele><time>2026-08-12T01:08:07Z</time></trkpt>
<trkpt lat="34.847292" lon="134.12785"><ele>321.67</ele><time>2026-08-12T01:08:09Z</time></trkpt>
<trkpt lat="34.847254" lon="134.127905"><ele>319.79</ele><time>2026-08-12T01:08:12Z</time></trkpt>
<trkpt lat="34.847221" lon="134.127959"><ele>318.24</ele><time>2026-08-12T01:08:16Z</time></trkpt>
<trkpt lat="34.847211" lon="134.127994"><ele>317.46</ele><time>2026-08-12T01:08:18Z</time></trkpt>
<trkpt lat="34.847202" lon="134.128011"><ele>316.45</ele><time>2026-08-12T01:08:19Z</time></trkpt>
<trkpt lat="34.847174" lon="134.128073"><ele>315.91</ele><time>2026-08-12T01:08:23Z</time></trkpt>
<trkpt lat="34.847159" lon="134.128127"><ele>315.03</ele><time>2026-08-12T01:08:25Z</time></trkpt>
<trkpt lat="34.847124" lon="134.128207"><ele>313.93</ele><time>2026-08-12T01:08:28Z</time></trkpt>
<trkpt lat="34.847085" lon="134.12824"><ele>313.82</ele><time>2026-08-12T01:08:30Z</time></trkpt>
<trkpt lat="34.847054" lon="134.128283"><ele>313.08</ele><time>2026-08-12T01:08:32Z</time></trkpt>
<trkpt lat="34.847007" lon="134.12834"><ele>313.51</ele><time>2026-08-12T01:08:37Z</time></trkpt>
<trkpt lat="34.847" lon="134.128338"><ele>313.51</ele><time>2026-08-12T01:08:38Z</time></trkpt>
<trkpt lat="34.846991" lon="134.128338"><ele>313.51</ele><time>2026-08-12T01:08:41Z</time></trkpt>
<trkpt lat="34.84699" lon="134.128345"><ele>313.51</ele><time>2026-08-12T01:08:42Z</time></trkpt>
<trkpt lat="34.846972" lon="134.12835"><ele>315.3</ele><time>2026-08-12T01:08:45Z</time></trkpt>
<trkpt lat="34.846968" lon="134.128355"><ele>315.3</ele><time>2026-08-12T01:08:48Z</time></trkpt>
<trkpt lat="34.84695" lon="134.128358"><ele>317.33</ele><time>2026-08-12T01:08:51Z</time></trkpt>
<trkpt lat="34.846937" lon="134.128373"><ele>317.33</ele><time>2026-08-12T01:08:54Z</time></trkpt>
<trkpt lat="34.846928" lon="134.12838"><ele>317.33</ele><time>2026-08-12T01:08:56Z</time></trkpt>
<trkpt lat="34.846929" lon="134.128387"><ele>317.33</ele><time>2026-08-12T01:08:57Z</time></trkpt>
<trkpt lat="34.846922" lon="134.128397"><ele>317.74</ele><time>2026-08-12T01:09:00Z</time></trkpt>
<trkpt lat="34.846918" lon="134.128404"><ele>317.74</ele><time>2026-08-12T01:09:03Z</time></trkpt>
<trkpt lat="34.846915" lon="134.128409"><ele>320.72</ele><time>2026-08-12T01:09:04Z</time></trkpt>
<trkpt lat="34.846907" lon="134.128414"><ele>320.72</ele><time>2026-08-12T01:09:07Z</time></trkpt>
<trkpt lat="34.846886" lon="134.128412"><ele>320.72</ele><time>2026-08-12T01:09:10Z</time></trkpt>
<trkpt lat="34.846882" lon="134.128409"><ele>320.72</ele><time>2026-08-12T01:09:11Z</time></trkpt>
<trkpt lat="34.846862" lon="134.128417"><ele>323.76</ele><time>2026-08-12T01:09:16Z</time></trkpt>
<trkpt lat="34.84685" lon="134.128419"><ele>323.76</ele><time>2026-08-12T01:09:18Z</time></trkpt>
<trkpt lat="34.846827" lon="134.128424"><ele>325.73</ele><time>2026-08-12T01:09:21Z</time></trkpt>
<trkpt lat="34.846806" lon="134.128445"><ele>328.42</ele><time>2026-08-12T01:09:25Z</time></trkpt>
<trkpt lat="34.846807" lon="134.128449"><ele>328.42</ele><time>2026-08-12T01:09:26Z</time></trkpt>
<trkpt lat="34.846804" lon="134.128457"><ele>328.42</ele><time>2026-08-12T01:09:28Z</time></trkpt>
<trkpt lat="34.846782" lon="134.128478"><ele>328.48</ele><time>2026-08-12T01:09:30Z</time></trkpt>
<trkpt lat="34.846763" lon="134.128513"><ele>329.74</ele><time>2026-08-12T01:09:32Z</time></trkpt>
<trkpt lat="34.846727" lon="134.128565"><ele>329.33</ele><time>2026-08-12T01:09:35Z</time></trkpt>
<trkpt lat="34.846686" lon="134.128629"><ele>329.41</ele><time>2026-08-12T01:09:39Z</time></trkpt>
<trkpt lat="34.846636" lon="134.12871"><ele>328.82</ele><time>2026-08-12T01:09:45Z</time></trkpt>
<trkpt lat="34.846627" lon="134.128768"><ele>328.24</ele><time>2026-08-12T01:09:48Z</time></trkpt>
<trkpt lat="34.846623" lon="134.128819"><ele>327.14</ele><time>2026-08-12T01:09:51Z</time></trkpt>
<trkpt lat="34.846618" lon="134.128834"><ele>327.14</ele><time>2026-08-12T01:09:53Z</time></trkpt>
<trkpt lat="34.846617" lon="134.1289"><ele>327.23</ele><time>2026-08-12T01:09:58Z</time></trkpt>
<trkpt lat="34.846611" lon="134.128921"><ele>327.71</ele><time>2026-08-12T01:10:00Z</time></trkpt>
<trkpt lat="34.846601" lon="134.128959"><ele>328.6</ele><time>2026-08-12T01:10:06Z</time></trkpt>
<trkpt lat="34.846579" lon="134.128965"><ele>330.84</ele><time>2026-08-12T01:10:11Z</time></trkpt>
<trkpt lat="34.846573" lon="134.128969"><ele>330.84</ele><time>2026-08-12T01:10:12Z</time></trkpt>
<trkpt lat="34.846558" lon="134.128992"><ele>333.26</ele><time>2026-08-12T01:10:15Z</time></trkpt>
<trkpt lat="34.846534" lon="134.129019"><ele>333.26</ele><time>2026-08-12T01:10:19Z</time></trkpt>
<trkpt lat="34.846526" lon="134.129026"><ele>334.03</ele><time>2026-08-12T01:10:20Z</time></trkpt>
<trkpt lat="34.8465" lon="134.129051"><ele>335.05</ele><time>2026-08-12T01:10:23Z</time></trkpt>
<trkpt lat="34.846482" lon="134.129071"><ele>335.42</ele><time>2026-08-12T01:10:26Z</time></trkpt>
<trkpt lat="34.846449" lon="134.129091"><ele>336.37</ele><time>2026-08-12T01:10:30Z</time></trkpt>
<trkpt lat="34.846402" lon="134.129101"><ele>336.94</ele><time>2026-08-12T01:10:34Z</time></trkpt>
<trkpt lat="34.846368" lon="134.129142"><ele>338.62</ele><time>2026-08-12T01:10:40Z</time></trkpt>
<trkpt lat="34.84636" lon="134.129154"><ele>338.62</ele><time>2026-08-12T01:10:42Z</time></trkpt>
<trkpt lat="34.846357" lon="134.129169"><ele>338.28</ele><time>2026-08-12T01:10:45Z</time></trkpt>
<trkpt lat="34.846338" lon="134.129194"><ele>339.69</ele><time>2026-08-12T01:10:49Z</time></trkpt>
<trkpt lat="34.846323" lon="134.129207"><ele>338.89</ele><time>2026-08-12T01:10:51Z</time></trkpt>
<trkpt lat="34.846304" lon="134.129216"><ele>340.59</ele><time>2026-08-12T01:10:54Z</time></trkpt>
<trkpt lat="34.846298" lon="134.129215"><ele>340.59</ele><time>2026-08-12T01:10:56Z</time></trkpt>
<trkpt lat="34.846294" lon="134.129217"><ele>340.59</ele><time>2026-08-12T01:10:58Z</time></trkpt>
<trkpt lat="34.846271" lon="134.129246"><ele>341.96</ele><time>2026-08-12T01:11:02Z</time></trkpt>
<trkpt lat="34.846263" lon="134.129247"><ele>341.96</ele><time>2026-08-12T01:11:03Z</time></trkpt>
<trkpt lat="34.846251" lon="134.129245"><ele>341.96</ele><time>2026-08-12T01:11:06Z</time></trkpt>
<trkpt lat="34.846225" lon="134.129237"><ele>343.54</ele><time>2026-08-12T01:11:09Z</time></trkpt>
<trkpt lat="34.846217" lon="134.129237"><ele>343.54</ele><time>2026-08-12T01:11:10Z</time></trkpt>
<trkpt lat="34.846199" lon="134.129247"><ele>345.29</ele><time>2026-08-12T01:11:14Z</time></trkpt>
<trkpt lat="34.846176" lon="134.129248"><ele>348.77</ele><time>2026-08-12T01:11:16Z</time></trkpt>
<trkpt lat="34.846161" lon="134.129245"><ele>347.0</ele><time>2026-08-12T01:11:18Z</time></trkpt>
<trkpt lat="34.846151" lon="134.129251"><ele>348.77</ele><time>2026-08-12T01:11:21Z</time></trkpt>
<trkpt lat="34.846135" lon="134.129246"><ele>348.55</ele><time>2026-08-12T01:11:25Z</time></trkpt>
<trkpt lat="34.846127" lon="134.129244"><ele>348.55</ele><time>2026-08-12T01:11:26Z</time></trkpt>
<trkpt lat="34.846117" lon="134.12925"><ele>350.77</ele><time>2026-08-12T01:11:30Z</time></trkpt>
<trkpt lat="34.846099" lon="134.129267"><ele>352.4</ele><time>2026-08-12T01:11:34Z</time></trkpt>
<trkpt lat="34.846097" lon="134.129267"><ele>352.4</ele><time>2026-08-12T01:11:35Z</time></trkpt>
<trkpt lat="34.846076" lon="134.129286"><ele>352.4</ele><time>2026-08-12T01:11:39Z</time></trkpt>
<trkpt lat="34.846067" lon="134.129294"><ele>355.94</ele><time>2026-08-12T01:11:41Z</time></trkpt>
<trkpt lat="34.846058" lon="134.129305"><ele>355.94</ele><time>2026-08-12T01:11:45Z</time></trkpt>
<trkpt lat="34.846075" lon="134.129313"><ele>354.52</ele><time>2026-08-12T01:11:48Z</time></trkpt>
<trkpt lat="34.846072" lon="134.129318"><ele>354.52</ele><time>2026-08-12T01:11:49Z</time></trkpt>
<trkpt lat="34.846077" lon="134.129339"><ele>356.0</ele><time>2026-08-12T01:11:53Z</time></trkpt>
<trkpt lat="34.846082" lon="134.129353"><ele>356.0</ele><time>2026-08-12T01:11:55Z</time></trkpt>
<trkpt lat="34.84608" lon="134.129365"><ele>356.0</ele><time>2026-08-12T01:11:57Z</time></trkpt>
<trkpt lat="34.846074" lon="134.12938"><ele>357.06</ele><time>2026-08-12T01:12:00Z</time></trkpt>
<trkpt lat="34.84606" lon="134.12942"><ele>360.41</ele><time>2026-08-12T01:12:05Z</time></trkpt>
<trkpt lat="34.846055" lon="134.129441"><ele>360.41</ele><time>2026-08-12T01:12:08Z</time></trkpt>
<trkpt lat="34.846053" lon="134.129449"><ele>360.41</ele><time>2026-08-12T01:12:12Z</time></trkpt>
<trkpt lat="34.846059" lon="134.129458"><ele>360.41</ele><time>2026-08-12T01:12:14Z</time></trkpt>
<trkpt lat="34.846049" lon="134.129492"><ele>361.47</ele><time>2026-08-12T01:12:19Z</time></trkpt>
<trkpt lat="34.846046" lon="134.129495"><ele>361.47</ele><time>2026-08-12T01:12:20Z</time></trkpt>
<trkpt lat="34.846047" lon="134.12954"><ele>362.23</ele><time>2026-08-12T01:12:26Z</time></trkpt>
<trkpt lat="34.846044" lon="134.129555"><ele>361.98</ele><time>2026-08-12T01:12:27Z</time></trkpt>
<trkpt lat="34.846024" lon="134.129601"><ele>363.74</ele><time>2026-08-12T01:12:29Z</time></trkpt>
<trkpt lat="34.846015" lon="134.129614"><ele>363.74</ele><time>2026-08-12T01:12:30Z</time></trkpt>
<trkpt lat="34.846006" lon="134.129632"><ele>363.74</ele><time>2026-08-12T01:12:32Z</time></trkpt>
<trkpt lat="34.845992" lon="134.129687"><ele>364.41</ele><time>2026-08-12T01:12:38Z</time></trkpt>
<trkpt lat="34.845982" lon="134.12971"><ele>364.41</ele><time>2026-08-12T01:12:40Z</time></trkpt>
<trkpt lat="34.845988" lon="134.129742"><ele>364.26</ele><time>2026-08-12T01:12:43Z</time></trkpt>
<trkpt lat="34.845975" lon="134.129766"><ele>364.52</ele><time>2026-08-12T01:12:45Z</time></trkpt>
<trkpt lat="34.845964" lon="134.129785"><ele>366.39</ele><time>2026-08-12T01:12:47Z</time></trkpt>
<trkpt lat="34.845962" lon="134.1298"><ele>366.39</ele><time>2026-08-12T01:12:50Z</time></trkpt>
<trkpt lat="34.845964" lon="134.129807"><ele>367.36</ele><time>2026-08-12T01:12:53Z</time></trkpt>
<trkpt lat="34.845964" lon="134.129812"><ele>367.36</ele><time>2026-08-12T01:12:55Z</time></trkpt>
<trkpt lat="34.845944" lon="134.129836"><ele>367.36</ele><time>2026-08-12T01:12:59Z</time></trkpt>
<trkpt lat="34.845933" lon="134.12985"><ele>368.11</ele><time>2026-08-12T01:13:01Z</time></trkpt>
<trkpt lat="34.845925" lon="134.129863"><ele>370.13</ele><time>2026-08-12T01:13:03Z</time></trkpt>
<trkpt lat="34.845904" lon="134.129904"><ele>371.6</ele><time>2026-08-12T01:13:07Z</time></trkpt>
<trkpt lat="34.845911" lon="134.129915"><ele>371.6</ele><time>2026-08-12T01:13:09Z</time></trkpt>
<trkpt lat="34.845925" lon="134.129949"><ele>372.63</ele><time>2026-08-12T01:13:12Z</time></trkpt>
<trkpt lat="34.845921" lon="134.129976"><ele>372.63</ele><time>2026-08-12T01:13:16Z</time></trkpt>
<trkpt lat="34.845919" lon="134.129977"><ele>372.63</ele><time>2026-08-12T01:13:20Z</time></trkpt>
<trkpt lat="34.845919" lon="134.12998"><ele>373.76</ele><time>2026-08-12T01:13:22Z</time></trkpt>
<trkpt lat="34.845919" lon="134.129998"><ele>373.76</ele><time>2026-08-12T01:13:25Z</time></trkpt>
<trkpt lat="34.8459" lon="134.130041"><ele>375.06</ele><time>2026-08-12T01:13:30Z</time></trkpt>
<trkpt lat="34.8459" lon="134.130048"><ele>375.06</ele><time>2026-08-12T01:13:31Z</time></trkpt>
<trkpt lat="34.845906" lon="134.13006"><ele>375.06</ele><time>2026-08-12T01:13:33Z</time></trkpt>
<trkpt lat="34.845903" lon="134.130091"><ele>376.56</ele><time>2026-08-12T01:13:37Z</time></trkpt>
<trkpt lat="34.8459" lon="134.1301"><ele>376.56</ele><time>2026-08-12T01:13:39Z</time></trkpt>
<trkpt lat="34.845889" lon="134.130124"><ele>379.97</ele><time>2026-08-12T01:13:42Z</time></trkpt>
<trkpt lat="34.845861" lon="134.130178"><ele>381.14</ele><time>2026-08-12T01:13:46Z</time></trkpt>
<trkpt lat="34.845856" lon="134.130181"><ele>382.35</ele><time>2026-08-12T01:13:47Z</time></trkpt>
<trkpt lat="34.845852" lon="134.130182"><ele>382.35</ele><time>2026-08-12T01:13:51Z</time></trkpt>
<trkpt lat="34.845831" lon="134.130204"><ele>382.92</ele><time>2026-08-12T01:13:55Z</time></trkpt>
<trkpt lat="34.845824" lon="134.130204"><ele>384.22</ele><time>2026-08-12T01:13:57Z</time></trkpt>
<trkpt lat="34.845817" lon="134.130219"><ele>384.22</ele><time>2026-08-12T01:14:02Z</time></trkpt>
<trkpt lat="34.845814" lon="134.130224"><ele>384.22</ele><time>2026-08-12T01:14:04Z</time></trkpt>
<trkpt lat="34.845802" lon="134.130234"><ele>384.22</ele><time>2026-08-12T01:14:08Z</time></trkpt>
<trkpt lat="34.845791" lon="134.130256"><ele>384.39</ele><time>2026-08-12T01:14:11Z</time></trkpt>
<trkpt lat="34.845784" lon="134.130261"><ele>386.33</ele><time>2026-08-12T01:14:12Z</time></trkpt>
<trkpt lat="34.84576" lon="134.130282"><ele>385.72</ele><time>2026-08-12T01:14:18Z</time></trkpt>
<trkpt lat="34.845758" lon="134.130288"><ele>385.72</ele><time>2026-08-12T01:14:20Z</time></trkpt>
<trkpt lat="34.845734" lon="134.130321"><ele>387.3</ele><time>2026-08-12T01:14:24Z</time></trkpt>
<trkpt lat="34.845708" lon="134.130331"><ele>390.24</ele><time>2026-08-12T01:14:27Z</time></trkpt>
<trkpt lat="34.845706" lon="134.130334"><ele>390.24</ele><time>2026-08-12T01:14:28Z</time></trkpt>
<trkpt lat="34.845689" lon="134.130351"><ele>390.24</ele><time>2026-08-12T01:14:33Z</time></trkpt>
<trkpt lat="34.845683" lon="134.130361"><ele>392.56</ele><time>2026-08-12T01:14:35Z</time></trkpt>
<trkpt lat="34.845669" lon="134.130366"><ele>391.66</ele><time>2026-08-12T01:14:36Z</time></trkpt>
<trkpt lat="34.845659" lon="134.130369"><ele>391.66</ele><time>2026-08-12T01:14:37Z</time></trkpt>
<trkpt lat="34.845636" lon="134.130394"><ele>394.15</ele><time>2026-08-12T01:14:42Z</time></trkpt>
<trkpt lat="34.845633" lon="134.130404"><ele>394.15</ele><time>2026-08-12T01:14:43Z</time></trkpt>
<trkpt lat="34.845603" lon="134.130452"><ele>395.12</ele><time>2026-08-12T01:14:48Z</time></trkpt>
<trkpt lat="34.845574" lon="134.130488"><ele>397.11</ele><time>2026-08-12T01:14:53Z</time></trkpt>
<trkpt lat="34.845567" lon="134.130497"><ele>396.56</ele><time>2026-08-12T01:14:54Z</time></trkpt>
<trkpt lat="34.84556" lon="134.130504"><ele>396.56</ele><time>2026-08-12T01:14:55Z</time></trkpt>
<trkpt lat="34.84553" lon="134.130496"><ele>398.96</ele><time>2026-08-12T01:14:59Z</time></trkpt>
<trkpt lat="34.845519" lon="134.130493"><ele>398.96</ele><time>2026-08-12T01:15:00Z</time></trkpt>
<trkpt lat="34.845477" lon="134.130517"><ele>400.31</ele><time>2026-08-12T01:15:07Z</time></trkpt>
<trkpt lat="34.845473" lon="134.130526"><ele>400.31</ele><time>2026-08-12T01:15:08Z</time></trkpt>
<trkpt lat="34.845463" lon="134.130564"><ele>402.25</ele><time>2026-08-12T01:15:12Z</time></trkpt>
<trkpt lat="34.845451" lon="134.130586"><ele>402.48</ele><time>2026-08-12T01:15:16Z</time></trkpt>
<trkpt lat="34.845451" lon="134.130594"><ele>402.48</ele><time>2026-08-12T01:15:17Z</time></trkpt>
<trkpt lat="34.845428" lon="134.130628"><ele>403.5</ele><time>2026-08-12T01:15:21Z</time></trkpt>
<trkpt lat="34.845405" lon="134.13066"><ele>403.5</ele><time>2026-08-12T01:15:23Z</time></trkpt>
<trkpt lat="34.845351" lon="134.130805"><ele>402.28</ele><time>2026-08-12T01:15:31Z</time></trkpt>
<trkpt lat="34.845346" lon="134.13092"><ele>400.93</ele><time>2026-08-12T01:15:37Z</time></trkpt>
<trkpt lat="34.845342" lon="134.130966"><ele>401.14</ele><time>2026-08-12T01:15:39Z</time></trkpt>
<trkpt lat="34.845326" lon="134.131045"><ele>402.14</ele><time>2026-08-12T01:15:43Z</time></trkpt>
<trkpt lat="34.845334" lon="134.131064"><ele>401.45</ele><time>2026-08-12T01:15:44Z</time></trkpt>
<trkpt lat="34.845378" lon="134.131195"><ele>399.84</ele><time>2026-08-12T01:15:50Z</time></trkpt>
<trkpt lat="34.845394" lon="134.131341"><ele>399.29</ele><time>2026-08-12T01:15:56Z</time></trkpt>
<trkpt lat="34.845399" lon="134.131369"><ele>399.4</ele><time>2026-08-12T01:15:57Z</time></trkpt>
<trkpt lat="34.845417" lon="134.131499"><ele>399.26</ele><time>2026-08-12T01:16:03Z</time></trkpt>
<trkpt lat="34.845436" lon="134.131541"><ele>400.35</ele><time>2026-08-12T01:16:05Z</time></trkpt>
<trkpt lat="34.845483" lon="134.131643"><ele>398.61</ele><time>2026-08-12T01:16:11Z</time></trkpt>
<trkpt lat="34.845518" lon="134.131732"><ele>398.43</ele><time>2026-08-12T01:16:16Z</time></trkpt>
<trkpt lat="34.845529" lon="134.131766"><ele>399.53</ele><time>2026-08-12T01:16:18Z</time></trkpt>
<trkpt lat="34.845549" lon="134.131797"><ele>399.77</ele><time>2026-08-12T01:16:20Z</time></trkpt>
<trkpt lat="34.845582" lon="134.131811"><ele>398.65</ele><time>2026-08-12T01:16:22Z</time></trkpt>
<trkpt lat="34.845599" lon="134.13183"><ele>400.74</ele><time>2026-08-12T01:16:24Z</time></trkpt>
<trkpt lat="34.845603" lon="134.131849"><ele>400.74</ele><time>2026-08-12T01:16:25Z</time></trkpt>
<trkpt lat="34.845603" lon="134.131881"><ele>402.54</ele><time>2026-08-12T01:16:27Z</time></trkpt>
<trkpt lat="34.845605" lon="134.131902"><ele>402.54</ele><time>2026-08-12T01:16:28Z</time></trkpt>
<trkpt lat="34.845611" lon="134.131923"><ele>403.93</ele><time>2026-08-12T01:16:29Z</time></trkpt>
<trkpt lat="34.845672" lon="134.132128"><ele>404.76</ele><time>2026-08-12T01:16:37Z</time></trkpt>
<trkpt lat="34.845677" lon="134.132198"><ele>405.93</ele><time>2026-08-12T01:16:41Z</time></trkpt>
<trkpt lat="34.845675" lon="134.132247"><ele>406.65</ele><time>2026-08-12T01:16:44Z</time></trkpt>
<trkpt lat="34.845681" lon="134.132289"><ele>407.05</ele><time>2026-08-12T01:16:47Z</time></trkpt>
<trkpt lat="34.845689" lon="134.132302"><ele>406.14</ele><time>2026-08-12T01:16:49Z</time></trkpt>
<trkpt lat="34.845687" lon="134.1323"><ele>406.14</ele><time>2026-08-12T01:16:50Z</time></trkpt>
<trkpt lat="34.845685" lon="134.132292"><ele>405.82</ele><time>2026-08-12T01:16:55Z</time></trkpt>
<trkpt lat="34.845649" lon="134.132321"><ele>407.31</ele><time>2026-08-12T01:17:01Z</time></trkpt>
<trkpt lat="34.84572" lon="134.132431"><ele>406.82</ele><time>2026-08-12T01:17:07Z</time></trkpt>
<trkpt lat="34.845777" lon="134.132575"><ele>406.8</ele><time>2026-08-12T01:17:14Z</time></trkpt>
<trkpt lat="34.845785" lon="134.132602"><ele>406.31</ele><time>2026-08-12T01:17:15Z</time></trkpt>
<trkpt lat="34.8458" lon="134.13268"><ele>406.07</ele><time>2026-08-12T01:17:18Z</time></trkpt>
<trkpt lat="34.845813" lon="134.132727"><ele>405.96</ele><time>2026-08-12T01:17:20Z</time></trkpt>
<trkpt lat="34.845819" lon="134.132759"><ele>405.96</ele><time>2026-08-12T01:17:21Z</time></trkpt>
<trkpt lat="34.845843" lon="134.132913"><ele>405.21</ele><time>2026-08-12T01:17:26Z</time></trkpt>
<trkpt lat="34.845853" lon="134.132964"><ele>405.24</ele><time>2026-08-12T01:17:28Z</time></trkpt>
<trkpt lat="34.8459" lon="134.133114"><ele>405.19</ele><time>2026-08-12T01:17:34Z</time></trkpt>
<trkpt lat="34.845894" lon="134.133223"><ele>404.56</ele><time>2026-08-12T01:17:38Z</time></trkpt>
<trkpt lat="34.845888" lon="134.13326"><ele>403.77</ele><time>2026-08-12T01:17:40Z</time></trkpt>
<trkpt lat="34.845894" lon="134.133286"><ele>402.31</ele><time>2026-08-12T01:17:41Z</time></trkpt>
<trkpt lat="34.8459" lon="134.133317"><ele>401.68</ele><time>2026-08-12T01:17:42Z</time></trkpt>
<trkpt lat="34.845912" lon="134.133421"><ele>400.78</ele><time>2026-08-12T01:17:45Z</time></trkpt>
<trkpt lat="34.845977" lon="134.133547"><ele>398.64</ele><time>2026-08-12T01:17:51Z</time></trkpt>
<trkpt lat="34.846053" lon="134.133654"><ele>398.48</ele><time>2026-08-12T01:17:56Z</time></trkpt>
<trkpt lat="34.846077" lon="134.133704"><ele>398.72</ele><time>2026-08-12T01:17:58Z</time></trkpt>
<trkpt lat="34.846083" lon="134.133795"><ele>399.54</ele><time>2026-08-12T01:18:01Z</time></trkpt>
<trkpt lat="34.846081" lon="134.133983"><ele>398.07</ele><time>2026-08-12T01:18:08Z</time></trkpt>
<trkpt lat="34.846063" lon="134.134032"><ele>397.05</ele><time>2026-08-12T01:18:10Z</time></trkpt>
<trkpt lat="34.846036" lon="134.134082"><ele>396.22</ele><time>2026-08-12T01:18:13Z</time></trkpt>
<trkpt lat="34.846023" lon="134.134099"><ele>395.72</ele><time>2026-08-12T01:18:14Z</time></trkpt>
<trkpt lat="34.845996" lon="134.134128"><ele>395.1</ele><time>2026-08-12T01:18:16Z</time></trkpt>
<trkpt lat="34.845951" lon="134.134166"><ele>394.28</ele><time>2026-08-12T01:18:19Z</time></trkpt>
<trkpt lat="34.845922" lon="134.134203"><ele>393.72</ele><time>2026-08-12T01:18:20Z</time></trkpt>
<trkpt lat="34.845848" lon="134.134251"><ele>392.54</ele><time>2026-08-12T01:18:23Z</time></trkpt>
<trkpt lat="34.845728" lon="134.134277"><ele>391.5</ele><time>2026-08-12T01:18:28Z</time></trkpt>
<trkpt lat="34.845637" lon="134.134333"><ele>390.96</ele><time>2026-08-12T01:18:32Z</time></trkpt>
<trkpt lat="34.845578" lon="134.134374"><ele>390.76</ele><time>2026-08-12T01:18:36Z</time></trkpt>
<trkpt lat="34.845415" lon="134.134471"><ele>390.01</ele><time>2026-08-12T01:18:42Z</time></trkpt>
<trkpt lat="34.845338" lon="134.134539"><ele>389.23</ele><time>2026-08-12T01:18:45Z</time></trkpt>
<trkpt lat="34.845217" lon="134.134718"><ele>390.1</ele><time>2026-08-12T01:18:54Z</time></trkpt>
<trkpt lat="34.845114" lon="134.134903"><ele>390.25</ele><time>2026-08-12T01:19:02Z</time></trkpt>
<trkpt lat="34.845029" lon="134.135023"><ele>391.46</ele><time>2026-08-12T01:19:07Z</time></trkpt>
<trkpt lat="34.845017" lon="134.135048"><ele>391.79</ele><time>2026-08-12T01:19:08Z</time></trkpt>
<trkpt lat="34.844983" lon="134.135134"><ele>391.84</ele><time>2026-08-12T01:19:13Z</time></trkpt>
<trkpt lat="34.844951" lon="134.135208"><ele>391.54</ele><time>2026-08-12T01:19:19Z</time></trkpt>
<trkpt lat="34.844927" lon="134.135328"><ele>391.04</ele><time>2026-08-12T01:19:24Z</time></trkpt>
<trkpt lat="34.844899" lon="134.135432"><ele>390.26</ele><time>2026-08-12T01:19:27Z</time></trkpt>
<trkpt lat="34.844888" lon="134.135466"><ele>390.26</ele><time>2026-08-12T01:19:28Z</time></trkpt>
<trkpt lat="34.844832" lon="134.135649"><ele>389.78</ele><time>2026-08-12T01:19:34Z</time></trkpt>
<trkpt lat="34.844763" lon="134.135858"><ele>389.91</ele><time>2026-08-12T01:19:41Z</time></trkpt>
<trkpt lat="34.844751" lon="134.135892"><ele>389.91</ele><time>2026-08-12T01:19:42Z</time></trkpt>
<trkpt lat="34.844706" lon="134.136106"><ele>388.82</ele><time>2026-08-12T01:19:49Z</time></trkpt>
<trkpt lat="34.8456857" lon="134.1356027"><ele>398.0</ele><time>2026-08-12T02:40:06Z</time></trkpt>
<trkpt lat="34.8456879" lon="134.1356141"><ele>398.0</ele><time>2026-08-12T02:40:36Z</time></trkpt>
<trkpt lat="34.845695" lon="134.1356254"><ele>398.0</ele><time>2026-08-12T02:40:37Z</time></trkpt>
<trkpt lat="34.8456991" lon="134.1356297"><ele>398.0</ele><time>2026-08-12T02:40:38Z</time></trkpt>
<trkpt lat="34.8457032" lon="134.1356341"><ele>398.0</ele><time>2026-08-12T02:40:39Z</time></trkpt>
<trkpt lat="34.8457073" lon="134.1356385"><ele>398.0</ele><time>2026-08-12T02:40:40Z</time></trkpt>
<trkpt lat="34.8457227" lon="134.1356535"><ele>398.0</ele><time>2026-08-12T02:40:41Z</time></trkpt>
<trkpt lat="34.8457292" lon="134.1356597"><ele>398.0</ele><time>2026-08-12T02:40:42Z</time></trkpt>
<trkpt lat="34.8457357" lon="134.1356659"><ele>398.0</ele><time>2026-08-12T02:40:43Z</time></trkpt>
<trkpt lat="34.8457423" lon="134.1356721"><ele>398.0</ele><time>2026-08-12T02:40:44Z</time></trkpt>
<trkpt lat="34.8457662" lon="134.1356976"><ele>398.0</ele><time>2026-08-12T02:40:45Z</time></trkpt>
<trkpt lat="34.8457734" lon="134.1357088"><ele>398.0</ele><time>2026-08-12T02:40:46Z</time></trkpt>
<trkpt lat="34.8457807" lon="134.1357201"><ele>398.0</ele><time>2026-08-12T02:40:47Z</time></trkpt>
<trkpt lat="34.845788" lon="134.1357314"><ele>398.0</ele><time>2026-08-12T02:40:48Z</time></trkpt>
<trkpt lat="34.845808" lon="134.1357637"><ele>398.0</ele><time>2026-08-12T02:40:49Z</time></trkpt>
<trkpt lat="34.8458159" lon="134.135772"><ele>398.0</ele><time>2026-08-12T02:40:50Z</time></trkpt>
<trkpt lat="34.8458238" lon="134.1357803"><ele>398.0</ele><time>2026-08-12T02:40:51Z</time></trkpt>
<trkpt lat="34.8458317" lon="134.1357887"><ele>398.0</ele><time>2026-08-12T02:40:52Z</time></trkpt>
<trkpt lat="34.8458567" lon="134.1358124"><ele>398.0</ele><time>2026-08-12T02:40:53Z</time></trkpt>
<trkpt lat="34.8458636" lon="134.1358212"><ele>398.0</ele><time>2026-08-12T02:40:54Z</time></trkpt>
<trkpt lat="34.8458705" lon="134.13583"><ele>398.0</ele><time>2026-08-12T02:40:55Z</time></trkpt>
<trkpt lat="34.8458775" lon="134.1358388"><ele>398.0</ele><time>2026-08-12T02:40:56Z</time></trkpt>
<trkpt lat="34.8458966" lon="134.1358731"><ele>398.0</ele><time>2026-08-12T02:40:57Z</time></trkpt>
<trkpt lat="34.8459036" lon="134.1358879"><ele>398.0</ele><time>2026-08-12T02:40:58Z</time></trkpt>
<trkpt lat="34.8459106" lon="134.1359027"><ele>398.0</ele><time>2026-08-12T02:40:59Z</time></trkpt>
<trkpt lat="34.8459176" lon="134.1359176"><ele>398.0</ele><time>2026-08-12T02:41:00Z</time></trkpt>
<trkpt lat="34.8459417" lon="134.1359655"><ele>398.0</ele><time>2026-08-12T02:41:01Z</time></trkpt>
<trkpt lat="34.8459521" lon="134.1359799"><ele>398.0</ele><time>2026-08-12T02:41:02Z</time></trkpt>
<trkpt lat="34.8459625" lon="134.1359944"><ele>398.0</ele><time>2026-08-12T02:41:03Z</time></trkpt>
<trkpt lat="34.8459729" lon="134.1360089"><ele>398.0</ele><time>2026-08-12T02:41:04Z</time></trkpt>
<trkpt lat="34.8460059" lon="134.1360488"><ele>398.0</ele><time>2026-08-12T02:41:05Z</time></trkpt>
<trkpt lat="34.8460157" lon="134.1360609"><ele>398.0</ele><time>2026-08-12T02:41:06Z</time></trkpt>
<trkpt lat="34.8460255" lon="134.1360731"><ele>398.0</ele><time>2026-08-12T02:41:07Z</time></trkpt>
<trkpt lat="34.8460353" lon="134.1360853"><ele>398.0</ele><time>2026-08-12T02:41:08Z</time></trkpt>
<trkpt lat="34.8460619" lon="134.1361238"><ele>398.0</ele><time>2026-08-12T02:41:09Z</time></trkpt>
<trkpt lat="34.8460708" lon="134.1361377"><ele>398.0</ele><time>2026-08-12T02:41:10Z</time></trkpt>
<trkpt lat="34.8460797" lon="134.1361516"><ele>398.0</ele><time>2026-08-12T02:41:11Z</time></trkpt>
<trkpt lat="34.8460886" lon="134.1361655"><ele>398.0</ele><time>2026-08-12T02:41:12Z</time></trkpt>
<trkpt lat="34.8461152" lon="134.1362077"><ele>398.0</ele><time>2026-08-12T02:41:13Z</time></trkpt>
<trkpt lat="34.8461235" lon="134.1362225"><ele>398.0</ele><time>2026-08-12T02:41:14Z</time></trkpt>
<trkpt lat="34.8461318" lon="134.1362373"><ele>398.0</ele><time>2026-08-12T02:41:15Z</time></trkpt>
<trkpt lat="34.8461402" lon="134.1362522"><ele>398.0</ele><time>2026-08-12T02:41:16Z</time></trkpt>
<trkpt lat="34.8461671" lon="134.1362944"><ele>398.0</ele><time>2026-08-12T02:41:17Z</time></trkpt>
<trkpt lat="34.8461776" lon="134.1363076"><ele>398.0</ele><time>2026-08-12T02:41:18Z</time></trkpt>
<trkpt lat="34.8461882" lon="134.1363208"><ele>398.0</ele><time>2026-08-12T02:41:19Z</time></trkpt>
<trkpt lat="34.8461988" lon="134.136334"><ele>398.0</ele><time>2026-08-12T02:41:20Z</time></trkpt>
<trkpt lat="34.8462347" lon="134.1363705"><ele>398.0</ele><time>2026-08-12T02:41:21Z</time></trkpt>
<trkpt lat="34.8462457" lon="134.136382"><ele>398.0</ele><time>2026-08-12T02:41:22Z</time></trkpt>
<trkpt lat="34.8462568" lon="134.1363936"><ele>398.0</ele><time>2026-08-12T02:41:23Z</time></trkpt>
<trkpt lat="34.8462679" lon="134.1364052"><ele>398.0</ele><time>2026-08-12T02:41:24Z</time></trkpt>
<trkpt lat="34.8462998" lon="134.1364423"><ele>398.0</ele><time>2026-08-12T02:41:25Z</time></trkpt>
<trkpt lat="34.8463093" lon="134.1364556"><ele>398.0</ele><time>2026-08-12T02:41:26Z</time></trkpt>
<trkpt lat="34.8463188" lon="134.1364689"><ele>398.0</ele><time>2026-08-12T02:41:27Z</time></trkpt>
<trkpt lat="34.8463283" lon="134.1364822"><ele>398.0</ele><time>2026-08-12T02:41:28Z</time></trkpt>
<trkpt lat="34.8463553" lon="134.1365222"><ele>398.0</ele><time>2026-08-12T02:41:29Z</time></trkpt>
<trkpt lat="34.8463654" lon="134.1365346"><ele>398.0</ele><time>2026-08-12T02:41:30Z</time></trkpt>
<trkpt lat="34.8463755" lon="134.1365471"><ele>398.0</ele><time>2026-08-12T02:41:31Z</time></trkpt>
<trkpt lat="34.8463857" lon="134.1365596"><ele>398.0</ele><time>2026-08-12T02:41:32Z</time></trkpt>
<trkpt lat="34.846417" lon="134.1366017"><ele>398.0</ele><time>2026-08-12T02:41:33Z</time></trkpt>
<trkpt lat="34.8464261" lon="134.1366164"><ele>398.0</ele><time>2026-08-12T02:41:34Z</time></trkpt>
<trkpt lat="34.8464353" lon="134.1366311"><ele>397.0</ele><time>2026-08-12T02:41:35Z</time></trkpt>
<trkpt lat="34.8464445" lon="134.1366458"><ele>397.0</ele><time>2026-08-12T02:41:36Z</time></trkpt>
<trkpt lat="34.8464687" lon="134.1366892"><ele>397.0</ele><time>2026-08-12T02:41:37Z</time></trkpt>
<trkpt lat="34.8464784" lon="134.1367035"><ele>397.0</ele><time>2026-08-12T02:41:38Z</time></trkpt>
<trkpt lat="34.8464881" lon="134.1367179"><ele>397.0</ele><time>2026-08-12T02:41:39Z</time></trkpt>
<trkpt lat="34.8464979" lon="134.1367323"><ele>397.0</ele><time>2026-08-12T02:41:40Z</time></trkpt>
<trkpt lat="34.8465284" lon="134.136771"><ele>397.0</ele><time>2026-08-12T02:41:41Z</time></trkpt>
<trkpt lat="34.8465331" lon="134.1367884"><ele>396.0</ele><time>2026-08-12T02:41:49Z</time></trkpt>
<trkpt lat="34.8465306" lon="134.1368005"><ele>396.0</ele><time>2026-08-12T02:41:50Z</time></trkpt>
<trkpt lat="34.8465286" lon="134.1367961"><ele>396.0</ele><time>2026-08-12T02:41:51Z</time></trkpt>
<trkpt lat="34.8465266" lon="134.1367917"><ele>396.0</ele><time>2026-08-12T02:41:52Z</time></trkpt>
<trkpt lat="34.8465246" lon="134.1367874"><ele>396.0</ele><time>2026-08-12T02:41:53Z</time></trkpt>
<trkpt lat="34.8465283" lon="134.1367606"><ele>396.0</ele><time>2026-08-12T02:41:54Z</time></trkpt>
<trkpt lat="34.8465328" lon="134.1367524"><ele>396.0</ele><time>2026-08-12T02:41:55Z</time></trkpt>
<trkpt lat="34.8465373" lon="134.1367442"><ele>396.0</ele><time>2026-08-12T02:41:56Z</time></trkpt>
<trkpt lat="34.8465418" lon="134.136736"><ele>396.0</ele><time>2026-08-12T02:41:57Z</time></trkpt>
<trkpt lat="34.8465618" lon="134.1367187"><ele>396.0</ele><time>2026-08-12T02:41:58Z</time></trkpt>
<trkpt lat="34.8465687" lon="134.1367148"><ele>396.0</ele><time>2026-08-12T02:41:59Z</time></trkpt>
<trkpt lat="34.8465756" lon="134.1367109"><ele>396.0</ele><time>2026-08-12T02:42:00Z</time></trkpt>
<trkpt lat="34.8465825" lon="134.1367071"><ele>396.0</ele><time>2026-08-12T02:42:01Z</time></trkpt>
<trkpt lat="34.8466021" lon="134.1367036"><ele>396.0</ele><time>2026-08-12T02:42:02Z</time></trkpt>
<trkpt lat="34.8466077" lon="134.1367076"><ele>396.0</ele><time>2026-08-12T02:42:03Z</time></trkpt>
<trkpt lat="34.8466134" lon="134.1367116"><ele>396.0</ele><time>2026-08-12T02:42:04Z</time></trkpt>
<trkpt lat="34.8466191" lon="134.1367156"><ele>396.0</ele><time>2026-08-12T02:42:05Z</time></trkpt>
<trkpt lat="34.8466302" lon="134.1367392"><ele>396.0</ele><time>2026-08-12T02:42:06Z</time></trkpt>
<trkpt lat="34.8466346" lon="134.136746"><ele>395.0</ele><time>2026-08-12T02:42:07Z</time></trkpt>
<trkpt lat="34.846639" lon="134.1367528"><ele>395.0</ele><time>2026-08-12T02:42:08Z</time></trkpt>
<trkpt lat="34.8466435" lon="134.1367597"><ele>395.0</ele><time>2026-08-12T02:42:09Z</time></trkpt>
<trkpt lat="34.8466622" lon="134.136778"><ele>395.0</ele><time>2026-08-12T02:42:10Z</time></trkpt>
<trkpt lat="34.8466686" lon="134.1367806"><ele>395.0</ele><time>2026-08-12T02:42:11Z</time></trkpt>
<trkpt lat="34.846675" lon="134.1367833"><ele>395.0</ele><time>2026-08-12T02:42:12Z</time></trkpt>
<trkpt lat="34.8466814" lon="134.136786"><ele>395.0</ele><time>2026-08-12T02:42:13Z</time></trkpt>
<trkpt lat="34.8467013" lon="134.1367896"><ele>395.0</ele><time>2026-08-12T02:42:14Z</time></trkpt>
<trkpt lat="34.8467082" lon="134.1367894"><ele>395.0</ele><time>2026-08-12T02:42:15Z</time></trkpt>
<trkpt lat="34.8467151" lon="134.1367893"><ele>395.0</ele><time>2026-08-12T02:42:16Z</time></trkpt>
<trkpt lat="34.846722" lon="134.1367892"><ele>395.0</ele><time>2026-08-12T02:42:17Z</time></trkpt>
<trkpt lat="34.84675" lon="134.1367877"><ele>395.0</ele><time>2026-08-12T02:42:18Z</time></trkpt>
<trkpt lat="34.8467619" lon="134.1367863"><ele>394.0</ele><time>2026-08-12T02:42:19Z</time></trkpt>
<trkpt lat="34.8467739" lon="134.1367849"><ele>394.0</ele><time>2026-08-12T02:42:20Z</time></trkpt>
<trkpt lat="34.8467859" lon="134.1367836"><ele>394.0</ele><time>2026-08-12T02:42:21Z</time></trkpt>
<trkpt lat="34.8468272" lon="134.1367762"><ele>394.0</ele><time>2026-08-12T02:42:22Z</time></trkpt>
<trkpt lat="34.8468413" lon="134.1367744"><ele>393.0</ele><time>2026-08-12T02:42:23Z</time></trkpt>
<trkpt lat="34.8468555" lon="134.1367727"><ele>393.0</ele><time>2026-08-12T02:42:24Z</time></trkpt>
<trkpt lat="34.8468697" lon="134.136771"><ele>393.0</ele><time>2026-08-12T02:42:25Z</time></trkpt>
<trkpt lat="34.8469073" lon="134.1367645"><ele>393.0</ele><time>2026-08-12T02:42:26Z</time></trkpt>
<trkpt lat="34.8469193" lon="134.1367618"><ele>392.0</ele><time>2026-08-12T02:42:27Z</time></trkpt>
<trkpt lat="34.8469314" lon="134.1367592"><ele>392.0</ele><time>2026-08-12T02:42:28Z</time></trkpt>
<trkpt lat="34.8469435" lon="134.1367566"><ele>391.0</ele><time>2026-08-12T02:42:29Z</time></trkpt>
<trkpt lat="34.8469791" lon="134.1367534"><ele>391.0</ele><time>2026-08-12T02:42:30Z</time></trkpt>
<trkpt lat="34.8469903" lon="134.1367547"><ele>390.0</ele><time>2026-08-12T02:42:31Z</time></trkpt>
<trkpt lat="34.8470015" lon="134.1367561"><ele>390.0</ele><time>2026-08-12T02:42:32Z</time></trkpt>
<trkpt lat="34.8470127" lon="134.1367575"><ele>390.0</ele><time>2026-08-12T02:42:33Z</time></trkpt>
<trkpt lat="34.8470467" lon="134.136766"><ele>390.0</ele><time>2026-08-12T02:42:34Z</time></trkpt>
<trkpt lat="34.8470569" lon="134.1367691"><ele>389.0</ele><time>2026-08-12T02:42:35Z</time></trkpt>
<trkpt lat="34.8470672" lon="134.1367723"><ele>389.0</ele><time>2026-08-12T02:42:36Z</time></trkpt>
<trkpt lat="34.8470775" lon="134.1367755"><ele>388.0</ele><time>2026-08-12T02:42:37Z</time></trkpt>
<trkpt lat="34.8470907" lon="134.1367791"><ele>388.0</ele><time>2026-08-12T02:42:38Z</time></trkpt>
<trkpt lat="34.8470964" lon="134.1367816"><ele>387.0</ele><time>2026-08-12T02:42:39Z</time></trkpt>
<trkpt lat="34.8471021" lon="134.1367841"><ele>387.0</ele><time>2026-08-12T02:42:40Z</time></trkpt>
<trkpt lat="34.8471079" lon="134.1367867"><ele>387.0</ele><time>2026-08-12T02:42:41Z</time></trkpt>
<trkpt lat="34.8471249" lon="134.1367919"><ele>387.0</ele><time>2026-08-12T02:42:42Z</time></trkpt>
<trkpt lat="34.847131" lon="134.1367924"><ele>387.0</ele><time>2026-08-12T02:42:43Z</time></trkpt>
<trkpt lat="34.8471371" lon="134.1367929"><ele>387.0</ele><time>2026-08-12T02:42:44Z</time></trkpt>
<trkpt lat="34.8471432" lon="134.1367935"><ele>387.0</ele><time>2026-08-12T02:42:45Z</time></trkpt>
<trkpt lat="34.8471605" lon="134.1367933"><ele>387.0</ele><time>2026-08-12T02:42:46Z</time></trkpt>
<trkpt lat="34.8471664" lon="134.1367941"><ele>386.0</ele><time>2026-08-12T02:42:47Z</time></trkpt>
<trkpt lat="34.8471723" lon="134.1367949"><ele>386.0</ele><time>2026-08-12T02:42:48Z</time></trkpt>
<trkpt lat="34.8471782" lon="134.1367957"><ele>386.0</ele><time>2026-08-12T02:42:49Z</time></trkpt>
<trkpt lat="34.8471893" lon="134.1367974"><ele>386.0</ele><time>2026-08-12T02:42:50Z</time></trkpt>
<trkpt lat="34.8471965" lon="134.1367984"><ele>385.0</ele><time>2026-08-12T02:42:51Z</time></trkpt>
<trkpt lat="34.8472037" lon="134.1367995"><ele>385.0</ele><time>2026-08-12T02:42:52Z</time></trkpt>
<trkpt lat="34.847211" lon="134.1368006"><ele>385.0</ele><time>2026-08-12T02:42:53Z</time></trkpt>
<trkpt lat="34.8472334" lon="134.1368106"><ele>385.0</ele><time>2026-08-12T02:42:54Z</time></trkpt>
<trkpt lat="34.84724" lon="134.1368155"><ele>384.0</ele><time>2026-08-12T02:42:55Z</time></trkpt>
<trkpt lat="34.8472467" lon="134.1368204"><ele>384.0</ele><time>2026-08-12T02:42:56Z</time></trkpt>
<trkpt lat="34.8472534" lon="134.1368254"><ele>383.0</ele><time>2026-08-12T02:42:57Z</time></trkpt>
<trkpt lat="34.8472719" lon="134.1368365"><ele>383.0</ele><time>2026-08-12T02:42:58Z</time></trkpt>
<trkpt lat="34.8472782" lon="134.1368397"><ele>382.0</ele><time>2026-08-12T02:42:59Z</time></trkpt>
<trkpt lat="34.8472845" lon="134.136843"><ele>382.0</ele><time>2026-08-12T02:43:00Z</time></trkpt>
<trkpt lat="34.8472909" lon="134.1368463"><ele>382.0</ele><time>2026-08-12T02:43:01Z</time></trkpt>
<trkpt lat="34.8472965" lon="134.136848"><ele>382.0</ele><time>2026-08-12T02:43:02Z</time></trkpt>
<trkpt lat="34.8473021" lon="134.1368498"><ele>381.0</ele><time>2026-08-12T02:43:03Z</time></trkpt>
<trkpt lat="34.8473078" lon="134.1368516"><ele>381.0</ele><time>2026-08-12T02:43:04Z</time></trkpt>
<trkpt lat="34.8473196" lon="134.1368574"><ele>381.0</ele><time>2026-08-12T02:43:05Z</time></trkpt>
<trkpt lat="34.8473238" lon="134.1368634"><ele>381.0</ele><time>2026-08-12T02:43:06Z</time></trkpt>
<trkpt lat="34.847328" lon="134.1368695"><ele>380.0</ele><time>2026-08-12T02:43:07Z</time></trkpt>
<trkpt lat="34.8473323" lon="134.1368756"><ele>380.0</ele><time>2026-08-12T02:43:08Z</time></trkpt>
<trkpt lat="34.8473507" lon="134.1368981"><ele>379.0</ele><time>2026-08-12T02:43:09Z</time></trkpt>
<trkpt lat="34.847354" lon="134.1369012"><ele>379.0</ele><time>2026-08-12T02:43:10Z</time></trkpt>
<trkpt lat="34.8473573" lon="134.1369044"><ele>378.0</ele><time>2026-08-12T02:43:11Z</time></trkpt>
<trkpt lat="34.8473607" lon="134.1369076"><ele>377.0</ele><time>2026-08-12T02:43:12Z</time></trkpt>
<trkpt lat="34.8473761" lon="134.1369151"><ele>376.0</ele><time>2026-08-12T02:43:13Z</time></trkpt>
<trkpt lat="34.8473992" lon="134.136918"><ele>370.0</ele><time>2026-08-12T02:44:08Z</time></trkpt>
<trkpt lat="34.8474273" lon="134.1369213"><ele>369.0</ele><time>2026-08-12T02:44:09Z</time></trkpt>
<trkpt lat="34.8474359" lon="134.1369214"><ele>369.0</ele><time>2026-08-12T02:44:10Z</time></trkpt>
<trkpt lat="34.8474445" lon="134.1369215"><ele>368.0</ele><time>2026-08-12T02:44:11Z</time></trkpt>
<trkpt lat="34.8474532" lon="134.1369216"><ele>368.0</ele><time>2026-08-12T02:44:12Z</time></trkpt>
<trkpt lat="34.8474809" lon="134.136922"><ele>368.0</ele><time>2026-08-12T02:44:13Z</time></trkpt>
<trkpt lat="34.8474886" lon="134.1369233"><ele>368.0</ele><time>2026-08-12T02:44:14Z</time></trkpt>
<trkpt lat="34.8474963" lon="134.1369246"><ele>367.0</ele><time>2026-08-12T02:44:15Z</time></trkpt>
<trkpt lat="34.847504" lon="134.1369259"><ele>367.0</ele><time>2026-08-12T02:44:16Z</time></trkpt>
<trkpt lat="34.8475277" lon="134.1369309"><ele>366.0</ele><time>2026-08-12T02:44:17Z</time></trkpt>
<trkpt lat="34.8475381" lon="134.1369336"><ele>366.0</ele><time>2026-08-12T02:44:18Z</time></trkpt>
<trkpt lat="34.8475485" lon="134.1369364"><ele>365.0</ele><time>2026-08-12T02:44:19Z</time></trkpt>
<trkpt lat="34.8475589" lon="134.1369392"><ele>365.0</ele><time>2026-08-12T02:44:20Z</time></trkpt>
<trkpt lat="34.847589" lon="134.1369492"><ele>364.0</ele><time>2026-08-12T02:44:21Z</time></trkpt>
<trkpt lat="34.847597" lon="134.1369514"><ele>364.0</ele><time>2026-08-12T02:44:22Z</time></trkpt>
<trkpt lat="34.847605" lon="134.1369536"><ele>363.0</ele><time>2026-08-12T02:44:23Z</time></trkpt>
<trkpt lat="34.847613" lon="134.1369558"><ele>363.0</ele><time>2026-08-12T02:44:24Z</time></trkpt>
<trkpt lat="34.8476363" lon="134.1369607"><ele>362.0</ele><time>2026-08-12T02:44:25Z</time></trkpt>
<trkpt lat="34.8476454" lon="134.1369629"><ele>362.0</ele><time>2026-08-12T02:44:26Z</time></trkpt>
<trkpt lat="34.8476545" lon="134.1369652"><ele>361.0</ele><time>2026-08-12T02:44:27Z</time></trkpt>
<trkpt lat="34.8476636" lon="134.1369675"><ele>361.0</ele><time>2026-08-12T02:44:28Z</time></trkpt>
<trkpt lat="34.8476881" lon="134.1369741"><ele>360.0</ele><time>2026-08-12T02:44:29Z</time></trkpt>
<trkpt lat="34.8476942" lon="134.1369747"><ele>360.0</ele><time>2026-08-12T02:44:30Z</time></trkpt>
<trkpt lat="34.8477004" lon="134.1369753"><ele>359.0</ele><time>2026-08-12T02:44:31Z</time></trkpt>
<trkpt lat="34.8477066" lon="134.136976"><ele>359.0</ele><time>2026-08-12T02:44:32Z</time></trkpt>
<trkpt lat="34.8477279" lon="134.1369777"><ele>358.0</ele><time>2026-08-12T02:44:33Z</time></trkpt>
<trkpt lat="34.8477347" lon="134.1369804"><ele>358.0</ele><time>2026-08-12T02:44:34Z</time></trkpt>
<trkpt lat="34.8477415" lon="134.1369831"><ele>357.0</ele><time>2026-08-12T02:44:35Z</time></trkpt>
<trkpt lat="34.8477483" lon="134.1369858"><ele>357.0</ele><time>2026-08-12T02:44:36Z</time></trkpt>
<trkpt lat="34.8477638" lon="134.1369967"><ele>356.0</ele><time>2026-08-12T02:44:37Z</time></trkpt>
<trkpt lat="34.8477667" lon="134.1369975"><ele>356.0</ele><time>2026-08-12T02:44:38Z</time></trkpt>
<trkpt lat="34.8477696" lon="134.1369983"><ele>355.0</ele><time>2026-08-12T02:44:39Z</time></trkpt>
<trkpt lat="34.8477725" lon="134.1369991"><ele>355.0</ele><time>2026-08-12T02:44:40Z</time></trkpt>
<trkpt lat="34.8477754" lon="134.1369999"><ele>355.0</ele><time>2026-08-12T02:44:41Z</time></trkpt>
<trkpt lat="34.847782" lon="134.1369938"><ele>355.0</ele><time>2026-08-12T02:44:42Z</time></trkpt>
<trkpt lat="34.8477864" lon="134.1369895"><ele>354.0</ele><time>2026-08-12T02:44:43Z</time></trkpt>
<trkpt lat="34.8477909" lon="134.1369852"><ele>354.0</ele><time>2026-08-12T02:44:44Z</time></trkpt>
<trkpt lat="34.8477954" lon="134.136981"><ele>353.0</ele><time>2026-08-12T02:44:45Z</time></trkpt>
<trkpt lat="34.8478133" lon="134.1369656"><ele>353.0</ele><time>2026-08-12T02:44:46Z</time></trkpt>
<trkpt lat="34.8478188" lon="134.1369603"><ele>352.0</ele><time>2026-08-12T02:44:47Z</time></trkpt>
<trkpt lat="34.8478244" lon="134.136955"><ele>352.0</ele><time>2026-08-12T02:44:48Z</time></trkpt>
<trkpt lat="34.84783" lon="134.1369497"><ele>352.0</ele><time>2026-08-12T02:44:49Z</time></trkpt>
<trkpt lat="34.8478484" lon="134.1369392"><ele>352.0</ele><time>2026-08-12T02:44:50Z</time></trkpt>
<trkpt lat="34.8478553" lon="134.1369356"><ele>351.0</ele><time>2026-08-12T02:44:51Z</time></trkpt>
<trkpt lat="34.8478622" lon="134.136932"><ele>351.0</ele><time>2026-08-12T02:44:52Z</time></trkpt>
<trkpt lat="34.8478691" lon="134.1369285"><ele>350.0</ele><time>2026-08-12T02:44:53Z</time></trkpt>
<trkpt lat="34.8478858" lon="134.1369139"><ele>350.0</ele><time>2026-08-12T02:44:54Z</time></trkpt>
<trkpt lat="34.8478911" lon="134.1369088"><ele>349.0</ele><time>2026-08-12T02:44:55Z</time></trkpt>
<trkpt lat="34.8478964" lon="134.1369037"><ele>349.0</ele><time>2026-08-12T02:44:56Z</time></trkpt>
<trkpt lat="34.8479018" lon="134.1368986"><ele>348.0</ele><time>2026-08-12T02:44:57Z</time></trkpt>
<trkpt lat="34.8479216" lon="134.136892"><ele>348.0</ele><time>2026-08-12T02:44:58Z</time></trkpt>
<trkpt lat="34.8479287" lon="134.1368906"><ele>347.0</ele><time>2026-08-12T02:44:59Z</time></trkpt>
<trkpt lat="34.8479358" lon="134.1368892"><ele>347.0</ele><time>2026-08-12T02:45:00Z</time></trkpt>
<trkpt lat="34.847943" lon="134.1368878"><ele>346.0</ele><time>2026-08-12T02:45:01Z</time></trkpt>
<trkpt lat="34.8479636" lon="134.1368766"><ele>346.0</ele><time>2026-08-12T02:45:02Z</time></trkpt>
<trkpt lat="34.8479695" lon="134.1368711"><ele>345.0</ele><time>2026-08-12T02:45:03Z</time></trkpt>
<trkpt lat="34.8479754" lon="134.1368656"><ele>345.0</ele><time>2026-08-12T02:45:04Z</time></trkpt>
<trkpt lat="34.8479814" lon="134.1368601"><ele>345.0</ele><time>2026-08-12T02:45:05Z</time></trkpt>
<trkpt lat="34.8479858" lon="134.1368547"><ele>345.0</ele><time>2026-08-12T02:45:06Z</time></trkpt>
<trkpt lat="34.8479902" lon="134.1368493"><ele>344.0</ele><time>2026-08-12T02:45:07Z</time></trkpt>
<trkpt lat="34.8479947" lon="134.1368439"><ele>344.0</ele><time>2026-08-12T02:45:08Z</time></trkpt>
<trkpt lat="34.8479977" lon="134.1368278"><ele>344.0</ele><time>2026-08-12T02:45:09Z</time></trkpt>
<trkpt lat="34.8479968" lon="134.1368227"><ele>344.0</ele><time>2026-08-12T02:45:10Z</time></trkpt>
<trkpt lat="34.847996" lon="134.1368176"><ele>343.0</ele><time>2026-08-12T02:45:11Z</time></trkpt>
<trkpt lat="34.8479952" lon="134.1368125"><ele>343.0</ele><time>2026-08-12T02:45:12Z</time></trkpt>
<trkpt lat="34.847993" lon="134.136798"><ele>343.0</ele><time>2026-08-12T02:45:13Z</time></trkpt>
<trkpt lat="34.8479927" lon="134.136795"><ele>343.0</ele><time>2026-08-12T02:45:14Z</time></trkpt>
<trkpt lat="34.8479925" lon="134.1367921"><ele>342.0</ele><time>2026-08-12T02:45:15Z</time></trkpt>
<trkpt lat="34.8479923" lon="134.1367892"><ele>342.0</ele><time>2026-08-12T02:45:16Z</time></trkpt>
<trkpt lat="34.8479919" lon="134.1367705"><ele>342.0</ele><time>2026-08-12T02:45:17Z</time></trkpt>
<trkpt lat="34.8480078" lon="134.1367531"><ele>341.0</ele><time>2026-08-12T02:45:50Z</time></trkpt>
<trkpt lat="34.848012" lon="134.136752"><ele>341.0</ele><time>2026-08-12T02:45:51Z</time></trkpt>
<trkpt lat="34.8480162" lon="134.136751"><ele>341.0</ele><time>2026-08-12T02:45:52Z</time></trkpt>
<trkpt lat="34.8480204" lon="134.13675"><ele>341.0</ele><time>2026-08-12T02:45:53Z</time></trkpt>
<trkpt lat="34.8480394" lon="134.1367515"><ele>341.0</ele><time>2026-08-12T02:45:54Z</time></trkpt>
<trkpt lat="34.8480447" lon="134.1367547"><ele>340.0</ele><time>2026-08-12T02:45:55Z</time></trkpt>
<trkpt lat="34.84805" lon="134.1367579"><ele>340.0</ele><time>2026-08-12T02:45:56Z</time></trkpt>
<trkpt lat="34.8480553" lon="134.1367611"><ele>340.0</ele><time>2026-08-12T02:45:57Z</time></trkpt>
<trkpt lat="34.8480603" lon="134.136766"><ele>340.0</ele><time>2026-08-12T02:45:58Z</time></trkpt>
<trkpt lat="34.8480653" lon="134.1367709"><ele>340.0</ele><time>2026-08-12T02:45:59Z</time></trkpt>
<trkpt lat="34.8480704" lon="134.1367759"><ele>340.0</ele><time>2026-08-12T02:46:00Z</time></trkpt>
<trkpt lat="34.8480843" lon="134.1367904"><ele>340.0</ele><time>2026-08-12T02:46:01Z</time></trkpt>
<trkpt lat="34.8480898" lon="134.1367957"><ele>340.0</ele><time>2026-08-12T02:46:02Z</time></trkpt>
<trkpt lat="34.8480953" lon="134.136801"><ele>339.0</ele><time>2026-08-12T02:46:03Z</time></trkpt>
<trkpt lat="34.8481009" lon="134.1368063"><ele>339.0</ele><time>2026-08-12T02:46:04Z</time></trkpt>
<trkpt lat="34.8481208" lon="134.1368244"><ele>339.0</ele><time>2026-08-12T02:46:05Z</time></trkpt>
<trkpt lat="34.848129" lon="134.1368306"><ele>339.0</ele><time>2026-08-12T02:46:06Z</time></trkpt>
<trkpt lat="34.8481372" lon="134.1368369"><ele>338.0</ele><time>2026-08-12T02:46:07Z</time></trkpt>
<trkpt lat="34.8481454" lon="134.1368432"><ele>338.0</ele><time>2026-08-12T02:46:08Z</time></trkpt>
<trkpt lat="34.8481746" lon="134.1368604"><ele>338.0</ele><time>2026-08-12T02:46:09Z</time></trkpt>
<trkpt lat="34.8481853" lon="134.1368635"><ele>338.0</ele><time>2026-08-12T02:46:10Z</time></trkpt>
<trkpt lat="34.848196" lon="134.1368666"><ele>337.0</ele><time>2026-08-12T02:46:11Z</time></trkpt>
<trkpt lat="34.8482068" lon="134.1368697"><ele>337.0</ele><time>2026-08-12T02:46:12Z</time></trkpt>
<trkpt lat="34.8482397" lon="134.1368753"><ele>337.0</ele><time>2026-08-12T02:46:13Z</time></trkpt>
<trkpt lat="34.8482502" lon="134.136878"><ele>337.0</ele><time>2026-08-12T02:46:14Z</time></trkpt>
<trkpt lat="34.8482607" lon="134.1368807"><ele>336.0</ele><time>2026-08-12T02:46:15Z</time></trkpt>
<trkpt lat="34.8482713" lon="134.1368834"><ele>336.0</ele><time>2026-08-12T02:46:16Z</time></trkpt>
<trkpt lat="34.8482981" lon="134.1368867"><ele>335.0</ele><time>2026-08-12T02:46:17Z</time></trkpt>
<trkpt lat="34.8483053" lon="134.1368848"><ele>335.0</ele><time>2026-08-12T02:46:18Z</time></trkpt>
<trkpt lat="34.8483125" lon="134.1368829"><ele>335.0</ele><time>2026-08-12T02:46:19Z</time></trkpt>
<trkpt lat="34.8483198" lon="134.1368811"><ele>335.0</ele><time>2026-08-12T02:46:20Z</time></trkpt>
<trkpt lat="34.8483363" lon="134.1368712"><ele>335.0</ele><time>2026-08-12T02:46:21Z</time></trkpt>
<trkpt lat="34.8483415" lon="134.1368674"><ele>335.0</ele><time>2026-08-12T02:46:22Z</time></trkpt>
<trkpt lat="34.8483467" lon="134.1368636"><ele>334.0</ele><time>2026-08-12T02:46:23Z</time></trkpt>
<trkpt lat="34.8483519" lon="134.1368598"><ele>334.0</ele><time>2026-08-12T02:46:24Z</time></trkpt>
<trkpt lat="34.8483765" lon="134.1368512"><ele>334.0</ele><time>2026-08-12T02:46:25Z</time></trkpt>
<trkpt lat="34.8483858" lon="134.1368518"><ele>334.0</ele><time>2026-08-12T02:46:26Z</time></trkpt>
<trkpt lat="34.8483952" lon="134.1368524"><ele>334.0</ele><time>2026-08-12T02:46:27Z</time></trkpt>
<trkpt lat="34.8484046" lon="134.136853"><ele>334.0</ele><time>2026-08-12T02:46:28Z</time></trkpt>
<trkpt lat="34.8484306" lon="134.1368615"><ele>334.0</ele><time>2026-08-12T02:46:29Z</time></trkpt>
<trkpt lat="34.8484383" lon="134.1368639"><ele>334.0</ele><time>2026-08-12T02:46:30Z</time></trkpt>
<trkpt lat="34.8484461" lon="134.1368663"><ele>334.0</ele><time>2026-08-12T02:46:31Z</time></trkpt>
<trkpt lat="34.8484539" lon="134.1368688"><ele>334.0</ele><time>2026-08-12T02:46:32Z</time></trkpt>
<trkpt lat="34.8484741" lon="134.1368729"><ele>334.0</ele><time>2026-08-12T02:46:33Z</time></trkpt>
<trkpt lat="34.8484803" lon="134.136873"><ele>334.0</ele><time>2026-08-12T02:46:34Z</time></trkpt>
<trkpt lat="34.8484865" lon="134.1368732"><ele>333.0</ele><time>2026-08-12T02:46:35Z</time></trkpt>
<trkpt lat="34.8484928" lon="134.1368734"><ele>333.0</ele><time>2026-08-12T02:46:36Z</time></trkpt>
<trkpt lat="34.8485122" lon="134.1368763"><ele>333.0</ele><time>2026-08-12T02:46:37Z</time></trkpt>
<trkpt lat="34.848519" lon="134.1368784"><ele>333.0</ele><time>2026-08-12T02:46:38Z</time></trkpt>
<trkpt lat="34.8485258" lon="134.1368805"><ele>333.0</ele><time>2026-08-12T02:46:39Z</time></trkpt>
<trkpt lat="34.8485326" lon="134.1368827"><ele>333.0</ele><time>2026-08-12T02:46:40Z</time></trkpt>
<trkpt lat="34.8485563" lon="134.136892"><ele>333.0</ele><time>2026-08-12T02:46:41Z</time></trkpt>
<trkpt lat="34.8485648" lon="134.1368956"><ele>333.0</ele><time>2026-08-12T02:46:42Z</time></trkpt>
<trkpt lat="34.8485733" lon="134.1368993"><ele>333.0</ele><time>2026-08-12T02:46:43Z</time></trkpt>
<trkpt lat="34.8485819" lon="134.136903"><ele>333.0</ele><time>2026-08-12T02:46:44Z</time></trkpt>
<trkpt lat="34.8486043" lon="134.1369126"><ele>333.0</ele><time>2026-08-12T02:46:45Z</time></trkpt>
<trkpt lat="34.8486096" lon="134.1369139"><ele>333.0</ele><time>2026-08-12T02:46:46Z</time></trkpt>
<trkpt lat="34.8486149" lon="134.1369152"><ele>333.0</ele><time>2026-08-12T02:46:47Z</time></trkpt>
<trkpt lat="34.8486202" lon="134.1369165"><ele>333.0</ele><time>2026-08-12T02:46:48Z</time></trkpt>
<trkpt lat="34.8486256" lon="134.1369178"><ele>333.0</ele><time>2026-08-12T02:46:49Z</time></trkpt>
<trkpt lat="34.8486476" lon="134.1369242"><ele>334.0</ele><time>2026-08-12T02:46:50Z</time></trkpt>
<trkpt lat="34.8486554" lon="134.1369289"><ele>334.0</ele><time>2026-08-12T02:46:51Z</time></trkpt>
<trkpt lat="34.8486632" lon="134.1369336"><ele>334.0</ele><time>2026-08-12T02:46:52Z</time></trkpt>
<trkpt lat="34.8486711" lon="134.1369383"><ele>334.0</ele><time>2026-08-12T02:46:53Z</time></trkpt>
<trkpt lat="34.8486922" lon="134.1369569"><ele>334.0</ele><time>2026-08-12T02:46:54Z</time></trkpt>
<trkpt lat="34.848697" lon="134.1369658"><ele>334.0</ele><time>2026-08-12T02:46:55Z</time></trkpt>
<trkpt lat="34.8487019" lon="134.1369747"><ele>334.0</ele><time>2026-08-12T02:46:56Z</time></trkpt>
<trkpt lat="34.8487068" lon="134.1369836"><ele>334.0</ele><time>2026-08-12T02:46:57Z</time></trkpt>
<trkpt lat="34.8487175" lon="134.1370109"><ele>334.0</ele><time>2026-08-12T02:46:58Z</time></trkpt>
<trkpt lat="34.8487206" lon="134.1370191"><ele>334.0</ele><time>2026-08-12T02:46:59Z</time></trkpt>
<trkpt lat="34.8487238" lon="134.1370273"><ele>334.0</ele><time>2026-08-12T02:47:00Z</time></trkpt>
<trkpt lat="34.848727" lon="134.1370355"><ele>334.0</ele><time>2026-08-12T02:47:01Z</time></trkpt>
<trkpt lat="34.8487405" lon="134.1370609"><ele>334.0</ele><time>2026-08-12T02:47:02Z</time></trkpt>
<trkpt lat="34.848744" lon="134.1370711"><ele>334.0</ele><time>2026-08-12T02:47:03Z</time></trkpt>
<trkpt lat="34.8487475" lon="134.1370814"><ele>334.0</ele><time>2026-08-12T02:47:04Z</time></trkpt>
<trkpt lat="34.848751" lon="134.1370917"><ele>334.0</ele><time>2026-08-12T02:47:05Z</time></trkpt>
<trkpt lat="34.8487538" lon="134.1371243"><ele>334.0</ele><time>2026-08-12T02:47:06Z</time></trkpt>
<trkpt lat="34.8487524" lon="134.1371358"><ele>334.0</ele><time>2026-08-12T02:47:07Z</time></trkpt>
<trkpt lat="34.8487511" lon="134.1371473"><ele>334.0</ele><time>2026-08-12T02:47:08Z</time></trkpt>
<trkpt lat="34.8487498" lon="134.1371588"><ele>334.0</ele><time>2026-08-12T02:47:09Z</time></trkpt>
<trkpt lat="34.8487449" lon="134.1371938"><ele>334.0</ele><time>2026-08-12T02:47:10Z</time></trkpt>
<trkpt lat="34.8487434" lon="134.1372041"><ele>334.0</ele><time>2026-08-12T02:47:11Z</time></trkpt>
<trkpt lat="34.848742" lon="134.1372144"><ele>334.0</ele><time>2026-08-12T02:47:12Z</time></trkpt>
<trkpt lat="34.8487406" lon="134.1372248"><ele>334.0</ele><time>2026-08-12T02:47:13Z</time></trkpt>
<trkpt lat="34.8487388" lon="134.1372553"><ele>334.0</ele><time>2026-08-12T02:47:14Z</time></trkpt>
<trkpt lat="34.8487387" lon="134.1372668"><ele>333.0</ele><time>2026-08-12T02:47:15Z</time></trkpt>
<trkpt lat="34.8487387" lon="134.1372783"><ele>333.0</ele><time>2026-08-12T02:47:16Z</time></trkpt>
<trkpt lat="34.8487387" lon="134.1372899"><ele>333.0</ele><time>2026-08-12T02:47:17Z</time></trkpt>
<trkpt lat="34.8487366" lon="134.1373253"><ele>333.0</ele><time>2026-08-12T02:47:18Z</time></trkpt>
<trkpt lat="34.8487359" lon="134.1373352"><ele>333.0</ele><time>2026-08-12T02:47:19Z</time></trkpt>
<trkpt lat="34.8487352" lon="134.1373451"><ele>333.0</ele><time>2026-08-12T02:47:20Z</time></trkpt>
<trkpt lat="34.8487346" lon="134.137355"><ele>333.0</ele><time>2026-08-12T02:47:21Z</time></trkpt>
<trkpt lat="34.8487363" lon="134.1373815"><ele>333.0</ele><time>2026-08-12T02:47:22Z</time></trkpt>
<trkpt lat="34.8487374" lon="134.1373893"><ele>333.0</ele><time>2026-08-12T02:47:23Z</time></trkpt>
<trkpt lat="34.8487386" lon="134.1373971"><ele>333.0</ele><time>2026-08-12T02:47:24Z</time></trkpt>
<trkpt lat="34.8487398" lon="134.1374049"><ele>333.0</ele><time>2026-08-12T02:47:25Z</time></trkpt>
<trkpt lat="34.8487356" lon="134.1374266"><ele>333.0</ele><time>2026-08-12T02:47:26Z</time></trkpt>
<trkpt lat="34.8487225" lon="134.137446"><ele>333.0</ele><time>2026-08-12T02:47:43Z</time></trkpt>
<trkpt lat="34.848715" lon="134.1374597"><ele>333.0</ele><time>2026-08-12T02:47:44Z</time></trkpt>
<trkpt lat="34.848713" lon="134.137465"><ele>333.0</ele><time>2026-08-12T02:47:45Z</time></trkpt>
<trkpt lat="34.848711" lon="134.1374703"><ele>333.0</ele><time>2026-08-12T02:47:46Z</time></trkpt>
<trkpt lat="34.848709" lon="134.1374756"><ele>332.0</ele><time>2026-08-12T02:47:47Z</time></trkpt>
<trkpt lat="34.8487086" lon="134.1374779"><ele>332.0</ele><time>2026-08-12T02:47:48Z</time></trkpt>
<trkpt lat="34.8487083" lon="134.1374803"><ele>332.0</ele><time>2026-08-12T02:47:49Z</time></trkpt>
<trkpt lat="34.848708" lon="134.1374826"><ele>332.0</ele><time>2026-08-12T02:47:50Z</time></trkpt>
<trkpt lat="34.8487077" lon="134.137485"><ele>332.0</ele><time>2026-08-12T02:47:51Z</time></trkpt>
<trkpt lat="34.8487074" lon="134.1374874"><ele>332.0</ele><time>2026-08-12T02:47:52Z</time></trkpt>
<trkpt lat="34.8487101" lon="134.1375076"><ele>332.0</ele><time>2026-08-12T02:47:53Z</time></trkpt>
<trkpt lat="34.8487117" lon="134.1375149"><ele>332.0</ele><time>2026-08-12T02:47:54Z</time></trkpt>
<trkpt lat="34.8487134" lon="134.1375222"><ele>331.0</ele><time>2026-08-12T02:47:55Z</time></trkpt>
<trkpt lat="34.8487151" lon="134.1375295"><ele>331.0</ele><time>2026-08-12T02:47:56Z</time></trkpt>
<trkpt lat="34.8487245" lon="134.1375485"><ele>331.0</ele><time>2026-08-12T02:47:57Z</time></trkpt>
<trkpt lat="34.8487295" lon="134.1375542"><ele>331.0</ele><time>2026-08-12T02:47:58Z</time></trkpt>
<trkpt lat="34.8487345" lon="134.13756"><ele>330.0</ele><time>2026-08-12T02:47:59Z</time></trkpt>
<trkpt lat="34.8487395" lon="134.1375658"><ele>330.0</ele><time>2026-08-12T02:48:00Z</time></trkpt>
<trkpt lat="34.8487549" lon="134.1375862"><ele>330.0</ele><time>2026-08-12T02:48:01Z</time></trkpt>
<trkpt lat="34.8487586" lon="134.1375938"><ele>330.0</ele><time>2026-08-12T02:48:02Z</time></trkpt>
<trkpt lat="34.8487623" lon="134.1376014"><ele>329.0</ele><time>2026-08-12T02:48:03Z</time></trkpt>
<trkpt lat="34.8487661" lon="134.1376091"><ele>329.0</ele><time>2026-08-12T02:48:04Z</time></trkpt>
<trkpt lat="34.8487711" lon="134.1376269"><ele>329.0</ele><time>2026-08-12T02:48:05Z</time></trkpt>
<trkpt lat="34.8487721" lon="134.1376318"><ele>329.0</ele><time>2026-08-12T02:48:06Z</time></trkpt>
<trkpt lat="34.8487732" lon="134.1376367"><ele>328.0</ele><time>2026-08-12T02:48:07Z</time></trkpt>
<trkpt lat="34.8487743" lon="134.1376416"><ele>328.0</ele><time>2026-08-12T02:48:08Z</time></trkpt>
<trkpt lat="34.8487773" lon="134.1376551"><ele>328.0</ele><time>2026-08-12T02:48:09Z</time></trkpt>
<trkpt lat="34.8487786" lon="134.1376585"><ele>328.0</ele><time>2026-08-12T02:48:10Z</time></trkpt>
<trkpt lat="34.84878" lon="134.137662"><ele>328.0</ele><time>2026-08-12T02:48:11Z</time></trkpt>
<trkpt lat="34.8487814" lon="134.1376655"><ele>328.0</ele><time>2026-08-12T02:48:12Z</time></trkpt>
<trkpt lat="34.8487857" lon="134.1376799"><ele>328.0</ele><time>2026-08-12T02:48:13Z</time></trkpt>
<trkpt lat="34.8487866" lon="134.1376869"><ele>328.0</ele><time>2026-08-12T02:48:14Z</time></trkpt>
<trkpt lat="34.8487875" lon="134.1376939"><ele>327.0</ele><time>2026-08-12T02:48:15Z</time></trkpt>
<trkpt lat="34.8487884" lon="134.137701"><ele>327.0</ele><time>2026-08-12T02:48:16Z</time></trkpt>
<trkpt lat="34.8487958" lon="134.1377186"><ele>327.0</ele><time>2026-08-12T02:48:17Z</time></trkpt>
<trkpt lat="34.8487862" lon="134.1377181"><ele>327.0</ele><time>2026-08-12T02:48:30Z</time></trkpt>
<trkpt lat="34.8487695" lon="134.1377124"><ele>327.0</ele><time>2026-08-12T02:48:31Z</time></trkpt>
<trkpt lat="34.848763" lon="134.1377094"><ele>327.0</ele><time>2026-08-12T02:48:32Z</time></trkpt>
<trkpt lat="34.8487565" lon="134.1377064"><ele>327.0</ele><time>2026-08-12T02:48:33Z</time></trkpt>
<trkpt lat="34.8487501" lon="134.1377034"><ele>327.0</ele><time>2026-08-12T02:48:34Z</time></trkpt>
<trkpt lat="34.8487297" lon="134.1377046"><ele>326.0</ele><time>2026-08-12T02:48:35Z</time></trkpt>
<trkpt lat="34.8487278" lon="134.1377081"><ele>326.0</ele><time>2026-08-12T02:48:36Z</time></trkpt>
<trkpt lat="34.848726" lon="134.1377117"><ele>326.0</ele><time>2026-08-12T02:48:37Z</time></trkpt>
<trkpt lat="34.8487242" lon="134.1377153"><ele>326.0</ele><time>2026-08-12T02:48:38Z</time></trkpt>
<trkpt lat="34.8487323" lon="134.1377297"><ele>325.0</ele><time>2026-08-12T02:48:39Z</time></trkpt>
<trkpt lat="34.8487362" lon="134.1377355"><ele>325.0</ele><time>2026-08-12T02:48:40Z</time></trkpt>
<trkpt lat="34.8487401" lon="134.1377413"><ele>325.0</ele><time>2026-08-12T02:48:41Z</time></trkpt>
<trkpt lat="34.848744" lon="134.1377471"><ele>325.0</ele><time>2026-08-12T02:48:42Z</time></trkpt>
<trkpt lat="34.8487494" lon="134.1377681"><ele>324.0</ele><time>2026-08-12T02:48:43Z</time></trkpt>
<trkpt lat="34.8487502" lon="134.137777"><ele>324.0</ele><time>2026-08-12T02:48:44Z</time></trkpt>
<trkpt lat="34.8487511" lon="134.1377859"><ele>324.0</ele><time>2026-08-12T02:48:45Z</time></trkpt>
<trkpt lat="34.848752" lon="134.1377948"><ele>324.0</ele><time>2026-08-12T02:48:46Z</time></trkpt>
<trkpt lat="34.8487506" lon="134.1378254"><ele>323.0</ele><time>2026-08-12T02:48:47Z</time></trkpt>
<trkpt lat="34.8487473" lon="134.1378365"><ele>323.0</ele><time>2026-08-12T02:48:48Z</time></trkpt>
<trkpt lat="34.8487441" lon="134.1378476"><ele>322.0</ele><time>2026-08-12T02:48:49Z</time></trkpt>
<trkpt lat="34.8487409" lon="134.1378588"><ele>322.0</ele><time>2026-08-12T02:48:50Z</time></trkpt>
<trkpt lat="34.848723" lon="134.1378914"><ele>321.0</ele><time>2026-08-12T02:48:51Z</time></trkpt>
<trkpt lat="34.848716" lon="134.1379007"><ele>321.0</ele><time>2026-08-12T02:48:52Z</time></trkpt>
<trkpt lat="34.848709" lon="134.13791"><ele>321.0</ele><time>2026-08-12T02:48:53Z</time></trkpt>
<trkpt lat="34.8487021" lon="134.1379193"><ele>321.0</ele><time>2026-08-12T02:48:54Z</time></trkpt>
<trkpt lat="34.8486836" lon="134.1379474"><ele>320.0</ele><time>2026-08-12T02:48:55Z</time></trkpt>
<trkpt lat="34.8486789" lon="134.1379575"><ele>320.0</ele><time>2026-08-12T02:48:56Z</time></trkpt>
<trkpt lat="34.8486743" lon="134.1379677"><ele>319.0</ele><time>2026-08-12T02:48:57Z</time></trkpt>
<trkpt lat="34.8486697" lon="134.1379779"><ele>319.0</ele><time>2026-08-12T02:48:58Z</time></trkpt>
<trkpt lat="34.8486602" lon="134.1380051"><ele>318.0</ele><time>2026-08-12T02:48:59Z</time></trkpt>
<trkpt lat="34.8486582" lon="134.1380142"><ele>318.0</ele><time>2026-08-12T02:49:00Z</time></trkpt>
<trkpt lat="34.8486562" lon="134.1380233"><ele>318.0</ele><time>2026-08-12T02:49:01Z</time></trkpt>
<trkpt lat="34.8486542" lon="134.1380325"><ele>318.0</ele><time>2026-08-12T02:49:02Z</time></trkpt>
<trkpt lat="34.8486496" lon="134.1380564"><ele>317.0</ele><time>2026-08-12T02:49:03Z</time></trkpt>
<trkpt lat="34.8486483" lon="134.1380646"><ele>317.0</ele><time>2026-08-12T02:49:04Z</time></trkpt>
<trkpt lat="34.848647" lon="134.1380729"><ele>316.0</ele><time>2026-08-12T02:49:05Z</time></trkpt>
<trkpt lat="34.8486457" lon="134.1380812"><ele>316.0</ele><time>2026-08-12T02:49:06Z</time></trkpt>
<trkpt lat="34.848639" lon="134.1381061"><ele>315.0</ele><time>2026-08-12T02:49:07Z</time></trkpt>
<trkpt lat="34.8486377" lon="134.1381104"><ele>315.0</ele><time>2026-08-12T02:49:08Z</time></trkpt>
<trkpt lat="34.8486364" lon="134.1381148"><ele>315.0</ele><time>2026-08-12T02:49:09Z</time></trkpt>
<trkpt lat="34.8486352" lon="134.1381192"><ele>315.0</ele><time>2026-08-12T02:49:10Z</time></trkpt>
<trkpt lat="34.8486348" lon="134.1381262"><ele>314.0</ele><time>2026-08-12T02:49:11Z</time></trkpt>
<trkpt lat="34.8486344" lon="134.1381332"><ele>314.0</ele><time>2026-08-12T02:49:12Z</time></trkpt>
<trkpt lat="34.848634" lon="134.1381403"><ele>314.0</ele><time>2026-08-12T02:49:13Z</time></trkpt>
<trkpt lat="34.8486347" lon="134.1381598"><ele>314.0</ele><time>2026-08-12T02:49:14Z</time></trkpt>
<trkpt lat="34.8486346" lon="134.1381689"><ele>313.0</ele><time>2026-08-12T02:49:15Z</time></trkpt>
<trkpt lat="34.8486345" lon="134.138178"><ele>313.0</ele><time>2026-08-12T02:49:16Z</time></trkpt>
<trkpt lat="34.8486345" lon="134.1381872"><ele>313.0</ele><time>2026-08-12T02:49:17Z</time></trkpt>
<trkpt lat="34.8486337" lon="134.1382293"><ele>313.0</ele><time>2026-08-12T02:49:18Z</time></trkpt>
<trkpt lat="34.8486328" lon="134.1382458"><ele>312.0</ele><time>2026-08-12T02:49:19Z</time></trkpt>
<trkpt lat="34.848632" lon="134.1382623"><ele>312.0</ele><time>2026-08-12T02:49:20Z</time></trkpt>
<trkpt lat="34.8486312" lon="134.1382788"><ele>311.0</ele><time>2026-08-12T02:49:21Z</time></trkpt>
<trkpt lat="34.8486278" lon="134.1383177"><ele>311.0</ele><time>2026-08-12T02:49:22Z</time></trkpt>
<trkpt lat="34.848627" lon="134.1383264"><ele>310.0</ele><time>2026-08-12T02:49:23Z</time></trkpt>
<trkpt lat="34.8486263" lon="134.1383352"><ele>310.0</ele><time>2026-08-12T02:49:24Z</time></trkpt>
<trkpt lat="34.8486256" lon="134.138344"><ele>310.0</ele><time>2026-08-12T02:49:25Z</time></trkpt>
<trkpt lat="34.848623" lon="134.1383639"><ele>310.0</ele><time>2026-08-12T02:49:26Z</time></trkpt>
<trkpt lat="34.8486231" lon="134.1383699"><ele>309.0</ele><time>2026-08-12T02:49:27Z</time></trkpt>
<trkpt lat="34.8486232" lon="134.1383759"><ele>309.0</ele><time>2026-08-12T02:49:28Z</time></trkpt>
<trkpt lat="34.8486233" lon="134.1383819"><ele>308.0</ele><time>2026-08-12T02:49:29Z</time></trkpt>
<trkpt lat="34.8486254" lon="134.1384046"><ele>308.0</ele><time>2026-08-12T02:49:30Z</time></trkpt>
<trkpt lat="34.8486257" lon="134.1384133"><ele>308.0</ele><time>2026-08-12T02:49:31Z</time></trkpt>
<trkpt lat="34.848626" lon="134.138422"><ele>308.0</ele><time>2026-08-12T02:49:32Z</time></trkpt>
<trkpt lat="34.8486263" lon="134.1384307"><ele>308.0</ele><time>2026-08-12T02:49:33Z</time></trkpt>
<trkpt lat="34.8486242" lon="134.1384563"><ele>308.0</ele><time>2026-08-12T02:49:34Z</time></trkpt>
<trkpt lat="34.8486226" lon="134.1384638"><ele>307.0</ele><time>2026-08-12T02:49:35Z</time></trkpt>
<trkpt lat="34.8486211" lon="134.1384713"><ele>307.0</ele><time>2026-08-12T02:49:36Z</time></trkpt>
<trkpt lat="34.8486196" lon="134.1384788"><ele>307.0</ele><time>2026-08-12T02:49:37Z</time></trkpt>
<trkpt lat="34.8486151" lon="134.1385026"><ele>307.0</ele><time>2026-08-12T02:49:38Z</time></trkpt>
<trkpt lat="34.8486134" lon="134.138511"><ele>306.0</ele><time>2026-08-12T02:49:39Z</time></trkpt>
<trkpt lat="34.8486117" lon="134.1385194"><ele>306.0</ele><time>2026-08-12T02:49:40Z</time></trkpt>
<trkpt lat="34.8486101" lon="134.1385278"><ele>305.0</ele><time>2026-08-12T02:49:41Z</time></trkpt>
<trkpt lat="34.8486067" lon="134.138553"><ele>305.0</ele><time>2026-08-12T02:49:42Z</time></trkpt>
<trkpt lat="34.8486064" lon="134.1385614"><ele>304.0</ele><time>2026-08-12T02:49:43Z</time></trkpt>
<trkpt lat="34.8486061" lon="134.1385698"><ele>304.0</ele><time>2026-08-12T02:49:44Z</time></trkpt>
<trkpt lat="34.8486059" lon="134.1385782"><ele>304.0</ele><time>2026-08-12T02:49:45Z</time></trkpt>
<trkpt lat="34.8486057" lon="134.1386154"><ele>304.0</ele><time>2026-08-12T02:49:46Z</time></trkpt>
<trkpt lat="34.8486054" lon="134.1386531"><ele>302.0</ele><time>2026-08-12T02:49:55Z</time></trkpt>
<trkpt lat="34.8486049" lon="134.1386713"><ele>302.0</ele><time>2026-08-12T02:49:56Z</time></trkpt>
<trkpt lat="34.8486049" lon="134.1386756"><ele>302.0</ele><time>2026-08-12T02:49:57Z</time></trkpt>
<trkpt lat="34.848605" lon="134.1386799"><ele>302.0</ele><time>2026-08-12T02:49:58Z</time></trkpt>
<trkpt lat="34.8486051" lon="134.1386843"><ele>301.0</ele><time>2026-08-12T02:49:59Z</time></trkpt>
<trkpt lat="34.8486037" lon="134.1387031"><ele>301.0</ele><time>2026-08-12T02:50:00Z</time></trkpt>
<trkpt lat="34.8486039" lon="134.1387127"><ele>301.0</ele><time>2026-08-12T02:50:01Z</time></trkpt>
<trkpt lat="34.8486041" lon="134.1387223"><ele>301.0</ele><time>2026-08-12T02:50:02Z</time></trkpt>
<trkpt lat="34.8486044" lon="134.1387319"><ele>300.0</ele><time>2026-08-12T02:50:03Z</time></trkpt>
<trkpt lat="34.8486006" lon="134.1387735"><ele>300.0</ele><time>2026-08-12T02:50:04Z</time></trkpt>
<trkpt lat="34.8485999" lon="134.1387909"><ele>300.0</ele><time>2026-08-12T02:50:05Z</time></trkpt>
<trkpt lat="34.8485992" lon="134.1388083"><ele>300.0</ele><time>2026-08-12T02:50:06Z</time></trkpt>
<trkpt lat="34.8485986" lon="134.1388258"><ele>299.0</ele><time>2026-08-12T02:50:07Z</time></trkpt>
<trkpt lat="34.848602" lon="134.1388755"><ele>299.0</ele><time>2026-08-12T02:50:08Z</time></trkpt>
<trkpt lat="34.8486044" lon="134.1388908"><ele>298.0</ele><time>2026-08-12T02:50:09Z</time></trkpt>
<trkpt lat="34.8486068" lon="134.1389061"><ele>298.0</ele><time>2026-08-12T02:50:10Z</time></trkpt>
<trkpt lat="34.8486092" lon="134.1389214"><ele>297.0</ele><time>2026-08-12T02:50:11Z</time></trkpt>
<trkpt lat="34.848621" lon="134.1389659"><ele>297.0</ele><time>2026-08-12T02:50:12Z</time></trkpt>
<trkpt lat="34.848625" lon="134.1389815"><ele>297.0</ele><time>2026-08-12T02:50:13Z</time></trkpt>
<trkpt lat="34.8486291" lon="134.1389972"><ele>297.0</ele><time>2026-08-12T02:50:14Z</time></trkpt>
<trkpt lat="34.8486332" lon="134.1390129"><ele>296.0</ele><time>2026-08-12T02:50:15Z</time></trkpt>
<trkpt lat="34.8486438" lon="134.1390629"><ele>296.0</ele><time>2026-08-12T02:50:16Z</time></trkpt>
<trkpt lat="34.8486473" lon="134.139079"><ele>296.0</ele><time>2026-08-12T02:50:17Z</time></trkpt>
<trkpt lat="34.8486508" lon="134.1390951"><ele>296.0</ele><time>2026-08-12T02:50:18Z</time></trkpt>
<trkpt lat="34.8486544" lon="134.1391113"><ele>295.0</ele><time>2026-08-12T02:50:19Z</time></trkpt>
<trkpt lat="34.8486694" lon="134.1391578"><ele>295.0</ele><time>2026-08-12T02:50:20Z</time></trkpt>
<trkpt lat="34.8486741" lon="134.1391737"><ele>295.0</ele><time>2026-08-12T02:50:21Z</time></trkpt>
<trkpt lat="34.8486788" lon="134.1391896"><ele>295.0</ele><time>2026-08-12T02:50:22Z</time></trkpt>
<trkpt lat="34.8486835" lon="134.1392055"><ele>295.0</ele><time>2026-08-12T02:50:23Z</time></trkpt>
<trkpt lat="34.8486924" lon="134.1392534"><ele>295.0</ele><time>2026-08-12T02:50:24Z</time></trkpt>
<trkpt lat="34.848694" lon="134.1392699"><ele>295.0</ele><time>2026-08-12T02:50:25Z</time></trkpt>
<trkpt lat="34.8486956" lon="134.1392865"><ele>295.0</ele><time>2026-08-12T02:50:26Z</time></trkpt>
<trkpt lat="34.8486973" lon="134.1393031"><ele>295.0</ele><time>2026-08-12T02:50:27Z</time></trkpt>
<trkpt lat="34.8487008" lon="134.1393562"><ele>295.0</ele><time>2026-08-12T02:50:28Z</time></trkpt>
<trkpt lat="34.8487032" lon="134.1393733"><ele>295.0</ele><time>2026-08-12T02:50:29Z</time></trkpt>
<trkpt lat="34.8487057" lon="134.1393904"><ele>295.0</ele><time>2026-08-12T02:50:30Z</time></trkpt>
<trkpt lat="34.8487082" lon="134.1394075"><ele>294.0</ele><time>2026-08-12T02:50:31Z</time></trkpt>
<trkpt lat="34.8487195" lon="134.1394533"><ele>294.0</ele><time>2026-08-12T02:50:32Z</time></trkpt>
<trkpt lat="34.8487221" lon="134.1394686"><ele>294.0</ele><time>2026-08-12T02:50:33Z</time></trkpt>
<trkpt lat="34.8487248" lon="134.139484"><ele>294.0</ele><time>2026-08-12T02:50:34Z</time></trkpt>
<trkpt lat="34.8487275" lon="134.1394994"><ele>293.0</ele><time>2026-08-12T02:50:35Z</time></trkpt>
<trkpt lat="34.8487305" lon="134.139553"><ele>293.0</ele><time>2026-08-12T02:50:36Z</time></trkpt>
<trkpt lat="34.8487299" lon="134.1395698"><ele>292.0</ele><time>2026-08-12T02:50:37Z</time></trkpt>
<trkpt lat="34.8487294" lon="134.1395866"><ele>292.0</ele><time>2026-08-12T02:50:38Z</time></trkpt>
<trkpt lat="34.8487289" lon="134.1396035"><ele>291.0</ele><time>2026-08-12T02:50:39Z</time></trkpt>
<trkpt lat="34.8487308" lon="134.1396545"><ele>291.0</ele><time>2026-08-12T02:50:40Z</time></trkpt>
<trkpt lat="34.8487336" lon="134.1396714"><ele>291.0</ele><time>2026-08-12T02:50:41Z</time></trkpt>
<trkpt lat="34.8487365" lon="134.1396884"><ele>291.0</ele><time>2026-08-12T02:50:42Z</time></trkpt>
<trkpt lat="34.8487394" lon="134.1397054"><ele>290.0</ele><time>2026-08-12T02:50:43Z</time></trkpt>
<trkpt lat="34.8487512" lon="134.1397553"><ele>290.0</ele><time>2026-08-12T02:50:44Z</time></trkpt>
<trkpt lat="34.8487552" lon="134.1397718"><ele>289.0</ele><time>2026-08-12T02:50:45Z</time></trkpt>
<trkpt lat="34.8487593" lon="134.1397883"><ele>289.0</ele><time>2026-08-12T02:50:46Z</time></trkpt>
<trkpt lat="34.8487634" lon="134.1398049"><ele>288.0</ele><time>2026-08-12T02:50:47Z</time></trkpt>
<trkpt lat="34.8487727" lon="134.1398545"><ele>288.0</ele><time>2026-08-12T02:50:48Z</time></trkpt>
<trkpt lat="34.8487731" lon="134.1398707"><ele>287.0</ele><time>2026-08-12T02:50:49Z</time></trkpt>
<trkpt lat="34.8487736" lon="134.1398869"><ele>287.0</ele><time>2026-08-12T02:50:50Z</time></trkpt>
<trkpt lat="34.8487741" lon="134.1399032"><ele>286.0</ele><time>2026-08-12T02:50:51Z</time></trkpt>
<trkpt lat="34.8487692" lon="134.1399572"><ele>286.0</ele><time>2026-08-12T02:50:52Z</time></trkpt>
<trkpt lat="34.8487657" lon="134.1399752"><ele>285.0</ele><time>2026-08-12T02:50:53Z</time></trkpt>
<trkpt lat="34.8487622" lon="134.1399932"><ele>285.0</ele><time>2026-08-12T02:50:54Z</time></trkpt>
<trkpt lat="34.8487588" lon="134.1400112"><ele>284.0</ele><time>2026-08-12T02:50:55Z</time></trkpt>
<trkpt lat="34.8487416" lon="134.1400538"><ele>284.0</ele><time>2026-08-12T02:50:56Z</time></trkpt>
<trkpt lat="34.8487355" lon="134.1400626"><ele>283.0</ele><time>2026-08-12T02:50:57Z</time></trkpt>
<trkpt lat="34.8487294" lon="134.1400714"><ele>283.0</ele><time>2026-08-12T02:50:58Z</time></trkpt>
<trkpt lat="34.8487233" lon="134.1400802"><ele>282.0</ele><time>2026-08-12T02:50:59Z</time></trkpt>
<trkpt lat="34.848707" lon="134.1400979"><ele>282.0</ele><time>2026-08-12T02:51:00Z</time></trkpt>
<trkpt lat="34.8487026" lon="134.1401026"><ele>282.0</ele><time>2026-08-12T02:51:01Z</time></trkpt>
<trkpt lat="34.8486982" lon="134.1401074"><ele>282.0</ele><time>2026-08-12T02:51:02Z</time></trkpt>
<trkpt lat="34.8486938" lon="134.1401122"><ele>281.0</ele><time>2026-08-12T02:51:03Z</time></trkpt>
<trkpt lat="34.8486807" lon="134.1401252"><ele>281.0</ele><time>2026-08-12T02:51:04Z</time></trkpt>
<trkpt lat="34.8486765" lon="134.1401286"><ele>280.0</ele><time>2026-08-12T02:51:05Z</time></trkpt>
<trkpt lat="34.8486724" lon="134.140132"><ele>280.0</ele><time>2026-08-12T02:51:06Z</time></trkpt>
<trkpt lat="34.8486683" lon="134.1401355"><ele>279.0</ele><time>2026-08-12T02:51:07Z</time></trkpt>
<trkpt lat="34.8486512" lon="134.1401381"><ele>279.0</ele><time>2026-08-12T02:51:08Z</time></trkpt>
<trkpt lat="34.8486392" lon="134.1401456"><ele>278.0</ele><time>2026-08-12T02:52:39Z</time></trkpt>
<trkpt lat="34.8486257" lon="134.1401581"><ele>278.0</ele><time>2026-08-12T02:52:40Z</time></trkpt>
<trkpt lat="34.8486236" lon="134.1401625"><ele>278.0</ele><time>2026-08-12T02:52:41Z</time></trkpt>
<trkpt lat="34.8486215" lon="134.1401669"><ele>278.0</ele><time>2026-08-12T02:52:42Z</time></trkpt>
<trkpt lat="34.8486195" lon="134.1401714"><ele>277.0</ele><time>2026-08-12T02:52:43Z</time></trkpt>
<trkpt lat="34.8486169" lon="134.1401891"><ele>277.0</ele><time>2026-08-12T02:52:44Z</time></trkpt>
<trkpt lat="34.8486163" lon="134.1401949"><ele>277.0</ele><time>2026-08-12T02:52:45Z</time></trkpt>
<trkpt lat="34.8486157" lon="134.1402008"><ele>277.0</ele><time>2026-08-12T02:52:46Z</time></trkpt>
<trkpt lat="34.8486151" lon="134.1402067"><ele>277.0</ele><time>2026-08-12T02:52:47Z</time></trkpt>
<trkpt lat="34.8486073" lon="134.1402214"><ele>277.0</ele><time>2026-08-12T02:52:48Z</time></trkpt>
<trkpt lat="34.8486034" lon="134.1402255"><ele>277.0</ele><time>2026-08-12T02:52:49Z</time></trkpt>
<trkpt lat="34.8485995" lon="134.1402296"><ele>277.0</ele><time>2026-08-12T02:52:50Z</time></trkpt>
<trkpt lat="34.8485956" lon="134.1402338"><ele>276.0</ele><time>2026-08-12T02:52:51Z</time></trkpt>
<trkpt lat="34.8485856" lon="134.14025"><ele>276.0</ele><time>2026-08-12T02:52:52Z</time></trkpt>
<trkpt lat="34.8485823" lon="134.1402582"><ele>276.0</ele><time>2026-08-12T02:52:53Z</time></trkpt>
<trkpt lat="34.848579" lon="134.1402665"><ele>276.0</ele><time>2026-08-12T02:52:54Z</time></trkpt>
<trkpt lat="34.8485757" lon="134.1402748"><ele>275.0</ele><time>2026-08-12T02:52:55Z</time></trkpt>
<trkpt lat="34.8485642" lon="134.1403071"><ele>275.0</ele><time>2026-08-12T02:52:56Z</time></trkpt>
<trkpt lat="34.8485612" lon="134.1403186"><ele>275.0</ele><time>2026-08-12T02:52:57Z</time></trkpt>
<trkpt lat="34.8485582" lon="134.1403301"><ele>275.0</ele><time>2026-08-12T02:52:58Z</time></trkpt>
<trkpt lat="34.8485552" lon="134.1403417"><ele>274.0</ele><time>2026-08-12T02:52:59Z</time></trkpt>
<trkpt lat="34.8485479" lon="134.140376"><ele>274.0</ele><time>2026-08-12T02:53:00Z</time></trkpt>
<trkpt lat="34.8485451" lon="134.1403858"><ele>274.0</ele><time>2026-08-12T02:53:01Z</time></trkpt>
<trkpt lat="34.8485423" lon="134.1403956"><ele>274.0</ele><time>2026-08-12T02:53:02Z</time></trkpt>
<trkpt lat="34.8485396" lon="134.1404055"><ele>273.0</ele><time>2026-08-12T02:53:03Z</time></trkpt>
<trkpt lat="34.8485302" lon="134.1404311"><ele>273.0</ele><time>2026-08-12T02:53:04Z</time></trkpt>
<trkpt lat="34.8485262" lon="134.1404399"><ele>272.0</ele><time>2026-08-12T02:53:05Z</time></trkpt>
<trkpt lat="34.8485223" lon="134.1404487"><ele>272.0</ele><time>2026-08-12T02:53:06Z</time></trkpt>
<trkpt lat="34.8485184" lon="134.1404576"><ele>271.0</ele><time>2026-08-12T02:53:07Z</time></trkpt>
<trkpt lat="34.848501" lon="134.1404836"><ele>271.0</ele><time>2026-08-12T02:53:08Z</time></trkpt>
<trkpt lat="34.8484963" lon="134.1404905"><ele>271.0</ele><time>2026-08-12T02:53:09Z</time></trkpt>
<trkpt lat="34.8484916" lon="134.1404974"><ele>271.0</ele><time>2026-08-12T02:53:10Z</time></trkpt>
<trkpt lat="34.8484869" lon="134.1405044"><ele>270.0</ele><time>2026-08-12T02:53:11Z</time></trkpt>
<trkpt lat="34.8484831" lon="134.1405299"><ele>270.0</ele><time>2026-08-12T02:53:12Z</time></trkpt>
<trkpt lat="34.848484" lon="134.1405399"><ele>270.0</ele><time>2026-08-12T02:53:13Z</time></trkpt>
<trkpt lat="34.8484849" lon="134.14055"><ele>270.0</ele><time>2026-08-12T02:53:14Z</time></trkpt>
<trkpt lat="34.8484858" lon="134.1405601"><ele>269.0</ele><time>2026-08-12T02:53:15Z</time></trkpt>
<trkpt lat="34.84849" lon="134.1405911"><ele>269.0</ele><time>2026-08-12T02:53:16Z</time></trkpt>
<trkpt lat="34.8484912" lon="134.1406028"><ele>269.0</ele><time>2026-08-12T02:53:17Z</time></trkpt>
<trkpt lat="34.8484924" lon="134.1406145"><ele>269.0</ele><time>2026-08-12T02:53:18Z</time></trkpt>
<trkpt lat="34.8484937" lon="134.1406262"><ele>269.0</ele><time>2026-08-12T02:53:19Z</time></trkpt>
<trkpt lat="34.8484968" lon="134.1406621"><ele>269.0</ele><time>2026-08-12T02:53:20Z</time></trkpt>
<trkpt lat="34.8484975" lon="134.1406749"><ele>269.0</ele><time>2026-08-12T02:53:21Z</time></trkpt>
<trkpt lat="34.8484982" lon="134.1406877"><ele>269.0</ele><time>2026-08-12T02:53:22Z</time></trkpt>
<trkpt lat="34.8484989" lon="134.1407005"><ele>268.0</ele><time>2026-08-12T02:53:23Z</time></trkpt>
<trkpt lat="34.8485003" lon="134.1407416"><ele>268.0</ele><time>2026-08-12T02:53:24Z</time></trkpt>
<trkpt lat="34.8485015" lon="134.1407566"><ele>268.0</ele><time>2026-08-12T02:53:25Z</time></trkpt>
<trkpt lat="34.8485027" lon="134.1407717"><ele>268.0</ele><time>2026-08-12T02:53:26Z</time></trkpt>
<trkpt lat="34.848504" lon="134.1407868"><ele>268.0</ele><time>2026-08-12T02:53:27Z</time></trkpt>
<trkpt lat="34.8485134" lon="134.1408358"><ele>268.0</ele><time>2026-08-12T02:53:28Z</time></trkpt>
<trkpt lat="34.8485161" lon="134.1408526"><ele>268.0</ele><time>2026-08-12T02:53:29Z</time></trkpt>
<trkpt lat="34.8485188" lon="134.1408694"><ele>268.0</ele><time>2026-08-12T02:53:30Z</time></trkpt>
<trkpt lat="34.8485216" lon="134.1408862"><ele>267.0</ele><time>2026-08-12T02:53:31Z</time></trkpt>
<trkpt lat="34.8485244" lon="134.1409269"><ele>267.0</ele><time>2026-08-12T02:53:32Z</time></trkpt>
<trkpt lat="34.8485239" lon="134.1409365"><ele>267.0</ele><time>2026-08-12T02:53:33Z</time></trkpt>
<trkpt lat="34.8485234" lon="134.1409461"><ele>267.0</ele><time>2026-08-12T02:53:34Z</time></trkpt>
<trkpt lat="34.848523" lon="134.1409558"><ele>267.0</ele><time>2026-08-12T02:53:35Z</time></trkpt>
<trkpt lat="34.8485269" lon="134.1409764"><ele>267.0</ele><time>2026-08-12T02:53:36Z</time></trkpt>
<trkpt lat="34.8485291" lon="134.1409825"><ele>267.0</ele><time>2026-08-12T02:53:37Z</time></trkpt>
<trkpt lat="34.8485314" lon="134.1409886"><ele>267.0</ele><time>2026-08-12T02:53:38Z</time></trkpt>
<trkpt lat="34.8485337" lon="134.1409948"><ele>267.0</ele><time>2026-08-12T02:53:39Z</time></trkpt>
<trkpt lat="34.8485394" lon="134.141014"><ele>267.0</ele><time>2026-08-12T02:53:40Z</time></trkpt>
<trkpt lat="34.8485408" lon="134.14102"><ele>267.0</ele><time>2026-08-12T02:53:41Z</time></trkpt>
<trkpt lat="34.8485423" lon="134.141026"><ele>267.0</ele><time>2026-08-12T02:53:42Z</time></trkpt>
<trkpt lat="34.8485438" lon="134.1410321"><ele>267.0</ele><time>2026-08-12T02:53:43Z</time></trkpt>
<trkpt lat="34.8485475" lon="134.1410571"><ele>266.0</ele><time>2026-08-12T02:54:37Z</time></trkpt>
<trkpt lat="34.8485478" lon="134.1410704"><ele>266.0</ele><time>2026-08-12T02:54:38Z</time></trkpt>
<trkpt lat="34.8485466" lon="134.1410691"><ele>266.0</ele><time>2026-08-12T02:54:39Z</time></trkpt>
<trkpt lat="34.8485454" lon="134.1410678"><ele>266.0</ele><time>2026-08-12T02:54:40Z</time></trkpt>
<trkpt lat="34.8485443" lon="134.1410666"><ele>266.0</ele><time>2026-08-12T02:54:41Z</time></trkpt>
<trkpt lat="34.8485381" lon="134.1410508"><ele>266.0</ele><time>2026-08-12T02:54:42Z</time></trkpt>
<trkpt lat="34.8485355" lon="134.1410443"><ele>266.0</ele><time>2026-08-12T02:54:43Z</time></trkpt>
<trkpt lat="34.848533" lon="134.1410379"><ele>266.0</ele><time>2026-08-12T02:54:44Z</time></trkpt>
<trkpt lat="34.8485305" lon="134.1410315"><ele>266.0</ele><time>2026-08-12T02:54:45Z</time></trkpt>
<trkpt lat="34.8485232" lon="134.1410083"><ele>266.0</ele><time>2026-08-12T02:54:46Z</time></trkpt>
<trkpt lat="34.8485208" lon="134.1409996"><ele>266.0</ele><time>2026-08-12T02:54:47Z</time></trkpt>
<trkpt lat="34.8485185" lon="134.1409909"><ele>266.0</ele><time>2026-08-12T02:54:48Z</time></trkpt>
<trkpt lat="34.8485162" lon="134.1409822"><ele>266.0</ele><time>2026-08-12T02:54:49Z</time></trkpt>
<trkpt lat="34.8485086" lon="134.1409557"><ele>266.0</ele><time>2026-08-12T02:54:50Z</time></trkpt>
<trkpt lat="34.8485066" lon="134.1409475"><ele>266.0</ele><time>2026-08-12T02:54:51Z</time></trkpt>
<trkpt lat="34.8485046" lon="134.1409393"><ele>266.0</ele><time>2026-08-12T02:54:52Z</time></trkpt>
<trkpt lat="34.8485027" lon="134.1409312"><ele>266.0</ele><time>2026-08-12T02:54:53Z</time></trkpt>
<trkpt lat="34.8484992" lon="134.140904"><ele>266.0</ele><time>2026-08-12T02:54:54Z</time></trkpt>
<trkpt lat="34.8484984" lon="134.1408937"><ele>266.0</ele><time>2026-08-12T02:54:55Z</time></trkpt>
<trkpt lat="34.8484976" lon="134.1408835"><ele>266.0</ele><time>2026-08-12T02:54:56Z</time></trkpt>
<trkpt lat="34.8484968" lon="134.1408733"><ele>266.0</ele><time>2026-08-12T02:54:57Z</time></trkpt>
<trkpt lat="34.8484943" lon="134.1408414"><ele>267.0</ele><time>2026-08-12T02:54:58Z</time></trkpt>
<trkpt lat="34.8484943" lon="134.1408316"><ele>267.0</ele><time>2026-08-12T02:54:59Z</time></trkpt>
<trkpt lat="34.8484943" lon="134.1408218"><ele>267.0</ele><time>2026-08-12T02:55:00Z</time></trkpt>
<trkpt lat="34.8484944" lon="134.140812"><ele>267.0</ele><time>2026-08-12T02:55:01Z</time></trkpt>
<trkpt lat="34.8484955" lon="134.1407844"><ele>267.0</ele><time>2026-08-12T02:55:02Z</time></trkpt>
<trkpt lat="34.848495" lon="134.1407757"><ele>267.0</ele><time>2026-08-12T02:55:03Z</time></trkpt>
<trkpt lat="34.8484946" lon="134.1407671"><ele>267.0</ele><time>2026-08-12T02:55:04Z</time></trkpt>
<trkpt lat="34.8484942" lon="134.1407585"><ele>267.0</ele><time>2026-08-12T02:55:05Z</time></trkpt>
<trkpt lat="34.8484908" lon="134.1407325"><ele>267.0</ele><time>2026-08-12T02:55:06Z</time></trkpt>
<trkpt lat="34.8484898" lon="134.1407217"><ele>267.0</ele><time>2026-08-12T02:55:07Z</time></trkpt>
<trkpt lat="34.8484888" lon="134.1407109"><ele>267.0</ele><time>2026-08-12T02:55:08Z</time></trkpt>
<trkpt lat="34.8484879" lon="134.1407002"><ele>267.0</ele><time>2026-08-12T02:55:09Z</time></trkpt>
<trkpt lat="34.848485" lon="134.1406637"><ele>268.0</ele><time>2026-08-12T02:55:10Z</time></trkpt>
<trkpt lat="34.8484834" lon="134.1406514"><ele>268.0</ele><time>2026-08-12T02:55:11Z</time></trkpt>
<trkpt lat="34.8484819" lon="134.1406392"><ele>268.0</ele><time>2026-08-12T02:55:12Z</time></trkpt>
<trkpt lat="34.8484804" lon="134.140627"><ele>268.0</ele><time>2026-08-12T02:55:13Z</time></trkpt>
<trkpt lat="34.8484762" lon="134.1405908"><ele>268.0</ele><time>2026-08-12T02:55:14Z</time></trkpt>
<trkpt lat="34.8484753" lon="134.1405791"><ele>268.0</ele><time>2026-08-12T02:55:15Z</time></trkpt>
<trkpt lat="34.8484744" lon="134.1405675"><ele>268.0</ele><time>2026-08-12T02:55:16Z</time></trkpt>
<trkpt lat="34.8484736" lon="134.1405559"><ele>268.0</ele><time>2026-08-12T02:55:17Z</time></trkpt>
<trkpt lat="34.8484768" lon="134.1405217"><ele>269.0</ele><time>2026-08-12T02:55:18Z</time></trkpt>
<trkpt lat="34.8484784" lon="134.1405101"><ele>269.0</ele><time>2026-08-12T02:55:19Z</time></trkpt>
<trkpt lat="34.84848" lon="134.1404985"><ele>269.0</ele><time>2026-08-12T02:55:20Z</time></trkpt>
<trkpt lat="34.8484816" lon="134.1404869"><ele>269.0</ele><time>2026-08-12T02:55:21Z</time></trkpt>
<trkpt lat="34.8484834" lon="134.1404487"><ele>269.0</ele><time>2026-08-12T02:55:22Z</time></trkpt>
<trkpt lat="34.848483" lon="134.1404359"><ele>269.0</ele><time>2026-08-12T02:55:23Z</time></trkpt>
<trkpt lat="34.8484827" lon="134.1404232"><ele>269.0</ele><time>2026-08-12T02:55:24Z</time></trkpt>
<trkpt lat="34.8484824" lon="134.1404105"><ele>269.0</ele><time>2026-08-12T02:55:25Z</time></trkpt>
<trkpt lat="34.8484822" lon="134.1403773"><ele>270.0</ele><time>2026-08-12T02:55:26Z</time></trkpt>
<trkpt lat="34.84848" lon="134.1403676"><ele>270.0</ele><time>2026-08-12T02:55:27Z</time></trkpt>
<trkpt lat="34.8484778" lon="134.140358"><ele>270.0</ele><time>2026-08-12T02:55:28Z</time></trkpt>
<trkpt lat="34.8484757" lon="134.1403484"><ele>270.0</ele><time>2026-08-12T02:55:29Z</time></trkpt>
<trkpt lat="34.8484589" lon="134.1403217"><ele>270.0</ele><time>2026-08-12T02:55:30Z</time></trkpt>
<trkpt lat="34.8484503" lon="134.1403137"><ele>270.0</ele><time>2026-08-12T02:55:31Z</time></trkpt>
<trkpt lat="34.8484417" lon="134.1403057"><ele>270.0</ele><time>2026-08-12T02:55:32Z</time></trkpt>
<trkpt lat="34.8484332" lon="134.1402978"><ele>270.0</ele><time>2026-08-12T02:55:33Z</time></trkpt>
<trkpt lat="34.8484013" lon="134.1402787"><ele>271.0</ele><time>2026-08-12T02:55:34Z</time></trkpt>
<trkpt lat="34.8483891" lon="134.1402731"><ele>271.0</ele><time>2026-08-12T02:55:35Z</time></trkpt>
<trkpt lat="34.848377" lon="134.1402675"><ele>271.0</ele><time>2026-08-12T02:55:36Z</time></trkpt>
<trkpt lat="34.8483649" lon="134.140262"><ele>271.0</ele><time>2026-08-12T02:55:37Z</time></trkpt>
<trkpt lat="34.8483283" lon="134.1402434"><ele>271.0</ele><time>2026-08-12T02:55:38Z</time></trkpt>
<trkpt lat="34.8483164" lon="134.1402354"><ele>271.0</ele><time>2026-08-12T02:55:39Z</time></trkpt>
<trkpt lat="34.8483045" lon="134.1402275"><ele>271.0</ele><time>2026-08-12T02:55:40Z</time></trkpt>
<trkpt lat="34.8482926" lon="134.1402196"><ele>271.0</ele><time>2026-08-12T02:55:41Z</time></trkpt>
<trkpt lat="34.8482553" lon="134.1401942"><ele>271.0</ele><time>2026-08-12T02:55:42Z</time></trkpt>
<trkpt lat="34.8482429" lon="134.140186"><ele>271.0</ele><time>2026-08-12T02:55:43Z</time></trkpt>
<trkpt lat="34.8482306" lon="134.1401778"><ele>271.0</ele><time>2026-08-12T02:55:44Z</time></trkpt>
<trkpt lat="34.8482183" lon="134.1401697"><ele>271.0</ele><time>2026-08-12T02:55:45Z</time></trkpt>
<trkpt lat="34.8481831" lon="134.140145"><ele>272.0</ele><time>2026-08-12T02:55:46Z</time></trkpt>
<trkpt lat="34.8481707" lon="134.1401386"><ele>272.0</ele><time>2026-08-12T02:55:47Z</time></trkpt>
<trkpt lat="34.8481583" lon="134.1401323"><ele>272.0</ele><time>2026-08-12T02:55:48Z</time></trkpt>
<trkpt lat="34.848146" lon="134.140126"><ele>272.0</ele><time>2026-08-12T02:55:49Z</time></trkpt>
<trkpt lat="34.8481052" lon="134.1401181"><ele>272.0</ele><time>2026-08-12T02:55:50Z</time></trkpt>
<trkpt lat="34.8480905" lon="134.1401186"><ele>272.0</ele><time>2026-08-12T02:55:51Z</time></trkpt>
<trkpt lat="34.8480758" lon="134.1401192"><ele>272.0</ele><time>2026-08-12T02:55:52Z</time></trkpt>
<trkpt lat="34.8480612" lon="134.1401198"><ele>272.0</ele><time>2026-08-12T02:55:53Z</time></trkpt>
<trkpt lat="34.8480173" lon="134.1401285"><ele>272.0</ele><time>2026-08-12T02:55:54Z</time></trkpt>
<trkpt lat="34.8480028" lon="134.140132"><ele>272.0</ele><time>2026-08-12T02:55:55Z</time></trkpt>
<trkpt lat="34.8479884" lon="134.1401356"><ele>272.0</ele><time>2026-08-12T02:55:56Z</time></trkpt>
<trkpt lat="34.847974" lon="134.1401392"><ele>272.0</ele><time>2026-08-12T02:55:57Z</time></trkpt>
<trkpt lat="34.8479311" lon="134.1401538"><ele>272.0</ele><time>2026-08-12T02:55:58Z</time></trkpt>
<trkpt lat="34.8479164" lon="134.1401593"><ele>271.0</ele><time>2026-08-12T02:55:59Z</time></trkpt>
<trkpt lat="34.8479018" lon="134.1401648"><ele>271.0</ele><time>2026-08-12T02:56:00Z</time></trkpt>
<trkpt lat="34.8478872" lon="134.1401704"><ele>271.0</ele><time>2026-08-12T02:56:01Z</time></trkpt>
<trkpt lat="34.84784" lon="134.1401857"><ele>271.0</ele><time>2026-08-12T02:56:02Z</time></trkpt>
<trkpt lat="34.8478233" lon="134.1401907"><ele>270.0</ele><time>2026-08-12T02:56:03Z</time></trkpt>
<trkpt lat="34.8478067" lon="134.1401958"><ele>270.0</ele><time>2026-08-12T02:56:04Z</time></trkpt>
<trkpt lat="34.8477901" lon="134.1402009"><ele>270.0</ele><time>2026-08-12T02:56:05Z</time></trkpt>
<trkpt lat="34.8477402" lon="134.1402187"><ele>270.0</ele><time>2026-08-12T02:56:06Z</time></trkpt>
<trkpt lat="34.8477254" lon="134.1402252"><ele>269.0</ele><time>2026-08-12T02:56:07Z</time></trkpt>
<trkpt lat="34.8477107" lon="134.1402318"><ele>269.0</ele><time>2026-08-12T02:56:08Z</time></trkpt>
<trkpt lat="34.847696" lon="134.1402384"><ele>269.0</ele><time>2026-08-12T02:56:09Z</time></trkpt>
<trkpt lat="34.8476632" lon="134.1402668"><ele>269.0</ele><time>2026-08-12T02:56:10Z</time></trkpt>
<trkpt lat="34.8476578" lon="134.1402805"><ele>268.0</ele><time>2026-08-12T02:56:11Z</time></trkpt>
<trkpt lat="34.8476524" lon="134.1402942"><ele>268.0</ele><time>2026-08-12T02:56:12Z</time></trkpt>
<trkpt lat="34.847647" lon="134.1403079"><ele>268.0</ele><time>2026-08-12T02:56:13Z</time></trkpt>
<trkpt lat="34.8476522" lon="134.1403576"><ele>268.0</ele><time>2026-08-12T02:56:14Z</time></trkpt>
<trkpt lat="34.8476595" lon="134.140376"><ele>267.0</ele><time>2026-08-12T02:56:15Z</time></trkpt>
<trkpt lat="34.8476669" lon="134.1403944"><ele>267.0</ele><time>2026-08-12T02:56:16Z</time></trkpt>
<trkpt lat="34.8476743" lon="134.1404129"><ele>267.0</ele><time>2026-08-12T02:56:17Z</time></trkpt>
<trkpt lat="34.8477029" lon="134.1404684"><ele>267.0</ele><time>2026-08-12T02:56:18Z</time></trkpt>
<trkpt lat="34.8477101" lon="134.1404874"><ele>266.0</ele><time>2026-08-12T02:56:19Z</time></trkpt>
<trkpt lat="34.8477173" lon="134.1405064"><ele>266.0</ele><time>2026-08-12T02:56:20Z</time></trkpt>
<trkpt lat="34.8477245" lon="134.1405255"><ele>266.0</ele><time>2026-08-12T02:56:21Z</time></trkpt>
<trkpt lat="34.8477264" lon="134.1405841"><ele>266.0</ele><time>2026-08-12T02:56:22Z</time></trkpt>
<trkpt lat="34.8477207" lon="134.1406022"><ele>265.0</ele><time>2026-08-12T02:56:23Z</time></trkpt>
<trkpt lat="34.847715" lon="134.1406203"><ele>265.0</ele><time>2026-08-12T02:56:24Z</time></trkpt>
<trkpt lat="34.8477093" lon="134.1406385"><ele>264.0</ele><time>2026-08-12T02:56:25Z</time></trkpt>
<trkpt lat="34.8476779" lon="134.140685"><ele>264.0</ele><time>2026-08-12T02:56:26Z</time></trkpt>
<trkpt lat="34.8476647" lon="134.1406983"><ele>263.0</ele><time>2026-08-12T02:56:27Z</time></trkpt>
<trkpt lat="34.8476516" lon="134.1407116"><ele>263.0</ele><time>2026-08-12T02:56:28Z</time></trkpt>
<trkpt lat="34.8476385" lon="134.1407249"><ele>263.0</ele><time>2026-08-12T02:56:29Z</time></trkpt>
<trkpt lat="34.847591" lon="134.1407594"><ele>263.0</ele><time>2026-08-12T02:56:30Z</time></trkpt>
<trkpt lat="34.8475737" lon="134.1407698"><ele>262.0</ele><time>2026-08-12T02:56:31Z</time></trkpt>
<trkpt lat="34.8475564" lon="134.1407803"><ele>262.0</ele><time>2026-08-12T02:56:32Z</time></trkpt>
<trkpt lat="34.8475391" lon="134.1407908"><ele>261.0</ele><time>2026-08-12T02:56:33Z</time></trkpt>
<trkpt lat="34.8474891" lon="134.1408207"><ele>261.0</ele><time>2026-08-12T02:56:34Z</time></trkpt>
<trkpt lat="34.8474731" lon="134.1408299"><ele>260.0</ele><time>2026-08-12T02:56:35Z</time></trkpt>
<trkpt lat="34.8474572" lon="134.1408392"><ele>260.0</ele><time>2026-08-12T02:56:36Z</time></trkpt>
<trkpt lat="34.8474413" lon="134.1408485"><ele>260.0</ele><time>2026-08-12T02:56:37Z</time></trkpt>
<trkpt lat="34.8473956" lon="134.1408745"><ele>260.0</ele><time>2026-08-12T02:56:38Z</time></trkpt>
<trkpt lat="34.8473807" lon="134.1408824"><ele>259.0</ele><time>2026-08-12T02:56:39Z</time></trkpt>
<trkpt lat="34.8473658" lon="134.1408903"><ele>259.0</ele><time>2026-08-12T02:56:40Z</time></trkpt>
<trkpt lat="34.847351" lon="134.1408983"><ele>258.0</ele><time>2026-08-12T02:56:41Z</time></trkpt>
<trkpt lat="34.8473078" lon="134.1409217"><ele>258.0</ele><time>2026-08-12T02:56:42Z</time></trkpt>
<trkpt lat="34.8472942" lon="134.1409293"><ele>257.0</ele><time>2026-08-12T02:56:43Z</time></trkpt>
<trkpt lat="34.8472806" lon="134.140937"><ele>257.0</ele><time>2026-08-12T02:56:44Z</time></trkpt>
<trkpt lat="34.847267" lon="134.1409447"><ele>257.0</ele><time>2026-08-12T02:56:45Z</time></trkpt>
<trkpt lat="34.8472275" lon="134.1409698"><ele>257.0</ele><time>2026-08-12T02:56:46Z</time></trkpt>
<trkpt lat="34.847214" lon="134.140979"><ele>256.0</ele><time>2026-08-12T02:56:47Z</time></trkpt>
<trkpt lat="34.8472005" lon="134.1409882"><ele>256.0</ele><time>2026-08-12T02:56:48Z</time></trkpt>
<trkpt lat="34.847187" lon="134.1409975"><ele>255.0</ele><time>2026-08-12T02:56:49Z</time></trkpt>
<trkpt lat="34.8471523" lon="134.1410297"><ele>255.0</ele><time>2026-08-12T02:56:50Z</time></trkpt>
<trkpt lat="34.8471455" lon="134.1410439"><ele>254.0</ele><time>2026-08-12T02:56:51Z</time></trkpt>
<trkpt lat="34.8471387" lon="134.1410581"><ele>254.0</ele><time>2026-08-12T02:56:52Z</time></trkpt>
<trkpt lat="34.847132" lon="134.1410724"><ele>253.0</ele><time>2026-08-12T02:56:53Z</time></trkpt>
<trkpt lat="34.8471273" lon="134.1411238"><ele>253.0</ele><time>2026-08-12T02:56:54Z</time></trkpt>
<trkpt lat="34.8471263" lon="134.1411414"><ele>252.0</ele><time>2026-08-12T02:56:55Z</time></trkpt>
<trkpt lat="34.8471253" lon="134.141159"><ele>252.0</ele><time>2026-08-12T02:56:56Z</time></trkpt>
<trkpt lat="34.8471244" lon="134.1411766"><ele>252.0</ele><time>2026-08-12T02:56:57Z</time></trkpt>
<trkpt lat="34.8471129" lon="134.1412292"><ele>252.0</ele><time>2026-08-12T02:56:58Z</time></trkpt>
<trkpt lat="34.8471058" lon="134.1412459"><ele>251.0</ele><time>2026-08-12T02:56:59Z</time></trkpt>
<trkpt lat="34.8470987" lon="134.1412627"><ele>251.0</ele><time>2026-08-12T02:57:00Z</time></trkpt>
<trkpt lat="34.8470916" lon="134.1412795"><ele>250.0</ele><time>2026-08-12T02:57:01Z</time></trkpt>
<trkpt lat="34.8470666" lon="134.141332"><ele>250.0</ele><time>2026-08-12T02:57:02Z</time></trkpt>
<trkpt lat="34.8470588" lon="134.1413496"><ele>249.0</ele><time>2026-08-12T02:57:03Z</time></trkpt>
<trkpt lat="34.847051" lon="134.1413673"><ele>249.0</ele><time>2026-08-12T02:57:04Z</time></trkpt>
<trkpt lat="34.8470433" lon="134.141385"><ele>248.0</ele><time>2026-08-12T02:57:05Z</time></trkpt>
<trkpt lat="34.8470246" lon="134.1414405"><ele>248.0</ele><time>2026-08-12T02:57:06Z</time></trkpt>
<trkpt lat="34.8470193" lon="134.1414588"><ele>247.0</ele><time>2026-08-12T02:57:07Z</time></trkpt>
<trkpt lat="34.847014" lon="134.1414771"><ele>247.0</ele><time>2026-08-12T02:57:08Z</time></trkpt>
<trkpt lat="34.8470088" lon="134.1414954"><ele>246.0</ele><time>2026-08-12T02:57:09Z</time></trkpt>
<trkpt lat="34.8469932" lon="134.1415473"><ele>246.0</ele><time>2026-08-12T02:57:10Z</time></trkpt>
<trkpt lat="34.8469884" lon="134.1415649"><ele>245.0</ele><time>2026-08-12T02:57:11Z</time></trkpt>
<trkpt lat="34.8469837" lon="134.1415825"><ele>245.0</ele><time>2026-08-12T02:57:12Z</time></trkpt>
<trkpt lat="34.846979" lon="134.1416002"><ele>245.0</ele><time>2026-08-12T02:57:13Z</time></trkpt>
<trkpt lat="34.8469646" lon="134.1416521"><ele>245.0</ele><time>2026-08-12T02:57:14Z</time></trkpt>
<trkpt lat="34.8469607" lon="134.1416698"><ele>244.0</ele><time>2026-08-12T02:57:15Z</time></trkpt>
<trkpt lat="34.8469568" lon="134.1416875"><ele>244.0</ele><time>2026-08-12T02:57:16Z</time></trkpt>
<trkpt lat="34.8469529" lon="134.1417052"><ele>244.0</ele><time>2026-08-12T02:57:17Z</time></trkpt>
<trkpt lat="34.8469457" lon="134.1417602"><ele>244.0</ele><time>2026-08-12T02:57:18Z</time></trkpt>
<trkpt lat="34.8469455" lon="134.1417781"><ele>244.0</ele><time>2026-08-12T02:57:19Z</time></trkpt>
<trkpt lat="34.8469453" lon="134.141796"><ele>244.0</ele><time>2026-08-12T02:57:20Z</time></trkpt>
<trkpt lat="34.8469452" lon="134.141814"><ele>244.0</ele><time>2026-08-12T02:57:21Z</time></trkpt>
<trkpt lat="34.8469528" lon="134.1418681"><ele>244.0</ele><time>2026-08-12T02:57:22Z</time></trkpt>
<trkpt lat="34.8469565" lon="134.1418859"><ele>243.0</ele><time>2026-08-12T02:57:23Z</time></trkpt>
<trkpt lat="34.8469602" lon="134.1419037"><ele>243.0</ele><time>2026-08-12T02:57:24Z</time></trkpt>
<trkpt lat="34.8469639" lon="134.1419215"><ele>243.0</ele><time>2026-08-12T02:57:25Z</time></trkpt>
<trkpt lat="34.8469729" lon="134.1419738"><ele>243.0</ele><time>2026-08-12T02:57:26Z</time></trkpt>
<trkpt lat="34.846974" lon="134.1419919"><ele>242.0</ele><time>2026-08-12T02:57:27Z</time></trkpt>
<trkpt lat="34.8469752" lon="134.1420101"><ele>242.0</ele><time>2026-08-12T02:57:28Z</time></trkpt>
<trkpt lat="34.8469764" lon="134.1420283"><ele>242.0</ele><time>2026-08-12T02:57:29Z</time></trkpt>
<trkpt lat="34.8469744" lon="134.1420841"><ele>242.0</ele><time>2026-08-12T02:57:30Z</time></trkpt>
<trkpt lat="34.8469724" lon="134.1421027"><ele>241.0</ele><time>2026-08-12T02:57:31Z</time></trkpt>
<trkpt lat="34.8469704" lon="134.1421213"><ele>241.0</ele><time>2026-08-12T02:57:32Z</time></trkpt>
<trkpt lat="34.8469685" lon="134.1421399"><ele>240.0</ele><time>2026-08-12T02:57:33Z</time></trkpt>
<trkpt lat="34.8469605" lon="134.1421927"><ele>240.0</ele><time>2026-08-12T02:57:34Z</time></trkpt>
<trkpt lat="34.8469564" lon="134.1422115"><ele>239.0</ele><time>2026-08-12T02:57:35Z</time></trkpt>
<trkpt lat="34.8469523" lon="134.1422303"><ele>239.0</ele><time>2026-08-12T02:57:36Z</time></trkpt>
<trkpt lat="34.8469482" lon="134.1422491"><ele>238.0</ele><time>2026-08-12T02:57:37Z</time></trkpt>
<trkpt lat="34.8469351" lon="134.1423083"><ele>238.0</ele><time>2026-08-12T02:57:38Z</time></trkpt>
<trkpt lat="34.8469314" lon="134.1423278"><ele>237.0</ele><time>2026-08-12T02:57:39Z</time></trkpt>
<trkpt lat="34.8469277" lon="134.1423473"><ele>237.0</ele><time>2026-08-12T02:57:40Z</time></trkpt>
<trkpt lat="34.846924" lon="134.1423669"><ele>236.0</ele><time>2026-08-12T02:57:41Z</time></trkpt>
<trkpt lat="34.8469158" lon="134.1424234"><ele>236.0</ele><time>2026-08-12T02:57:42Z</time></trkpt>
<trkpt lat="34.8469133" lon="134.1424422"><ele>235.0</ele><time>2026-08-12T02:57:43Z</time></trkpt>
<trkpt lat="34.8469109" lon="134.1424611"><ele>235.0</ele><time>2026-08-12T02:57:44Z</time></trkpt>
<trkpt lat="34.8469085" lon="134.14248"><ele>235.0</ele><time>2026-08-12T02:57:45Z</time></trkpt>
<trkpt lat="34.8468994" lon="134.1425372"><ele>235.0</ele><time>2026-08-12T02:57:46Z</time></trkpt>
<trkpt lat="34.8468955" lon="134.1425559"><ele>234.0</ele><time>2026-08-12T02:57:47Z</time></trkpt>
<trkpt lat="34.8468916" lon="134.1425746"><ele>234.0</ele><time>2026-08-12T02:57:48Z</time></trkpt>
<trkpt lat="34.8468877" lon="134.1425933"><ele>234.0</ele><time>2026-08-12T02:57:49Z</time></trkpt>
<trkpt lat="34.8468786" lon="134.1426501"><ele>234.0</ele><time>2026-08-12T02:57:50Z</time></trkpt>
<trkpt lat="34.8468759" lon="134.1426693"><ele>233.0</ele><time>2026-08-12T02:57:51Z</time></trkpt>
<trkpt lat="34.8468732" lon="134.1426886"><ele>233.0</ele><time>2026-08-12T02:57:52Z</time></trkpt>
<trkpt lat="34.8468705" lon="134.1427079"><ele>233.0</ele><time>2026-08-12T02:57:53Z</time></trkpt>
<trkpt lat="34.8468593" lon="134.1427658"><ele>233.0</ele><time>2026-08-12T02:57:54Z</time></trkpt>
<trkpt lat="34.8468545" lon="134.1427856"><ele>232.0</ele><time>2026-08-12T02:57:55Z</time></trkpt>
<trkpt lat="34.8468498" lon="134.1428054"><ele>232.0</ele><time>2026-08-12T02:57:56Z</time></trkpt>
<trkpt lat="34.8468451" lon="134.1428253"><ele>232.0</ele><time>2026-08-12T02:57:57Z</time></trkpt>
<trkpt lat="34.8468295" lon="134.1428814"><ele>232.0</ele><time>2026-08-12T02:57:58Z</time></trkpt>
<trkpt lat="34.8468238" lon="134.1428994"><ele>231.0</ele><time>2026-08-12T02:57:59Z</time></trkpt>
<trkpt lat="34.8468181" lon="134.1429175"><ele>231.0</ele><time>2026-08-12T02:58:00Z</time></trkpt>
<trkpt lat="34.8468124" lon="134.1429356"><ele>231.0</ele><time>2026-08-12T02:58:01Z</time></trkpt>
<trkpt lat="34.8467956" lon="134.1429907"><ele>231.0</ele><time>2026-08-12T02:58:02Z</time></trkpt>
<trkpt lat="34.846791" lon="134.1430102"><ele>231.0</ele><time>2026-08-12T02:58:03Z</time></trkpt>
<trkpt lat="34.8467865" lon="134.1430297"><ele>231.0</ele><time>2026-08-12T02:58:04Z</time></trkpt>
<trkpt lat="34.846782" lon="134.1430493"><ele>231.0</ele><time>2026-08-12T02:58:05Z</time></trkpt>
<trkpt lat="34.8467697" lon="134.1431095"><ele>231.0</ele><time>2026-08-12T02:58:06Z</time></trkpt>
<trkpt lat="34.8467654" lon="134.1431294"><ele>230.0</ele><time>2026-08-12T02:58:07Z</time></trkpt>
<trkpt lat="34.8467612" lon="134.1431493"><ele>230.0</ele><time>2026-08-12T02:58:08Z</time></trkpt>
<trkpt lat="34.846757" lon="134.1431692"><ele>230.0</ele><time>2026-08-12T02:58:09Z</time></trkpt>
<trkpt lat="34.8467435" lon="134.1432261"><ele>230.0</ele><time>2026-08-12T02:58:10Z</time></trkpt>
<trkpt lat="34.8467393" lon="134.1432444"><ele>230.0</ele><time>2026-08-12T02:58:11Z</time></trkpt>
<trkpt lat="34.8467352" lon="134.1432627"><ele>230.0</ele><time>2026-08-12T02:58:12Z</time></trkpt>
<trkpt lat="34.8467311" lon="134.143281"><ele>230.0</ele><time>2026-08-12T02:58:13Z</time></trkpt>
<trkpt lat="34.8467204" lon="134.1433348"><ele>230.0</ele><time>2026-08-12T02:58:14Z</time></trkpt>
<trkpt lat="34.8467173" lon="134.1433532"><ele>229.0</ele><time>2026-08-12T02:58:15Z</time></trkpt>
<trkpt lat="34.8467143" lon="134.1433716"><ele>229.0</ele><time>2026-08-12T02:58:16Z</time></trkpt>
<trkpt lat="34.8467113" lon="134.1433901"><ele>229.0</ele><time>2026-08-12T02:58:17Z</time></trkpt>
<trkpt lat="34.8467036" lon="134.1434476"><ele>229.0</ele><time>2026-08-12T02:58:18Z</time></trkpt>
<trkpt lat="34.8467035" lon="134.1434669"><ele>229.0</ele><time>2026-08-12T02:58:19Z</time></trkpt>
<trkpt lat="34.8467035" lon="134.1434862"><ele>229.0</ele><time>2026-08-12T02:58:20Z</time></trkpt>
<trkpt lat="34.8467035" lon="134.1435055"><ele>229.0</ele><time>2026-08-12T02:58:21Z</time></trkpt>
<trkpt lat="34.8467222" lon="134.1435593"><ele>229.0</ele><time>2026-08-12T02:58:22Z</time></trkpt>
<trkpt lat="34.8467346" lon="134.1435735"><ele>228.0</ele><time>2026-08-12T02:58:23Z</time></trkpt>
<trkpt lat="34.8467471" lon="134.1435878"><ele>228.0</ele><time>2026-08-12T02:58:24Z</time></trkpt>
<trkpt lat="34.8467596" lon="134.1436021"><ele>228.0</ele><time>2026-08-12T02:58:25Z</time></trkpt>
<trkpt lat="34.8468065" lon="134.143639"><ele>228.0</ele><time>2026-08-12T02:58:26Z</time></trkpt>
<trkpt lat="34.8468219" lon="134.1436517"><ele>227.0</ele><time>2026-08-12T02:58:27Z</time></trkpt>
<trkpt lat="34.8468374" lon="134.1436645"><ele>227.0</ele><time>2026-08-12T02:58:28Z</time></trkpt>
<trkpt lat="34.8468529" lon="134.1436773"><ele>227.0</ele><time>2026-08-12T02:58:29Z</time></trkpt>
<trkpt lat="34.8468904" lon="134.1437174"><ele>227.0</ele><time>2026-08-12T02:58:30Z</time></trkpt>
<trkpt lat="34.8468981" lon="134.1437285"><ele>226.0</ele><time>2026-08-12T02:58:31Z</time></trkpt>
<trkpt lat="34.8469059" lon="134.1437397"><ele>226.0</ele><time>2026-08-12T02:58:32Z</time></trkpt>
<trkpt lat="34.8469137" lon="134.1437509"><ele>225.0</ele><time>2026-08-12T02:58:33Z</time></trkpt>
<trkpt lat="34.8469221" lon="134.1437621"><ele>223.0</ele><time>2026-08-12T02:58:40Z</time></trkpt>
<trkpt lat="34.8469344" lon="134.1437753"><ele>223.0</ele><time>2026-08-12T02:58:41Z</time></trkpt>
<trkpt lat="34.8469396" lon="134.1437791"><ele>223.0</ele><time>2026-08-12T02:58:42Z</time></trkpt>
<trkpt lat="34.8469448" lon="134.1437829"><ele>223.0</ele><time>2026-08-12T02:58:43Z</time></trkpt>
<trkpt lat="34.84695" lon="134.1437867"><ele>223.0</ele><time>2026-08-12T02:58:44Z</time></trkpt>
<trkpt lat="34.8469735" lon="134.1438007"><ele>223.0</ele><time>2026-08-12T02:58:45Z</time></trkpt>
<trkpt lat="34.846984" lon="134.1438064"><ele>223.0</ele><time>2026-08-12T02:58:46Z</time></trkpt>
<trkpt lat="34.8469946" lon="134.1438121"><ele>222.0</ele><time>2026-08-12T02:58:47Z</time></trkpt>
<trkpt lat="34.8470052" lon="134.1438178"><ele>222.0</ele><time>2026-08-12T02:58:48Z</time></trkpt>
<trkpt lat="34.8470427" lon="134.143839"><ele>222.0</ele><time>2026-08-12T02:58:49Z</time></trkpt>
<trkpt lat="34.8470554" lon="134.1438487"><ele>222.0</ele><time>2026-08-12T02:58:50Z</time></trkpt>
<trkpt lat="34.8470681" lon="134.1438584"><ele>221.0</ele><time>2026-08-12T02:58:51Z</time></trkpt>
<trkpt lat="34.8470809" lon="134.1438681"><ele>221.0</ele><time>2026-08-12T02:58:52Z</time></trkpt>
<trkpt lat="34.8471161" lon="134.1439064"><ele>221.0</ele><time>2026-08-12T02:58:53Z</time></trkpt>
<trkpt lat="34.8471236" lon="134.143922"><ele>221.0</ele><time>2026-08-12T02:58:54Z</time></trkpt>
<trkpt lat="34.8471311" lon="134.1439377"><ele>220.0</ele><time>2026-08-12T02:58:55Z</time></trkpt>
<trkpt lat="34.8471387" lon="134.1439534"><ele>220.0</ele><time>2026-08-12T02:58:56Z</time></trkpt>
<trkpt lat="34.8471422" lon="134.1440072"><ele>219.0</ele><time>2026-08-12T02:58:57Z</time></trkpt>
<trkpt lat="34.8471405" lon="134.1440264"><ele>219.0</ele><time>2026-08-12T02:58:58Z</time></trkpt>
<trkpt lat="34.8471388" lon="134.1440457"><ele>218.0</ele><time>2026-08-12T02:58:59Z</time></trkpt>
<trkpt lat="34.8471371" lon="134.144065"><ele>218.0</ele><time>2026-08-12T02:59:00Z</time></trkpt>
<trkpt lat="34.8471298" lon="134.1441241"><ele>218.0</ele><time>2026-08-12T02:59:01Z</time></trkpt>
<trkpt lat="34.8471276" lon="134.1441447"><ele>218.0</ele><time>2026-08-12T02:59:02Z</time></trkpt>
<trkpt lat="34.8471254" lon="134.1441654"><ele>217.0</ele><time>2026-08-12T02:59:03Z</time></trkpt>
<trkpt lat="34.8471233" lon="134.1441861"><ele>217.0</ele><time>2026-08-12T02:59:04Z</time></trkpt>
<trkpt lat="34.8471184" lon="134.1442467"><ele>217.0</ele><time>2026-08-12T02:59:05Z</time></trkpt>
<trkpt lat="34.8471164" lon="134.1442661"><ele>217.0</ele><time>2026-08-12T02:59:06Z</time></trkpt>
<trkpt lat="34.8471144" lon="134.1442855"><ele>216.0</ele><time>2026-08-12T02:59:07Z</time></trkpt>
<trkpt lat="34.8471125" lon="134.1443049"><ele>216.0</ele><time>2026-08-12T02:59:08Z</time></trkpt>
<trkpt lat="34.847094" lon="134.1443558"><ele>216.0</ele><time>2026-08-12T02:59:09Z</time></trkpt>
<trkpt lat="34.8470833" lon="134.1443692"><ele>216.0</ele><time>2026-08-12T02:59:10Z</time></trkpt>
<trkpt lat="34.8470727" lon="134.1443826"><ele>215.0</ele><time>2026-08-12T02:59:11Z</time></trkpt>
<trkpt lat="34.8470621" lon="134.144396"><ele>215.0</ele><time>2026-08-12T02:59:12Z</time></trkpt>
<trkpt lat="34.8470214" lon="134.1444295"><ele>215.0</ele><time>2026-08-12T02:59:13Z</time></trkpt>
<trkpt lat="34.8470057" lon="134.1444394"><ele>215.0</ele><time>2026-08-12T02:59:14Z</time></trkpt>
<trkpt lat="34.84699" lon="134.1444493"><ele>214.0</ele><time>2026-08-12T02:59:15Z</time></trkpt>
<trkpt lat="34.8469744" lon="134.1444593"><ele>214.0</ele><time>2026-08-12T02:59:16Z</time></trkpt>
<trkpt lat="34.8469264" lon="134.1444846"><ele>214.0</ele><time>2026-08-12T02:59:17Z</time></trkpt>
<trkpt lat="34.8469109" lon="134.1444928"><ele>214.0</ele><time>2026-08-12T02:59:18Z</time></trkpt>
<trkpt lat="34.8468955" lon="134.144501"><ele>213.0</ele><time>2026-08-12T02:59:19Z</time></trkpt>
<trkpt lat="34.8468801" lon="134.1445092"><ele>213.0</ele><time>2026-08-12T02:59:20Z</time></trkpt>
<trkpt lat="34.846833" lon="134.1445289"><ele>213.0</ele><time>2026-08-12T02:59:21Z</time></trkpt>
<trkpt lat="34.8468176" lon="134.1445363"><ele>213.0</ele><time>2026-08-12T02:59:22Z</time></trkpt>
<trkpt lat="34.8468022" lon="134.1445438"><ele>212.0</ele><time>2026-08-12T02:59:23Z</time></trkpt>
<trkpt lat="34.8467868" lon="134.1445513"><ele>212.0</ele><time>2026-08-12T02:59:24Z</time></trkpt>
<trkpt lat="34.846744" lon="134.1445824"><ele>212.0</ele><time>2026-08-12T02:59:25Z</time></trkpt>
<trkpt lat="34.8467311" lon="134.1445957"><ele>212.0</ele><time>2026-08-12T02:59:26Z</time></trkpt>
<trkpt lat="34.8467183" lon="134.144609"><ele>211.0</ele><time>2026-08-12T02:59:27Z</time></trkpt>
<trkpt lat="34.8467055" lon="134.1446224"><ele>211.0</ele><time>2026-08-12T02:59:28Z</time></trkpt>
<trkpt lat="34.8466704" lon="134.1446677"><ele>211.0</ele><time>2026-08-12T02:59:29Z</time></trkpt>
<trkpt lat="34.8466583" lon="134.1446831"><ele>211.0</ele><time>2026-08-12T02:59:30Z</time></trkpt>
<trkpt lat="34.8466462" lon="134.1446986"><ele>210.0</ele><time>2026-08-12T02:59:31Z</time></trkpt>
<trkpt lat="34.8466341" lon="134.1447141"><ele>210.0</ele><time>2026-08-12T02:59:32Z</time></trkpt>
<trkpt lat="34.8465943" lon="134.1447592"><ele>209.0</ele><time>2026-08-12T02:59:33Z</time></trkpt>
<trkpt lat="34.8465806" lon="134.1447732"><ele>209.0</ele><time>2026-08-12T02:59:34Z</time></trkpt>
<trkpt lat="34.846567" lon="134.1447872"><ele>208.0</ele><time>2026-08-12T02:59:35Z</time></trkpt>
<trkpt lat="34.8465534" lon="134.1448012"><ele>208.0</ele><time>2026-08-12T02:59:36Z</time></trkpt>
<trkpt lat="34.8465115" lon="134.1448423"><ele>208.0</ele><time>2026-08-12T02:59:37Z</time></trkpt>
<trkpt lat="34.8464977" lon="134.1448566"><ele>208.0</ele><time>2026-08-12T02:59:38Z</time></trkpt>
<trkpt lat="34.846484" lon="134.1448709"><ele>208.0</ele><time>2026-08-12T02:59:39Z</time></trkpt>
<trkpt lat="34.8464703" lon="134.1448853"><ele>208.0</ele><time>2026-08-12T02:59:40Z</time></trkpt>
<trkpt lat="34.8464315" lon="134.14493"><ele>208.0</ele><time>2026-08-12T02:59:41Z</time></trkpt>
<trkpt lat="34.8464191" lon="134.1449447"><ele>208.0</ele><time>2026-08-12T02:59:42Z</time></trkpt>
<trkpt lat="34.8464067" lon="134.1449594"><ele>207.0</ele><time>2026-08-12T02:59:43Z</time></trkpt>
<trkpt lat="34.8463944" lon="134.1449742"><ele>207.0</ele><time>2026-08-12T02:59:44Z</time></trkpt>
<trkpt lat="34.8463615" lon="134.1450215"><ele>207.0</ele><time>2026-08-12T02:59:45Z</time></trkpt>
<trkpt lat="34.8463531" lon="134.1450399"><ele>207.0</ele><time>2026-08-12T02:59:46Z</time></trkpt>
<trkpt lat="34.8463447" lon="134.1450583"><ele>206.0</ele><time>2026-08-12T02:59:47Z</time></trkpt>
<trkpt lat="34.8463364" lon="134.1450767"><ele>206.0</ele><time>2026-08-12T02:59:48Z</time></trkpt>
<trkpt lat="34.8463213" lon="134.14514"><ele>206.0</ele><time>2026-08-12T02:59:49Z</time></trkpt>
<trkpt lat="34.8463198" lon="134.1451622"><ele>206.0</ele><time>2026-08-12T02:59:50Z</time></trkpt>
<trkpt lat="34.8463183" lon="134.1451845"><ele>206.0</ele><time>2026-08-12T02:59:51Z</time></trkpt>
<trkpt lat="34.8463168" lon="134.1452068"><ele>206.0</ele><time>2026-08-12T02:59:52Z</time></trkpt>
<trkpt lat="34.8463178" lon="134.1452749"><ele>206.0</ele><time>2026-08-12T02:59:53Z</time></trkpt>
<trkpt lat="34.8463195" lon="134.1452973"><ele>206.0</ele><time>2026-08-12T02:59:54Z</time></trkpt>
<trkpt lat="34.8463212" lon="134.1453197"><ele>205.0</ele><time>2026-08-12T02:59:55Z</time></trkpt>
<trkpt lat="34.8463229" lon="134.1453421"><ele>205.0</ele><time>2026-08-12T02:59:56Z</time></trkpt>
<trkpt lat="34.8463308" lon="134.145407"><ele>205.0</ele><time>2026-08-12T02:59:57Z</time></trkpt>
<trkpt lat="34.8463333" lon="134.145429"><ele>205.0</ele><time>2026-08-12T02:59:58Z</time></trkpt>
<trkpt lat="34.8463358" lon="134.1454511"><ele>205.0</ele><time>2026-08-12T02:59:59Z</time></trkpt>
<trkpt lat="34.8463384" lon="134.1454732"><ele>205.0</ele><time>2026-08-12T03:00:00Z</time></trkpt>
<trkpt lat="34.846343" lon="134.1455386"><ele>205.0</ele><time>2026-08-12T03:00:01Z</time></trkpt>
<trkpt lat="34.8463422" lon="134.1455597"><ele>205.0</ele><time>2026-08-12T03:00:02Z</time></trkpt>
<trkpt lat="34.8463414" lon="134.1455808"><ele>204.0</ele><time>2026-08-12T03:00:03Z</time></trkpt>
<trkpt lat="34.8463407" lon="134.145602"><ele>204.0</ele><time>2026-08-12T03:00:04Z</time></trkpt>
<trkpt lat="34.8463336" lon="134.1456638"><ele>204.0</ele><time>2026-08-12T03:00:05Z</time></trkpt>
<trkpt lat="34.8463297" lon="134.1456841"><ele>204.0</ele><time>2026-08-12T03:00:06Z</time></trkpt>
<trkpt lat="34.8463258" lon="134.1457044"><ele>203.0</ele><time>2026-08-12T03:00:07Z</time></trkpt>
<trkpt lat="34.846322" lon="134.1457247"><ele>203.0</ele><time>2026-08-12T03:00:08Z</time></trkpt>
<trkpt lat="34.8463048" lon="134.1457863"><ele>203.0</ele><time>2026-08-12T03:00:09Z</time></trkpt>
<trkpt lat="34.846297" lon="134.1458057"><ele>203.0</ele><time>2026-08-12T03:00:10Z</time></trkpt>
<trkpt lat="34.8462892" lon="134.1458252"><ele>202.0</ele><time>2026-08-12T03:00:11Z</time></trkpt>
<trkpt lat="34.8462815" lon="134.1458447"><ele>202.0</ele><time>2026-08-12T03:00:12Z</time></trkpt>
<trkpt lat="34.8462508" lon="134.1458962"><ele>202.0</ele><time>2026-08-12T03:00:13Z</time></trkpt>
<trkpt lat="34.846238" lon="134.1459117"><ele>202.0</ele><time>2026-08-12T03:00:14Z</time></trkpt>
<trkpt lat="34.8462252" lon="134.1459272"><ele>201.0</ele><time>2026-08-12T03:00:15Z</time></trkpt>
<trkpt lat="34.8462124" lon="134.1459428"><ele>201.0</ele><time>2026-08-12T03:00:16Z</time></trkpt>
<trkpt lat="34.8461671" lon="134.1459826"><ele>201.0</ele><time>2026-08-12T03:00:17Z</time></trkpt>
<trkpt lat="34.8461507" lon="134.145994"><ele>201.0</ele><time>2026-08-12T03:00:18Z</time></trkpt>
<trkpt lat="34.8461343" lon="134.1460054"><ele>200.0</ele><time>2026-08-12T03:00:19Z</time></trkpt>
<trkpt lat="34.8461179" lon="134.1460169"><ele>200.0</ele><time>2026-08-12T03:00:20Z</time></trkpt>
<trkpt lat="34.8460677" lon="134.1460458"><ele>200.0</ele><time>2026-08-12T03:00:21Z</time></trkpt>
<trkpt lat="34.8460507" lon="134.1460553"><ele>200.0</ele><time>2026-08-12T03:00:22Z</time></trkpt>
<trkpt lat="34.8460338" lon="134.1460649"><ele>200.0</ele><time>2026-08-12T03:00:23Z</time></trkpt>
<trkpt lat="34.8460169" lon="134.1460745"><ele>200.0</ele><time>2026-08-12T03:00:24Z</time></trkpt>
<trkpt lat="34.8459681" lon="134.1461072"><ele>200.0</ele><time>2026-08-12T03:00:25Z</time></trkpt>
<trkpt lat="34.8459539" lon="134.1461206"><ele>200.0</ele><time>2026-08-12T03:00:26Z</time></trkpt>
<trkpt lat="34.8459397" lon="134.146134"><ele>199.0</ele><time>2026-08-12T03:00:27Z</time></trkpt>
<trkpt lat="34.8459255" lon="134.1461475"><ele>199.0</ele><time>2026-08-12T03:00:28Z</time></trkpt>
<trkpt lat="34.8458885" lon="134.1461951"><ele>199.0</ele><time>2026-08-12T03:00:29Z</time></trkpt>
<trkpt lat="34.8458779" lon="134.1462119"><ele>199.0</ele><time>2026-08-12T03:00:30Z</time></trkpt>
<trkpt lat="34.8458673" lon="134.1462288"><ele>199.0</ele><time>2026-08-12T03:00:31Z</time></trkpt>
<trkpt lat="34.8458568" lon="134.1462457"><ele>199.0</ele><time>2026-08-12T03:00:32Z</time></trkpt>
<trkpt lat="34.8458269" lon="134.1462984"><ele>199.0</ele><time>2026-08-12T03:00:33Z</time></trkpt>
<trkpt lat="34.8458178" lon="134.1463164"><ele>199.0</ele><time>2026-08-12T03:00:34Z</time></trkpt>
<trkpt lat="34.8458088" lon="134.1463345"><ele>198.0</ele><time>2026-08-12T03:00:35Z</time></trkpt>
<trkpt lat="34.8457998" lon="134.1463526"><ele>198.0</ele><time>2026-08-12T03:00:36Z</time></trkpt>
<trkpt lat="34.8457801" lon="134.1464106"><ele>198.0</ele><time>2026-08-12T03:00:37Z</time></trkpt>
<trkpt lat="34.8457764" lon="134.1464317"><ele>198.0</ele><time>2026-08-12T03:00:38Z</time></trkpt>
<trkpt lat="34.8457727" lon="134.1464529"><ele>198.0</ele><time>2026-08-12T03:00:39Z</time></trkpt>
<trkpt lat="34.845769" lon="134.1464741"><ele>198.0</ele><time>2026-08-12T03:00:40Z</time></trkpt>
<trkpt lat="34.845769" lon="134.146541"><ele>198.0</ele><time>2026-08-12T03:00:41Z</time></trkpt>
<trkpt lat="34.8457705" lon="134.1465637"><ele>198.0</ele><time>2026-08-12T03:00:42Z</time></trkpt>
<trkpt lat="34.8457721" lon="134.1465864"><ele>197.0</ele><time>2026-08-12T03:00:43Z</time></trkpt>
<trkpt lat="34.8457737" lon="134.1466092"><ele>197.0</ele><time>2026-08-12T03:00:44Z</time></trkpt>
<trkpt lat="34.8457737" lon="134.1466759"><ele>197.0</ele><time>2026-08-12T03:00:45Z</time></trkpt>
<trkpt lat="34.8457688" lon="134.146696"><ele>197.0</ele><time>2026-08-12T03:00:46Z</time></trkpt>
<trkpt lat="34.8457639" lon="134.1467161"><ele>196.0</ele><time>2026-08-12T03:00:47Z</time></trkpt>
<trkpt lat="34.845759" lon="134.1467363"><ele>196.0</ele><time>2026-08-12T03:00:48Z</time></trkpt>
<trkpt lat="34.8457267" lon="134.1467862"><ele>196.0</ele><time>2026-08-12T03:00:49Z</time></trkpt>
<trkpt lat="34.8457123" lon="134.1467989"><ele>196.0</ele><time>2026-08-12T03:00:50Z</time></trkpt>
<trkpt lat="34.845698" lon="134.1468116"><ele>195.0</ele><time>2026-08-12T03:00:51Z</time></trkpt>
<trkpt lat="34.8456837" lon="134.1468243"><ele>195.0</ele><time>2026-08-12T03:00:52Z</time></trkpt>
<trkpt lat="34.8456375" lon="134.1468578"><ele>195.0</ele><time>2026-08-12T03:00:53Z</time></trkpt>
<trkpt lat="34.845623" lon="134.1468696"><ele>195.0</ele><time>2026-08-12T03:00:54Z</time></trkpt>
<trkpt lat="34.8456086" lon="134.1468815"><ele>194.0</ele><time>2026-08-12T03:00:55Z</time></trkpt>
<trkpt lat="34.8455942" lon="134.1468934"><ele>194.0</ele><time>2026-08-12T03:00:56Z</time></trkpt>
<trkpt lat="34.845558" lon="134.146934"><ele>194.0</ele><time>2026-08-12T03:00:57Z</time></trkpt>
<trkpt lat="34.8455479" lon="134.146949"><ele>194.0</ele><time>2026-08-12T03:00:58Z</time></trkpt>
<trkpt lat="34.8455378" lon="134.146964"><ele>193.0</ele><time>2026-08-12T03:00:59Z</time></trkpt>
<trkpt lat="34.8455277" lon="134.1469791"><ele>193.0</ele><time>2026-08-12T03:01:00Z</time></trkpt>
<trkpt lat="34.8455036" lon="134.1470337"><ele>193.0</ele><time>2026-08-12T03:01:01Z</time></trkpt>
<trkpt lat="34.8454975" lon="134.1470543"><ele>193.0</ele><time>2026-08-12T03:01:02Z</time></trkpt>
<trkpt lat="34.8454914" lon="134.1470749"><ele>192.0</ele><time>2026-08-12T03:01:03Z</time></trkpt>
<trkpt lat="34.8454853" lon="134.1470955"><ele>192.0</ele><time>2026-08-12T03:01:04Z</time></trkpt>
<trkpt lat="34.8454754" lon="134.1471594"><ele>192.0</ele><time>2026-08-12T03:01:05Z</time></trkpt>
<trkpt lat="34.8454751" lon="134.1471806"><ele>192.0</ele><time>2026-08-12T03:01:06Z</time></trkpt>
<trkpt lat="34.8454748" lon="134.1472018"><ele>192.0</ele><time>2026-08-12T03:01:07Z</time></trkpt>
<trkpt lat="34.8454745" lon="134.1472231"><ele>192.0</ele><time>2026-08-12T03:01:08Z</time></trkpt>
<trkpt lat="34.8454792" lon="134.1472861"><ele>192.0</ele><time>2026-08-12T03:01:09Z</time></trkpt>
<trkpt lat="34.8454815" lon="134.1473071"><ele>192.0</ele><time>2026-08-12T03:01:10Z</time></trkpt>
<trkpt lat="34.8454839" lon="134.1473281"><ele>191.0</ele><time>2026-08-12T03:01:11Z</time></trkpt>
<trkpt lat="34.8454863" lon="134.1473492"><ele>191.0</ele><time>2026-08-12T03:01:12Z</time></trkpt>
<trkpt lat="34.8454929" lon="134.1474139"><ele>191.0</ele><time>2026-08-12T03:01:13Z</time></trkpt>
<trkpt lat="34.8454943" lon="134.1474352"><ele>191.0</ele><time>2026-08-12T03:01:14Z</time></trkpt>
<trkpt lat="34.8454957" lon="134.1474565"><ele>191.0</ele><time>2026-08-12T03:01:15Z</time></trkpt>
<trkpt lat="34.8454972" lon="134.1474778"><ele>191.0</ele><time>2026-08-12T03:01:16Z</time></trkpt>
<trkpt lat="34.845497" lon="134.14754"><ele>191.0</ele><time>2026-08-12T03:01:17Z</time></trkpt>
<trkpt lat="34.8454943" lon="134.1475597"><ele>191.0</ele><time>2026-08-12T03:01:18Z</time></trkpt>
<trkpt lat="34.8454916" lon="134.1475795"><ele>191.0</ele><time>2026-08-12T03:01:19Z</time></trkpt>
<trkpt lat="34.8454889" lon="134.1475993"><ele>191.0</ele><time>2026-08-12T03:01:20Z</time></trkpt>
<trkpt lat="34.8454701" lon="134.1476527"><ele>191.0</ele><time>2026-08-12T03:01:21Z</time></trkpt>
<trkpt lat="34.8454591" lon="134.1476666"><ele>191.0</ele><time>2026-08-12T03:01:22Z</time></trkpt>
<trkpt lat="34.8454481" lon="134.1476805"><ele>191.0</ele><time>2026-08-12T03:01:23Z</time></trkpt>
<trkpt lat="34.8454371" lon="134.1476944"><ele>191.0</ele><time>2026-08-12T03:01:24Z</time></trkpt>
<trkpt lat="34.8453883" lon="134.1477077"><ele>191.0</ele><time>2026-08-12T03:01:25Z</time></trkpt>
<trkpt lat="34.8453696" lon="134.1477028"><ele>191.0</ele><time>2026-08-12T03:01:26Z</time></trkpt>
<trkpt lat="34.8453509" lon="134.147698"><ele>191.0</ele><time>2026-08-12T03:01:27Z</time></trkpt>
<trkpt lat="34.8453322" lon="134.1476932"><ele>191.0</ele><time>2026-08-12T03:01:28Z</time></trkpt>
<trkpt lat="34.8452772" lon="134.1476672"><ele>191.0</ele><time>2026-08-12T03:01:29Z</time></trkpt>
<trkpt lat="34.84526" lon="134.1476602"><ele>191.0</ele><time>2026-08-12T03:01:30Z</time></trkpt>
<trkpt lat="34.8452428" lon="134.1476533"><ele>191.0</ele><time>2026-08-12T03:01:31Z</time></trkpt>
<trkpt lat="34.8452256" lon="134.1476464"><ele>191.0</ele><time>2026-08-12T03:01:32Z</time></trkpt>
<trkpt lat="34.8451775" lon="134.1476372"><ele>191.0</ele><time>2026-08-12T03:01:33Z</time></trkpt>
<trkpt lat="34.8451614" lon="134.1476382"><ele>191.0</ele><time>2026-08-12T03:01:34Z</time></trkpt>
<trkpt lat="34.8451453" lon="134.1476393"><ele>191.0</ele><time>2026-08-12T03:01:35Z</time></trkpt>
<trkpt lat="34.8451292" lon="134.1476404"><ele>191.0</ele><time>2026-08-12T03:01:36Z</time></trkpt>
<trkpt lat="34.8450802" lon="134.1476529"><ele>191.0</ele><time>2026-08-12T03:01:37Z</time></trkpt>
<trkpt lat="34.8450647" lon="134.1476602"><ele>191.0</ele><time>2026-08-12T03:01:38Z</time></trkpt>
<trkpt lat="34.8450492" lon="134.1476675"><ele>191.0</ele><time>2026-08-12T03:01:39Z</time></trkpt>
<trkpt lat="34.8450337" lon="134.1476748"><ele>191.0</ele><time>2026-08-12T03:01:40Z</time></trkpt>
<trkpt lat="34.844991" lon="134.1477016"><ele>191.0</ele><time>2026-08-12T03:01:41Z</time></trkpt>
<trkpt lat="34.8449779" lon="134.1477107"><ele>191.0</ele><time>2026-08-12T03:01:42Z</time></trkpt>
<trkpt lat="34.8449648" lon="134.1477198"><ele>191.0</ele><time>2026-08-12T03:01:43Z</time></trkpt>
<trkpt lat="34.8449518" lon="134.1477289"><ele>191.0</ele><time>2026-08-12T03:01:44Z</time></trkpt>
<trkpt lat="34.8449138" lon="134.1477592"><ele>191.0</ele><time>2026-08-12T03:01:45Z</time></trkpt>
<trkpt lat="34.8449009" lon="134.1477699"><ele>191.0</ele><time>2026-08-12T03:01:46Z</time></trkpt>
<trkpt lat="34.844888" lon="134.1477806"><ele>191.0</ele><time>2026-08-12T03:01:47Z</time></trkpt>
<trkpt lat="34.8448752" lon="134.1477914"><ele>191.0</ele><time>2026-08-12T03:01:48Z</time></trkpt>
<trkpt lat="34.8448346" lon="134.1478177"><ele>191.0</ele><time>2026-08-12T03:01:49Z</time></trkpt>
<trkpt lat="34.84482" lon="134.1478239"><ele>191.0</ele><time>2026-08-12T03:01:50Z</time></trkpt>
<trkpt lat="34.8448055" lon="134.1478301"><ele>191.0</ele><time>2026-08-12T03:01:51Z</time></trkpt>
<trkpt lat="34.844791" lon="134.1478363"><ele>191.0</ele><time>2026-08-12T03:01:52Z</time></trkpt>
<trkpt lat="34.8447455" lon="134.147847"><ele>191.0</ele><time>2026-08-12T03:01:53Z</time></trkpt>
<trkpt lat="34.84473" lon="134.1478485"><ele>191.0</ele><time>2026-08-12T03:01:54Z</time></trkpt>
<trkpt lat="34.8447145" lon="134.14785"><ele>191.0</ele><time>2026-08-12T03:01:55Z</time></trkpt>
<trkpt lat="34.844699" lon="134.1478516"><ele>191.0</ele><time>2026-08-12T03:01:56Z</time></trkpt>
<trkpt lat="34.8446535" lon="134.147852"><ele>191.0</ele><time>2026-08-12T03:01:57Z</time></trkpt>
<trkpt lat="34.8446388" lon="134.1478526"><ele>191.0</ele><time>2026-08-12T03:01:58Z</time></trkpt>
<trkpt lat="34.8446242" lon="134.1478532"><ele>191.0</ele><time>2026-08-12T03:01:59Z</time></trkpt>
<trkpt lat="34.8446096" lon="134.1478538"><ele>191.0</ele><time>2026-08-12T03:02:00Z</time></trkpt>
<trkpt lat="34.8445674" lon="134.1478637"><ele>191.0</ele><time>2026-08-12T03:02:01Z</time></trkpt>
<trkpt lat="34.8445541" lon="134.1478699"><ele>192.0</ele><time>2026-08-12T03:02:02Z</time></trkpt>
<trkpt lat="34.8445408" lon="134.1478762"><ele>192.0</ele><time>2026-08-12T03:02:03Z</time></trkpt>
<trkpt lat="34.8445275" lon="134.1478825"><ele>192.0</ele><time>2026-08-12T03:02:04Z</time></trkpt>
<trkpt lat="34.8444876" lon="134.1479052"><ele>192.0</ele><time>2026-08-12T03:02:05Z</time></trkpt>
<trkpt lat="34.8444744" lon="134.1479123"><ele>192.0</ele><time>2026-08-12T03:02:06Z</time></trkpt>
<trkpt lat="34.8444613" lon="134.1479195"><ele>192.0</ele><time>2026-08-12T03:02:07Z</time></trkpt>
<trkpt lat="34.8444482" lon="134.1479267"><ele>192.0</ele><time>2026-08-12T03:02:08Z</time></trkpt>
<trkpt lat="34.8444102" lon="134.1479484"><ele>192.0</ele><time>2026-08-12T03:02:09Z</time></trkpt>
<trkpt lat="34.8443977" lon="134.1479562"><ele>193.0</ele><time>2026-08-12T03:02:10Z</time></trkpt>
<trkpt lat="34.8443852" lon="134.147964"><ele>193.0</ele><time>2026-08-12T03:02:11Z</time></trkpt>
<trkpt lat="34.8443728" lon="134.1479718"><ele>193.0</ele><time>2026-08-12T03:02:12Z</time></trkpt>
<trkpt lat="34.8443358" lon="134.1479952"><ele>193.0</ele><time>2026-08-12T03:02:13Z</time></trkpt>
<trkpt lat="34.8443227" lon="134.1480036"><ele>193.0</ele><time>2026-08-12T03:02:14Z</time></trkpt>
<trkpt lat="34.8443096" lon="134.1480121"><ele>193.0</ele><time>2026-08-12T03:02:15Z</time></trkpt>
<trkpt lat="34.8442966" lon="134.1480206"><ele>193.0</ele><time>2026-08-12T03:02:16Z</time></trkpt>
<trkpt lat="34.8442545" lon="134.1480472"><ele>193.0</ele><time>2026-08-12T03:02:17Z</time></trkpt>
<trkpt lat="34.844239" lon="134.1480558"><ele>193.0</ele><time>2026-08-12T03:02:18Z</time></trkpt>
<trkpt lat="34.8442235" lon="134.1480644"><ele>193.0</ele><time>2026-08-12T03:02:19Z</time></trkpt>
<trkpt lat="34.844208" lon="134.148073"><ele>193.0</ele><time>2026-08-12T03:02:20Z</time></trkpt>
<trkpt lat="34.8441624" lon="134.1480982"><ele>193.0</ele><time>2026-08-12T03:02:21Z</time></trkpt>
<trkpt lat="34.8441485" lon="134.148106"><ele>193.0</ele><time>2026-08-12T03:02:22Z</time></trkpt>
<trkpt lat="34.8441347" lon="134.1481138"><ele>193.0</ele><time>2026-08-12T03:02:23Z</time></trkpt>
<trkpt lat="34.8441209" lon="134.1481216"><ele>193.0</ele><time>2026-08-12T03:02:24Z</time></trkpt>
<trkpt lat="34.8440828" lon="134.1481429"><ele>193.0</ele><time>2026-08-12T03:02:25Z</time></trkpt>
<trkpt lat="34.8440701" lon="134.1481487"><ele>194.0</ele><time>2026-08-12T03:02:26Z</time></trkpt>
<trkpt lat="34.8440574" lon="134.1481545"><ele>194.0</ele><time>2026-08-12T03:02:27Z</time></trkpt>
<trkpt lat="34.8440448" lon="134.1481604"><ele>194.0</ele><time>2026-08-12T03:02:28Z</time></trkpt>
<trkpt lat="34.8440064" lon="134.1481748"><ele>194.0</ele><time>2026-08-12T03:02:29Z</time></trkpt>
<trkpt lat="34.8439928" lon="134.1481804"><ele>194.0</ele><time>2026-08-12T03:02:30Z</time></trkpt>
<trkpt lat="34.8439793" lon="134.148186"><ele>194.0</ele><time>2026-08-12T03:02:31Z</time></trkpt>
<trkpt lat="34.8439658" lon="134.1481917"><ele>194.0</ele><time>2026-08-12T03:02:32Z</time></trkpt>
<trkpt lat="34.8439213" lon="134.1482069"><ele>194.0</ele><time>2026-08-12T03:02:33Z</time></trkpt>
<trkpt lat="34.8439056" lon="134.1482117"><ele>194.0</ele><time>2026-08-12T03:02:34Z</time></trkpt>
<trkpt lat="34.84389" lon="134.1482165"><ele>194.0</ele><time>2026-08-12T03:02:35Z</time></trkpt>
<trkpt lat="34.8438744" lon="134.1482214"><ele>194.0</ele><time>2026-08-12T03:02:36Z</time></trkpt>
<trkpt lat="34.843828" lon="134.1482338"><ele>194.0</ele><time>2026-08-12T03:02:37Z</time></trkpt>
<trkpt lat="34.8438126" lon="134.1482364"><ele>195.0</ele><time>2026-08-12T03:02:38Z</time></trkpt>
<trkpt lat="34.8437973" lon="134.148239"><ele>195.0</ele><time>2026-08-12T03:02:39Z</time></trkpt>
<trkpt lat="34.843782" lon="134.1482417"><ele>195.0</ele><time>2026-08-12T03:02:40Z</time></trkpt>
<trkpt lat="34.8437399" lon="134.1482458"><ele>195.0</ele><time>2026-08-12T03:02:41Z</time></trkpt>
<trkpt lat="34.8437266" lon="134.1482481"><ele>195.0</ele><time>2026-08-12T03:02:42Z</time></trkpt>
<trkpt lat="34.8437133" lon="134.1482505"><ele>195.0</ele><time>2026-08-12T03:02:43Z</time></trkpt>
<trkpt lat="34.8437" lon="134.1482529"><ele>195.0</ele><time>2026-08-12T03:02:44Z</time></trkpt>
<trkpt lat="34.8436605" lon="134.1482645"><ele>195.0</ele><time>2026-08-12T03:02:45Z</time></trkpt>
<trkpt lat="34.8436481" lon="134.148271"><ele>196.0</ele><time>2026-08-12T03:02:46Z</time></trkpt>
<trkpt lat="34.8436357" lon="134.1482775"><ele>196.0</ele><time>2026-08-12T03:02:47Z</time></trkpt>
<trkpt lat="34.8436234" lon="134.1482841"><ele>196.0</ele><time>2026-08-12T03:02:48Z</time></trkpt>
<trkpt lat="34.8435912" lon="134.1483121"><ele>196.0</ele><time>2026-08-12T03:02:49Z</time></trkpt>
<trkpt lat="34.8435823" lon="134.1483226"><ele>196.0</ele><time>2026-08-12T03:02:50Z</time></trkpt>
<trkpt lat="34.8435734" lon="134.1483331"><ele>196.0</ele><time>2026-08-12T03:02:51Z</time></trkpt>
<trkpt lat="34.8435645" lon="134.1483437"><ele>196.0</ele><time>2026-08-12T03:02:52Z</time></trkpt>
<trkpt lat="34.8435389" lon="134.1483744"><ele>196.0</ele><time>2026-08-12T03:02:53Z</time></trkpt>
<trkpt lat="34.8435302" lon="134.1483841"><ele>197.0</ele><time>2026-08-12T03:02:54Z</time></trkpt>
<trkpt lat="34.8435215" lon="134.1483939"><ele>197.0</ele><time>2026-08-12T03:02:55Z</time></trkpt>
<trkpt lat="34.8435128" lon="134.1484037"><ele>197.0</ele><time>2026-08-12T03:02:56Z</time></trkpt>
<trkpt lat="34.8434846" lon="134.1484336"><ele>197.0</ele><time>2026-08-12T03:02:57Z</time></trkpt>
<trkpt lat="34.843474" lon="134.1484426"><ele>198.0</ele><time>2026-08-12T03:02:58Z</time></trkpt>
<trkpt lat="34.8434635" lon="134.1484516"><ele>198.0</ele><time>2026-08-12T03:02:59Z</time></trkpt>
<trkpt lat="34.843453" lon="134.1484607"><ele>198.0</ele><time>2026-08-12T03:03:00Z</time></trkpt>
<trkpt lat="34.8434185" lon="134.1484806"><ele>198.0</ele><time>2026-08-12T03:03:01Z</time></trkpt>
<trkpt lat="34.8434052" lon="134.1484851"><ele>199.0</ele><time>2026-08-12T03:03:02Z</time></trkpt>
<trkpt lat="34.843392" lon="134.1484896"><ele>199.0</ele><time>2026-08-12T03:03:03Z</time></trkpt>
<trkpt lat="34.8433788" lon="134.1484941"><ele>199.0</ele><time>2026-08-12T03:03:04Z</time></trkpt>
<trkpt lat="34.8433333" lon="134.1484998"><ele>199.0</ele><time>2026-08-12T03:03:05Z</time></trkpt>
<trkpt lat="34.8433184" lon="134.1484976"><ele>199.0</ele><time>2026-08-12T03:03:06Z</time></trkpt>
<trkpt lat="34.8433036" lon="134.1484954"><ele>199.0</ele><time>2026-08-12T03:03:07Z</time></trkpt>
<trkpt lat="34.8432888" lon="134.1484932"><ele>199.0</ele><time>2026-08-12T03:03:08Z</time></trkpt>
<trkpt lat="34.8432466" lon="134.1484781"><ele>199.0</ele><time>2026-08-12T03:03:09Z</time></trkpt>
<trkpt lat="34.8432337" lon="134.1484713"><ele>200.0</ele><time>2026-08-12T03:03:10Z</time></trkpt>
<trkpt lat="34.8432208" lon="134.1484645"><ele>200.0</ele><time>2026-08-12T03:03:11Z</time></trkpt>
<trkpt lat="34.8432079" lon="134.1484578"><ele>200.0</ele><time>2026-08-12T03:03:12Z</time></trkpt>
<trkpt lat="34.8431712" lon="134.1484358"><ele>200.0</ele><time>2026-08-12T03:03:13Z</time></trkpt>
<trkpt lat="34.8431595" lon="134.1484271"><ele>201.0</ele><time>2026-08-12T03:03:14Z</time></trkpt>
<trkpt lat="34.8431478" lon="134.1484184"><ele>201.0</ele><time>2026-08-12T03:03:15Z</time></trkpt>
<trkpt lat="34.8431362" lon="134.1484097"><ele>201.0</ele><time>2026-08-12T03:03:16Z</time></trkpt>
<trkpt lat="34.8431029" lon="134.14838"><ele>201.0</ele><time>2026-08-12T03:03:17Z</time></trkpt>
<trkpt lat="34.843092" lon="134.1483688"><ele>202.0</ele><time>2026-08-12T03:03:18Z</time></trkpt>
<trkpt lat="34.8430811" lon="134.1483576"><ele>202.0</ele><time>2026-08-12T03:03:19Z</time></trkpt>
<trkpt lat="34.8430702" lon="134.1483465"><ele>202.0</ele><time>2026-08-12T03:03:20Z</time></trkpt>
<trkpt lat="34.8430376" lon="134.1483118"><ele>202.0</ele><time>2026-08-12T03:03:21Z</time></trkpt>
<trkpt lat="34.8430273" lon="134.1483002"><ele>202.0</ele><time>2026-08-12T03:03:22Z</time></trkpt>
<trkpt lat="34.843017" lon="134.1482886"><ele>202.0</ele><time>2026-08-12T03:03:23Z</time></trkpt>
<trkpt lat="34.8430067" lon="134.1482771"><ele>202.0</ele><time>2026-08-12T03:03:24Z</time></trkpt>
<trkpt lat="34.8429771" lon="134.1482451"><ele>202.0</ele><time>2026-08-12T03:03:25Z</time></trkpt>
<trkpt lat="34.842967" lon="134.1482358"><ele>203.0</ele><time>2026-08-12T03:03:26Z</time></trkpt>
<trkpt lat="34.8429569" lon="134.1482265"><ele>203.0</ele><time>2026-08-12T03:03:27Z</time></trkpt>
<trkpt lat="34.8429468" lon="134.1482172"><ele>203.0</ele><time>2026-08-12T03:03:28Z</time></trkpt>
<trkpt lat="34.8429118" lon="134.1481938"><ele>203.0</ele><time>2026-08-12T03:03:29Z</time></trkpt>
<trkpt lat="34.8428993" lon="134.1481868"><ele>203.0</ele><time>2026-08-12T03:03:30Z</time></trkpt>
<trkpt lat="34.8428869" lon="134.1481798"><ele>203.0</ele><time>2026-08-12T03:03:31Z</time></trkpt>
<trkpt lat="34.8428745" lon="134.1481729"><ele>203.0</ele><time>2026-08-12T03:03:32Z</time></trkpt>
<trkpt lat="34.8428366" lon="134.1481532"><ele>203.0</ele><time>2026-08-12T03:03:33Z</time></trkpt>
<trkpt lat="34.8428234" lon="134.1481467"><ele>204.0</ele><time>2026-08-12T03:03:34Z</time></trkpt>
<trkpt lat="34.8428102" lon="134.1481402"><ele>204.0</ele><time>2026-08-12T03:03:35Z</time></trkpt>
<trkpt lat="34.842797" lon="134.1481337"><ele>204.0</ele><time>2026-08-12T03:03:36Z</time></trkpt>
<trkpt lat="34.8427557" lon="134.1481157"><ele>204.0</ele><time>2026-08-12T03:03:37Z</time></trkpt>
<trkpt lat="34.8427417" lon="134.14811"><ele>205.0</ele><time>2026-08-12T03:03:38Z</time></trkpt>
<trkpt lat="34.8427277" lon="134.1481043"><ele>205.0</ele><time>2026-08-12T03:03:39Z</time></trkpt>
<trkpt lat="34.8427137" lon="134.1480987"><ele>205.0</ele><time>2026-08-12T03:03:40Z</time></trkpt>
<trkpt lat="34.8426717" lon="134.1480792"><ele>205.0</ele><time>2026-08-12T03:03:41Z</time></trkpt>
<trkpt lat="34.8426576" lon="134.148073"><ele>205.0</ele><time>2026-08-12T03:03:42Z</time></trkpt>
<trkpt lat="34.8426436" lon="134.1480668"><ele>205.0</ele><time>2026-08-12T03:03:43Z</time></trkpt>
<trkpt lat="34.8426296" lon="134.1480606"><ele>205.0</ele><time>2026-08-12T03:03:44Z</time></trkpt>
<trkpt lat="34.8425876" lon="134.1480443"><ele>205.0</ele><time>2026-08-12T03:03:45Z</time></trkpt>
<trkpt lat="34.842573" lon="134.1480401"><ele>206.0</ele><time>2026-08-12T03:03:46Z</time></trkpt>
<trkpt lat="34.8425584" lon="134.1480359"><ele>206.0</ele><time>2026-08-12T03:03:47Z</time></trkpt>
<trkpt lat="34.8425438" lon="134.1480318"><ele>206.0</ele><time>2026-08-12T03:03:48Z</time></trkpt>
<trkpt lat="34.842499" lon="134.1480216"><ele>206.0</ele><time>2026-08-12T03:03:49Z</time></trkpt>
<trkpt lat="34.8424836" lon="134.1480188"><ele>206.0</ele><time>2026-08-12T03:03:50Z</time></trkpt>
<trkpt lat="34.8424683" lon="134.1480161"><ele>206.0</ele><time>2026-08-12T03:03:51Z</time></trkpt>
<trkpt lat="34.842453" lon="134.1480134"><ele>206.0</ele><time>2026-08-12T03:03:52Z</time></trkpt>
<trkpt lat="34.8424046" lon="134.1480066"><ele>206.0</ele><time>2026-08-12T03:03:53Z</time></trkpt>
<trkpt lat="34.8423884" lon="134.1480053"><ele>206.0</ele><time>2026-08-12T03:03:54Z</time></trkpt>
<trkpt lat="34.8423722" lon="134.1480041"><ele>206.0</ele><time>2026-08-12T03:03:55Z</time></trkpt>
<trkpt lat="34.842356" lon="134.1480029"><ele>206.0</ele><time>2026-08-12T03:03:56Z</time></trkpt>
<trkpt lat="34.8423093" lon="134.1479982"><ele>206.0</ele><time>2026-08-12T03:03:57Z</time></trkpt>
<trkpt lat="34.842294" lon="134.1479969"><ele>206.0</ele><time>2026-08-12T03:03:58Z</time></trkpt>
<trkpt lat="34.8422787" lon="134.1479956"><ele>206.0</ele><time>2026-08-12T03:03:59Z</time></trkpt>
<trkpt lat="34.8422634" lon="134.1479944"><ele>206.0</ele><time>2026-08-12T03:04:00Z</time></trkpt>
<trkpt lat="34.8422185" lon="134.1479973"><ele>206.0</ele><time>2026-08-12T03:04:01Z</time></trkpt>
<trkpt lat="34.8422039" lon="134.1480021"><ele>206.0</ele><time>2026-08-12T03:04:02Z</time></trkpt>
<trkpt lat="34.8421894" lon="134.1480069"><ele>206.0</ele><time>2026-08-12T03:04:03Z</time></trkpt>
<trkpt lat="34.8421749" lon="134.1480118"><ele>206.0</ele><time>2026-08-12T03:04:04Z</time></trkpt>
<trkpt lat="34.8421311" lon="134.1480364"><ele>206.0</ele><time>2026-08-12T03:04:05Z</time></trkpt>
<trkpt lat="34.8421173" lon="134.1480473"><ele>206.0</ele><time>2026-08-12T03:04:06Z</time></trkpt>
<trkpt lat="34.8421035" lon="134.1480582"><ele>206.0</ele><time>2026-08-12T03:04:07Z</time></trkpt>
<trkpt lat="34.8420897" lon="134.1480691"><ele>206.0</ele><time>2026-08-12T03:04:08Z</time></trkpt>
<trkpt lat="34.8420516" lon="134.14811"><ele>206.0</ele><time>2026-08-12T03:04:09Z</time></trkpt>
<trkpt lat="34.8420402" lon="134.1481243"><ele>206.0</ele><time>2026-08-12T03:04:10Z</time></trkpt>
<trkpt lat="34.8420289" lon="134.1481386"><ele>206.0</ele><time>2026-08-12T03:04:11Z</time></trkpt>
<trkpt lat="34.8420176" lon="134.1481529"><ele>206.0</ele><time>2026-08-12T03:04:12Z</time></trkpt>
<trkpt lat="34.8419916" lon="134.1481917"><ele>206.0</ele><time>2026-08-12T03:04:13Z</time></trkpt>
<trkpt lat="34.8419857" lon="134.1482049"><ele>206.0</ele><time>2026-08-12T03:04:14Z</time></trkpt>
<trkpt lat="34.8419799" lon="134.1482182"><ele>206.0</ele><time>2026-08-12T03:04:15Z</time></trkpt>
<trkpt lat="34.8419741" lon="134.1482315"><ele>206.0</ele><time>2026-08-12T03:04:16Z</time></trkpt>
<trkpt lat="34.841965" lon="134.1482762"><ele>206.0</ele><time>2026-08-12T03:04:17Z</time></trkpt>
<trkpt lat="34.8419647" lon="134.1482926"><ele>207.0</ele><time>2026-08-12T03:04:18Z</time></trkpt>
<trkpt lat="34.8419645" lon="134.1483091"><ele>207.0</ele><time>2026-08-12T03:04:19Z</time></trkpt>
<trkpt lat="34.8419643" lon="134.1483256"><ele>207.0</ele><time>2026-08-12T03:04:20Z</time></trkpt>
<trkpt lat="34.8419741" lon="134.1483747"><ele>207.0</ele><time>2026-08-12T03:04:21Z</time></trkpt>
<trkpt lat="34.841981" lon="134.1483891"><ele>208.0</ele><time>2026-08-12T03:04:22Z</time></trkpt>
<trkpt lat="34.841988" lon="134.1484035"><ele>208.0</ele><time>2026-08-12T03:04:23Z</time></trkpt>
<trkpt lat="34.841995" lon="134.1484179"><ele>208.0</ele><time>2026-08-12T03:04:24Z</time></trkpt>
<trkpt lat="34.8420257" lon="134.148453"><ele>208.0</ele><time>2026-08-12T03:04:25Z</time></trkpt>
<trkpt lat="34.8420376" lon="134.1484627"><ele>209.0</ele><time>2026-08-12T03:04:26Z</time></trkpt>
<trkpt lat="34.8420495" lon="134.1484725"><ele>209.0</ele><time>2026-08-12T03:04:27Z</time></trkpt>
<trkpt lat="34.8420615" lon="134.1484823"><ele>209.0</ele><time>2026-08-12T03:04:28Z</time></trkpt>
<trkpt lat="34.8420961" lon="134.1485126"><ele>209.0</ele><time>2026-08-12T03:04:29Z</time></trkpt>
<trkpt lat="34.8421056" lon="134.1485245"><ele>210.0</ele><time>2026-08-12T03:04:30Z</time></trkpt>
<trkpt lat="34.8421152" lon="134.1485364"><ele>210.0</ele><time>2026-08-12T03:04:31Z</time></trkpt>
<trkpt lat="34.8421248" lon="134.1485483"><ele>210.0</ele><time>2026-08-12T03:04:32Z</time></trkpt>
<trkpt lat="34.8421464" lon="134.1485885"><ele>210.0</ele><time>2026-08-12T03:04:33Z</time></trkpt>
<trkpt lat="34.8421503" lon="134.1486028"><ele>211.0</ele><time>2026-08-12T03:04:34Z</time></trkpt>
<trkpt lat="34.8421542" lon="134.1486171"><ele>211.0</ele><time>2026-08-12T03:04:35Z</time></trkpt>
<trkpt lat="34.8421582" lon="134.1486314"><ele>211.0</ele><time>2026-08-12T03:04:36Z</time></trkpt>
<trkpt lat="34.8421556" lon="134.1486771"><ele>211.0</ele><time>2026-08-12T03:04:37Z</time></trkpt>
<trkpt lat="34.8421489" lon="134.1486909"><ele>212.0</ele><time>2026-08-12T03:04:38Z</time></trkpt>
<trkpt lat="34.8421422" lon="134.1487047"><ele>212.0</ele><time>2026-08-12T03:04:39Z</time></trkpt>
<trkpt lat="34.8421356" lon="134.1487186"><ele>213.0</ele><time>2026-08-12T03:04:40Z</time></trkpt>
<trkpt lat="34.8421013" lon="134.1487468"><ele>213.0</ele><time>2026-08-12T03:04:41Z</time></trkpt>
<trkpt lat="34.8420875" lon="134.1487512"><ele>214.0</ele><time>2026-08-12T03:04:42Z</time></trkpt>
<trkpt lat="34.8420737" lon="134.1487557"><ele>214.0</ele><time>2026-08-12T03:04:43Z</time></trkpt>
<trkpt lat="34.8420599" lon="134.1487602"><ele>214.0</ele><time>2026-08-12T03:04:44Z</time></trkpt>
<trkpt lat="34.8420168" lon="134.1487623"><ele>214.0</ele><time>2026-08-12T03:04:45Z</time></trkpt>
<trkpt lat="34.8420027" lon="134.1487603"><ele>215.0</ele><time>2026-08-12T03:04:46Z</time></trkpt>
<trkpt lat="34.8419886" lon="134.1487583"><ele>215.0</ele><time>2026-08-12T03:04:47Z</time></trkpt>
<trkpt lat="34.8419746" lon="134.1487563"><ele>215.0</ele><time>2026-08-12T03:04:48Z</time></trkpt>
<trkpt lat="34.8419337" lon="134.1487406"><ele>215.0</ele><time>2026-08-12T03:04:49Z</time></trkpt>
<trkpt lat="34.8419212" lon="134.1487325"><ele>216.0</ele><time>2026-08-12T03:04:50Z</time></trkpt>
<trkpt lat="34.8419087" lon="134.1487245"><ele>216.0</ele><time>2026-08-12T03:04:51Z</time></trkpt>
<trkpt lat="34.8418962" lon="134.1487165"><ele>217.0</ele><time>2026-08-12T03:04:52Z</time></trkpt>
<trkpt lat="34.8418623" lon="134.1486914"><ele>217.0</ele><time>2026-08-12T03:04:53Z</time></trkpt>
<trkpt lat="34.8418519" lon="134.1486827"><ele>218.0</ele><time>2026-08-12T03:04:54Z</time></trkpt>
<trkpt lat="34.8418416" lon="134.1486741"><ele>218.0</ele><time>2026-08-12T03:04:55Z</time></trkpt>
<trkpt lat="34.8418313" lon="134.1486655"><ele>218.0</ele><time>2026-08-12T03:04:56Z</time></trkpt>
<trkpt lat="34.8418028" lon="134.1486369"><ele>218.0</ele><time>2026-08-12T03:04:57Z</time></trkpt>
<trkpt lat="34.8417948" lon="134.1486256"><ele>219.0</ele><time>2026-08-12T03:04:58Z</time></trkpt>
<trkpt lat="34.8417868" lon="134.1486144"><ele>219.0</ele><time>2026-08-12T03:04:59Z</time></trkpt>
<trkpt lat="34.8417789" lon="134.1486032"><ele>219.0</ele><time>2026-08-12T03:05:00Z</time></trkpt>
<trkpt lat="34.841757" lon="134.1485648"><ele>219.0</ele><time>2026-08-12T03:05:01Z</time></trkpt>
<trkpt lat="34.8417493" lon="134.1485526"><ele>220.0</ele><time>2026-08-12T03:05:02Z</time></trkpt>
<trkpt lat="34.8417416" lon="134.1485405"><ele>220.0</ele><time>2026-08-12T03:05:03Z</time></trkpt>
<trkpt lat="34.841734" lon="134.1485284"><ele>220.0</ele><time>2026-08-12T03:05:04Z</time></trkpt>
<trkpt lat="34.8417093" lon="134.1484982"><ele>220.0</ele><time>2026-08-12T03:05:05Z</time></trkpt>
<trkpt lat="34.8417005" lon="134.1484892"><ele>221.0</ele><time>2026-08-12T03:05:06Z</time></trkpt>
<trkpt lat="34.8416917" lon="134.1484802"><ele>221.0</ele><time>2026-08-12T03:05:07Z</time></trkpt>
<trkpt lat="34.841683" lon="134.1484713"><ele>222.0</ele><time>2026-08-12T03:05:08Z</time></trkpt>
<trkpt lat="34.841654" lon="134.1484468"><ele>222.0</ele><time>2026-08-12T03:05:09Z</time></trkpt>
<trkpt lat="34.8416438" lon="134.1484391"><ele>223.0</ele><time>2026-08-12T03:05:10Z</time></trkpt>
<trkpt lat="34.8416336" lon="134.1484314"><ele>223.0</ele><time>2026-08-12T03:05:11Z</time></trkpt>
<trkpt lat="34.8416234" lon="134.1484237"><ele>223.0</ele><time>2026-08-12T03:05:12Z</time></trkpt>
<trkpt lat="34.8415919" lon="134.1484015"><ele>223.0</ele><time>2026-08-12T03:05:13Z</time></trkpt>
<trkpt lat="34.8415813" lon="134.1483947"><ele>224.0</ele><time>2026-08-12T03:05:14Z</time></trkpt>
<trkpt lat="34.8415707" lon="134.1483879"><ele>224.0</ele><time>2026-08-12T03:05:15Z</time></trkpt>
<trkpt lat="34.8415601" lon="134.1483811"><ele>224.0</ele><time>2026-08-12T03:05:16Z</time></trkpt>
<trkpt lat="34.8415266" lon="134.1483619"><ele>224.0</ele><time>2026-08-12T03:05:17Z</time></trkpt>
<trkpt lat="34.841516" lon="134.1483545"><ele>225.0</ele><time>2026-08-12T03:05:18Z</time></trkpt>
<trkpt lat="34.8415054" lon="134.1483472"><ele>225.0</ele><time>2026-08-12T03:05:19Z</time></trkpt>
<trkpt lat="34.8414949" lon="134.1483399"><ele>225.0</ele><time>2026-08-12T03:05:20Z</time></trkpt>
<trkpt lat="34.8414659" lon="134.1483206"><ele>225.0</ele><time>2026-08-12T03:05:21Z</time></trkpt>
<trkpt lat="34.841455" lon="134.1483143"><ele>226.0</ele><time>2026-08-12T03:05:22Z</time></trkpt>
<trkpt lat="34.8414441" lon="134.148308"><ele>226.0</ele><time>2026-08-12T03:05:23Z</time></trkpt>
<trkpt lat="34.8414332" lon="134.1483017"><ele>226.0</ele><time>2026-08-12T03:05:24Z</time></trkpt>
<trkpt lat="34.841311" lon="134.148154"><ele>208.6</ele><time>2026-08-12T05:29:11Z</time></trkpt>
<trkpt lat="34.8413" lon="134.148255"><ele>208.36</ele><time>2026-08-12T05:29:14Z</time></trkpt>
<trkpt lat="34.841263" lon="134.148306"><ele>208.54</ele><time>2026-08-12T05:29:16Z</time></trkpt>
<trkpt lat="34.841221" lon="134.148341"><ele>208.22</ele><time>2026-08-12T05:29:18Z</time></trkpt>
<trkpt lat="34.841172" lon="134.148371"><ele>207.59</ele><time>2026-08-12T05:29:20Z</time></trkpt>
<trkpt lat="34.841082" lon="134.148396"><ele>207.35</ele><time>2026-08-12T05:29:23Z</time></trkpt>
<trkpt lat="34.841052" lon="134.148399"><ele>206.69</ele><time>2026-08-12T05:29:24Z</time></trkpt>
<trkpt lat="34.840998" lon="134.148393"><ele>205.93</ele><time>2026-08-12T05:29:26Z</time></trkpt>
<trkpt lat="34.840966" lon="134.148387"><ele>204.71</ele><time>2026-08-12T05:29:27Z</time></trkpt>
<trkpt lat="34.840937" lon="134.148381"><ele>204.25</ele><time>2026-08-12T05:29:28Z</time></trkpt>
<trkpt lat="34.840883" lon="134.148376"><ele>203.43</ele><time>2026-08-12T05:29:30Z</time></trkpt>
<trkpt lat="34.840821" lon="134.148378"><ele>202.5</ele><time>2026-08-12T05:29:32Z</time></trkpt>
<trkpt lat="34.840727" lon="134.148378"><ele>201.65</ele><time>2026-08-12T05:29:35Z</time></trkpt>
<trkpt lat="34.840635" lon="134.148341"><ele>199.64</ele><time>2026-08-12T05:29:38Z</time></trkpt>
<trkpt lat="34.840577" lon="134.14831"><ele>199.74</ele><time>2026-08-12T05:29:40Z</time></trkpt>
<trkpt lat="34.840476" lon="134.148282"><ele>198.79</ele><time>2026-08-12T05:29:43Z</time></trkpt>
<trkpt lat="34.840421" lon="134.148258"><ele>197.03</ele><time>2026-08-12T05:29:45Z</time></trkpt>
<trkpt lat="34.840395" lon="134.148243"><ele>197.46</ele><time>2026-08-12T05:29:46Z</time></trkpt>
<trkpt lat="34.840322" lon="134.148199"><ele>196.25</ele><time>2026-08-12T05:29:49Z</time></trkpt>
<trkpt lat="34.840271" lon="134.148177"><ele>196.4</ele><time>2026-08-12T05:29:51Z</time></trkpt>
<trkpt lat="34.840183" lon="134.148144"><ele>193.17</ele><time>2026-08-12T05:29:54Z</time></trkpt>
<trkpt lat="34.840113" lon="134.148151"><ele>192.0</ele><time>2026-08-12T05:29:57Z</time></trkpt>
<trkpt lat="34.840032" lon="134.148165"><ele>189.83</ele><time>2026-08-12T05:30:00Z</time></trkpt>
<trkpt lat="34.840002" lon="134.148175"><ele>190.31</ele><time>2026-08-12T05:30:01Z</time></trkpt>
<trkpt lat="34.839949" lon="134.14819"><ele>188.7</ele><time>2026-08-12T05:30:03Z</time></trkpt>
<trkpt lat="34.839874" lon="134.148219"><ele>188.24</ele><time>2026-08-12T05:30:06Z</time></trkpt>
<trkpt lat="34.83982" lon="134.148242"><ele>185.99</ele><time>2026-08-12T05:30:08Z</time></trkpt>
<trkpt lat="34.839762" lon="134.148258"><ele>185.02</ele><time>2026-08-12T05:30:10Z</time></trkpt>
<trkpt lat="34.839688" lon="134.148279"><ele>185.5</ele><time>2026-08-12T05:30:13Z</time></trkpt>
<trkpt lat="34.839597" lon="134.148284"><ele>184.67</ele><time>2026-08-12T05:30:16Z</time></trkpt>
<trkpt lat="34.839568" lon="134.14829"><ele>184.07</ele><time>2026-08-12T05:30:17Z</time></trkpt>
<trkpt lat="34.839517" lon="134.148316"><ele>184.1</ele><time>2026-08-12T05:30:19Z</time></trkpt>
<trkpt lat="34.839462" lon="134.148345"><ele>184.75</ele><time>2026-08-12T05:30:21Z</time></trkpt>
<trkpt lat="34.839399" lon="134.148384"><ele>181.73</ele><time>2026-08-12T05:30:23Z</time></trkpt>
<trkpt lat="34.839341" lon="134.148425"><ele>180.25</ele><time>2026-08-12T05:30:25Z</time></trkpt>
<trkpt lat="34.839281" lon="134.14851"><ele>179.25</ele><time>2026-08-12T05:30:28Z</time></trkpt>
<trkpt lat="34.839274" lon="134.148546"><ele>178.98</ele><time>2026-08-12T05:30:29Z</time></trkpt>
<trkpt lat="34.839281" lon="134.148643"><ele>178.08</ele><time>2026-08-12T05:30:32Z</time></trkpt>
<trkpt lat="34.839308" lon="134.148701"><ele>177.05</ele><time>2026-08-12T05:30:34Z</time></trkpt>
<trkpt lat="34.839316" lon="134.148735"><ele>177.52</ele><time>2026-08-12T05:30:35Z</time></trkpt>
<trkpt lat="34.839298" lon="134.148837"><ele>175.93</ele><time>2026-08-12T05:30:38Z</time></trkpt>
<trkpt lat="34.839255" lon="134.148905"><ele>177.02</ele><time>2026-08-12T05:30:40Z</time></trkpt>
<trkpt lat="34.839195" lon="134.148934"><ele>175.3</ele><time>2026-08-12T05:30:42Z</time></trkpt>
<trkpt lat="34.83914" lon="134.148913"><ele>174.93</ele><time>2026-08-12T05:30:44Z</time></trkpt>
<trkpt lat="34.83909" lon="134.14885"><ele>172.28</ele><time>2026-08-12T05:30:46Z</time></trkpt>
<trkpt lat="34.839066" lon="134.148771"><ele>171.17</ele><time>2026-08-12T05:30:48Z</time></trkpt>
<trkpt lat="34.839061" lon="134.148739"><ele>170.89</ele><time>2026-08-12T05:30:49Z</time></trkpt>
<trkpt lat="34.839066" lon="134.148703"><ele>170.53</ele><time>2026-08-12T05:30:50Z</time></trkpt>
<trkpt lat="34.839073" lon="134.148663"><ele>169.87</ele><time>2026-08-12T05:30:51Z</time></trkpt>
<trkpt lat="34.839079" lon="134.148619"><ele>169.22</ele><time>2026-08-12T05:30:52Z</time></trkpt>
<trkpt lat="34.839084" lon="134.148539"><ele>167.98</ele><time>2026-08-12T05:30:54Z</time></trkpt>
<trkpt lat="34.8391" lon="134.148461"><ele>167.27</ele><time>2026-08-12T05:30:56Z</time></trkpt>
<trkpt lat="34.83914" lon="134.148319"><ele>166.33</ele><time>2026-08-12T05:31:00Z</time></trkpt>
<trkpt lat="34.839153" lon="134.148288"><ele>165.84</ele><time>2026-08-12T05:31:01Z</time></trkpt>
<trkpt lat="34.839162" lon="134.148217"><ele>165.35</ele><time>2026-08-12T05:31:03Z</time></trkpt>
<trkpt lat="34.839161" lon="134.148111"><ele>163.79</ele><time>2026-08-12T05:31:06Z</time></trkpt>
<trkpt lat="34.839154" lon="134.148075"><ele>163.46</ele><time>2026-08-12T05:31:07Z</time></trkpt>
<trkpt lat="34.839128" lon="134.148032"><ele>162.59</ele><time>2026-08-12T05:31:09Z</time></trkpt>
<trkpt lat="34.839077" lon="134.148026"><ele>161.96</ele><time>2026-08-12T05:31:11Z</time></trkpt>
<trkpt lat="34.839015" lon="134.148057"><ele>160.2</ele><time>2026-08-12T05:31:13Z</time></trkpt>
<trkpt lat="34.838957" lon="134.14806"><ele>159.28</ele><time>2026-08-12T05:31:15Z</time></trkpt>
<trkpt lat="34.838873" lon="134.148053"><ele>155.81</ele><time>2026-08-12T05:31:18Z</time></trkpt>
<trkpt lat="34.838846" lon="134.148046"><ele>154.83</ele><time>2026-08-12T05:31:19Z</time></trkpt>
<trkpt lat="34.838793" lon="134.148016"><ele>155.68</ele><time>2026-08-12T05:31:21Z</time></trkpt>
<trkpt lat="34.838741" lon="134.14798"><ele>154.52</ele><time>2026-08-12T05:31:23Z</time></trkpt>
<trkpt lat="34.838688" lon="134.147912"><ele>155.51</ele><time>2026-08-12T05:31:25Z</time></trkpt>
<trkpt lat="34.838645" lon="134.147834"><ele>153.99</ele><time>2026-08-12T05:31:27Z</time></trkpt>
<trkpt lat="34.838592" lon="134.147734"><ele>152.26</ele><time>2026-08-12T05:31:30Z</time></trkpt>
<trkpt lat="34.838555" lon="134.147675"><ele>151.23</ele><time>2026-08-12T05:31:32Z</time></trkpt>
<trkpt lat="34.838537" lon="134.147647"><ele>151.74</ele><time>2026-08-12T05:31:33Z</time></trkpt>
<trkpt lat="34.838473" lon="134.147557"><ele>150.87</ele><time>2026-08-12T05:31:36Z</time></trkpt>
<trkpt lat="34.83839" lon="134.147447"><ele>149.63</ele><time>2026-08-12T05:31:40Z</time></trkpt>
<trkpt lat="34.838298" lon="134.14736"><ele>148.8</ele><time>2026-08-12T05:31:44Z</time></trkpt>
<trkpt lat="34.838223" lon="134.147335"><ele>148.06</ele><time>2026-08-12T05:31:47Z</time></trkpt>
<trkpt lat="34.838194" lon="134.147335"><ele>147.65</ele><time>2026-08-12T05:31:48Z</time></trkpt>
<trkpt lat="34.83811" lon="134.14732"><ele>146.53</ele><time>2026-08-12T05:31:51Z</time></trkpt>
<trkpt lat="34.838062" lon="134.147291"><ele>146.36</ele><time>2026-08-12T05:31:53Z</time></trkpt>
<trkpt lat="34.838036" lon="134.147269"><ele>145.78</ele><time>2026-08-12T05:31:54Z</time></trkpt>
<trkpt lat="34.838011" lon="134.147246"><ele>145.78</ele><time>2026-08-12T05:31:55Z</time></trkpt>
<trkpt lat="34.837941" lon="134.147169"><ele>144.87</ele><time>2026-08-12T05:31:58Z</time></trkpt>
<trkpt lat="34.837886" lon="134.147138"><ele>144.32</ele><time>2026-08-12T05:32:00Z</time></trkpt>
<trkpt lat="34.837857" lon="134.147136"><ele>143.87</ele><time>2026-08-12T05:32:01Z</time></trkpt>
<trkpt lat="34.837794" lon="134.14716"><ele>142.44</ele><time>2026-08-12T05:32:03Z</time></trkpt>
<trkpt lat="34.837767" lon="134.147182"><ele>142.44</ele><time>2026-08-12T05:32:04Z</time></trkpt>
<trkpt lat="34.837744" lon="134.147207"><ele>141.77</ele><time>2026-08-12T05:32:05Z</time></trkpt>
<trkpt lat="34.837703" lon="134.147266"><ele>141.14</ele><time>2026-08-12T05:32:07Z</time></trkpt>
<trkpt lat="34.837655" lon="134.147357"><ele>139.93</ele><time>2026-08-12T05:32:10Z</time></trkpt>
<trkpt lat="34.83764" lon="134.147394"><ele>139.36</ele><time>2026-08-12T05:32:11Z</time></trkpt>
<trkpt lat="34.837598" lon="134.147495"><ele>137.57</ele><time>2026-08-12T05:32:14Z</time></trkpt>
<trkpt lat="34.837562" lon="134.147598"><ele>136.47</ele><time>2026-08-12T05:32:17Z</time></trkpt>
<trkpt lat="34.837542" lon="134.14767"><ele>135.7</ele><time>2026-08-12T05:32:19Z</time></trkpt>
<trkpt lat="34.837531" lon="134.147739"><ele>135.37</ele><time>2026-08-12T05:32:21Z</time></trkpt>
<trkpt lat="34.837519" lon="134.147802"><ele>134.28</ele><time>2026-08-12T05:32:23Z</time></trkpt>
<trkpt lat="34.837491" lon="134.147896"><ele>133.23</ele><time>2026-08-12T05:32:26Z</time></trkpt>
<trkpt lat="34.837465" lon="134.147959"><ele>132.36</ele><time>2026-08-12T05:32:28Z</time></trkpt>
<trkpt lat="34.837452" lon="134.147991"><ele>132.36</ele><time>2026-08-12T05:32:29Z</time></trkpt>
<trkpt lat="34.837406" lon="134.148086"><ele>130.64</ele><time>2026-08-12T05:32:32Z</time></trkpt>
<trkpt lat="34.83737" lon="134.148143"><ele>129.9</ele><time>2026-08-12T05:32:34Z</time></trkpt>
<trkpt lat="34.837354" lon="134.148172"><ele>129.9</ele><time>2026-08-12T05:32:35Z</time></trkpt>
<trkpt lat="34.837304" lon="134.148263"><ele>128.65</ele><time>2026-08-12T05:32:38Z</time></trkpt>
<trkpt lat="34.837269" lon="134.148326"><ele>128.02</ele><time>2026-08-12T05:32:40Z</time></trkpt>
<trkpt lat="34.837237" lon="134.148392"><ele>127.06</ele><time>2026-08-12T05:32:42Z</time></trkpt>
<trkpt lat="34.837203" lon="134.148453"><ele>126.58</ele><time>2026-08-12T05:32:44Z</time></trkpt>
<trkpt lat="34.837142" lon="134.148533"><ele>125.4</ele><time>2026-08-12T05:32:47Z</time></trkpt>
<trkpt lat="34.837091" lon="134.148575"><ele>124.81</ele><time>2026-08-12T05:32:49Z</time></trkpt>
<trkpt lat="34.837062" lon="134.14859"><ele>124.17</ele><time>2026-08-12T05:32:50Z</time></trkpt>
<trkpt lat="34.836938" lon="134.148635"><ele>122.05</ele><time>2026-08-12T05:32:54Z</time></trkpt>
<trkpt lat="34.836904" lon="134.148642"><ele>121.67</ele><time>2026-08-12T05:32:55Z</time></trkpt>
<trkpt lat="34.83684" lon="134.148654"><ele>121.26</ele><time>2026-08-12T05:32:57Z</time></trkpt>
<trkpt lat="34.83666" lon="134.148692"><ele>121.14</ele><time>2026-08-12T05:33:03Z</time></trkpt>
<trkpt lat="34.836602" lon="134.148712"><ele>120.64</ele><time>2026-08-12T05:33:05Z</time></trkpt>
<trkpt lat="34.836492" lon="134.148765"><ele>119.76</ele><time>2026-08-12T05:33:09Z</time></trkpt>
<trkpt lat="34.83641" lon="134.148812"><ele>119.34</ele><time>2026-08-12T05:33:12Z</time></trkpt>
<trkpt lat="34.836268" lon="134.148899"><ele>118.78</ele><time>2026-08-12T05:33:17Z</time></trkpt>
<trkpt lat="34.836199" lon="134.148967"><ele>119.14</ele><time>2026-08-12T05:33:20Z</time></trkpt>
<trkpt lat="34.836176" lon="134.14899"><ele>120.71</ele><time>2026-08-12T05:33:21Z</time></trkpt>
<trkpt lat="34.836113" lon="134.149057"><ele>118.44</ele><time>2026-08-12T05:33:24Z</time></trkpt>
<trkpt lat="34.836015" lon="134.149173"><ele>115.75</ele><time>2026-08-12T05:33:29Z</time></trkpt>
<trkpt lat="34.835959" lon="134.149259"><ele>114.69</ele><time>2026-08-12T05:33:32Z</time></trkpt>
<trkpt lat="34.835878" lon="134.14935"><ele>113.29</ele><time>2026-08-12T05:33:36Z</time></trkpt>
<trkpt lat="34.835856" lon="134.149372"><ele>112.04</ele><time>2026-08-12T05:33:37Z</time></trkpt>
<trkpt lat="34.835811" lon="134.149412"><ele>112.0</ele><time>2026-08-12T05:33:39Z</time></trkpt>
<trkpt lat="34.835732" lon="134.149472"><ele>110.8</ele><time>2026-08-12T05:33:42Z</time></trkpt>
<trkpt lat="34.835675" lon="134.149508"><ele>109.26</ele><time>2026-08-12T05:33:44Z</time></trkpt>
<trkpt lat="34.835554" lon="134.149554"><ele>107.18</ele><time>2026-08-12T05:33:48Z</time></trkpt>
<trkpt lat="34.83543" lon="134.149575"><ele>106.57</ele><time>2026-08-12T05:33:52Z</time></trkpt>
<trkpt lat="34.83529325332378" lon="134.1495788097382"><ele>106.64</ele><time>2026-08-12T05:33:54Z</time></trkpt>
<trkpt lat="34.83524922230274" lon="134.14968609809878"><ele>105.31</ele><time>2026-08-12T05:33:59Z</time></trkpt>
<trkpt lat="34.83516556329793" lon="134.1498148441315"><ele>103.94</ele><time>2026-08-12T05:34:06Z</time></trkpt>
<trkpt lat="34.83509511354373" lon="134.14989531040194"><ele>102.88</ele><time>2026-08-12T05:34:13Z</time></trkpt>
<trkpt lat="34.83505108241674" lon="134.14998114109042"><ele>102.07</ele><time>2026-08-12T05:34:15Z</time></trkpt>
<trkpt lat="34.83500705126619" lon="134.15001869201663"><ele>101.86</ele><time>2026-08-12T05:34:22Z</time></trkpt>
<trkpt lat="34.834989438799376" lon="134.15009915828708"><ele>101.52</ele><time>2026-08-12T05:34:23Z</time></trkpt>
<trkpt lat="34.834998245033255" lon="134.1501742601395"><ele>100.65</ele><time>2026-08-12T05:34:30Z</time></trkpt>
<trkpt lat="34.835002648149846" lon="134.1502493619919"><ele>99.84</ele><time>2026-08-12T05:34:38Z</time></trkpt>
<trkpt lat="34.83504227618851" lon="134.15031373500827"><ele>99.42</ele><time>2026-08-12T05:34:39Z</time></trkpt>
<trkpt lat="34.835077501095746" lon="134.15037810802463"><ele>98.71</ele><time>2026-08-12T05:34:46Z</time></trkpt>
<trkpt lat="34.835081904208096" lon="134.15044248104098"><ele>98.33</ele><time>2026-08-12T05:34:53Z</time></trkpt>
<trkpt lat="34.83509071043207" lon="134.15049612522128"><ele>97.59</ele><time>2026-08-12T05:34:59Z</time></trkpt>
<trkpt lat="34.83507309798318" lon="134.15056586265567"><ele>97.16</ele><time>2026-08-12T05:35:02Z</time></trkpt>
<trkpt lat="34.83505108241674" lon="134.15061950683597"><ele>96.69</ele><time>2026-08-12T05:35:10Z</time></trkpt>
<trkpt lat="34.83503787307403" lon="134.15068924427035"><ele>96.53</ele><time>2026-08-12T05:35:11Z</time></trkpt>
<trkpt lat="34.83503346995934" lon="134.15074825286868"><ele>96.21</ele><time>2026-08-12T05:35:16Z</time></trkpt>
<trkpt lat="34.83503346995934" lon="134.15080189704898"><ele>96.05</ele><time>2026-08-12T05:35:20Z</time></trkpt>
<trkpt lat="34.835015857498185" lon="134.15085554122928"><ele>95.72</ele><time>2026-08-12T05:35:27Z</time></trkpt>
<trkpt lat="34.835002648149846" lon="134.15090382099154"><ele>95.67</ele><time>2026-08-12T05:35:29Z</time></trkpt>
<trkpt lat="34.834971826328804" lon="134.15094137191775"><ele>95.45</ele><time>2026-08-12T05:35:36Z</time></trkpt>
<trkpt lat="34.83493219825622" lon="134.15095746517184"><ele>95.47</ele><time>2026-08-12T05:35:43Z</time></trkpt>
<trkpt lat="34.83492779513588" lon="134.15097892284396"><ele>95.22</ele><time>2026-08-12T05:35:45Z</time></trkpt>
<trkpt lat="34.83490577953057" lon="134.15101110935214"><ele>95.02</ele><time>2026-08-12T05:35:52Z</time></trkpt>
<trkpt lat="34.83487936079645" lon="134.1510379314423"><ele>95.02</ele><time>2026-08-12T05:35:54Z</time></trkpt>
<trkpt lat="34.83485294205386" lon="134.15108084678653"><ele>94.62</ele><time>2026-08-12T05:35:57Z</time></trkpt>
<trkpt lat="34.83483973267936" lon="134.15111839771274"><ele>94.42</ele><time>2026-08-12T05:35:58Z</time></trkpt>
<trkpt lat="34.834826523302766" lon="134.15116131305697"><ele>93.79</ele><time>2026-08-12T05:36:03Z</time></trkpt>
<trkpt lat="34.83481331392405" lon="134.15121495723727"><ele>93.43</ele><time>2026-08-12T05:36:10Z</time></trkpt>
<trkpt lat="34.83480010454322" lon="134.1512578725815"><ele>92.92</ele><time>2026-08-12T05:36:11Z</time></trkpt>
<trkpt lat="34.83478249203214" lon="134.15129542350772"><ele>92.81</ele><time>2026-08-12T05:36:15Z</time></trkpt>
<trkpt lat="34.83476047638797" lon="134.15133833885196"><ele>92.3</ele><time>2026-08-12T05:36:21Z</time></trkpt>
<trkpt lat="34.834742863868414" lon="134.15137052536014"><ele>91.89</ele><time>2026-08-12T05:36:25Z</time></trkpt>
<trkpt lat="34.834707638818" lon="134.15140271186831"><ele>91.23</ele><time>2026-08-12T05:36:28Z</time></trkpt>
<trkpt lat="34.8346944294202" lon="134.1514348983765"><ele>90.73</ele><time>2026-08-12T05:36:33Z</time></trkpt>
<trkpt lat="34.83465920434906" lon="134.15146708488467"><ele>90.64</ele><time>2026-08-12T05:36:39Z</time></trkpt>
<trkpt lat="34.834628382399465" lon="134.1514885425568"><ele>90.25</ele><time>2026-08-12T05:36:44Z</time></trkpt>
<trkpt lat="34.8345975604383" lon="134.1515421867371"><ele>89.89</ele><time>2026-08-12T05:36:46Z</time></trkpt>
<trkpt lat="34.834566738465625" lon="134.15156900882724"><ele>89.49</ele><time>2026-08-12T05:36:50Z</time></trkpt>
<trkpt lat="34.83453151333985" lon="134.15161192417148"><ele>89.33</ele><time>2026-08-12T05:36:53Z</time></trkpt>
<trkpt lat="34.834491885055336" lon="134.15164411067965"><ele>89.23</ele><time>2026-08-12T05:36:55Z</time></trkpt>
<trkpt lat="34.834456659897526" lon="134.15167629718783"><ele>88.9</ele><time>2026-08-12T05:36:58Z</time></trkpt>
<trkpt lat="34.83442583787208" lon="134.15170311927798"><ele>88.43</ele><time>2026-08-12T05:37:02Z</time></trkpt>
<trkpt lat="34.834408225280946" lon="134.1517621278763"><ele>87.99</ele><time>2026-08-12T05:37:03Z</time></trkpt>
<trkpt lat="34.834368596937075" lon="134.1517943143845"><ele>87.81</ele><time>2026-08-12T05:37:09Z</time></trkpt>
<trkpt lat="34.83435098433371" lon="134.15182650089267"><ele>87.33</ele><time>2026-08-12T05:37:12Z</time></trkpt>
<trkpt lat="34.83431575911562" lon="134.15186405181888"><ele>86.7</ele><time>2026-08-12T05:37:15Z</time></trkpt>
<trkpt lat="34.83427613072727" lon="134.15189623832705"><ele>86.66</ele><time>2026-08-12T05:37:16Z</time></trkpt>
<trkpt lat="34.83426292126024" lon="134.15194988250735"><ele>86.25</ele><time>2026-08-12T05:37:21Z</time></trkpt>
<trkpt lat="34.83425411494771" lon="134.15200352668765"><ele>86.1</ele><time>2026-08-12T05:37:24Z</time></trkpt>
<trkpt lat="34.83425411494771" lon="134.1520464420319"><ele>85.83</ele><time>2026-08-12T05:37:26Z</time></trkpt>
<trkpt lat="34.834267324416146" lon="134.15210545063022"><ele>85.59</ele><time>2026-08-12T05:37:30Z</time></trkpt>
<trkpt lat="34.83423650231984" lon="134.15215909481051"><ele>85.76</ele><time>2026-08-12T05:37:31Z</time></trkpt>
<trkpt lat="34.83421008337094" lon="134.15220737457278"><ele>85.22</ele><time>2026-08-12T05:37:35Z</time></trkpt>
<trkpt lat="34.83416605177063" lon="134.15215909481051"><ele>86.06</ele><time>2026-08-12T05:37:38Z</time></trkpt>
<trkpt lat="34.83410000432601" lon="134.15207862854007"><ele>86.18</ele><time>2026-08-12T05:37:39Z</time></trkpt>
<trkpt lat="34.834033956828414" lon="134.15201961994174"><ele>87.06</ele><time>2026-08-12T05:37:40Z</time></trkpt>
<trkpt lat="34.834025" lon="134.152094"><ele>86.47</ele><time>2026-08-12T05:37:45Z</time></trkpt>
<trkpt lat="34.834017" lon="134.152129"><ele>85.92</ele><time>2026-08-12T05:37:46Z</time></trkpt>
<trkpt lat="34.833982" lon="134.152331"><ele>86.12</ele><time>2026-08-12T05:37:52Z</time></trkpt>
<trkpt lat="34.833971" lon="134.152399"><ele>85.54</ele><time>2026-08-12T05:37:54Z</time></trkpt>
<trkpt lat="34.833955" lon="134.152501"><ele>84.62</ele><time>2026-08-12T05:37:57Z</time></trkpt>
<trkpt lat="34.833888" lon="134.152727"><ele>83.55</ele><time>2026-08-12T05:38:04Z</time></trkpt>
<trkpt lat="34.833815" lon="134.152953"><ele>84.54</ele><time>2026-08-12T05:38:11Z</time></trkpt>
<trkpt lat="34.833808" lon="134.152983"><ele>85.62</ele><time>2026-08-12T05:38:12Z</time></trkpt>
<trkpt lat="34.833732" lon="134.153188"><ele>85.63</ele><time>2026-08-12T05:38:19Z</time></trkpt>
<trkpt lat="34.833719" lon="134.153215"><ele>85.35</ele><time>2026-08-12T05:38:20Z</time></trkpt>
<trkpt lat="34.833604" lon="134.15329"><ele>85.26</ele><time>2026-08-12T05:38:25Z</time></trkpt>
<trkpt lat="34.83346" lon="134.153342"><ele>87.12</ele><time>2026-08-12T05:38:32Z</time></trkpt>
<trkpt lat="34.833441" lon="134.153351"><ele>87.12</ele><time>2026-08-12T05:38:33Z</time></trkpt>
<trkpt lat="34.833344" lon="134.153417"><ele>86.95</ele><time>2026-08-12T05:38:38Z</time></trkpt>
<trkpt lat="34.833305" lon="134.153434"><ele>87.88</ele><time>2026-08-12T05:38:40Z</time></trkpt>
<trkpt lat="34.833146" lon="134.153498"><ele>87.75</ele><time>2026-08-12T05:38:47Z</time></trkpt>
<trkpt lat="34.833003" lon="134.153551"><ele>88.25</ele><time>2026-08-12T05:38:53Z</time></trkpt>
<trkpt lat="34.832819" lon="134.153642"><ele>87.58</ele><time>2026-08-12T05:39:00Z</time></trkpt>
<trkpt lat="34.832795" lon="134.15364"><ele>87.58</ele><time>2026-08-12T05:39:01Z</time></trkpt>
<trkpt lat="34.832752" lon="134.153603"><ele>87.06</ele><time>2026-08-12T05:39:03Z</time></trkpt>
<trkpt lat="34.83272" lon="134.153551"><ele>87.18</ele><time>2026-08-12T05:39:05Z</time></trkpt>
<trkpt lat="34.83265" lon="134.153358"><ele>88.65</ele><time>2026-08-12T05:39:13Z</time></trkpt>
<trkpt lat="34.832635" lon="134.153271"><ele>89.12</ele><time>2026-08-12T05:39:17Z</time></trkpt>
<trkpt lat="34.832617" lon="134.153173"><ele>90.32</ele><time>2026-08-12T05:39:21Z</time></trkpt>
<trkpt lat="34.832581" lon="134.153125"><ele>90.45</ele><time>2026-08-12T05:39:24Z</time></trkpt>
<trkpt lat="34.832564" lon="134.153119"><ele>89.8</ele><time>2026-08-12T05:39:25Z</time></trkpt>
<trkpt lat="34.832545" lon="134.153116"><ele>89.39</ele><time>2026-08-12T05:39:26Z</time></trkpt>
<trkpt lat="34.832413" lon="134.153156"><ele>91.13</ele><time>2026-08-12T05:39:32Z</time></trkpt>
<trkpt lat="34.832393" lon="134.153168"><ele>91.59</ele><time>2026-08-12T05:39:33Z</time></trkpt>
<trkpt lat="34.832302" lon="134.153273"><ele>92.78</ele><time>2026-08-12T05:39:39Z</time></trkpt>
<trkpt lat="34.832287" lon="134.153292"><ele>93.58</ele><time>2026-08-12T05:39:40Z</time></trkpt>
<trkpt lat="34.832212" lon="134.153327"><ele>94.72</ele><time>2026-08-12T05:39:44Z</time></trkpt>
<trkpt lat="34.832193" lon="134.15332"><ele>95.08</ele><time>2026-08-12T05:39:45Z</time></trkpt>
<trkpt lat="34.832157" lon="134.15331"><ele>95.3</ele><time>2026-08-12T05:39:47Z</time></trkpt>
<trkpt lat="34.832107" lon="134.153301"><ele>95.63</ele><time>2026-08-12T05:39:51Z</time></trkpt>
<trkpt lat="34.832081" lon="134.1533"><ele>96.07</ele><time>2026-08-12T05:39:53Z</time></trkpt>
<trkpt lat="34.832007" lon="134.153308"><ele>97.33</ele><time>2026-08-12T05:39:59Z</time></trkpt>
<trkpt lat="34.831921" lon="134.153322"><ele>98.58</ele><time>2026-08-12T05:40:06Z</time></trkpt>
<trkpt lat="34.831881" lon="134.153329"><ele>99.57</ele><time>2026-08-12T05:40:10Z</time></trkpt>
<trkpt lat="34.831864" lon="134.153337"><ele>100.16</ele><time>2026-08-12T05:40:13Z</time></trkpt>
<trkpt lat="34.831834" lon="134.153334"><ele>100.64</ele><time>2026-08-12T05:40:16Z</time></trkpt>
<trkpt lat="34.83179" lon="134.153344"><ele>101.28</ele><time>2026-08-12T05:40:20Z</time></trkpt>
<trkpt lat="34.831763" lon="134.15335"><ele>102.1</ele><time>2026-08-12T05:40:24Z</time></trkpt>
<trkpt lat="34.831715" lon="134.153346"><ele>102.82</ele><time>2026-08-12T05:40:29Z</time></trkpt>
<trkpt lat="34.831705" lon="134.15335"><ele>102.82</ele><time>2026-08-12T05:40:30Z</time></trkpt>
<trkpt lat="34.831699" lon="134.153353"><ele>103.51</ele><time>2026-08-12T05:40:31Z</time></trkpt>
<trkpt lat="34.831664" lon="134.153344"><ele>104.2</ele><time>2026-08-12T05:40:35Z</time></trkpt>
<trkpt lat="34.831651" lon="134.153342"><ele>104.2</ele><time>2026-08-12T05:40:36Z</time></trkpt>
<trkpt lat="34.831635" lon="134.153338"><ele>104.2</ele><time>2026-08-12T05:40:37Z</time></trkpt>
<trkpt lat="34.831619" lon="134.153333"><ele>104.79</ele><time>2026-08-12T05:40:38Z</time></trkpt>
<trkpt lat="34.831608" lon="134.153325"><ele>104.79</ele><time>2026-08-12T05:40:39Z</time></trkpt>
<trkpt lat="34.831597" lon="134.153305"><ele>104.82</ele><time>2026-08-12T05:40:41Z</time></trkpt>
<trkpt lat="34.831587" lon="134.153296"><ele>105.36</ele><time>2026-08-12T05:40:42Z</time></trkpt>
<trkpt lat="34.831578" lon="134.153288"><ele>105.36</ele><time>2026-08-12T05:40:43Z</time></trkpt>
<trkpt lat="34.831521" lon="134.153213"><ele>106.31</ele><time>2026-08-12T05:40:51Z</time></trkpt>
<trkpt lat="34.831512" lon="134.153199"><ele>106.31</ele><time>2026-08-12T05:40:52Z</time></trkpt>
<trkpt lat="34.831472" lon="134.153138"><ele>106.11</ele><time>2026-08-12T05:40:57Z</time></trkpt>
<trkpt lat="34.831438" lon="134.15311"><ele>106.97</ele><time>2026-08-12T05:41:01Z</time></trkpt>
<trkpt lat="34.831396" lon="134.15311"><ele>107.67</ele><time>2026-08-12T05:41:05Z</time></trkpt>
<trkpt lat="34.831359" lon="134.153129"><ele>108.17</ele><time>2026-08-12T05:41:08Z</time></trkpt>
<trkpt lat="34.831342" lon="134.153138"><ele>108.93</ele><time>2026-08-12T05:41:10Z</time></trkpt>
<trkpt lat="34.831304" lon="134.153148"><ele>109.66</ele><time>2026-08-12T05:41:14Z</time></trkpt>
<trkpt lat="34.831294" lon="134.153148"><ele>109.66</ele><time>2026-08-12T05:41:15Z</time></trkpt>
<trkpt lat="34.831223" lon="134.153165"><ele>111.18</ele><time>2026-08-12T05:41:21Z</time></trkpt>
<trkpt lat="34.831193" lon="134.153175"><ele>111.85</ele><time>2026-08-12T05:41:24Z</time></trkpt>
<trkpt lat="34.831184" lon="134.153174"><ele>111.85</ele><time>2026-08-12T05:41:25Z</time></trkpt>
<trkpt lat="34.831146" lon="134.153188"><ele>112.6</ele><time>2026-08-12T05:41:30Z</time></trkpt>
<trkpt lat="34.831123" lon="134.153195"><ele>113.48</ele><time>2026-08-12T05:41:32Z</time></trkpt>
<trkpt lat="34.831076" lon="134.15321"><ele>114.11</ele><time>2026-08-12T05:41:37Z</time></trkpt>
<trkpt lat="34.83106" lon="134.153214"><ele>114.85</ele><time>2026-08-12T05:41:38Z</time></trkpt>
<trkpt lat="34.831" lon="134.153239"><ele>115.7</ele><time>2026-08-12T05:41:43Z</time></trkpt>
<trkpt lat="34.830978" lon="134.153251"><ele>116.4</ele><time>2026-08-12T05:41:45Z</time></trkpt>
<trkpt lat="34.83094" lon="134.153269"><ele>117.08</ele><time>2026-08-12T05:41:49Z</time></trkpt>
<trkpt lat="34.830915" lon="134.153278"><ele>117.72</ele><time>2026-08-12T05:41:52Z</time></trkpt>
<trkpt lat="34.830906" lon="134.153299"><ele>118.01</ele><time>2026-08-12T05:41:53Z</time></trkpt>
<trkpt lat="34.830875" lon="134.153368"><ele>118.76</ele><time>2026-08-12T05:41:58Z</time></trkpt>
<trkpt lat="34.830868" lon="134.153379"><ele>118.76</ele><time>2026-08-12T05:41:59Z</time></trkpt>
<trkpt lat="34.830815" lon="134.153415"><ele>120.08</ele><time>2026-08-12T05:42:04Z</time></trkpt>
<trkpt lat="34.830799" lon="134.153414"><ele>120.08</ele><time>2026-08-12T05:42:06Z</time></trkpt>
<trkpt lat="34.830771" lon="134.153405"><ele>120.57</ele><time>2026-08-12T05:42:10Z</time></trkpt>
<trkpt lat="34.830744" lon="134.153387"><ele>121.36</ele><time>2026-08-12T05:42:13Z</time></trkpt>
<trkpt lat="34.830737" lon="134.153376"><ele>121.36</ele><time>2026-08-12T05:42:14Z</time></trkpt>
<trkpt lat="34.830728" lon="134.153364"><ele>121.43</ele><time>2026-08-12T05:42:15Z</time></trkpt>
<trkpt lat="34.830682" lon="134.15332"><ele>122.04</ele><time>2026-08-12T05:42:19Z</time></trkpt>
<trkpt lat="34.830642" lon="134.153281"><ele>123.05</ele><time>2026-08-12T05:42:22Z</time></trkpt>
<trkpt lat="34.830589" lon="134.153248"><ele>123.43</ele><time>2026-08-12T05:42:26Z</time></trkpt>
<trkpt lat="34.830478" lon="134.153152"><ele>123.19</ele><time>2026-08-12T05:42:33Z</time></trkpt>
<trkpt lat="34.830469" lon="134.153137"><ele>122.6</ele><time>2026-08-12T05:42:34Z</time></trkpt>
<trkpt lat="34.830389" lon="134.153022"><ele>123.21</ele><time>2026-08-12T05:42:40Z</time></trkpt>
<trkpt lat="34.830372" lon="134.15297"><ele>122.8</ele><time>2026-08-12T05:42:42Z</time></trkpt>
<trkpt lat="34.830298" lon="134.152801"><ele>122.94</ele><time>2026-08-12T05:42:48Z</time></trkpt>
<trkpt lat="34.830268" lon="134.152755"><ele>123.35</ele><time>2026-08-12T05:42:50Z</time></trkpt>
<trkpt lat="34.830234" lon="134.152685"><ele>123.43</ele><time>2026-08-12T05:42:53Z</time></trkpt>
<trkpt lat="34.830213" lon="134.15267"><ele>123.95</ele><time>2026-08-12T05:42:54Z</time></trkpt>
<trkpt lat="34.830132" lon="134.152603"><ele>125.47</ele><time>2026-08-12T05:43:00Z</time></trkpt>
<trkpt lat="34.830086" lon="134.152557"><ele>125.67</ele><time>2026-08-12T05:43:06Z</time></trkpt>
<trkpt lat="34.830066" lon="134.15255"><ele>125.91</ele><time>2026-08-12T05:43:08Z</time></trkpt>
<trkpt lat="34.83003" lon="134.152547"><ele>126.75</ele><time>2026-08-12T05:43:11Z</time></trkpt>
<trkpt lat="34.83002" lon="134.152541"><ele>126.75</ele><time>2026-08-12T05:43:12Z</time></trkpt>
<trkpt lat="34.829989" lon="134.152531"><ele>127.49</ele><time>2026-08-12T05:43:15Z</time></trkpt>
<trkpt lat="34.829966" lon="134.152518"><ele>128.27</ele><time>2026-08-12T05:43:18Z</time></trkpt>
<trkpt lat="34.829957" lon="134.152514"><ele>128.27</ele><time>2026-08-12T05:43:19Z</time></trkpt>
<trkpt lat="34.829946" lon="134.152516"><ele>128.27</ele><time>2026-08-12T05:43:20Z</time></trkpt>
<trkpt lat="34.829923" lon="134.152521"><ele>129.09</ele><time>2026-08-12T05:43:22Z</time></trkpt>
<trkpt lat="34.829909" lon="134.152529"><ele>129.09</ele><time>2026-08-12T05:43:23Z</time></trkpt>
<trkpt lat="34.829884" lon="134.152546"><ele>129.77</ele><time>2026-08-12T05:43:26Z</time></trkpt>
<trkpt lat="34.829875" lon="134.15255"><ele>129.77</ele><time>2026-08-12T05:43:27Z</time></trkpt>
<trkpt lat="34.829825" lon="134.15257"><ele>131.96</ele><time>2026-08-12T05:43:32Z</time></trkpt>
<trkpt lat="34.82981" lon="134.152568"><ele>131.96</ele><time>2026-08-12T05:43:34Z</time></trkpt>
<trkpt lat="34.829782" lon="134.152569"><ele>132.51</ele><time>2026-08-12T05:43:38Z</time></trkpt>
<trkpt lat="34.829773" lon="134.152569"><ele>132.51</ele><time>2026-08-12T05:43:39Z</time></trkpt>
<trkpt lat="34.829763" lon="134.152576"><ele>132.51</ele><time>2026-08-12T05:43:40Z</time></trkpt>
<trkpt lat="34.829738" lon="134.152587"><ele>133.16</ele><time>2026-08-12T05:43:42Z</time></trkpt>
<trkpt lat="34.829727" lon="134.15259"><ele>133.78</ele><time>2026-08-12T05:43:43Z</time></trkpt>
<trkpt lat="34.829693" lon="134.1526"><ele>134.66</ele><time>2026-08-12T05:43:46Z</time></trkpt>
<trkpt lat="34.829674" lon="134.152617"><ele>135.03</ele><time>2026-08-12T05:43:48Z</time></trkpt>
<trkpt lat="34.82963" lon="134.152637"><ele>136.22</ele><time>2026-08-12T05:43:52Z</time></trkpt>
<trkpt lat="34.829617" lon="134.152644"><ele>136.63</ele><time>2026-08-12T05:43:53Z</time></trkpt>
<trkpt lat="34.829584" lon="134.152647"><ele>137.21</ele><time>2026-08-12T05:43:55Z</time></trkpt>
<trkpt lat="34.829574" lon="134.152641"><ele>137.21</ele><time>2026-08-12T05:43:56Z</time></trkpt>
<trkpt lat="34.829545" lon="134.152612"><ele>137.22</ele><time>2026-08-12T05:43:59Z</time></trkpt>
<trkpt lat="34.82954" lon="134.152543"><ele>136.29</ele><time>2026-08-12T05:44:03Z</time></trkpt>
<trkpt lat="34.82952" lon="134.15251"><ele>136.29</ele><time>2026-08-12T05:44:05Z</time></trkpt>
<trkpt lat="34.829481" lon="134.152427"><ele>135.44</ele><time>2026-08-12T05:44:10Z</time></trkpt>
<trkpt lat="34.829479" lon="134.152414"><ele>134.78</ele><time>2026-08-12T05:44:11Z</time></trkpt>
<trkpt lat="34.829474" lon="134.152402"><ele>134.78</ele><time>2026-08-12T05:44:12Z</time></trkpt>
<trkpt lat="34.82943" lon="134.152374"><ele>133.71</ele><time>2026-08-12T05:44:15Z</time></trkpt>
<trkpt lat="34.82941" lon="134.152363"><ele>133.73</ele><time>2026-08-12T05:44:16Z</time></trkpt>
<trkpt lat="34.829373" lon="134.152338"><ele>134.01</ele><time>2026-08-12T05:44:18Z</time></trkpt>
<trkpt lat="34.829347" lon="134.152313"><ele>133.41</ele><time>2026-08-12T05:44:20Z</time></trkpt>
<trkpt lat="34.82934" lon="134.152298"><ele>134.86</ele><time>2026-08-12T05:44:21Z</time></trkpt>
<trkpt lat="34.829306" lon="134.152221"><ele>134.61</ele><time>2026-08-12T05:44:26Z</time></trkpt>
<trkpt lat="34.829304" lon="134.152217"><ele>136.37</ele><time>2026-08-12T05:44:27Z</time></trkpt>
<trkpt lat="34.829309" lon="134.152139"><ele>133.62</ele><time>2026-08-12T05:44:33Z</time></trkpt>
<trkpt lat="34.829328" lon="134.152101"><ele>134.91</ele><time>2026-08-12T05:44:37Z</time></trkpt>
<trkpt lat="34.829338" lon="134.152069"><ele>136.6</ele><time>2026-08-12T05:44:40Z</time></trkpt>
<trkpt lat="34.829351" lon="134.152035"><ele>137.08</ele><time>2026-08-12T05:44:43Z</time></trkpt>
<trkpt lat="34.829369" lon="134.151982"><ele>138.82</ele><time>2026-08-12T05:44:47Z</time></trkpt>
<trkpt lat="34.829366" lon="134.151973"><ele>138.82</ele><time>2026-08-12T05:44:49Z</time></trkpt>
<trkpt lat="34.829367" lon="134.151958"><ele>138.82</ele><time>2026-08-12T05:44:52Z</time></trkpt>
<trkpt lat="34.82939" lon="134.15193"><ele>139.39</ele><time>2026-08-12T05:44:57Z</time></trkpt>
<trkpt lat="34.829394" lon="134.151918"><ele>139.39</ele><time>2026-08-12T05:44:58Z</time></trkpt>
<trkpt lat="34.829428" lon="134.151853"><ele>141.19</ele><time>2026-08-12T05:45:03Z</time></trkpt>
<trkpt lat="34.829459" lon="134.1518"><ele>141.36</ele><time>2026-08-12T05:45:08Z</time></trkpt>
<trkpt lat="34.829474" lon="134.151758"><ele>142.9</ele><time>2026-08-12T05:45:12Z</time></trkpt>
<trkpt lat="34.829478" lon="134.151726"><ele>144.05</ele><time>2026-08-12T05:45:14Z</time></trkpt>
<trkpt lat="34.829482" lon="134.151694"><ele>143.11</ele><time>2026-08-12T05:45:17Z</time></trkpt>
<trkpt lat="34.829489" lon="134.151685"><ele>144.33</ele><time>2026-08-12T05:45:19Z</time></trkpt>
<trkpt lat="34.829485" lon="134.151665"><ele>144.33</ele><time>2026-08-12T05:45:22Z</time></trkpt>
<trkpt lat="34.829476" lon="134.151626"><ele>146.21</ele><time>2026-08-12T05:45:25Z</time></trkpt>
<trkpt lat="34.829465" lon="134.151613"><ele>146.21</ele><time>2026-08-12T05:45:29Z</time></trkpt>
<trkpt lat="34.829449" lon="134.151625"><ele>146.21</ele><time>2026-08-12T05:45:31Z</time></trkpt>
<trkpt lat="34.829437" lon="134.15163"><ele>147.07</ele><time>2026-08-12T05:45:32Z</time></trkpt>
<trkpt lat="34.82939" lon="134.151677"><ele>147.23</ele><time>2026-08-12T05:45:37Z</time></trkpt>
<trkpt lat="34.829342" lon="134.151697"><ele>147.59</ele><time>2026-08-12T05:45:40Z</time></trkpt>
<trkpt lat="34.829299" lon="134.15172"><ele>148.76</ele><time>2026-08-12T05:45:43Z</time></trkpt>
<trkpt lat="34.829228" lon="134.151746"><ele>149.36</ele><time>2026-08-12T05:45:48Z</time></trkpt>
<trkpt lat="34.8292" lon="134.151767"><ele>149.36</ele><time>2026-08-12T05:45:50Z</time></trkpt>
<trkpt lat="34.829145" lon="134.151779"><ele>149.94</ele><time>2026-08-12T05:45:53Z</time></trkpt>
<trkpt lat="34.829109" lon="134.151789"><ele>150.53</ele><time>2026-08-12T05:45:56Z</time></trkpt>
<trkpt lat="34.829097" lon="134.151796"><ele>150.53</ele><time>2026-08-12T05:45:58Z</time></trkpt>
<trkpt lat="34.82906" lon="134.15182"><ele>151.1</ele><time>2026-08-12T05:46:02Z</time></trkpt>
<trkpt lat="34.829024" lon="134.151832"><ele>151.2</ele><time>2026-08-12T05:46:06Z</time></trkpt>
<trkpt lat="34.829002" lon="134.151829"><ele>152.2</ele><time>2026-08-12T05:46:08Z</time></trkpt>
<trkpt lat="34.828979" lon="134.151818"><ele>153.08</ele><time>2026-08-12T05:46:10Z</time></trkpt>
<trkpt lat="34.828926" lon="134.151825"><ele>154.21</ele><time>2026-08-12T05:46:16Z</time></trkpt>
<trkpt lat="34.828914" lon="134.151821"><ele>154.5</ele><time>2026-08-12T05:46:17Z</time></trkpt>
<trkpt lat="34.828906" lon="134.15182"><ele>154.5</ele><time>2026-08-12T05:46:19Z</time></trkpt>
<trkpt lat="34.828865" lon="134.151836"><ele>155.58</ele><time>2026-08-12T05:46:23Z</time></trkpt>
<trkpt lat="34.828852" lon="134.15185"><ele>155.58</ele><time>2026-08-12T05:46:25Z</time></trkpt>
<trkpt lat="34.828822" lon="134.151861"><ele>156.34</ele><time>2026-08-12T05:46:29Z</time></trkpt>
<trkpt lat="34.828794" lon="134.151886"><ele>157.58</ele><time>2026-08-12T05:46:33Z</time></trkpt>
<trkpt lat="34.828788" lon="134.151893"><ele>157.58</ele><time>2026-08-12T05:46:34Z</time></trkpt>
<trkpt lat="34.828749" lon="134.15192"><ele>158.47</ele><time>2026-08-12T05:46:40Z</time></trkpt>
<trkpt lat="34.828744" lon="134.151928"><ele>158.47</ele><time>2026-08-12T05:46:41Z</time></trkpt>
<trkpt lat="34.828721" lon="134.151947"><ele>159.14</ele><time>2026-08-12T05:46:45Z</time></trkpt>
<trkpt lat="34.828707" lon="134.151968"><ele>158.86</ele><time>2026-08-12T05:46:48Z</time></trkpt>
<trkpt lat="34.828687" lon="134.151976"><ele>159.95</ele><time>2026-08-12T05:46:50Z</time></trkpt>
<trkpt lat="34.828664" lon="134.151988"><ele>161.27</ele><time>2026-08-12T05:46:52Z</time></trkpt>
<trkpt lat="34.828652" lon="134.151997"><ele>160.89</ele><time>2026-08-12T05:46:54Z</time></trkpt>
<trkpt lat="34.828647" lon="134.152"><ele>160.89</ele><time>2026-08-12T05:46:55Z</time></trkpt>
<trkpt lat="34.828615" lon="134.152032"><ele>162.09</ele><time>2026-08-12T05:47:00Z</time></trkpt>
<trkpt lat="34.828606" lon="134.152051"><ele>161.34</ele><time>2026-08-12T05:47:02Z</time></trkpt>
<trkpt lat="34.828562" lon="134.152088"><ele>164.1</ele><time>2026-08-12T05:47:06Z</time></trkpt>
<trkpt lat="34.828543" lon="134.152106"><ele>164.1</ele><time>2026-08-12T05:47:08Z</time></trkpt>
<trkpt lat="34.828521" lon="134.15213"><ele>165.27</ele><time>2026-08-12T05:47:11Z</time></trkpt>
<trkpt lat="34.828491" lon="134.152171"><ele>166.22</ele><time>2026-08-12T05:47:15Z</time></trkpt>
<trkpt lat="34.828464" lon="134.152219"><ele>165.6</ele><time>2026-08-12T05:47:18Z</time></trkpt>
<trkpt lat="34.828455" lon="134.152237"><ele>166.63</ele><time>2026-08-12T05:47:19Z</time></trkpt>
<trkpt lat="34.82843" lon="134.152267"><ele>166.15</ele><time>2026-08-12T05:47:21Z</time></trkpt>
<trkpt lat="34.828413" lon="134.152283"><ele>167.25</ele><time>2026-08-12T05:47:22Z</time></trkpt>
<trkpt lat="34.828399" lon="134.1523"><ele>166.9</ele><time>2026-08-12T05:47:23Z</time></trkpt>
<trkpt lat="34.828368" lon="134.152373"><ele>167.63</ele><time>2026-08-12T05:47:27Z</time></trkpt>
<trkpt lat="34.828359" lon="134.152419"><ele>167.25</ele><time>2026-08-12T05:47:29Z</time></trkpt>
<trkpt lat="34.828355" lon="134.152464"><ele>166.84</ele><time>2026-08-12T05:47:31Z</time></trkpt>
<trkpt lat="34.828321" lon="134.15256"><ele>167.87</ele><time>2026-08-12T05:47:36Z</time></trkpt>
<trkpt lat="34.828306" lon="134.152587"><ele>169.59</ele><time>2026-08-12T05:47:38Z</time></trkpt>
<trkpt lat="34.828304" lon="134.152592"><ele>169.59</ele><time>2026-08-12T05:47:39Z</time></trkpt>
<trkpt lat="34.828308" lon="134.152603"><ele>169.71</ele><time>2026-08-12T05:47:44Z</time></trkpt>
<trkpt lat="34.828315" lon="134.152604"><ele>169.71</ele><time>2026-08-12T05:47:45Z</time></trkpt>
<trkpt lat="34.828304" lon="134.152638"><ele>169.87</ele><time>2026-08-12T05:47:49Z</time></trkpt>
<trkpt lat="34.828296" lon="134.152671"><ele>169.87</ele><time>2026-08-12T05:47:52Z</time></trkpt>
<trkpt lat="34.828289" lon="134.152699"><ele>170.13</ele><time>2026-08-12T05:47:55Z</time></trkpt>
<trkpt lat="34.828282" lon="134.152708"><ele>171.83</ele><time>2026-08-12T05:47:57Z</time></trkpt>
<trkpt lat="34.828253" lon="134.152737"><ele>172.3</ele><time>2026-08-12T05:48:01Z</time></trkpt>
<trkpt lat="34.828243" lon="134.152749"><ele>173.65</ele><time>2026-08-12T05:48:03Z</time></trkpt>
<trkpt lat="34.828218" lon="134.152765"><ele>173.65</ele><time>2026-08-12T05:48:06Z</time></trkpt>
<trkpt lat="34.828208" lon="134.152776"><ele>175.5</ele><time>2026-08-12T05:48:08Z</time></trkpt>
<trkpt lat="34.828206" lon="134.152784"><ele>175.5</ele><time>2026-08-12T05:48:09Z</time></trkpt>
<trkpt lat="34.828194" lon="134.15282"><ele>176.29</ele><time>2026-08-12T05:48:13Z</time></trkpt>
<trkpt lat="34.828189" lon="134.15283"><ele>176.29</ele><time>2026-08-12T05:48:14Z</time></trkpt>
<trkpt lat="34.828182" lon="134.152856"><ele>176.85</ele><time>2026-08-12T05:48:17Z</time></trkpt>
<trkpt lat="34.828171" lon="134.152875"><ele>178.33</ele><time>2026-08-12T05:48:19Z</time></trkpt>
<trkpt lat="34.828163" lon="134.152903"><ele>179.21</ele><time>2026-08-12T05:48:23Z</time></trkpt>
<trkpt lat="34.828166" lon="134.152911"><ele>179.21</ele><time>2026-08-12T05:48:24Z</time></trkpt>
<trkpt lat="34.828156" lon="134.152954"><ele>179.61</ele><time>2026-08-12T05:48:27Z</time></trkpt>
<trkpt lat="34.828142" lon="134.152983"><ele>182.1</ele><time>2026-08-12T05:48:31Z</time></trkpt>
<trkpt lat="34.828137" lon="134.152981"><ele>182.1</ele><time>2026-08-12T05:48:34Z</time></trkpt>
<trkpt lat="34.828116" lon="134.152988"><ele>182.1</ele><time>2026-08-12T05:48:37Z</time></trkpt>
<trkpt lat="34.828115" lon="134.152994"><ele>182.1</ele><time>2026-08-12T05:48:38Z</time></trkpt>
<trkpt lat="34.828119" lon="134.15302"><ele>182.1</ele><time>2026-08-12T05:48:44Z</time></trkpt>
<trkpt lat="34.828114" lon="134.153033"><ele>183.26</ele><time>2026-08-12T05:48:46Z</time></trkpt>
<trkpt lat="34.828093" lon="134.153052"><ele>184.87</ele><time>2026-08-12T05:48:49Z</time></trkpt>
<trkpt lat="34.828087" lon="134.153053"><ele>184.87</ele><time>2026-08-12T05:48:53Z</time></trkpt>
<trkpt lat="34.828086" lon="134.153056"><ele>184.87</ele><time>2026-08-12T05:48:55Z</time></trkpt>
<trkpt lat="34.828076" lon="134.153068"><ele>186.03</ele><time>2026-08-12T05:48:59Z</time></trkpt>
<trkpt lat="34.82806" lon="134.153082"><ele>187.43</ele><time>2026-08-12T05:49:03Z</time></trkpt>
<trkpt lat="34.828048" lon="134.153094"><ele>187.43</ele><time>2026-08-12T05:49:07Z</time></trkpt>
<trkpt lat="34.82804" lon="134.153098"><ele>187.43</ele><time>2026-08-12T05:49:08Z</time></trkpt>
<trkpt lat="34.828031" lon="134.153106"><ele>188.87</ele><time>2026-08-12T05:49:13Z</time></trkpt>
<trkpt lat="34.828023" lon="134.153109"><ele>190.19</ele><time>2026-08-12T05:49:15Z</time></trkpt>
<trkpt lat="34.82801" lon="134.153116"><ele>190.19</ele><time>2026-08-12T05:49:18Z</time></trkpt>
<trkpt lat="34.827982" lon="134.15314"><ele>191.46</ele><time>2026-08-12T05:49:22Z</time></trkpt>
<trkpt lat="34.827965" lon="134.153158"><ele>193.15</ele><time>2026-08-12T05:49:28Z</time></trkpt>
<trkpt lat="34.827954" lon="134.153163"><ele>193.15</ele><time>2026-08-12T05:49:29Z</time></trkpt>
<trkpt lat="34.827886" lon="134.153231"><ele>194.97</ele><time>2026-08-12T05:49:35Z</time></trkpt>
<trkpt lat="34.827796" lon="134.153264"><ele>196.56</ele><time>2026-08-12T05:49:43Z</time></trkpt>
<trkpt lat="34.827758" lon="134.153287"><ele>197.47</ele><time>2026-08-12T05:49:49Z</time></trkpt>
<trkpt lat="34.827715" lon="134.153282"><ele>199.49</ele><time>2026-08-12T05:49:55Z</time></trkpt>
<trkpt lat="34.827685" lon="134.153306"><ele>199.49</ele><time>2026-08-12T05:50:00Z</time></trkpt>
<trkpt lat="34.827663" lon="134.153311"><ele>200.41</ele><time>2026-08-12T05:50:04Z</time></trkpt>
<trkpt lat="34.827627" lon="134.153304"><ele>201.31</ele><time>2026-08-12T05:50:08Z</time></trkpt>
<trkpt lat="34.82762" lon="134.153301"><ele>201.31</ele><time>2026-08-12T05:50:09Z</time></trkpt>
<trkpt lat="34.827604" lon="134.153301"><ele>202.09</ele><time>2026-08-12T05:50:13Z</time></trkpt>
<trkpt lat="34.827581" lon="134.153286"><ele>202.09</ele><time>2026-08-12T05:50:17Z</time></trkpt>
<trkpt lat="34.827573" lon="134.153285"><ele>202.95</ele><time>2026-08-12T05:50:18Z</time></trkpt>
<trkpt lat="34.827538" lon="134.153297"><ele>203.86</ele><time>2026-08-12T05:50:22Z</time></trkpt>
<trkpt lat="34.827527" lon="134.15331"><ele>203.86</ele><time>2026-08-12T05:50:24Z</time></trkpt>
<trkpt lat="34.82752" lon="134.153311"><ele>203.86</ele><time>2026-08-12T05:50:26Z</time></trkpt>
<trkpt lat="34.82748" lon="134.153318"><ele>204.76</ele><time>2026-08-12T05:50:30Z</time></trkpt>
<trkpt lat="34.82745" lon="134.153327"><ele>205.04</ele><time>2026-08-12T05:50:34Z</time></trkpt>
<trkpt lat="34.827428" lon="134.15334"><ele>206.53</ele><time>2026-08-12T05:50:38Z</time></trkpt>
<trkpt lat="34.827423" lon="134.153345"><ele>206.53</ele><time>2026-08-12T05:50:39Z</time></trkpt>
<trkpt lat="34.827402" lon="134.153355"><ele>208.35</ele><time>2026-08-12T05:50:44Z</time></trkpt>
<trkpt lat="34.827398" lon="134.153367"><ele>207.67</ele><time>2026-08-12T05:50:47Z</time></trkpt>
<trkpt lat="34.827373" lon="134.153375"><ele>207.67</ele><time>2026-08-12T05:50:51Z</time></trkpt>
<trkpt lat="34.827366" lon="134.153376"><ele>209.6</ele><time>2026-08-12T05:50:53Z</time></trkpt>
<trkpt lat="34.827343" lon="134.153384"><ele>209.6</ele><time>2026-08-12T05:50:56Z</time></trkpt>
<trkpt lat="34.827349" lon="134.153394"><ele>209.6</ele><time>2026-08-12T05:50:59Z</time></trkpt>
<trkpt lat="34.827344" lon="134.153392"><ele>209.6</ele><time>2026-08-12T05:51:00Z</time></trkpt>
<trkpt lat="34.827336" lon="134.1534"><ele>209.6</ele><time>2026-08-12T05:51:03Z</time></trkpt>
<trkpt lat="34.827331" lon="134.153404"><ele>211.78</ele><time>2026-08-12T05:51:04Z</time></trkpt>
<trkpt lat="34.827322" lon="134.153407"><ele>211.78</ele><time>2026-08-12T05:51:07Z</time></trkpt>
<trkpt lat="34.827313" lon="134.153403"><ele>211.78</ele><time>2026-08-12T05:51:10Z</time></trkpt>
<trkpt lat="34.827307" lon="134.153405"><ele>211.78</ele><time>2026-08-12T05:51:11Z</time></trkpt>
<trkpt lat="34.827288" lon="134.153416"><ele>213.78</ele><time>2026-08-12T05:51:15Z</time></trkpt>
<trkpt lat="34.827276" lon="134.153422"><ele>213.78</ele><time>2026-08-12T05:51:17Z</time></trkpt>
<trkpt lat="34.827267" lon="134.15343"><ele>213.78</ele><time>2026-08-12T05:51:19Z</time></trkpt>
<trkpt lat="34.827253" lon="134.153438"><ele>216.11</ele><time>2026-08-12T05:51:23Z</time></trkpt>
<trkpt lat="34.827235" lon="134.153442"><ele>216.11</ele><time>2026-08-12T05:51:29Z</time></trkpt>
<trkpt lat="34.827228" lon="134.153434"><ele>216.11</ele><time>2026-08-12T05:51:34Z</time></trkpt>
<trkpt lat="34.827233" lon="134.153435"><ele>216.11</ele><time>2026-08-12T05:51:38Z</time></trkpt>
<trkpt lat="34.827233" lon="134.153435"><ele>216.11</ele><time>2026-08-12T05:51:40Z</time></trkpt>
<trkpt lat="34.827233" lon="134.153435"><ele>216.11</ele><time>2026-08-12T05:51:41Z</time></trkpt>
<trkpt lat="34.827233" lon="134.153435"><ele>216.11</ele><time>2026-08-12T05:51:44Z</time></trkpt>
<trkpt lat="34.827233" lon="134.153435"><ele>216.11</ele><time>2026-08-12T05:51:48Z</time></trkpt>
<trkpt lat="34.827232" lon="134.153435"><ele>216.11</ele><time>2026-08-12T05:51:50Z</time></trkpt>
<trkpt lat="34.82723" lon="134.153433"><ele>216.11</ele><time>2026-08-12T05:51:55Z</time></trkpt>
<trkpt lat="34.827228" lon="134.153433"><ele>216.11</ele><time>2026-08-12T05:51:59Z</time></trkpt>
<trkpt lat="34.827215" lon="134.153432"><ele>218.21</ele><time>2026-08-12T05:52:03Z</time></trkpt>
<trkpt lat="34.827189" lon="134.153421"><ele>220.56</ele><time>2026-08-12T05:52:07Z</time></trkpt>
<trkpt lat="34.827172" lon="134.153406"><ele>221.62</ele><time>2026-08-12T05:52:11Z</time></trkpt>
<trkpt lat="34.827162" lon="134.153392"><ele>221.62</ele><time>2026-08-12T05:52:16Z</time></trkpt>
<trkpt lat="34.827137" lon="134.153369"><ele>224.35</ele><time>2026-08-12T05:52:21Z</time></trkpt>
<trkpt lat="34.827133" lon="134.153357"><ele>226.13</ele><time>2026-08-12T05:52:23Z</time></trkpt>
<trkpt lat="34.827126" lon="134.153313"><ele>228.46</ele><time>2026-08-12T05:52:30Z</time></trkpt>
<trkpt lat="34.827121" lon="134.153306"><ele>228.46</ele><time>2026-08-12T05:52:32Z</time></trkpt>
<trkpt lat="34.827111" lon="134.153298"><ele>231.03</ele><time>2026-08-12T05:52:37Z</time></trkpt>
<trkpt lat="34.827095" lon="134.153292"><ele>231.03</ele><time>2026-08-12T05:52:41Z</time></trkpt>
<trkpt lat="34.827074" lon="134.153272"><ele>234.4</ele><time>2026-08-12T05:52:46Z</time></trkpt>
<trkpt lat="34.827047" lon="134.153263"><ele>236.16</ele><time>2026-08-12T05:52:50Z</time></trkpt>
<trkpt lat="34.82702" lon="134.153263"><ele>236.16</ele><time>2026-08-12T05:52:53Z</time></trkpt>
<trkpt lat="34.827" lon="134.153266"><ele>237.73</ele><time>2026-08-12T05:52:55Z</time></trkpt>
<trkpt lat="34.826953" lon="134.15329"><ele>238.28</ele><time>2026-08-12T05:53:02Z</time></trkpt>
<trkpt lat="34.826934" lon="134.153297"><ele>240.29</ele><time>2026-08-12T05:53:06Z</time></trkpt>
<trkpt lat="34.82692" lon="134.153325"><ele>240.03</ele><time>2026-08-12T05:53:12Z</time></trkpt>
<trkpt lat="34.826903" lon="134.153347"><ele>242.18</ele><time>2026-08-12T05:53:18Z</time></trkpt>
<trkpt lat="34.826884" lon="134.15337"><ele>242.97</ele><time>2026-08-12T05:53:22Z</time></trkpt>
<trkpt lat="34.826877" lon="134.153384"><ele>242.97</ele><time>2026-08-12T05:53:26Z</time></trkpt>
<trkpt lat="34.826882" lon="134.153394"><ele>242.97</ele><time>2026-08-12T05:53:29Z</time></trkpt>
<trkpt lat="34.826876" lon="134.153409"><ele>242.97</ele><time>2026-08-12T05:53:31Z</time></trkpt>
<trkpt lat="34.826865" lon="134.153429"><ele>246.32</ele><time>2026-08-12T05:53:35Z</time></trkpt>
<trkpt lat="34.826859" lon="134.153432"><ele>246.32</ele><time>2026-08-12T05:53:36Z</time></trkpt>
<trkpt lat="34.826847" lon="134.153451"><ele>246.32</ele><time>2026-08-12T05:53:39Z</time></trkpt>
<trkpt lat="34.826836" lon="134.153469"><ele>249.11</ele><time>2026-08-12T05:53:43Z</time></trkpt>
<trkpt lat="34.826825" lon="134.153499"><ele>250.04</ele><time>2026-08-12T05:53:47Z</time></trkpt>
<trkpt lat="34.826817" lon="134.153511"><ele>250.04</ele><time>2026-08-12T05:53:49Z</time></trkpt>
<trkpt lat="34.826815" lon="134.153517"><ele>250.04</ele><time>2026-08-12T05:53:50Z</time></trkpt>
<trkpt lat="34.826802" lon="134.153528"><ele>251.95</ele><time>2026-08-12T05:53:53Z</time></trkpt>
<trkpt lat="34.826801" lon="134.153524"><ele>251.95</ele><time>2026-08-12T05:53:56Z</time></trkpt>
<trkpt lat="34.82679" lon="134.153529"><ele>251.95</ele><time>2026-08-12T05:53:59Z</time></trkpt>
<trkpt lat="34.826772" lon="134.153529"><ele>251.95</ele><time>2026-08-12T05:54:04Z</time></trkpt>
<trkpt lat="34.826762" lon="134.153531"><ele>253.61</ele><time>2026-08-12T05:54:05Z</time></trkpt>
<trkpt lat="34.826754" lon="134.153537"><ele>253.61</ele><time>2026-08-12T05:54:09Z</time></trkpt>
<trkpt lat="34.826752" lon="134.153538"><ele>255.07</ele><time>2026-08-12T05:54:10Z</time></trkpt>
<trkpt lat="34.826746" lon="134.153554"><ele>255.07</ele><time>2026-08-12T05:54:14Z</time></trkpt>
<trkpt lat="34.826743" lon="134.153572"><ele>255.07</ele><time>2026-08-12T05:54:17Z</time></trkpt>
<trkpt lat="34.826732" lon="134.153585"><ele>258.66</ele><time>2026-08-12T05:54:20Z</time></trkpt>
<trkpt lat="34.826724" lon="134.153605"><ele>258.66</ele><time>2026-08-12T05:54:24Z</time></trkpt>
<trkpt lat="34.826725" lon="134.153606"><ele>258.66</ele><time>2026-08-12T05:54:25Z</time></trkpt>
<trkpt lat="34.826714" lon="134.15361"><ele>258.66</ele><time>2026-08-12T05:54:31Z</time></trkpt>
<trkpt lat="34.826715" lon="134.153611"><ele>258.66</ele><time>2026-08-12T05:54:33Z</time></trkpt>
<trkpt lat="34.826703" lon="134.153619"><ele>258.66</ele><time>2026-08-12T05:54:40Z</time></trkpt>
<trkpt lat="34.826701" lon="134.153628"><ele>260.19</ele><time>2026-08-12T05:54:41Z</time></trkpt>
<trkpt lat="34.8267" lon="134.153637"><ele>260.19</ele><time>2026-08-12T05:54:43Z</time></trkpt>
<trkpt lat="34.826688" lon="134.153636"><ele>262.21</ele><time>2026-08-12T05:54:45Z</time></trkpt>
<trkpt lat="34.826678" lon="134.153632"><ele>262.21</ele><time>2026-08-12T05:54:48Z</time></trkpt>
<trkpt lat="34.826661" lon="134.153634"><ele>264.12</ele><time>2026-08-12T05:54:53Z</time></trkpt>
<trkpt lat="34.826661" lon="134.153645"><ele>264.12</ele><time>2026-08-12T05:54:54Z</time></trkpt>
<trkpt lat="34.826662" lon="134.153659"><ele>264.12</ele><time>2026-08-12T05:54:55Z</time></trkpt>
<trkpt lat="34.826652" lon="134.153676"><ele>265.6</ele><time>2026-08-12T05:54:59Z</time></trkpt>
<trkpt lat="34.826647" lon="134.153681"><ele>265.6</ele><time>2026-08-12T05:55:01Z</time></trkpt>
<trkpt lat="34.826643" lon="134.153682"><ele>265.6</ele><time>2026-08-12T05:55:02Z</time></trkpt>
<trkpt lat="34.826624" lon="134.153686"><ele>267.8</ele><time>2026-08-12T05:55:05Z</time></trkpt>
<trkpt lat="34.826616" lon="134.153707"><ele>267.8</ele><time>2026-08-12T05:55:08Z</time></trkpt>
<trkpt lat="34.826613" lon="134.15371"><ele>268.94</ele><time>2026-08-12T05:55:09Z</time></trkpt>
<trkpt lat="34.826607" lon="134.153713"><ele>268.94</ele><time>2026-08-12T05:55:12Z</time></trkpt>
<trkpt lat="34.826604" lon="134.153721"><ele>268.94</ele><time>2026-08-12T05:55:15Z</time></trkpt>
<trkpt lat="34.826594" lon="134.153738"><ele>268.94</ele><time>2026-08-12T05:55:20Z</time></trkpt>
<trkpt lat="34.826579" lon="134.153757"><ele>271.88</ele><time>2026-08-12T05:55:24Z</time></trkpt>
<trkpt lat="34.826578" lon="134.153763"><ele>271.88</ele><time>2026-08-12T05:55:25Z</time></trkpt>
<trkpt lat="34.826569" lon="134.153783"><ele>271.88</ele><time>2026-08-12T05:55:29Z</time></trkpt>
<trkpt lat="34.826562" lon="134.1538"><ele>272.41</ele><time>2026-08-12T05:55:33Z</time></trkpt>
<trkpt lat="34.826554" lon="134.153812"><ele>274.36</ele><time>2026-08-12T05:55:36Z</time></trkpt>
<trkpt lat="34.82655" lon="134.153819"><ele>274.36</ele><time>2026-08-12T05:55:37Z</time></trkpt>
<trkpt lat="34.826539" lon="134.15385"><ele>274.93</ele><time>2026-08-12T05:55:41Z</time></trkpt>
<trkpt lat="34.826536" lon="134.153855"><ele>274.93</ele><time>2026-08-12T05:55:42Z</time></trkpt>
<trkpt lat="34.826524" lon="134.15391"><ele>275.05</ele><time>2026-08-12T05:55:48Z</time></trkpt>
<trkpt lat="34.826519" lon="134.153937"><ele>276.64</ele><time>2026-08-12T05:55:50Z</time></trkpt>
<trkpt lat="34.82651" lon="134.153984"><ele>276.64</ele><time>2026-08-12T05:55:54Z</time></trkpt>
<trkpt lat="34.826506" lon="134.154011"><ele>276.8</ele><time>2026-08-12T05:55:56Z</time></trkpt>
<trkpt lat="34.826506" lon="134.154026"><ele>276.8</ele><time>2026-08-12T05:55:57Z</time></trkpt>
<trkpt lat="34.826499" lon="134.154071"><ele>276.47</ele><time>2026-08-12T05:56:01Z</time></trkpt>
<trkpt lat="34.826493" lon="134.154087"><ele>276.47</ele><time>2026-08-12T05:56:03Z</time></trkpt>
<trkpt lat="34.82649" lon="134.154096"><ele>276.02</ele><time>2026-08-12T05:56:04Z</time></trkpt>
<trkpt lat="34.826486" lon="134.154118"><ele>278.06</ele><time>2026-08-12T05:56:06Z</time></trkpt>
<trkpt lat="34.826483" lon="134.154127"><ele>278.06</ele><time>2026-08-12T05:56:07Z</time></trkpt>
<trkpt lat="34.82647" lon="134.154172"><ele>278.15</ele><time>2026-08-12T05:56:11Z</time></trkpt>
<trkpt lat="34.826467" lon="134.154186"><ele>278.36</ele><time>2026-08-12T05:56:12Z</time></trkpt>
<trkpt lat="34.826449" lon="134.154265"><ele>280.23</ele><time>2026-08-12T05:56:19Z</time></trkpt>
<trkpt lat="34.826451" lon="134.154286"><ele>280.45</ele><time>2026-08-12T05:56:21Z</time></trkpt>
<trkpt lat="34.826444" lon="134.154309"><ele>280.45</ele><time>2026-08-12T05:56:24Z</time></trkpt>
<trkpt lat="34.826426" lon="134.154329"><ele>280.81</ele><time>2026-08-12T05:56:27Z</time></trkpt>
<trkpt lat="34.826412" lon="134.154347"><ele>282.36</ele><time>2026-08-12T05:56:30Z</time></trkpt>
<trkpt lat="34.826405" lon="134.154387"><ele>282.87</ele><time>2026-08-12T05:56:34Z</time></trkpt>
<trkpt lat="34.8264" lon="134.154416"><ele>283.32</ele><time>2026-08-12T05:56:36Z</time></trkpt>
<trkpt lat="34.826393" lon="134.15443"><ele>283.32</ele><time>2026-08-12T05:56:37Z</time></trkpt>
<trkpt lat="34.826375" lon="134.154454"><ele>285.43</ele><time>2026-08-12T05:56:40Z</time></trkpt>
<trkpt lat="34.826369" lon="134.15448"><ele>285.43</ele><time>2026-08-12T05:56:43Z</time></trkpt>
<trkpt lat="34.826343" lon="134.154518"><ele>287.1</ele><time>2026-08-12T05:56:47Z</time></trkpt>
<trkpt lat="34.826328" lon="134.154545"><ele>287.78</ele><time>2026-08-12T05:56:51Z</time></trkpt>
<trkpt lat="34.826325" lon="134.154552"><ele>287.78</ele><time>2026-08-12T05:56:52Z</time></trkpt>
<trkpt lat="34.826322" lon="134.154575"><ele>288.57</ele><time>2026-08-12T05:56:56Z</time></trkpt>
<trkpt lat="34.826319" lon="134.154588"><ele>288.57</ele><time>2026-08-12T05:56:57Z</time></trkpt>
<trkpt lat="34.826296" lon="134.154617"><ele>290.62</ele><time>2026-08-12T05:57:01Z</time></trkpt>
<trkpt lat="34.826281" lon="134.154654"><ele>291.5</ele><time>2026-08-12T05:57:06Z</time></trkpt>
<trkpt lat="34.826281" lon="134.154663"><ele>291.5</ele><time>2026-08-12T05:57:07Z</time></trkpt>
<trkpt lat="34.826279" lon="134.154688"><ele>291.5</ele><time>2026-08-12T05:57:10Z</time></trkpt>
<trkpt lat="34.826267" lon="134.154722"><ele>293.31</ele><time>2026-08-12T05:57:15Z</time></trkpt>
<trkpt lat="34.826266" lon="134.154732"><ele>293.31</ele><time>2026-08-12T05:57:16Z</time></trkpt>
<trkpt lat="34.826262" lon="134.15477"><ele>294.14</ele><time>2026-08-12T05:57:20Z</time></trkpt>
<trkpt lat="34.826239" lon="134.154808"><ele>295.8</ele><time>2026-08-12T05:57:23Z</time></trkpt>
<trkpt lat="34.826233" lon="134.154838"><ele>296.15</ele><time>2026-08-12T05:57:25Z</time></trkpt>
<trkpt lat="34.826212" lon="134.154888"><ele>296.06</ele><time>2026-08-12T05:57:28Z</time></trkpt>
<trkpt lat="34.826194" lon="134.154902"><ele>296.91</ele><time>2026-08-12T05:57:29Z</time></trkpt>
<trkpt lat="34.826134" lon="134.154937"><ele>297.4</ele><time>2026-08-12T05:57:34Z</time></trkpt>
<trkpt lat="34.826117" lon="134.154938"><ele>297.4</ele><time>2026-08-12T05:57:37Z</time></trkpt>
<trkpt lat="34.826112" lon="134.154943"><ele>297.4</ele><time>2026-08-12T05:57:40Z</time></trkpt>
<trkpt lat="34.826092" lon="134.154966"><ele>297.77</ele><time>2026-08-12T05:57:45Z</time></trkpt>
<trkpt lat="34.826089" lon="134.154971"><ele>297.77</ele><time>2026-08-12T05:57:47Z</time></trkpt>
<trkpt lat="34.826071" lon="134.154978"><ele>297.77</ele><time>2026-08-12T05:57:52Z</time></trkpt>
<trkpt lat="34.826053" lon="134.154988"><ele>299.01</ele><time>2026-08-12T05:57:55Z</time></trkpt>
<trkpt lat="34.826047" lon="134.154993"><ele>299.01</ele><time>2026-08-12T05:57:57Z</time></trkpt>
<trkpt lat="34.82601" lon="134.155002"><ele>300.28</ele><time>2026-08-12T05:58:03Z</time></trkpt>
<trkpt lat="34.825992" lon="134.155003"><ele>301.84</ele><time>2026-08-12T05:58:07Z</time></trkpt>
<trkpt lat="34.825976" lon="134.155029"><ele>301.84</ele><time>2026-08-12T05:58:10Z</time></trkpt>
<trkpt lat="34.825954" lon="134.155034"><ele>303.56</ele><time>2026-08-12T05:58:13Z</time></trkpt>
<trkpt lat="34.825936" lon="134.155037"><ele>303.56</ele><time>2026-08-12T05:58:16Z</time></trkpt>
<trkpt lat="34.825932" lon="134.155036"><ele>303.56</ele><time>2026-08-12T05:58:17Z</time></trkpt>
<trkpt lat="34.825894" lon="134.155049"><ele>305.6</ele><time>2026-08-12T05:58:21Z</time></trkpt>
<trkpt lat="34.825862" lon="134.155046"><ele>307.55</ele><time>2026-08-12T05:58:25Z</time></trkpt>
<trkpt lat="34.825858" lon="134.155045"><ele>307.55</ele><time>2026-08-12T05:58:26Z</time></trkpt>
<trkpt lat="34.825846" lon="134.155051"><ele>309.3</ele><time>2026-08-12T05:58:28Z</time></trkpt>
<trkpt lat="34.825839" lon="134.155061"><ele>309.3</ele><time>2026-08-12T05:58:30Z</time></trkpt>
<trkpt lat="34.825833" lon="134.155073"><ele>309.3</ele><time>2026-08-12T05:58:32Z</time></trkpt>
<trkpt lat="34.825821" lon="134.155092"><ele>309.6</ele><time>2026-08-12T05:58:35Z</time></trkpt>
<trkpt lat="34.825796" lon="134.155125"><ele>311.5</ele><time>2026-08-12T05:58:41Z</time></trkpt>
<trkpt lat="34.825789" lon="134.155131"><ele>311.54</ele><time>2026-08-12T05:58:42Z</time></trkpt>
<trkpt lat="34.825757" lon="134.155145"><ele>313.61</ele><time>2026-08-12T05:58:47Z</time></trkpt>
<trkpt lat="34.825739" lon="134.155148"><ele>315.4</ele><time>2026-08-12T05:58:51Z</time></trkpt>
<trkpt lat="34.825733" lon="134.155149"><ele>315.4</ele><time>2026-08-12T05:58:52Z</time></trkpt>
<trkpt lat="34.825722" lon="134.15516"><ele>315.4</ele><time>2026-08-12T05:58:56Z</time></trkpt>
<trkpt lat="34.825714" lon="134.155168"><ele>315.4</ele><time>2026-08-12T05:59:00Z</time></trkpt>
<trkpt lat="34.825704" lon="134.155176"><ele>317.07</ele><time>2026-08-12T05:59:04Z</time></trkpt>
<trkpt lat="34.825697" lon="134.155182"><ele>317.07</ele><time>2026-08-12T05:59:06Z</time></trkpt>
<trkpt lat="34.825682" lon="134.155182"><ele>317.07</ele><time>2026-08-12T05:59:09Z</time></trkpt>
<trkpt lat="34.825669" lon="134.155187"><ele>318.8</ele><time>2026-08-12T05:59:13Z</time></trkpt>
<trkpt lat="34.825655" lon="134.155205"><ele>318.8</ele><time>2026-08-12T05:59:17Z</time></trkpt>
<trkpt lat="34.825652" lon="134.155207"><ele>318.8</ele><time>2026-08-12T05:59:18Z</time></trkpt>
<trkpt lat="34.825636" lon="134.155227"><ele>320.38</ele><time>2026-08-12T05:59:24Z</time></trkpt>
<trkpt lat="34.82563" lon="134.155227"><ele>320.38</ele><time>2026-08-12T05:59:26Z</time></trkpt>
<trkpt lat="34.825612" lon="134.155231"><ele>320.38</ele><time>2026-08-12T05:59:30Z</time></trkpt>
<trkpt lat="34.825592" lon="134.155235"><ele>322.17</ele><time>2026-08-12T05:59:34Z</time></trkpt>
<trkpt lat="34.825587" lon="134.155239"><ele>322.17</ele><time>2026-08-12T05:59:35Z</time></trkpt>
<trkpt lat="34.825575" lon="134.155248"><ele>322.17</ele><time>2026-08-12T05:59:37Z</time></trkpt>
<trkpt lat="34.825553" lon="134.155274"><ele>323.68</ele><time>2026-08-12T05:59:42Z</time></trkpt>
<trkpt lat="34.825531" lon="134.155294"><ele>325.44</ele><time>2026-08-12T05:59:46Z</time></trkpt>
<trkpt lat="34.825526" lon="134.155299"><ele>325.15</ele><time>2026-08-12T05:59:47Z</time></trkpt>
<trkpt lat="34.825498" lon="134.155328"><ele>326.88</ele><time>2026-08-12T05:59:53Z</time></trkpt>
<trkpt lat="34.825482" lon="134.155347"><ele>326.59</ele><time>2026-08-12T05:59:56Z</time></trkpt>
<trkpt lat="34.825469" lon="134.155362"><ele>326.59</ele><time>2026-08-12T05:59:59Z</time></trkpt>
<trkpt lat="34.825458" lon="134.155374"><ele>328.16</ele><time>2026-08-12T06:00:01Z</time></trkpt>
<trkpt lat="34.82543" lon="134.155401"><ele>327.84</ele><time>2026-08-12T06:00:06Z</time></trkpt>
<trkpt lat="34.825422" lon="134.155403"><ele>329.48</ele><time>2026-08-12T06:00:07Z</time></trkpt>
<trkpt lat="34.825376" lon="134.155418"><ele>330.56</ele><time>2026-08-12T06:00:11Z</time></trkpt>
<trkpt lat="34.82536" lon="134.155414"><ele>330.56</ele><time>2026-08-12T06:00:14Z</time></trkpt>
<trkpt lat="34.825353" lon="134.155412"><ele>331.63</ele><time>2026-08-12T06:00:16Z</time></trkpt>
<trkpt lat="34.825342" lon="134.155419"><ele>331.63</ele><time>2026-08-12T06:00:18Z</time></trkpt>
<trkpt lat="34.825317" lon="134.155434"><ele>332.85</ele><time>2026-08-12T06:00:22Z</time></trkpt>
<trkpt lat="34.825313" lon="134.155437"><ele>332.85</ele><time>2026-08-12T06:00:23Z</time></trkpt>
<trkpt lat="34.825287" lon="134.155443"><ele>334.31</ele><time>2026-08-12T06:00:28Z</time></trkpt>
<trkpt lat="34.825276" lon="134.155449"><ele>334.31</ele><time>2026-08-12T06:00:31Z</time></trkpt>
<trkpt lat="34.825244" lon="134.155464"><ele>335.75</ele><time>2026-08-12T06:00:37Z</time></trkpt>
<trkpt lat="34.825236" lon="134.155465"><ele>335.75</ele><time>2026-08-12T06:00:40Z</time></trkpt>
<trkpt lat="34.825218" lon="134.155473"><ele>337.4</ele><time>2026-08-12T06:00:44Z</time></trkpt>
<trkpt lat="34.825214" lon="134.155474"><ele>337.4</ele><time>2026-08-12T06:00:45Z</time></trkpt>
<trkpt lat="34.825198" lon="134.155483"><ele>337.4</ele><time>2026-08-12T06:00:49Z</time></trkpt>
<trkpt lat="34.825185" lon="134.155479"><ele>337.4</ele><time>2026-08-12T06:00:51Z</time></trkpt>
<trkpt lat="34.825167" lon="134.155476"><ele>338.79</ele><time>2026-08-12T06:00:55Z</time></trkpt>
<trkpt lat="34.825141" lon="134.155478"><ele>340.06</ele><time>2026-08-12T06:01:00Z</time></trkpt>
<trkpt lat="34.825135" lon="134.155479"><ele>340.06</ele><time>2026-08-12T06:01:01Z</time></trkpt>
<trkpt lat="34.825101" lon="134.155487"><ele>341.17</ele><time>2026-08-12T06:01:05Z</time></trkpt>
<trkpt lat="34.825094" lon="134.155489"><ele>341.17</ele><time>2026-08-12T06:01:06Z</time></trkpt>
<trkpt lat="34.825084" lon="134.155492"><ele>341.17</ele><time>2026-08-12T06:01:09Z</time></trkpt>
<trkpt lat="34.825086" lon="134.155486"><ele>341.17</ele><time>2026-08-12T06:01:20Z</time></trkpt>
<trkpt lat="34.825086" lon="134.155486"><ele>341.17</ele><time>2026-08-12T06:01:25Z</time></trkpt>
<trkpt lat="34.825086" lon="134.155486"><ele>341.17</ele><time>2026-08-12T06:01:33Z</time></trkpt>
<trkpt lat="34.825069" lon="134.155572"><ele>341.13</ele><time>2026-08-12T06:01:38Z</time></trkpt>
<trkpt lat="34.825067" lon="134.1556"><ele>340.11</ele><time>2026-08-12T06:01:40Z</time></trkpt>
<trkpt lat="34.825066" lon="134.155638"><ele>340.11</ele><time>2026-08-12T06:01:43Z</time></trkpt>
<trkpt lat="34.825068" lon="134.155646"><ele>338.75</ele><time>2026-08-12T06:01:45Z</time></trkpt>
<trkpt lat="34.82507" lon="134.155648"><ele>338.75</ele><time>2026-08-12T06:01:46Z</time></trkpt>
<trkpt lat="34.825066" lon="134.155677"><ele>338.75</ele><time>2026-08-12T06:01:52Z</time></trkpt>
<trkpt lat="34.825066" lon="134.155684"><ele>337.06</ele><time>2026-08-12T06:01:53Z</time></trkpt>
<trkpt lat="34.825063" lon="134.155693"><ele>337.06</ele><time>2026-08-12T06:01:55Z</time></trkpt>
<trkpt lat="34.825066" lon="134.155697"><ele>337.06</ele><time>2026-08-12T06:01:56Z</time></trkpt>
<trkpt lat="34.825068" lon="134.155717"><ele>337.06</ele><time>2026-08-12T06:01:59Z</time></trkpt>
<trkpt lat="34.82506" lon="134.155738"><ele>335.04</ele><time>2026-08-12T06:02:01Z</time></trkpt>
<trkpt lat="34.825064" lon="134.155755"><ele>335.04</ele><time>2026-08-12T06:02:03Z</time></trkpt>
<trkpt lat="34.825049" lon="134.155782"><ele>333.08</ele><time>2026-08-12T06:02:06Z</time></trkpt>
<trkpt lat="34.825024" lon="134.155804"><ele>333.0</ele><time>2026-08-12T06:02:09Z</time></trkpt>
<trkpt lat="34.825" lon="134.15583"><ele>330.67</ele><time>2026-08-12T06:02:12Z</time></trkpt>
<trkpt lat="34.82499" lon="134.155841"><ele>330.67</ele><time>2026-08-12T06:02:13Z</time></trkpt>
<trkpt lat="34.824963" lon="134.15587"><ele>328.81</ele><time>2026-08-12T06:02:15Z</time></trkpt>
<trkpt lat="34.824894" lon="134.155924"><ele>327.27</ele><time>2026-08-12T06:02:19Z</time></trkpt>
<trkpt lat="34.824857" lon="134.15595"><ele>326.53</ele><time>2026-08-12T06:02:23Z</time></trkpt>
<trkpt lat="34.824856" lon="134.155947"><ele>326.53</ele><time>2026-08-12T06:02:24Z</time></trkpt>
<trkpt lat="34.824855" lon="134.155946"><ele>326.53</ele><time>2026-08-12T06:02:25Z</time></trkpt>
<trkpt lat="34.824855" lon="134.156008"><ele>325.86</ele><time>2026-08-12T06:02:28Z</time></trkpt>
<trkpt lat="34.824849" lon="134.156034"><ele>325.18</ele><time>2026-08-12T06:02:29Z</time></trkpt>
<trkpt lat="34.824842" lon="134.156134"><ele>323.75</ele><time>2026-08-12T06:02:33Z</time></trkpt>
<trkpt lat="34.824828" lon="134.156164"><ele>324.57</ele><time>2026-08-12T06:02:35Z</time></trkpt>
<trkpt lat="34.824829" lon="134.156179"><ele>324.57</ele><time>2026-08-12T06:02:36Z</time></trkpt>
<trkpt lat="34.824831" lon="134.156293"><ele>322.67</ele><time>2026-08-12T06:02:41Z</time></trkpt>
<trkpt lat="34.824854" lon="134.156412"><ele>323.64</ele><time>2026-08-12T06:02:46Z</time></trkpt>
<trkpt lat="34.824864" lon="134.156454"><ele>324.32</ele><time>2026-08-12T06:02:48Z</time></trkpt>
<trkpt lat="34.824877" lon="134.156531"><ele>324.79</ele><time>2026-08-12T06:02:51Z</time></trkpt>
<trkpt lat="34.824875" lon="134.156592"><ele>325.65</ele><time>2026-08-12T06:02:54Z</time></trkpt>
<trkpt lat="34.824871" lon="134.156605"><ele>325.65</ele><time>2026-08-12T06:02:55Z</time></trkpt>
<trkpt lat="34.824872" lon="134.156631"><ele>325.26</ele><time>2026-08-12T06:02:57Z</time></trkpt>
<trkpt lat="34.824865" lon="134.156659"><ele>326.27</ele><time>2026-08-12T06:02:59Z</time></trkpt>
<trkpt lat="34.824855" lon="134.156671"><ele>325.34</ele><time>2026-08-12T06:03:00Z</time></trkpt>
<trkpt lat="34.824847" lon="134.156682"><ele>325.34</ele><time>2026-08-12T06:03:01Z</time></trkpt>
<trkpt lat="34.824839" lon="134.156692"><ele>325.34</ele><time>2026-08-12T06:03:02Z</time></trkpt>
<trkpt lat="34.824814" lon="134.15673"><ele>324.4</ele><time>2026-08-12T06:03:05Z</time></trkpt>
<trkpt lat="34.824782" lon="134.156766"><ele>322.93</ele><time>2026-08-12T06:03:08Z</time></trkpt>
<trkpt lat="34.82476" lon="134.156796"><ele>322.93</ele><time>2026-08-12T06:03:10Z</time></trkpt>
<trkpt lat="34.824739" lon="134.156851"><ele>320.23</ele><time>2026-08-12T06:03:13Z</time></trkpt>
<trkpt lat="34.82473" lon="134.156895"><ele>318.62</ele><time>2026-08-12T06:03:15Z</time></trkpt>
<trkpt lat="34.824721" lon="134.15692"><ele>318.88</ele><time>2026-08-12T06:03:16Z</time></trkpt>
<trkpt lat="34.824693" lon="134.15697"><ele>317.56</ele><time>2026-08-12T06:03:18Z</time></trkpt>
<trkpt lat="34.824663" lon="134.157062"><ele>315.58</ele><time>2026-08-12T06:03:22Z</time></trkpt>
<trkpt lat="34.824631" lon="134.157142"><ele>316.65</ele><time>2026-08-12T06:03:26Z</time></trkpt>
<trkpt lat="34.824634" lon="134.157177"><ele>316.77</ele><time>2026-08-12T06:03:28Z</time></trkpt>
<trkpt lat="34.824626" lon="134.157195"><ele>316.9</ele><time>2026-08-12T06:03:30Z</time></trkpt>
<trkpt lat="34.824614" lon="134.157202"><ele>317.82</ele><time>2026-08-12T06:03:32Z</time></trkpt>
<trkpt lat="34.824605" lon="134.157212"><ele>317.82</ele><time>2026-08-12T06:03:34Z</time></trkpt>
<trkpt lat="34.824595" lon="134.157241"><ele>318.55</ele><time>2026-08-12T06:03:37Z</time></trkpt>
<trkpt lat="34.824592" lon="134.157245"><ele>318.55</ele><time>2026-08-12T06:03:38Z</time></trkpt>
<trkpt lat="34.824592" lon="134.157258"><ele>318.55</ele><time>2026-08-12T06:03:39Z</time></trkpt>
<trkpt lat="34.82458" lon="134.157286"><ele>320.73</ele><time>2026-08-12T06:03:42Z</time></trkpt>
<trkpt lat="34.824568" lon="134.157302"><ele>320.73</ele><time>2026-08-12T06:03:44Z</time></trkpt>
<trkpt lat="34.824553" lon="134.157325"><ele>322.01</ele><time>2026-08-12T06:03:48Z</time></trkpt>
<trkpt lat="34.824542" lon="134.157345"><ele>322.79</ele><time>2026-08-12T06:03:51Z</time></trkpt>
<trkpt lat="34.824532" lon="134.157373"><ele>324.2</ele><time>2026-08-12T06:03:55Z</time></trkpt>
<trkpt lat="34.824518" lon="134.157383"><ele>324.2</ele><time>2026-08-12T06:03:58Z</time></trkpt>
<trkpt lat="34.824518" lon="134.157387"><ele>324.2</ele><time>2026-08-12T06:04:00Z</time></trkpt>
<trkpt lat="34.824545" lon="134.157409"><ele>325.67</ele><time>2026-08-12T06:04:03Z</time></trkpt>
<trkpt lat="34.824561" lon="134.157431"><ele>324.78</ele><time>2026-08-12T06:04:06Z</time></trkpt>
<trkpt lat="34.824563" lon="134.157452"><ele>326.53</ele><time>2026-08-12T06:04:10Z</time></trkpt>
<trkpt lat="34.824565" lon="134.157465"><ele>326.53</ele><time>2026-08-12T06:04:11Z</time></trkpt>
<trkpt lat="34.824561" lon="134.157533"><ele>329.91</ele><time>2026-08-12T06:04:15Z</time></trkpt>
<trkpt lat="34.824555" lon="134.157546"><ele>329.91</ele><time>2026-08-12T06:04:17Z</time></trkpt>
<trkpt lat="34.824565" lon="134.157567"><ele>329.91</ele><time>2026-08-12T06:04:20Z</time></trkpt>
<trkpt lat="34.824572" lon="134.157595"><ele>331.41</ele><time>2026-08-12T06:04:23Z</time></trkpt>
<trkpt lat="34.82458" lon="134.157604"><ele>331.41</ele><time>2026-08-12T06:04:25Z</time></trkpt>
<trkpt lat="34.824554" lon="134.157622"><ele>332.63</ele><time>2026-08-12T06:04:29Z</time></trkpt>
<trkpt lat="34.824545" lon="134.15765"><ele>333.28</ele><time>2026-08-12T06:04:34Z</time></trkpt>
<trkpt lat="34.824542" lon="134.157655"><ele>333.28</ele><time>2026-08-12T06:04:35Z</time></trkpt>
<trkpt lat="34.824513" lon="134.157689"><ele>334.28</ele><time>2026-08-12T06:04:40Z</time></trkpt>
<trkpt lat="34.824488" lon="134.157707"><ele>334.94</ele><time>2026-08-12T06:04:43Z</time></trkpt>
<trkpt lat="34.82444" lon="134.157763"><ele>335.46</ele><time>2026-08-12T06:04:47Z</time></trkpt>
<trkpt lat="34.824402" lon="134.157786"><ele>335.34</ele><time>2026-08-12T06:04:49Z</time></trkpt>
<trkpt lat="34.824351" lon="134.157805"><ele>335.52</ele><time>2026-08-12T06:04:52Z</time></trkpt>
<trkpt lat="34.824329" lon="134.157819"><ele>335.89</ele><time>2026-08-12T06:04:54Z</time></trkpt>
<trkpt lat="34.824327" lon="134.157836"><ele>335.77</ele><time>2026-08-12T06:04:55Z</time></trkpt>
<trkpt lat="34.824304" lon="134.157872"><ele>335.77</ele><time>2026-08-12T06:04:57Z</time></trkpt>
<trkpt lat="34.824248" lon="134.157934"><ele>336.91</ele><time>2026-08-12T06:05:01Z</time></trkpt>
<trkpt lat="34.824194" lon="134.157974"><ele>337.94</ele><time>2026-08-12T06:05:04Z</time></trkpt>
<trkpt lat="34.824139" lon="134.157978"><ele>338.78</ele><time>2026-08-12T06:05:06Z</time></trkpt>
<trkpt lat="34.824112" lon="134.158003"><ele>339.53</ele><time>2026-08-12T06:05:10Z</time></trkpt>
<trkpt lat="34.824105" lon="134.158009"><ele>339.53</ele><time>2026-08-12T06:05:11Z</time></trkpt>
<trkpt lat="34.824087" lon="134.158039"><ele>340.26</ele><time>2026-08-12T06:05:17Z</time></trkpt>
<trkpt lat="34.824087" lon="134.158048"><ele>340.54</ele><time>2026-08-12T06:05:18Z</time></trkpt>
<trkpt lat="34.824048" lon="134.158057"><ele>341.24</ele><time>2026-08-12T06:05:23Z</time></trkpt>
<trkpt lat="34.824034" lon="134.158065"><ele>341.24</ele><time>2026-08-12T06:05:25Z</time></trkpt>
<trkpt lat="34.824016" lon="134.158095"><ele>342.84</ele><time>2026-08-12T06:05:30Z</time></trkpt>
<trkpt lat="34.824013" lon="134.1581"><ele>342.84</ele><time>2026-08-12T06:05:31Z</time></trkpt>
<trkpt lat="34.823984" lon="134.158127"><ele>343.59</ele><time>2026-08-12T06:05:36Z</time></trkpt>
<trkpt lat="34.823965" lon="134.158154"><ele>344.37</ele><time>2026-08-12T06:05:39Z</time></trkpt>
<trkpt lat="34.823951" lon="134.158178"><ele>345.14</ele><time>2026-08-12T06:05:41Z</time></trkpt>
<trkpt lat="34.823923" lon="134.15824"><ele>345.85</ele><time>2026-08-12T06:05:45Z</time></trkpt>
<trkpt lat="34.823924" lon="134.158253"><ele>345.85</ele><time>2026-08-12T06:05:46Z</time></trkpt>
<trkpt lat="34.823938" lon="134.158299"><ele>345.82</ele><time>2026-08-12T06:05:49Z</time></trkpt>
<trkpt lat="34.82395" lon="134.158471"><ele>345.95</ele><time>2026-08-12T06:05:56Z</time></trkpt>
<trkpt lat="34.823928" lon="134.15854"><ele>345.5</ele><time>2026-08-12T06:06:00Z</time></trkpt>
<trkpt lat="34.823936" lon="134.158547"><ele>345.5</ele><time>2026-08-12T06:06:01Z</time></trkpt>
<trkpt lat="34.823942" lon="134.158554"><ele>345.5</ele><time>2026-08-12T06:06:02Z</time></trkpt>
<trkpt lat="34.823954" lon="134.15858"><ele>345.22</ele><time>2026-08-12T06:06:04Z</time></trkpt>
<trkpt lat="34.823971" lon="134.158624"><ele>344.74</ele><time>2026-08-12T06:06:06Z</time></trkpt>
<trkpt lat="34.823984" lon="134.158645"><ele>344.19</ele><time>2026-08-12T06:06:07Z</time></trkpt>
<trkpt lat="34.824017" lon="134.158688"><ele>343.76</ele><time>2026-08-12T06:06:10Z</time></trkpt>
<trkpt lat="34.824056" lon="134.158753"><ele>342.98</ele><time>2026-08-12T06:06:13Z</time></trkpt>
<trkpt lat="34.824077" lon="134.158799"><ele>342.53</ele><time>2026-08-12T06:06:15Z</time></trkpt>
<trkpt lat="34.82408" lon="134.158871"><ele>341.2</ele><time>2026-08-12T06:06:18Z</time></trkpt>
<trkpt lat="34.824091" lon="134.15891"><ele>340.43</ele><time>2026-08-12T06:06:20Z</time></trkpt>
<trkpt lat="34.824104" lon="134.158936"><ele>340.06</ele><time>2026-08-12T06:06:21Z</time></trkpt>
<trkpt lat="34.824147" lon="134.158997"><ele>338.34</ele><time>2026-08-12T06:06:24Z</time></trkpt>
<trkpt lat="34.824176" lon="134.159034"><ele>336.8</ele><time>2026-08-12T06:06:26Z</time></trkpt>
<trkpt lat="34.824207" lon="134.159087"><ele>335.4</ele><time>2026-08-12T06:06:29Z</time></trkpt>
<trkpt lat="34.824226" lon="134.159144"><ele>335.3</ele><time>2026-08-12T06:06:32Z</time></trkpt>
<trkpt lat="34.824219" lon="134.159165"><ele>335.33</ele><time>2026-08-12T06:06:33Z</time></trkpt>
<trkpt lat="34.824171" lon="134.15921"><ele>336.08</ele><time>2026-08-12T06:06:36Z</time></trkpt>
<trkpt lat="34.824177" lon="134.159271"><ele>336.37</ele><time>2026-08-12T07:54:29Z</time></trkpt>
<trkpt lat="34.8242" lon="134.159301"><ele>337.07</ele><time>2026-08-12T07:54:31Z</time></trkpt>
<trkpt lat="34.824212" lon="134.159347"><ele>338.22</ele><time>2026-08-12T07:54:36Z</time></trkpt>
<trkpt lat="34.824222" lon="134.159343"><ele>338.22</ele><time>2026-08-12T07:54:37Z</time></trkpt>
<trkpt lat="34.824232" lon="134.159343"><ele>338.46</ele><time>2026-08-12T07:54:38Z</time></trkpt>
<trkpt lat="34.824244" lon="134.159358"><ele>338.46</ele><time>2026-08-12T07:54:41Z</time></trkpt>
<trkpt lat="34.824247" lon="134.159362"><ele>338.46</ele><time>2026-08-12T07:54:42Z</time></trkpt>
<trkpt lat="34.824265" lon="134.159382"><ele>339.74</ele><time>2026-08-12T07:54:48Z</time></trkpt>
<trkpt lat="34.824294" lon="134.159403"><ele>339.97</ele><time>2026-08-12T07:54:53Z</time></trkpt>
<trkpt lat="34.824307" lon="134.159415"><ele>340.06</ele><time>2026-08-12T07:54:55Z</time></trkpt>
<trkpt lat="34.824321" lon="134.159422"><ele>341.44</ele><time>2026-08-12T07:54:57Z</time></trkpt>
<trkpt lat="34.824331" lon="134.159446"><ele>341.44</ele><time>2026-08-12T07:55:00Z</time></trkpt>
<trkpt lat="34.824334" lon="134.159455"><ele>341.44</ele><time>2026-08-12T07:55:01Z</time></trkpt>
<trkpt lat="34.824337" lon="134.159467"><ele>342.57</ele><time>2026-08-12T07:55:02Z</time></trkpt>
<trkpt lat="34.82435" lon="134.159513"><ele>343.78</ele><time>2026-08-12T07:55:06Z</time></trkpt>
<trkpt lat="34.824369" lon="134.159563"><ele>344.4</ele><time>2026-08-12T07:55:09Z</time></trkpt>
<trkpt lat="34.824373" lon="134.159579"><ele>344.95</ele><time>2026-08-12T07:55:11Z</time></trkpt>
<trkpt lat="34.824402" lon="134.159605"><ele>345.89</ele><time>2026-08-12T07:55:16Z</time></trkpt>
<trkpt lat="34.8244" lon="134.159615"><ele>345.89</ele><time>2026-08-12T07:55:17Z</time></trkpt>
<trkpt lat="34.824415" lon="134.159657"><ele>347.6</ele><time>2026-08-12T07:55:21Z</time></trkpt>
<trkpt lat="34.824464" lon="134.159692"><ele>348.52</ele><time>2026-08-12T07:55:25Z</time></trkpt>
<trkpt lat="34.824467" lon="134.159694"><ele>348.52</ele><time>2026-08-12T07:55:26Z</time></trkpt>
<trkpt lat="34.824472" lon="134.159702"><ele>348.52</ele><time>2026-08-12T07:55:27Z</time></trkpt>
<trkpt lat="34.82448" lon="134.15973"><ele>349.42</ele><time>2026-08-12T07:55:31Z</time></trkpt>
<trkpt lat="34.824489" lon="134.159744"><ele>349.42</ele><time>2026-08-12T07:55:33Z</time></trkpt>
<trkpt lat="34.824511" lon="134.159752"><ele>349.42</ele><time>2026-08-12T07:55:35Z</time></trkpt>
<trkpt lat="34.824537" lon="134.159811"><ele>350.9</ele><time>2026-08-12T07:55:39Z</time></trkpt>
<trkpt lat="34.824543" lon="134.159864"><ele>351.31</ele><time>2026-08-12T07:55:43Z</time></trkpt>
<trkpt lat="34.824545" lon="134.159881"><ele>351.31</ele><time>2026-08-12T07:55:45Z</time></trkpt>
<trkpt lat="34.824548" lon="134.159893"><ele>351.55</ele><time>2026-08-12T07:55:46Z</time></trkpt>
<trkpt lat="34.824528" lon="134.160042"><ele>352.15</ele><time>2026-08-12T07:55:54Z</time></trkpt>
<trkpt lat="34.824496" lon="134.16011"><ele>352.46</ele><time>2026-08-12T07:55:58Z</time></trkpt>
<trkpt lat="34.824471" lon="134.160155"><ele>352.69</ele><time>2026-08-12T07:56:01Z</time></trkpt>
<trkpt lat="34.824481" lon="134.160249"><ele>352.92</ele><time>2026-08-12T07:56:06Z</time></trkpt>
<trkpt lat="34.824478" lon="134.160266"><ele>353.51</ele><time>2026-08-12T07:56:07Z</time></trkpt>
<trkpt lat="34.824405" lon="134.16035"><ele>354.53</ele><time>2026-08-12T07:56:13Z</time></trkpt>
<trkpt lat="34.824327" lon="134.1604"><ele>355.72</ele><time>2026-08-12T07:56:21Z</time></trkpt>
<trkpt lat="34.824309" lon="134.160422"><ele>356.32</ele><time>2026-08-12T07:56:24Z</time></trkpt>
<trkpt lat="34.824285" lon="134.160422"><ele>356.62</ele><time>2026-08-12T07:56:26Z</time></trkpt>
<trkpt lat="34.824247" lon="134.160432"><ele>356.81</ele><time>2026-08-12T07:56:30Z</time></trkpt>
<trkpt lat="34.824231" lon="134.160478"><ele>358.61</ele><time>2026-08-12T07:56:34Z</time></trkpt>
<trkpt lat="34.824226" lon="134.160484"><ele>358.61</ele><time>2026-08-12T07:56:35Z</time></trkpt>
<trkpt lat="34.824212" lon="134.160497"><ele>359.94</ele><time>2026-08-12T07:56:38Z</time></trkpt>
<trkpt lat="34.824209" lon="134.160506"><ele>359.94</ele><time>2026-08-12T07:56:39Z</time></trkpt>
<trkpt lat="34.824204" lon="134.160519"><ele>359.94</ele><time>2026-08-12T07:56:41Z</time></trkpt>
<trkpt lat="34.824194" lon="134.160535"><ele>362.22</ele><time>2026-08-12T07:56:43Z</time></trkpt>
<trkpt lat="34.824175" lon="134.160553"><ele>362.22</ele><time>2026-08-12T07:56:47Z</time></trkpt>
<trkpt lat="34.824179" lon="134.160564"><ele>362.22</ele><time>2026-08-12T07:56:51Z</time></trkpt>
<trkpt lat="34.824163" lon="134.160576"><ele>363.69</ele><time>2026-08-12T07:56:54Z</time></trkpt>
<trkpt lat="34.824158" lon="134.16058"><ele>364.72</ele><time>2026-08-12T07:56:55Z</time></trkpt>
<trkpt lat="34.824141" lon="134.160623"><ele>366.14</ele><time>2026-08-12T07:57:00Z</time></trkpt>
<trkpt lat="34.824138" lon="134.160647"><ele>366.14</ele><time>2026-08-12T07:57:04Z</time></trkpt>
<trkpt lat="34.824134" lon="134.160669"><ele>367.71</ele><time>2026-08-12T07:57:07Z</time></trkpt>
<trkpt lat="34.824135" lon="134.160673"><ele>367.71</ele><time>2026-08-12T07:57:08Z</time></trkpt>
<trkpt lat="34.824157" lon="134.160711"><ele>368.6</ele><time>2026-08-12T07:57:13Z</time></trkpt>
<trkpt lat="34.82416" lon="134.160723"><ele>368.6</ele><time>2026-08-12T07:57:14Z</time></trkpt>
<trkpt lat="34.824175" lon="134.160819"><ele>369.5</ele><time>2026-08-12T07:57:22Z</time></trkpt>
<trkpt lat="34.824175" lon="134.160858"><ele>369.78</ele><time>2026-08-12T07:57:52Z</time></trkpt>
<trkpt lat="34.824174" lon="134.160858"><ele>369.78</ele><time>2026-08-12T07:57:53Z</time></trkpt>
<trkpt lat="34.824174" lon="134.160858"><ele>369.78</ele><time>2026-08-12T07:57:56Z</time></trkpt>
<trkpt lat="34.824174" lon="134.160858"><ele>369.78</ele><time>2026-08-12T07:57:59Z</time></trkpt>
<trkpt lat="34.824174" lon="134.160858"><ele>369.78</ele><time>2026-08-12T07:58:02Z</time></trkpt>
<trkpt lat="34.824179" lon="134.160857"><ele>369.78</ele><time>2026-08-12T07:58:09Z</time></trkpt>
<trkpt lat="34.824181" lon="134.160854"><ele>369.78</ele><time>2026-08-12T07:58:13Z</time></trkpt>
<trkpt lat="34.824185" lon="134.160854"><ele>369.78</ele><time>2026-08-12T07:58:16Z</time></trkpt>
<trkpt lat="34.824199" lon="134.160854"><ele>369.75</ele><time>2026-08-12T07:58:26Z</time></trkpt>
<trkpt lat="34.824215" lon="134.160901"><ele>369.88</ele><time>2026-08-12T07:58:49Z</time></trkpt>
<trkpt lat="34.824215" lon="134.160902"><ele>369.88</ele><time>2026-08-12T07:58:50Z</time></trkpt>
<trkpt lat="34.824183" lon="134.16089"><ele>369.71</ele><time>2026-08-12T07:58:55Z</time></trkpt>
<trkpt lat="34.824172" lon="134.160878"><ele>369.71</ele><time>2026-08-12T07:58:56Z</time></trkpt>
<trkpt lat="34.824081" lon="134.160863"><ele>368.76</ele><time>2026-08-12T07:59:02Z</time></trkpt>
<trkpt lat="34.824047" lon="134.160854"><ele>368.27</ele><time>2026-08-12T07:59:04Z</time></trkpt>
<trkpt lat="34.824019" lon="134.160835"><ele>367.39</ele><time>2026-08-12T07:59:06Z</time></trkpt>
<trkpt lat="34.824006" lon="134.160829"><ele>368.19</ele><time>2026-08-12T07:59:07Z</time></trkpt>
<trkpt lat="34.823969" lon="134.160813"><ele>367.41</ele><time>2026-08-12T07:59:09Z</time></trkpt>
<trkpt lat="34.823955" lon="134.160811"><ele>367.41</ele><time>2026-08-12T07:59:10Z</time></trkpt>
<trkpt lat="34.823941" lon="134.16081"><ele>366.49</ele><time>2026-08-12T07:59:11Z</time></trkpt>
<trkpt lat="34.823914" lon="134.160792"><ele>365.43</ele><time>2026-08-12T07:59:13Z</time></trkpt>
<trkpt lat="34.8239" lon="134.160784"><ele>366.41</ele><time>2026-08-12T07:59:14Z</time></trkpt>
<trkpt lat="34.823888" lon="134.160784"><ele>366.41</ele><time>2026-08-12T07:59:15Z</time></trkpt>
<trkpt lat="34.823849" lon="134.160762"><ele>365.37</ele><time>2026-08-12T07:59:18Z</time></trkpt>
<trkpt lat="34.823831" lon="134.160752"><ele>364.02</ele><time>2026-08-12T07:59:19Z</time></trkpt>
<trkpt lat="34.823804" lon="134.160719"><ele>363.42</ele><time>2026-08-12T07:59:22Z</time></trkpt>
<trkpt lat="34.823795" lon="134.160718"><ele>363.42</ele><time>2026-08-12T07:59:23Z</time></trkpt>
<trkpt lat="34.823787" lon="134.160725"><ele>363.42</ele><time>2026-08-12T07:59:24Z</time></trkpt>
<trkpt lat="34.823779" lon="134.160732"><ele>363.42</ele><time>2026-08-12T07:59:25Z</time></trkpt>
<trkpt lat="34.823759" lon="134.160747"><ele>361.85</ele><time>2026-08-12T07:59:27Z</time></trkpt>
<trkpt lat="34.823738" lon="134.160757"><ele>358.99</ele><time>2026-08-12T07:59:29Z</time></trkpt>
<trkpt lat="34.823724" lon="134.160765"><ele>358.99</ele><time>2026-08-12T07:59:31Z</time></trkpt>
<trkpt lat="34.823719" lon="134.160772"><ele>358.99</ele><time>2026-08-12T07:59:32Z</time></trkpt>
<trkpt lat="34.823716" lon="134.160777"><ele>358.99</ele><time>2026-08-12T07:59:33Z</time></trkpt>
<trkpt lat="34.823713" lon="134.160782"><ele>358.99</ele><time>2026-08-12T07:59:34Z</time></trkpt>
<trkpt lat="34.823705" lon="134.160799"><ele>357.52</ele><time>2026-08-12T07:59:36Z</time></trkpt>
<trkpt lat="34.823703" lon="134.160816"><ele>355.69</ele><time>2026-08-12T07:59:37Z</time></trkpt>
<trkpt lat="34.8237" lon="134.160856"><ele>354.74</ele><time>2026-08-12T07:59:39Z</time></trkpt>
<trkpt lat="34.823691" lon="134.160882"><ele>353.48</ele><time>2026-08-12T07:59:41Z</time></trkpt>
<trkpt lat="34.823664" lon="134.160886"><ele>352.06</ele><time>2026-08-12T07:59:43Z</time></trkpt>
<trkpt lat="34.823653" lon="134.160883"><ele>352.06</ele><time>2026-08-12T07:59:44Z</time></trkpt>
<trkpt lat="34.823642" lon="134.160881"><ele>352.06</ele><time>2026-08-12T07:59:45Z</time></trkpt>
<trkpt lat="34.823632" lon="134.160885"><ele>350.64</ele><time>2026-08-12T07:59:46Z</time></trkpt>
<trkpt lat="34.82361" lon="134.160906"><ele>350.64</ele><time>2026-08-12T07:59:48Z</time></trkpt>
<trkpt lat="34.823594" lon="134.16091"><ele>349.22</ele><time>2026-08-12T07:59:49Z</time></trkpt>
<trkpt lat="34.823578" lon="134.160907"><ele>349.22</ele><time>2026-08-12T07:59:50Z</time></trkpt>
<trkpt lat="34.823555" lon="134.160901"><ele>347.93</ele><time>2026-08-12T07:59:52Z</time></trkpt>
<trkpt lat="34.823542" lon="134.160922"><ele>346.78</ele><time>2026-08-12T07:59:54Z</time></trkpt>
<trkpt lat="34.823538" lon="134.16094"><ele>346.78</ele><time>2026-08-12T07:59:55Z</time></trkpt>
<trkpt lat="34.823529" lon="134.160951"><ele>346.78</ele><time>2026-08-12T07:59:56Z</time></trkpt>
<trkpt lat="34.823521" lon="134.160955"><ele>345.59</ele><time>2026-08-12T07:59:57Z</time></trkpt>
<trkpt lat="34.823501" lon="134.160951"><ele>345.59</ele><time>2026-08-12T07:59:59Z</time></trkpt>
<trkpt lat="34.823474" lon="134.16093"><ele>344.46</ele><time>2026-08-12T08:00:01Z</time></trkpt>
<trkpt lat="34.823455" lon="134.160909"><ele>344.18</ele><time>2026-08-12T08:00:03Z</time></trkpt>
<trkpt lat="34.823428" lon="134.160886"><ele>344.18</ele><time>2026-08-12T08:00:06Z</time></trkpt>
<trkpt lat="34.82342" lon="134.160886"><ele>342.76</ele><time>2026-08-12T08:00:07Z</time></trkpt>
<trkpt lat="34.823403" lon="134.160881"><ele>342.76</ele><time>2026-08-12T08:00:09Z</time></trkpt>
<trkpt lat="34.823349" lon="134.160875"><ele>340.66</ele><time>2026-08-12T08:00:13Z</time></trkpt>
<trkpt lat="34.823311" lon="134.160864"><ele>339.24</ele><time>2026-08-12T08:00:15Z</time></trkpt>
<trkpt lat="34.823283" lon="134.160868"><ele>339.24</ele><time>2026-08-12T08:00:17Z</time></trkpt>
<trkpt lat="34.823279" lon="134.160877"><ele>337.09</ele><time>2026-08-12T08:00:18Z</time></trkpt>
<trkpt lat="34.823283" lon="134.160903"><ele>338.39</ele><time>2026-08-12T08:00:20Z</time></trkpt>
<trkpt lat="34.82328" lon="134.160915"><ele>337.09</ele><time>2026-08-12T08:00:21Z</time></trkpt>
<trkpt lat="34.82327" lon="134.160923"><ele>336.18</ele><time>2026-08-12T08:00:22Z</time></trkpt>
<trkpt lat="34.823246" lon="134.160939"><ele>336.18</ele><time>2026-08-12T08:00:24Z</time></trkpt>
<trkpt lat="34.823235" lon="134.160944"><ele>335.12</ele><time>2026-08-12T08:00:25Z</time></trkpt>
<trkpt lat="34.823211" lon="134.160957"><ele>335.12</ele><time>2026-08-12T08:00:27Z</time></trkpt>
<trkpt lat="34.823194" lon="134.160961"><ele>334.22</ele><time>2026-08-12T08:00:28Z</time></trkpt>
<trkpt lat="34.823184" lon="134.160968"><ele>333.24</ele><time>2026-08-12T08:00:29Z</time></trkpt>
<trkpt lat="34.823163" lon="134.16099"><ele>332.38</ele><time>2026-08-12T08:00:31Z</time></trkpt>
<trkpt lat="34.82315" lon="134.161001"><ele>332.38</ele><time>2026-08-12T08:00:32Z</time></trkpt>
<trkpt lat="34.823129" lon="134.161024"><ele>330.54</ele><time>2026-08-12T08:00:35Z</time></trkpt>
<trkpt lat="34.823093" lon="134.161055"><ele>329.25</ele><time>2026-08-12T08:00:38Z</time></trkpt>
<trkpt lat="34.82307" lon="134.161067"><ele>329.25</ele><time>2026-08-12T08:00:40Z</time></trkpt>
<trkpt lat="34.823034" lon="134.161112"><ele>327.31</ele><time>2026-08-12T08:00:43Z</time></trkpt>
<trkpt lat="34.823021" lon="134.161131"><ele>327.31</ele><time>2026-08-12T08:00:44Z</time></trkpt>
<trkpt lat="34.823007" lon="134.161156"><ele>326.45</ele><time>2026-08-12T08:00:45Z</time></trkpt>
<trkpt lat="34.823006" lon="134.161177"><ele>325.5</ele><time>2026-08-12T08:00:46Z</time></trkpt>
<trkpt lat="34.823006" lon="134.161204"><ele>325.5</ele><time>2026-08-12T08:00:47Z</time></trkpt>
<trkpt lat="34.822997" lon="134.161227"><ele>324.93</ele><time>2026-08-12T08:00:48Z</time></trkpt>
<trkpt lat="34.822972" lon="134.161262"><ele>324.93</ele><time>2026-08-12T08:00:50Z</time></trkpt>
<trkpt lat="34.822935" lon="134.161372"><ele>322.66</ele><time>2026-08-12T08:00:54Z</time></trkpt>
<trkpt lat="34.822923" lon="134.161423"><ele>322.44</ele><time>2026-08-12T08:00:56Z</time></trkpt>
<trkpt lat="34.822914" lon="134.161444"><ele>321.59</ele><time>2026-08-12T08:00:57Z</time></trkpt>
<trkpt lat="34.822903" lon="134.161466"><ele>321.59</ele><time>2026-08-12T08:00:58Z</time></trkpt>
<trkpt lat="34.822833" lon="134.161534"><ele>320.22</ele><time>2026-08-12T08:01:02Z</time></trkpt>
<trkpt lat="34.822821" lon="134.161543"><ele>320.84</ele><time>2026-08-12T08:01:03Z</time></trkpt>
<trkpt lat="34.822814" lon="134.161539"><ele>320.84</ele><time>2026-08-12T08:01:07Z</time></trkpt>
<trkpt lat="34.822772" lon="134.161589"><ele>320.31</ele><time>2026-08-12T08:01:12Z</time></trkpt>
<trkpt lat="34.822749" lon="134.161635"><ele>319.89</ele><time>2026-08-12T08:01:16Z</time></trkpt>
<trkpt lat="34.822737" lon="134.161726"><ele>318.37</ele><time>2026-08-12T08:01:20Z</time></trkpt>
<trkpt lat="34.822704" lon="134.161773"><ele>318.85</ele><time>2026-08-12T08:01:22Z</time></trkpt>
<trkpt lat="34.822603" lon="134.161769"><ele>319.63</ele><time>2026-08-12T08:01:27Z</time></trkpt>
<trkpt lat="34.822475" lon="134.161757"><ele>318.97</ele><time>2026-08-12T08:01:33Z</time></trkpt>
<trkpt lat="34.822462" lon="134.161748"><ele>318.68</ele><time>2026-08-12T08:01:34Z</time></trkpt>
<trkpt lat="34.82235" lon="134.161735"><ele>317.37</ele><time>2026-08-12T08:01:40Z</time></trkpt>
<trkpt lat="34.822335" lon="134.161737"><ele>317.37</ele><time>2026-08-12T08:01:41Z</time></trkpt>
<trkpt lat="34.822327" lon="134.161746"><ele>317.02</ele><time>2026-08-12T08:01:42Z</time></trkpt>
<trkpt lat="34.822318" lon="134.16176"><ele>317.02</ele><time>2026-08-12T08:01:43Z</time></trkpt>
<trkpt lat="34.822284" lon="134.161781"><ele>316.65</ele><time>2026-08-12T08:01:45Z</time></trkpt>
<trkpt lat="34.822265" lon="134.161777"><ele>316.68</ele><time>2026-08-12T08:01:46Z</time></trkpt>
<trkpt lat="34.822228" lon="134.161761"><ele>316.27</ele><time>2026-08-12T08:01:50Z</time></trkpt>
<trkpt lat="34.822206" lon="134.161762"><ele>315.62</ele><time>2026-08-12T08:01:52Z</time></trkpt>
<trkpt lat="34.82219" lon="134.161756"><ele>315.62</ele><time>2026-08-12T08:01:53Z</time></trkpt>
<trkpt lat="34.822184" lon="134.161743"><ele>314.75</ele><time>2026-08-12T08:01:54Z</time></trkpt>
<trkpt lat="34.822176" lon="134.16172"><ele>314.19</ele><time>2026-08-12T08:01:56Z</time></trkpt>
<trkpt lat="34.822172" lon="134.161708"><ele>314.19</ele><time>2026-08-12T08:01:57Z</time></trkpt>
<trkpt lat="34.822155" lon="134.161691"><ele>313.92</ele><time>2026-08-12T08:01:59Z</time></trkpt>
<trkpt lat="34.822126" lon="134.161686"><ele>313.34</ele><time>2026-08-12T08:02:01Z</time></trkpt>
<trkpt lat="34.822097" lon="134.161669"><ele>312.71</ele><time>2026-08-12T08:02:03Z</time></trkpt>
<trkpt lat="34.822034" lon="134.161657"><ele>311.15</ele><time>2026-08-12T08:02:06Z</time></trkpt>
<trkpt lat="34.821977" lon="134.161638"><ele>311.62</ele><time>2026-08-12T08:02:09Z</time></trkpt>
<trkpt lat="34.821856" lon="134.161541"><ele>312.07</ele><time>2026-08-12T08:02:16Z</time></trkpt>
<trkpt lat="34.821806" lon="134.161458"><ele>312.19</ele><time>2026-08-12T08:02:20Z</time></trkpt>
<trkpt lat="34.821789" lon="134.161414"><ele>310.76</ele><time>2026-08-12T08:02:22Z</time></trkpt>
<trkpt lat="34.821788" lon="134.161368"><ele>310.78</ele><time>2026-08-12T08:02:24Z</time></trkpt>
<trkpt lat="34.821801" lon="134.161216"><ele>309.49</ele><time>2026-08-12T08:02:31Z</time></trkpt>
<trkpt lat="34.821805" lon="134.161198"><ele>311.35</ele><time>2026-08-12T08:02:32Z</time></trkpt>
<trkpt lat="34.821793" lon="134.161076"><ele>309.38</ele><time>2026-08-12T08:02:38Z</time></trkpt>
<trkpt lat="34.821793" lon="134.161043"><ele>309.38</ele><time>2026-08-12T08:02:40Z</time></trkpt>
<trkpt lat="34.821808" lon="134.160986"><ele>310.56</ele><time>2026-08-12T08:02:43Z</time></trkpt>
<trkpt lat="34.821818" lon="134.16097"><ele>310.56</ele><time>2026-08-12T08:02:44Z</time></trkpt>
<trkpt lat="34.821862" lon="134.160873"><ele>309.9</ele><time>2026-08-12T08:02:49Z</time></trkpt>
<trkpt lat="34.821863" lon="134.160848"><ele>309.9</ele><time>2026-08-12T08:02:50Z</time></trkpt>
<trkpt lat="34.82186" lon="134.160723"><ele>308.84</ele><time>2026-08-12T08:02:55Z</time></trkpt>
<trkpt lat="34.82185" lon="134.160641"><ele>308.41</ele><time>2026-08-12T08:02:59Z</time></trkpt>
<trkpt lat="34.821851" lon="134.160609"><ele>308.73</ele><time>2026-08-12T08:03:01Z</time></trkpt>
<trkpt lat="34.82185" lon="134.160555"><ele>308.93</ele><time>2026-08-12T08:03:05Z</time></trkpt>
<trkpt lat="34.821839" lon="134.160549"><ele>308.93</ele><time>2026-08-12T08:03:06Z</time></trkpt>
<trkpt lat="34.821807" lon="134.160534"><ele>308.47</ele><time>2026-08-12T08:03:08Z</time></trkpt>
<trkpt lat="34.821745" lon="134.160506"><ele>307.64</ele><time>2026-08-12T08:03:12Z</time></trkpt>
<trkpt lat="34.821677" lon="134.160475"><ele>307.84</ele><time>2026-08-12T08:03:16Z</time></trkpt>
<trkpt lat="34.821601" lon="134.160457"><ele>307.08</ele><time>2026-08-12T08:03:20Z</time></trkpt>
<trkpt lat="34.821583" lon="134.160454"><ele>306.57</ele><time>2026-08-12T08:03:21Z</time></trkpt>
<trkpt lat="34.821546" lon="134.160443"><ele>306.0</ele><time>2026-08-12T08:03:23Z</time></trkpt>
<trkpt lat="34.821515" lon="134.160423"><ele>305.54</ele><time>2026-08-12T08:03:25Z</time></trkpt>
<trkpt lat="34.821495" lon="134.160417"><ele>305.54</ele><time>2026-08-12T08:03:26Z</time></trkpt>
<trkpt lat="34.821481" lon="134.160414"><ele>305.08</ele><time>2026-08-12T08:03:27Z</time></trkpt>
<trkpt lat="34.821399" lon="134.160386"><ele>303.91</ele><time>2026-08-12T08:03:31Z</time></trkpt>
<trkpt lat="34.821314" lon="134.16037"><ele>303.28</ele><time>2026-08-12T08:03:35Z</time></trkpt>
<trkpt lat="34.821293" lon="134.160358"><ele>302.56</ele><time>2026-08-12T08:03:36Z</time></trkpt>
<trkpt lat="34.821218" lon="134.160332"><ele>301.77</ele><time>2026-08-12T08:03:40Z</time></trkpt>
<trkpt lat="34.821202" lon="134.160324"><ele>301.34</ele><time>2026-08-12T08:03:41Z</time></trkpt>
<trkpt lat="34.821169" lon="134.16031"><ele>300.52</ele><time>2026-08-12T08:03:43Z</time></trkpt>
<trkpt lat="34.821138" lon="134.160299"><ele>299.9</ele><time>2026-08-12T08:03:45Z</time></trkpt>
<trkpt lat="34.821103" lon="134.160278"><ele>299.29</ele><time>2026-08-12T08:03:47Z</time></trkpt>
<trkpt lat="34.821056" lon="134.160268"><ele>297.53</ele><time>2026-08-12T08:03:49Z</time></trkpt>
<trkpt lat="34.821011" lon="134.160267"><ele>296.89</ele><time>2026-08-12T08:03:51Z</time></trkpt>
<trkpt lat="34.820935" lon="134.160254"><ele>295.38</ele><time>2026-08-12T08:03:54Z</time></trkpt>
<trkpt lat="34.820914" lon="134.160243"><ele>294.58</ele><time>2026-08-12T08:03:55Z</time></trkpt>
<trkpt lat="34.820892" lon="134.160232"><ele>294.06</ele><time>2026-08-12T08:03:56Z</time></trkpt>
<trkpt lat="34.820845" lon="134.160216"><ele>292.57</ele><time>2026-08-12T08:03:58Z</time></trkpt>
<trkpt lat="34.820795" lon="134.160205"><ele>291.9</ele><time>2026-08-12T08:04:00Z</time></trkpt>
<trkpt lat="34.820743" lon="134.160188"><ele>290.64</ele><time>2026-08-12T08:04:02Z</time></trkpt>
<trkpt lat="34.820712" lon="134.160183"><ele>290.64</ele><time>2026-08-12T08:04:03Z</time></trkpt>
<trkpt lat="34.820667" lon="134.160182"><ele>289.87</ele><time>2026-08-12T08:04:05Z</time></trkpt>
<trkpt lat="34.8206" lon="134.160176"><ele>288.63</ele><time>2026-08-12T08:04:08Z</time></trkpt>
<trkpt lat="34.820535" lon="134.160173"><ele>288.24</ele><time>2026-08-12T08:04:11Z</time></trkpt>
<trkpt lat="34.820471" lon="134.160156"><ele>287.04</ele><time>2026-08-12T08:04:14Z</time></trkpt>
<trkpt lat="34.820435" lon="134.160148"><ele>286.21</ele><time>2026-08-12T08:04:16Z</time></trkpt>
<trkpt lat="34.820401" lon="134.160139"><ele>286.76</ele><time>2026-08-12T08:04:18Z</time></trkpt>
<trkpt lat="34.820323" lon="134.16012"><ele>285.34</ele><time>2026-08-12T08:04:23Z</time></trkpt>
<trkpt lat="34.820307" lon="134.160126"><ele>284.62</ele><time>2026-08-12T08:04:24Z</time></trkpt>
<trkpt lat="34.820267" lon="134.160127"><ele>284.29</ele><time>2026-08-12T08:04:26Z</time></trkpt>
<trkpt lat="34.820204" lon="134.160125"><ele>283.56</ele><time>2026-08-12T08:04:29Z</time></trkpt>
<trkpt lat="34.820141" lon="134.160123"><ele>282.89</ele><time>2026-08-12T08:04:32Z</time></trkpt>
<trkpt lat="34.820081" lon="134.16009"><ele>282.74</ele><time>2026-08-12T08:04:35Z</time></trkpt>
<trkpt lat="34.820064" lon="134.160073"><ele>282.45</ele><time>2026-08-12T08:04:36Z</time></trkpt>
<trkpt lat="34.819993" lon="134.160016"><ele>281.22</ele><time>2026-08-12T08:04:40Z</time></trkpt>
<trkpt lat="34.819973" lon="134.160008"><ele>281.22</ele><time>2026-08-12T08:04:41Z</time></trkpt>
<trkpt lat="34.819945" lon="134.16"><ele>280.98</ele><time>2026-08-12T08:04:43Z</time></trkpt>
<trkpt lat="34.81992" lon="134.159995"><ele>280.78</ele><time>2026-08-12T08:04:44Z</time></trkpt>
<trkpt lat="34.819855" lon="134.159988"><ele>279.51</ele><time>2026-08-12T08:04:47Z</time></trkpt>
<trkpt lat="34.819822" lon="134.159983"><ele>278.69</ele><time>2026-08-12T08:04:49Z</time></trkpt>
<trkpt lat="34.819768" lon="134.159971"><ele>277.4</ele><time>2026-08-12T08:04:52Z</time></trkpt>
<trkpt lat="34.819737" lon="134.159967"><ele>276.42</ele><time>2026-08-12T08:04:54Z</time></trkpt>
<trkpt lat="34.819725" lon="134.159973"><ele>276.42</ele><time>2026-08-12T08:04:55Z</time></trkpt>
<trkpt lat="34.819708" lon="134.159978"><ele>275.61</ele><time>2026-08-12T08:04:56Z</time></trkpt>
<trkpt lat="34.819666" lon="134.159996"><ele>274.22</ele><time>2026-08-12T08:04:58Z</time></trkpt>
<trkpt lat="34.819653" lon="134.160003"><ele>274.22</ele><time>2026-08-12T08:04:59Z</time></trkpt>
<trkpt lat="34.819622" lon="134.160027"><ele>273.22</ele><time>2026-08-12T08:05:01Z</time></trkpt>
<trkpt lat="34.819595" lon="134.160052"><ele>271.43</ele><time>2026-08-12T08:05:03Z</time></trkpt>
<trkpt lat="34.819577" lon="134.160092"><ele>269.9</ele><time>2026-08-12T08:05:05Z</time></trkpt>
<trkpt lat="34.819573" lon="134.160113"><ele>269.24</ele><time>2026-08-12T08:05:06Z</time></trkpt>
<trkpt lat="34.819571" lon="134.160167"><ele>268.0</ele><time>2026-08-12T08:05:09Z</time></trkpt>
<trkpt lat="34.819568" lon="134.160181"><ele>268.0</ele><time>2026-08-12T08:05:10Z</time></trkpt>
<trkpt lat="34.819563" lon="134.160195"><ele>266.43</ele><time>2026-08-12T08:05:11Z</time></trkpt>
<trkpt lat="34.819555" lon="134.160205"><ele>266.43</ele><time>2026-08-12T08:05:12Z</time></trkpt>
<trkpt lat="34.819545" lon="134.160208"><ele>265.15</ele><time>2026-08-12T08:05:13Z</time></trkpt>
<trkpt lat="34.819516" lon="134.160216"><ele>265.15</ele><time>2026-08-12T08:05:16Z</time></trkpt>
<trkpt lat="34.819512" lon="134.160224"><ele>265.15</ele><time>2026-08-12T08:05:17Z</time></trkpt>
<trkpt lat="34.819506" lon="134.16023"><ele>263.38</ele><time>2026-08-12T08:05:18Z</time></trkpt>
<trkpt lat="34.819497" lon="134.160232"><ele>263.38</ele><time>2026-08-12T08:05:19Z</time></trkpt>
<trkpt lat="34.819489" lon="134.16023"><ele>263.38</ele><time>2026-08-12T08:05:20Z</time></trkpt>
<trkpt lat="34.819485" lon="134.160222"><ele>263.38</ele><time>2026-08-12T08:05:21Z</time></trkpt>
<trkpt lat="34.819467" lon="134.160216"><ele>261.45</ele><time>2026-08-12T08:05:23Z</time></trkpt>
<trkpt lat="34.819457" lon="134.160215"><ele>261.45</ele><time>2026-08-12T08:05:24Z</time></trkpt>
<trkpt lat="34.81944" lon="134.160222"><ele>259.25</ele><time>2026-08-12T08:05:26Z</time></trkpt>
<trkpt lat="34.819417" lon="134.160211"><ele>259.25</ele><time>2026-08-12T08:05:29Z</time></trkpt>
<trkpt lat="34.819415" lon="134.160199"><ele>259.25</ele><time>2026-08-12T08:05:30Z</time></trkpt>
<trkpt lat="34.8194" lon="134.16016"><ele>257.41</ele><time>2026-08-12T08:05:33Z</time></trkpt>
<trkpt lat="34.819384" lon="134.160126"><ele>257.59</ele><time>2026-08-12T08:05:35Z</time></trkpt>
<trkpt lat="34.819377" lon="134.160105"><ele>257.59</ele><time>2026-08-12T08:05:36Z</time></trkpt>
<trkpt lat="34.819373" lon="134.160084"><ele>257.89</ele><time>2026-08-12T08:05:37Z</time></trkpt>
<trkpt lat="34.819345" lon="134.160032"><ele>255.66</ele><time>2026-08-12T08:05:40Z</time></trkpt>
<trkpt lat="34.819319" lon="134.159968"><ele>254.4</ele><time>2026-08-12T08:05:43Z</time></trkpt>
<trkpt lat="34.819292" lon="134.159923"><ele>252.64</ele><time>2026-08-12T08:05:46Z</time></trkpt>
<trkpt lat="34.819278" lon="134.159903"><ele>252.64</ele><time>2026-08-12T08:05:48Z</time></trkpt>
<trkpt lat="34.819263" lon="134.159859"><ele>250.7</ele><time>2026-08-12T08:05:51Z</time></trkpt>
<trkpt lat="34.819258" lon="134.159847"><ele>250.7</ele><time>2026-08-12T08:05:52Z</time></trkpt>
<trkpt lat="34.819253" lon="134.159845"><ele>250.28</ele><time>2026-08-12T08:05:53Z</time></trkpt>
<trkpt lat="34.819231" lon="134.15985"><ele>250.7</ele><time>2026-08-12T08:05:55Z</time></trkpt>
<trkpt lat="34.819222" lon="134.159847"><ele>249.09</ele><time>2026-08-12T08:05:56Z</time></trkpt>
<trkpt lat="34.819204" lon="134.159836"><ele>248.8</ele><time>2026-08-12T08:05:58Z</time></trkpt>
<trkpt lat="34.819191" lon="134.159837"><ele>247.35</ele><time>2026-08-12T08:05:59Z</time></trkpt>
<trkpt lat="34.81918" lon="134.159838"><ele>247.35</ele><time>2026-08-12T08:06:00Z</time></trkpt>
<trkpt lat="34.819138" lon="134.15984"><ele>245.9</ele><time>2026-08-12T08:06:03Z</time></trkpt>
<trkpt lat="34.819131" lon="134.159835"><ele>245.9</ele><time>2026-08-12T08:06:04Z</time></trkpt>
<trkpt lat="34.819122" lon="134.159825"><ele>244.29</ele><time>2026-08-12T08:06:05Z</time></trkpt>
<trkpt lat="34.819104" lon="134.159816"><ele>244.29</ele><time>2026-08-12T08:06:07Z</time></trkpt>
<trkpt lat="34.819095" lon="134.159818"><ele>244.29</ele><time>2026-08-12T08:06:08Z</time></trkpt>
<trkpt lat="34.819075" lon="134.159824"><ele>242.64</ele><time>2026-08-12T08:06:10Z</time></trkpt>
<trkpt lat="34.819056" lon="134.159827"><ele>242.64</ele><time>2026-08-12T08:06:11Z</time></trkpt>
<trkpt lat="34.819042" lon="134.159823"><ele>240.97</ele><time>2026-08-12T08:06:12Z</time></trkpt>
<trkpt lat="34.819032" lon="134.159819"><ele>240.97</ele><time>2026-08-12T08:06:13Z</time></trkpt>
<trkpt lat="34.819012" lon="134.159806"><ele>239.61</ele><time>2026-08-12T08:06:15Z</time></trkpt>
<trkpt lat="34.818973" lon="134.159798"><ele>239.33</ele><time>2026-08-12T08:06:18Z</time></trkpt>
<trkpt lat="34.81896" lon="134.159789"><ele>239.33</ele><time>2026-08-12T08:06:19Z</time></trkpt>
<trkpt lat="34.81894" lon="134.159783"><ele>237.77</ele><time>2026-08-12T08:06:21Z</time></trkpt>
<trkpt lat="34.818934" lon="134.159789"><ele>237.77</ele><time>2026-08-12T08:06:22Z</time></trkpt>
<trkpt lat="34.818911" lon="134.159818"><ele>235.01</ele><time>2026-08-12T08:06:25Z</time></trkpt>
<trkpt lat="34.818899" lon="134.159817"><ele>235.01</ele><time>2026-08-12T08:06:26Z</time></trkpt>
<trkpt lat="34.818885" lon="134.159807"><ele>235.01</ele><time>2026-08-12T08:06:27Z</time></trkpt>
<trkpt lat="34.818839" lon="134.15977"><ele>233.86</ele><time>2026-08-12T08:06:30Z</time></trkpt>
<trkpt lat="34.818804" lon="134.159741"><ele>233.71</ele><time>2026-08-12T08:06:33Z</time></trkpt>
<trkpt lat="34.818779" lon="134.159742"><ele>233.71</ele><time>2026-08-12T08:06:35Z</time></trkpt>
<trkpt lat="34.818768" lon="134.159749"><ele>232.71</ele><time>2026-08-12T08:06:36Z</time></trkpt>
<trkpt lat="34.818746" lon="134.159767"><ele>232.1</ele><time>2026-08-12T08:06:38Z</time></trkpt>
<trkpt lat="34.818733" lon="134.159768"><ele>231.07</ele><time>2026-08-12T08:06:39Z</time></trkpt>
<trkpt lat="34.818698" lon="134.159766"><ele>229.98</ele><time>2026-08-12T08:06:42Z</time></trkpt>
<trkpt lat="34.818691" lon="134.159764"><ele>229.98</ele><time>2026-08-12T08:06:43Z</time></trkpt>
<trkpt lat="34.818685" lon="134.159755"><ele>230.26</ele><time>2026-08-12T08:06:44Z</time></trkpt>
<trkpt lat="34.818677" lon="134.159745"><ele>230.26</ele><time>2026-08-12T08:06:45Z</time></trkpt>
<trkpt lat="34.818668" lon="134.159743"><ele>230.26</ele><time>2026-08-12T08:06:46Z</time></trkpt>
<trkpt lat="34.818658" lon="134.159744"><ele>229.18</ele><time>2026-08-12T08:06:47Z</time></trkpt>
<trkpt lat="34.818632" lon="134.159746"><ele>229.18</ele><time>2026-08-12T08:06:49Z</time></trkpt>
<trkpt lat="34.818618" lon="134.159742"><ele>228.29</ele><time>2026-08-12T08:06:50Z</time></trkpt>
<trkpt lat="34.818556" lon="134.15972"><ele>226.74</ele><time>2026-08-12T08:06:54Z</time></trkpt>
<trkpt lat="34.818517" lon="134.159718"><ele>226.01</ele><time>2026-08-12T08:06:56Z</time></trkpt>
<trkpt lat="34.818495" lon="134.159716"><ele>225.7</ele><time>2026-08-12T08:06:57Z</time></trkpt>
<trkpt lat="34.818414" lon="134.159711"><ele>224.07</ele><time>2026-08-12T08:07:01Z</time></trkpt>
<trkpt lat="34.818387" lon="134.159706"><ele>224.07</ele><time>2026-08-12T08:07:03Z</time></trkpt>
<trkpt lat="34.818377" lon="134.159704"><ele>223.41</ele><time>2026-08-12T08:07:04Z</time></trkpt>
<trkpt lat="34.818361" lon="134.1597"><ele>223.41</ele><time>2026-08-12T08:07:05Z</time></trkpt>
<trkpt lat="34.818337" lon="134.159702"><ele>222.32</ele><time>2026-08-12T08:07:07Z</time></trkpt>
<trkpt lat="34.818304" lon="134.159699"><ele>221.22</ele><time>2026-08-12T08:07:09Z</time></trkpt>
<trkpt lat="34.818289" lon="134.159694"><ele>221.22</ele><time>2026-08-12T08:07:10Z</time></trkpt>
<trkpt lat="34.818262" lon="134.15968"><ele>220.24</ele><time>2026-08-12T08:07:12Z</time></trkpt>
<trkpt lat="34.818219" lon="134.159674"><ele>218.87</ele><time>2026-08-12T08:07:15Z</time></trkpt>
<trkpt lat="34.818189" lon="134.159679"><ele>218.17</ele><time>2026-08-12T08:07:17Z</time></trkpt>
<trkpt lat="34.818159" lon="134.159677"><ele>217.89</ele><time>2026-08-12T08:07:19Z</time></trkpt>
<trkpt lat="34.818128" lon="134.159672"><ele>217.17</ele><time>2026-08-12T08:07:22Z</time></trkpt>
<trkpt lat="34.818081" lon="134.159685"><ele>217.15</ele><time>2026-08-12T08:07:25Z</time></trkpt>
<trkpt lat="34.818049" lon="134.159705"><ele>216.66</ele><time>2026-08-12T08:07:27Z</time></trkpt>
<trkpt lat="34.818035" lon="134.159711"><ele>216.66</ele><time>2026-08-12T08:07:28Z</time></trkpt>
<trkpt lat="34.817991" lon="134.159753"><ele>214.94</ele><time>2026-08-12T08:07:32Z</time></trkpt>
<trkpt lat="34.817963" lon="134.159761"><ele>213.19</ele><time>2026-08-12T08:07:34Z</time></trkpt>
<trkpt lat="34.817946" lon="134.15976"><ele>214.55</ele><time>2026-08-12T08:07:35Z</time></trkpt>
<trkpt lat="34.817886" lon="134.15977"><ele>212.24</ele><time>2026-08-12T08:07:39Z</time></trkpt>
<trkpt lat="34.817857" lon="134.159764"><ele>212.24</ele><time>2026-08-12T08:07:41Z</time></trkpt>
<trkpt lat="34.81785" lon="134.159751"><ele>211.67</ele><time>2026-08-12T08:07:42Z</time></trkpt>
<trkpt lat="34.817845" lon="134.159738"><ele>211.67</ele><time>2026-08-12T08:07:43Z</time></trkpt>
<trkpt lat="34.817837" lon="134.159731"><ele>211.67</ele><time>2026-08-12T08:07:44Z</time></trkpt>
<trkpt lat="34.817827" lon="134.159734"><ele>211.67</ele><time>2026-08-12T08:07:45Z</time></trkpt>
<trkpt lat="34.817815" lon="134.159742"><ele>210.11</ele><time>2026-08-12T08:07:46Z</time></trkpt>
<trkpt lat="34.817795" lon="134.159766"><ele>210.13</ele><time>2026-08-12T08:07:48Z</time></trkpt>
<trkpt lat="34.817775" lon="134.15979"><ele>208.74</ele><time>2026-08-12T08:07:50Z</time></trkpt>
<trkpt lat="34.817762" lon="134.159796"><ele>208.74</ele><time>2026-08-12T08:07:51Z</time></trkpt>
<trkpt lat="34.817749" lon="134.159793"><ele>207.23</ele><time>2026-08-12T08:07:52Z</time></trkpt>
<trkpt lat="34.817733" lon="134.15978"><ele>207.23</ele><time>2026-08-12T08:07:55Z</time></trkpt>
<trkpt lat="34.817711" lon="134.159777"><ele>205.61</ele><time>2026-08-12T08:07:57Z</time></trkpt>
<trkpt lat="34.817703" lon="134.159777"><ele>205.61</ele><time>2026-08-12T08:07:58Z</time></trkpt>
<trkpt lat="34.817686" lon="134.15978"><ele>205.61</ele><time>2026-08-12T08:08:00Z</time></trkpt>
<trkpt lat="34.817665" lon="134.159771"><ele>203.78</ele><time>2026-08-12T08:08:02Z</time></trkpt>
<trkpt lat="34.817659" lon="134.159766"><ele>203.78</ele><time>2026-08-12T08:08:03Z</time></trkpt>
<trkpt lat="34.817642" lon="134.159769"><ele>201.83</ele><time>2026-08-12T08:08:05Z</time></trkpt>
<trkpt lat="34.817623" lon="134.15976"><ele>201.39</ele><time>2026-08-12T08:08:07Z</time></trkpt>
<trkpt lat="34.817615" lon="134.159754"><ele>201.39</ele><time>2026-08-12T08:08:08Z</time></trkpt>
<trkpt lat="34.817608" lon="134.159748"><ele>199.33</ele><time>2026-08-12T08:08:09Z</time></trkpt>
<trkpt lat="34.817581" lon="134.159739"><ele>199.33</ele><time>2026-08-12T08:08:13Z</time></trkpt>
<trkpt lat="34.817579" lon="134.159733"><ele>199.33</ele><time>2026-08-12T08:08:14Z</time></trkpt>
<trkpt lat="34.81758" lon="134.159729"><ele>199.33</ele><time>2026-08-12T08:08:16Z</time></trkpt>
<trkpt lat="34.817568" lon="134.159711"><ele>196.59</ele><time>2026-08-12T08:08:20Z</time></trkpt>
<trkpt lat="34.817566" lon="134.159709"><ele>196.59</ele><time>2026-08-12T08:08:21Z</time></trkpt>
<trkpt lat="34.817538" lon="134.159702"><ele>194.63</ele><time>2026-08-12T08:08:24Z</time></trkpt>
<trkpt lat="34.817523" lon="134.159697"><ele>194.63</ele><time>2026-08-12T08:08:27Z</time></trkpt>
<trkpt lat="34.817482" lon="134.15968"><ele>192.69</ele><time>2026-08-12T08:08:31Z</time></trkpt>
<trkpt lat="34.81744" lon="134.159665"><ele>190.49</ele><time>2026-08-12T08:08:34Z</time></trkpt>
<trkpt lat="34.817425" lon="134.159654"><ele>188.94</ele><time>2026-08-12T08:08:36Z</time></trkpt>
<trkpt lat="34.817422" lon="134.15965"><ele>188.94</ele><time>2026-08-12T08:08:37Z</time></trkpt>
<trkpt lat="34.817416" lon="134.159651"><ele>188.94</ele><time>2026-08-12T08:08:38Z</time></trkpt>
<trkpt lat="34.817387" lon="134.159668"><ele>187.24</ele><time>2026-08-12T08:08:41Z</time></trkpt>
<trkpt lat="34.817379" lon="134.159676"><ele>187.0</ele><time>2026-08-12T08:08:42Z</time></trkpt>
<trkpt lat="34.817372" lon="134.159678"><ele>187.0</ele><time>2026-08-12T08:08:43Z</time></trkpt>
<trkpt lat="34.817361" lon="134.159664"><ele>185.81</ele><time>2026-08-12T08:08:45Z</time></trkpt>
<trkpt lat="34.817345" lon="134.159651"><ele>185.81</ele><time>2026-08-12T08:08:47Z</time></trkpt>
<trkpt lat="34.817321" lon="134.159672"><ele>184.67</ele><time>2026-08-12T08:08:50Z</time></trkpt>
<trkpt lat="34.817306" lon="134.159683"><ele>183.56</ele><time>2026-08-12T08:08:52Z</time></trkpt>
<trkpt lat="34.817291" lon="134.159691"><ele>182.37</ele><time>2026-08-12T08:08:54Z</time></trkpt>
<trkpt lat="34.817283" lon="134.159698"><ele>182.37</ele><time>2026-08-12T08:08:55Z</time></trkpt>
<trkpt lat="34.81727" lon="134.159711"><ele>182.37</ele><time>2026-08-12T08:08:57Z</time></trkpt>
<trkpt lat="34.817262" lon="134.159727"><ele>181.18</ele><time>2026-08-12T08:08:59Z</time></trkpt>
<trkpt lat="34.817241" lon="134.159752"><ele>179.75</ele><time>2026-08-12T08:09:02Z</time></trkpt>
<trkpt lat="34.817241" lon="134.159788"><ele>178.24</ele><time>2026-08-12T08:09:05Z</time></trkpt>
<trkpt lat="34.817241" lon="134.159804"><ele>176.96</ele><time>2026-08-12T08:09:06Z</time></trkpt>
<trkpt lat="34.817244" lon="134.159839"><ele>176.96</ele><time>2026-08-12T08:09:08Z</time></trkpt>
<trkpt lat="34.817245" lon="134.159896"><ele>174.71</ele><time>2026-08-12T08:09:12Z</time></trkpt>
<trkpt lat="34.817236" lon="134.159944"><ele>173.93</ele><time>2026-08-12T08:09:15Z</time></trkpt>
<trkpt lat="34.817238" lon="134.159955"><ele>173.93</ele><time>2026-08-12T08:09:16Z</time></trkpt>
<trkpt lat="34.817236" lon="134.159977"><ele>173.59</ele><time>2026-08-12T08:09:18Z</time></trkpt>
<trkpt lat="34.817229" lon="134.159986"><ele>173.59</ele><time>2026-08-12T08:09:19Z</time></trkpt>
<trkpt lat="34.817203" lon="134.16"><ele>171.48</ele><time>2026-08-12T08:09:22Z</time></trkpt>
<trkpt lat="34.817197" lon="134.160007"><ele>171.48</ele><time>2026-08-12T08:09:24Z</time></trkpt>
<trkpt lat="34.817194" lon="134.160013"><ele>171.48</ele><time>2026-08-12T08:09:25Z</time></trkpt>
<trkpt lat="34.817187" lon="134.160026"><ele>170.98</ele><time>2026-08-12T08:09:27Z</time></trkpt>
<trkpt lat="34.817181" lon="134.160035"><ele>168.68</ele><time>2026-08-12T08:09:28Z</time></trkpt>
<trkpt lat="34.817163" lon="134.160072"><ele>167.99</ele><time>2026-08-12T08:09:31Z</time></trkpt>
<trkpt lat="34.817157" lon="134.160077"><ele>167.99</ele><time>2026-08-12T08:09:32Z</time></trkpt>
<trkpt lat="34.817142" lon="134.160082"><ele>165.73</ele><time>2026-08-12T08:09:34Z</time></trkpt>
<trkpt lat="34.817126" lon="134.16009"><ele>165.73</ele><time>2026-08-12T08:09:36Z</time></trkpt>
<trkpt lat="34.817121" lon="134.160092"><ele>165.73</ele><time>2026-08-12T08:09:37Z</time></trkpt>
<trkpt lat="34.817111" lon="134.160107"><ele>163.3</ele><time>2026-08-12T08:09:39Z</time></trkpt>
<trkpt lat="34.817101" lon="134.160115"><ele>163.3</ele><time>2026-08-12T08:09:40Z</time></trkpt>
<trkpt lat="34.817086" lon="134.160134"><ele>163.3</ele><time>2026-08-12T08:09:42Z</time></trkpt>
<trkpt lat="34.817077" lon="134.160155"><ele>160.76</ele><time>2026-08-12T08:09:44Z</time></trkpt>
<trkpt lat="34.817066" lon="134.160186"><ele>160.76</ele><time>2026-08-12T08:09:46Z</time></trkpt>
<trkpt lat="34.817068" lon="134.160219"><ele>160.13</ele><time>2026-08-12T08:09:48Z</time></trkpt>
<trkpt lat="34.817065" lon="134.160236"><ele>159.49</ele><time>2026-08-12T08:09:49Z</time></trkpt>
<trkpt lat="34.817041" lon="134.160252"><ele>157.48</ele><time>2026-08-12T08:09:51Z</time></trkpt>
<trkpt lat="34.817025" lon="134.160255"><ele>157.48</ele><time>2026-08-12T08:09:52Z</time></trkpt>
<trkpt lat="34.817007" lon="134.160253"><ele>155.75</ele><time>2026-08-12T08:09:53Z</time></trkpt>
<trkpt lat="34.816973" lon="134.16025"><ele>154.1</ele><time>2026-08-12T08:09:55Z</time></trkpt>
<trkpt lat="34.816945" lon="134.160246"><ele>154.1</ele><time>2026-08-12T08:09:57Z</time></trkpt>
<trkpt lat="34.816932" lon="134.160246"><ele>152.52</ele><time>2026-08-12T08:09:58Z</time></trkpt>
<trkpt lat="34.816919" lon="134.160254"><ele>152.52</ele><time>2026-08-12T08:10:00Z</time></trkpt>
<trkpt lat="34.81692" lon="134.160279"><ele>151.24</ele><time>2026-08-12T08:10:02Z</time></trkpt>
<trkpt lat="34.816906" lon="134.160303"><ele>151.24</ele><time>2026-08-12T08:10:04Z</time></trkpt>
<trkpt lat="34.816888" lon="134.160302"><ele>149.88</ele><time>2026-08-12T08:10:05Z</time></trkpt>
<trkpt lat="34.816878" lon="134.1603"><ele>149.88</ele><time>2026-08-12T08:10:06Z</time></trkpt>
<trkpt lat="34.816861" lon="134.160317"><ele>148.67</ele><time>2026-08-12T08:10:08Z</time></trkpt>
<trkpt lat="34.816856" lon="134.16035"><ele>147.12</ele><time>2026-08-12T08:10:10Z</time></trkpt>
<trkpt lat="34.816858" lon="134.160364"><ele>145.64</ele><time>2026-08-12T08:10:11Z</time></trkpt>
<trkpt lat="34.816856" lon="134.160389"><ele>145.64</ele><time>2026-08-12T08:10:13Z</time></trkpt>
<trkpt lat="34.816842" lon="134.160393"><ele>145.64</ele><time>2026-08-12T08:10:15Z</time></trkpt>
<trkpt lat="34.816821" lon="134.16039"><ele>144.45</ele><time>2026-08-12T08:10:17Z</time></trkpt>
<trkpt lat="34.816815" lon="134.160389"><ele>144.45</ele><time>2026-08-12T08:10:18Z</time></trkpt>
<trkpt lat="34.816812" lon="134.160396"><ele>144.45</ele><time>2026-08-12T08:10:19Z</time></trkpt>
<trkpt lat="34.816815" lon="134.160415"><ele>142.97</ele><time>2026-08-12T08:10:21Z</time></trkpt>
<trkpt lat="34.816821" lon="134.160422"><ele>142.97</ele><time>2026-08-12T08:10:22Z</time></trkpt>
<trkpt lat="34.816829" lon="134.160433"><ele>142.97</ele><time>2026-08-12T08:10:23Z</time></trkpt>
<trkpt lat="34.816835" lon="134.160445"><ele>144.24</ele><time>2026-08-12T08:10:24Z</time></trkpt>
<trkpt lat="34.816835" lon="134.160464"><ele>142.97</ele><time>2026-08-12T08:10:25Z</time></trkpt>
<trkpt lat="34.81683" lon="134.160474"><ele>141.45</ele><time>2026-08-12T08:10:26Z</time></trkpt>
<trkpt lat="34.816823" lon="134.160478"><ele>141.45</ele><time>2026-08-12T08:10:27Z</time></trkpt>
<trkpt lat="34.816812" lon="134.160481"><ele>141.45</ele><time>2026-08-12T08:10:28Z</time></trkpt>
<trkpt lat="34.816808" lon="134.160548"><ele>138.24</ele><time>2026-08-12T08:10:32Z</time></trkpt>
<trkpt lat="34.816814" lon="134.16058"><ele>136.47</ele><time>2026-08-12T08:10:34Z</time></trkpt>
<trkpt lat="34.81682" lon="134.160631"><ele>134.38</ele><time>2026-08-12T08:10:37Z</time></trkpt>
<trkpt lat="34.816799" lon="134.160653"><ele>134.38</ele><time>2026-08-12T08:10:39Z</time></trkpt>
<trkpt lat="34.816787" lon="134.160651"><ele>132.5</ele><time>2026-08-12T08:10:40Z</time></trkpt>
<trkpt lat="34.816764" lon="134.160649"><ele>132.5</ele><time>2026-08-12T08:10:42Z</time></trkpt>
<trkpt lat="34.816754" lon="134.160651"><ele>130.67</ele><time>2026-08-12T08:10:44Z</time></trkpt>
<trkpt lat="34.81676" lon="134.160656"><ele>130.67</ele><time>2026-08-12T08:10:45Z</time></trkpt>
<trkpt lat="34.816764" lon="134.160661"><ele>132.5</ele><time>2026-08-12T08:10:47Z</time></trkpt>
<trkpt lat="34.816772" lon="134.16067"><ele>130.29</ele><time>2026-08-12T08:10:49Z</time></trkpt>
<trkpt lat="34.816762" lon="134.160686"><ele>128.27</ele><time>2026-08-12T08:10:51Z</time></trkpt>
<trkpt lat="34.816757" lon="134.160693"><ele>128.27</ele><time>2026-08-12T08:10:52Z</time></trkpt>
<trkpt lat="34.816752" lon="134.160708"><ele>126.27</ele><time>2026-08-12T08:10:53Z</time></trkpt>
<trkpt lat="34.816754" lon="134.160722"><ele>126.27</ele><time>2026-08-12T08:10:54Z</time></trkpt>
<trkpt lat="34.816755" lon="134.160739"><ele>126.27</ele><time>2026-08-12T08:10:55Z</time></trkpt>
<trkpt lat="34.816739" lon="134.160766"><ele>124.15</ele><time>2026-08-12T08:10:57Z</time></trkpt>
<trkpt lat="34.81673" lon="134.160771"><ele>124.15</ele><time>2026-08-12T08:10:58Z</time></trkpt>
<trkpt lat="34.816724" lon="134.160766"><ele>122.27</ele><time>2026-08-12T08:10:59Z</time></trkpt>
<trkpt lat="34.81671" lon="134.16076"><ele>122.27</ele><time>2026-08-12T08:11:01Z</time></trkpt>
<trkpt lat="34.816702" lon="134.160759"><ele>122.27</ele><time>2026-08-12T08:11:02Z</time></trkpt>
<trkpt lat="34.816697" lon="134.160764"><ele>122.27</ele><time>2026-08-12T08:11:03Z</time></trkpt>
<trkpt lat="34.816706" lon="134.160781"><ele>122.27</ele><time>2026-08-12T08:11:05Z</time></trkpt>
<trkpt lat="34.81672" lon="134.160815"><ele>120.19</ele><time>2026-08-12T08:11:07Z</time></trkpt>
<trkpt lat="34.81673" lon="134.160849"><ele>120.15</ele><time>2026-08-12T08:11:09Z</time></trkpt>
<trkpt lat="34.816729" lon="134.160872"><ele>120.15</ele><time>2026-08-12T08:11:11Z</time></trkpt>
<trkpt lat="34.816728" lon="134.160876"><ele>120.15</ele><time>2026-08-12T08:11:12Z</time></trkpt>
<trkpt lat="34.816732" lon="134.16088"><ele>118.57</ele><time>2026-08-12T08:11:14Z</time></trkpt>
<trkpt lat="34.816727" lon="134.16088"><ele>116.37</ele><time>2026-08-12T08:11:16Z</time></trkpt>
<trkpt lat="34.816724" lon="134.160879"><ele>116.37</ele><time>2026-08-12T08:11:17Z</time></trkpt>
<trkpt lat="34.816719" lon="134.160888"><ele>116.37</ele><time>2026-08-12T08:11:19Z</time></trkpt>
<trkpt lat="34.816709" lon="134.16092"><ele>114.78</ele><time>2026-08-12T08:11:22Z</time></trkpt>
<trkpt lat="34.816723" lon="134.160938"><ele>114.78</ele><time>2026-08-12T08:11:24Z</time></trkpt>
<trkpt lat="34.816735" lon="134.160952"><ele>117.33</ele><time>2026-08-12T08:11:25Z</time></trkpt>
<trkpt lat="34.81673" lon="134.160968"><ele>116.27</ele><time>2026-08-12T08:11:28Z</time></trkpt>
<trkpt lat="34.816721" lon="134.16097"><ele>113.06</ele><time>2026-08-12T08:11:29Z</time></trkpt>
<trkpt lat="34.816716" lon="134.160971"><ele>113.06</ele><time>2026-08-12T08:11:30Z</time></trkpt>
<trkpt lat="34.816697" lon="134.160985"><ele>113.06</ele><time>2026-08-12T08:11:33Z</time></trkpt>
<trkpt lat="34.816685" lon="134.161016"><ele>109.74</ele><time>2026-08-12T08:11:35Z</time></trkpt>
<trkpt lat="34.81668" lon="134.161039"><ele>109.74</ele><time>2026-08-12T08:11:36Z</time></trkpt>
<trkpt lat="34.816683" lon="134.161058"><ele>108.83</ele><time>2026-08-12T08:11:37Z</time></trkpt>
<trkpt lat="34.816697" lon="134.161087"><ele>110.53</ele><time>2026-08-12T08:11:39Z</time></trkpt>
<trkpt lat="34.816705" lon="134.161135"><ele>107.17</ele><time>2026-08-12T08:11:41Z</time></trkpt>
<trkpt lat="34.816709" lon="134.161154"><ele>107.17</ele><time>2026-08-12T08:11:42Z</time></trkpt>
<trkpt lat="34.816717" lon="134.161186"><ele>105.36</ele><time>2026-08-12T08:11:44Z</time></trkpt>
<trkpt lat="34.816714" lon="134.161206"><ele>105.36</ele><time>2026-08-12T08:11:47Z</time></trkpt>
<trkpt lat="34.816714" lon="134.161211"><ele>105.36</ele><time>2026-08-12T08:11:48Z</time></trkpt>
<trkpt lat="34.816712" lon="134.161222"><ele>103.97</ele><time>2026-08-12T08:11:50Z</time></trkpt>
<trkpt lat="34.816712" lon="134.161242"><ele>103.97</ele><time>2026-08-12T08:11:53Z</time></trkpt>
<trkpt lat="34.816713" lon="134.161263"><ele>102.73</ele><time>2026-08-12T08:11:55Z</time></trkpt>
<trkpt lat="34.816713" lon="134.161275"><ele>102.73</ele><time>2026-08-12T08:11:56Z</time></trkpt>
<trkpt lat="34.816705" lon="134.161301"><ele>102.73</ele><time>2026-08-12T08:11:58Z</time></trkpt>
<trkpt lat="34.8167" lon="134.161337"><ele>101.57</ele><time>2026-08-12T08:12:01Z</time></trkpt>
<trkpt lat="34.816699" lon="134.16135"><ele>100.24</ele><time>2026-08-12T08:12:02Z</time></trkpt>
<trkpt lat="34.816683" lon="134.161374"><ele>98.57</ele><time>2026-08-12T08:12:04Z</time></trkpt>
<trkpt lat="34.816689" lon="134.161398"><ele>96.53</ele><time>2026-08-12T08:12:06Z</time></trkpt>
<trkpt lat="34.816704" lon="134.16141"><ele>98.14</ele><time>2026-08-12T08:12:07Z</time></trkpt>
<trkpt lat="34.816734" lon="134.161448"><ele>99.07</ele><time>2026-08-12T08:12:09Z</time></trkpt>
<trkpt lat="34.816757" lon="134.161495"><ele>97.25</ele><time>2026-08-12T08:12:11Z</time></trkpt>
<trkpt lat="34.816765" lon="134.161513"><ele>100.41</ele><time>2026-08-12T08:12:12Z</time></trkpt>
<trkpt lat="34.816776" lon="134.161558"><ele>98.73</ele><time>2026-08-12T08:12:14Z</time></trkpt>
<trkpt lat="34.816772" lon="134.161583"><ele>97.17</ele><time>2026-08-12T08:12:15Z</time></trkpt>
<trkpt lat="34.816767" lon="134.16164"><ele>95.39</ele><time>2026-08-12T08:12:17Z</time></trkpt>
<trkpt lat="34.816759" lon="134.161718"><ele>90.0</ele><time>2026-08-12T08:12:20Z</time></trkpt>
<trkpt lat="34.81677" lon="134.161762"><ele>91.19</ele><time>2026-08-12T08:12:22Z</time></trkpt>
<trkpt lat="34.816779" lon="134.161803"><ele>89.87</ele><time>2026-08-12T08:12:24Z</time></trkpt>
<trkpt lat="34.816791" lon="134.161881"><ele>87.13</ele><time>2026-08-12T08:12:27Z</time></trkpt>
<trkpt lat="34.816798" lon="134.161936"><ele>85.93</ele><time>2026-08-12T08:12:30Z</time></trkpt>
<trkpt lat="34.816778" lon="134.161992"><ele>85.1</ele><time>2026-08-12T08:12:33Z</time></trkpt>
<trkpt lat="34.81675" lon="134.16204"><ele>81.77</ele><time>2026-08-12T08:12:35Z</time></trkpt>
<trkpt lat="34.816703" lon="134.162082"><ele>80.84</ele><time>2026-08-12T08:12:38Z</time></trkpt>
<trkpt lat="34.816667" lon="134.162119"><ele>80.84</ele><time>2026-08-12T08:12:40Z</time></trkpt>
<trkpt lat="34.81665" lon="134.16214"><ele>79.83</ele><time>2026-08-12T08:12:41Z</time></trkpt>
<trkpt lat="34.816593" lon="134.162197"><ele>78.99</ele><time>2026-08-12T08:12:44Z</time></trkpt>
<trkpt lat="34.816545" lon="134.162231"><ele>78.51</ele><time>2026-08-12T08:12:47Z</time></trkpt>
<trkpt lat="34.816528" lon="134.162239"><ele>78.51</ele><time>2026-08-12T08:12:48Z</time></trkpt>
<trkpt lat="34.816504" lon="134.162266"><ele>77.55</ele><time>2026-08-12T08:12:50Z</time></trkpt>
<trkpt lat="34.816477" lon="134.1623"><ele>76.39</ele><time>2026-08-12T08:12:52Z</time></trkpt>
<trkpt lat="34.816436" lon="134.162343"><ele>75.09</ele><time>2026-08-12T08:12:54Z</time></trkpt>
<trkpt lat="34.816393" lon="134.162375"><ele>75.35</ele><time>2026-08-12T08:12:56Z</time></trkpt>
<trkpt lat="34.816331" lon="134.162414"><ele>74.86</ele><time>2026-08-12T08:12:59Z</time></trkpt>
<trkpt lat="34.816272" lon="134.16246"><ele>74.1</ele><time>2026-08-12T08:13:02Z</time></trkpt>
<trkpt lat="34.816259" lon="134.162504"><ele>73.74</ele><time>2026-08-12T08:13:04Z</time></trkpt>
<trkpt lat="34.816262" lon="134.162528"><ele>72.89</ele><time>2026-08-12T08:13:05Z</time></trkpt>
<trkpt lat="34.816269" lon="134.162548"><ele>72.89</ele><time>2026-08-12T08:13:06Z</time></trkpt>
<trkpt lat="34.816279" lon="134.162571"><ele>71.91</ele><time>2026-08-12T08:13:07Z</time></trkpt>
<trkpt lat="34.81632" lon="134.162632"><ele>71.34</ele><time>2026-08-12T08:13:10Z</time></trkpt>
<trkpt lat="34.816346" lon="134.16267"><ele>70.85</ele><time>2026-08-12T08:13:12Z</time></trkpt>
<trkpt lat="34.816364" lon="134.162696"><ele>70.74</ele><time>2026-08-12T08:13:13Z</time></trkpt>
<trkpt lat="34.816382" lon="134.162715"><ele>70.63</ele><time>2026-08-12T08:13:14Z</time></trkpt>
<trkpt lat="34.816428" lon="134.162765"><ele>70.06</ele><time>2026-08-12T08:13:17Z</time></trkpt>
<trkpt lat="34.816447" lon="134.162778"><ele>70.08</ele><time>2026-08-12T08:13:18Z</time></trkpt>
<trkpt lat="34.816479" lon="134.162846"><ele>69.8</ele><time>2026-08-12T08:13:21Z</time></trkpt>
<trkpt lat="34.816472" lon="134.162991"><ele>69.84</ele><time>2026-08-12T08:13:27Z</time></trkpt>
<trkpt lat="34.816467" lon="134.163014"><ele>69.84</ele><time>2026-08-12T08:13:28Z</time></trkpt>
<trkpt lat="34.816419" lon="134.163101"><ele>69.37</ele><time>2026-08-12T08:13:32Z</time></trkpt>
<trkpt lat="34.816386" lon="134.163127"><ele>68.78</ele><time>2026-08-12T08:13:34Z</time></trkpt>
<trkpt lat="34.816357" lon="134.163154"><ele>68.09</ele><time>2026-08-12T08:13:36Z</time></trkpt>
<trkpt lat="34.816295" lon="134.163205"><ele>66.66</ele><time>2026-08-12T08:13:40Z</time></trkpt>
<trkpt lat="34.816236" lon="134.163256"><ele>66.01</ele><time>2026-08-12T08:13:44Z</time></trkpt>
<trkpt lat="34.816204" lon="134.163283"><ele>65.27</ele><time>2026-08-12T08:13:46Z</time></trkpt>
<trkpt lat="34.816158" lon="134.163312"><ele>63.84</ele><time>2026-08-12T08:13:48Z</time></trkpt>
<trkpt lat="34.816078" lon="134.16337"><ele>63.25</ele><time>2026-08-12T08:13:52Z</time></trkpt>
<trkpt lat="34.815981" lon="134.16342"><ele>62.11</ele><time>2026-08-12T08:13:57Z</time></trkpt>
<trkpt lat="34.815938" lon="134.163444"><ele>61.7</ele><time>2026-08-12T08:13:59Z</time></trkpt>
<trkpt lat="34.815866" lon="134.163494"><ele>61.27</ele><time>2026-08-12T08:14:03Z</time></trkpt>
<trkpt lat="34.81583" lon="134.163511"><ele>60.76</ele><time>2026-08-12T08:14:05Z</time></trkpt>
<trkpt lat="34.815697" lon="134.163539"><ele>59.59</ele><time>2026-08-12T08:14:11Z</time></trkpt>
<trkpt lat="34.815677" lon="134.163532"><ele>59.71</ele><time>2026-08-12T08:14:12Z</time></trkpt>
<trkpt lat="34.815556" lon="134.163514"><ele>58.38</ele><time>2026-08-12T08:14:18Z</time></trkpt>
<trkpt lat="34.815496" lon="134.163599"><ele>57.94</ele><time>2026-08-12T08:14:23Z</time></trkpt>
<trkpt lat="34.815369" lon="134.163757"><ele>56.25</ele><time>2026-08-12T08:14:30Z</time></trkpt>
<trkpt lat="34.815358" lon="134.163773"><ele>56.25</ele><time>2026-08-12T08:14:31Z</time></trkpt>
<trkpt lat="34.815338" lon="134.163789"><ele>56.1</ele><time>2026-08-12T08:14:32Z</time></trkpt>
<trkpt lat="34.815259" lon="134.163856"><ele>55.36</ele><time>2026-08-12T08:14:37Z</time></trkpt>
<trkpt lat="34.815243" lon="134.163876"><ele>55.3</ele><time>2026-08-12T08:14:38Z</time></trkpt>
<trkpt lat="34.815119" lon="134.163959"><ele>54.83</ele><time>2026-08-12T08:14:44Z</time></trkpt>
<trkpt lat="34.814978" lon="134.164068"><ele>54.79</ele><time>2026-08-12T08:14:51Z</time></trkpt>
<trkpt lat="34.814835" lon="134.164115"><ele>54.05</ele><time>2026-08-12T08:14:58Z</time></trkpt>
<trkpt lat="34.814801" lon="134.164112"><ele>53.82</ele><time>2026-08-12T08:15:00Z</time></trkpt>
<trkpt lat="34.814742" lon="134.16413"><ele>53.42</ele><time>2026-08-12T08:15:03Z</time></trkpt>
<trkpt lat="34.814665" lon="134.164218"><ele>53.48</ele><time>2026-08-12T08:15:08Z</time></trkpt>
<trkpt lat="34.814652" lon="134.164245"><ele>53.47</ele><time>2026-08-12T08:15:09Z</time></trkpt>
<trkpt lat="34.814641" lon="134.164261"><ele>53.05</ele><time>2026-08-12T08:15:10Z</time></trkpt>
<trkpt lat="34.814583" lon="134.164372"><ele>52.77</ele><time>2026-08-12T08:15:15Z</time></trkpt>
<trkpt lat="34.814567" lon="134.164396"><ele>52.38</ele><time>2026-08-12T08:15:16Z</time></trkpt>
<trkpt lat="34.814537" lon="134.164435"><ele>52.22</ele><time>2026-08-12T08:15:18Z</time></trkpt>
<trkpt lat="34.814522" lon="134.164456"><ele>52.19</ele><time>2026-08-12T08:15:19Z</time></trkpt>
<trkpt lat="34.814439" lon="134.164588"><ele>51.96</ele><time>2026-08-12T08:15:25Z</time></trkpt>
<trkpt lat="34.814407" lon="134.16462"><ele>51.55</ele><time>2026-08-12T08:15:27Z</time></trkpt>
<trkpt lat="34.814332" lon="134.164699"><ele>50.73</ele><time>2026-08-12T08:15:32Z</time></trkpt>
<trkpt lat="34.814294" lon="134.164722"><ele>50.14</ele><time>2026-08-12T08:15:34Z</time></trkpt>
<trkpt lat="34.814274" lon="134.164728"><ele>50.14</ele><time>2026-08-12T08:15:35Z</time></trkpt>
<trkpt lat="34.814126" lon="134.164772"><ele>49.22</ele><time>2026-08-12T08:15:41Z</time></trkpt>
<trkpt lat="34.814037" lon="134.164814"><ele>48.24</ele><time>2026-08-12T08:15:45Z</time></trkpt>
<trkpt lat="34.814015" lon="134.164826"><ele>48.19</ele><time>2026-08-12T08:15:46Z</time></trkpt>
<trkpt lat="34.813989" lon="134.164841"><ele>47.91</ele><time>2026-08-12T08:15:47Z</time></trkpt>
<trkpt lat="34.813875" lon="134.164894"><ele>46.92</ele><time>2026-08-12T08:15:52Z</time></trkpt>
<trkpt lat="34.813827" lon="134.164901"><ele>46.41</ele><time>2026-08-12T08:15:54Z</time></trkpt>
<trkpt lat="34.813702" lon="134.164948"><ele>45.95</ele><time>2026-08-12T08:16:00Z</time></trkpt>
<trkpt lat="34.813688" lon="134.16495"><ele>45.74</ele><time>2026-08-12T08:16:01Z</time></trkpt>
<trkpt lat="34.813652" lon="134.16496"><ele>45.27</ele><time>2026-08-12T08:16:04Z</time></trkpt>
<trkpt lat="34.813647" lon="134.16496"><ele>45.27</ele><time>2026-08-12T08:16:06Z</time></trkpt>
<trkpt lat="34.813649" lon="134.164961"><ele>45.27</ele><time>2026-08-12T08:16:10Z</time></trkpt>
<trkpt lat="34.813651" lon="134.164959"><ele>45.27</ele><time>2026-08-12T08:16:12Z</time></trkpt>
<trkpt lat="34.813651" lon="134.164963"><ele>45.27</ele><time>2026-08-12T08:16:15Z</time></trkpt>
<trkpt lat="34.81363" lon="134.164976"><ele>45.27</ele><time>2026-08-12T08:16:21Z</time></trkpt>
<trkpt lat="34.813625" lon="134.164974"><ele>45.28</ele><time>2026-08-12T08:16:24Z</time></trkpt>
<trkpt lat="34.813607" lon="134.164972"><ele>45.28</ele><time>2026-08-12T08:16:26Z</time></trkpt>
<trkpt lat="34.813592" lon="134.164972"><ele>45.28</ele><time>2026-08-12T08:16:27Z</time></trkpt>
<trkpt lat="34.813576" lon="134.164981"><ele>45.28</ele><time>2026-08-12T08:16:28Z</time></trkpt>
<trkpt lat="34.813539" lon="134.164991"><ele>45.02</ele><time>2026-08-12T08:16:30Z</time></trkpt>
<trkpt lat="34.813396" lon="134.165007"><ele>45.28</ele><time>2026-08-12T08:16:36Z</time></trkpt>
<trkpt lat="34.813342" lon="134.165024"><ele>45.27</ele><time>2026-08-12T08:16:38Z</time></trkpt>
<trkpt lat="34.813287" lon="134.165033"><ele>45.12</ele><time>2026-08-12T08:16:40Z</time></trkpt>
<trkpt lat="34.813177" lon="134.16505"><ele>45.28</ele><time>2026-08-12T08:16:45Z</time></trkpt>
<trkpt lat="34.813043" lon="134.165101"><ele>44.65</ele><time>2026-08-12T08:16:51Z</time></trkpt>
<trkpt lat="34.813022" lon="134.16511"><ele>44.25</ele><time>2026-08-12T08:16:52Z</time></trkpt>
<trkpt lat="34.812976" lon="134.165131"><ele>44.87</ele><time>2026-08-12T08:16:54Z</time></trkpt>
<trkpt lat="34.812912" lon="134.165161"><ele>43.54</ele><time>2026-08-12T08:16:57Z</time></trkpt>
<trkpt lat="34.812821" lon="134.165192"><ele>43.42</ele><time>2026-08-12T08:17:01Z</time></trkpt>
<trkpt lat="34.812756" lon="134.165206"><ele>42.14</ele><time>2026-08-12T08:17:04Z</time></trkpt>
<trkpt lat="34.812713" lon="134.165222"><ele>42.74</ele><time>2026-08-12T08:17:06Z</time></trkpt>
<trkpt lat="34.812666" lon="134.165239"><ele>41.52</ele><time>2026-08-12T08:17:08Z</time></trkpt>
<trkpt lat="34.812605" lon="134.165268"><ele>40.85</ele><time>2026-08-12T08:17:11Z</time></trkpt>
<trkpt lat="34.812524" lon="134.165309"><ele>39.95</ele><time>2026-08-12T08:17:15Z</time></trkpt>
<trkpt lat="34.812437" lon="134.165305"><ele>38.87</ele><time>2026-08-12T08:17:19Z</time></trkpt>
<trkpt lat="34.812429" lon="134.165303"><ele>38.63</ele><time>2026-08-12T08:17:23Z</time></trkpt>
<trkpt lat="34.812429" lon="134.165304"><ele>38.63</ele><time>2026-08-12T08:17:24Z</time></trkpt>
<trkpt lat="34.812429" lon="134.165308"><ele>38.63</ele><time>2026-08-12T08:17:28Z</time></trkpt>
<trkpt lat="34.812397" lon="134.165313"><ele>38.63</ele><time>2026-08-12T08:17:33Z</time></trkpt>
<trkpt lat="34.81239" lon="134.165297"><ele>38.3</ele><time>2026-08-12T08:17:38Z</time></trkpt>
<trkpt lat="34.81239" lon="134.165301"><ele>38.3</ele><time>2026-08-12T08:17:42Z</time></trkpt>
<trkpt lat="34.812363" lon="134.165308"><ele>38.3</ele><time>2026-08-12T08:17:44Z</time></trkpt>
<trkpt lat="34.812304" lon="134.16532"><ele>37.77</ele><time>2026-08-12T08:17:47Z</time></trkpt>
<trkpt lat="34.812243" lon="134.165336"><ele>37.17</ele><time>2026-08-12T08:17:50Z</time></trkpt>
<trkpt lat="34.81219" lon="134.165344"><ele>37.07</ele><time>2026-08-12T08:17:52Z</time></trkpt>
<trkpt lat="34.812116" lon="134.165354"><ele>37.01</ele><time>2026-08-12T08:17:55Z</time></trkpt>
<trkpt lat="34.812023" lon="134.165358"><ele>36.56</ele><time>2026-08-12T08:17:59Z</time></trkpt>
<trkpt lat="34.811943" lon="134.165357"><ele>36.28</ele><time>2026-08-12T08:18:03Z</time></trkpt>
<trkpt lat="34.811818" lon="134.165283"><ele>34.17</ele><time>2026-08-12T08:18:09Z</time></trkpt>
<trkpt lat="34.811792" lon="134.165124"><ele>34.48</ele><time>2026-08-12T08:18:15Z</time></trkpt>
<trkpt lat="34.811761" lon="134.164886"><ele>35.28</ele><time>2026-08-12T08:18:23Z</time></trkpt>
<trkpt lat="34.811752" lon="134.164837"><ele>35.0</ele><time>2026-08-12T08:18:25Z</time></trkpt>
<trkpt lat="34.8117" lon="134.164611"><ele>34.95</ele><time>2026-08-12T08:18:33Z</time></trkpt>
<trkpt lat="34.811693" lon="134.164554"><ele>35.12</ele><time>2026-08-12T08:18:35Z</time></trkpt>
<trkpt lat="34.811678" lon="134.16443"><ele>35.16</ele><time>2026-08-12T08:18:39Z</time></trkpt>
<trkpt lat="34.811672" lon="134.164395"><ele>35.17</ele><time>2026-08-12T08:18:40Z</time></trkpt>
<trkpt lat="34.811647" lon="134.164315"><ele>34.71</ele><time>2026-08-12T08:18:43Z</time></trkpt>
<trkpt lat="34.811533" lon="134.164204"><ele>34.46</ele><time>2026-08-12T08:18:49Z</time></trkpt>
<trkpt lat="34.811445" lon="134.164161"><ele>34.34</ele><time>2026-08-12T08:18:53Z</time></trkpt>
<trkpt lat="34.811368" lon="134.164156"><ele>33.84</ele><time>2026-08-12T08:18:56Z</time></trkpt>
<trkpt lat="34.811342" lon="134.164161"><ele>33.84</ele><time>2026-08-12T08:18:57Z</time></trkpt>
<trkpt lat="34.811297" lon="134.164175"><ele>33.79</ele><time>2026-08-12T08:18:59Z</time></trkpt>
<trkpt lat="34.811273" lon="134.164181"><ele>34.06</ele><time>2026-08-12T08:19:00Z</time></trkpt>
<trkpt lat="34.811106" lon="134.164237"><ele>33.67</ele><time>2026-08-12T08:19:07Z</time></trkpt>
<trkpt lat="34.810916" lon="134.164254"><ele>32.78</ele><time>2026-08-12T08:19:15Z</time></trkpt>
<trkpt lat="34.810898" lon="134.164243"><ele>32.43</ele><time>2026-08-12T08:19:16Z</time></trkpt>
<trkpt lat="34.810865" lon="134.164202"><ele>31.97</ele><time>2026-08-12T08:19:20Z</time></trkpt>
<trkpt lat="34.810859" lon="134.164193"><ele>31.97</ele><time>2026-08-12T08:19:21Z</time></trkpt>
<trkpt lat="34.810783" lon="134.164122"><ele>31.14</ele><time>2026-08-12T08:19:26Z</time></trkpt>
<trkpt lat="34.810765" lon="134.164115"><ele>31.09</ele><time>2026-08-12T08:19:27Z</time></trkpt>
<trkpt lat="34.81068" lon="134.16411"><ele>30.7</ele><time>2026-08-12T08:19:31Z</time></trkpt>
<trkpt lat="34.810585" lon="134.164097"><ele>30.45</ele><time>2026-08-12T08:19:35Z</time></trkpt>
<trkpt lat="34.810423" lon="134.164014"><ele>30.43</ele><time>2026-08-12T08:19:42Z</time></trkpt>
<trkpt lat="34.810329" lon="134.163957"><ele>30.14</ele><time>2026-08-12T08:19:46Z</time></trkpt>
<trkpt lat="34.810284" lon="134.163937"><ele>30.11</ele><time>2026-08-12T08:19:48Z</time></trkpt>
<trkpt lat="34.810232" lon="134.16391"><ele>30.31</ele><time>2026-08-12T08:19:50Z</time></trkpt>
<trkpt lat="34.810046" lon="134.163851"><ele>29.93</ele><time>2026-08-12T08:19:58Z</time></trkpt>
<trkpt lat="34.810022" lon="134.163853"><ele>29.83</ele><time>2026-08-12T08:19:59Z</time></trkpt>
<trkpt lat="34.809979" lon="134.163853"><ele>29.67</ele><time>2026-08-12T08:20:01Z</time></trkpt>
<trkpt lat="34.80996" lon="134.163849"><ele>29.44</ele><time>2026-08-12T08:20:02Z</time></trkpt>
<trkpt lat="34.80993" lon="134.163793"><ele>29.4</ele><time>2026-08-12T08:20:05Z</time></trkpt>
<trkpt lat="34.809937" lon="134.163711"><ele>29.38</ele><time>2026-08-12T08:20:08Z</time></trkpt>
<trkpt lat="34.809951" lon="134.163633"><ele>29.22</ele><time>2026-08-12T08:20:11Z</time></trkpt>
<trkpt lat="34.809992" lon="134.163449"><ele>28.81</ele><time>2026-08-12T08:20:17Z</time></trkpt>
<trkpt lat="34.810008" lon="134.163389"><ele>28.93</ele><time>2026-08-12T08:20:19Z</time></trkpt>
<trkpt lat="34.810015" lon="134.163361"><ele>28.7</ele><time>2026-08-12T08:20:20Z</time></trkpt>
<trkpt lat="34.809989" lon="134.163229"><ele>28.6</ele><time>2026-08-12T08:20:25Z</time></trkpt>
<trkpt lat="34.80991" lon="134.163155"><ele>28.58</ele><time>2026-08-12T08:20:29Z</time></trkpt>
<trkpt lat="34.809871" lon="134.163109"><ele>28.63</ele><time>2026-08-12T08:20:31Z</time></trkpt>
<trkpt lat="34.80987" lon="134.162979"><ele>28.65</ele><time>2026-08-12T08:20:36Z</time></trkpt>
<trkpt lat="34.80988" lon="134.162736"><ele>29.37</ele><time>2026-08-12T08:20:44Z</time></trkpt>
<trkpt lat="34.809879" lon="134.162681"><ele>29.39</ele><time>2026-08-12T08:20:46Z</time></trkpt>
<trkpt lat="34.809872" lon="134.162653"><ele>29.5</ele><time>2026-08-12T08:20:47Z</time></trkpt>
<trkpt lat="34.809858" lon="134.162541"><ele>29.61</ele><time>2026-08-12T08:20:51Z</time></trkpt>
<trkpt lat="34.809868" lon="134.162317"><ele>29.87</ele><time>2026-08-12T08:20:58Z</time></trkpt>
<trkpt lat="34.809874" lon="134.162288"><ele>29.96</ele><time>2026-08-12T08:20:59Z</time></trkpt>
<trkpt lat="34.809886" lon="134.16221"><ele>29.9</ele><time>2026-08-12T08:21:02Z</time></trkpt>
<trkpt lat="34.809914" lon="134.162085"><ele>29.77</ele><time>2026-08-12T08:21:06Z</time></trkpt>
<trkpt lat="34.809942" lon="134.161983"><ele>30.18</ele><time>2026-08-12T08:21:10Z</time></trkpt>
<trkpt lat="34.809986" lon="134.16187"><ele>30.41</ele><time>2026-08-12T08:21:14Z</time></trkpt>
<trkpt lat="34.810002" lon="134.16174"><ele>30.36</ele><time>2026-08-12T08:22:06Z</time></trkpt>
<trkpt lat="34.80998" lon="134.161759"><ele>30.02</ele><time>2026-08-12T08:22:07Z</time></trkpt>
<trkpt lat="34.809855" lon="134.161765"><ele>29.68</ele><time>2026-08-12T08:22:12Z</time></trkpt>
<trkpt lat="34.809691" lon="134.161788"><ele>29.14</ele><time>2026-08-12T08:22:18Z</time></trkpt>
<trkpt lat="34.809671" lon="134.161793"><ele>29.15</ele><time>2026-08-12T08:22:19Z</time></trkpt>
<trkpt lat="34.809648" lon="134.161778"><ele>29.15</ele><time>2026-08-12T08:22:21Z</time></trkpt>
<trkpt lat="34.809644" lon="134.161757"><ele>29.05</ele><time>2026-08-12T08:22:22Z</time></trkpt>
<trkpt lat="34.809629" lon="134.161665"><ele>29.61</ele><time>2026-08-12T08:22:26Z</time></trkpt>
<trkpt lat="34.809617" lon="134.161615"><ele>29.74</ele><time>2026-08-12T08:22:28Z</time></trkpt>
<trkpt lat="34.80961" lon="134.161596"><ele>29.83</ele><time>2026-08-12T08:22:29Z</time></trkpt>
<trkpt lat="34.809554" lon="134.161418"><ele>29.98</ele><time>2026-08-12T08:22:36Z</time></trkpt>
<trkpt lat="34.809492" lon="134.161207"><ele>30.13</ele><time>2026-08-12T08:22:44Z</time></trkpt>
<trkpt lat="34.809471" lon="134.161125"><ele>30.38</ele><time>2026-08-12T08:22:47Z</time></trkpt>
<trkpt lat="34.809464" lon="134.161096"><ele>30.19</ele><time>2026-08-12T08:22:48Z</time></trkpt>
<trkpt lat="34.809451" lon="134.161034"><ele>30.49</ele><time>2026-08-12T08:22:50Z</time></trkpt>
<trkpt lat="34.809435" lon="134.16083"><ele>30.93</ele><time>2026-08-12T08:22:57Z</time></trkpt>
<trkpt lat="34.809408" lon="134.160658"><ele>31.5</ele><time>2026-08-12T08:23:03Z</time></trkpt>
<trkpt lat="34.809382" lon="134.160598"><ele>31.54</ele><time>2026-08-12T08:23:05Z</time></trkpt>
<trkpt lat="34.809297" lon="134.160396"><ele>32.85</ele><time>2026-08-12T08:23:13Z</time></trkpt>
<trkpt lat="34.809283" lon="134.160382"><ele>33.12</ele><time>2026-08-12T08:23:14Z</time></trkpt>
<trkpt lat="34.809261" lon="134.160378"><ele>33.12</ele><time>2026-08-12T08:23:16Z</time></trkpt>
<trkpt lat="34.809216" lon="134.160387"><ele>33.71</ele><time>2026-08-12T08:23:19Z</time></trkpt>
<trkpt lat="34.809174" lon="134.160392"><ele>33.86</ele><time>2026-08-12T08:23:22Z</time></trkpt>
<trkpt lat="34.809101" lon="134.160372"><ele>33.54</ele><time>2026-08-12T08:23:27Z</time></trkpt>
<trkpt lat="34.809087" lon="134.160364"><ele>33.54</ele><time>2026-08-12T08:23:28Z</time></trkpt>
<trkpt lat="34.808995" lon="134.160319"><ele>33.8</ele><time>2026-08-12T08:23:35Z</time></trkpt>
<trkpt lat="34.808987" lon="134.160314"><ele>35.23</ele><time>2026-08-12T08:23:36Z</time></trkpt>
<trkpt lat="34.808955" lon="134.160283"><ele>34.62</ele><time>2026-08-12T08:23:39Z</time></trkpt>
<trkpt lat="34.808917" lon="134.160251"><ele>35.44</ele><time>2026-08-12T08:23:43Z</time></trkpt>
<trkpt lat="34.808901" lon="134.160233"><ele>35.02</ele><time>2026-08-12T08:23:45Z</time></trkpt>
<trkpt lat="34.80889" lon="134.160217"><ele>36.1</ele><time>2026-08-12T08:23:46Z</time></trkpt>
<trkpt lat="34.808881" lon="134.160203"><ele>36.1</ele><time>2026-08-12T08:23:47Z</time></trkpt>
<trkpt lat="34.808836" lon="134.160162"><ele>36.76</ele><time>2026-08-12T08:23:51Z</time></trkpt>
<trkpt lat="34.808777" lon="134.160149"><ele>37.17</ele><time>2026-08-12T08:23:55Z</time></trkpt>
<trkpt lat="34.808739" lon="134.160161"><ele>37.58</ele><time>2026-08-12T08:23:58Z</time></trkpt>
<trkpt lat="34.808699" lon="134.160157"><ele>38.09</ele><time>2026-08-12T08:24:01Z</time></trkpt>
<trkpt lat="34.808684" lon="134.160155"><ele>38.61</ele><time>2026-08-12T08:24:03Z</time></trkpt>
<trkpt lat="34.808667" lon="134.160152"><ele>38.61</ele><time>2026-08-12T08:24:05Z</time></trkpt>
<trkpt lat="34.808645" lon="134.160153"><ele>39.14</ele><time>2026-08-12T08:24:07Z</time></trkpt>
<trkpt lat="34.808634" lon="134.160152"><ele>39.14</ele><time>2026-08-12T08:24:08Z</time></trkpt>
<trkpt lat="34.80861" lon="134.160147"><ele>39.61</ele><time>2026-08-12T08:24:10Z</time></trkpt>
<trkpt lat="34.808592" lon="134.160142"><ele>40.76</ele><time>2026-08-12T08:24:11Z</time></trkpt>
<trkpt lat="34.808553" lon="134.160131"><ele>41.53</ele><time>2026-08-12T08:24:14Z</time></trkpt>
<trkpt lat="34.808542" lon="134.160125"><ele>41.53</ele><time>2026-08-12T08:24:15Z</time></trkpt>
<trkpt lat="34.808521" lon="134.16011"><ele>41.53</ele><time>2026-08-12T08:24:17Z</time></trkpt>
<trkpt lat="34.808507" lon="134.160095"><ele>43.01</ele><time>2026-08-12T08:24:19Z</time></trkpt>
<trkpt lat="34.808491" lon="134.160076"><ele>43.01</ele><time>2026-08-12T08:24:21Z</time></trkpt>
<trkpt lat="34.808466" lon="134.160038"><ele>43.91</ele><time>2026-08-12T08:24:24Z</time></trkpt>
<trkpt lat="34.808441" lon="134.159996"><ele>44.77</ele><time>2026-08-12T08:24:29Z</time></trkpt>
<trkpt lat="34.808441" lon="134.159995"><ele>44.77</ele><time>2026-08-12T08:24:31Z</time></trkpt>
<trkpt lat="34.808435" lon="134.159996"><ele>44.77</ele><time>2026-08-12T08:24:44Z</time></trkpt>
<trkpt lat="34.808426" lon="134.159987"><ele>44.77</ele><time>2026-08-12T08:24:45Z</time></trkpt>
<trkpt lat="34.808391" lon="134.159944"><ele>45.51</ele><time>2026-08-12T08:24:48Z</time></trkpt>
<trkpt lat="34.808317" lon="134.159899"><ele>46.16</ele><time>2026-08-12T08:37:51Z</time></trkpt>
<trkpt lat="34.808326" lon="134.1599"><ele>46.16</ele><time>2026-08-12T08:37:52Z</time></trkpt>
<trkpt lat="34.808338" lon="134.1599"><ele>46.16</ele><time>2026-08-12T08:37:53Z</time></trkpt>
<trkpt lat="34.808347" lon="134.159887"><ele>46.3</ele><time>2026-08-12T08:37:56Z</time></trkpt>
<trkpt lat="34.808356" lon="134.159841"><ele>46.99</ele><time>2026-08-12T08:38:04Z</time></trkpt>
<trkpt lat="34.808361" lon="134.159844"><ele>46.99</ele><time>2026-08-12T08:38:06Z</time></trkpt>
<trkpt lat="34.808364" lon="134.159848"><ele>46.3</ele><time>2026-08-12T08:38:08Z</time></trkpt>
<trkpt lat="34.80838" lon="134.159837"><ele>47.44</ele><time>2026-08-12T08:38:10Z</time></trkpt>
<trkpt lat="34.808408" lon="134.159805"><ele>47.44</ele><time>2026-08-12T08:38:14Z</time></trkpt>
<trkpt lat="34.808421" lon="134.159785"><ele>48.17</ele><time>2026-08-12T08:38:16Z</time></trkpt>
<trkpt lat="34.808426" lon="134.159777"><ele>48.17</ele><time>2026-08-12T08:38:17Z</time></trkpt>
<trkpt lat="34.808448" lon="134.159745"><ele>48.73</ele><time>2026-08-12T08:38:21Z</time></trkpt>
<trkpt lat="34.808494" lon="134.15971"><ele>49.85</ele><time>2026-08-12T08:38:25Z</time></trkpt>
<trkpt lat="34.808505" lon="134.159695"><ele>49.85</ele><time>2026-08-12T08:38:27Z</time></trkpt>
<trkpt lat="34.808534" lon="134.159671"><ele>50.84</ele><time>2026-08-12T08:38:31Z</time></trkpt>
<trkpt lat="34.808546" lon="134.159661"><ele>50.84</ele><time>2026-08-12T08:38:33Z</time></trkpt>
<trkpt lat="34.808567" lon="134.159632"><ele>51.27</ele><time>2026-08-12T08:38:36Z</time></trkpt>
<trkpt lat="34.80858" lon="134.159615"><ele>51.68</ele><time>2026-08-12T08:38:38Z</time></trkpt>
<trkpt lat="34.808585" lon="134.159606"><ele>51.68</ele><time>2026-08-12T08:38:39Z</time></trkpt>
<trkpt lat="34.808606" lon="134.159586"><ele>52.96</ele><time>2026-08-12T08:38:42Z</time></trkpt>
<trkpt lat="34.808612" lon="134.159585"><ele>52.96</ele><time>2026-08-12T08:38:43Z</time></trkpt>
<trkpt lat="34.808631" lon="134.159577"><ele>53.89</ele><time>2026-08-12T08:38:45Z</time></trkpt>
<trkpt lat="34.808647" lon="134.159568"><ele>53.89</ele><time>2026-08-12T08:38:47Z</time></trkpt>
<trkpt lat="34.808652" lon="134.159561"><ele>53.89</ele><time>2026-08-12T08:38:48Z</time></trkpt>
<trkpt lat="34.808674" lon="134.159532"><ele>55.79</ele><time>2026-08-12T08:38:53Z</time></trkpt>
<trkpt lat="34.808682" lon="134.159527"><ele>55.79</ele><time>2026-08-12T08:38:54Z</time></trkpt>
<trkpt lat="34.808695" lon="134.159524"><ele>56.63</ele><time>2026-08-12T08:38:57Z</time></trkpt>
<trkpt lat="34.808698" lon="134.159516"><ele>56.63</ele><time>2026-08-12T08:38:59Z</time></trkpt>
<trkpt lat="34.808713" lon="134.159504"><ele>56.63</ele><time>2026-08-12T08:39:01Z</time></trkpt>
<trkpt lat="34.808734" lon="134.159488"><ele>58.11</ele><time>2026-08-12T08:39:05Z</time></trkpt>
<trkpt lat="34.808752" lon="134.159468"><ele>58.11</ele><time>2026-08-12T08:39:09Z</time></trkpt>
<trkpt lat="34.808775" lon="134.159425"><ele>59.72</ele><time>2026-08-12T08:39:14Z</time></trkpt>
<trkpt lat="34.808802" lon="134.159391"><ele>61.47</ele><time>2026-08-12T08:39:19Z</time></trkpt>
<trkpt lat="34.808816" lon="134.159365"><ele>62.17</ele><time>2026-08-12T08:39:23Z</time></trkpt>
<trkpt lat="34.808835" lon="134.159338"><ele>62.17</ele><time>2026-08-12T08:39:27Z</time></trkpt>
<trkpt lat="34.808838" lon="134.159336"><ele>63.69</ele><time>2026-08-12T08:39:28Z</time></trkpt>
<trkpt lat="34.808864" lon="134.15932"><ele>64.45</ele><time>2026-08-12T08:39:32Z</time></trkpt>
<trkpt lat="34.808878" lon="134.159304"><ele>66.02</ele><time>2026-08-12T08:39:35Z</time></trkpt>
<trkpt lat="34.808887" lon="134.159299"><ele>66.02</ele><time>2026-08-12T08:39:37Z</time></trkpt>
<trkpt lat="34.808896" lon="134.159283"><ele>66.59</ele><time>2026-08-12T08:39:39Z</time></trkpt>
<trkpt lat="34.808916" lon="134.15927"><ele>68.13</ele><time>2026-08-12T08:39:43Z</time></trkpt>
<trkpt lat="34.808919" lon="134.159267"><ele>68.13</ele><time>2026-08-12T08:39:44Z</time></trkpt>
<trkpt lat="34.808939" lon="134.15926"><ele>68.13</ele><time>2026-08-12T08:39:47Z</time></trkpt>
<trkpt lat="34.808956" lon="134.159243"><ele>70.36</ele><time>2026-08-12T08:39:51Z</time></trkpt>
<trkpt lat="34.80897" lon="134.159238"><ele>70.36</ele><time>2026-08-12T08:39:54Z</time></trkpt>
<trkpt lat="34.808975" lon="134.159238"><ele>70.36</ele><time>2026-08-12T08:39:55Z</time></trkpt>
<trkpt lat="34.808989" lon="134.159226"><ele>71.99</ele><time>2026-08-12T08:39:59Z</time></trkpt>
<trkpt lat="34.808992" lon="134.159225"><ele>71.99</ele><time>2026-08-12T08:40:00Z</time></trkpt>
<trkpt lat="34.809001" lon="134.159219"><ele>71.99</ele><time>2026-08-12T08:40:03Z</time></trkpt>
<trkpt lat="34.80902" lon="134.159217"><ele>73.62</ele><time>2026-08-12T08:40:06Z</time></trkpt>
<trkpt lat="34.809027" lon="134.159217"><ele>73.62</ele><time>2026-08-12T08:40:08Z</time></trkpt>
<trkpt lat="34.809046" lon="134.159218"><ele>73.62</ele><time>2026-08-12T08:40:13Z</time></trkpt>
<trkpt lat="34.809055" lon="134.159219"><ele>75.09</ele><time>2026-08-12T08:40:15Z</time></trkpt>
<trkpt lat="34.809069" lon="134.159216"><ele>75.09</ele><time>2026-08-12T08:40:18Z</time></trkpt>
<trkpt lat="34.809096" lon="134.159201"><ele>77.29</ele><time>2026-08-12T08:40:23Z</time></trkpt>
<trkpt lat="34.8091" lon="134.159195"><ele>77.29</ele><time>2026-08-12T08:40:26Z</time></trkpt>
<trkpt lat="34.809119" lon="134.159185"><ele>78.86</ele><time>2026-08-12T08:40:29Z</time></trkpt>
<trkpt lat="34.809139" lon="134.159184"><ele>78.86</ele><time>2026-08-12T08:40:32Z</time></trkpt>
<trkpt lat="34.809157" lon="134.15918"><ele>80.63</ele><time>2026-08-12T08:40:35Z</time></trkpt>
<trkpt lat="34.809171" lon="134.159172"><ele>80.63</ele><time>2026-08-12T08:40:39Z</time></trkpt>
<trkpt lat="34.809176" lon="134.15916"><ele>80.63</ele><time>2026-08-12T08:40:43Z</time></trkpt>
<trkpt lat="34.809193" lon="134.159135"><ele>83.32</ele><time>2026-08-12T08:40:48Z</time></trkpt>
<trkpt lat="34.809219" lon="134.15914"><ele>83.32</ele><time>2026-08-12T08:40:52Z</time></trkpt>
<trkpt lat="34.809238" lon="134.15914"><ele>84.95</ele><time>2026-08-12T08:40:56Z</time></trkpt>
<trkpt lat="34.809244" lon="134.159138"><ele>84.95</ele><time>2026-08-12T08:40:57Z</time></trkpt>
<trkpt lat="34.809261" lon="134.159137"><ele>86.18</ele><time>2026-08-12T08:41:01Z</time></trkpt>
<trkpt lat="34.809281" lon="134.159124"><ele>86.18</ele><time>2026-08-12T08:41:05Z</time></trkpt>
<trkpt lat="34.809294" lon="134.159116"><ele>88.88</ele><time>2026-08-12T08:41:07Z</time></trkpt>
<trkpt lat="34.809319" lon="134.159099"><ele>88.88</ele><time>2026-08-12T08:41:11Z</time></trkpt>
<trkpt lat="34.809331" lon="134.159084"><ele>90.1</ele><time>2026-08-12T08:41:15Z</time></trkpt>
<trkpt lat="34.809334" lon="134.159079"><ele>90.1</ele><time>2026-08-12T08:41:16Z</time></trkpt>
<trkpt lat="34.809342" lon="134.159071"><ele>91.24</ele><time>2026-08-12T08:41:20Z</time></trkpt>
<trkpt lat="34.809345" lon="134.159068"><ele>91.24</ele><time>2026-08-12T08:41:21Z</time></trkpt>
<trkpt lat="34.809372" lon="134.159042"><ele>92.31</ele><time>2026-08-12T08:41:25Z</time></trkpt>
<trkpt lat="34.809391" lon="134.159028"><ele>93.34</ele><time>2026-08-12T08:41:29Z</time></trkpt>
<trkpt lat="34.809397" lon="134.159024"><ele>93.34</ele><time>2026-08-12T08:41:30Z</time></trkpt>
<trkpt lat="34.809433" lon="134.159004"><ele>94.36</ele><time>2026-08-12T08:41:34Z</time></trkpt>
<trkpt lat="34.809462" lon="134.158983"><ele>95.9</ele><time>2026-08-12T08:41:39Z</time></trkpt>
<trkpt lat="34.809491" lon="134.158932"><ele>97.19</ele><time>2026-08-12T08:41:45Z</time></trkpt>
<trkpt lat="34.809503" lon="134.158901"><ele>97.96</ele><time>2026-08-12T08:41:50Z</time></trkpt>
<trkpt lat="34.809527" lon="134.158868"><ele>98.61</ele><time>2026-08-12T08:41:54Z</time></trkpt>
<trkpt lat="34.809547" lon="134.158836"><ele>99.77</ele><time>2026-08-12T08:41:59Z</time></trkpt>
<trkpt lat="34.809568" lon="134.158794"><ele>100.62</ele><time>2026-08-12T08:42:05Z</time></trkpt>
<trkpt lat="34.809593" lon="134.158773"><ele>101.58</ele><time>2026-08-12T08:42:08Z</time></trkpt>
<trkpt lat="34.809607" lon="134.158751"><ele>101.58</ele><time>2026-08-12T08:42:12Z</time></trkpt>
<trkpt lat="34.809623" lon="134.158721"><ele>102.64</ele><time>2026-08-12T08:42:16Z</time></trkpt>
<trkpt lat="34.809647" lon="134.158697"><ele>102.43</ele><time>2026-08-12T08:42:19Z</time></trkpt>
<trkpt lat="34.809674" lon="134.158674"><ele>103.62</ele><time>2026-08-12T08:42:23Z</time></trkpt>
<trkpt lat="34.809683" lon="134.158662"><ele>103.59</ele><time>2026-08-12T08:42:25Z</time></trkpt>
<trkpt lat="34.809718" lon="134.158642"><ele>104.49</ele><time>2026-08-12T08:42:30Z</time></trkpt>
<trkpt lat="34.809721" lon="134.158634"><ele>104.49</ele><time>2026-08-12T08:42:31Z</time></trkpt>
<trkpt lat="34.809747" lon="134.15858"><ele>105.6</ele><time>2026-08-12T08:42:37Z</time></trkpt>
<trkpt lat="34.809756" lon="134.158558"><ele>106.24</ele><time>2026-08-12T08:42:40Z</time></trkpt>
<trkpt lat="34.809766" lon="134.158529"><ele>106.24</ele><time>2026-08-12T08:42:44Z</time></trkpt>
<trkpt lat="34.809779" lon="134.158504"><ele>107.05</ele><time>2026-08-12T08:42:48Z</time></trkpt>
<trkpt lat="34.809783" lon="134.158491"><ele>107.05</ele><time>2026-08-12T08:42:50Z</time></trkpt>
<trkpt lat="34.809809" lon="134.158458"><ele>108.75</ele><time>2026-08-12T08:42:55Z</time></trkpt>
<trkpt lat="34.809812" lon="134.158455"><ele>108.75</ele><time>2026-08-12T08:42:56Z</time></trkpt>
<trkpt lat="34.809823" lon="134.158423"><ele>110.06</ele><time>2026-08-12T08:43:01Z</time></trkpt>
<trkpt lat="34.809828" lon="134.158415"><ele>110.06</ele><time>2026-08-12T08:43:02Z</time></trkpt>
<trkpt lat="34.809842" lon="134.158383"><ele>111.29</ele><time>2026-08-12T08:43:06Z</time></trkpt>
<trkpt lat="34.809866" lon="134.15837"><ele>112.09</ele><time>2026-08-12T08:43:09Z</time></trkpt>
<trkpt lat="34.809872" lon="134.158356"><ele>112.09</ele><time>2026-08-12T08:43:11Z</time></trkpt>
<trkpt lat="34.809873" lon="134.158349"><ele>112.09</ele><time>2026-08-12T08:43:12Z</time></trkpt>
<trkpt lat="34.809898" lon="134.158317"><ele>113.76</ele><time>2026-08-12T08:43:16Z</time></trkpt>
<trkpt lat="34.809922" lon="134.158307"><ele>113.76</ele><time>2026-08-12T08:43:20Z</time></trkpt>
<trkpt lat="34.809952" lon="134.15828"><ele>115.45</ele><time>2026-08-12T08:43:25Z</time></trkpt>
<trkpt lat="34.809964" lon="134.158269"><ele>116.19</ele><time>2026-08-12T08:43:27Z</time></trkpt>
<trkpt lat="34.80997" lon="134.158258"><ele>117.3</ele><time>2026-08-12T08:43:28Z</time></trkpt>
<trkpt lat="34.809989" lon="134.158232"><ele>117.3</ele><time>2026-08-12T08:43:33Z</time></trkpt>
<trkpt lat="34.809998" lon="134.158225"><ele>118.13</ele><time>2026-08-12T08:43:34Z</time></trkpt>
<trkpt lat="34.810013" lon="134.158197"><ele>119.39</ele><time>2026-08-12T08:43:38Z</time></trkpt>
<trkpt lat="34.81004" lon="134.15818"><ele>120.32</ele><time>2026-08-12T08:43:41Z</time></trkpt>
<trkpt lat="34.810046" lon="134.158178"><ele>120.32</ele><time>2026-08-12T08:43:42Z</time></trkpt>
<trkpt lat="34.810066" lon="134.15816"><ele>121.3</ele><time>2026-08-12T08:43:47Z</time></trkpt>
<trkpt lat="34.810071" lon="134.158149"><ele>122.57</ele><time>2026-08-12T08:43:49Z</time></trkpt>
<trkpt lat="34.810079" lon="134.158132"><ele>122.57</ele><time>2026-08-12T08:43:51Z</time></trkpt>
<trkpt lat="34.810092" lon="134.158093"><ele>123.54</ele><time>2026-08-12T08:43:56Z</time></trkpt>
<trkpt lat="34.8101" lon="134.15809"><ele>123.54</ele><time>2026-08-12T08:43:58Z</time></trkpt>
<trkpt lat="34.810104" lon="134.158086"><ele>125.68</ele><time>2026-08-12T08:43:59Z</time></trkpt>
<trkpt lat="34.810117" lon="134.158063"><ele>125.68</ele><time>2026-08-12T08:44:03Z</time></trkpt>
<trkpt lat="34.810128" lon="134.158038"><ele>126.22</ele><time>2026-08-12T08:44:06Z</time></trkpt>
<trkpt lat="34.810132" lon="134.158033"><ele>126.22</ele><time>2026-08-12T08:44:07Z</time></trkpt>
<trkpt lat="34.810142" lon="134.158017"><ele>128.04</ele><time>2026-08-12T08:44:11Z</time></trkpt>
<trkpt lat="34.810162" lon="134.158013"><ele>128.04</ele><time>2026-08-12T08:44:13Z</time></trkpt>
<trkpt lat="34.810177" lon="134.158012"><ele>129.52</ele><time>2026-08-12T08:44:16Z</time></trkpt>
<trkpt lat="34.810192" lon="134.157995"><ele>130.55</ele><time>2026-08-12T08:44:20Z</time></trkpt>
<trkpt lat="34.810194" lon="134.157992"><ele>130.55</ele><time>2026-08-12T08:44:21Z</time></trkpt>
<trkpt lat="34.810215" lon="134.157976"><ele>131.8</ele><time>2026-08-12T08:44:25Z</time></trkpt>
<trkpt lat="34.810241" lon="134.15796"><ele>131.8</ele><time>2026-08-12T08:44:29Z</time></trkpt>
<trkpt lat="34.810247" lon="134.157957"><ele>134.06</ele><time>2026-08-12T08:44:30Z</time></trkpt>
<trkpt lat="34.810258" lon="134.157946"><ele>134.06</ele><time>2026-08-12T08:44:34Z</time></trkpt>
<trkpt lat="34.810265" lon="134.15794"><ele>134.06</ele><time>2026-08-12T08:44:36Z</time></trkpt>
<trkpt lat="34.810277" lon="134.157924"><ele>134.06</ele><time>2026-08-12T08:44:39Z</time></trkpt>
<trkpt lat="34.810285" lon="134.157907"><ele>136.23</ele><time>2026-08-12T08:44:42Z</time></trkpt>
<trkpt lat="34.810297" lon="134.15788"><ele>136.23</ele><time>2026-08-12T08:44:45Z</time></trkpt>
<trkpt lat="34.810311" lon="134.157874"><ele>136.23</ele><time>2026-08-12T08:44:49Z</time></trkpt>
<trkpt lat="34.810327" lon="134.157853"><ele>138.37</ele><time>2026-08-12T08:44:53Z</time></trkpt>
<trkpt lat="34.810343" lon="134.157845"><ele>138.37</ele><time>2026-08-12T08:44:56Z</time></trkpt>
<trkpt lat="34.810346" lon="134.157843"><ele>138.37</ele><time>2026-08-12T08:44:57Z</time></trkpt>
<trkpt lat="34.810363" lon="134.157817"><ele>140.56</ele><time>2026-08-12T08:45:01Z</time></trkpt>
<trkpt lat="34.81038" lon="134.157807"><ele>140.56</ele><time>2026-08-12T08:45:05Z</time></trkpt>
<trkpt lat="34.810388" lon="134.157801"><ele>141.18</ele><time>2026-08-12T08:45:06Z</time></trkpt>
<trkpt lat="34.810407" lon="134.157781"><ele>142.23</ele><time>2026-08-12T08:45:10Z</time></trkpt>
<trkpt lat="34.810404" lon="134.157765"><ele>142.23</ele><time>2026-08-12T08:45:13Z</time></trkpt>
<trkpt lat="34.81041" lon="134.157752"><ele>142.23</ele><time>2026-08-12T08:45:16Z</time></trkpt>
<trkpt lat="34.81042" lon="134.157724"><ele>142.81</ele><time>2026-08-12T08:45:20Z</time></trkpt>
<trkpt lat="34.810444" lon="134.157689"><ele>144.74</ele><time>2026-08-12T08:45:26Z</time></trkpt>
<trkpt lat="34.810449" lon="134.157681"><ele>144.74</ele><time>2026-08-12T08:45:27Z</time></trkpt>
<trkpt lat="34.810467" lon="134.157659"><ele>146.26</ele><time>2026-08-12T08:45:31Z</time></trkpt>
<trkpt lat="34.810491" lon="134.157637"><ele>146.88</ele><time>2026-08-12T08:45:35Z</time></trkpt>
<trkpt lat="34.810506" lon="134.157627"><ele>147.6</ele><time>2026-08-12T08:45:37Z</time></trkpt>
<trkpt lat="34.810535" lon="134.157583"><ele>148.67</ele><time>2026-08-12T08:45:44Z</time></trkpt>
<trkpt lat="34.810545" lon="134.157565"><ele>148.82</ele><time>2026-08-12T08:45:46Z</time></trkpt>
<trkpt lat="34.81058" lon="134.157541"><ele>149.8</ele><time>2026-08-12T08:45:50Z</time></trkpt>
<trkpt lat="34.810588" lon="134.157534"><ele>149.8</ele><time>2026-08-12T08:45:51Z</time></trkpt>
<trkpt lat="34.810638" lon="134.157489"><ele>151.07</ele><time>2026-08-12T08:45:58Z</time></trkpt>
<trkpt lat="34.810645" lon="134.157482"><ele>151.7</ele><time>2026-08-12T08:45:59Z</time></trkpt>
<trkpt lat="34.810659" lon="134.157461"><ele>151.7</ele><time>2026-08-12T08:46:03Z</time></trkpt>
<trkpt lat="34.810672" lon="134.157437"><ele>152.92</ele><time>2026-08-12T08:46:05Z</time></trkpt>
<trkpt lat="34.810704" lon="134.157435"><ele>153.88</ele><time>2026-08-12T08:46:10Z</time></trkpt>
<trkpt lat="34.810714" lon="134.157425"><ele>153.88</ele><time>2026-08-12T08:46:12Z</time></trkpt>
<trkpt lat="34.810722" lon="134.157403"><ele>153.88</ele><time>2026-08-12T08:46:16Z</time></trkpt>
<trkpt lat="34.810735" lon="134.157398"><ele>154.27</ele><time>2026-08-12T08:46:18Z</time></trkpt>
<trkpt lat="34.810745" lon="134.157391"><ele>155.52</ele><time>2026-08-12T08:46:21Z</time></trkpt>
<trkpt lat="34.810768" lon="134.157377"><ele>155.52</ele><time>2026-08-12T08:46:26Z</time></trkpt>
<trkpt lat="34.810786" lon="134.157368"><ele>156.48</ele><time>2026-08-12T08:46:29Z</time></trkpt>
<trkpt lat="34.810795" lon="134.157357"><ele>157.19</ele><time>2026-08-12T08:46:32Z</time></trkpt>
<trkpt lat="34.810824" lon="134.157341"><ele>158.09</ele><time>2026-08-12T08:46:37Z</time></trkpt>
<trkpt lat="34.810829" lon="134.15734"><ele>158.09</ele><time>2026-08-12T08:46:38Z</time></trkpt>
<trkpt lat="34.810876" lon="134.157324"><ele>158.61</ele><time>2026-08-12T08:46:44Z</time></trkpt>
<trkpt lat="34.810891" lon="134.157312"><ele>159.59</ele><time>2026-08-12T08:46:46Z</time></trkpt>
<trkpt lat="34.810906" lon="134.157297"><ele>159.59</ele><time>2026-08-12T08:46:50Z</time></trkpt>
<trkpt lat="34.81091" lon="134.157285"><ele>159.59</ele><time>2026-08-12T08:46:51Z</time></trkpt>
<trkpt lat="34.810926" lon="134.157237"><ele>160.91</ele><time>2026-08-12T08:46:56Z</time></trkpt>
<trkpt lat="34.81094" lon="134.157212"><ele>161.58</ele><time>2026-08-12T08:46:59Z</time></trkpt>
<trkpt lat="34.810953" lon="134.157167"><ele>162.41</ele><time>2026-08-12T08:47:03Z</time></trkpt>
<trkpt lat="34.810998" lon="134.157113"><ele>162.73</ele><time>2026-08-12T08:47:10Z</time></trkpt>
<trkpt lat="34.810994" lon="134.157102"><ele>162.73</ele><time>2026-08-12T08:47:11Z</time></trkpt>
<trkpt lat="34.811021" lon="134.157055"><ele>164.5</ele><time>2026-08-12T08:47:16Z</time></trkpt>
<trkpt lat="34.811033" lon="134.157044"><ele>164.5</ele><time>2026-08-12T08:47:18Z</time></trkpt>
<trkpt lat="34.81104" lon="134.15701"><ele>165.69</ele><time>2026-08-12T08:47:22Z</time></trkpt>
<trkpt lat="34.811042" lon="134.156996"><ele>165.69</ele><time>2026-08-12T08:47:25Z</time></trkpt>
<trkpt lat="34.811051" lon="134.156973"><ele>165.69</ele><time>2026-08-12T08:47:27Z</time></trkpt>
<trkpt lat="34.811069" lon="134.156928"><ele>168.53</ele><time>2026-08-12T08:47:31Z</time></trkpt>
<trkpt lat="34.811084" lon="134.156907"><ele>168.53</ele><time>2026-08-12T08:47:34Z</time></trkpt>
<trkpt lat="34.81109" lon="134.156898"><ele>168.53</ele><time>2026-08-12T08:47:37Z</time></trkpt>
<trkpt lat="34.811097" lon="134.156884"><ele>170.26</ele><time>2026-08-12T08:47:39Z</time></trkpt>
<trkpt lat="34.811121" lon="134.156862"><ele>170.26</ele><time>2026-08-12T08:47:43Z</time></trkpt>
<trkpt lat="34.811136" lon="134.156854"><ele>170.46</ele><time>2026-08-12T08:47:46Z</time></trkpt>
<trkpt lat="34.811138" lon="134.156854"><ele>170.46</ele><time>2026-08-12T08:47:47Z</time></trkpt>
<trkpt lat="34.81114" lon="134.156836"><ele>172.21</ele><time>2026-08-12T08:47:52Z</time></trkpt>
<trkpt lat="34.811158" lon="134.156808"><ele>172.21</ele><time>2026-08-12T08:47:57Z</time></trkpt>
<trkpt lat="34.811159" lon="134.156795"><ele>174.07</ele><time>2026-08-12T08:47:59Z</time></trkpt>
<trkpt lat="34.811167" lon="134.156764"><ele>174.42</ele><time>2026-08-12T08:48:02Z</time></trkpt>
<trkpt lat="34.811187" lon="134.156749"><ele>176.37</ele><time>2026-08-12T08:48:06Z</time></trkpt>
<trkpt lat="34.811177" lon="134.156744"><ele>176.37</ele><time>2026-08-12T08:48:09Z</time></trkpt>
<trkpt lat="34.811175" lon="134.156739"><ele>176.37</ele><time>2026-08-12T08:48:10Z</time></trkpt>
<trkpt lat="34.811183" lon="134.156721"><ele>176.37</ele><time>2026-08-12T08:48:14Z</time></trkpt>
<trkpt lat="34.811188" lon="134.156713"><ele>178.15</ele><time>2026-08-12T08:48:16Z</time></trkpt>
<trkpt lat="34.811195" lon="134.156707"><ele>178.15</ele><time>2026-08-12T08:48:18Z</time></trkpt>
<trkpt lat="34.811211" lon="134.156691"><ele>178.82</ele><time>2026-08-12T08:48:22Z</time></trkpt>
<trkpt lat="34.811211" lon="134.156692"><ele>178.82</ele><time>2026-08-12T08:48:23Z</time></trkpt>
<trkpt lat="34.811224" lon="134.15666"><ele>180.41</ele><time>2026-08-12T08:48:28Z</time></trkpt>
<trkpt lat="34.811236" lon="134.156655"><ele>181.03</ele><time>2026-08-12T08:48:32Z</time></trkpt>
<trkpt lat="34.811256" lon="134.156646"><ele>181.03</ele><time>2026-08-12T08:48:36Z</time></trkpt>
<trkpt lat="34.811269" lon="134.156633"><ele>180.45</ele><time>2026-08-12T08:48:38Z</time></trkpt>
<trkpt lat="34.811289" lon="134.156618"><ele>183.06</ele><time>2026-08-12T08:48:43Z</time></trkpt>
<trkpt lat="34.811293" lon="134.156596"><ele>183.06</ele><time>2026-08-12T08:48:47Z</time></trkpt>
<trkpt lat="34.811295" lon="134.156589"><ele>183.06</ele><time>2026-08-12T08:48:49Z</time></trkpt>
<trkpt lat="34.811295" lon="134.156579"><ele>185.76</ele><time>2026-08-12T08:48:51Z</time></trkpt>
<trkpt lat="34.811279" lon="134.156574"><ele>185.76</ele><time>2026-08-12T08:48:55Z</time></trkpt>
<trkpt lat="34.811276" lon="134.156574"><ele>185.76</ele><time>2026-08-12T08:48:56Z</time></trkpt>
<trkpt lat="34.81125" lon="134.156547"><ele>185.6</ele><time>2026-08-12T08:49:02Z</time></trkpt>
<trkpt lat="34.811245" lon="134.156532"><ele>188.19</ele><time>2026-08-12T08:49:04Z</time></trkpt>
<trkpt lat="34.811245" lon="134.156528"><ele>188.19</ele><time>2026-08-12T08:49:05Z</time></trkpt>
<trkpt lat="34.811234" lon="134.156507"><ele>188.19</ele><time>2026-08-12T08:49:09Z</time></trkpt>
<trkpt lat="34.811222" lon="134.156482"><ele>188.42</ele><time>2026-08-12T08:49:13Z</time></trkpt>
<trkpt lat="34.811224" lon="134.156474"><ele>188.42</ele><time>2026-08-12T08:49:15Z</time></trkpt>
<trkpt lat="34.811239" lon="134.156459"><ele>190.61</ele><time>2026-08-12T08:49:19Z</time></trkpt>
<trkpt lat="34.811267" lon="134.156454"><ele>194.33</ele><time>2026-08-12T08:49:24Z</time></trkpt>
<trkpt lat="34.81127" lon="134.156443"><ele>194.33</ele><time>2026-08-12T08:49:27Z</time></trkpt>
<trkpt lat="34.81127" lon="134.156422"><ele>194.33</ele><time>2026-08-12T08:49:30Z</time></trkpt>
<trkpt lat="34.811265" lon="134.156399"><ele>195.81</ele><time>2026-08-12T08:49:34Z</time></trkpt>
<trkpt lat="34.811269" lon="134.156396"><ele>197.06</ele><time>2026-08-12T08:49:36Z</time></trkpt>
<trkpt lat="34.811286" lon="134.156398"><ele>197.06</ele><time>2026-08-12T08:49:40Z</time></trkpt>
<trkpt lat="34.811312" lon="134.156399"><ele>197.83</ele><time>2026-08-12T08:49:44Z</time></trkpt>
<trkpt lat="34.811316" lon="134.156391"><ele>197.83</ele><time>2026-08-12T08:49:46Z</time></trkpt>
<trkpt lat="34.81133" lon="134.156377"><ele>197.83</ele><time>2026-08-12T08:49:50Z</time></trkpt>
<trkpt lat="34.811326" lon="134.156354"><ele>200.66</ele><time>2026-08-12T08:49:55Z</time></trkpt>
<trkpt lat="34.811318" lon="134.156346"><ele>200.66</ele><time>2026-08-12T08:49:57Z</time></trkpt>
<trkpt lat="34.811306" lon="134.156341"><ele>200.66</ele><time>2026-08-12T08:49:59Z</time></trkpt>
<trkpt lat="34.81129" lon="134.156337"><ele>199.65</ele><time>2026-08-12T08:50:03Z</time></trkpt>
<trkpt lat="34.811288" lon="134.156333"><ele>199.65</ele><time>2026-08-12T08:50:04Z</time></trkpt>
<trkpt lat="34.811285" lon="134.156328"><ele>199.65</ele><time>2026-08-12T08:50:05Z</time></trkpt>
<trkpt lat="34.811301" lon="134.156302"><ele>202.05</ele><time>2026-08-12T08:50:09Z</time></trkpt>
<trkpt lat="34.811316" lon="134.156302"><ele>203.23</ele><time>2026-08-12T08:50:11Z</time></trkpt>
<trkpt lat="34.811351" lon="134.156286"><ele>203.9</ele><time>2026-08-12T08:50:16Z</time></trkpt>
<trkpt lat="34.811374" lon="134.15626"><ele>206.55</ele><time>2026-08-12T08:50:20Z</time></trkpt>
<trkpt lat="34.811374" lon="134.156254"><ele>206.55</ele><time>2026-08-12T08:50:21Z</time></trkpt>
<trkpt lat="34.811378" lon="134.156241"><ele>209.23</ele><time>2026-08-12T08:50:25Z</time></trkpt>
<trkpt lat="34.811378" lon="134.156238"><ele>209.23</ele><time>2026-08-12T08:50:26Z</time></trkpt>
<trkpt lat="34.811373" lon="134.156228"><ele>209.23</ele><time>2026-08-12T08:50:29Z</time></trkpt>
<trkpt lat="34.811367" lon="134.156215"><ele>208.84</ele><time>2026-08-12T08:50:33Z</time></trkpt>
<trkpt lat="34.811368" lon="134.156217"><ele>208.84</ele><time>2026-08-12T08:50:34Z</time></trkpt>
<trkpt lat="34.811365" lon="134.156195"><ele>211.06</ele><time>2026-08-12T08:50:37Z</time></trkpt>
<trkpt lat="34.811379" lon="134.156191"><ele>211.78</ele><time>2026-08-12T08:50:40Z</time></trkpt>
<trkpt lat="34.811383" lon="134.15619"><ele>211.78</ele><time>2026-08-12T08:50:41Z</time></trkpt>
<trkpt lat="34.811393" lon="134.156193"><ele>211.78</ele><time>2026-08-12T08:50:44Z</time></trkpt>
<trkpt lat="34.811394" lon="134.156177"><ele>211.78</ele><time>2026-08-12T08:50:48Z</time></trkpt>
<trkpt lat="34.811397" lon="134.15613"><ele>214.06</ele><time>2026-08-12T08:50:55Z</time></trkpt>
<trkpt lat="34.811396" lon="134.156123"><ele>214.06</ele><time>2026-08-12T08:50:56Z</time></trkpt>
<trkpt lat="34.811411" lon="134.156106"><ele>215.88</ele><time>2026-08-12T08:51:00Z</time></trkpt>
<trkpt lat="34.811418" lon="134.156083"><ele>215.88</ele><time>2026-08-12T08:51:03Z</time></trkpt>
<trkpt lat="34.811432" lon="134.156061"><ele>216.66</ele><time>2026-08-12T08:51:06Z</time></trkpt>
<trkpt lat="34.811452" lon="134.156029"><ele>217.37</ele><time>2026-08-12T08:51:12Z</time></trkpt>
<trkpt lat="34.811468" lon="134.155998"><ele>217.97</ele><time>2026-08-12T08:51:16Z</time></trkpt>
<trkpt lat="34.811474" lon="134.155988"><ele>217.97</ele><time>2026-08-12T08:51:17Z</time></trkpt>
<trkpt lat="34.811477" lon="134.155981"><ele>217.93</ele><time>2026-08-12T08:51:18Z</time></trkpt>
<trkpt lat="34.811485" lon="134.155954"><ele>219.33</ele><time>2026-08-12T08:51:21Z</time></trkpt>
<trkpt lat="34.811492" lon="134.15595"><ele>219.33</ele><time>2026-08-12T08:51:22Z</time></trkpt>
<trkpt lat="34.811503" lon="134.155926"><ele>219.86</ele><time>2026-08-12T08:51:27Z</time></trkpt>
<trkpt lat="34.811506" lon="134.155922"><ele>219.86</ele><time>2026-08-12T08:51:28Z</time></trkpt>
<trkpt lat="34.811527" lon="134.155903"><ele>221.38</ele><time>2026-08-12T08:51:32Z</time></trkpt>
<trkpt lat="34.81153" lon="134.155881"><ele>221.11</ele><time>2026-08-12T08:51:37Z</time></trkpt>
<trkpt lat="34.811556" lon="134.155825"><ele>221.9</ele><time>2026-08-12T08:51:42Z</time></trkpt>
<trkpt lat="34.811605" lon="134.155741"><ele>221.79</ele><time>2026-08-12T08:51:48Z</time></trkpt>
<trkpt lat="34.811659" lon="134.155682"><ele>220.15</ele><time>2026-08-12T08:51:55Z</time></trkpt>
<trkpt lat="34.811663" lon="134.155679"><ele>220.15</ele><time>2026-08-12T08:51:56Z</time></trkpt>
<trkpt lat="34.811687" lon="134.155664"><ele>220.15</ele><time>2026-08-12T08:51:58Z</time></trkpt>
<trkpt lat="34.811723" lon="134.155638"><ele>218.71</ele><time>2026-08-12T08:52:00Z</time></trkpt>
<trkpt lat="34.811753" lon="134.155611"><ele>217.84</ele><time>2026-08-12T08:52:02Z</time></trkpt>
<trkpt lat="34.811784" lon="134.155588"><ele>216.39</ele><time>2026-08-12T08:52:04Z</time></trkpt>
<trkpt lat="34.811825" lon="134.155556"><ele>215.61</ele><time>2026-08-12T08:52:06Z</time></trkpt>
<trkpt lat="34.811876" lon="134.155503"><ele>213.74</ele><time>2026-08-12T08:52:09Z</time></trkpt>
<trkpt lat="34.811915" lon="134.155465"><ele>213.17</ele><time>2026-08-12T08:52:11Z</time></trkpt>
<trkpt lat="34.811944" lon="134.155425"><ele>213.01</ele><time>2026-08-12T08:52:13Z</time></trkpt>
<trkpt lat="34.811981" lon="134.155346"><ele>212.96</ele><time>2026-08-12T08:52:16Z</time></trkpt>
<trkpt lat="34.812005" lon="134.155303"><ele>212.5</ele><time>2026-08-12T08:52:18Z</time></trkpt>
<trkpt lat="34.812033" lon="134.155243"><ele>211.12</ele><time>2026-08-12T08:52:21Z</time></trkpt>
<trkpt lat="34.812057" lon="134.155219"><ele>210.62</ele><time>2026-08-12T08:52:24Z</time></trkpt>
<trkpt lat="34.812066" lon="134.155211"><ele>209.15</ele><time>2026-08-12T08:52:25Z</time></trkpt>
<trkpt lat="34.812088" lon="134.155202"><ele>208.13</ele><time>2026-08-12T08:52:27Z</time></trkpt>
<trkpt lat="34.8121" lon="134.155194"><ele>208.13</ele><time>2026-08-12T08:52:30Z</time></trkpt>
<trkpt lat="34.812102" lon="134.155193"><ele>208.13</ele><time>2026-08-12T08:52:31Z</time></trkpt>
<trkpt lat="34.812118" lon="134.155188"><ele>206.32</ele><time>2026-08-12T08:52:34Z</time></trkpt>
<trkpt lat="34.812141" lon="134.15518"><ele>206.32</ele><time>2026-08-12T08:52:36Z</time></trkpt>
<trkpt lat="34.812148" lon="134.155171"><ele>203.9</ele><time>2026-08-12T08:52:37Z</time></trkpt>
<trkpt lat="34.812159" lon="134.155158"><ele>203.12</ele><time>2026-08-12T08:52:39Z</time></trkpt>
<trkpt lat="34.812174" lon="134.155155"><ele>203.12</ele><time>2026-08-12T08:52:42Z</time></trkpt>
<trkpt lat="34.81218" lon="134.155147"><ele>203.12</ele><time>2026-08-12T08:52:43Z</time></trkpt>
<trkpt lat="34.812191" lon="134.155131"><ele>201.5</ele><time>2026-08-12T08:52:46Z</time></trkpt>
<trkpt lat="34.812199" lon="134.155128"><ele>201.5</ele><time>2026-08-12T08:52:47Z</time></trkpt>
<trkpt lat="34.812216" lon="134.155125"><ele>199.97</ele><time>2026-08-12T08:52:49Z</time></trkpt>
<trkpt lat="34.812238" lon="134.155106"><ele>198.65</ele><time>2026-08-12T08:52:51Z</time></trkpt>
<trkpt lat="34.812248" lon="134.155093"><ele>198.65</ele><time>2026-08-12T08:52:54Z</time></trkpt>
<trkpt lat="34.812261" lon="134.155076"><ele>195.87</ele><time>2026-08-12T08:52:57Z</time></trkpt>
<trkpt lat="34.812293" lon="134.155058"><ele>194.48</ele><time>2026-08-12T08:53:00Z</time></trkpt>
<trkpt lat="34.812306" lon="134.155045"><ele>194.48</ele><time>2026-08-12T08:53:02Z</time></trkpt>
<trkpt lat="34.812323" lon="134.155031"><ele>193.36</ele><time>2026-08-12T08:53:04Z</time></trkpt>
<trkpt lat="34.812357" lon="134.15501"><ele>192.53</ele><time>2026-08-12T08:53:07Z</time></trkpt>
<trkpt lat="34.812396" lon="134.154978"><ele>189.94</ele><time>2026-08-12T08:53:10Z</time></trkpt>
<trkpt lat="34.812454" lon="134.154929"><ele>188.47</ele><time>2026-08-12T08:53:13Z</time></trkpt>
<trkpt lat="34.812473" lon="134.154912"><ele>187.88</ele><time>2026-08-12T08:53:14Z</time></trkpt>
<trkpt lat="34.812489" lon="134.154892"><ele>187.44</ele><time>2026-08-12T08:53:15Z</time></trkpt>
<trkpt lat="34.812519" lon="134.154867"><ele>186.71</ele><time>2026-08-12T08:53:17Z</time></trkpt>
<trkpt lat="34.81254" lon="134.154854"><ele>186.77</ele><time>2026-08-12T08:53:18Z</time></trkpt>
<trkpt lat="34.812554" lon="134.154841"><ele>186.77</ele><time>2026-08-12T08:53:19Z</time></trkpt>
<trkpt lat="34.812603" lon="134.154795"><ele>186.89</ele><time>2026-08-12T08:53:22Z</time></trkpt>
<trkpt lat="34.812613" lon="134.154787"><ele>186.42</ele><time>2026-08-12T08:53:23Z</time></trkpt>
<trkpt lat="34.81262" lon="134.154776"><ele>185.73</ele><time>2026-08-12T08:53:24Z</time></trkpt>
<trkpt lat="34.812632" lon="134.154765"><ele>185.73</ele><time>2026-08-12T08:53:25Z</time></trkpt>
<trkpt lat="34.812652" lon="134.154762"><ele>185.49</ele><time>2026-08-12T08:53:27Z</time></trkpt>
<trkpt lat="34.812677" lon="134.15476"><ele>184.85</ele><time>2026-08-12T08:53:29Z</time></trkpt>
<trkpt lat="34.812694" lon="134.154751"><ele>184.85</ele><time>2026-08-12T08:53:30Z</time></trkpt>
<trkpt lat="34.812783" lon="134.154724"><ele>183.1</ele><time>2026-08-12T08:53:34Z</time></trkpt>
<trkpt lat="34.812803" lon="134.154713"><ele>183.1</ele><time>2026-08-12T08:53:35Z</time></trkpt>
<trkpt lat="34.812869" lon="134.154658"><ele>183.53</ele><time>2026-08-12T08:53:39Z</time></trkpt>
<trkpt lat="34.81292" lon="134.154638"><ele>184.57</ele><time>2026-08-12T08:53:42Z</time></trkpt>
<trkpt lat="34.812987" lon="134.154596"><ele>185.86</ele><time>2026-08-12T08:53:46Z</time></trkpt>
<trkpt lat="34.813024" lon="134.154587"><ele>186.26</ele><time>2026-08-12T08:53:48Z</time></trkpt>
<trkpt lat="34.813071" lon="134.15456"><ele>185.46</ele><time>2026-08-12T08:53:51Z</time></trkpt>
<trkpt lat="34.81312" lon="134.154525"><ele>184.79</ele><time>2026-08-12T08:53:54Z</time></trkpt>
<trkpt lat="34.813194" lon="134.154442"><ele>183.01</ele><time>2026-08-12T08:53:59Z</time></trkpt>
<trkpt lat="34.813212" lon="134.154424"><ele>181.98</ele><time>2026-08-12T08:54:00Z</time></trkpt>
<trkpt lat="34.813242" lon="134.154389"><ele>180.81</ele><time>2026-08-12T08:54:02Z</time></trkpt>
<trkpt lat="34.813254" lon="134.154367"><ele>180.81</ele><time>2026-08-12T08:54:03Z</time></trkpt>
<trkpt lat="34.81328" lon="134.154323"><ele>179.55</ele><time>2026-08-12T08:54:05Z</time></trkpt>
<trkpt lat="34.813316" lon="134.15425"><ele>178.76</ele><time>2026-08-12T08:54:08Z</time></trkpt>
<trkpt lat="34.813347" lon="134.154174"><ele>178.54</ele><time>2026-08-12T08:54:11Z</time></trkpt>
<trkpt lat="34.813358" lon="134.154149"><ele>178.54</ele><time>2026-08-12T08:54:12Z</time></trkpt>
<trkpt lat="34.813388" lon="134.154088"><ele>178.5</ele><time>2026-08-12T08:54:15Z</time></trkpt>
<trkpt lat="34.813391" lon="134.154074"><ele>178.5</ele><time>2026-08-12T08:54:16Z</time></trkpt>
<trkpt lat="34.813396" lon="134.154061"><ele>178.5</ele><time>2026-08-12T08:54:17Z</time></trkpt>
<trkpt lat="34.813414" lon="134.154001"><ele>179.06</ele><time>2026-08-12T08:54:22Z</time></trkpt>
<trkpt lat="34.81342" lon="134.153982"><ele>180.03</ele><time>2026-08-12T08:54:24Z</time></trkpt>
<trkpt lat="34.813424" lon="134.153971"><ele>180.03</ele><time>2026-08-12T08:54:25Z</time></trkpt>
<trkpt lat="34.813439" lon="134.15393"><ele>180.79</ele><time>2026-08-12T08:54:30Z</time></trkpt>
<trkpt lat="34.813436" lon="134.153908"><ele>181.56</ele><time>2026-08-12T08:54:32Z</time></trkpt>
<trkpt lat="34.813436" lon="134.153898"><ele>181.56</ele><time>2026-08-12T08:54:33Z</time></trkpt>
<trkpt lat="34.813439" lon="134.15389"><ele>181.56</ele><time>2026-08-12T08:54:34Z</time></trkpt>
<trkpt lat="34.813446" lon="134.15386"><ele>182.34</ele><time>2026-08-12T08:54:38Z</time></trkpt>
<trkpt lat="34.81346" lon="134.153849"><ele>184.17</ele><time>2026-08-12T08:54:40Z</time></trkpt>
<trkpt lat="34.813462" lon="134.153846"><ele>184.17</ele><time>2026-08-12T08:54:41Z</time></trkpt>
<trkpt lat="34.813469" lon="134.153836"><ele>185.33</ele><time>2026-08-12T08:54:43Z</time></trkpt>
<trkpt lat="34.813481" lon="134.153812"><ele>185.33</ele><time>2026-08-12T08:54:47Z</time></trkpt>
<trkpt lat="34.81349" lon="134.153797"><ele>186.05</ele><time>2026-08-12T08:54:50Z</time></trkpt>
<trkpt lat="34.813495" lon="134.153795"><ele>187.7</ele><time>2026-08-12T08:54:51Z</time></trkpt>
<trkpt lat="34.813505" lon="134.153781"><ele>187.7</ele><time>2026-08-12T08:54:55Z</time></trkpt>
<trkpt lat="34.813507" lon="134.15377"><ele>187.7</ele><time>2026-08-12T08:54:57Z</time></trkpt>
<trkpt lat="34.813508" lon="134.15376"><ele>187.7</ele><time>2026-08-12T08:54:59Z</time></trkpt>
<trkpt lat="34.813516" lon="134.153743"><ele>189.06</ele><time>2026-08-12T08:55:02Z</time></trkpt>
<trkpt lat="34.813529" lon="134.15373"><ele>190.5</ele><time>2026-08-12T08:55:04Z</time></trkpt>
<trkpt lat="34.813542" lon="134.153715"><ele>190.5</ele><time>2026-08-12T08:55:06Z</time></trkpt>
<trkpt lat="34.813559" lon="134.153692"><ele>192.99</ele><time>2026-08-12T08:55:10Z</time></trkpt>
<trkpt lat="34.813564" lon="134.153684"><ele>192.99</ele><time>2026-08-12T08:55:11Z</time></trkpt>
<trkpt lat="34.813571" lon="134.153666"><ele>194.73</ele><time>2026-08-12T08:55:13Z</time></trkpt>
<trkpt lat="34.813573" lon="134.153659"><ele>194.73</ele><time>2026-08-12T08:55:14Z</time></trkpt>
<trkpt lat="34.813576" lon="134.153654"><ele>194.73</ele><time>2026-08-12T08:55:15Z</time></trkpt>
<trkpt lat="34.813587" lon="134.15364"><ele>194.73</ele><time>2026-08-12T08:55:19Z</time></trkpt>
<trkpt lat="34.813597" lon="134.153619"><ele>196.47</ele><time>2026-08-12T08:55:22Z</time></trkpt>
<trkpt lat="34.813601" lon="134.153605"><ele>196.47</ele><time>2026-08-12T08:55:24Z</time></trkpt>
<trkpt lat="34.813635" lon="134.153576"><ele>198.23</ele><time>2026-08-12T08:55:30Z</time></trkpt>
<trkpt lat="34.813636" lon="134.15357"><ele>198.23</ele><time>2026-08-12T08:55:31Z</time></trkpt>
<trkpt lat="34.81363" lon="134.153542"><ele>198.23</ele><time>2026-08-12T08:55:34Z</time></trkpt>
<trkpt lat="34.813631" lon="134.153506"><ele>199.63</ele><time>2026-08-12T08:55:39Z</time></trkpt>
<trkpt lat="34.81364" lon="134.153501"><ele>199.63</ele><time>2026-08-12T08:55:41Z</time></trkpt>
<trkpt lat="34.813654" lon="134.153482"><ele>200.62</ele><time>2026-08-12T08:55:44Z</time></trkpt>
<trkpt lat="34.813673" lon="134.153457"><ele>201.0</ele><time>2026-08-12T08:55:48Z</time></trkpt>
<trkpt lat="34.813675" lon="134.153453"><ele>201.0</ele><time>2026-08-12T08:55:49Z</time></trkpt>
<trkpt lat="34.813682" lon="134.153439"><ele>202.5</ele><time>2026-08-12T08:55:51Z</time></trkpt>
<trkpt lat="34.813699" lon="134.153403"><ele>204.41</ele><time>2026-08-12T08:55:57Z</time></trkpt>
<trkpt lat="34.813702" lon="134.153397"><ele>204.41</ele><time>2026-08-12T08:55:58Z</time></trkpt>
<trkpt lat="34.813713" lon="134.153376"><ele>204.41</ele><time>2026-08-12T08:56:02Z</time></trkpt>
<trkpt lat="34.813713" lon="134.15337"><ele>204.41</ele><time>2026-08-12T08:56:03Z</time></trkpt>
<trkpt lat="34.813718" lon="134.153347"><ele>206.06</ele><time>2026-08-12T08:56:07Z</time></trkpt>
<trkpt lat="34.81374" lon="134.153329"><ele>207.01</ele><time>2026-08-12T08:56:11Z</time></trkpt>
<trkpt lat="34.813744" lon="134.153318"><ele>209.35</ele><time>2026-08-12T08:56:13Z</time></trkpt>
<trkpt lat="34.813747" lon="134.153286"><ele>209.35</ele><time>2026-08-12T08:56:18Z</time></trkpt>
<trkpt lat="34.813749" lon="134.153285"><ele>209.35</ele><time>2026-08-12T08:56:19Z</time></trkpt>
<trkpt lat="34.813754" lon="134.153269"><ele>210.8</ele><time>2026-08-12T08:56:22Z</time></trkpt>
<trkpt lat="34.813768" lon="134.153255"><ele>210.8</ele><time>2026-08-12T08:56:26Z</time></trkpt>
<trkpt lat="34.813777" lon="134.153225"><ele>212.68</ele><time>2026-08-12T08:56:30Z</time></trkpt>
<trkpt lat="34.813777" lon="134.153193"><ele>212.61</ele><time>2026-08-12T08:56:34Z</time></trkpt>
<trkpt lat="34.813778" lon="134.153187"><ele>212.61</ele><time>2026-08-12T08:56:35Z</time></trkpt>
<trkpt lat="34.813781" lon="134.153174"><ele>212.61</ele><time>2026-08-12T09:27:06Z</time></trkpt>
<trkpt lat="34.813772" lon="134.153129"><ele>211.59</ele><time>2026-08-12T09:27:10Z</time></trkpt>
<trkpt lat="34.813764" lon="134.15308"><ele>210.39</ele><time>2026-08-12T09:27:14Z</time></trkpt>
<trkpt lat="34.813746" lon="134.153041"><ele>209.62</ele><time>2026-08-12T09:27:16Z</time></trkpt>
<trkpt lat="34.813727" lon="134.152996"><ele>208.03</ele><time>2026-08-12T09:27:18Z</time></trkpt>
<trkpt lat="34.813681" lon="134.152915"><ele>208.13</ele><time>2026-08-12T09:27:22Z</time></trkpt>
<trkpt lat="34.813659" lon="134.152872"><ele>208.14</ele><time>2026-08-12T09:27:24Z</time></trkpt>
<trkpt lat="34.81365" lon="134.152855"><ele>208.14</ele><time>2026-08-12T09:27:25Z</time></trkpt>
<trkpt lat="34.813643" lon="134.15283"><ele>208.4</ele><time>2026-08-12T09:27:27Z</time></trkpt>
<trkpt lat="34.81364" lon="134.152824"><ele>208.4</ele><time>2026-08-12T09:27:28Z</time></trkpt>
<trkpt lat="34.813623" lon="134.152805"><ele>207.63</ele><time>2026-08-12T09:27:30Z</time></trkpt>
<trkpt lat="34.813599" lon="134.152767"><ele>207.63</ele><time>2026-08-12T09:27:33Z</time></trkpt>
<trkpt lat="34.813597" lon="134.152761"><ele>207.37</ele><time>2026-08-12T09:27:34Z</time></trkpt>
<trkpt lat="34.813592" lon="134.152757"><ele>207.37</ele><time>2026-08-12T09:27:35Z</time></trkpt>
<trkpt lat="34.813585" lon="134.152752"><ele>206.79</ele><time>2026-08-12T09:27:36Z</time></trkpt>
<trkpt lat="34.813547" lon="134.152717"><ele>205.12</ele><time>2026-08-12T09:27:39Z</time></trkpt>
<trkpt lat="34.813536" lon="134.152703"><ele>205.12</ele><time>2026-08-12T09:27:40Z</time></trkpt>
<trkpt lat="34.813504" lon="134.152674"><ele>203.38</ele><time>2026-08-12T09:27:42Z</time></trkpt>
<trkpt lat="34.813447" lon="134.152624"><ele>201.23</ele><time>2026-08-12T09:27:45Z</time></trkpt>
<trkpt lat="34.813394" lon="134.152569"><ele>200.78</ele><time>2026-08-12T09:27:48Z</time></trkpt>
<trkpt lat="34.813297" lon="134.152494"><ele>199.53</ele><time>2026-08-12T09:27:53Z</time></trkpt>
<trkpt lat="34.813256" lon="134.152461"><ele>199.68</ele><time>2026-08-12T09:27:55Z</time></trkpt>
<trkpt lat="34.813141" lon="134.152375"><ele>200.57</ele><time>2026-08-12T09:28:01Z</time></trkpt>
<trkpt lat="34.813124" lon="134.152348"><ele>200.46</ele><time>2026-08-12T09:28:04Z</time></trkpt>
<trkpt lat="34.813117" lon="134.152337"><ele>200.46</ele><time>2026-08-12T09:28:06Z</time></trkpt>
<trkpt lat="34.813107" lon="134.152331"><ele>202.14</ele><time>2026-08-12T09:28:09Z</time></trkpt>
<trkpt lat="34.813098" lon="134.152331"><ele>202.77</ele><time>2026-08-12T09:28:10Z</time></trkpt>
<trkpt lat="34.813078" lon="134.152325"><ele>202.77</ele><time>2026-08-12T09:28:12Z</time></trkpt>
<trkpt lat="34.813062" lon="134.15232"><ele>202.93</ele><time>2026-08-12T09:28:15Z</time></trkpt>
<trkpt lat="34.813049" lon="134.15231"><ele>202.93</ele><time>2026-08-12T09:28:18Z</time></trkpt>
<trkpt lat="34.813039" lon="134.1523"><ele>202.93</ele><time>2026-08-12T09:28:20Z</time></trkpt>
<trkpt lat="34.81302" lon="134.152256"><ele>205.66</ele><time>2026-08-12T09:28:24Z</time></trkpt>
<trkpt lat="34.813015" lon="134.152249"><ele>207.36</ele><time>2026-08-12T09:28:25Z</time></trkpt>
<trkpt lat="34.813" lon="134.152236"><ele>207.36</ele><time>2026-08-12T09:28:28Z</time></trkpt>
<trkpt lat="34.812981" lon="134.15222"><ele>208.33</ele><time>2026-08-12T09:28:32Z</time></trkpt>
<trkpt lat="34.812975" lon="134.152217"><ele>208.33</ele><time>2026-08-12T09:28:33Z</time></trkpt>
<trkpt lat="34.812959" lon="134.152206"><ele>209.74</ele><time>2026-08-12T09:28:36Z</time></trkpt>
<trkpt lat="34.812938" lon="134.152179"><ele>210.06</ele><time>2026-08-12T09:28:40Z</time></trkpt>
<trkpt lat="34.812937" lon="134.152175"><ele>210.06</ele><time>2026-08-12T09:28:41Z</time></trkpt>
<trkpt lat="34.812928" lon="134.152174"><ele>210.06</ele><time>2026-08-12T09:28:52Z</time></trkpt>
<trkpt lat="34.812928" lon="134.152174"><ele>210.06</ele><time>2026-08-12T09:28:59Z</time></trkpt>
<trkpt lat="34.812928" lon="134.152174"><ele>210.06</ele><time>2026-08-12T09:29:09Z</time></trkpt>
<trkpt lat="34.812871" lon="134.152138"><ele>210.06</ele><time>2026-08-12T09:29:14Z</time></trkpt>
<trkpt lat="34.812815" lon="134.152095"><ele>208.28</ele><time>2026-08-12T09:29:17Z</time></trkpt>
<trkpt lat="34.812777" lon="134.152071"><ele>208.3</ele><time>2026-08-12T09:29:19Z</time></trkpt>
<trkpt lat="34.812756" lon="134.152059"><ele>208.3</ele><time>2026-08-12T09:29:20Z</time></trkpt>
<trkpt lat="34.812741" lon="134.152052"><ele>207.9</ele><time>2026-08-12T09:29:21Z</time></trkpt>
<trkpt lat="34.812709" lon="134.152032"><ele>208.92</ele><time>2026-08-12T09:29:23Z</time></trkpt>
<trkpt lat="34.812621" lon="134.151981"><ele>208.58</ele><time>2026-08-12T09:29:28Z</time></trkpt>
<trkpt lat="34.812609" lon="134.151965"><ele>208.58</ele><time>2026-08-12T09:29:29Z</time></trkpt>
<trkpt lat="34.812592" lon="134.151904"><ele>208.57</ele><time>2026-08-12T09:29:32Z</time></trkpt>
<trkpt lat="34.812564" lon="134.151885"><ele>207.82</ele><time>2026-08-12T09:29:34Z</time></trkpt>
<trkpt lat="34.812519" lon="134.151847"><ele>207.81</ele><time>2026-08-12T09:29:38Z</time></trkpt>
<trkpt lat="34.812478" lon="134.151793"><ele>207.3</ele><time>2026-08-12T09:29:41Z</time></trkpt>
<trkpt lat="34.812448" lon="134.151745"><ele>206.79</ele><time>2026-08-12T09:29:44Z</time></trkpt>
<trkpt lat="34.812442" lon="134.151725"><ele>206.61</ele><time>2026-08-12T09:29:45Z</time></trkpt>
<trkpt lat="34.81244" lon="134.151712"><ele>206.61</ele><time>2026-08-12T09:29:46Z</time></trkpt>
<trkpt lat="34.812431" lon="134.151701"><ele>206.61</ele><time>2026-08-12T09:29:47Z</time></trkpt>
<trkpt lat="34.812426" lon="134.15169"><ele>205.24</ele><time>2026-08-12T09:29:48Z</time></trkpt>
<trkpt lat="34.812425" lon="134.151676"><ele>205.24</ele><time>2026-08-12T09:29:49Z</time></trkpt>
<trkpt lat="34.812428" lon="134.151663"><ele>205.24</ele><time>2026-08-12T09:29:50Z</time></trkpt>
<trkpt lat="34.81243" lon="134.151632"><ele>203.89</ele><time>2026-08-12T09:29:52Z</time></trkpt>
<trkpt lat="34.812442" lon="134.151601"><ele>202.12</ele><time>2026-08-12T09:29:54Z</time></trkpt>
<trkpt lat="34.812465" lon="134.151574"><ele>201.15</ele><time>2026-08-12T09:29:57Z</time></trkpt>
<trkpt lat="34.812461" lon="134.151562"><ele>200.4</ele><time>2026-08-12T09:29:58Z</time></trkpt>
<trkpt lat="34.812459" lon="134.151548"><ele>200.4</ele><time>2026-08-12T09:29:59Z</time></trkpt>
<trkpt lat="34.812453" lon="134.151534"><ele>200.4</ele><time>2026-08-12T09:30:00Z</time></trkpt>
<trkpt lat="34.812447" lon="134.151495"><ele>198.76</ele><time>2026-08-12T09:30:02Z</time></trkpt>
<trkpt lat="34.812454" lon="134.151479"><ele>198.76</ele><time>2026-08-12T09:30:03Z</time></trkpt>
<trkpt lat="34.812463" lon="134.151466"><ele>197.18</ele><time>2026-08-12T09:30:04Z</time></trkpt>
<trkpt lat="34.812474" lon="134.151438"><ele>196.26</ele><time>2026-08-12T09:30:06Z</time></trkpt>
<trkpt lat="34.812466" lon="134.151424"><ele>194.75</ele><time>2026-08-12T09:30:07Z</time></trkpt>
<trkpt lat="34.812458" lon="134.15141"><ele>195.65</ele><time>2026-08-12T09:30:08Z</time></trkpt>
<trkpt lat="34.812448" lon="134.151398"><ele>195.65</ele><time>2026-08-12T09:30:09Z</time></trkpt>
<trkpt lat="34.812439" lon="134.151372"><ele>194.11</ele><time>2026-08-12T09:30:12Z</time></trkpt>
<trkpt lat="34.812449" lon="134.151354"><ele>194.11</ele><time>2026-08-12T09:30:14Z</time></trkpt>
<trkpt lat="34.812448" lon="134.151342"><ele>192.48</ele><time>2026-08-12T09:30:15Z</time></trkpt>
<trkpt lat="34.812446" lon="134.151306"><ele>190.8</ele><time>2026-08-12T09:30:17Z</time></trkpt>
<trkpt lat="34.812436" lon="134.151272"><ele>190.8</ele><time>2026-08-12T09:30:19Z</time></trkpt>
<trkpt lat="34.812434" lon="134.151258"><ele>189.05</ele><time>2026-08-12T09:30:20Z</time></trkpt>
<trkpt lat="34.812436" lon="134.151242"><ele>189.05</ele><time>2026-08-12T09:30:21Z</time></trkpt>
<trkpt lat="34.812428" lon="134.151205"><ele>188.0</ele><time>2026-08-12T09:30:23Z</time></trkpt>
<trkpt lat="34.812423" lon="134.151188"><ele>188.0</ele><time>2026-08-12T09:30:24Z</time></trkpt>
<trkpt lat="34.812416" lon="134.151169"><ele>186.33</ele><time>2026-08-12T09:30:25Z</time></trkpt>
<trkpt lat="34.812405" lon="134.151129"><ele>184.74</ele><time>2026-08-12T09:30:27Z</time></trkpt>
<trkpt lat="34.812404" lon="134.151088"><ele>183.22</ele><time>2026-08-12T09:30:29Z</time></trkpt>
<trkpt lat="34.81241" lon="134.151057"><ele>183.22</ele><time>2026-08-12T09:30:31Z</time></trkpt>
<trkpt lat="34.812407" lon="134.151037"><ele>181.71</ele><time>2026-08-12T09:30:32Z</time></trkpt>
<trkpt lat="34.812404" lon="134.151018"><ele>181.71</ele><time>2026-08-12T09:30:33Z</time></trkpt>
<trkpt lat="34.812403" lon="134.150993"><ele>180.59</ele><time>2026-08-12T09:30:35Z</time></trkpt>
<trkpt lat="34.812402" lon="134.150937"><ele>179.29</ele><time>2026-08-12T09:30:38Z</time></trkpt>
<trkpt lat="34.812408" lon="134.150915"><ele>178.02</ele><time>2026-08-12T09:30:39Z</time></trkpt>
<trkpt lat="34.812413" lon="134.150895"><ele>178.02</ele><time>2026-08-12T09:30:40Z</time></trkpt>
<trkpt lat="34.812415" lon="134.150826"><ele>176.06</ele><time>2026-08-12T09:30:43Z</time></trkpt>
<trkpt lat="34.812426" lon="134.150753"><ele>175.22</ele><time>2026-08-12T09:30:46Z</time></trkpt>
<trkpt lat="34.812432" lon="134.15073"><ele>172.84</ele><time>2026-08-12T09:30:47Z</time></trkpt>
<trkpt lat="34.812442" lon="134.150714"><ele>172.84</ele><time>2026-08-12T09:30:48Z</time></trkpt>
<trkpt lat="34.812455" lon="134.150703"><ele>172.16</ele><time>2026-08-12T09:30:49Z</time></trkpt>
<trkpt lat="34.812462" lon="134.150689"><ele>172.16</ele><time>2026-08-12T09:30:50Z</time></trkpt>
<trkpt lat="34.812463" lon="134.150673"><ele>172.16</ele><time>2026-08-12T09:30:51Z</time></trkpt>
<trkpt lat="34.812463" lon="134.150654"><ele>171.46</ele><time>2026-08-12T09:30:52Z</time></trkpt>
<trkpt lat="34.812468" lon="134.150636"><ele>169.91</ele><time>2026-08-12T09:30:53Z</time></trkpt>
<trkpt lat="34.812475" lon="134.150619"><ele>169.47</ele><time>2026-08-12T09:30:54Z</time></trkpt>
<trkpt lat="34.812494" lon="134.150552"><ele>169.06</ele><time>2026-08-12T09:30:57Z</time></trkpt>
<trkpt lat="34.812503" lon="134.150473"><ele>166.85</ele><time>2026-08-12T09:31:00Z</time></trkpt>
<trkpt lat="34.812528" lon="134.150407"><ele>166.71</ele><time>2026-08-12T09:31:03Z</time></trkpt>
<trkpt lat="34.812545" lon="134.150365"><ele>164.99</ele><time>2026-08-12T09:31:05Z</time></trkpt>
<trkpt lat="34.812553" lon="134.150344"><ele>164.8</ele><time>2026-08-12T09:31:06Z</time></trkpt>
<trkpt lat="34.812586" lon="134.150271"><ele>163.61</ele><time>2026-08-12T09:31:09Z</time></trkpt>
<trkpt lat="34.812618" lon="134.150214"><ele>162.53</ele><time>2026-08-12T09:31:11Z</time></trkpt>
<trkpt lat="34.812632" lon="134.150182"><ele>162.57</ele><time>2026-08-12T09:31:12Z</time></trkpt>
<trkpt lat="34.812685" lon="134.150058"><ele>162.65</ele><time>2026-08-12T09:31:16Z</time></trkpt>
<trkpt lat="34.812716" lon="134.149975"><ele>162.83</ele><time>2026-08-12T09:31:19Z</time></trkpt>
<trkpt lat="34.812778" lon="134.149839"><ele>165.32</ele><time>2026-08-12T09:31:25Z</time></trkpt>
<trkpt lat="34.812794" lon="134.149776"><ele>166.78</ele><time>2026-08-12T09:31:28Z</time></trkpt>
<trkpt lat="34.812811" lon="134.149719"><ele>167.87</ele><time>2026-08-12T09:31:31Z</time></trkpt>
<trkpt lat="34.812816" lon="134.149703"><ele>168.72</ele><time>2026-08-12T09:31:32Z</time></trkpt>
<trkpt lat="34.812824" lon="134.149688"><ele>168.72</ele><time>2026-08-12T09:31:33Z</time></trkpt>
<trkpt lat="34.812849" lon="134.149645"><ele>169.84</ele><time>2026-08-12T09:31:36Z</time></trkpt>
<trkpt lat="34.812861" lon="134.149612"><ele>171.0</ele><time>2026-08-12T09:31:38Z</time></trkpt>
<trkpt lat="34.812865" lon="134.149593"><ele>171.0</ele><time>2026-08-12T09:31:39Z</time></trkpt>
<trkpt lat="34.812872" lon="134.149557"><ele>172.06</ele><time>2026-08-12T09:31:41Z</time></trkpt>
<trkpt lat="34.812865" lon="134.149529"><ele>172.57</ele><time>2026-08-12T09:31:44Z</time></trkpt>
<trkpt lat="34.812847" lon="134.149512"><ele>171.72</ele><time>2026-08-12T09:31:46Z</time></trkpt>
<trkpt lat="34.812835" lon="134.149417"><ele>168.84</ele><time>2026-08-12T09:31:52Z</time></trkpt>
<trkpt lat="34.812824" lon="134.149402"><ele>168.84</ele><time>2026-08-12T09:31:54Z</time></trkpt>
<trkpt lat="34.812817" lon="134.149399"><ele>168.84</ele><time>2026-08-12T09:31:55Z</time></trkpt>
<trkpt lat="34.812807" lon="134.149396"><ele>168.44</ele><time>2026-08-12T09:31:57Z</time></trkpt>
<trkpt lat="34.812806" lon="134.149392"><ele>168.44</ele><time>2026-08-12T09:31:58Z</time></trkpt>
<trkpt lat="34.8128" lon="134.149358"><ele>167.17</ele><time>2026-08-12T09:32:03Z</time></trkpt>
<trkpt lat="34.812793" lon="134.149348"><ele>167.17</ele><time>2026-08-12T09:32:04Z</time></trkpt>
<trkpt lat="34.812774" lon="134.149333"><ele>165.85</ele><time>2026-08-12T09:32:06Z</time></trkpt>
<trkpt lat="34.812755" lon="134.14931"><ele>164.93</ele><time>2026-08-12T09:32:08Z</time></trkpt>
<trkpt lat="34.812747" lon="134.14928"><ele>163.92</ele><time>2026-08-12T09:32:10Z</time></trkpt>
<trkpt lat="34.812744" lon="134.149266"><ele>162.87</ele><time>2026-08-12T09:32:11Z</time></trkpt>
<trkpt lat="34.812737" lon="134.149235"><ele>162.19</ele><time>2026-08-12T09:32:13Z</time></trkpt>
<trkpt lat="34.812719" lon="134.149188"><ele>161.32</ele><time>2026-08-12T09:32:16Z</time></trkpt>
<trkpt lat="34.812708" lon="134.149158"><ele>160.08</ele><time>2026-08-12T09:32:18Z</time></trkpt>
<trkpt lat="34.812691" lon="134.149115"><ele>159.25</ele><time>2026-08-12T09:32:21Z</time></trkpt>
<trkpt lat="34.812666" lon="134.149072"><ele>157.53</ele><time>2026-08-12T09:32:24Z</time></trkpt>
<trkpt lat="34.81264" lon="134.149014"><ele>156.37</ele><time>2026-08-12T09:32:27Z</time></trkpt>
<trkpt lat="34.812611" lon="134.148974"><ele>155.8</ele><time>2026-08-12T09:32:29Z</time></trkpt>
<trkpt lat="34.812599" lon="134.148951"><ele>155.6</ele><time>2026-08-12T09:32:30Z</time></trkpt>
<trkpt lat="34.812575" lon="134.148893"><ele>154.61</ele><time>2026-08-12T09:32:32Z</time></trkpt>
<trkpt lat="34.812547" lon="134.148837"><ele>153.98</ele><time>2026-08-12T09:32:34Z</time></trkpt>
<trkpt lat="34.812534" lon="134.148812"><ele>153.76</ele><time>2026-08-12T09:32:35Z</time></trkpt>
<trkpt lat="34.812464" lon="134.148691"><ele>152.97</ele><time>2026-08-12T09:32:40Z</time></trkpt>
<trkpt lat="34.812408" lon="134.148584"><ele>155.0</ele><time>2026-08-12T09:32:45Z</time></trkpt>
<trkpt lat="34.812391" lon="134.148542"><ele>155.44</ele><time>2026-08-12T09:32:47Z</time></trkpt>
<trkpt lat="34.812383" lon="134.148502"><ele>156.48</ele><time>2026-08-12T09:32:49Z</time></trkpt>
<trkpt lat="34.812374" lon="134.148482"><ele>156.48</ele><time>2026-08-12T09:32:50Z</time></trkpt>
<trkpt lat="34.812362" lon="134.148467"><ele>157.13</ele><time>2026-08-12T09:32:51Z</time></trkpt>
<trkpt lat="34.81235" lon="134.148448"><ele>157.11</ele><time>2026-08-12T09:32:52Z</time></trkpt>
<trkpt lat="34.812338" lon="134.148426"><ele>157.91</ele><time>2026-08-12T09:32:53Z</time></trkpt>
<trkpt lat="34.812294" lon="134.148368"><ele>158.48</ele><time>2026-08-12T09:32:56Z</time></trkpt>
<trkpt lat="34.812228" lon="134.148289"><ele>158.27</ele><time>2026-08-12T09:33:01Z</time></trkpt>
<trkpt lat="34.812209" lon="134.148259"><ele>159.52</ele><time>2026-08-12T09:33:05Z</time></trkpt>
<trkpt lat="34.812192" lon="134.148243"><ele>159.52</ele><time>2026-08-12T09:33:08Z</time></trkpt>
<trkpt lat="34.812182" lon="134.148233"><ele>159.58</ele><time>2026-08-12T09:33:11Z</time></trkpt>
<trkpt lat="34.812162" lon="134.148213"><ele>161.41</ele><time>2026-08-12T09:33:15Z</time></trkpt>
<trkpt lat="34.812159" lon="134.148207"><ele>161.41</ele><time>2026-08-12T09:33:16Z</time></trkpt>
<trkpt lat="34.812155" lon="134.1482"><ele>161.41</ele><time>2026-08-12T09:33:17Z</time></trkpt>
<trkpt lat="34.812141" lon="134.148194"><ele>162.15</ele><time>2026-08-12T09:33:20Z</time></trkpt>
<trkpt lat="34.812119" lon="134.148188"><ele>162.15</ele><time>2026-08-12T09:33:24Z</time></trkpt>
<trkpt lat="34.812102" lon="134.14819"><ele>162.4</ele><time>2026-08-12T09:33:26Z</time></trkpt>
<trkpt lat="34.812091" lon="134.148162"><ele>164.6</ele><time>2026-08-12T09:33:30Z</time></trkpt>
<trkpt lat="34.812089" lon="134.148157"><ele>164.6</ele><time>2026-08-12T09:33:31Z</time></trkpt>
<trkpt lat="34.812083" lon="134.14812"><ele>165.73</ele><time>2026-08-12T09:33:36Z</time></trkpt>
<trkpt lat="34.812074" lon="134.148112"><ele>167.17</ele><time>2026-08-12T09:33:38Z</time></trkpt>
<trkpt lat="34.812066" lon="134.148106"><ele>167.17</ele><time>2026-08-12T09:33:42Z</time></trkpt>
<trkpt lat="34.812064" lon="134.148107"><ele>167.17</ele><time>2026-08-12T09:33:43Z</time></trkpt>
<trkpt lat="34.812055" lon="134.148106"><ele>167.17</ele><time>2026-08-12T09:33:46Z</time></trkpt>
<trkpt lat="34.812037" lon="134.148083"><ele>169.85</ele><time>2026-08-12T09:33:51Z</time></trkpt>
<trkpt lat="34.812036" lon="134.14808"><ele>169.85</ele><time>2026-08-12T09:33:52Z</time></trkpt>
<trkpt lat="34.812022" lon="134.148065"><ele>169.85</ele><time>2026-08-12T09:33:57Z</time></trkpt>
<trkpt lat="34.812008" lon="134.148054"><ele>169.85</ele><time>2026-08-12T09:34:00Z</time></trkpt>
<trkpt lat="34.812" lon="134.14804"><ele>171.66</ele><time>2026-08-12T09:34:02Z</time></trkpt>
<trkpt lat="34.811978" lon="134.148021"><ele>171.66</ele><time>2026-08-12T09:34:06Z</time></trkpt>
<trkpt lat="34.811974" lon="134.148009"><ele>171.66</ele><time>2026-08-12T09:34:08Z</time></trkpt>
<trkpt lat="34.811969" lon="134.148004"><ele>171.97</ele><time>2026-08-12T09:34:09Z</time></trkpt>
<trkpt lat="34.811924" lon="134.147993"><ele>173.17</ele><time>2026-08-12T09:34:14Z</time></trkpt>
<trkpt lat="34.811861" lon="134.147994"><ele>170.78</ele><time>2026-08-12T09:34:23Z</time></trkpt>
<trkpt lat="34.811853" lon="134.147983"><ele>170.78</ele><time>2026-08-12T09:34:25Z</time></trkpt>
<trkpt lat="34.811848" lon="134.147981"><ele>170.78</ele><time>2026-08-12T09:34:26Z</time></trkpt>
<trkpt lat="34.811829" lon="134.147974"><ele>169.06</ele><time>2026-08-12T09:34:30Z</time></trkpt>
<trkpt lat="34.81182" lon="134.147974"><ele>169.06</ele><time>2026-08-12T09:34:31Z</time></trkpt>
<trkpt lat="34.811804" lon="134.147979"><ele>169.06</ele><time>2026-08-12T09:34:33Z</time></trkpt>
<trkpt lat="34.811781" lon="134.147995"><ele>167.46</ele><time>2026-08-12T09:34:36Z</time></trkpt>
<trkpt lat="34.811757" lon="134.148002"><ele>164.85</ele><time>2026-08-12T09:34:39Z</time></trkpt>
<trkpt lat="34.811732" lon="134.148003"><ele>164.85</ele><time>2026-08-12T09:34:42Z</time></trkpt>
<trkpt lat="34.811712" lon="134.148005"><ele>163.38</ele><time>2026-08-12T09:34:45Z</time></trkpt>
<trkpt lat="34.81169" lon="134.148016"><ele>163.38</ele><time>2026-08-12T09:34:48Z</time></trkpt>
<trkpt lat="34.811665" lon="134.148021"><ele>161.93</ele><time>2026-08-12T09:34:51Z</time></trkpt>
<trkpt lat="34.811659" lon="134.148022"><ele>161.93</ele><time>2026-08-12T09:34:52Z</time></trkpt>
<trkpt lat="34.811646" lon="134.148045"><ele>159.29</ele><time>2026-08-12T09:34:56Z</time></trkpt>
<trkpt lat="34.811638" lon="134.148045"><ele>159.29</ele><time>2026-08-12T09:34:57Z</time></trkpt>
<trkpt lat="34.811618" lon="134.148045"><ele>158.12</ele><time>2026-08-12T09:34:59Z</time></trkpt>
<trkpt lat="34.811595" lon="134.148049"><ele>158.12</ele><time>2026-08-12T09:35:02Z</time></trkpt>
<trkpt lat="34.811583" lon="134.148054"><ele>156.89</ele><time>2026-08-12T09:35:04Z</time></trkpt>
<trkpt lat="34.811569" lon="134.148064"><ele>156.89</ele><time>2026-08-12T09:35:06Z</time></trkpt>
<trkpt lat="34.811558" lon="134.148068"><ele>156.89</ele><time>2026-08-12T09:35:07Z</time></trkpt>
<trkpt lat="34.81152" lon="134.148083"><ele>155.61</ele><time>2026-08-12T09:35:11Z</time></trkpt>
<trkpt lat="34.8115" lon="134.148097"><ele>153.46</ele><time>2026-08-12T09:35:13Z</time></trkpt>
<trkpt lat="34.811463" lon="134.148109"><ele>152.2</ele><time>2026-08-12T09:35:16Z</time></trkpt>
<trkpt lat="34.811424" lon="134.148128"><ele>150.98</ele><time>2026-08-12T09:35:19Z</time></trkpt>
<trkpt lat="34.811407" lon="134.148124"><ele>150.0</ele><time>2026-08-12T09:35:20Z</time></trkpt>
<trkpt lat="34.811368" lon="134.148123"><ele>149.09</ele><time>2026-08-12T09:35:22Z</time></trkpt>
<trkpt lat="34.811302" lon="134.148151"><ele>148.13</ele><time>2026-08-12T09:35:25Z</time></trkpt>
<trkpt lat="34.811267" lon="134.148173"><ele>147.53</ele><time>2026-08-12T09:35:27Z</time></trkpt>
<trkpt lat="34.811244" lon="134.148186"><ele>147.02</ele><time>2026-08-12T09:35:28Z</time></trkpt>
<trkpt lat="34.811166" lon="134.148207"><ele>146.97</ele><time>2026-08-12T09:35:31Z</time></trkpt>
<trkpt lat="34.811044" lon="134.148172"><ele>146.54</ele><time>2026-08-12T09:35:36Z</time></trkpt>
<trkpt lat="34.811006" lon="134.148146"><ele>146.58</ele><time>2026-08-12T09:35:38Z</time></trkpt>
<trkpt lat="34.810986" lon="134.148132"><ele>146.58</ele><time>2026-08-12T09:35:39Z</time></trkpt>
<trkpt lat="34.810965" lon="134.148117"><ele>146.65</ele><time>2026-08-12T09:35:40Z</time></trkpt>
<trkpt lat="34.810913" lon="134.148074"><ele>146.93</ele><time>2026-08-12T09:35:43Z</time></trkpt>
<trkpt lat="34.810866" lon="134.148051"><ele>147.22</ele><time>2026-08-12T09:35:45Z</time></trkpt>
<trkpt lat="34.810846" lon="134.14804"><ele>147.78</ele><time>2026-08-12T09:35:46Z</time></trkpt>
<trkpt lat="34.810797" lon="134.148003"><ele>147.95</ele><time>2026-08-12T09:35:49Z</time></trkpt>
<trkpt lat="34.810778" lon="134.147991"><ele>148.89</ele><time>2026-08-12T09:35:50Z</time></trkpt>
<trkpt lat="34.81075" lon="134.147965"><ele>149.23</ele><time>2026-08-12T09:35:52Z</time></trkpt>
<trkpt lat="34.810733" lon="134.147947"><ele>150.29</ele><time>2026-08-12T09:35:53Z</time></trkpt>
<trkpt lat="34.8107" lon="134.147918"><ele>150.54</ele><time>2026-08-12T09:35:55Z</time></trkpt>
<trkpt lat="34.810684" lon="134.147904"><ele>151.68</ele><time>2026-08-12T09:35:56Z</time></trkpt>
<trkpt lat="34.810647" lon="134.147894"><ele>152.08</ele><time>2026-08-12T09:35:58Z</time></trkpt>
<trkpt lat="34.810611" lon="134.147879"><ele>152.18</ele><time>2026-08-12T09:36:00Z</time></trkpt>
<trkpt lat="34.810589" lon="134.147873"><ele>152.13</ele><time>2026-08-12T09:36:01Z</time></trkpt>
<trkpt lat="34.81051" lon="134.147841"><ele>153.71</ele><time>2026-08-12T09:36:05Z</time></trkpt>
<trkpt lat="34.810488" lon="134.147828"><ele>155.05</ele><time>2026-08-12T09:36:06Z</time></trkpt>
<trkpt lat="34.810469" lon="134.14782"><ele>155.05</ele><time>2026-08-12T09:36:07Z</time></trkpt>
<trkpt lat="34.810438" lon="134.147814"><ele>155.25</ele><time>2026-08-12T09:36:09Z</time></trkpt>
<trkpt lat="34.81043" lon="134.147816"><ele>155.25</ele><time>2026-08-12T09:36:10Z</time></trkpt>
<trkpt lat="34.810412" lon="134.14781"><ele>155.44</ele><time>2026-08-12T09:36:12Z</time></trkpt>
<trkpt lat="34.810379" lon="134.1478"><ele>155.62</ele><time>2026-08-12T09:36:17Z</time></trkpt>
<trkpt lat="34.810371" lon="134.147797"><ele>155.62</ele><time>2026-08-12T09:36:18Z</time></trkpt>
<trkpt lat="34.810365" lon="134.147796"><ele>155.62</ele><time>2026-08-12T09:36:19Z</time></trkpt>
<trkpt lat="34.810335" lon="134.147781"><ele>157.87</ele><time>2026-08-12T09:36:24Z</time></trkpt>
<trkpt lat="34.810294" lon="134.147761"><ele>158.36</ele><time>2026-08-12T09:36:29Z</time></trkpt>
<trkpt lat="34.810257" lon="134.147738"><ele>159.92</ele><time>2026-08-12T09:36:36Z</time></trkpt>
<trkpt lat="34.810249" lon="134.147733"><ele>159.92</ele><time>2026-08-12T09:36:38Z</time></trkpt>
<trkpt lat="34.810236" lon="134.147722"><ele>160.59</ele><time>2026-08-12T09:36:41Z</time></trkpt>
<trkpt lat="34.81021" lon="134.147713"><ele>160.59</ele><time>2026-08-12T09:36:47Z</time></trkpt>
<trkpt lat="34.810183" lon="134.147708"><ele>161.13</ele><time>2026-08-12T09:36:52Z</time></trkpt>
<trkpt lat="34.810161" lon="134.147701"><ele>163.66</ele><time>2026-08-12T09:36:57Z</time></trkpt>
<trkpt lat="34.810155" lon="134.147701"><ele>163.66</ele><time>2026-08-12T09:36:59Z</time></trkpt>
<trkpt lat="34.810147" lon="134.147691"><ele>163.66</ele><time>2026-08-12T09:37:01Z</time></trkpt>
<trkpt lat="34.810119" lon="134.147674"><ele>164.64</ele><time>2026-08-12T09:37:05Z</time></trkpt>
<trkpt lat="34.810112" lon="134.147673"><ele>164.64</ele><time>2026-08-12T09:37:06Z</time></trkpt>
<trkpt lat="34.810089" lon="134.147662"><ele>165.32</ele><time>2026-08-12T09:37:10Z</time></trkpt>
<trkpt lat="34.81008" lon="134.147641"><ele>167.06</ele><time>2026-08-12T09:37:13Z</time></trkpt>
<trkpt lat="34.810065" lon="134.147622"><ele>167.12</ele><time>2026-08-12T09:37:15Z</time></trkpt>
<trkpt lat="34.810059" lon="134.14761"><ele>167.85</ele><time>2026-08-12T09:37:16Z</time></trkpt>
<trkpt lat="34.810045" lon="134.147583"><ele>167.85</ele><time>2026-08-12T09:37:19Z</time></trkpt>
<trkpt lat="34.810035" lon="134.147553"><ele>167.7</ele><time>2026-08-12T09:37:21Z</time></trkpt>
<trkpt lat="34.810029" lon="134.147541"><ele>167.57</ele><time>2026-08-12T09:37:22Z</time></trkpt>
<trkpt lat="34.810012" lon="134.147521"><ele>167.35</ele><time>2026-08-12T09:37:24Z</time></trkpt>
<trkpt lat="34.810007" lon="134.147504"><ele>167.35</ele><time>2026-08-12T09:37:25Z</time></trkpt>
<trkpt lat="34.810005" lon="134.147482"><ele>166.92</ele><time>2026-08-12T09:37:26Z</time></trkpt>
<trkpt lat="34.810001" lon="134.147455"><ele>166.92</ele><time>2026-08-12T09:37:27Z</time></trkpt>
<trkpt lat="34.81" lon="134.147427"><ele>166.39</ele><time>2026-08-12T09:37:28Z</time></trkpt>
<trkpt lat="34.809998" lon="134.147401"><ele>166.39</ele><time>2026-08-12T09:37:29Z</time></trkpt>
<trkpt lat="34.809997" lon="134.147297"><ele>165.55</ele><time>2026-08-12T09:37:35Z</time></trkpt>
<trkpt lat="34.809984" lon="134.147219"><ele>165.96</ele><time>2026-08-12T09:37:41Z</time></trkpt>
<trkpt lat="34.809969" lon="134.147131"><ele>167.14</ele><time>2026-08-12T09:37:48Z</time></trkpt>
<trkpt lat="34.809987" lon="134.147092"><ele>167.67</ele><time>2026-08-12T09:37:51Z</time></trkpt>
<trkpt lat="34.809987" lon="134.147059"><ele>167.67</ele><time>2026-08-12T09:37:54Z</time></trkpt>
<trkpt lat="34.809985" lon="134.147049"><ele>168.28</ele><time>2026-08-12T09:37:55Z</time></trkpt>
<trkpt lat="34.809988" lon="134.147002"><ele>168.85</ele><time>2026-08-12T09:37:59Z</time></trkpt>
<trkpt lat="34.80999" lon="134.146987"><ele>168.85</ele><time>2026-08-12T09:38:00Z</time></trkpt>
<trkpt lat="34.809994" lon="134.146975"><ele>168.85</ele><time>2026-08-12T09:38:01Z</time></trkpt>
<trkpt lat="34.809975" lon="134.146937"><ele>169.37</ele><time>2026-08-12T09:38:04Z</time></trkpt>
<trkpt lat="34.809949" lon="134.146899"><ele>169.38</ele><time>2026-08-12T09:38:06Z</time></trkpt>
<trkpt lat="34.809895" lon="134.146821"><ele>169.97</ele><time>2026-08-12T09:38:10Z</time></trkpt>
<trkpt lat="34.809866" lon="134.146751"><ele>170.05</ele><time>2026-08-12T09:38:13Z</time></trkpt>
<trkpt lat="34.809841" lon="134.146683"><ele>170.29</ele><time>2026-08-12T09:38:16Z</time></trkpt>
<trkpt lat="34.809809" lon="134.146592"><ele>171.16</ele><time>2026-08-12T09:38:21Z</time></trkpt>
<trkpt lat="34.80981" lon="134.146589"><ele>171.16</ele><time>2026-08-12T09:38:22Z</time></trkpt>
<trkpt lat="34.809806" lon="134.146561"><ele>171.96</ele><time>2026-08-12T09:38:27Z</time></trkpt>
<trkpt lat="34.809795" lon="134.146538"><ele>172.86</ele><time>2026-08-12T09:38:29Z</time></trkpt>
<trkpt lat="34.809775" lon="134.146513"><ele>172.47</ele><time>2026-08-12T09:38:32Z</time></trkpt>
<trkpt lat="34.809768" lon="134.146495"><ele>174.12</ele><time>2026-08-12T09:38:34Z</time></trkpt>
<trkpt lat="34.809754" lon="134.146447"><ele>175.34</ele><time>2026-08-12T09:38:38Z</time></trkpt>
<trkpt lat="34.809739" lon="134.146429"><ele>174.99</ele><time>2026-08-12T09:38:40Z</time></trkpt>
<trkpt lat="34.809715" lon="134.146444"><ele>173.35</ele><time>2026-08-12T09:38:46Z</time></trkpt>
<trkpt lat="34.809711" lon="134.146446"><ele>173.35</ele><time>2026-08-12T09:38:47Z</time></trkpt>
<trkpt lat="34.809696" lon="134.146438"><ele>173.35</ele><time>2026-08-12T09:38:50Z</time></trkpt>
<trkpt lat="34.80969" lon="134.146439"><ele>173.35</ele><time>2026-08-12T09:38:52Z</time></trkpt>
<trkpt lat="34.809684" lon="134.146435"><ele>173.35</ele><time>2026-08-12T09:38:53Z</time></trkpt>
<trkpt lat="34.809664" lon="134.146448"><ele>170.95</ele><time>2026-08-12T09:38:57Z</time></trkpt>
<trkpt lat="34.809661" lon="134.146449"><ele>170.95</ele><time>2026-08-12T09:38:58Z</time></trkpt>
<trkpt lat="34.809655" lon="134.146436"><ele>170.95</ele><time>2026-08-12T09:39:01Z</time></trkpt>
<trkpt lat="34.809647" lon="134.146437"><ele>170.95</ele><time>2026-08-12T09:39:04Z</time></trkpt>
<trkpt lat="34.809638" lon="134.146438"><ele>168.6</ele><time>2026-08-12T09:39:05Z</time></trkpt>
<trkpt lat="34.809597" lon="134.146433"><ele>166.58</ele><time>2026-08-12T09:39:08Z</time></trkpt>
<trkpt lat="34.809566" lon="134.146434"><ele>165.57</ele><time>2026-08-12T09:39:10Z</time></trkpt>
<trkpt lat="34.809501" lon="134.146458"><ele>162.97</ele><time>2026-08-12T09:39:13Z</time></trkpt>
<trkpt lat="34.809453" lon="134.146469"><ele>163.11</ele><time>2026-08-12T09:39:15Z</time></trkpt>
<trkpt lat="34.809431" lon="134.146471"><ele>163.62</ele><time>2026-08-12T09:39:16Z</time></trkpt>
<trkpt lat="34.809392" lon="134.146482"><ele>163.91</ele><time>2026-08-12T09:39:18Z</time></trkpt>
<trkpt lat="34.809378" lon="134.146481"><ele>163.91</ele><time>2026-08-12T09:39:19Z</time></trkpt>
<trkpt lat="34.80935" lon="134.146484"><ele>163.88</ele><time>2026-08-12T09:39:22Z</time></trkpt>
<trkpt lat="34.80934" lon="134.146483"><ele>163.88</ele><time>2026-08-12T09:39:23Z</time></trkpt>
<trkpt lat="34.809294" lon="134.146486"><ele>163.42</ele><time>2026-08-12T09:39:27Z</time></trkpt>
<trkpt lat="34.809283" lon="134.146486"><ele>162.59</ele><time>2026-08-12T09:39:28Z</time></trkpt>
<trkpt lat="34.809252" lon="134.146473"><ele>161.5</ele><time>2026-08-12T09:39:31Z</time></trkpt>
<trkpt lat="34.809219" lon="134.146468"><ele>159.88</ele><time>2026-08-12T09:39:34Z</time></trkpt>
<trkpt lat="34.809196" lon="134.146465"><ele>159.88</ele><time>2026-08-12T09:39:36Z</time></trkpt>
<trkpt lat="34.809182" lon="134.146466"><ele>158.08</ele><time>2026-08-12T09:39:37Z</time></trkpt>
<trkpt lat="34.80913" lon="134.146465"><ele>156.19</ele><time>2026-08-12T09:39:40Z</time></trkpt>
<trkpt lat="34.80909" lon="134.146448"><ele>156.04</ele><time>2026-08-12T09:39:42Z</time></trkpt>
<trkpt lat="34.809068" lon="134.146436"><ele>154.39</ele><time>2026-08-12T09:39:43Z</time></trkpt>
<trkpt lat="34.809023" lon="134.146409"><ele>154.57</ele><time>2026-08-12T09:39:45Z</time></trkpt>
<trkpt lat="34.808965" lon="134.146374"><ele>152.1</ele><time>2026-08-12T09:39:49Z</time></trkpt>
<trkpt lat="34.808958" lon="134.146363"><ele>153.97</ele><time>2026-08-12T09:39:50Z</time></trkpt>
<trkpt lat="34.808952" lon="134.146352"><ele>153.97</ele><time>2026-08-12T09:39:51Z</time></trkpt>
<trkpt lat="34.808943" lon="134.146345"><ele>153.97</ele><time>2026-08-12T09:39:52Z</time></trkpt>
<trkpt lat="34.808926" lon="134.14634"><ele>152.99</ele><time>2026-08-12T09:39:54Z</time></trkpt>
<trkpt lat="34.80889" lon="134.146358"><ele>151.97</ele><time>2026-08-12T09:39:58Z</time></trkpt>
<trkpt lat="34.808873" lon="134.14636"><ele>151.97</ele><time>2026-08-12T09:40:00Z</time></trkpt>
<trkpt lat="34.808864" lon="134.146364"><ele>150.87</ele><time>2026-08-12T09:40:01Z</time></trkpt>
<trkpt lat="34.80884" lon="134.146365"><ele>150.87</ele><time>2026-08-12T09:40:03Z</time></trkpt>
<trkpt lat="34.808832" lon="134.146363"><ele>149.53</ele><time>2026-08-12T09:40:04Z</time></trkpt>
<trkpt lat="34.808828" lon="134.146365"><ele>149.53</ele><time>2026-08-12T09:40:05Z</time></trkpt>
<trkpt lat="34.808822" lon="134.146375"><ele>147.69</ele><time>2026-08-12T09:40:07Z</time></trkpt>
<trkpt lat="34.808787" lon="134.146378"><ele>146.24</ele><time>2026-08-12T09:40:10Z</time></trkpt>
<trkpt lat="34.808779" lon="134.146376"><ele>146.24</ele><time>2026-08-12T09:40:11Z</time></trkpt>
<trkpt lat="34.808769" lon="134.146374"><ele>146.24</ele><time>2026-08-12T09:40:14Z</time></trkpt>
<trkpt lat="34.808755" lon="134.146383"><ele>144.72</ele><time>2026-08-12T09:40:18Z</time></trkpt>
<trkpt lat="34.808752" lon="134.146384"><ele>144.72</ele><time>2026-08-12T09:40:19Z</time></trkpt>
<trkpt lat="34.80873" lon="134.146406"><ele>144.72</ele><time>2026-08-12T09:40:23Z</time></trkpt>
<trkpt lat="34.808699" lon="134.146405"><ele>143.51</ele><time>2026-08-12T09:40:25Z</time></trkpt>
<trkpt lat="34.808681" lon="134.146406"><ele>142.5</ele><time>2026-08-12T09:40:26Z</time></trkpt>
<trkpt lat="34.808638" lon="134.146415"><ele>139.71</ele><time>2026-08-12T09:40:29Z</time></trkpt>
<trkpt lat="34.808609" lon="134.146409"><ele>140.83</ele><time>2026-08-12T09:40:32Z</time></trkpt>
<trkpt lat="34.808599" lon="134.14641"><ele>140.83</ele><time>2026-08-12T09:40:33Z</time></trkpt>
<trkpt lat="34.808581" lon="134.146417"><ele>138.91</ele><time>2026-08-12T09:40:35Z</time></trkpt>
<trkpt lat="34.808534" lon="134.146431"><ele>138.74</ele><time>2026-08-12T09:40:38Z</time></trkpt>
<trkpt lat="34.808511" lon="134.14644"><ele>138.83</ele><time>2026-08-12T09:40:39Z</time></trkpt>
<trkpt lat="34.808418" lon="134.146489"><ele>139.28</ele><time>2026-08-12T09:40:44Z</time></trkpt>
<trkpt lat="34.808388" lon="134.14651"><ele>138.68</ele><time>2026-08-12T09:40:46Z</time></trkpt>
<trkpt lat="34.808361" lon="134.146523"><ele>140.34</ele><time>2026-08-12T09:40:48Z</time></trkpt>
<trkpt lat="34.808322" lon="134.146539"><ele>142.01</ele><time>2026-08-12T09:40:51Z</time></trkpt>
<trkpt lat="34.808293" lon="134.146555"><ele>141.73</ele><time>2026-08-12T09:40:53Z</time></trkpt>
<trkpt lat="34.80828" lon="134.146561"><ele>141.73</ele><time>2026-08-12T09:40:54Z</time></trkpt>
<trkpt lat="34.808235" lon="134.146557"><ele>145.49</ele><time>2026-08-12T09:40:57Z</time></trkpt>
<trkpt lat="34.808211" lon="134.146555"><ele>145.49</ele><time>2026-08-12T09:40:59Z</time></trkpt>
<trkpt lat="34.8082" lon="134.146554"><ele>147.39</ele><time>2026-08-12T09:41:00Z</time></trkpt>
<trkpt lat="34.808191" lon="134.146553"><ele>147.39</ele><time>2026-08-12T09:41:01Z</time></trkpt>
<trkpt lat="34.808176" lon="134.146556"><ele>147.39</ele><time>2026-08-12T09:41:05Z</time></trkpt>
<trkpt lat="34.808171" lon="134.146558"><ele>147.39</ele><time>2026-08-12T09:41:06Z</time></trkpt>
<trkpt lat="34.808153" lon="134.146562"><ele>149.48</ele><time>2026-08-12T09:41:10Z</time></trkpt>
<trkpt lat="34.808142" lon="134.146574"><ele>149.48</ele><time>2026-08-12T09:41:14Z</time></trkpt>
<trkpt lat="34.80814" lon="134.146574"><ele>149.48</ele><time>2026-08-12T09:41:15Z</time></trkpt>
<trkpt lat="34.808136" lon="134.146574"><ele>149.48</ele><time>2026-08-12T09:41:19Z</time></trkpt>
<trkpt lat="34.80813" lon="134.146569"><ele>151.38</ele><time>2026-08-12T09:41:22Z</time></trkpt>
<trkpt lat="34.808118" lon="134.146572"><ele>151.38</ele><time>2026-08-12T09:41:25Z</time></trkpt>
<trkpt lat="34.808086" lon="134.146573"><ele>153.13</ele><time>2026-08-12T09:41:30Z</time></trkpt>
<trkpt lat="34.808067" lon="134.146569"><ele>153.13</ele><time>2026-08-12T09:41:34Z</time></trkpt>
<trkpt lat="34.808061" lon="134.146568"><ele>153.13</ele><time>2026-08-12T09:41:35Z</time></trkpt>
<trkpt lat="34.808026" lon="134.14658"><ele>154.43</ele><time>2026-08-12T09:41:42Z</time></trkpt>
<trkpt lat="34.808022" lon="134.146582"><ele>155.38</ele><time>2026-08-12T09:41:43Z</time></trkpt>
<trkpt lat="34.808006" lon="134.146588"><ele>155.08</ele><time>2026-08-12T09:41:45Z</time></trkpt>
<trkpt lat="34.807998" lon="134.146591"><ele>155.08</ele><time>2026-08-12T09:41:46Z</time></trkpt>
<trkpt lat="34.807969" lon="134.146603"><ele>156.46</ele><time>2026-08-12T09:41:51Z</time></trkpt>
<trkpt lat="34.807934" lon="134.146628"><ele>157.24</ele><time>2026-08-12T09:41:58Z</time></trkpt>
<trkpt lat="34.807928" lon="134.14663"><ele>157.21</ele><time>2026-08-12T09:41:59Z</time></trkpt>
<trkpt lat="34.807917" lon="134.14664"><ele>158.38</ele><time>2026-08-12T09:42:01Z</time></trkpt>
<trkpt lat="34.807881" lon="134.14668"><ele>159.26</ele><time>2026-08-12T09:42:07Z</time></trkpt>
<trkpt lat="34.80787" lon="134.146695"><ele>159.26</ele><time>2026-08-12T09:42:09Z</time></trkpt>
<trkpt lat="34.80783" lon="134.146724"><ele>159.35</ele><time>2026-08-12T09:42:14Z</time></trkpt>
<trkpt lat="34.80781" lon="134.146746"><ele>160.49</ele><time>2026-08-12T09:42:17Z</time></trkpt>
<trkpt lat="34.807781" lon="134.146788"><ele>159.6</ele><time>2026-08-12T09:42:22Z</time></trkpt>
<trkpt lat="34.807749" lon="134.146813"><ele>159.82</ele><time>2026-08-12T09:42:26Z</time></trkpt>
<trkpt lat="34.807741" lon="134.146828"><ele>161.65</ele><time>2026-08-12T09:42:28Z</time></trkpt>
<trkpt lat="34.807738" lon="134.146831"><ele>161.65</ele><time>2026-08-12T09:42:29Z</time></trkpt>
<trkpt lat="34.807714" lon="134.146852"><ele>161.04</ele><time>2026-08-12T09:42:33Z</time></trkpt>
<trkpt lat="34.80771" lon="134.146859"><ele>161.04</ele><time>2026-08-12T09:42:34Z</time></trkpt>
<trkpt lat="34.807692" lon="134.146883"><ele>163.5</ele><time>2026-08-12T09:42:39Z</time></trkpt>
<trkpt lat="34.807689" lon="134.146887"><ele>163.03</ele><time>2026-08-12T09:42:40Z</time></trkpt>
<trkpt lat="34.807654" lon="134.146913"><ele>164.86</ele><time>2026-08-12T09:42:44Z</time></trkpt>
<trkpt lat="34.807646" lon="134.146924"><ele>164.86</ele><time>2026-08-12T09:42:45Z</time></trkpt>
<trkpt lat="34.807623" lon="134.146949"><ele>165.67</ele><time>2026-08-12T09:42:47Z</time></trkpt>
<trkpt lat="34.807519" lon="134.147037"><ele>165.46</ele><time>2026-08-12T09:42:54Z</time></trkpt>
<trkpt lat="34.807447" lon="134.147115"><ele>162.91</ele><time>2026-08-12T09:42:59Z</time></trkpt>
<trkpt lat="34.807416" lon="134.147153"><ele>161.78</ele><time>2026-08-12T09:43:01Z</time></trkpt>
<trkpt lat="34.807365" lon="134.147201"><ele>160.99</ele><time>2026-08-12T09:43:04Z</time></trkpt>
<trkpt lat="34.807298" lon="134.147271"><ele>161.72</ele><time>2026-08-12T09:43:08Z</time></trkpt>
<trkpt lat="34.80721" lon="134.147374"><ele>161.1</ele><time>2026-08-12T09:43:14Z</time></trkpt>
<trkpt lat="34.8072" lon="134.14737"><ele>161.1</ele><time>2026-08-12T09:43:15Z</time></trkpt>
<trkpt lat="34.807175" lon="134.14735"><ele>161.9</ele><time>2026-08-12T09:43:18Z</time></trkpt>
<trkpt lat="34.807164" lon="134.147337"><ele>161.9</ele><time>2026-08-12T09:43:21Z</time></trkpt>
<trkpt lat="34.807128" lon="134.147326"><ele>161.44</ele><time>2026-08-12T09:43:24Z</time></trkpt>
<trkpt lat="34.807109" lon="134.147318"><ele>161.44</ele><time>2026-08-12T09:43:26Z</time></trkpt>
<trkpt lat="34.8071" lon="134.147316"><ele>160.31</ele><time>2026-08-12T09:43:27Z</time></trkpt>
<trkpt lat="34.807068" lon="134.147306"><ele>157.95</ele><time>2026-08-12T09:43:30Z</time></trkpt>
<trkpt lat="34.807052" lon="134.147305"><ele>157.95</ele><time>2026-08-12T09:43:33Z</time></trkpt>
<trkpt lat="34.807038" lon="134.147297"><ele>155.91</ele><time>2026-08-12T09:43:35Z</time></trkpt>
<trkpt lat="34.807022" lon="134.14728"><ele>155.91</ele><time>2026-08-12T09:43:38Z</time></trkpt>
<trkpt lat="34.80701" lon="134.147267"><ele>155.43</ele><time>2026-08-12T09:43:41Z</time></trkpt>
<trkpt lat="34.807" lon="134.14725"><ele>152.98</ele><time>2026-08-12T09:43:46Z</time></trkpt>
<trkpt lat="34.806998" lon="134.147247"><ele>152.98</ele><time>2026-08-12T09:43:47Z</time></trkpt>
<trkpt lat="34.806998" lon="134.147243"><ele>152.98</ele><time>2026-08-12T09:43:48Z</time></trkpt>
<trkpt lat="34.806996" lon="134.147243"><ele>152.98</ele><time>2026-08-12T09:43:49Z</time></trkpt>
<trkpt lat="34.806984" lon="134.147237"><ele>152.98</ele><time>2026-08-12T09:43:51Z</time></trkpt>
<trkpt lat="34.806962" lon="134.147233"><ele>150.33</ele><time>2026-08-12T09:43:55Z</time></trkpt>
<trkpt lat="34.80694" lon="134.147217"><ele>149.53</ele><time>2026-08-12T09:43:58Z</time></trkpt>
<trkpt lat="34.806928" lon="134.147212"><ele>146.81</ele><time>2026-08-12T09:44:00Z</time></trkpt>
<trkpt lat="34.806918" lon="134.1472"><ele>146.81</ele><time>2026-08-12T09:44:01Z</time></trkpt>
<trkpt lat="34.806905" lon="134.147195"><ele>146.81</ele><time>2026-08-12T09:44:03Z</time></trkpt>
<trkpt lat="34.806886" lon="134.147194"><ele>144.37</ele><time>2026-08-12T09:44:06Z</time></trkpt>
<trkpt lat="34.806878" lon="134.147189"><ele>144.37</ele><time>2026-08-12T09:44:08Z</time></trkpt>
<trkpt lat="34.806866" lon="134.147168"><ele>143.57</ele><time>2026-08-12T09:44:11Z</time></trkpt>
<trkpt lat="34.806854" lon="134.147156"><ele>141.07</ele><time>2026-08-12T09:44:14Z</time></trkpt>
<trkpt lat="34.806848" lon="134.147153"><ele>141.07</ele><time>2026-08-12T09:44:15Z</time></trkpt>
<trkpt lat="34.806841" lon="134.147149"><ele>141.07</ele><time>2026-08-12T09:44:16Z</time></trkpt>
<trkpt lat="34.806823" lon="134.147134"><ele>137.88</ele><time>2026-08-12T09:44:19Z</time></trkpt>
<trkpt lat="34.806817" lon="134.147103"><ele>137.88</ele><time>2026-08-12T09:44:22Z</time></trkpt>
<trkpt lat="34.806815" lon="134.147093"><ele>137.26</ele><time>2026-08-12T09:44:23Z</time></trkpt>
<trkpt lat="34.806795" lon="134.147078"><ele>137.26</ele><time>2026-08-12T09:44:25Z</time></trkpt>
<trkpt lat="34.806779" lon="134.147074"><ele>135.25</ele><time>2026-08-12T09:44:27Z</time></trkpt>
<trkpt lat="34.806769" lon="134.147077"><ele>135.25</ele><time>2026-08-12T09:44:28Z</time></trkpt>
<trkpt lat="34.80675" lon="134.147064"><ele>133.29</ele><time>2026-08-12T09:44:30Z</time></trkpt>
<trkpt lat="34.806726" lon="134.147042"><ele>132.94</ele><time>2026-08-12T09:44:33Z</time></trkpt>
<trkpt lat="34.806711" lon="134.147033"><ele>131.12</ele><time>2026-08-12T09:44:35Z</time></trkpt>
<trkpt lat="34.806686" lon="134.147007"><ele>130.89</ele><time>2026-08-12T09:44:37Z</time></trkpt>
<trkpt lat="34.806676" lon="134.146984"><ele>129.19</ele><time>2026-08-12T09:44:38Z</time></trkpt>
<trkpt lat="34.806671" lon="134.146966"><ele>128.96</ele><time>2026-08-12T09:44:39Z</time></trkpt>
<trkpt lat="34.806654" lon="134.146944"><ele>128.96</ele><time>2026-08-12T09:44:41Z</time></trkpt>
<trkpt lat="34.806641" lon="134.146942"><ele>127.55</ele><time>2026-08-12T09:44:42Z</time></trkpt>
<trkpt lat="34.806582" lon="134.146939"><ele>126.34</ele><time>2026-08-12T09:44:45Z</time></trkpt>
<trkpt lat="34.806511" lon="134.146946"><ele>124.33</ele><time>2026-08-12T09:44:48Z</time></trkpt>
<trkpt lat="34.806487" lon="134.146958"><ele>123.92</ele><time>2026-08-12T09:44:49Z</time></trkpt>
<trkpt lat="34.806464" lon="134.146971"><ele>123.67</ele><time>2026-08-12T09:44:50Z</time></trkpt>
<trkpt lat="34.806424" lon="134.146992"><ele>123.5</ele><time>2026-08-12T09:44:52Z</time></trkpt>
<trkpt lat="34.806405" lon="134.147005"><ele>123.5</ele><time>2026-08-12T09:44:53Z</time></trkpt>
<trkpt lat="34.80639" lon="134.147013"><ele>124.0</ele><time>2026-08-12T09:44:54Z</time></trkpt>
<trkpt lat="34.806367" lon="134.147024"><ele>124.56</ele><time>2026-08-12T09:44:56Z</time></trkpt>
<trkpt lat="34.806353" lon="134.147027"><ele>124.56</ele><time>2026-08-12T09:44:57Z</time></trkpt>
<trkpt lat="34.80633" lon="134.147024"><ele>126.17</ele><time>2026-08-12T09:44:59Z</time></trkpt>
<trkpt lat="34.806308" lon="134.147019"><ele>126.17</ele><time>2026-08-12T09:45:01Z</time></trkpt>
<trkpt lat="34.806272" lon="134.147013"><ele>127.48</ele><time>2026-08-12T09:45:04Z</time></trkpt>
<trkpt lat="34.806242" lon="134.147022"><ele>129.49</ele><time>2026-08-12T09:45:07Z</time></trkpt>
<trkpt lat="34.806232" lon="134.147026"><ele>129.49</ele><time>2026-08-12T09:45:08Z</time></trkpt>
<trkpt lat="34.806223" lon="134.147039"><ele>131.37</ele><time>2026-08-12T09:45:10Z</time></trkpt>
<trkpt lat="34.80621" lon="134.147059"><ele>131.3</ele><time>2026-08-12T09:45:13Z</time></trkpt>
<trkpt lat="34.80618" lon="134.147059"><ele>133.31</ele><time>2026-08-12T09:45:16Z</time></trkpt>
<trkpt lat="34.806146" lon="134.147071"><ele>135.09</ele><time>2026-08-12T09:45:20Z</time></trkpt>
<trkpt lat="34.806143" lon="134.147075"><ele>135.09</ele><time>2026-08-12T09:45:22Z</time></trkpt>
<trkpt lat="34.806127" lon="134.147081"><ele>135.09</ele><time>2026-08-12T09:45:28Z</time></trkpt>
<trkpt lat="34.806124" lon="134.147083"><ele>135.09</ele><time>2026-08-12T09:45:29Z</time></trkpt>
<trkpt lat="34.806122" lon="134.147085"><ele>135.09</ele><time>2026-08-12T09:45:30Z</time></trkpt>
<trkpt lat="34.806103" lon="134.147088"><ele>136.79</ele><time>2026-08-12T09:45:35Z</time></trkpt>
<trkpt lat="34.806092" lon="134.147089"><ele>136.79</ele><time>2026-08-12T09:45:39Z</time></trkpt>
<trkpt lat="34.806082" lon="134.147099"><ele>138.29</ele><time>2026-08-12T09:45:42Z</time></trkpt>
<trkpt lat="34.806072" lon="134.147111"><ele>138.13</ele><time>2026-08-12T09:45:47Z</time></trkpt>
<trkpt lat="34.806062" lon="134.14712"><ele>138.13</ele><time>2026-08-12T09:45:49Z</time></trkpt>
<trkpt lat="34.806051" lon="134.147124"><ele>139.83</ele><time>2026-08-12T09:45:51Z</time></trkpt>
<trkpt lat="34.806038" lon="134.147131"><ele>139.83</ele><time>2026-08-12T09:45:55Z</time></trkpt>
<trkpt lat="34.806031" lon="134.147135"><ele>139.83</ele><time>2026-08-12T09:45:57Z</time></trkpt>
<trkpt lat="34.806031" lon="134.147139"><ele>139.83</ele><time>2026-08-12T09:45:58Z</time></trkpt>
<trkpt lat="34.806017" lon="134.147152"><ele>139.08</ele><time>2026-08-12T09:46:01Z</time></trkpt>
<trkpt lat="34.805984" lon="134.14716"><ele>141.06</ele><time>2026-08-12T09:46:05Z</time></trkpt>
<trkpt lat="34.805973" lon="134.147163"><ele>142.92</ele><time>2026-08-12T09:46:07Z</time></trkpt>
<trkpt lat="34.805954" lon="134.147168"><ele>142.92</ele><time>2026-08-12T09:46:11Z</time></trkpt>
<trkpt lat="34.805928" lon="134.14719"><ele>144.14</ele><time>2026-08-12T09:46:16Z</time></trkpt>
<trkpt lat="34.805922" lon="134.147194"><ele>144.14</ele><time>2026-08-12T09:46:17Z</time></trkpt>
<trkpt lat="34.805913" lon="134.147201"><ele>144.14</ele><time>2026-08-12T09:46:18Z</time></trkpt>
<trkpt lat="34.805896" lon="134.147207"><ele>145.73</ele><time>2026-08-12T09:46:20Z</time></trkpt>
<trkpt lat="34.805874" lon="134.147214"><ele>146.98</ele><time>2026-08-12T09:46:22Z</time></trkpt>
<trkpt lat="34.805861" lon="134.14722"><ele>146.98</ele><time>2026-08-12T09:46:23Z</time></trkpt>
<trkpt lat="34.805827" lon="134.147242"><ele>147.5</ele><time>2026-08-12T09:46:25Z</time></trkpt>
<trkpt lat="34.805745" lon="134.14729"><ele>147.39</ele><time>2026-08-12T09:46:30Z</time></trkpt>
<trkpt lat="34.805658" lon="134.147321"><ele>146.08</ele><time>2026-08-12T09:46:36Z</time></trkpt>
<trkpt lat="34.805644" lon="134.147325"><ele>146.08</ele><time>2026-08-12T09:46:37Z</time></trkpt>
<trkpt lat="34.80562" lon="134.14733"><ele>145.27</ele><time>2026-08-12T09:46:39Z</time></trkpt>
<trkpt lat="34.80561" lon="134.147329"><ele>145.27</ele><time>2026-08-12T09:46:40Z</time></trkpt>
<trkpt lat="34.80559" lon="134.147339"><ele>144.27</ele><time>2026-08-12T09:46:43Z</time></trkpt>
<trkpt lat="34.80558" lon="134.147345"><ele>144.27</ele><time>2026-08-12T09:46:44Z</time></trkpt>
<trkpt lat="34.805554" lon="134.147361"><ele>142.42</ele><time>2026-08-12T09:46:46Z</time></trkpt>
<trkpt lat="34.805536" lon="134.147367"><ele>142.42</ele><time>2026-08-12T09:46:47Z</time></trkpt>
<trkpt lat="34.805488" lon="134.147377"><ele>141.83</ele><time>2026-08-12T09:46:49Z</time></trkpt>
<trkpt lat="34.805448" lon="134.147378"><ele>141.18</ele><time>2026-08-12T09:46:51Z</time></trkpt>
<trkpt lat="34.805384" lon="134.147396"><ele>140.84</ele><time>2026-08-12T09:46:55Z</time></trkpt>
<trkpt lat="34.80534" lon="134.147404"><ele>139.35</ele><time>2026-08-12T09:46:58Z</time></trkpt>
<trkpt lat="34.805281" lon="134.147432"><ele>138.57</ele><time>2026-08-12T09:47:02Z</time></trkpt>
<trkpt lat="34.805271" lon="134.147432"><ele>137.48</ele><time>2026-08-12T09:47:03Z</time></trkpt>
<trkpt lat="34.805264" lon="134.147431"><ele>137.48</ele><time>2026-08-12T09:47:04Z</time></trkpt>
<trkpt lat="34.805248" lon="134.14743"><ele>137.48</ele><time>2026-08-12T09:47:06Z</time></trkpt>
<trkpt lat="34.805226" lon="134.147424"><ele>136.16</ele><time>2026-08-12T09:47:09Z</time></trkpt>
<trkpt lat="34.805219" lon="134.147418"><ele>136.16</ele><time>2026-08-12T09:47:10Z</time></trkpt>
<trkpt lat="34.805211" lon="134.147395"><ele>135.1</ele><time>2026-08-12T09:47:12Z</time></trkpt>
<trkpt lat="34.805201" lon="134.147375"><ele>133.56</ele><time>2026-08-12T09:47:14Z</time></trkpt>
<trkpt lat="34.805183" lon="134.147371"><ele>133.56</ele><time>2026-08-12T09:47:15Z</time></trkpt>
<trkpt lat="34.805169" lon="134.147373"><ele>132.1</ele><time>2026-08-12T09:47:16Z</time></trkpt>
<trkpt lat="34.805157" lon="134.147373"><ele>132.1</ele><time>2026-08-12T09:47:17Z</time></trkpt>
<trkpt lat="34.805131" lon="134.147367"><ele>130.79</ele><time>2026-08-12T09:47:19Z</time></trkpt>
<trkpt lat="34.805119" lon="134.147357"><ele>129.8</ele><time>2026-08-12T09:47:20Z</time></trkpt>
<trkpt lat="34.805095" lon="134.147336"><ele>128.69</ele><time>2026-08-12T09:47:22Z</time></trkpt>
<trkpt lat="34.805064" lon="134.147313"><ele>126.82</ele><time>2026-08-12T09:47:24Z</time></trkpt>
<trkpt lat="34.805016" lon="134.147257"><ele>125.83</ele><time>2026-08-12T09:47:27Z</time></trkpt>
<trkpt lat="34.804991" lon="134.147238"><ele>125.08</ele><time>2026-08-12T09:47:28Z</time></trkpt>
<trkpt lat="34.804907" lon="134.147194"><ele>124.64</ele><time>2026-08-12T09:47:33Z</time></trkpt>
<trkpt lat="34.804892" lon="134.147188"><ele>124.64</ele><time>2026-08-12T09:47:34Z</time></trkpt>
<trkpt lat="34.804812" lon="134.147183"><ele>125.75</ele><time>2026-08-12T09:47:38Z</time></trkpt>
<trkpt lat="34.804783" lon="134.147183"><ele>125.75</ele><time>2026-08-12T09:47:40Z</time></trkpt>
<trkpt lat="34.804752" lon="134.147189"><ele>125.26</ele><time>2026-08-12T09:47:42Z</time></trkpt>
<trkpt lat="34.804741" lon="134.14719"><ele>126.26</ele><time>2026-08-12T09:47:43Z</time></trkpt>
<trkpt lat="34.804723" lon="134.147191"><ele>126.26</ele><time>2026-08-12T09:47:45Z</time></trkpt>
<trkpt lat="34.804715" lon="134.147194"><ele>126.26</ele><time>2026-08-12T09:47:46Z</time></trkpt>
<trkpt lat="34.804692" lon="134.147197"><ele>127.45</ele><time>2026-08-12T09:47:48Z</time></trkpt>
<trkpt lat="34.804679" lon="134.147198"><ele>127.45</ele><time>2026-08-12T09:47:49Z</time></trkpt>
<trkpt lat="34.804667" lon="134.14719"><ele>128.93</ele><time>2026-08-12T09:47:50Z</time></trkpt>
<trkpt lat="34.804654" lon="134.147184"><ele>130.34</ele><time>2026-08-12T09:47:51Z</time></trkpt>
<trkpt lat="34.80462" lon="134.147175"><ele>131.69</ele><time>2026-08-12T09:47:54Z</time></trkpt>
<trkpt lat="34.80461" lon="134.14718"><ele>131.69</ele><time>2026-08-12T09:47:55Z</time></trkpt>
<trkpt lat="34.804565" lon="134.14721"><ele>132.16</ele><time>2026-08-12T09:47:58Z</time></trkpt>
<trkpt lat="34.804554" lon="134.147218"><ele>132.16</ele><time>2026-08-12T09:47:59Z</time></trkpt>
<trkpt lat="34.804487" lon="134.147272"><ele>132.2</ele><time>2026-08-12T09:48:04Z</time></trkpt>
<trkpt lat="34.804406" lon="134.147328"><ele>130.72</ele><time>2026-08-12T09:48:10Z</time></trkpt>
<trkpt lat="34.804365" lon="134.147394"><ele>129.9</ele><time>2026-08-12T09:48:14Z</time></trkpt>
<trkpt lat="34.804335" lon="134.14744"><ele>129.18</ele><time>2026-08-12T09:48:16Z</time></trkpt>
<trkpt lat="34.804289" lon="134.147518"><ele>128.29</ele><time>2026-08-12T09:48:20Z</time></trkpt>
<trkpt lat="34.804274" lon="134.14753"><ele>126.96</ele><time>2026-08-12T09:48:21Z</time></trkpt>
<trkpt lat="34.804248" lon="134.147546"><ele>128.38</ele><time>2026-08-12T09:48:26Z</time></trkpt>
<trkpt lat="34.804222" lon="134.147557"><ele>128.38</ele><time>2026-08-12T09:48:30Z</time></trkpt>
<trkpt lat="34.804206" lon="134.147569"><ele>129.87</ele><time>2026-08-12T09:48:33Z</time></trkpt>
<trkpt lat="34.804179" lon="134.14756"><ele>131.64</ele><time>2026-08-12T09:48:36Z</time></trkpt>
<trkpt lat="34.804161" lon="134.147569"><ele>131.64</ele><time>2026-08-12T09:48:40Z</time></trkpt>
<trkpt lat="34.804159" lon="134.147574"><ele>131.0</ele><time>2026-08-12T09:48:41Z</time></trkpt>
<trkpt lat="34.804154" lon="134.147585"><ele>131.0</ele><time>2026-08-12T09:48:44Z</time></trkpt>
<trkpt lat="34.804156" lon="134.147588"><ele>131.0</ele><time>2026-08-12T09:48:45Z</time></trkpt>
<trkpt lat="34.804142" lon="134.147603"><ele>133.19</ele><time>2026-08-12T09:48:48Z</time></trkpt>
<trkpt lat="34.804118" lon="134.147633"><ele>130.98</ele><time>2026-08-12T09:48:52Z</time></trkpt>
<trkpt lat="34.804093" lon="134.147644"><ele>133.01</ele><time>2026-08-12T09:48:56Z</time></trkpt>
<trkpt lat="34.804065" lon="134.147653"><ele>135.03</ele><time>2026-08-12T09:49:00Z</time></trkpt>
<trkpt lat="34.804058" lon="134.147655"><ele>135.03</ele><time>2026-08-12T09:49:02Z</time></trkpt>
<trkpt lat="34.804053" lon="134.147656"><ele>135.03</ele><time>2026-08-12T09:49:05Z</time></trkpt>
<trkpt lat="34.804031" lon="134.147682"><ele>134.8</ele><time>2026-08-12T09:49:09Z</time></trkpt>
<trkpt lat="34.803987" lon="134.147686"><ele>136.2</ele><time>2026-08-12T09:49:15Z</time></trkpt>
<trkpt lat="34.803927" lon="134.147688"><ele>138.59</ele><time>2026-08-12T09:49:22Z</time></trkpt>
<trkpt lat="34.803916" lon="134.147686"><ele>138.59</ele><time>2026-08-12T09:49:23Z</time></trkpt>
<trkpt lat="34.803861" lon="134.147704"><ele>136.99</ele><time>2026-08-12T09:49:28Z</time></trkpt>
<trkpt lat="34.803829" lon="134.147684"><ele>138.4</ele><time>2026-08-12T09:49:31Z</time></trkpt>
<trkpt lat="34.803819" lon="134.147676"><ele>138.4</ele><time>2026-08-12T09:49:32Z</time></trkpt>
<trkpt lat="34.803814" lon="134.147668"><ele>138.4</ele><time>2026-08-12T09:49:33Z</time></trkpt>
<trkpt lat="34.803799" lon="134.14765"><ele>139.1</ele><time>2026-08-12T09:49:35Z</time></trkpt>
<trkpt lat="34.803766" lon="134.147642"><ele>137.88</ele><time>2026-08-12T09:49:38Z</time></trkpt>
<trkpt lat="34.803755" lon="134.147637"><ele>136.53</ele><time>2026-08-12T09:49:39Z</time></trkpt>
<trkpt lat="34.803743" lon="134.147631"><ele>136.53</ele><time>2026-08-12T09:49:40Z</time></trkpt>
<trkpt lat="34.803692" lon="134.147625"><ele>135.04</ele><time>2026-08-12T09:49:44Z</time></trkpt>
<trkpt lat="34.803672" lon="134.147619"><ele>133.51</ele><time>2026-08-12T09:49:46Z</time></trkpt>
<trkpt lat="34.803664" lon="134.147612"><ele>132.85</ele><time>2026-08-12T09:49:47Z</time></trkpt>
<trkpt lat="34.803621" lon="134.147595"><ele>131.58</ele><time>2026-08-12T09:49:50Z</time></trkpt>
<trkpt lat="34.803592" lon="134.147596"><ele>130.16</ele><time>2026-08-12T09:49:52Z</time></trkpt>
<trkpt lat="34.803571" lon="134.147599"><ele>128.93</ele><time>2026-08-12T09:49:53Z</time></trkpt>
<trkpt lat="34.80352" lon="134.147609"><ele>127.9</ele><time>2026-08-12T09:49:55Z</time></trkpt>
<trkpt lat="34.803479" lon="134.147611"><ele>126.07</ele><time>2026-08-12T09:49:57Z</time></trkpt>
<trkpt lat="34.803448" lon="134.147608"><ele>126.07</ele><time>2026-08-12T09:49:58Z</time></trkpt>
<trkpt lat="34.803392" lon="134.147609"><ele>124.57</ele><time>2026-08-12T09:50:00Z</time></trkpt>
<trkpt lat="34.803338" lon="134.14761"><ele>124.05</ele><time>2026-08-12T09:50:02Z</time></trkpt>
<trkpt lat="34.803298" lon="134.147621"><ele>123.52</ele><time>2026-08-12T09:50:04Z</time></trkpt>
<trkpt lat="34.803246" lon="134.1477"><ele>123.38</ele><time>2026-08-12T09:50:08Z</time></trkpt>
<trkpt lat="34.803231" lon="134.14772"><ele>122.89</ele><time>2026-08-12T09:50:09Z</time></trkpt>
<trkpt lat="34.803108" lon="134.147856"><ele>123.2</ele><time>2026-08-12T09:50:17Z</time></trkpt>
<trkpt lat="34.803097" lon="134.147869"><ele>123.2</ele><time>2026-08-12T09:50:18Z</time></trkpt>
<trkpt lat="34.803067" lon="134.147907"><ele>123.23</ele><time>2026-08-12T09:50:21Z</time></trkpt>
<trkpt lat="34.80304" lon="134.147931"><ele>124.03</ele><time>2026-08-12T09:50:23Z</time></trkpt>
<trkpt lat="34.803029" lon="134.147942"><ele>124.03</ele><time>2026-08-12T09:50:24Z</time></trkpt>
<trkpt lat="34.803013" lon="134.147947"><ele>125.72</ele><time>2026-08-12T09:50:25Z</time></trkpt>
<trkpt lat="34.802999" lon="134.147942"><ele>125.72</ele><time>2026-08-12T09:50:26Z</time></trkpt>
<trkpt lat="34.802975" lon="134.14794"><ele>127.34</ele><time>2026-08-12T09:50:28Z</time></trkpt>
<trkpt lat="34.802971" lon="134.147943"><ele>127.34</ele><time>2026-08-12T09:50:29Z</time></trkpt>
<trkpt lat="34.802961" lon="134.147953"><ele>127.34</ele><time>2026-08-12T09:50:33Z</time></trkpt>
<trkpt lat="34.802962" lon="134.147954"><ele>127.34</ele><time>2026-08-12T09:50:34Z</time></trkpt>
<trkpt lat="34.802939" lon="134.147955"><ele>128.95</ele><time>2026-08-12T09:50:38Z</time></trkpt>
<trkpt lat="34.802934" lon="134.147961"><ele>128.79</ele><time>2026-08-12T09:50:40Z</time></trkpt>
<trkpt lat="34.80292" lon="134.147977"><ele>128.79</ele><time>2026-08-12T09:50:44Z</time></trkpt>
<trkpt lat="34.802918" lon="134.147979"><ele>128.79</ele><time>2026-08-12T09:50:45Z</time></trkpt>
<trkpt lat="34.802915" lon="134.147981"><ele>130.65</ele><time>2026-08-12T09:50:46Z</time></trkpt>
<trkpt lat="34.802893" lon="134.14798"><ele>130.65</ele><time>2026-08-12T09:50:50Z</time></trkpt>
<trkpt lat="34.802865" lon="134.147971"><ele>132.48</ele><time>2026-08-12T09:50:55Z</time></trkpt>
<trkpt lat="34.802853" lon="134.147974"><ele>132.48</ele><time>2026-08-12T09:50:57Z</time></trkpt>
<trkpt lat="34.802823" lon="134.147983"><ele>132.99</ele><time>2026-08-12T09:51:02Z</time></trkpt>
<trkpt lat="34.802807" lon="134.147976"><ele>134.1</ele><time>2026-08-12T09:51:07Z</time></trkpt>
<trkpt lat="34.802804" lon="134.147958"><ele>135.02</ele><time>2026-08-12T09:51:09Z</time></trkpt>
<trkpt lat="34.802791" lon="134.147951"><ele>135.02</ele><time>2026-08-12T09:51:12Z</time></trkpt>
<trkpt lat="34.802764" lon="134.147941"><ele>137.44</ele><time>2026-08-12T09:51:17Z</time></trkpt>
<trkpt lat="34.802757" lon="134.147946"><ele>137.44</ele><time>2026-08-12T09:51:20Z</time></trkpt>
<trkpt lat="34.802747" lon="134.147948"><ele>137.44</ele><time>2026-08-12T09:51:24Z</time></trkpt>
<trkpt lat="34.802748" lon="134.147946"><ele>137.44</ele><time>2026-08-12T09:51:25Z</time></trkpt>
<trkpt lat="34.802741" lon="134.147929"><ele>137.44</ele><time>2026-08-12T09:51:30Z</time></trkpt>
<trkpt lat="34.802721" lon="134.147928"><ele>139.29</ele><time>2026-08-12T09:51:33Z</time></trkpt>
<trkpt lat="34.802697" lon="134.147909"><ele>141.28</ele><time>2026-08-12T09:51:37Z</time></trkpt>
<trkpt lat="34.802694" lon="134.147902"><ele>141.28</ele><time>2026-08-12T09:51:38Z</time></trkpt>
<trkpt lat="34.802665" lon="134.147903"><ele>142.76</ele><time>2026-08-12T09:51:44Z</time></trkpt>
<trkpt lat="34.802654" lon="134.147905"><ele>142.76</ele><time>2026-08-12T09:51:45Z</time></trkpt>
<trkpt lat="34.802612" lon="134.147892"><ele>143.88</ele><time>2026-08-12T09:51:49Z</time></trkpt>
<trkpt lat="34.802599" lon="134.147887"><ele>143.88</ele><time>2026-08-12T09:51:50Z</time></trkpt>
<trkpt lat="34.802546" lon="134.147878"><ele>145.09</ele><time>2026-08-12T09:51:53Z</time></trkpt>
<trkpt lat="34.802489" lon="134.147876"><ele>144.96</ele><time>2026-08-12T09:51:56Z</time></trkpt>
<trkpt lat="34.802369" lon="134.147863"><ele>144.52</ele><time>2026-08-12T09:52:02Z</time></trkpt>
<trkpt lat="34.802338" lon="134.147856"><ele>144.3</ele><time>2026-08-12T09:52:04Z</time></trkpt>
<trkpt lat="34.802265" lon="134.147854"><ele>143.58</ele><time>2026-08-12T09:52:08Z</time></trkpt>
<trkpt lat="34.802236" lon="134.14786"><ele>143.2</ele><time>2026-08-12T09:52:10Z</time></trkpt>
<trkpt lat="34.802199" lon="134.147897"><ele>142.29</ele><time>2026-08-12T09:52:13Z</time></trkpt>
<trkpt lat="34.802166" lon="134.147935"><ele>141.01</ele><time>2026-08-12T09:52:16Z</time></trkpt>
<trkpt lat="34.802158" lon="134.147945"><ele>141.01</ele><time>2026-08-12T09:52:17Z</time></trkpt>
<trkpt lat="34.802136" lon="134.147986"><ele>139.81</ele><time>2026-08-12T09:52:20Z</time></trkpt>
<trkpt lat="34.802108" lon="134.148039"><ele>138.52</ele><time>2026-08-12T09:52:22Z</time></trkpt>
<trkpt lat="34.802094" lon="134.14806"><ele>137.72</ele><time>2026-08-12T09:52:23Z</time></trkpt>
<trkpt lat="34.80201" lon="134.1482"><ele>137.63</ele><time>2026-08-12T09:52:29Z</time></trkpt>
<trkpt lat="34.801946" lon="134.1483"><ele>139.9</ele><time>2026-08-12T09:52:35Z</time></trkpt>
<trkpt lat="34.80193" lon="134.14834"><ele>140.01</ele><time>2026-08-12T09:52:38Z</time></trkpt>
<trkpt lat="34.801911" lon="134.148368"><ele>141.95</ele><time>2026-08-12T09:52:41Z</time></trkpt>
<trkpt lat="34.801907" lon="134.148373"><ele>141.95</ele><time>2026-08-12T09:52:42Z</time></trkpt>
<trkpt lat="34.801883" lon="134.148403"><ele>143.76</ele><time>2026-08-12T09:52:45Z</time></trkpt>
<trkpt lat="34.801851" lon="134.148449"><ele>145.15</ele><time>2026-08-12T09:52:51Z</time></trkpt>
<trkpt lat="34.801813" lon="134.14852"><ele>147.02</ele><time>2026-08-12T09:52:57Z</time></trkpt>
<trkpt lat="34.80181" lon="134.148528"><ele>147.02</ele><time>2026-08-12T09:52:59Z</time></trkpt>
<trkpt lat="34.801788" lon="134.148566"><ele>147.11</ele><time>2026-08-12T09:53:02Z</time></trkpt>
<trkpt lat="34.801778" lon="134.148595"><ele>147.88</ele><time>2026-08-12T09:53:05Z</time></trkpt>
<trkpt lat="34.801756" lon="134.148624"><ele>147.13</ele><time>2026-08-12T09:53:09Z</time></trkpt>
<trkpt lat="34.801716" lon="134.14868"><ele>147.62</ele><time>2026-08-12T09:53:12Z</time></trkpt>
<trkpt lat="34.801699" lon="134.148713"><ele>147.96</ele><time>2026-08-12T09:53:16Z</time></trkpt>
<trkpt lat="34.801698" lon="134.148724"><ele>147.96</ele><time>2026-08-12T09:53:17Z</time></trkpt>
<trkpt lat="34.801689" lon="134.148773"><ele>149.25</ele><time>2026-08-12T09:53:23Z</time></trkpt>
<trkpt lat="34.80169" lon="134.148786"><ele>151.31</ele><time>2026-08-12T09:53:25Z</time></trkpt>
<trkpt lat="34.801677" lon="134.14881"><ele>151.05</ele><time>2026-08-12T09:53:29Z</time></trkpt>
<trkpt lat="34.801664" lon="134.148823"><ele>152.89</ele><time>2026-08-12T09:53:31Z</time></trkpt>
<trkpt lat="34.801658" lon="134.148838"><ele>152.89</ele><time>2026-08-12T09:53:35Z</time></trkpt>
<trkpt lat="34.801665" lon="134.148849"><ele>152.89</ele><time>2026-08-12T09:53:38Z</time></trkpt>
<trkpt lat="34.801672" lon="134.148857"><ele>152.89</ele><time>2026-08-12T09:53:40Z</time></trkpt>
<trkpt lat="34.801681" lon="134.148901"><ele>154.26</ele><time>2026-08-12T09:53:45Z</time></trkpt>
<trkpt lat="34.801681" lon="134.148908"><ele>155.22</ele><time>2026-08-12T09:53:46Z</time></trkpt>
<trkpt lat="34.801701" lon="134.14893"><ele>154.91</ele><time>2026-08-12T09:53:51Z</time></trkpt>
<trkpt lat="34.801701" lon="134.148938"><ele>154.91</ele><time>2026-08-12T09:53:52Z</time></trkpt>
<trkpt lat="34.801681" lon="134.148965"><ele>156.63</ele><time>2026-08-12T09:53:57Z</time></trkpt>
<trkpt lat="34.80168" lon="134.148973"><ele>156.63</ele><time>2026-08-12T09:53:58Z</time></trkpt>
<trkpt lat="34.801666" lon="134.149001"><ele>158.53</ele><time>2026-08-12T09:54:01Z</time></trkpt>
<trkpt lat="34.801645" lon="134.149012"><ele>159.15</ele><time>2026-08-12T09:54:04Z</time></trkpt>
<trkpt lat="34.801638" lon="134.149014"><ele>159.15</ele><time>2026-08-12T09:54:05Z</time></trkpt>
<trkpt lat="34.801609" lon="134.14904"><ele>160.99</ele><time>2026-08-12T09:54:10Z</time></trkpt>
<trkpt lat="34.801608" lon="134.149039"><ele>160.99</ele><time>2026-08-12T09:54:11Z</time></trkpt>
<trkpt lat="34.801618" lon="134.149028"><ele>159.15</ele><time>2026-08-12T09:54:15Z</time></trkpt>
<trkpt lat="34.801618" lon="134.149027"><ele>159.15</ele><time>2026-08-12T09:54:16Z</time></trkpt>
<trkpt lat="34.801636" lon="134.149036"><ele>161.38</ele><time>2026-08-12T09:54:20Z</time></trkpt>
<trkpt lat="34.801657" lon="134.149044"><ele>160.3</ele><time>2026-08-12T09:54:24Z</time></trkpt>
<trkpt lat="34.801663" lon="134.14905"><ele>160.3</ele><time>2026-08-12T09:54:25Z</time></trkpt>
<trkpt lat="34.801652" lon="134.149084"><ele>161.97</ele><time>2026-08-12T09:54:29Z</time></trkpt>
<trkpt lat="34.801634" lon="134.149084"><ele>163.54</ele><time>2026-08-12T09:54:31Z</time></trkpt>
<trkpt lat="34.801622" lon="134.149099"><ele>163.54</ele><time>2026-08-12T09:54:35Z</time></trkpt>
<trkpt lat="34.801623" lon="134.149101"><ele>163.54</ele><time>2026-08-12T09:54:36Z</time></trkpt>
<trkpt lat="34.801635" lon="134.149116"><ele>163.54</ele><time>2026-08-12T09:54:40Z</time></trkpt>
<trkpt lat="34.801638" lon="134.149128"><ele>165.84</ele><time>2026-08-12T09:54:42Z</time></trkpt>
<trkpt lat="34.801629" lon="134.14916"><ele>165.84</ele><time>2026-08-12T09:54:46Z</time></trkpt>
<trkpt lat="34.801627" lon="134.149172"><ele>166.83</ele><time>2026-08-12T09:54:47Z</time></trkpt>
<trkpt lat="34.801581" lon="134.149204"><ele>167.61</ele><time>2026-08-12T09:54:51Z</time></trkpt>
<trkpt lat="34.801571" lon="134.149211"><ele>167.5</ele><time>2026-08-12T09:54:52Z</time></trkpt>
<trkpt lat="34.801528" lon="134.149254"><ele>168.26</ele><time>2026-08-12T09:54:57Z</time></trkpt>
<trkpt lat="34.801521" lon="134.149264"><ele>168.26</ele><time>2026-08-12T09:54:58Z</time></trkpt>
<trkpt lat="34.801442" lon="134.149297"><ele>168.83</ele><time>2026-08-12T09:55:05Z</time></trkpt>
<trkpt lat="34.801362" lon="134.149349"><ele>168.35</ele><time>2026-08-12T09:55:12Z</time></trkpt>
<trkpt lat="34.80125" lon="134.149428"><ele>169.16</ele><time>2026-08-12T09:55:23Z</time></trkpt>
<trkpt lat="34.801241" lon="134.149436"><ele>169.16</ele><time>2026-08-12T09:55:24Z</time></trkpt>
<trkpt lat="34.801198" lon="134.149479"><ele>168.52</ele><time>2026-08-12T09:55:28Z</time></trkpt>
<trkpt lat="34.801182" lon="134.149487"><ele>167.02</ele><time>2026-08-12T09:55:29Z</time></trkpt>
<trkpt lat="34.801163" lon="134.149496"><ele>167.02</ele><time>2026-08-12T09:55:32Z</time></trkpt>
<trkpt lat="34.801149" lon="134.149503"><ele>165.52</ele><time>2026-08-12T09:55:34Z</time></trkpt>
<trkpt lat="34.801143" lon="134.149514"><ele>166.32</ele><time>2026-08-12T09:55:35Z</time></trkpt>
<trkpt lat="34.801137" lon="134.149524"><ele>166.32</ele><time>2026-08-12T09:55:36Z</time></trkpt>
<trkpt lat="34.801106" lon="134.149548"><ele>165.06</ele><time>2026-08-12T09:55:40Z</time></trkpt>
<trkpt lat="34.801098" lon="134.149554"><ele>165.06</ele><time>2026-08-12T09:55:42Z</time></trkpt>
<trkpt lat="34.801095" lon="134.14956"><ele>165.06</ele><time>2026-08-12T09:55:43Z</time></trkpt>
<trkpt lat="34.801091" lon="134.149587"><ele>165.06</ele><time>2026-08-12T09:55:45Z</time></trkpt>
<trkpt lat="34.801085" lon="134.14962"><ele>165.13</ele><time>2026-08-12T09:55:47Z</time></trkpt>
<trkpt lat="34.801071" lon="134.149651"><ele>162.97</ele><time>2026-08-12T09:55:50Z</time></trkpt>
<trkpt lat="34.801059" lon="134.14967"><ele>162.97</ele><time>2026-08-12T09:55:53Z</time></trkpt>
<trkpt lat="34.801058" lon="134.149696"><ele>162.93</ele><time>2026-08-12T09:55:55Z</time></trkpt>
<trkpt lat="34.801053" lon="134.14971"><ele>162.93</ele><time>2026-08-12T09:55:56Z</time></trkpt>
<trkpt lat="34.801033" lon="134.149717"><ele>160.26</ele><time>2026-08-12T09:55:58Z</time></trkpt>
<trkpt lat="34.801023" lon="134.149712"><ele>160.26</ele><time>2026-08-12T09:55:59Z</time></trkpt>
<trkpt lat="34.801003" lon="134.149709"><ele>158.44</ele><time>2026-08-12T09:56:01Z</time></trkpt>
<trkpt lat="34.800986" lon="134.149717"><ele>158.44</ele><time>2026-08-12T09:56:03Z</time></trkpt>
<trkpt lat="34.800982" lon="134.149747"><ele>158.11</ele><time>2026-08-12T09:56:06Z</time></trkpt>
<trkpt lat="34.800976" lon="134.149752"><ele>156.22</ele><time>2026-08-12T09:56:07Z</time></trkpt>
<trkpt lat="34.800962" lon="134.149748"><ele>156.22</ele><time>2026-08-12T09:56:09Z</time></trkpt>
<trkpt lat="34.800949" lon="134.149773"><ele>155.48</ele><time>2026-08-12T09:56:12Z</time></trkpt>
<trkpt lat="34.800943" lon="134.149782"><ele>155.48</ele><time>2026-08-12T09:56:13Z</time></trkpt>
<trkpt lat="34.800923" lon="134.149793"><ele>152.59</ele><time>2026-08-12T09:56:15Z</time></trkpt>
<trkpt lat="34.800903" lon="134.149823"><ele>149.85</ele><time>2026-08-12T09:56:17Z</time></trkpt>
<trkpt lat="34.800892" lon="134.149833"><ele>149.85</ele><time>2026-08-12T09:56:18Z</time></trkpt>
<trkpt lat="34.800876" lon="134.149833"><ele>149.85</ele><time>2026-08-12T09:56:19Z</time></trkpt>
<trkpt lat="34.800859" lon="134.149807"><ele>148.32</ele><time>2026-08-12T09:56:21Z</time></trkpt>
<trkpt lat="34.800846" lon="134.149786"><ele>148.78</ele><time>2026-08-12T09:56:23Z</time></trkpt>
<trkpt lat="34.800836" lon="134.14979"><ele>146.38</ele><time>2026-08-12T09:56:24Z</time></trkpt>
<trkpt lat="34.800824" lon="134.149798"><ele>146.38</ele><time>2026-08-12T09:56:26Z</time></trkpt>
<trkpt lat="34.800824" lon="134.149801"><ele>146.38</ele><time>2026-08-12T09:56:27Z</time></trkpt>
<trkpt lat="34.800819" lon="134.149816"><ele>146.13</ele><time>2026-08-12T09:56:29Z</time></trkpt>
<trkpt lat="34.800802" lon="134.149843"><ele>146.13</ele><time>2026-08-12T09:56:32Z</time></trkpt>
<trkpt lat="34.80079" lon="134.149865"><ele>143.67</ele><time>2026-08-12T09:56:34Z</time></trkpt>
<trkpt lat="34.80078" lon="134.149867"><ele>143.67</ele><time>2026-08-12T09:56:35Z</time></trkpt>
<trkpt lat="34.800755" lon="134.149866"><ele>141.96</ele><time>2026-08-12T09:56:38Z</time></trkpt>
<trkpt lat="34.80074" lon="134.14987"><ele>141.96</ele><time>2026-08-12T09:56:40Z</time></trkpt>
<trkpt lat="34.800727" lon="134.149859"><ele>140.58</ele><time>2026-08-12T09:56:42Z</time></trkpt>
<trkpt lat="34.800711" lon="134.149862"><ele>140.58</ele><time>2026-08-12T09:56:44Z</time></trkpt>
<trkpt lat="34.800687" lon="134.149908"><ele>138.63</ele><time>2026-08-12T09:56:48Z</time></trkpt>
<trkpt lat="34.800665" lon="134.149918"><ele>138.63</ele><time>2026-08-12T09:56:50Z</time></trkpt>
<trkpt lat="34.80063" lon="134.149911"><ele>136.81</ele><time>2026-08-12T09:56:53Z</time></trkpt>
<trkpt lat="34.800594" lon="134.149902"><ele>135.11</ele><time>2026-08-12T09:56:57Z</time></trkpt>
<trkpt lat="34.800584" lon="134.149912"><ele>133.59</ele><time>2026-08-12T09:56:58Z</time></trkpt>
<trkpt lat="34.800574" lon="134.149946"><ele>133.05</ele><time>2026-08-12T09:57:00Z</time></trkpt>
<trkpt lat="34.800563" lon="134.149988"><ele>131.62</ele><time>2026-08-12T09:57:03Z</time></trkpt>
<trkpt lat="34.800538" lon="134.149995"><ele>130.51</ele><time>2026-08-12T09:57:06Z</time></trkpt>
<trkpt lat="34.800533" lon="134.15"><ele>130.51</ele><time>2026-08-12T09:57:07Z</time></trkpt>
<trkpt lat="34.800523" lon="134.150015"><ele>130.51</ele><time>2026-08-12T09:57:09Z</time></trkpt>
<trkpt lat="34.800512" lon="134.150027"><ele>127.45</ele><time>2026-08-12T09:57:10Z</time></trkpt>
<trkpt lat="34.80048" lon="134.150044"><ele>127.26</ele><time>2026-08-12T09:57:12Z</time></trkpt>
<trkpt lat="34.800459" lon="134.150053"><ele>127.26</ele><time>2026-08-12T09:57:13Z</time></trkpt>
<trkpt lat="34.800442" lon="134.150058"><ele>127.18</ele><time>2026-08-12T09:57:14Z</time></trkpt>
<trkpt lat="34.800424" lon="134.150061"><ele>127.18</ele><time>2026-08-12T09:57:15Z</time></trkpt>
<trkpt lat="34.800404" lon="134.150058"><ele>126.51</ele><time>2026-08-12T09:57:17Z</time></trkpt>
<trkpt lat="34.80036" lon="134.150061"><ele>125.43</ele><time>2026-08-12T09:57:20Z</time></trkpt>
<trkpt lat="34.800338" lon="134.150055"><ele>124.02</ele><time>2026-08-12T09:57:21Z</time></trkpt>
<trkpt lat="34.800314" lon="134.150037"><ele>124.02</ele><time>2026-08-12T09:57:23Z</time></trkpt>
<trkpt lat="34.800312" lon="134.150036"><ele>124.02</ele><time>2026-08-12T09:57:24Z</time></trkpt>
<trkpt lat="34.800312" lon="134.150035"><ele>124.02</ele><time>2026-08-12T09:57:25Z</time></trkpt>
<trkpt lat="34.800309" lon="134.150031"><ele>124.02</ele><time>2026-08-12T09:57:26Z</time></trkpt>
<trkpt lat="34.8003" lon="134.150011"><ele>123.39</ele><time>2026-08-12T09:57:28Z</time></trkpt>
<trkpt lat="34.800294" lon="134.149991"><ele>123.39</ele><time>2026-08-12T09:57:30Z</time></trkpt>
<trkpt lat="34.800286" lon="134.149967"><ele>123.63</ele><time>2026-08-12T09:57:32Z</time></trkpt>
<trkpt lat="34.800283" lon="134.149939"><ele>123.63</ele><time>2026-08-12T09:57:34Z</time></trkpt>
<trkpt lat="34.800281" lon="134.149928"><ele>122.96</ele><time>2026-08-12T09:57:35Z</time></trkpt>
<trkpt lat="34.800277" lon="134.149904"><ele>122.96</ele><time>2026-08-12T09:57:37Z</time></trkpt>
<trkpt lat="34.800274" lon="134.149873"><ele>121.74</ele><time>2026-08-12T09:57:42Z</time></trkpt>
<trkpt lat="34.800274" lon="134.149856"><ele>121.74</ele><time>2026-08-12T09:57:44Z</time></trkpt>
<trkpt lat="34.800273" lon="134.14983"><ele>120.05</ele><time>2026-08-12T09:57:46Z</time></trkpt>
<trkpt lat="34.800278" lon="134.149782"><ele>118.15</ele><time>2026-08-12T09:57:49Z</time></trkpt>
<trkpt lat="34.800278" lon="134.149768"><ele>118.15</ele><time>2026-08-12T09:57:50Z</time></trkpt>
<trkpt lat="34.800277" lon="134.149733"><ele>116.12</ele><time>2026-08-12T09:57:53Z</time></trkpt>
<trkpt lat="34.800292" lon="134.1497"><ele>113.94</ele><time>2026-08-12T09:57:56Z</time></trkpt>
<trkpt lat="34.800302" lon="134.14967"><ele>111.5</ele><time>2026-08-12T09:57:58Z</time></trkpt>
<trkpt lat="34.80031" lon="134.149649"><ele>112.99</ele><time>2026-08-12T09:57:59Z</time></trkpt>
<trkpt lat="34.800358" lon="134.149587"><ele>108.28</ele><time>2026-08-12T09:58:04Z</time></trkpt>
<trkpt lat="34.800347" lon="134.149579"><ele>108.28</ele><time>2026-08-12T09:58:08Z</time></trkpt>
<trkpt lat="34.800337" lon="134.149579"><ele>107.21</ele><time>2026-08-12T09:58:09Z</time></trkpt>
<trkpt lat="34.800327" lon="134.149571"><ele>107.21</ele><time>2026-08-12T09:58:10Z</time></trkpt>
<trkpt lat="34.800325" lon="134.149552"><ele>107.21</ele><time>2026-08-12T09:58:11Z</time></trkpt>
<trkpt lat="34.800331" lon="134.149526"><ele>104.67</ele><time>2026-08-12T09:58:12Z</time></trkpt>
<trkpt lat="34.80034" lon="134.149509"><ele>104.67</ele><time>2026-08-12T09:58:13Z</time></trkpt>
<trkpt lat="34.800353" lon="134.149489"><ele>102.89</ele><time>2026-08-12T09:58:14Z</time></trkpt>
<trkpt lat="34.800386" lon="134.149456"><ele>101.43</ele><time>2026-08-12T09:58:16Z</time></trkpt>
<trkpt lat="34.800438" lon="134.149412"><ele>100.95</ele><time>2026-08-12T09:58:19Z</time></trkpt>
<trkpt lat="34.800454" lon="134.149393"><ele>103.58</ele><time>2026-08-12T09:58:21Z</time></trkpt>
<trkpt lat="34.800456" lon="134.149382"><ele>103.58</ele><time>2026-08-12T09:58:22Z</time></trkpt>
<trkpt lat="34.800456" lon="134.149378"><ele>103.58</ele><time>2026-08-12T09:58:23Z</time></trkpt>
<trkpt lat="34.800455" lon="134.149366"><ele>102.3</ele><time>2026-08-12T09:58:25Z</time></trkpt>
<trkpt lat="34.800448" lon="134.149344"><ele>99.32</ele><time>2026-08-12T09:58:28Z</time></trkpt>
<trkpt lat="34.800443" lon="134.149333"><ele>99.32</ele><time>2026-08-12T09:58:30Z</time></trkpt>
<trkpt lat="34.800434" lon="134.149309"><ele>98.36</ele><time>2026-08-12T09:58:33Z</time></trkpt>
<trkpt lat="34.800432" lon="134.149274"><ele>97.33</ele><time>2026-08-12T09:58:36Z</time></trkpt>
<trkpt lat="34.800431" lon="134.149265"><ele>97.33</ele><time>2026-08-12T09:58:37Z</time></trkpt>
<trkpt lat="34.80042" lon="134.14924"><ele>96.15</ele><time>2026-08-12T09:58:40Z</time></trkpt>
<trkpt lat="34.800413" lon="134.149243"><ele>93.28</ele><time>2026-08-12T09:58:42Z</time></trkpt>
<trkpt lat="34.800411" lon="134.149245"><ele>93.28</ele><time>2026-08-12T09:58:43Z</time></trkpt>
<trkpt lat="34.800395" lon="134.149218"><ele>93.28</ele><time>2026-08-12T09:58:46Z</time></trkpt>
<trkpt lat="34.800394" lon="134.149203"><ele>92.29</ele><time>2026-08-12T09:58:47Z</time></trkpt>
<trkpt lat="34.80039" lon="134.149186"><ele>92.29</ele><time>2026-08-12T09:58:49Z</time></trkpt>
<trkpt lat="34.800383" lon="134.14916"><ele>91.54</ele><time>2026-08-12T09:58:52Z</time></trkpt>
<trkpt lat="34.800372" lon="134.149163"><ele>89.7</ele><time>2026-08-12T09:58:54Z</time></trkpt>
<trkpt lat="34.800367" lon="134.149165"><ele>89.7</ele><time>2026-08-12T09:58:55Z</time></trkpt>
<trkpt lat="34.800364" lon="134.149164"><ele>89.7</ele><time>2026-08-12T09:58:58Z</time></trkpt>
<trkpt lat="34.800355" lon="134.149173"><ele>89.7</ele><time>2026-08-12T09:59:00Z</time></trkpt>
<trkpt lat="34.800326" lon="134.149155"><ele>86.01</ele><time>2026-08-12T09:59:04Z</time></trkpt>
<trkpt lat="34.800322" lon="134.149128"><ele>86.01</ele><time>2026-08-12T09:59:06Z</time></trkpt>
<trkpt lat="34.80032" lon="134.149115"><ele>85.57</ele><time>2026-08-12T09:59:07Z</time></trkpt>
<trkpt lat="34.800324" lon="134.149091"><ele>85.57</ele><time>2026-08-12T09:59:09Z</time></trkpt>
<trkpt lat="34.800318" lon="134.149049"><ele>84.57</ele><time>2026-08-12T09:59:12Z</time></trkpt>
<trkpt lat="34.800315" lon="134.149017"><ele>83.43</ele><time>2026-08-12T09:59:14Z</time></trkpt>
<trkpt lat="34.800307" lon="134.148978"><ele>79.66</ele><time>2026-08-12T09:59:17Z</time></trkpt>
<trkpt lat="34.8003" lon="134.148951"><ele>79.66</ele><time>2026-08-12T09:59:19Z</time></trkpt>
<trkpt lat="34.8003" lon="134.14894"><ele>78.71</ele><time>2026-08-12T09:59:20Z</time></trkpt>
<trkpt lat="34.800302" lon="134.148931"><ele>78.71</ele><time>2026-08-12T09:59:21Z</time></trkpt>
<trkpt lat="34.800301" lon="134.14892"><ele>78.71</ele><time>2026-08-12T09:59:22Z</time></trkpt>
<trkpt lat="34.800289" lon="134.148877"><ele>77.66</ele><time>2026-08-12T09:59:25Z</time></trkpt>
<trkpt lat="34.800284" lon="134.148833"><ele>76.58</ele><time>2026-08-12T09:59:28Z</time></trkpt>
<trkpt lat="34.80027" lon="134.148834"><ele>73.6</ele><time>2026-08-12T09:59:30Z</time></trkpt>
<trkpt lat="34.80026" lon="134.148837"><ele>73.6</ele><time>2026-08-12T09:59:31Z</time></trkpt>
<trkpt lat="34.800254" lon="134.148836"><ele>73.6</ele><time>2026-08-12T09:59:32Z</time></trkpt>
<trkpt lat="34.800253" lon="134.148827"><ele>73.6</ele><time>2026-08-12T09:59:33Z</time></trkpt>
<trkpt lat="34.800247" lon="134.148787"><ele>72.51</ele><time>2026-08-12T09:59:37Z</time></trkpt>
<trkpt lat="34.800233" lon="134.148793"><ele>69.78</ele><time>2026-08-12T09:59:39Z</time></trkpt>
<trkpt lat="34.800221" lon="134.14879"><ele>69.78</ele><time>2026-08-12T09:59:41Z</time></trkpt>
<trkpt lat="34.80022" lon="134.148771"><ele>68.81</ele><time>2026-08-12T09:59:43Z</time></trkpt>
<trkpt lat="34.800219" lon="134.148765"><ele>68.81</ele><time>2026-08-12T09:59:44Z</time></trkpt>
<trkpt lat="34.800215" lon="134.148761"><ele>68.81</ele><time>2026-08-12T09:59:46Z</time></trkpt>
<trkpt lat="34.800207" lon="134.148774"><ele>68.81</ele><time>2026-08-12T09:59:48Z</time></trkpt>
<trkpt lat="34.800199" lon="134.148783"><ele>67.22</ele><time>2026-08-12T09:59:49Z</time></trkpt>
<trkpt lat="34.800179" lon="134.148794"><ele>67.22</ele><time>2026-08-12T09:59:51Z</time></trkpt>
<trkpt lat="34.800175" lon="134.148799"><ele>67.22</ele><time>2026-08-12T09:59:52Z</time></trkpt>
<trkpt lat="34.800166" lon="134.148798"><ele>64.96</ele><time>2026-08-12T09:59:54Z</time></trkpt>
<trkpt lat="34.800164" lon="134.14879"><ele>64.96</ele><time>2026-08-12T09:59:55Z</time></trkpt>
<trkpt lat="34.800163" lon="134.148776"><ele>64.96</ele><time>2026-08-12T09:59:56Z</time></trkpt>
<trkpt lat="34.80016" lon="134.148749"><ele>63.58</ele><time>2026-08-12T09:59:58Z</time></trkpt>
<trkpt lat="34.800158" lon="134.148716"><ele>62.64</ele><time>2026-08-12T10:00:01Z</time></trkpt>
<trkpt lat="34.800145" lon="134.148682"><ele>61.89</ele><time>2026-08-12T10:00:04Z</time></trkpt>
<trkpt lat="34.800132" lon="134.148654"><ele>61.89</ele><time>2026-08-12T10:00:06Z</time></trkpt>
<trkpt lat="34.800127" lon="134.148643"><ele>58.94</ele><time>2026-08-12T10:00:07Z</time></trkpt>
<trkpt lat="34.800124" lon="134.148612"><ele>58.94</ele><time>2026-08-12T10:00:10Z</time></trkpt>
<trkpt lat="34.80011" lon="134.148582"><ele>58.0</ele><time>2026-08-12T10:00:13Z</time></trkpt>
<trkpt lat="34.800102" lon="134.148576"><ele>58.0</ele><time>2026-08-12T10:00:15Z</time></trkpt>
<trkpt lat="34.800086" lon="134.14859"><ele>55.75</ele><time>2026-08-12T10:00:17Z</time></trkpt>
<trkpt lat="34.800077" lon="134.148597"><ele>55.75</ele><time>2026-08-12T10:00:18Z</time></trkpt>
<trkpt lat="34.80007" lon="134.148602"><ele>55.75</ele><time>2026-08-12T10:00:19Z</time></trkpt>
<trkpt lat="34.800039" lon="134.148608"><ele>55.0</ele><time>2026-08-12T10:00:22Z</time></trkpt>
<trkpt lat="34.800025" lon="134.148582"><ele>52.33</ele><time>2026-08-12T10:00:24Z</time></trkpt>
<trkpt lat="34.800004" lon="134.14855"><ele>51.48</ele><time>2026-08-12T10:00:28Z</time></trkpt>
<trkpt lat="34.799982" lon="134.148521"><ele>49.8</ele><time>2026-08-12T10:00:31Z</time></trkpt>
<trkpt lat="34.799975" lon="134.148509"><ele>48.86</ele><time>2026-08-12T10:00:33Z</time></trkpt>
<trkpt lat="34.799964" lon="134.14849"><ele>48.86</ele><time>2026-08-12T10:00:35Z</time></trkpt>
<trkpt lat="34.799963" lon="134.148477"><ele>48.86</ele><time>2026-08-12T10:00:36Z</time></trkpt>
<trkpt lat="34.799961" lon="134.148457"><ele>47.77</ele><time>2026-08-12T10:00:39Z</time></trkpt>
<trkpt lat="34.799962" lon="134.148445"><ele>47.77</ele><time>2026-08-12T10:00:40Z</time></trkpt>
<trkpt lat="34.799968" lon="134.148419"><ele>46.49</ele><time>2026-08-12T10:00:42Z</time></trkpt>
<trkpt lat="34.799961" lon="134.148399"><ele>46.49</ele><time>2026-08-12T10:00:44Z</time></trkpt>
<trkpt lat="34.799952" lon="134.148396"><ele>44.8</ele><time>2026-08-12T10:00:45Z</time></trkpt>
<trkpt lat="34.799934" lon="134.148375"><ele>43.51</ele><time>2026-08-12T10:00:47Z</time></trkpt>
<trkpt lat="34.799938" lon="134.148247"><ele>40.63</ele><time>2026-08-12T10:00:52Z</time></trkpt>
<trkpt lat="34.799936" lon="134.148233"><ele>40.63</ele><time>2026-08-12T10:00:53Z</time></trkpt>
<trkpt lat="34.79993" lon="134.14823"><ele>40.63</ele><time>2026-08-12T10:00:54Z</time></trkpt>
<trkpt lat="34.799923" lon="134.148228"><ele>40.63</ele><time>2026-08-12T10:00:55Z</time></trkpt>
<trkpt lat="34.799915" lon="134.148224"><ele>39.48</ele><time>2026-08-12T10:00:56Z</time></trkpt>
<trkpt lat="34.799904" lon="134.148226"><ele>39.48</ele><time>2026-08-12T10:00:58Z</time></trkpt>
<trkpt lat="34.799893" lon="134.148252"><ele>39.48</ele><time>2026-08-12T10:01:00Z</time></trkpt>
<trkpt lat="34.79988" lon="134.148266"><ele>38.08</ele><time>2026-08-12T10:01:01Z</time></trkpt>
<trkpt lat="34.799854" lon="134.148294"><ele>38.08</ele><time>2026-08-12T10:01:03Z</time></trkpt>
<trkpt lat="34.799832" lon="134.148336"><ele>36.76</ele><time>2026-08-12T10:01:06Z</time></trkpt>
<trkpt lat="34.799811" lon="134.148376"><ele>35.14</ele><time>2026-08-12T10:01:09Z</time></trkpt>
<trkpt lat="34.799801" lon="134.148385"><ele>35.14</ele><time>2026-08-12T10:01:10Z</time></trkpt>
<trkpt lat="34.799781" lon="134.148406"><ele>36.16</ele><time>2026-08-12T10:01:12Z</time></trkpt>
<trkpt lat="34.799762" lon="134.148423"><ele>33.89</ele><time>2026-08-12T10:01:14Z</time></trkpt>
<trkpt lat="34.799755" lon="134.148428"><ele>33.89</ele><time>2026-08-12T10:01:15Z</time></trkpt>
<trkpt lat="34.799733" lon="134.148436"><ele>32.92</ele><time>2026-08-12T10:01:17Z</time></trkpt>
<trkpt lat="34.799713" lon="134.148439"><ele>32.92</ele><time>2026-08-12T10:01:19Z</time></trkpt>
<trkpt lat="34.799695" lon="134.148441"><ele>30.89</ele><time>2026-08-12T10:01:20Z</time></trkpt>
<trkpt lat="34.799648" lon="134.14846"><ele>29.06</ele><time>2026-08-12T10:01:23Z</time></trkpt>
<trkpt lat="34.799616" lon="134.148446"><ele>27.65</ele><time>2026-08-12T10:01:26Z</time></trkpt>
<trkpt lat="34.799587" lon="134.148433"><ele>26.6</ele><time>2026-08-12T10:01:28Z</time></trkpt>
<trkpt lat="34.799531" lon="134.148426"><ele>23.55</ele><time>2026-08-12T10:01:31Z</time></trkpt>
<trkpt lat="34.799473" lon="134.148386"><ele>23.02</ele><time>2026-08-12T10:01:34Z</time></trkpt>
<trkpt lat="34.799433" lon="134.148363"><ele>22.93</ele><time>2026-08-12T10:01:36Z</time></trkpt>
<trkpt lat="34.799412" lon="134.148352"><ele>22.79</ele><time>2026-08-12T10:01:37Z</time></trkpt>
<trkpt lat="34.79937" lon="134.148341"><ele>22.4</ele><time>2026-08-12T10:01:39Z</time></trkpt>
<trkpt lat="34.799331" lon="134.148321"><ele>22.45</ele><time>2026-08-12T10:01:41Z</time></trkpt>
<trkpt lat="34.799265" lon="134.148305"><ele>22.19</ele><time>2026-08-12T10:01:44Z</time></trkpt>
<trkpt lat="34.799202" lon="134.148299"><ele>21.83</ele><time>2026-08-12T10:01:47Z</time></trkpt>
<trkpt lat="34.799159" lon="134.148288"><ele>21.84</ele><time>2026-08-12T10:01:49Z</time></trkpt>
<trkpt lat="34.799137" lon="134.148286"><ele>21.8</ele><time>2026-08-12T10:01:50Z</time></trkpt>
<trkpt lat="34.799118" lon="134.148283"><ele>21.8</ele><time>2026-08-12T10:01:51Z</time></trkpt>
<trkpt lat="34.799099" lon="134.148262"><ele>21.64</ele><time>2026-08-12T10:01:53Z</time></trkpt>
<trkpt lat="34.799105" lon="134.14821"><ele>21.52</ele><time>2026-08-12T10:01:55Z</time></trkpt>
<trkpt lat="34.799112" lon="134.148175"><ele>21.58</ele><time>2026-08-12T10:01:56Z</time></trkpt>
<trkpt lat="34.799165" lon="134.147965"><ele>21.32</ele><time>2026-08-12T10:02:02Z</time></trkpt>
<trkpt lat="34.79916" lon="134.147896"><ele>21.28</ele><time>2026-08-12T10:02:04Z</time></trkpt>
<trkpt lat="34.799158" lon="134.147866"><ele>21.2</ele><time>2026-08-12T10:02:05Z</time></trkpt>
<trkpt lat="34.799182" lon="134.147623"><ele>21.51</ele><time>2026-08-12T10:02:13Z</time></trkpt>
<trkpt lat="34.799182" lon="134.147589"><ele>21.45</ele><time>2026-08-12T10:02:14Z</time></trkpt>
<trkpt lat="34.799197" lon="134.147341"><ele>21.32</ele><time>2026-08-12T10:02:22Z</time></trkpt>
<trkpt lat="34.799201" lon="134.14731"><ele>21.47</ele><time>2026-08-12T10:02:23Z</time></trkpt>
<trkpt lat="34.79921" lon="134.147221"><ele>21.43</ele><time>2026-08-12T10:02:26Z</time></trkpt>
<trkpt lat="34.799238" lon="134.147044"><ele>21.69</ele><time>2026-08-12T10:02:32Z</time></trkpt>
<trkpt lat="34.79924" lon="134.146916"><ele>21.64</ele><time>2026-08-12T10:02:36Z</time></trkpt>
<trkpt lat="34.799236" lon="134.146768"><ele>21.14</ele><time>2026-08-12T10:02:41Z</time></trkpt>
<trkpt lat="34.799247" lon="134.146684"><ele>21.16</ele><time>2026-08-12T10:02:44Z</time></trkpt>
<trkpt lat="34.799257" lon="134.146543"><ele>21.29</ele><time>2026-08-12T10:02:49Z</time></trkpt>
<trkpt lat="34.799255" lon="134.146513"><ele>21.25</ele><time>2026-08-12T10:02:50Z</time></trkpt>
<trkpt lat="34.799267" lon="134.146395"><ele>21.19</ele><time>2026-08-12T10:02:54Z</time></trkpt>
<trkpt lat="34.799285" lon="134.14624"><ele>21.15</ele><time>2026-08-12T10:02:59Z</time></trkpt>
<trkpt lat="34.79929" lon="134.146208"><ele>21.2</ele><time>2026-08-12T10:03:00Z</time></trkpt>
<trkpt lat="34.799294" lon="134.145965"><ele>21.16</ele><time>2026-08-12T10:03:08Z</time></trkpt>
<trkpt lat="34.799302" lon="134.145903"><ele>21.21</ele><time>2026-08-12T10:03:10Z</time></trkpt>
<trkpt lat="34.799329" lon="134.145669"><ele>21.47</ele><time>2026-08-12T10:03:18Z</time></trkpt>
<trkpt lat="34.799345" lon="134.145586"><ele>21.39</ele><time>2026-08-12T10:03:21Z</time></trkpt>
<trkpt lat="34.799369" lon="134.145343"><ele>21.24</ele><time>2026-08-12T10:03:29Z</time></trkpt>
<trkpt lat="34.79937" lon="134.145284"><ele>20.81</ele><time>2026-08-12T10:03:31Z</time></trkpt>
<trkpt lat="34.799387" lon="134.14505"><ele>21.03</ele><time>2026-08-12T10:03:39Z</time></trkpt>
<trkpt lat="34.799413" lon="134.144858"><ele>21.11</ele><time>2026-08-12T10:03:46Z</time></trkpt>
<trkpt lat="34.799484" lon="134.144821"><ele>20.98</ele><time>2026-08-12T10:03:49Z</time></trkpt>
<trkpt lat="34.799507" lon="134.144813"><ele>21.01</ele><time>2026-08-12T10:03:50Z</time></trkpt>
<trkpt lat="34.799524" lon="134.144803"><ele>21.01</ele><time>2026-08-12T10:03:51Z</time></trkpt>
<trkpt lat="34.799676" lon="134.144774"><ele>20.77</ele><time>2026-08-12T10:03:56Z</time></trkpt>
<trkpt lat="34.799869" lon="134.14474"><ele>20.46</ele><time>2026-08-12T10:04:03Z</time></trkpt>
<trkpt lat="34.799902" lon="134.144738"><ele>20.12</ele><time>2026-08-12T10:04:04Z</time></trkpt>
<trkpt lat="34.800085" lon="134.144716"><ele>19.97</ele><time>2026-08-12T10:04:11Z</time></trkpt>
<trkpt lat="34.800162" lon="134.144712"><ele>19.98</ele><time>2026-08-12T10:04:14Z</time></trkpt>
<trkpt lat="34.800341" lon="134.144683"><ele>20.25</ele><time>2026-08-12T10:04:21Z</time></trkpt>
<trkpt lat="34.800369" lon="134.144691"><ele>20.4</ele><time>2026-08-12T10:04:22Z</time></trkpt>
<trkpt lat="34.800494" lon="134.144691"><ele>20.4</ele><time>2026-08-12T10:04:27Z</time></trkpt>
<trkpt lat="34.800676" lon="134.144652"><ele>20.46</ele><time>2026-08-12T10:04:34Z</time></trkpt>
<trkpt lat="34.800857" lon="134.144623"><ele>20.58</ele><time>2026-08-12T10:04:41Z</time></trkpt>
<trkpt lat="34.800883" lon="134.144618"><ele>20.63</ele><time>2026-08-12T10:04:42Z</time></trkpt>
<trkpt lat="34.801037" lon="134.144592"><ele>20.5</ele><time>2026-08-12T10:04:48Z</time></trkpt>
<trkpt lat="34.801116" lon="134.14458"><ele>20.5</ele><time>2026-08-12T10:04:51Z</time></trkpt>
<trkpt lat="34.801251" lon="134.144556"><ele>20.3</ele><time>2026-08-12T10:04:56Z</time></trkpt>
<trkpt lat="34.801303" lon="134.144549"><ele>20.3</ele><time>2026-08-12T10:04:58Z</time></trkpt>
<trkpt lat="34.801487" lon="134.144537"><ele>20.3</ele><time>2026-08-12T10:05:05Z</time></trkpt>
<trkpt lat="34.801563" lon="134.144547"><ele>20.33</ele><time>2026-08-12T10:05:08Z</time></trkpt>
<trkpt lat="34.801755" lon="134.144561"><ele>20.73</ele><time>2026-08-12T10:05:15Z</time></trkpt>
<trkpt lat="34.801805" lon="134.144561"><ele>20.6</ele><time>2026-08-12T10:05:17Z</time></trkpt>
<trkpt lat="34.801986" lon="134.144546"><ele>20.81</ele><time>2026-08-12T10:05:24Z</time></trkpt>
<trkpt lat="34.802031" lon="134.144553"><ele>20.84</ele><time>2026-08-12T10:05:26Z</time></trkpt>
<trkpt lat="34.802078" lon="134.144572"><ele>20.49</ele><time>2026-08-12T10:05:28Z</time></trkpt>
<trkpt lat="34.802151" lon="134.14457"><ele>20.47</ele><time>2026-08-12T10:05:31Z</time></trkpt>
<trkpt lat="34.802348" lon="134.144578"><ele>20.63</ele><time>2026-08-12T10:05:39Z</time></trkpt>
<trkpt lat="34.802495" lon="134.144556"><ele>20.72</ele><time>2026-08-12T10:05:44Z</time></trkpt>
<trkpt lat="34.802575" lon="134.144539"><ele>20.84</ele><time>2026-08-12T10:05:47Z</time></trkpt>
<trkpt lat="34.802765" lon="134.144512"><ele>20.78</ele><time>2026-08-12T10:05:54Z</time></trkpt>
<trkpt lat="34.802819" lon="134.144504"><ele>20.73</ele><time>2026-08-12T10:05:56Z</time></trkpt>
<trkpt lat="34.802999" lon="134.144477"><ele>20.78</ele><time>2026-08-12T10:06:03Z</time></trkpt>
<trkpt lat="34.803084" lon="134.144471"><ele>20.62</ele><time>2026-08-12T10:06:06Z</time></trkpt>
<trkpt lat="34.803278" lon="134.144435"><ele>20.83</ele><time>2026-08-12T10:06:13Z</time></trkpt>
<trkpt lat="34.803302" lon="134.14443"><ele>20.83</ele><time>2026-08-12T10:06:14Z</time></trkpt>
<trkpt lat="34.803488" lon="134.144408"><ele>20.94</ele><time>2026-08-12T10:06:21Z</time></trkpt>
<trkpt lat="34.803515" lon="134.144404"><ele>20.93</ele><time>2026-08-12T10:06:22Z</time></trkpt>
<trkpt lat="34.803696" lon="134.144365"><ele>20.84</ele><time>2026-08-12T10:06:29Z</time></trkpt>
<trkpt lat="34.803768" lon="134.144344"><ele>20.73</ele><time>2026-08-12T10:06:32Z</time></trkpt>
<trkpt lat="34.803894" lon="134.144328"><ele>20.72</ele><time>2026-08-12T10:06:37Z</time></trkpt>
<trkpt lat="34.804027" lon="134.144317"><ele>20.74</ele><time>2026-08-12T10:06:42Z</time></trkpt>
<trkpt lat="34.804215" lon="134.144283"><ele>20.61</ele><time>2026-08-12T10:06:49Z</time></trkpt>
<trkpt lat="34.804243" lon="134.144283"><ele>20.7</ele><time>2026-08-12T10:06:50Z</time></trkpt>
<trkpt lat="34.804427" lon="134.14427"><ele>20.86</ele><time>2026-08-12T10:06:57Z</time></trkpt>
<trkpt lat="34.804455" lon="134.144274"><ele>20.83</ele><time>2026-08-12T10:06:58Z</time></trkpt>
<trkpt lat="34.804639" lon="134.144268"><ele>20.94</ele><time>2026-08-12T10:07:05Z</time></trkpt>
<trkpt lat="34.804664" lon="134.14427"><ele>20.84</ele><time>2026-08-12T10:07:06Z</time></trkpt>
<trkpt lat="34.804835" lon="134.144256"><ele>20.98</ele><time>2026-08-12T10:07:13Z</time></trkpt>
<trkpt lat="34.805021" lon="134.144249"><ele>21.17</ele><time>2026-08-12T10:07:20Z</time></trkpt>
<trkpt lat="34.805111" lon="134.144242"><ele>21.28</ele><time>2026-08-12T10:07:23Z</time></trkpt>
<trkpt lat="34.805295" lon="134.144226"><ele>21.4</ele><time>2026-08-12T10:07:30Z</time></trkpt>
<trkpt lat="34.805348" lon="134.144218"><ele>21.25</ele><time>2026-08-12T10:07:32Z</time></trkpt>
<trkpt lat="34.805508" lon="134.144189"><ele>21.31</ele><time>2026-08-12T10:07:38Z</time></trkpt>
<trkpt lat="34.805583" lon="134.144181"><ele>21.27</ele><time>2026-08-12T10:07:41Z</time></trkpt>
<trkpt lat="34.805785" lon="134.144155"><ele>21.41</ele><time>2026-08-12T10:07:49Z</time></trkpt>
<trkpt lat="34.805809" lon="134.144148"><ele>21.43</ele><time>2026-08-12T10:07:50Z</time></trkpt>
<trkpt lat="34.80601" lon="134.144129"><ele>21.5</ele><time>2026-08-12T10:07:58Z</time></trkpt>
<trkpt lat="34.806107" lon="134.144113"><ele>21.53</ele><time>2026-08-12T10:08:02Z</time></trkpt>
<trkpt lat="34.80631" lon="134.144093"><ele>21.84</ele><time>2026-08-12T10:08:10Z</time></trkpt>
<trkpt lat="34.806382" lon="134.144087"><ele>21.87</ele><time>2026-08-12T10:08:13Z</time></trkpt>
<trkpt lat="34.806481" lon="134.144067"><ele>21.8</ele><time>2026-08-12T10:08:17Z</time></trkpt>
<trkpt lat="34.806681" lon="134.144037"><ele>21.98</ele><time>2026-08-12T10:08:25Z</time></trkpt>
<trkpt lat="34.806704" lon="134.144031"><ele>22.17</ele><time>2026-08-12T10:08:26Z</time></trkpt>
<trkpt lat="34.8069" lon="134.143996"><ele>22.18</ele><time>2026-08-12T10:08:34Z</time></trkpt>
<trkpt lat="34.807003" lon="134.143989"><ele>21.97</ele><time>2026-08-12T10:08:38Z</time></trkpt>
<trkpt lat="34.807183" lon="134.143968"><ele>22.17</ele><time>2026-08-12T10:08:45Z</time></trkpt>
<trkpt lat="34.807376" lon="134.143952"><ele>22.33</ele><time>2026-08-12T10:08:53Z</time></trkpt>
<trkpt lat="34.807558" lon="134.143926"><ele>22.23</ele><time>2026-08-12T10:09:00Z</time></trkpt>
<trkpt lat="34.807636" lon="134.143921"><ele>21.85</ele><time>2026-08-12T10:09:03Z</time></trkpt>
<trkpt lat="34.807831" lon="134.143899"><ele>22.88</ele><time>2026-08-12T10:09:11Z</time></trkpt>
<trkpt lat="34.807855" lon="134.143895"><ele>22.74</ele><time>2026-08-12T10:09:12Z</time></trkpt>
<trkpt lat="34.808054" lon="134.143891"><ele>22.81</ele><time>2026-08-12T10:09:20Z</time></trkpt>
<trkpt lat="34.808256" lon="134.143864"><ele>23.16</ele><time>2026-08-12T10:09:28Z</time></trkpt>
<trkpt lat="34.808279" lon="134.143857"><ele>23.09</ele><time>2026-08-12T10:09:29Z</time></trkpt>
<trkpt lat="34.808421" lon="134.143813"><ele>23.57</ele><time>2026-08-12T10:09:35Z</time></trkpt>
<trkpt lat="34.808617" lon="134.143769"><ele>23.49</ele><time>2026-08-12T10:09:43Z</time></trkpt>
<trkpt lat="34.808669" lon="134.143761"><ele>23.46</ele><time>2026-08-12T10:09:45Z</time></trkpt>
<trkpt lat="34.808856" lon="134.143694"><ele>23.98</ele><time>2026-08-12T10:09:53Z</time></trkpt>
<trkpt lat="34.809017" lon="134.143615"><ele>23.45</ele><time>2026-08-12T10:10:00Z</time></trkpt>
<trkpt lat="34.809183" lon="134.143552"><ele>23.91</ele><time>2026-08-12T10:10:07Z</time></trkpt>
<trkpt lat="34.809231" lon="134.143536"><ele>23.89</ele><time>2026-08-12T10:10:09Z</time></trkpt>
<trkpt lat="34.809417" lon="134.143479"><ele>24.67</ele><time>2026-08-12T10:10:16Z</time></trkpt>
<trkpt lat="34.809593" lon="134.143398"><ele>25.05</ele><time>2026-08-12T10:10:23Z</time></trkpt>
<trkpt lat="34.809624" lon="134.143381"><ele>25.43</ele><time>2026-08-12T10:10:25Z</time></trkpt>
<trkpt lat="34.809638" lon="134.14337"><ele>25.43</ele><time>2026-08-12T10:10:28Z</time></trkpt>
<trkpt lat="34.809681" lon="134.14335"><ele>25.23</ele><time>2026-08-12T10:10:32Z</time></trkpt>
<trkpt lat="34.809734" lon="134.143327"><ele>24.86</ele><time>2026-08-12T10:10:34Z</time></trkpt>
<trkpt lat="34.809892" lon="134.143266"><ele>19.77</ele><time>2026-08-12T10:10:41Z</time></trkpt>
<trkpt lat="34.810074" lon="134.143195"><ele>23.63</ele><time>2026-08-12T10:10:49Z</time></trkpt>
<trkpt lat="34.810098" lon="134.143186"><ele>23.63</ele><time>2026-08-12T10:10:50Z</time></trkpt>
<trkpt lat="34.810291" lon="134.143101"><ele>23.94</ele><time>2026-08-12T10:10:58Z</time></trkpt>
<trkpt lat="34.810317" lon="134.143087"><ele>23.64</ele><time>2026-08-12T10:10:59Z</time></trkpt>
<trkpt lat="34.810365" lon="134.143067"><ele>23.27</ele><time>2026-08-12T10:11:01Z</time></trkpt>
<trkpt lat="34.810387" lon="134.143053"><ele>23.37</ele><time>2026-08-12T10:11:02Z</time></trkpt>
<trkpt lat="34.810433" lon="134.143029"><ele>23.09</ele><time>2026-08-12T10:11:04Z</time></trkpt>
<trkpt lat="34.810455" lon="134.143016"><ele>23.27</ele><time>2026-08-12T10:11:05Z</time></trkpt>
<trkpt lat="34.810635" lon="134.142905"><ele>22.54</ele><time>2026-08-12T10:11:13Z</time></trkpt>
<trkpt lat="34.810659" lon="134.14289"><ele>22.38</ele><time>2026-08-12T10:11:14Z</time></trkpt>
<trkpt lat="34.810832" lon="134.142813"><ele>22.3</ele><time>2026-08-12T10:11:21Z</time></trkpt>
<trkpt lat="34.810859" lon="134.1428"><ele>22.07</ele><time>2026-08-12T10:11:22Z</time></trkpt>
<trkpt lat="34.811045" lon="134.14273"><ele>22.39</ele><time>2026-08-12T10:11:30Z</time></trkpt>
<trkpt lat="34.811236" lon="134.142677"><ele>22.4</ele><time>2026-08-12T10:11:38Z</time></trkpt>
<trkpt lat="34.811283" lon="134.142692"><ele>22.36</ele><time>2026-08-12T10:11:40Z</time></trkpt>
<trkpt lat="34.811477" lon="134.142753"><ele>22.43</ele><time>2026-08-12T10:11:48Z</time></trkpt>
<trkpt lat="34.811501" lon="134.142754"><ele>22.44</ele><time>2026-08-12T10:11:49Z</time></trkpt>
<trkpt lat="34.811578" lon="134.142768"><ele>22.43</ele><time>2026-08-12T10:11:53Z</time></trkpt>
</trkseg></trk></gpx>